<?xml version="1.0" encoding="UTF-8" standalone="no" ?>
<gpx xmlns="http://www.topografix.com/GPX/1/1" xmlns:xsi="http://www.w3.org/2001/XMLSchema-instance" xsi:schemaLocation="http://www.topografix.com/GPX/1/1 http://www.topografix.com/GPX/1/1/gpx.xsd" version="1.1" creator="VisuGPX - https://www.visugpx.com">
  <metadata>
    <name>Sardaigne Corse</name>
    <desc><![CDATA[En octobre 2017 au départ de Portisco
6 membres d'équipage avec
Julien Bruno Frédéric Benjamin Sébastien 
embarqué sur Dufour 412]]></desc>
  </metadata>
  <trk>
    <name><![CDATA[Tracé actuel: 07 OCT 2017 17:35]]></name>
    <trkseg>
      <trkpt lat="41.03255" lon="9.52412">
        <ele>1.58</ele>
        <time>2017-10-07T16:35:33Z</time>
      </trkpt>
      <trkpt lat="41.03252" lon="9.52409">
        <ele>3.5</ele>
        <time>2017-10-07T16:35:47Z</time>
      </trkpt>
    </trkseg>
  </trk>
  <trk>
    <name><![CDATA[Tracé actuel: 08 OCT 2017 09:06]]></name>
    <trkseg>
      <trkpt lat="41.03241" lon="9.52429">
        <ele>5.42</ele>
        <time>2017-10-08T08:06:02Z</time>
      </trkpt>
      <trkpt lat="41.0324" lon="9.52447">
        <ele>5.91</ele>
        <time>2017-10-08T08:06:24Z</time>
      </trkpt>
      <trkpt lat="41.0324" lon="9.52448">
        <ele>5.91</ele>
        <time>2017-10-08T08:06:25Z</time>
      </trkpt>
      <trkpt lat="41.03255" lon="9.52457">
        <ele>5.91</ele>
        <time>2017-10-08T08:06:45Z</time>
      </trkpt>
      <trkpt lat="41.03273" lon="9.52457">
        <ele>3.98</ele>
        <time>2017-10-08T08:07:05Z</time>
      </trkpt>
      <trkpt lat="41.0329" lon="9.52453">
        <ele>5.91</ele>
        <time>2017-10-08T08:07:21Z</time>
      </trkpt>
      <trkpt lat="41.03293" lon="9.52453">
        <ele>6.87</ele>
        <time>2017-10-08T08:07:23Z</time>
      </trkpt>
      <trkpt lat="41.03297" lon="9.52451">
        <ele>7.83</ele>
        <time>2017-10-08T08:07:27Z</time>
      </trkpt>
      <trkpt lat="41.03315" lon="9.52449">
        <ele>8.79</ele>
        <time>2017-10-08T08:07:45Z</time>
      </trkpt>
      <trkpt lat="41.03315" lon="9.5245">
        <ele>8.79</ele>
        <time>2017-10-08T08:07:46Z</time>
      </trkpt>
      <trkpt lat="41.03321" lon="9.52451">
        <ele>9.27</ele>
        <time>2017-10-08T08:07:51Z</time>
      </trkpt>
      <trkpt lat="41.03325" lon="9.5245">
        <ele>10.23</ele>
        <time>2017-10-08T08:07:55Z</time>
      </trkpt>
      <trkpt lat="41.03338" lon="9.52453">
        <ele>7.35</ele>
        <time>2017-10-08T08:08:07Z</time>
      </trkpt>
      <trkpt lat="41.03342" lon="9.52455">
        <ele>6.87</ele>
        <time>2017-10-08T08:08:11Z</time>
      </trkpt>
      <trkpt lat="41.03363" lon="9.52471">
        <ele>7.35</ele>
        <time>2017-10-08T08:08:32Z</time>
      </trkpt>
      <trkpt lat="41.03366" lon="9.52499">
        <ele>5.91</ele>
        <time>2017-10-08T08:08:53Z</time>
      </trkpt>
      <trkpt lat="41.0336" lon="9.52511">
        <ele>3.98</ele>
        <time>2017-10-08T08:09:04Z</time>
      </trkpt>
      <trkpt lat="41.0336" lon="9.52512">
        <ele>3.98</ele>
        <time>2017-10-08T08:09:05Z</time>
      </trkpt>
      <trkpt lat="41.03352" lon="9.52526">
        <ele>5.42</ele>
        <time>2017-10-08T08:09:17Z</time>
      </trkpt>
      <trkpt lat="41.03339" lon="9.52541">
        <ele>7.83</ele>
        <time>2017-10-08T08:09:36Z</time>
      </trkpt>
      <trkpt lat="41.03334" lon="9.52544">
        <ele>7.83</ele>
        <time>2017-10-08T08:09:41Z</time>
      </trkpt>
      <trkpt lat="41.0332" lon="9.52552">
        <ele>7.35</ele>
        <time>2017-10-08T08:09:57Z</time>
      </trkpt>
      <trkpt lat="41.03312" lon="9.5256">
        <ele>7.35</ele>
        <time>2017-10-08T08:10:09Z</time>
      </trkpt>
      <trkpt lat="41.03302" lon="9.52568">
        <ele>5.91</ele>
        <time>2017-10-08T08:10:25Z</time>
      </trkpt>
      <trkpt lat="41.03296" lon="9.52574">
        <ele>6.87</ele>
        <time>2017-10-08T08:10:33Z</time>
      </trkpt>
      <trkpt lat="41.03284" lon="9.52581">
        <ele>5.91</ele>
        <time>2017-10-08T08:10:44Z</time>
      </trkpt>
      <trkpt lat="41.03266" lon="9.52589">
        <ele>4.94</ele>
        <time>2017-10-08T08:10:59Z</time>
      </trkpt>
      <trkpt lat="41.0324" lon="9.52607">
        <ele>5.42</ele>
        <time>2017-10-08T08:11:17Z</time>
      </trkpt>
      <trkpt lat="41.03226" lon="9.52632">
        <ele>3.5</ele>
        <time>2017-10-08T08:11:31Z</time>
      </trkpt>
      <trkpt lat="41.03221" lon="9.52676">
        <ele>3.5</ele>
        <time>2017-10-08T08:11:50Z</time>
      </trkpt>
      <trkpt lat="41.03233" lon="9.52706">
        <ele>2.06</ele>
        <time>2017-10-08T08:12:04Z</time>
      </trkpt>
      <trkpt lat="41.03254" lon="9.52739">
        <ele>2.54</ele>
        <time>2017-10-08T08:12:21Z</time>
      </trkpt>
      <trkpt lat="41.03282" lon="9.52767">
        <ele>3.5</ele>
        <time>2017-10-08T08:12:38Z</time>
      </trkpt>
      <trkpt lat="41.03307" lon="9.5279">
        <ele>3.02</ele>
        <time>2017-10-08T08:12:53Z</time>
      </trkpt>
      <trkpt lat="41.0333" lon="9.52813">
        <ele>3.02</ele>
        <time>2017-10-08T08:13:07Z</time>
      </trkpt>
      <trkpt lat="41.03335" lon="9.52818">
        <ele>2.54</ele>
        <time>2017-10-08T08:13:10Z</time>
      </trkpt>
      <trkpt lat="41.03373" lon="9.52857">
        <ele>2.54</ele>
        <time>2017-10-08T08:13:34Z</time>
      </trkpt>
      <trkpt lat="41.03407" lon="9.52888">
        <ele>3.5</ele>
        <time>2017-10-08T08:13:54Z</time>
      </trkpt>
      <trkpt lat="41.03449" lon="9.52922">
        <ele>3.02</ele>
        <time>2017-10-08T08:14:18Z</time>
      </trkpt>
      <trkpt lat="41.03486" lon="9.52952">
        <ele>3.02</ele>
        <time>2017-10-08T08:14:39Z</time>
      </trkpt>
      <trkpt lat="41.03529" lon="9.52989">
        <ele>3.5</ele>
        <time>2017-10-08T08:15:04Z</time>
      </trkpt>
      <trkpt lat="41.03562" lon="9.53019">
        <ele>2.54</ele>
        <time>2017-10-08T08:15:24Z</time>
      </trkpt>
      <trkpt lat="41.03597" lon="9.53054">
        <ele>1.58</ele>
        <time>2017-10-08T08:15:46Z</time>
      </trkpt>
      <trkpt lat="41.03627" lon="9.53081">
        <ele>1.58</ele>
        <time>2017-10-08T08:16:04Z</time>
      </trkpt>
      <trkpt lat="41.03656" lon="9.53107">
        <ele>2.06</ele>
        <time>2017-10-08T08:16:21Z</time>
      </trkpt>
      <trkpt lat="41.03699" lon="9.53143">
        <ele>3.02</ele>
        <time>2017-10-08T08:16:47Z</time>
      </trkpt>
      <trkpt lat="41.03728" lon="9.53174">
        <ele>3.5</ele>
        <time>2017-10-08T08:17:05Z</time>
      </trkpt>
      <trkpt lat="41.03753" lon="9.5321">
        <ele>3.02</ele>
        <time>2017-10-08T08:17:23Z</time>
      </trkpt>
      <trkpt lat="41.03791" lon="9.53249">
        <ele>2.06</ele>
        <time>2017-10-08T08:17:46Z</time>
      </trkpt>
      <trkpt lat="41.0382" lon="9.53276">
        <ele>2.06</ele>
        <time>2017-10-08T08:18:03Z</time>
      </trkpt>
      <trkpt lat="41.03852" lon="9.53305">
        <ele>2.54</ele>
        <time>2017-10-08T08:18:22Z</time>
      </trkpt>
      <trkpt lat="41.03885" lon="9.53334">
        <ele>2.06</ele>
        <time>2017-10-08T08:18:41Z</time>
      </trkpt>
      <trkpt lat="41.03917" lon="9.53361">
        <ele>1.58</ele>
        <time>2017-10-08T08:18:59Z</time>
      </trkpt>
      <trkpt lat="41.03964" lon="9.53394">
        <ele>1.58</ele>
        <time>2017-10-08T08:19:24Z</time>
      </trkpt>
      <trkpt lat="41.04" lon="9.53425">
        <ele>1.58</ele>
        <time>2017-10-08T08:19:44Z</time>
      </trkpt>
      <trkpt lat="41.04032" lon="9.53452">
        <ele>1.58</ele>
        <time>2017-10-08T08:20:01Z</time>
      </trkpt>
      <trkpt lat="41.04078" lon="9.53486">
        <ele>3.02</ele>
        <time>2017-10-08T08:20:25Z</time>
      </trkpt>
      <trkpt lat="41.04103" lon="9.53511">
        <ele>3.02</ele>
        <time>2017-10-08T08:20:40Z</time>
      </trkpt>
      <trkpt lat="41.04131" lon="9.53549">
        <ele>3.5</ele>
        <time>2017-10-08T08:20:58Z</time>
      </trkpt>
      <trkpt lat="41.04164" lon="9.53595">
        <ele>3.5</ele>
        <time>2017-10-08T08:21:20Z</time>
      </trkpt>
      <trkpt lat="41.04193" lon="9.53637">
        <ele>3.5</ele>
        <time>2017-10-08T08:21:39Z</time>
      </trkpt>
      <trkpt lat="41.04224" lon="9.53631">
        <ele>3.02</ele>
        <time>2017-10-08T08:21:53Z</time>
      </trkpt>
      <trkpt lat="41.04242" lon="9.53604">
        <ele>3.02</ele>
        <time>2017-10-08T08:22:08Z</time>
      </trkpt>
      <trkpt lat="41.04244" lon="9.53563">
        <ele>2.54</ele>
        <time>2017-10-08T08:22:26Z</time>
      </trkpt>
      <trkpt lat="41.04227" lon="9.53532">
        <ele>2.06</ele>
        <time>2017-10-08T08:22:41Z</time>
      </trkpt>
      <trkpt lat="41.04199" lon="9.53509">
        <ele>1.1</ele>
        <time>2017-10-08T08:22:58Z</time>
      </trkpt>
      <trkpt lat="41.04189" lon="9.53518">
        <ele>0.62</ele>
        <time>2017-10-08T08:23:03Z</time>
      </trkpt>
      <trkpt lat="41.04195" lon="9.53552">
        <ele>1.1</ele>
        <time>2017-10-08T08:23:17Z</time>
      </trkpt>
      <trkpt lat="41.04217" lon="9.53582">
        <ele>3.5</ele>
        <time>2017-10-08T08:23:35Z</time>
      </trkpt>
      <trkpt lat="41.04242" lon="9.53612">
        <ele>3.98</ele>
        <time>2017-10-08T08:23:53Z</time>
      </trkpt>
      <trkpt lat="41.04272" lon="9.53645">
        <ele>3.98</ele>
        <time>2017-10-08T08:24:12Z</time>
      </trkpt>
      <trkpt lat="41.04298" lon="9.53674">
        <ele>4.46</ele>
        <time>2017-10-08T08:24:30Z</time>
      </trkpt>
      <trkpt lat="41.04325" lon="9.53702">
        <ele>4.94</ele>
        <time>2017-10-08T08:24:49Z</time>
      </trkpt>
      <trkpt lat="41.04345" lon="9.5372">
        <ele>4.46</ele>
        <time>2017-10-08T08:25:01Z</time>
      </trkpt>
      <trkpt lat="41.04382" lon="9.53756">
        <ele>3.5</ele>
        <time>2017-10-08T08:25:21Z</time>
      </trkpt>
      <trkpt lat="41.04414" lon="9.53787">
        <ele>3.98</ele>
        <time>2017-10-08T08:25:35Z</time>
      </trkpt>
      <trkpt lat="41.04454" lon="9.53826">
        <ele>2.54</ele>
        <time>2017-10-08T08:25:52Z</time>
      </trkpt>
      <trkpt lat="41.0449" lon="9.53851">
        <ele>2.06</ele>
        <time>2017-10-08T08:26:05Z</time>
      </trkpt>
      <trkpt lat="41.04545" lon="9.53876">
        <ele>2.54</ele>
        <time>2017-10-08T08:26:23Z</time>
      </trkpt>
      <trkpt lat="41.04593" lon="9.53909">
        <ele>2.54</ele>
        <time>2017-10-08T08:26:39Z</time>
      </trkpt>
      <trkpt lat="41.04632" lon="9.53946">
        <ele>2.06</ele>
        <time>2017-10-08T08:26:54Z</time>
      </trkpt>
      <trkpt lat="41.04668" lon="9.53985">
        <ele>1.58</ele>
        <time>2017-10-08T08:27:10Z</time>
      </trkpt>
      <trkpt lat="41.04702" lon="9.54017">
        <ele>2.06</ele>
        <time>2017-10-08T08:27:24Z</time>
      </trkpt>
      <trkpt lat="41.04737" lon="9.54052">
        <ele>1.58</ele>
        <time>2017-10-08T08:27:39Z</time>
      </trkpt>
      <trkpt lat="41.04778" lon="9.54086">
        <ele>1.1</ele>
        <time>2017-10-08T08:27:56Z</time>
      </trkpt>
      <trkpt lat="41.04822" lon="9.54116">
        <ele>0.62</ele>
        <time>2017-10-08T08:28:13Z</time>
      </trkpt>
      <trkpt lat="41.04862" lon="9.54147">
        <ele>0.62</ele>
        <time>2017-10-08T08:28:28Z</time>
      </trkpt>
      <trkpt lat="41.049" lon="9.54177">
        <ele>1.1</ele>
        <time>2017-10-08T08:28:41Z</time>
      </trkpt>
      <trkpt lat="41.04927" lon="9.54196">
        <ele>1.1</ele>
        <time>2017-10-08T08:28:49Z</time>
      </trkpt>
      <trkpt lat="41.04938" lon="9.54204">
        <ele>1.58</ele>
        <time>2017-10-08T08:28:52Z</time>
      </trkpt>
      <trkpt lat="41.04948" lon="9.54209">
        <ele>1.58</ele>
        <time>2017-10-08T08:28:55Z</time>
      </trkpt>
      <trkpt lat="41.04955" lon="9.54215">
        <ele>1.1</ele>
        <time>2017-10-08T08:28:57Z</time>
      </trkpt>
      <trkpt lat="41.04979" lon="9.54232">
        <ele>2.06</ele>
        <time>2017-10-08T08:29:04Z</time>
      </trkpt>
      <trkpt lat="41.0499" lon="9.54238">
        <ele>2.54</ele>
        <time>2017-10-08T08:29:07Z</time>
      </trkpt>
      <trkpt lat="41.05005" lon="9.54245">
        <ele>2.54</ele>
        <time>2017-10-08T08:29:11Z</time>
      </trkpt>
      <trkpt lat="41.05026" lon="9.54258">
        <ele>3.02</ele>
        <time>2017-10-08T08:29:17Z</time>
      </trkpt>
      <trkpt lat="41.05072" lon="9.54278">
        <ele>2.06</ele>
        <time>2017-10-08T08:29:30Z</time>
      </trkpt>
      <trkpt lat="41.05112" lon="9.54301">
        <ele>2.06</ele>
        <time>2017-10-08T08:29:42Z</time>
      </trkpt>
      <trkpt lat="41.05162" lon="9.54348">
        <ele>3.02</ele>
        <time>2017-10-08T08:30:00Z</time>
      </trkpt>
      <trkpt lat="41.05195" lon="9.54375">
        <ele>2.54</ele>
        <time>2017-10-08T08:30:12Z</time>
      </trkpt>
      <trkpt lat="41.0526" lon="9.54424">
        <ele>2.54</ele>
        <time>2017-10-08T08:30:36Z</time>
      </trkpt>
      <trkpt lat="41.05294" lon="9.54449">
        <ele>2.54</ele>
        <time>2017-10-08T08:30:49Z</time>
      </trkpt>
      <trkpt lat="41.05338" lon="9.54482">
        <ele>2.54</ele>
        <time>2017-10-08T08:31:06Z</time>
      </trkpt>
      <trkpt lat="41.05393" lon="9.5452">
        <ele>3.02</ele>
        <time>2017-10-08T08:31:23Z</time>
      </trkpt>
      <trkpt lat="41.05441" lon="9.54551">
        <ele>3.98</ele>
        <time>2017-10-08T08:31:38Z</time>
      </trkpt>
      <trkpt lat="41.05494" lon="9.54593">
        <ele>3.02</ele>
        <time>2017-10-08T08:31:57Z</time>
      </trkpt>
      <trkpt lat="41.05544" lon="9.54633">
        <ele>3.02</ele>
        <time>2017-10-08T08:32:17Z</time>
      </trkpt>
      <trkpt lat="41.05585" lon="9.54667">
        <ele>4.46</ele>
        <time>2017-10-08T08:32:33Z</time>
      </trkpt>
      <trkpt lat="41.05637" lon="9.54699">
        <ele>3.5</ele>
        <time>2017-10-08T08:32:52Z</time>
      </trkpt>
      <trkpt lat="41.05695" lon="9.54732">
        <ele>3.02</ele>
        <time>2017-10-08T08:33:10Z</time>
      </trkpt>
      <trkpt lat="41.0575" lon="9.54763">
        <ele>2.54</ele>
        <time>2017-10-08T08:33:26Z</time>
      </trkpt>
      <trkpt lat="41.058" lon="9.54798">
        <ele>2.06</ele>
        <time>2017-10-08T08:33:42Z</time>
      </trkpt>
      <trkpt lat="41.05856" lon="9.54843">
        <ele>2.06</ele>
        <time>2017-10-08T08:34:00Z</time>
      </trkpt>
      <trkpt lat="41.05908" lon="9.54887">
        <ele>2.54</ele>
        <time>2017-10-08T08:34:17Z</time>
      </trkpt>
      <trkpt lat="41.05962" lon="9.54929">
        <ele>2.06</ele>
        <time>2017-10-08T08:34:35Z</time>
      </trkpt>
      <trkpt lat="41.0602" lon="9.54972">
        <ele>2.54</ele>
        <time>2017-10-08T08:34:55Z</time>
      </trkpt>
      <trkpt lat="41.06075" lon="9.55007">
        <ele>2.54</ele>
        <time>2017-10-08T08:35:12Z</time>
      </trkpt>
      <trkpt lat="41.06124" lon="9.55042">
        <ele>2.54</ele>
        <time>2017-10-08T08:35:28Z</time>
      </trkpt>
      <trkpt lat="41.06173" lon="9.5508">
        <ele>2.06</ele>
        <time>2017-10-08T08:35:45Z</time>
      </trkpt>
      <trkpt lat="41.06219" lon="9.55116">
        <ele>2.54</ele>
        <time>2017-10-08T08:36:01Z</time>
      </trkpt>
      <trkpt lat="41.06266" lon="9.55158">
        <ele>3.5</ele>
        <time>2017-10-08T08:36:19Z</time>
      </trkpt>
      <trkpt lat="41.06311" lon="9.55179">
        <ele>2.54</ele>
        <time>2017-10-08T08:36:33Z</time>
      </trkpt>
      <trkpt lat="41.06355" lon="9.55197">
        <ele>2.54</ele>
        <time>2017-10-08T08:36:46Z</time>
      </trkpt>
      <trkpt lat="41.06386" lon="9.55223">
        <ele>2.06</ele>
        <time>2017-10-08T08:36:58Z</time>
      </trkpt>
      <trkpt lat="41.06389" lon="9.55223">
        <ele>2.06</ele>
        <time>2017-10-08T08:36:59Z</time>
      </trkpt>
      <trkpt lat="41.06423" lon="9.55249">
        <ele>0.62</ele>
        <time>2017-10-08T08:37:13Z</time>
      </trkpt>
      <trkpt lat="41.06447" lon="9.5528">
        <ele>2.06</ele>
        <time>2017-10-08T08:37:27Z</time>
      </trkpt>
      <trkpt lat="41.06486" lon="9.55334">
        <ele>2.06</ele>
        <time>2017-10-08T08:37:49Z</time>
      </trkpt>
      <trkpt lat="41.06513" lon="9.55374">
        <ele>1.58</ele>
        <time>2017-10-08T08:38:04Z</time>
      </trkpt>
      <trkpt lat="41.06541" lon="9.55416">
        <ele>3.02</ele>
        <time>2017-10-08T08:38:20Z</time>
      </trkpt>
      <trkpt lat="41.06578" lon="9.55461">
        <ele>3.02</ele>
        <time>2017-10-08T08:38:39Z</time>
      </trkpt>
      <trkpt lat="41.06611" lon="9.55499">
        <ele>3.02</ele>
        <time>2017-10-08T08:38:54Z</time>
      </trkpt>
      <trkpt lat="41.06647" lon="9.55541">
        <ele>2.54</ele>
        <time>2017-10-08T08:39:11Z</time>
      </trkpt>
      <trkpt lat="41.06681" lon="9.55585">
        <ele>2.54</ele>
        <time>2017-10-08T08:39:28Z</time>
      </trkpt>
      <trkpt lat="41.06714" lon="9.55627">
        <ele>1.58</ele>
        <time>2017-10-08T08:39:44Z</time>
      </trkpt>
      <trkpt lat="41.06751" lon="9.55677">
        <ele>1.1</ele>
        <time>2017-10-08T08:40:02Z</time>
      </trkpt>
      <trkpt lat="41.06785" lon="9.55718">
        <ele>3.02</ele>
        <time>2017-10-08T08:40:18Z</time>
      </trkpt>
      <trkpt lat="41.06813" lon="9.55757">
        <ele>2.54</ele>
        <time>2017-10-08T08:40:33Z</time>
      </trkpt>
      <trkpt lat="41.06851" lon="9.55801">
        <ele>2.54</ele>
        <time>2017-10-08T08:40:50Z</time>
      </trkpt>
      <trkpt lat="41.06888" lon="9.55847">
        <ele>3.02</ele>
        <time>2017-10-08T08:41:06Z</time>
      </trkpt>
      <trkpt lat="41.06925" lon="9.55896">
        <ele>3.02</ele>
        <time>2017-10-08T08:41:23Z</time>
      </trkpt>
      <trkpt lat="41.06947" lon="9.55932">
        <ele>2.54</ele>
        <time>2017-10-08T08:41:35Z</time>
      </trkpt>
      <trkpt lat="41.06975" lon="9.55975">
        <ele>3.02</ele>
        <time>2017-10-08T08:41:50Z</time>
      </trkpt>
      <trkpt lat="41.07005" lon="9.56028">
        <ele>3.02</ele>
        <time>2017-10-08T08:42:10Z</time>
      </trkpt>
      <trkpt lat="41.07033" lon="9.56085">
        <ele>3.02</ele>
        <time>2017-10-08T08:42:33Z</time>
      </trkpt>
      <trkpt lat="41.0706" lon="9.56133">
        <ele>2.06</ele>
        <time>2017-10-08T08:42:54Z</time>
      </trkpt>
      <trkpt lat="41.07088" lon="9.56187">
        <ele>2.54</ele>
        <time>2017-10-08T08:43:16Z</time>
      </trkpt>
      <trkpt lat="41.07124" lon="9.56243">
        <ele>3.02</ele>
        <time>2017-10-08T08:43:40Z</time>
      </trkpt>
      <trkpt lat="41.07156" lon="9.56294">
        <ele>3.02</ele>
        <time>2017-10-08T08:44:03Z</time>
      </trkpt>
      <trkpt lat="41.07193" lon="9.56349">
        <ele>3.02</ele>
        <time>2017-10-08T08:44:30Z</time>
      </trkpt>
      <trkpt lat="41.07222" lon="9.56395">
        <ele>1.58</ele>
        <time>2017-10-08T08:44:51Z</time>
      </trkpt>
      <trkpt lat="41.07257" lon="9.56455">
        <ele>3.5</ele>
        <time>2017-10-08T08:45:14Z</time>
      </trkpt>
      <trkpt lat="41.07276" lon="9.56487">
        <ele>3.98</ele>
        <time>2017-10-08T08:45:26Z</time>
      </trkpt>
      <trkpt lat="41.07312" lon="9.56542">
        <ele>3.98</ele>
        <time>2017-10-08T08:45:47Z</time>
      </trkpt>
      <trkpt lat="41.07342" lon="9.56583">
        <ele>3.5</ele>
        <time>2017-10-08T08:46:02Z</time>
      </trkpt>
      <trkpt lat="41.07376" lon="9.56622">
        <ele>3.5</ele>
        <time>2017-10-08T08:46:15Z</time>
      </trkpt>
      <trkpt lat="41.07417" lon="9.56669">
        <ele>3.5</ele>
        <time>2017-10-08T08:46:29Z</time>
      </trkpt>
      <trkpt lat="41.07454" lon="9.56722">
        <ele>3.98</ele>
        <time>2017-10-08T08:46:43Z</time>
      </trkpt>
      <trkpt lat="41.07492" lon="9.56777">
        <ele>3.98</ele>
        <time>2017-10-08T08:46:59Z</time>
      </trkpt>
      <trkpt lat="41.07526" lon="9.56829">
        <ele>4.46</ele>
        <time>2017-10-08T08:47:15Z</time>
      </trkpt>
      <trkpt lat="41.07562" lon="9.56891">
        <ele>3.98</ele>
        <time>2017-10-08T08:47:33Z</time>
      </trkpt>
      <trkpt lat="41.07589" lon="9.5694">
        <ele>3.02</ele>
        <time>2017-10-08T08:47:48Z</time>
      </trkpt>
      <trkpt lat="41.0761" lon="9.56997">
        <ele>3.5</ele>
        <time>2017-10-08T08:48:06Z</time>
      </trkpt>
      <trkpt lat="41.07637" lon="9.57052">
        <ele>3.5</ele>
        <time>2017-10-08T08:48:25Z</time>
      </trkpt>
      <trkpt lat="41.07664" lon="9.57106">
        <ele>3.5</ele>
        <time>2017-10-08T08:48:43Z</time>
      </trkpt>
      <trkpt lat="41.07691" lon="9.57153">
        <ele>3.02</ele>
        <time>2017-10-08T08:48:58Z</time>
      </trkpt>
      <trkpt lat="41.07718" lon="9.57204">
        <ele>3.5</ele>
        <time>2017-10-08T08:49:13Z</time>
      </trkpt>
      <trkpt lat="41.07746" lon="9.57253">
        <ele>3.5</ele>
        <time>2017-10-08T08:49:28Z</time>
      </trkpt>
      <trkpt lat="41.07775" lon="9.57306">
        <ele>3.5</ele>
        <time>2017-10-08T08:49:44Z</time>
      </trkpt>
      <trkpt lat="41.07809" lon="9.57364">
        <ele>3.5</ele>
        <time>2017-10-08T08:50:02Z</time>
      </trkpt>
      <trkpt lat="41.07839" lon="9.57413">
        <ele>2.54</ele>
        <time>2017-10-08T08:50:18Z</time>
      </trkpt>
      <trkpt lat="41.07877" lon="9.57469">
        <ele>2.06</ele>
        <time>2017-10-08T08:50:37Z</time>
      </trkpt>
      <trkpt lat="41.07916" lon="9.57528">
        <ele>2.54</ele>
        <time>2017-10-08T08:50:56Z</time>
      </trkpt>
      <trkpt lat="41.07948" lon="9.57578">
        <ele>2.06</ele>
        <time>2017-10-08T08:51:12Z</time>
      </trkpt>
      <trkpt lat="41.07987" lon="9.5764">
        <ele>2.54</ele>
        <time>2017-10-08T08:51:31Z</time>
      </trkpt>
      <trkpt lat="41.08033" lon="9.57705">
        <ele>2.54</ele>
        <time>2017-10-08T08:51:51Z</time>
      </trkpt>
      <trkpt lat="41.08077" lon="9.57775">
        <ele>2.06</ele>
        <time>2017-10-08T08:52:11Z</time>
      </trkpt>
      <trkpt lat="41.08112" lon="9.57829">
        <ele>1.58</ele>
        <time>2017-10-08T08:52:28Z</time>
      </trkpt>
      <trkpt lat="41.08148" lon="9.57881">
        <ele>2.06</ele>
        <time>2017-10-08T08:52:45Z</time>
      </trkpt>
      <trkpt lat="41.08194" lon="9.57939">
        <ele>2.54</ele>
        <time>2017-10-08T08:53:05Z</time>
      </trkpt>
      <trkpt lat="41.08251" lon="9.57997">
        <ele>3.02</ele>
        <time>2017-10-08T08:53:25Z</time>
      </trkpt>
      <trkpt lat="41.08302" lon="9.58047">
        <ele>3.5</ele>
        <time>2017-10-08T08:53:43Z</time>
      </trkpt>
      <trkpt lat="41.08327" lon="9.58083">
        <ele>3.5</ele>
        <time>2017-10-08T08:53:54Z</time>
      </trkpt>
      <trkpt lat="41.08378" lon="9.58159">
        <ele>3.02</ele>
        <time>2017-10-08T08:54:19Z</time>
      </trkpt>
      <trkpt lat="41.08412" lon="9.58219">
        <ele>3.98</ele>
        <time>2017-10-08T08:54:38Z</time>
      </trkpt>
      <trkpt lat="41.08442" lon="9.58264">
        <ele>3.5</ele>
        <time>2017-10-08T08:54:54Z</time>
      </trkpt>
      <trkpt lat="41.08475" lon="9.58314">
        <ele>3.98</ele>
        <time>2017-10-08T08:55:11Z</time>
      </trkpt>
      <trkpt lat="41.08518" lon="9.58367">
        <ele>3.5</ele>
        <time>2017-10-08T08:55:29Z</time>
      </trkpt>
      <trkpt lat="41.08564" lon="9.58424">
        <ele>3.5</ele>
        <time>2017-10-08T08:55:47Z</time>
      </trkpt>
      <trkpt lat="41.08607" lon="9.58468">
        <ele>3.02</ele>
        <time>2017-10-08T08:56:02Z</time>
      </trkpt>
      <trkpt lat="41.08651" lon="9.58512">
        <ele>3.02</ele>
        <time>2017-10-08T08:56:17Z</time>
      </trkpt>
      <trkpt lat="41.08701" lon="9.58567">
        <ele>2.54</ele>
        <time>2017-10-08T08:56:35Z</time>
      </trkpt>
      <trkpt lat="41.0875" lon="9.5861">
        <ele>2.54</ele>
        <time>2017-10-08T08:56:51Z</time>
      </trkpt>
      <trkpt lat="41.08797" lon="9.58646">
        <ele>3.02</ele>
        <time>2017-10-08T08:57:06Z</time>
      </trkpt>
      <trkpt lat="41.08852" lon="9.58676">
        <ele>3.02</ele>
        <time>2017-10-08T08:57:22Z</time>
      </trkpt>
      <trkpt lat="41.08894" lon="9.58694">
        <ele>2.54</ele>
        <time>2017-10-08T08:57:35Z</time>
      </trkpt>
      <trkpt lat="41.0895" lon="9.58715">
        <ele>3.02</ele>
        <time>2017-10-08T08:57:51Z</time>
      </trkpt>
      <trkpt lat="41.08986" lon="9.58744">
        <ele>3.5</ele>
        <time>2017-10-08T08:58:03Z</time>
      </trkpt>
      <trkpt lat="41.09035" lon="9.5879">
        <ele>3.02</ele>
        <time>2017-10-08T08:58:20Z</time>
      </trkpt>
      <trkpt lat="41.09083" lon="9.5883">
        <ele>3.02</ele>
        <time>2017-10-08T08:58:36Z</time>
      </trkpt>
      <trkpt lat="41.09126" lon="9.58868">
        <ele>2.54</ele>
        <time>2017-10-08T08:58:51Z</time>
      </trkpt>
      <trkpt lat="41.09168" lon="9.589">
        <ele>3.5</ele>
        <time>2017-10-08T08:59:05Z</time>
      </trkpt>
      <trkpt lat="41.09208" lon="9.58929">
        <ele>3.5</ele>
        <time>2017-10-08T08:59:18Z</time>
      </trkpt>
      <trkpt lat="41.09248" lon="9.58961">
        <ele>3.5</ele>
        <time>2017-10-08T08:59:31Z</time>
      </trkpt>
      <trkpt lat="41.09289" lon="9.58997">
        <ele>3.5</ele>
        <time>2017-10-08T08:59:44Z</time>
      </trkpt>
      <trkpt lat="41.09344" lon="9.59056">
        <ele>3.5</ele>
        <time>2017-10-08T09:00:03Z</time>
      </trkpt>
      <trkpt lat="41.09397" lon="9.59095">
        <ele>3.98</ele>
        <time>2017-10-08T09:00:19Z</time>
      </trkpt>
      <trkpt lat="41.09448" lon="9.59117">
        <ele>3.98</ele>
        <time>2017-10-08T09:00:33Z</time>
      </trkpt>
      <trkpt lat="41.09496" lon="9.59132">
        <ele>4.94</ele>
        <time>2017-10-08T09:00:47Z</time>
      </trkpt>
      <trkpt lat="41.09545" lon="9.59145">
        <ele>4.94</ele>
        <time>2017-10-08T09:01:01Z</time>
      </trkpt>
      <trkpt lat="41.09602" lon="9.59155">
        <ele>4.46</ele>
        <time>2017-10-08T09:01:17Z</time>
      </trkpt>
      <trkpt lat="41.09655" lon="9.59161">
        <ele>3.98</ele>
        <time>2017-10-08T09:01:31Z</time>
      </trkpt>
      <trkpt lat="41.09692" lon="9.59167">
        <ele>4.46</ele>
        <time>2017-10-08T09:01:41Z</time>
      </trkpt>
      <trkpt lat="41.09746" lon="9.59173">
        <ele>4.46</ele>
        <time>2017-10-08T09:01:55Z</time>
      </trkpt>
      <trkpt lat="41.098" lon="9.59185">
        <ele>4.46</ele>
        <time>2017-10-08T09:02:09Z</time>
      </trkpt>
      <trkpt lat="41.09853" lon="9.59191">
        <ele>3.98</ele>
        <time>2017-10-08T09:02:23Z</time>
      </trkpt>
      <trkpt lat="41.09902" lon="9.59199">
        <ele>2.54</ele>
        <time>2017-10-08T09:02:36Z</time>
      </trkpt>
      <trkpt lat="41.09939" lon="9.59198">
        <ele>2.54</ele>
        <time>2017-10-08T09:02:45Z</time>
      </trkpt>
      <trkpt lat="41.0999" lon="9.59198">
        <ele>3.02</ele>
        <time>2017-10-08T09:02:58Z</time>
      </trkpt>
      <trkpt lat="41.10032" lon="9.59197">
        <ele>3.98</ele>
        <time>2017-10-08T09:03:09Z</time>
      </trkpt>
      <trkpt lat="41.10073" lon="9.59195">
        <ele>3.98</ele>
        <time>2017-10-08T09:03:20Z</time>
      </trkpt>
      <trkpt lat="41.10121" lon="9.59193">
        <ele>3.5</ele>
        <time>2017-10-08T09:03:33Z</time>
      </trkpt>
      <trkpt lat="41.10174" lon="9.59194">
        <ele>3.5</ele>
        <time>2017-10-08T09:03:47Z</time>
      </trkpt>
      <trkpt lat="41.10216" lon="9.59194">
        <ele>3.02</ele>
        <time>2017-10-08T09:03:58Z</time>
      </trkpt>
      <trkpt lat="41.10266" lon="9.59188">
        <ele>3.02</ele>
        <time>2017-10-08T09:04:11Z</time>
      </trkpt>
      <trkpt lat="41.10284" lon="9.59182">
        <ele>3.02</ele>
        <time>2017-10-08T09:04:16Z</time>
      </trkpt>
      <trkpt lat="41.10335" lon="9.59173">
        <ele>2.54</ele>
        <time>2017-10-08T09:04:29Z</time>
      </trkpt>
      <trkpt lat="41.10377" lon="9.59165">
        <ele>3.02</ele>
        <time>2017-10-08T09:04:40Z</time>
      </trkpt>
      <trkpt lat="41.10381" lon="9.59164">
        <ele>3.02</ele>
        <time>2017-10-08T09:04:41Z</time>
      </trkpt>
      <trkpt lat="41.10397" lon="9.59159">
        <ele>3.02</ele>
        <time>2017-10-08T09:04:45Z</time>
      </trkpt>
      <trkpt lat="41.10409" lon="9.59157">
        <ele>3.02</ele>
        <time>2017-10-08T09:04:48Z</time>
      </trkpt>
      <trkpt lat="41.10425" lon="9.59153">
        <ele>3.02</ele>
        <time>2017-10-08T09:04:52Z</time>
      </trkpt>
      <trkpt lat="41.10484" lon="9.5915">
        <ele>3.5</ele>
        <time>2017-10-08T09:05:07Z</time>
      </trkpt>
      <trkpt lat="41.10529" lon="9.59139">
        <ele>3.02</ele>
        <time>2017-10-08T09:05:19Z</time>
      </trkpt>
      <trkpt lat="41.10579" lon="9.59132">
        <ele>3.02</ele>
        <time>2017-10-08T09:05:33Z</time>
      </trkpt>
      <trkpt lat="41.10625" lon="9.59127">
        <ele>3.02</ele>
        <time>2017-10-08T09:05:46Z</time>
      </trkpt>
      <trkpt lat="41.10669" lon="9.59118">
        <ele>3.5</ele>
        <time>2017-10-08T09:05:59Z</time>
      </trkpt>
      <trkpt lat="41.10684" lon="9.59095">
        <ele>3.98</ele>
        <time>2017-10-08T09:06:10Z</time>
      </trkpt>
      <trkpt lat="41.10694" lon="9.59085">
        <ele>4.46</ele>
        <time>2017-10-08T09:06:23Z</time>
      </trkpt>
      <trkpt lat="41.10711" lon="9.59086">
        <ele>3.98</ele>
        <time>2017-10-08T09:06:38Z</time>
      </trkpt>
      <trkpt lat="41.10732" lon="9.59075">
        <ele>3.98</ele>
        <time>2017-10-08T09:06:51Z</time>
      </trkpt>
      <trkpt lat="41.10741" lon="9.59068">
        <ele>4.46</ele>
        <time>2017-10-08T09:07:07Z</time>
      </trkpt>
      <trkpt lat="41.10759" lon="9.59059">
        <ele>4.94</ele>
        <time>2017-10-08T09:07:17Z</time>
      </trkpt>
      <trkpt lat="41.1078" lon="9.59034">
        <ele>3.5</ele>
        <time>2017-10-08T09:07:29Z</time>
      </trkpt>
      <trkpt lat="41.10801" lon="9.5901">
        <ele>4.46</ele>
        <time>2017-10-08T09:07:39Z</time>
      </trkpt>
      <trkpt lat="41.10801" lon="9.59002">
        <ele>4.46</ele>
        <time>2017-10-08T09:07:42Z</time>
      </trkpt>
      <trkpt lat="41.10798" lon="9.58997">
        <ele>4.46</ele>
        <time>2017-10-08T09:07:46Z</time>
      </trkpt>
      <trkpt lat="41.10777" lon="9.58994">
        <ele>3.5</ele>
        <time>2017-10-08T09:07:59Z</time>
      </trkpt>
      <trkpt lat="41.10772" lon="9.58994">
        <ele>3.98</ele>
        <time>2017-10-08T09:08:10Z</time>
      </trkpt>
      <trkpt lat="41.10771" lon="9.58996">
        <ele>2.54</ele>
        <time>2017-10-08T09:08:19Z</time>
      </trkpt>
      <trkpt lat="41.10768" lon="9.58998">
        <ele>2.54</ele>
        <time>2017-10-08T09:08:23Z</time>
      </trkpt>
      <trkpt lat="41.10746" lon="9.59018">
        <ele>2.54</ele>
        <time>2017-10-08T09:08:42Z</time>
      </trkpt>
      <trkpt lat="41.10738" lon="9.59019">
        <ele>3.02</ele>
        <time>2017-10-08T09:08:55Z</time>
      </trkpt>
      <trkpt lat="41.10719" lon="9.59029">
        <ele>3.02</ele>
        <time>2017-10-08T09:09:06Z</time>
      </trkpt>
      <trkpt lat="41.10713" lon="9.59031">
        <ele>3.98</ele>
        <time>2017-10-08T09:09:20Z</time>
      </trkpt>
      <trkpt lat="41.10714" lon="9.59038">
        <ele>4.46</ele>
        <time>2017-10-08T09:09:32Z</time>
      </trkpt>
      <trkpt lat="41.10694" lon="9.59063">
        <ele>3.02</ele>
        <time>2017-10-08T09:09:47Z</time>
      </trkpt>
      <trkpt lat="41.10681" lon="9.59086">
        <ele>3.5</ele>
        <time>2017-10-08T09:09:55Z</time>
      </trkpt>
      <trkpt lat="41.10664" lon="9.59129">
        <ele>3.02</ele>
        <time>2017-10-08T09:10:06Z</time>
      </trkpt>
      <trkpt lat="41.10659" lon="9.59182">
        <ele>3.98</ele>
        <time>2017-10-08T09:10:18Z</time>
      </trkpt>
      <trkpt lat="41.10651" lon="9.59225">
        <ele>5.91</ele>
        <time>2017-10-08T09:10:29Z</time>
      </trkpt>
      <trkpt lat="41.10638" lon="9.59262">
        <ele>4.94</ele>
        <time>2017-10-08T09:10:38Z</time>
      </trkpt>
      <trkpt lat="41.10622" lon="9.59309">
        <ele>4.94</ele>
        <time>2017-10-08T09:10:49Z</time>
      </trkpt>
      <trkpt lat="41.10609" lon="9.59358">
        <ele>4.46</ele>
        <time>2017-10-08T09:11:00Z</time>
      </trkpt>
      <trkpt lat="41.106" lon="9.59419">
        <ele>3.98</ele>
        <time>2017-10-08T09:11:15Z</time>
      </trkpt>
      <trkpt lat="41.10598" lon="9.59468">
        <ele>4.46</ele>
        <time>2017-10-08T09:11:27Z</time>
      </trkpt>
      <trkpt lat="41.10583" lon="9.59516">
        <ele>3.98</ele>
        <time>2017-10-08T09:11:38Z</time>
      </trkpt>
      <trkpt lat="41.10569" lon="9.59564">
        <ele>3.02</ele>
        <time>2017-10-08T09:11:50Z</time>
      </trkpt>
      <trkpt lat="41.10562" lon="9.59603">
        <ele>3.02</ele>
        <time>2017-10-08T09:12:00Z</time>
      </trkpt>
      <trkpt lat="41.1055" lon="9.59651">
        <ele>2.54</ele>
        <time>2017-10-08T09:12:13Z</time>
      </trkpt>
      <trkpt lat="41.10547" lon="9.59667">
        <ele>3.02</ele>
        <time>2017-10-08T09:12:17Z</time>
      </trkpt>
      <trkpt lat="41.10537" lon="9.59715">
        <ele>3.02</ele>
        <time>2017-10-08T09:12:29Z</time>
      </trkpt>
      <trkpt lat="41.10519" lon="9.59757">
        <ele>3.5</ele>
        <time>2017-10-08T09:12:40Z</time>
      </trkpt>
      <trkpt lat="41.10503" lon="9.59805">
        <ele>4.46</ele>
        <time>2017-10-08T09:12:52Z</time>
      </trkpt>
      <trkpt lat="41.10487" lon="9.59858">
        <ele>4.46</ele>
        <time>2017-10-08T09:13:04Z</time>
      </trkpt>
      <trkpt lat="41.10469" lon="9.59914">
        <ele>4.46</ele>
        <time>2017-10-08T09:13:17Z</time>
      </trkpt>
      <trkpt lat="41.10454" lon="9.59967">
        <ele>3.98</ele>
        <time>2017-10-08T09:13:29Z</time>
      </trkpt>
      <trkpt lat="41.10436" lon="9.60024">
        <ele>2.54</ele>
        <time>2017-10-08T09:13:41Z</time>
      </trkpt>
      <trkpt lat="41.10421" lon="9.60082">
        <ele>3.98</ele>
        <time>2017-10-08T09:13:53Z</time>
      </trkpt>
      <trkpt lat="41.10413" lon="9.60115">
        <ele>4.46</ele>
        <time>2017-10-08T09:14:00Z</time>
      </trkpt>
      <trkpt lat="41.10399" lon="9.60178">
        <ele>3.98</ele>
        <time>2017-10-08T09:14:13Z</time>
      </trkpt>
      <trkpt lat="41.10395" lon="9.60198">
        <ele>3.98</ele>
        <time>2017-10-08T09:14:17Z</time>
      </trkpt>
      <trkpt lat="41.10389" lon="9.60222">
        <ele>3.5</ele>
        <time>2017-10-08T09:14:22Z</time>
      </trkpt>
      <trkpt lat="41.10384" lon="9.6024">
        <ele>3.98</ele>
        <time>2017-10-08T09:14:26Z</time>
      </trkpt>
      <trkpt lat="41.10366" lon="9.60296">
        <ele>4.46</ele>
        <time>2017-10-08T09:14:38Z</time>
      </trkpt>
      <trkpt lat="41.10348" lon="9.60343">
        <ele>4.46</ele>
        <time>2017-10-08T09:14:49Z</time>
      </trkpt>
      <trkpt lat="41.10327" lon="9.60397">
        <ele>3.98</ele>
        <time>2017-10-08T09:15:02Z</time>
      </trkpt>
      <trkpt lat="41.10317" lon="9.60445">
        <ele>3.98</ele>
        <time>2017-10-08T09:15:13Z</time>
      </trkpt>
      <trkpt lat="41.10311" lon="9.60471">
        <ele>3.5</ele>
        <time>2017-10-08T09:15:19Z</time>
      </trkpt>
      <trkpt lat="41.10311" lon="9.60492">
        <ele>3.5</ele>
        <time>2017-10-08T09:15:24Z</time>
      </trkpt>
      <trkpt lat="41.10292" lon="9.60543">
        <ele>3.02</ele>
        <time>2017-10-08T09:15:37Z</time>
      </trkpt>
      <trkpt lat="41.10276" lon="9.60587">
        <ele>2.54</ele>
        <time>2017-10-08T09:15:48Z</time>
      </trkpt>
      <trkpt lat="41.10257" lon="9.60646">
        <ele>3.02</ele>
        <time>2017-10-08T09:16:02Z</time>
      </trkpt>
      <trkpt lat="41.10249" lon="9.6069">
        <ele>3.98</ele>
        <time>2017-10-08T09:16:12Z</time>
      </trkpt>
      <trkpt lat="41.10236" lon="9.60743">
        <ele>3.98</ele>
        <time>2017-10-08T09:16:25Z</time>
      </trkpt>
      <trkpt lat="41.10235" lon="9.60791">
        <ele>3.5</ele>
        <time>2017-10-08T09:16:37Z</time>
      </trkpt>
      <trkpt lat="41.10234" lon="9.60832">
        <ele>3.98</ele>
        <time>2017-10-08T09:16:47Z</time>
      </trkpt>
      <trkpt lat="41.10224" lon="9.60887">
        <ele>4.46</ele>
        <time>2017-10-08T09:17:00Z</time>
      </trkpt>
      <trkpt lat="41.10216" lon="9.60937">
        <ele>3.5</ele>
        <time>2017-10-08T09:17:12Z</time>
      </trkpt>
      <trkpt lat="41.10209" lon="9.60987">
        <ele>3.98</ele>
        <time>2017-10-08T09:17:24Z</time>
      </trkpt>
      <trkpt lat="41.10204" lon="9.61024">
        <ele>4.94</ele>
        <time>2017-10-08T09:17:33Z</time>
      </trkpt>
      <trkpt lat="41.10195" lon="9.61069">
        <ele>4.46</ele>
        <time>2017-10-08T09:17:44Z</time>
      </trkpt>
      <trkpt lat="41.10187" lon="9.61123">
        <ele>3.98</ele>
        <time>2017-10-08T09:17:57Z</time>
      </trkpt>
      <trkpt lat="41.10185" lon="9.61166">
        <ele>4.94</ele>
        <time>2017-10-08T09:18:08Z</time>
      </trkpt>
      <trkpt lat="41.10191" lon="9.61178">
        <ele>4.46</ele>
        <time>2017-10-08T09:18:12Z</time>
      </trkpt>
      <trkpt lat="41.10214" lon="9.61169">
        <ele>4.94</ele>
        <time>2017-10-08T09:18:23Z</time>
      </trkpt>
      <trkpt lat="41.10229" lon="9.61162">
        <ele>4.46</ele>
        <time>2017-10-08T09:18:29Z</time>
      </trkpt>
      <trkpt lat="41.10254" lon="9.6116">
        <ele>4.46</ele>
        <time>2017-10-08T09:18:38Z</time>
      </trkpt>
      <trkpt lat="41.10301" lon="9.61174">
        <ele>4.46</ele>
        <time>2017-10-08T09:18:52Z</time>
      </trkpt>
      <trkpt lat="41.10333" lon="9.61195">
        <ele>5.42</ele>
        <time>2017-10-08T09:19:03Z</time>
      </trkpt>
      <trkpt lat="41.10371" lon="9.61223">
        <ele>4.94</ele>
        <time>2017-10-08T09:19:17Z</time>
      </trkpt>
      <trkpt lat="41.10409" lon="9.61233">
        <ele>4.94</ele>
        <time>2017-10-08T09:19:30Z</time>
      </trkpt>
      <trkpt lat="41.10449" lon="9.61224">
        <ele>4.46</ele>
        <time>2017-10-08T09:19:43Z</time>
      </trkpt>
      <trkpt lat="41.10481" lon="9.61213">
        <ele>3.98</ele>
        <time>2017-10-08T09:19:54Z</time>
      </trkpt>
      <trkpt lat="41.10514" lon="9.61204">
        <ele>4.46</ele>
        <time>2017-10-08T09:20:05Z</time>
      </trkpt>
      <trkpt lat="41.10544" lon="9.6119">
        <ele>5.42</ele>
        <time>2017-10-08T09:20:16Z</time>
      </trkpt>
      <trkpt lat="41.10571" lon="9.61179">
        <ele>6.39</ele>
        <time>2017-10-08T09:20:26Z</time>
      </trkpt>
      <trkpt lat="41.10603" lon="9.61162">
        <ele>5.91</ele>
        <time>2017-10-08T09:20:39Z</time>
      </trkpt>
      <trkpt lat="41.1063" lon="9.61147">
        <ele>5.91</ele>
        <time>2017-10-08T09:20:50Z</time>
      </trkpt>
      <trkpt lat="41.10657" lon="9.61127">
        <ele>5.42</ele>
        <time>2017-10-08T09:21:01Z</time>
      </trkpt>
      <trkpt lat="41.10683" lon="9.61107">
        <ele>5.42</ele>
        <time>2017-10-08T09:21:11Z</time>
      </trkpt>
      <trkpt lat="41.10717" lon="9.61082">
        <ele>5.42</ele>
        <time>2017-10-08T09:21:23Z</time>
      </trkpt>
      <trkpt lat="41.10748" lon="9.61055">
        <ele>6.87</ele>
        <time>2017-10-08T09:21:34Z</time>
      </trkpt>
      <trkpt lat="41.10781" lon="9.61028">
        <ele>6.39</ele>
        <time>2017-10-08T09:21:45Z</time>
      </trkpt>
      <trkpt lat="41.10815" lon="9.61002">
        <ele>5.91</ele>
        <time>2017-10-08T09:21:56Z</time>
      </trkpt>
      <trkpt lat="41.10852" lon="9.60969">
        <ele>5.42</ele>
        <time>2017-10-08T09:22:08Z</time>
      </trkpt>
      <trkpt lat="41.10883" lon="9.60944">
        <ele>5.91</ele>
        <time>2017-10-08T09:22:18Z</time>
      </trkpt>
      <trkpt lat="41.10888" lon="9.60937">
        <ele>5.91</ele>
        <time>2017-10-08T09:22:20Z</time>
      </trkpt>
      <trkpt lat="41.10931" lon="9.60894">
        <ele>4.94</ele>
        <time>2017-10-08T09:22:34Z</time>
      </trkpt>
      <trkpt lat="41.10941" lon="9.60886">
        <ele>4.94</ele>
        <time>2017-10-08T09:22:37Z</time>
      </trkpt>
      <trkpt lat="41.10962" lon="9.60864">
        <ele>3.98</ele>
        <time>2017-10-08T09:22:44Z</time>
      </trkpt>
      <trkpt lat="41.10997" lon="9.60835">
        <ele>4.94</ele>
        <time>2017-10-08T09:22:55Z</time>
      </trkpt>
      <trkpt lat="41.11036" lon="9.60802">
        <ele>4.94</ele>
        <time>2017-10-08T09:23:07Z</time>
      </trkpt>
      <trkpt lat="41.11075" lon="9.60764">
        <ele>4.46</ele>
        <time>2017-10-08T09:23:20Z</time>
      </trkpt>
      <trkpt lat="41.1111" lon="9.60737">
        <ele>4.94</ele>
        <time>2017-10-08T09:23:31Z</time>
      </trkpt>
      <trkpt lat="41.11157" lon="9.60707">
        <ele>5.91</ele>
        <time>2017-10-08T09:23:45Z</time>
      </trkpt>
      <trkpt lat="41.11196" lon="9.6068">
        <ele>4.94</ele>
        <time>2017-10-08T09:23:57Z</time>
      </trkpt>
      <trkpt lat="41.11223" lon="9.60659">
        <ele>4.94</ele>
        <time>2017-10-08T09:24:06Z</time>
      </trkpt>
      <trkpt lat="41.11255" lon="9.60632">
        <ele>4.94</ele>
        <time>2017-10-08T09:24:18Z</time>
      </trkpt>
      <trkpt lat="41.11287" lon="9.60607">
        <ele>4.94</ele>
        <time>2017-10-08T09:24:29Z</time>
      </trkpt>
      <trkpt lat="41.11323" lon="9.60579">
        <ele>5.91</ele>
        <time>2017-10-08T09:24:40Z</time>
      </trkpt>
      <trkpt lat="41.11337" lon="9.60569">
        <ele>5.42</ele>
        <time>2017-10-08T09:24:44Z</time>
      </trkpt>
      <trkpt lat="41.11359" lon="9.60545">
        <ele>4.94</ele>
        <time>2017-10-08T09:24:52Z</time>
      </trkpt>
      <trkpt lat="41.11373" lon="9.60534">
        <ele>5.42</ele>
        <time>2017-10-08T09:24:56Z</time>
      </trkpt>
      <trkpt lat="41.11381" lon="9.60524">
        <ele>5.42</ele>
        <time>2017-10-08T09:24:59Z</time>
      </trkpt>
      <trkpt lat="41.11418" lon="9.60486">
        <ele>4.46</ele>
        <time>2017-10-08T09:25:11Z</time>
      </trkpt>
      <trkpt lat="41.11421" lon="9.60483">
        <ele>4.46</ele>
        <time>2017-10-08T09:25:12Z</time>
      </trkpt>
      <trkpt lat="41.11452" lon="9.60451">
        <ele>4.94</ele>
        <time>2017-10-08T09:25:22Z</time>
      </trkpt>
      <trkpt lat="41.11484" lon="9.60429">
        <ele>3.98</ele>
        <time>2017-10-08T09:25:32Z</time>
      </trkpt>
      <trkpt lat="41.11517" lon="9.60405">
        <ele>2.54</ele>
        <time>2017-10-08T09:25:43Z</time>
      </trkpt>
      <trkpt lat="41.11529" lon="9.60395">
        <ele>2.54</ele>
        <time>2017-10-08T09:25:47Z</time>
      </trkpt>
      <trkpt lat="41.11572" lon="9.60362">
        <ele>3.5</ele>
        <time>2017-10-08T09:26:00Z</time>
      </trkpt>
      <trkpt lat="41.11582" lon="9.60355">
        <ele>3.5</ele>
        <time>2017-10-08T09:26:03Z</time>
      </trkpt>
      <trkpt lat="41.11608" lon="9.60333">
        <ele>2.54</ele>
        <time>2017-10-08T09:26:11Z</time>
      </trkpt>
      <trkpt lat="41.11648" lon="9.60294">
        <ele>2.54</ele>
        <time>2017-10-08T09:26:24Z</time>
      </trkpt>
      <trkpt lat="41.11685" lon="9.60259">
        <ele>2.54</ele>
        <time>2017-10-08T09:26:36Z</time>
      </trkpt>
      <trkpt lat="41.11721" lon="9.60228">
        <ele>2.06</ele>
        <time>2017-10-08T09:26:47Z</time>
      </trkpt>
      <trkpt lat="41.11754" lon="9.602">
        <ele>1.1</ele>
        <time>2017-10-08T09:26:58Z</time>
      </trkpt>
      <trkpt lat="41.11781" lon="9.60181">
        <ele>1.58</ele>
        <time>2017-10-08T09:27:09Z</time>
      </trkpt>
      <trkpt lat="41.11812" lon="9.60161">
        <ele>-0.34</ele>
        <time>2017-10-08T09:27:20Z</time>
      </trkpt>
      <trkpt lat="41.11848" lon="9.60131">
        <ele>1.1</ele>
        <time>2017-10-08T09:27:33Z</time>
      </trkpt>
      <trkpt lat="41.11887" lon="9.60097">
        <ele>1.58</ele>
        <time>2017-10-08T09:27:47Z</time>
      </trkpt>
      <trkpt lat="41.11918" lon="9.60071">
        <ele>2.06</ele>
        <time>2017-10-08T09:27:58Z</time>
      </trkpt>
      <trkpt lat="41.11959" lon="9.60041">
        <ele>1.58</ele>
        <time>2017-10-08T09:28:14Z</time>
      </trkpt>
      <trkpt lat="41.11997" lon="9.60013">
        <ele>3.02</ele>
        <time>2017-10-08T09:28:29Z</time>
      </trkpt>
      <trkpt lat="41.12024" lon="9.59998">
        <ele>3.02</ele>
        <time>2017-10-08T09:28:40Z</time>
      </trkpt>
      <trkpt lat="41.12063" lon="9.59976">
        <ele>2.54</ele>
        <time>2017-10-08T09:28:55Z</time>
      </trkpt>
      <trkpt lat="41.12109" lon="9.59938">
        <ele>2.06</ele>
        <time>2017-10-08T09:29:13Z</time>
      </trkpt>
      <trkpt lat="41.12136" lon="9.59921">
        <ele>0.14</ele>
        <time>2017-10-08T09:29:25Z</time>
      </trkpt>
      <trkpt lat="41.1216" lon="9.59907">
        <ele>2.06</ele>
        <time>2017-10-08T09:29:35Z</time>
      </trkpt>
      <trkpt lat="41.12192" lon="9.59888">
        <ele>3.5</ele>
        <time>2017-10-08T09:29:49Z</time>
      </trkpt>
      <trkpt lat="41.12222" lon="9.59871">
        <ele>3.5</ele>
        <time>2017-10-08T09:30:01Z</time>
      </trkpt>
      <trkpt lat="41.12251" lon="9.59858">
        <ele>2.54</ele>
        <time>2017-10-08T09:30:13Z</time>
      </trkpt>
      <trkpt lat="41.12276" lon="9.59844">
        <ele>1.1</ele>
        <time>2017-10-08T09:30:25Z</time>
      </trkpt>
      <trkpt lat="41.12304" lon="9.59831">
        <ele>1.58</ele>
        <time>2017-10-08T09:30:37Z</time>
      </trkpt>
      <trkpt lat="41.12336" lon="9.59813">
        <ele>2.54</ele>
        <time>2017-10-08T09:30:50Z</time>
      </trkpt>
      <trkpt lat="41.12366" lon="9.5979">
        <ele>3.02</ele>
        <time>2017-10-08T09:31:02Z</time>
      </trkpt>
      <trkpt lat="41.12391" lon="9.59769">
        <ele>3.02</ele>
        <time>2017-10-08T09:31:13Z</time>
      </trkpt>
      <trkpt lat="41.12424" lon="9.59737">
        <ele>1.58</ele>
        <time>2017-10-08T09:31:27Z</time>
      </trkpt>
      <trkpt lat="41.12455" lon="9.59712">
        <ele>2.06</ele>
        <time>2017-10-08T09:31:40Z</time>
      </trkpt>
      <trkpt lat="41.12513" lon="9.59666">
        <ele>3.98</ele>
        <time>2017-10-08T09:32:04Z</time>
      </trkpt>
      <trkpt lat="41.12555" lon="9.59636">
        <ele>3.5</ele>
        <time>2017-10-08T09:32:23Z</time>
      </trkpt>
      <trkpt lat="41.12582" lon="9.59624">
        <ele>2.06</ele>
        <time>2017-10-08T09:32:37Z</time>
      </trkpt>
      <trkpt lat="41.12609" lon="9.5962">
        <ele>2.54</ele>
        <time>2017-10-08T09:32:49Z</time>
      </trkpt>
      <trkpt lat="41.12649" lon="9.59613">
        <ele>2.54</ele>
        <time>2017-10-08T09:33:01Z</time>
      </trkpt>
      <trkpt lat="41.12698" lon="9.59603">
        <ele>3.02</ele>
        <time>2017-10-08T09:33:15Z</time>
      </trkpt>
      <trkpt lat="41.1274" lon="9.59597">
        <ele>3.02</ele>
        <time>2017-10-08T09:33:27Z</time>
      </trkpt>
      <trkpt lat="41.12779" lon="9.5959">
        <ele>4.94</ele>
        <time>2017-10-08T09:33:38Z</time>
      </trkpt>
      <trkpt lat="41.12817" lon="9.59581">
        <ele>4.94</ele>
        <time>2017-10-08T09:33:49Z</time>
      </trkpt>
      <trkpt lat="41.12862" lon="9.5956">
        <ele>3.98</ele>
        <time>2017-10-08T09:34:02Z</time>
      </trkpt>
      <trkpt lat="41.12898" lon="9.59541">
        <ele>4.94</ele>
        <time>2017-10-08T09:34:13Z</time>
      </trkpt>
      <trkpt lat="41.12938" lon="9.59519">
        <ele>3.98</ele>
        <time>2017-10-08T09:34:26Z</time>
      </trkpt>
      <trkpt lat="41.12968" lon="9.59502">
        <ele>3.5</ele>
        <time>2017-10-08T09:34:37Z</time>
      </trkpt>
      <trkpt lat="41.1301" lon="9.59474">
        <ele>3.98</ele>
        <time>2017-10-08T09:34:52Z</time>
      </trkpt>
      <trkpt lat="41.13048" lon="9.59447">
        <ele>3.5</ele>
        <time>2017-10-08T09:35:06Z</time>
      </trkpt>
      <trkpt lat="41.13078" lon="9.59425">
        <ele>2.54</ele>
        <time>2017-10-08T09:35:17Z</time>
      </trkpt>
      <trkpt lat="41.13109" lon="9.59404">
        <ele>1.1</ele>
        <time>2017-10-08T09:35:28Z</time>
      </trkpt>
      <trkpt lat="41.13141" lon="9.59386">
        <ele>1.1</ele>
        <time>2017-10-08T09:35:39Z</time>
      </trkpt>
      <trkpt lat="41.13173" lon="9.59366">
        <ele>0.62</ele>
        <time>2017-10-08T09:35:51Z</time>
      </trkpt>
      <trkpt lat="41.13203" lon="9.59348">
        <ele>1.58</ele>
        <time>2017-10-08T09:36:02Z</time>
      </trkpt>
      <trkpt lat="41.1325" lon="9.59326">
        <ele>3.02</ele>
        <time>2017-10-08T09:36:16Z</time>
      </trkpt>
      <trkpt lat="41.13288" lon="9.59305">
        <ele>3.98</ele>
        <time>2017-10-08T09:36:28Z</time>
      </trkpt>
      <trkpt lat="41.13322" lon="9.59284">
        <ele>4.94</ele>
        <time>2017-10-08T09:36:39Z</time>
      </trkpt>
      <trkpt lat="41.13347" lon="9.59271">
        <ele>4.94</ele>
        <time>2017-10-08T09:36:47Z</time>
      </trkpt>
      <trkpt lat="41.13386" lon="9.5925">
        <ele>3.98</ele>
        <time>2017-10-08T09:36:59Z</time>
      </trkpt>
      <trkpt lat="41.13434" lon="9.59225">
        <ele>4.94</ele>
        <time>2017-10-08T09:37:13Z</time>
      </trkpt>
      <trkpt lat="41.1346" lon="9.59208">
        <ele>4.94</ele>
        <time>2017-10-08T09:37:21Z</time>
      </trkpt>
      <trkpt lat="41.13502" lon="9.59178">
        <ele>3.98</ele>
        <time>2017-10-08T09:37:34Z</time>
      </trkpt>
      <trkpt lat="41.13506" lon="9.59177">
        <ele>3.98</ele>
        <time>2017-10-08T09:37:35Z</time>
      </trkpt>
      <trkpt lat="41.13522" lon="9.59169">
        <ele>3.5</ele>
        <time>2017-10-08T09:37:40Z</time>
      </trkpt>
      <trkpt lat="41.13551" lon="9.59147">
        <ele>3.5</ele>
        <time>2017-10-08T09:37:49Z</time>
      </trkpt>
      <trkpt lat="41.1357" lon="9.59133">
        <ele>3.5</ele>
        <time>2017-10-08T09:37:55Z</time>
      </trkpt>
      <trkpt lat="41.13606" lon="9.59106">
        <ele>3.98</ele>
        <time>2017-10-08T09:38:07Z</time>
      </trkpt>
      <trkpt lat="41.13645" lon="9.59078">
        <ele>3.98</ele>
        <time>2017-10-08T09:38:20Z</time>
      </trkpt>
      <trkpt lat="41.13674" lon="9.59061">
        <ele>3.02</ele>
        <time>2017-10-08T09:38:30Z</time>
      </trkpt>
      <trkpt lat="41.13708" lon="9.59035">
        <ele>3.5</ele>
        <time>2017-10-08T09:38:42Z</time>
      </trkpt>
      <trkpt lat="41.13733" lon="9.59018">
        <ele>4.46</ele>
        <time>2017-10-08T09:38:51Z</time>
      </trkpt>
      <trkpt lat="41.1376" lon="9.59001">
        <ele>4.46</ele>
        <time>2017-10-08T09:39:01Z</time>
      </trkpt>
      <trkpt lat="41.13782" lon="9.58987">
        <ele>4.46</ele>
        <time>2017-10-08T09:39:09Z</time>
      </trkpt>
      <trkpt lat="41.13815" lon="9.58966">
        <ele>5.42</ele>
        <time>2017-10-08T09:39:20Z</time>
      </trkpt>
      <trkpt lat="41.13865" lon="9.58934">
        <ele>5.42</ele>
        <time>2017-10-08T09:39:36Z</time>
      </trkpt>
      <trkpt lat="41.13901" lon="9.58906">
        <ele>3.98</ele>
        <time>2017-10-08T09:39:48Z</time>
      </trkpt>
      <trkpt lat="41.13936" lon="9.58876">
        <ele>4.46</ele>
        <time>2017-10-08T09:40:00Z</time>
      </trkpt>
      <trkpt lat="41.13976" lon="9.5885">
        <ele>4.46</ele>
        <time>2017-10-08T09:40:13Z</time>
      </trkpt>
      <trkpt lat="41.14024" lon="9.58825">
        <ele>3.98</ele>
        <time>2017-10-08T09:40:28Z</time>
      </trkpt>
      <trkpt lat="41.14072" lon="9.58789">
        <ele>3.5</ele>
        <time>2017-10-08T09:40:44Z</time>
      </trkpt>
      <trkpt lat="41.14117" lon="9.58753">
        <ele>3.02</ele>
        <time>2017-10-08T09:40:59Z</time>
      </trkpt>
      <trkpt lat="41.14148" lon="9.58725">
        <ele>3.5</ele>
        <time>2017-10-08T09:41:10Z</time>
      </trkpt>
      <trkpt lat="41.14181" lon="9.58694">
        <ele>3.98</ele>
        <time>2017-10-08T09:41:22Z</time>
      </trkpt>
      <trkpt lat="41.14184" lon="9.58692">
        <ele>3.98</ele>
        <time>2017-10-08T09:41:23Z</time>
      </trkpt>
      <trkpt lat="41.14216" lon="9.58657">
        <ele>3.02</ele>
        <time>2017-10-08T09:41:35Z</time>
      </trkpt>
      <trkpt lat="41.14251" lon="9.58624">
        <ele>2.06</ele>
        <time>2017-10-08T09:41:48Z</time>
      </trkpt>
      <trkpt lat="41.14292" lon="9.58587">
        <ele>1.1</ele>
        <time>2017-10-08T09:42:03Z</time>
      </trkpt>
      <trkpt lat="41.14327" lon="9.58558">
        <ele>0.62</ele>
        <time>2017-10-08T09:42:16Z</time>
      </trkpt>
      <trkpt lat="41.14364" lon="9.58527">
        <ele>2.06</ele>
        <time>2017-10-08T09:42:30Z</time>
      </trkpt>
      <trkpt lat="41.14402" lon="9.58498">
        <ele>3.02</ele>
        <time>2017-10-08T09:42:43Z</time>
      </trkpt>
      <trkpt lat="41.14447" lon="9.5847">
        <ele>1.1</ele>
        <time>2017-10-08T09:42:57Z</time>
      </trkpt>
      <trkpt lat="41.1449" lon="9.58439">
        <ele>1.1</ele>
        <time>2017-10-08T09:43:12Z</time>
      </trkpt>
      <trkpt lat="41.1453" lon="9.58409">
        <ele>1.58</ele>
        <time>2017-10-08T09:43:27Z</time>
      </trkpt>
      <trkpt lat="41.14559" lon="9.5839">
        <ele>2.06</ele>
        <time>2017-10-08T09:43:38Z</time>
      </trkpt>
      <trkpt lat="41.14582" lon="9.5838">
        <ele>2.06</ele>
        <time>2017-10-08T09:43:47Z</time>
      </trkpt>
      <trkpt lat="41.14619" lon="9.58369">
        <ele>3.5</ele>
        <time>2017-10-08T09:43:59Z</time>
      </trkpt>
      <trkpt lat="41.14668" lon="9.58353">
        <ele>4.46</ele>
        <time>2017-10-08T09:44:13Z</time>
      </trkpt>
      <trkpt lat="41.14706" lon="9.58338">
        <ele>4.46</ele>
        <time>2017-10-08T09:44:24Z</time>
      </trkpt>
      <trkpt lat="41.14745" lon="9.58322">
        <ele>4.94</ele>
        <time>2017-10-08T09:44:36Z</time>
      </trkpt>
      <trkpt lat="41.14778" lon="9.58307">
        <ele>3.98</ele>
        <time>2017-10-08T09:44:47Z</time>
      </trkpt>
      <trkpt lat="41.14801" lon="9.58296">
        <ele>3.5</ele>
        <time>2017-10-08T09:44:55Z</time>
      </trkpt>
      <trkpt lat="41.14834" lon="9.58277">
        <ele>3.98</ele>
        <time>2017-10-08T09:45:06Z</time>
      </trkpt>
      <trkpt lat="41.14867" lon="9.58256">
        <ele>4.94</ele>
        <time>2017-10-08T09:45:17Z</time>
      </trkpt>
      <trkpt lat="41.14898" lon="9.58236">
        <ele>2.54</ele>
        <time>2017-10-08T09:45:27Z</time>
      </trkpt>
      <trkpt lat="41.14939" lon="9.58214">
        <ele>0.14</ele>
        <time>2017-10-08T09:45:40Z</time>
      </trkpt>
      <trkpt lat="41.14974" lon="9.58197">
        <ele>-0.34</ele>
        <time>2017-10-08T09:45:51Z</time>
      </trkpt>
      <trkpt lat="41.15022" lon="9.58167">
        <ele>-1.79</ele>
        <time>2017-10-08T09:46:07Z</time>
      </trkpt>
      <trkpt lat="41.15062" lon="9.58143">
        <ele>-1.3</ele>
        <time>2017-10-08T09:46:21Z</time>
      </trkpt>
      <trkpt lat="41.15101" lon="9.58118">
        <ele>-0.34</ele>
        <time>2017-10-08T09:46:35Z</time>
      </trkpt>
      <trkpt lat="41.1514" lon="9.58095">
        <ele>0.62</ele>
        <time>2017-10-08T09:46:48Z</time>
      </trkpt>
      <trkpt lat="41.15184" lon="9.58072">
        <ele>1.1</ele>
        <time>2017-10-08T09:47:02Z</time>
      </trkpt>
      <trkpt lat="41.15245" lon="9.58043">
        <ele>0.62</ele>
        <time>2017-10-08T09:47:20Z</time>
      </trkpt>
      <trkpt lat="41.15295" lon="9.58017">
        <ele>-0.34</ele>
        <time>2017-10-08T09:47:35Z</time>
      </trkpt>
      <trkpt lat="41.15314" lon="9.58006">
        <ele>0.62</ele>
        <time>2017-10-08T09:47:41Z</time>
      </trkpt>
      <trkpt lat="41.15358" lon="9.57981">
        <ele>-0.34</ele>
        <time>2017-10-08T09:47:55Z</time>
      </trkpt>
      <trkpt lat="41.15401" lon="9.5795">
        <ele>1.1</ele>
        <time>2017-10-08T09:48:09Z</time>
      </trkpt>
      <trkpt lat="41.15438" lon="9.57924">
        <ele>3.5</ele>
        <time>2017-10-08T09:48:21Z</time>
      </trkpt>
      <trkpt lat="41.1548" lon="9.57901">
        <ele>3.02</ele>
        <time>2017-10-08T09:48:33Z</time>
      </trkpt>
      <trkpt lat="41.15527" lon="9.57878">
        <ele>3.02</ele>
        <time>2017-10-08T09:48:47Z</time>
      </trkpt>
      <trkpt lat="41.15564" lon="9.57859">
        <ele>1.58</ele>
        <time>2017-10-08T09:48:58Z</time>
      </trkpt>
      <trkpt lat="41.15602" lon="9.57834">
        <ele>2.06</ele>
        <time>2017-10-08T09:49:10Z</time>
      </trkpt>
      <trkpt lat="41.15643" lon="9.57806">
        <ele>1.58</ele>
        <time>2017-10-08T09:49:23Z</time>
      </trkpt>
      <trkpt lat="41.15681" lon="9.57781">
        <ele>1.1</ele>
        <time>2017-10-08T09:49:36Z</time>
      </trkpt>
      <trkpt lat="41.15723" lon="9.57756">
        <ele>1.1</ele>
        <time>2017-10-08T09:49:50Z</time>
      </trkpt>
      <trkpt lat="41.15763" lon="9.57732">
        <ele>1.1</ele>
        <time>2017-10-08T09:50:03Z</time>
      </trkpt>
      <trkpt lat="41.15806" lon="9.57711">
        <ele>1.1</ele>
        <time>2017-10-08T09:50:17Z</time>
      </trkpt>
      <trkpt lat="41.15845" lon="9.57691">
        <ele>2.06</ele>
        <time>2017-10-08T09:50:31Z</time>
      </trkpt>
      <trkpt lat="41.15875" lon="9.57677">
        <ele>2.06</ele>
        <time>2017-10-08T09:50:42Z</time>
      </trkpt>
      <trkpt lat="41.15909" lon="9.57654">
        <ele>2.54</ele>
        <time>2017-10-08T09:50:57Z</time>
      </trkpt>
      <trkpt lat="41.15932" lon="9.57645">
        <ele>2.06</ele>
        <time>2017-10-08T09:51:07Z</time>
      </trkpt>
      <trkpt lat="41.15963" lon="9.57629">
        <ele>2.54</ele>
        <time>2017-10-08T09:51:18Z</time>
      </trkpt>
      <trkpt lat="41.15988" lon="9.5762">
        <ele>3.02</ele>
        <time>2017-10-08T09:51:27Z</time>
      </trkpt>
      <trkpt lat="41.16023" lon="9.57608">
        <ele>3.5</ele>
        <time>2017-10-08T09:51:38Z</time>
      </trkpt>
      <trkpt lat="41.16034" lon="9.57605">
        <ele>2.54</ele>
        <time>2017-10-08T09:51:41Z</time>
      </trkpt>
      <trkpt lat="41.1605" lon="9.576">
        <ele>2.54</ele>
        <time>2017-10-08T09:51:45Z</time>
      </trkpt>
      <trkpt lat="41.16093" lon="9.57585">
        <ele>-0.34</ele>
        <time>2017-10-08T09:51:57Z</time>
      </trkpt>
      <trkpt lat="41.16128" lon="9.57572">
        <ele>-0.82</ele>
        <time>2017-10-08T09:52:08Z</time>
      </trkpt>
      <trkpt lat="41.16156" lon="9.57562">
        <ele>-1.3</ele>
        <time>2017-10-08T09:52:18Z</time>
      </trkpt>
      <trkpt lat="41.16186" lon="9.57549">
        <ele>1.58</ele>
        <time>2017-10-08T09:52:28Z</time>
      </trkpt>
      <trkpt lat="41.1622" lon="9.57542">
        <ele>3.02</ele>
        <time>2017-10-08T09:52:38Z</time>
      </trkpt>
      <trkpt lat="41.16253" lon="9.57538">
        <ele>3.98</ele>
        <time>2017-10-08T09:52:48Z</time>
      </trkpt>
      <trkpt lat="41.16262" lon="9.57533">
        <ele>3.98</ele>
        <time>2017-10-08T09:52:51Z</time>
      </trkpt>
      <trkpt lat="41.16278" lon="9.57526">
        <ele>4.46</ele>
        <time>2017-10-08T09:52:56Z</time>
      </trkpt>
      <trkpt lat="41.16311" lon="9.57513">
        <ele>4.94</ele>
        <time>2017-10-08T09:53:07Z</time>
      </trkpt>
      <trkpt lat="41.16353" lon="9.575">
        <ele>3.98</ele>
        <time>2017-10-08T09:53:20Z</time>
      </trkpt>
      <trkpt lat="41.16389" lon="9.57487">
        <ele>4.94</ele>
        <time>2017-10-08T09:53:31Z</time>
      </trkpt>
      <trkpt lat="41.16422" lon="9.57477">
        <ele>5.91</ele>
        <time>2017-10-08T09:53:41Z</time>
      </trkpt>
      <trkpt lat="41.16465" lon="9.57467">
        <ele>5.91</ele>
        <time>2017-10-08T09:53:53Z</time>
      </trkpt>
      <trkpt lat="41.16477" lon="9.57462">
        <ele>5.42</ele>
        <time>2017-10-08T09:53:57Z</time>
      </trkpt>
      <trkpt lat="41.16476" lon="9.57452">
        <ele>5.42</ele>
        <time>2017-10-08T09:54:01Z</time>
      </trkpt>
      <trkpt lat="41.16473" lon="9.57449">
        <ele>4.94</ele>
        <time>2017-10-08T09:54:03Z</time>
      </trkpt>
      <trkpt lat="41.1645" lon="9.57442">
        <ele>3.98</ele>
        <time>2017-10-08T09:54:13Z</time>
      </trkpt>
      <trkpt lat="41.16421" lon="9.57442">
        <ele>3.5</ele>
        <time>2017-10-08T09:54:23Z</time>
      </trkpt>
      <trkpt lat="41.1641" lon="9.57445">
        <ele>3.5</ele>
        <time>2017-10-08T09:54:26Z</time>
      </trkpt>
      <trkpt lat="41.1638" lon="9.57426">
        <ele>2.06</ele>
        <time>2017-10-08T09:54:37Z</time>
      </trkpt>
      <trkpt lat="41.1635" lon="9.57416">
        <ele>2.06</ele>
        <time>2017-10-08T09:54:46Z</time>
      </trkpt>
      <trkpt lat="41.16308" lon="9.57403">
        <ele>1.58</ele>
        <time>2017-10-08T09:54:58Z</time>
      </trkpt>
      <trkpt lat="41.16273" lon="9.5738">
        <ele>1.58</ele>
        <time>2017-10-08T09:55:09Z</time>
      </trkpt>
      <trkpt lat="41.16249" lon="9.57354">
        <ele>0.62</ele>
        <time>2017-10-08T09:55:18Z</time>
      </trkpt>
      <trkpt lat="41.16225" lon="9.57325">
        <ele>-0.34</ele>
        <time>2017-10-08T09:55:28Z</time>
      </trkpt>
      <trkpt lat="41.16196" lon="9.57294">
        <ele>1.1</ele>
        <time>2017-10-08T09:55:39Z</time>
      </trkpt>
      <trkpt lat="41.16175" lon="9.57262">
        <ele>2.54</ele>
        <time>2017-10-08T09:55:49Z</time>
      </trkpt>
      <trkpt lat="41.16146" lon="9.57234">
        <ele>2.54</ele>
        <time>2017-10-08T09:55:59Z</time>
      </trkpt>
      <trkpt lat="41.16122" lon="9.57201">
        <ele>3.02</ele>
        <time>2017-10-08T09:56:10Z</time>
      </trkpt>
      <trkpt lat="41.1609" lon="9.5717">
        <ele>3.02</ele>
        <time>2017-10-08T09:56:22Z</time>
      </trkpt>
      <trkpt lat="41.16065" lon="9.57138">
        <ele>4.46</ele>
        <time>2017-10-08T09:56:32Z</time>
      </trkpt>
      <trkpt lat="41.16042" lon="9.5711">
        <ele>3.98</ele>
        <time>2017-10-08T09:56:42Z</time>
      </trkpt>
      <trkpt lat="41.16015" lon="9.57085">
        <ele>2.54</ele>
        <time>2017-10-08T09:56:52Z</time>
      </trkpt>
      <trkpt lat="41.15993" lon="9.5706">
        <ele>2.54</ele>
        <time>2017-10-08T09:57:01Z</time>
      </trkpt>
      <trkpt lat="41.15965" lon="9.57034">
        <ele>3.5</ele>
        <time>2017-10-08T09:57:11Z</time>
      </trkpt>
      <trkpt lat="41.15939" lon="9.57011">
        <ele>3.02</ele>
        <time>2017-10-08T09:57:20Z</time>
      </trkpt>
      <trkpt lat="41.15932" lon="9.57009">
        <ele>3.02</ele>
        <time>2017-10-08T09:57:22Z</time>
      </trkpt>
      <trkpt lat="41.15923" lon="9.57008">
        <ele>3.5</ele>
        <time>2017-10-08T09:57:24Z</time>
      </trkpt>
      <trkpt lat="41.15901" lon="9.56992">
        <ele>3.5</ele>
        <time>2017-10-08T09:57:35Z</time>
      </trkpt>
      <trkpt lat="41.15901" lon="9.56992">
        <ele>3.02</ele>
        <time>2017-10-08T09:57:40Z</time>
      </trkpt>
      <trkpt lat="41.15919" lon="9.57006">
        <ele>2.54</ele>
        <time>2017-10-08T09:57:52Z</time>
      </trkpt>
      <trkpt lat="41.15929" lon="9.57003">
        <ele>3.02</ele>
        <time>2017-10-08T09:57:59Z</time>
      </trkpt>
      <trkpt lat="41.15936" lon="9.57005">
        <ele>2.54</ele>
        <time>2017-10-08T09:58:04Z</time>
      </trkpt>
      <trkpt lat="41.15959" lon="9.57003">
        <ele>2.54</ele>
        <time>2017-10-08T09:58:15Z</time>
      </trkpt>
      <trkpt lat="41.15973" lon="9.56995">
        <ele>0.62</ele>
        <time>2017-10-08T09:58:26Z</time>
      </trkpt>
      <trkpt lat="41.15974" lon="9.56996">
        <ele>1.1</ele>
        <time>2017-10-08T09:58:28Z</time>
      </trkpt>
      <trkpt lat="41.15994" lon="9.57001">
        <ele>1.1</ele>
        <time>2017-10-08T09:58:42Z</time>
      </trkpt>
      <trkpt lat="41.15999" lon="9.57001">
        <ele>2.06</ele>
        <time>2017-10-08T09:58:52Z</time>
      </trkpt>
      <trkpt lat="41.16" lon="9.57001">
        <ele>2.06</ele>
        <time>2017-10-08T09:58:53Z</time>
      </trkpt>
      <trkpt lat="41.16002" lon="9.57003">
        <ele>2.06</ele>
        <time>2017-10-08T09:58:55Z</time>
      </trkpt>
      <trkpt lat="41.16017" lon="9.57007">
        <ele>0.14</ele>
        <time>2017-10-08T09:59:04Z</time>
      </trkpt>
      <trkpt lat="41.16037" lon="9.57005">
        <ele>0.14</ele>
        <time>2017-10-08T09:59:14Z</time>
      </trkpt>
      <trkpt lat="41.16045" lon="9.57002">
        <ele>1.1</ele>
        <time>2017-10-08T09:59:18Z</time>
      </trkpt>
      <trkpt lat="41.16076" lon="9.56994">
        <ele>0.14</ele>
        <time>2017-10-08T09:59:31Z</time>
      </trkpt>
      <trkpt lat="41.16105" lon="9.56995">
        <ele>0.14</ele>
        <time>2017-10-08T09:59:42Z</time>
      </trkpt>
      <trkpt lat="41.16143" lon="9.57001">
        <ele>1.1</ele>
        <time>2017-10-08T09:59:53Z</time>
      </trkpt>
      <trkpt lat="41.16172" lon="9.5702">
        <ele>1.1</ele>
        <time>2017-10-08T10:00:02Z</time>
      </trkpt>
      <trkpt lat="41.16201" lon="9.57042">
        <ele>2.54</ele>
        <time>2017-10-08T10:00:12Z</time>
      </trkpt>
      <trkpt lat="41.16222" lon="9.57062">
        <ele>2.06</ele>
        <time>2017-10-08T10:00:19Z</time>
      </trkpt>
      <trkpt lat="41.16247" lon="9.57087">
        <ele>0.62</ele>
        <time>2017-10-08T10:00:28Z</time>
      </trkpt>
      <trkpt lat="41.16268" lon="9.57126">
        <ele>0.62</ele>
        <time>2017-10-08T10:00:40Z</time>
      </trkpt>
      <trkpt lat="41.16289" lon="9.57164">
        <ele>1.1</ele>
        <time>2017-10-08T10:00:52Z</time>
      </trkpt>
      <trkpt lat="41.16298" lon="9.57174">
        <ele>0.62</ele>
        <time>2017-10-08T10:00:56Z</time>
      </trkpt>
      <trkpt lat="41.16308" lon="9.57212">
        <ele>0.62</ele>
        <time>2017-10-08T10:01:07Z</time>
      </trkpt>
      <trkpt lat="41.16308" lon="9.57222">
        <ele>0.14</ele>
        <time>2017-10-08T10:01:10Z</time>
      </trkpt>
      <trkpt lat="41.16308" lon="9.57262">
        <ele>0.14</ele>
        <time>2017-10-08T10:01:22Z</time>
      </trkpt>
      <trkpt lat="41.16333" lon="9.5728">
        <ele>1.58</ele>
        <time>2017-10-08T10:01:33Z</time>
      </trkpt>
      <trkpt lat="41.16335" lon="9.57281">
        <ele>2.06</ele>
        <time>2017-10-08T10:01:34Z</time>
      </trkpt>
      <trkpt lat="41.16348" lon="9.57278">
        <ele>2.06</ele>
        <time>2017-10-08T10:01:40Z</time>
      </trkpt>
      <trkpt lat="41.1638" lon="9.57278">
        <ele>1.58</ele>
        <time>2017-10-08T10:01:55Z</time>
      </trkpt>
      <trkpt lat="41.16406" lon="9.57279">
        <ele>2.54</ele>
        <time>2017-10-08T10:02:06Z</time>
      </trkpt>
      <trkpt lat="41.16434" lon="9.57274">
        <ele>2.06</ele>
        <time>2017-10-08T10:02:17Z</time>
      </trkpt>
      <trkpt lat="41.16461" lon="9.57265">
        <ele>2.54</ele>
        <time>2017-10-08T10:02:29Z</time>
      </trkpt>
      <trkpt lat="41.16487" lon="9.57262">
        <ele>2.54</ele>
        <time>2017-10-08T10:02:41Z</time>
      </trkpt>
      <trkpt lat="41.16507" lon="9.5726">
        <ele>3.02</ele>
        <time>2017-10-08T10:02:51Z</time>
      </trkpt>
      <trkpt lat="41.16514" lon="9.5726">
        <ele>1.1</ele>
        <time>2017-10-08T10:02:56Z</time>
      </trkpt>
      <trkpt lat="41.16523" lon="9.57261">
        <ele>1.1</ele>
        <time>2017-10-08T10:03:00Z</time>
      </trkpt>
      <trkpt lat="41.16529" lon="9.57263">
        <ele>1.58</ele>
        <time>2017-10-08T10:03:04Z</time>
      </trkpt>
      <trkpt lat="41.16551" lon="9.57267">
        <ele>0.62</ele>
        <time>2017-10-08T10:03:15Z</time>
      </trkpt>
      <trkpt lat="41.16561" lon="9.5727">
        <ele>0.14</ele>
        <time>2017-10-08T10:03:20Z</time>
      </trkpt>
      <trkpt lat="41.16571" lon="9.5727">
        <ele>0.14</ele>
        <time>2017-10-08T10:03:25Z</time>
      </trkpt>
      <trkpt lat="41.16599" lon="9.57267">
        <ele>2.54</ele>
        <time>2017-10-08T10:03:36Z</time>
      </trkpt>
      <trkpt lat="41.16602" lon="9.57267">
        <ele>2.54</ele>
        <time>2017-10-08T10:03:37Z</time>
      </trkpt>
      <trkpt lat="41.16613" lon="9.57267">
        <ele>3.02</ele>
        <time>2017-10-08T10:03:41Z</time>
      </trkpt>
      <trkpt lat="41.16619" lon="9.57267">
        <ele>3.02</ele>
        <time>2017-10-08T10:03:43Z</time>
      </trkpt>
      <trkpt lat="41.1663" lon="9.57267">
        <ele>3.5</ele>
        <time>2017-10-08T10:03:47Z</time>
      </trkpt>
      <trkpt lat="41.16658" lon="9.57268">
        <ele>3.98</ele>
        <time>2017-10-08T10:03:58Z</time>
      </trkpt>
      <trkpt lat="41.1669" lon="9.57267">
        <ele>4.46</ele>
        <time>2017-10-08T10:04:10Z</time>
      </trkpt>
      <trkpt lat="41.16724" lon="9.57264">
        <ele>4.94</ele>
        <time>2017-10-08T10:04:22Z</time>
      </trkpt>
      <trkpt lat="41.16749" lon="9.5726">
        <ele>5.42</ele>
        <time>2017-10-08T10:04:31Z</time>
      </trkpt>
      <trkpt lat="41.16759" lon="9.57257">
        <ele>5.42</ele>
        <time>2017-10-08T10:04:35Z</time>
      </trkpt>
      <trkpt lat="41.16776" lon="9.57256">
        <ele>5.42</ele>
        <time>2017-10-08T10:04:43Z</time>
      </trkpt>
      <trkpt lat="41.16791" lon="9.57256">
        <ele>4.46</ele>
        <time>2017-10-08T10:04:51Z</time>
      </trkpt>
      <trkpt lat="41.16807" lon="9.57252">
        <ele>3.5</ele>
        <time>2017-10-08T10:04:59Z</time>
      </trkpt>
      <trkpt lat="41.16816" lon="9.57252">
        <ele>3.5</ele>
        <time>2017-10-08T10:05:03Z</time>
      </trkpt>
      <trkpt lat="41.16843" lon="9.57252">
        <ele>1.58</ele>
        <time>2017-10-08T10:05:14Z</time>
      </trkpt>
      <trkpt lat="41.1687" lon="9.57247">
        <ele>0.14</ele>
        <time>2017-10-08T10:05:26Z</time>
      </trkpt>
      <trkpt lat="41.16887" lon="9.57243">
        <ele>1.1</ele>
        <time>2017-10-08T10:05:36Z</time>
      </trkpt>
      <trkpt lat="41.16896" lon="9.57244">
        <ele>2.06</ele>
        <time>2017-10-08T10:05:41Z</time>
      </trkpt>
      <trkpt lat="41.1692" lon="9.57239">
        <ele>0.62</ele>
        <time>2017-10-08T10:05:54Z</time>
      </trkpt>
      <trkpt lat="41.16949" lon="9.57228">
        <ele>1.1</ele>
        <time>2017-10-08T10:06:05Z</time>
      </trkpt>
      <trkpt lat="41.16978" lon="9.57215">
        <ele>1.1</ele>
        <time>2017-10-08T10:06:15Z</time>
      </trkpt>
      <trkpt lat="41.1698" lon="9.57213">
        <ele>1.1</ele>
        <time>2017-10-08T10:06:16Z</time>
      </trkpt>
      <trkpt lat="41.17007" lon="9.57198">
        <ele>2.54</ele>
        <time>2017-10-08T10:06:26Z</time>
      </trkpt>
      <trkpt lat="41.17028" lon="9.57189">
        <ele>3.02</ele>
        <time>2017-10-08T10:06:34Z</time>
      </trkpt>
      <trkpt lat="41.17055" lon="9.5718">
        <ele>3.5</ele>
        <time>2017-10-08T10:06:46Z</time>
      </trkpt>
      <trkpt lat="41.17087" lon="9.57172">
        <ele>3.98</ele>
        <time>2017-10-08T10:06:58Z</time>
      </trkpt>
      <trkpt lat="41.17116" lon="9.57163">
        <ele>4.46</ele>
        <time>2017-10-08T10:07:09Z</time>
      </trkpt>
      <trkpt lat="41.17145" lon="9.57151">
        <ele>3.98</ele>
        <time>2017-10-08T10:07:21Z</time>
      </trkpt>
      <trkpt lat="41.17173" lon="9.57146">
        <ele>3.5</ele>
        <time>2017-10-08T10:07:32Z</time>
      </trkpt>
      <trkpt lat="41.1721" lon="9.57133">
        <ele>3.5</ele>
        <time>2017-10-08T10:07:45Z</time>
      </trkpt>
      <trkpt lat="41.17239" lon="9.57125">
        <ele>3.98</ele>
        <time>2017-10-08T10:07:56Z</time>
      </trkpt>
      <trkpt lat="41.17274" lon="9.57118">
        <ele>3.5</ele>
        <time>2017-10-08T10:08:08Z</time>
      </trkpt>
      <trkpt lat="41.17296" lon="9.57111">
        <ele>2.54</ele>
        <time>2017-10-08T10:08:16Z</time>
      </trkpt>
      <trkpt lat="41.17328" lon="9.57101">
        <ele>3.98</ele>
        <time>2017-10-08T10:08:28Z</time>
      </trkpt>
      <trkpt lat="41.17352" lon="9.57094">
        <ele>3.98</ele>
        <time>2017-10-08T10:08:37Z</time>
      </trkpt>
      <trkpt lat="41.17384" lon="9.5708">
        <ele>3.98</ele>
        <time>2017-10-08T10:08:49Z</time>
      </trkpt>
      <trkpt lat="41.17411" lon="9.57067">
        <ele>5.42</ele>
        <time>2017-10-08T10:09:00Z</time>
      </trkpt>
      <trkpt lat="41.17438" lon="9.57055">
        <ele>4.94</ele>
        <time>2017-10-08T10:09:11Z</time>
      </trkpt>
      <trkpt lat="41.17472" lon="9.57041">
        <ele>7.83</ele>
        <time>2017-10-08T10:09:24Z</time>
      </trkpt>
      <trkpt lat="41.17502" lon="9.57024">
        <ele>7.35</ele>
        <time>2017-10-08T10:09:36Z</time>
      </trkpt>
      <trkpt lat="41.17534" lon="9.57009">
        <ele>6.39</ele>
        <time>2017-10-08T10:09:48Z</time>
      </trkpt>
      <trkpt lat="41.17564" lon="9.56994">
        <ele>5.91</ele>
        <time>2017-10-08T10:09:59Z</time>
      </trkpt>
      <trkpt lat="41.17595" lon="9.56982">
        <ele>5.42</ele>
        <time>2017-10-08T10:10:10Z</time>
      </trkpt>
      <trkpt lat="41.17601" lon="9.5698">
        <ele>4.94</ele>
        <time>2017-10-08T10:10:12Z</time>
      </trkpt>
      <trkpt lat="41.17635" lon="9.56968">
        <ele>3.5</ele>
        <time>2017-10-08T10:10:24Z</time>
      </trkpt>
      <trkpt lat="41.17656" lon="9.56958">
        <ele>3.5</ele>
        <time>2017-10-08T10:10:33Z</time>
      </trkpt>
      <trkpt lat="41.17682" lon="9.56941">
        <ele>3.5</ele>
        <time>2017-10-08T10:10:45Z</time>
      </trkpt>
      <trkpt lat="41.17709" lon="9.56932">
        <ele>3.98</ele>
        <time>2017-10-08T10:10:56Z</time>
      </trkpt>
      <trkpt lat="41.17744" lon="9.56915">
        <ele>3.5</ele>
        <time>2017-10-08T10:11:09Z</time>
      </trkpt>
      <trkpt lat="41.17778" lon="9.569">
        <ele>3.98</ele>
        <time>2017-10-08T10:11:21Z</time>
      </trkpt>
      <trkpt lat="41.17802" lon="9.56891">
        <ele>3.98</ele>
        <time>2017-10-08T10:11:29Z</time>
      </trkpt>
      <trkpt lat="41.17839" lon="9.56873">
        <ele>3.02</ele>
        <time>2017-10-08T10:11:42Z</time>
      </trkpt>
      <trkpt lat="41.1788" lon="9.56856">
        <ele>3.02</ele>
        <time>2017-10-08T10:11:56Z</time>
      </trkpt>
      <trkpt lat="41.17905" lon="9.56844">
        <ele>3.02</ele>
        <time>2017-10-08T10:12:05Z</time>
      </trkpt>
      <trkpt lat="41.17931" lon="9.56832">
        <ele>2.54</ele>
        <time>2017-10-08T10:12:14Z</time>
      </trkpt>
      <trkpt lat="41.17947" lon="9.56824">
        <ele>3.02</ele>
        <time>2017-10-08T10:12:20Z</time>
      </trkpt>
      <trkpt lat="41.17984" lon="9.56804">
        <ele>2.54</ele>
        <time>2017-10-08T10:12:33Z</time>
      </trkpt>
      <trkpt lat="41.18018" lon="9.56785">
        <ele>3.02</ele>
        <time>2017-10-08T10:12:45Z</time>
      </trkpt>
      <trkpt lat="41.18051" lon="9.56768">
        <ele>3.98</ele>
        <time>2017-10-08T10:12:57Z</time>
      </trkpt>
      <trkpt lat="41.18077" lon="9.56756">
        <ele>3.5</ele>
        <time>2017-10-08T10:13:07Z</time>
      </trkpt>
      <trkpt lat="41.18105" lon="9.56741">
        <ele>3.5</ele>
        <time>2017-10-08T10:13:17Z</time>
      </trkpt>
      <trkpt lat="41.18143" lon="9.56721">
        <ele>3.5</ele>
        <time>2017-10-08T10:13:31Z</time>
      </trkpt>
      <trkpt lat="41.1817" lon="9.56704">
        <ele>3.5</ele>
        <time>2017-10-08T10:13:42Z</time>
      </trkpt>
      <trkpt lat="41.18197" lon="9.56692">
        <ele>3.02</ele>
        <time>2017-10-08T10:13:54Z</time>
      </trkpt>
      <trkpt lat="41.18218" lon="9.56682">
        <ele>3.02</ele>
        <time>2017-10-08T10:14:04Z</time>
      </trkpt>
      <trkpt lat="41.18244" lon="9.56677">
        <ele>3.98</ele>
        <time>2017-10-08T10:14:17Z</time>
      </trkpt>
      <trkpt lat="41.18278" lon="9.56667">
        <ele>4.46</ele>
        <time>2017-10-08T10:14:30Z</time>
      </trkpt>
      <trkpt lat="41.18302" lon="9.56661">
        <ele>3.5</ele>
        <time>2017-10-08T10:14:40Z</time>
      </trkpt>
      <trkpt lat="41.18324" lon="9.56653">
        <ele>2.54</ele>
        <time>2017-10-08T10:14:51Z</time>
      </trkpt>
      <trkpt lat="41.18334" lon="9.56652">
        <ele>3.02</ele>
        <time>2017-10-08T10:14:58Z</time>
      </trkpt>
      <trkpt lat="41.18341" lon="9.56653">
        <ele>3.02</ele>
        <time>2017-10-08T10:15:03Z</time>
      </trkpt>
      <trkpt lat="41.18367" lon="9.56657">
        <ele>3.02</ele>
        <time>2017-10-08T10:15:15Z</time>
      </trkpt>
      <trkpt lat="41.18399" lon="9.56646">
        <ele>3.02</ele>
        <time>2017-10-08T10:15:27Z</time>
      </trkpt>
      <trkpt lat="41.18425" lon="9.56633">
        <ele>3.02</ele>
        <time>2017-10-08T10:15:37Z</time>
      </trkpt>
      <trkpt lat="41.18452" lon="9.56624">
        <ele>3.5</ele>
        <time>2017-10-08T10:15:49Z</time>
      </trkpt>
      <trkpt lat="41.18468" lon="9.56614">
        <ele>3.5</ele>
        <time>2017-10-08T10:15:56Z</time>
      </trkpt>
      <trkpt lat="41.18492" lon="9.56605">
        <ele>3.5</ele>
        <time>2017-10-08T10:16:07Z</time>
      </trkpt>
      <trkpt lat="41.18526" lon="9.56588">
        <ele>3.98</ele>
        <time>2017-10-08T10:16:21Z</time>
      </trkpt>
      <trkpt lat="41.18549" lon="9.5658">
        <ele>3.98</ele>
        <time>2017-10-08T10:16:31Z</time>
      </trkpt>
      <trkpt lat="41.18577" lon="9.56569">
        <ele>3.02</ele>
        <time>2017-10-08T10:16:44Z</time>
      </trkpt>
      <trkpt lat="41.186" lon="9.56562">
        <ele>3.02</ele>
        <time>2017-10-08T10:16:54Z</time>
      </trkpt>
      <trkpt lat="41.18609" lon="9.56559">
        <ele>3.02</ele>
        <time>2017-10-08T10:16:58Z</time>
      </trkpt>
      <trkpt lat="41.18634" lon="9.56548">
        <ele>3.5</ele>
        <time>2017-10-08T10:17:08Z</time>
      </trkpt>
      <trkpt lat="41.18663" lon="9.56533">
        <ele>3.5</ele>
        <time>2017-10-08T10:17:19Z</time>
      </trkpt>
      <trkpt lat="41.18692" lon="9.56518">
        <ele>3.98</ele>
        <time>2017-10-08T10:17:30Z</time>
      </trkpt>
      <trkpt lat="41.18717" lon="9.56507">
        <ele>3.98</ele>
        <time>2017-10-08T10:17:39Z</time>
      </trkpt>
      <trkpt lat="41.18739" lon="9.56495">
        <ele>3.5</ele>
        <time>2017-10-08T10:17:48Z</time>
      </trkpt>
      <trkpt lat="41.1877" lon="9.56481">
        <ele>3.5</ele>
        <time>2017-10-08T10:18:00Z</time>
      </trkpt>
      <trkpt lat="41.18798" lon="9.56467">
        <ele>3.5</ele>
        <time>2017-10-08T10:18:11Z</time>
      </trkpt>
      <trkpt lat="41.18826" lon="9.56453">
        <ele>3.02</ele>
        <time>2017-10-08T10:18:22Z</time>
      </trkpt>
      <trkpt lat="41.18849" lon="9.56442">
        <ele>3.98</ele>
        <time>2017-10-08T10:18:32Z</time>
      </trkpt>
      <trkpt lat="41.18874" lon="9.56427">
        <ele>3.5</ele>
        <time>2017-10-08T10:18:42Z</time>
      </trkpt>
      <trkpt lat="41.189" lon="9.56418">
        <ele>3.98</ele>
        <time>2017-10-08T10:18:52Z</time>
      </trkpt>
      <trkpt lat="41.18931" lon="9.56403">
        <ele>3.5</ele>
        <time>2017-10-08T10:19:04Z</time>
      </trkpt>
      <trkpt lat="41.18954" lon="9.56394">
        <ele>3.02</ele>
        <time>2017-10-08T10:19:13Z</time>
      </trkpt>
      <trkpt lat="41.18981" lon="9.56384">
        <ele>2.54</ele>
        <time>2017-10-08T10:19:24Z</time>
      </trkpt>
      <trkpt lat="41.19007" lon="9.5638">
        <ele>2.06</ele>
        <time>2017-10-08T10:19:34Z</time>
      </trkpt>
      <trkpt lat="41.19034" lon="9.56371">
        <ele>2.54</ele>
        <time>2017-10-08T10:19:44Z</time>
      </trkpt>
      <trkpt lat="41.19064" lon="9.5636">
        <ele>3.02</ele>
        <time>2017-10-08T10:19:55Z</time>
      </trkpt>
      <trkpt lat="41.19088" lon="9.5635">
        <ele>3.02</ele>
        <time>2017-10-08T10:20:04Z</time>
      </trkpt>
      <trkpt lat="41.19108" lon="9.56342">
        <ele>3.02</ele>
        <time>2017-10-08T10:20:13Z</time>
      </trkpt>
      <trkpt lat="41.19128" lon="9.56335">
        <ele>3.5</ele>
        <time>2017-10-08T10:20:22Z</time>
      </trkpt>
      <trkpt lat="41.19153" lon="9.56325">
        <ele>3.5</ele>
        <time>2017-10-08T10:20:32Z</time>
      </trkpt>
      <trkpt lat="41.19157" lon="9.56324">
        <ele>3.5</ele>
        <time>2017-10-08T10:20:34Z</time>
      </trkpt>
      <trkpt lat="41.19185" lon="9.56313">
        <ele>3.02</ele>
        <time>2017-10-08T10:20:46Z</time>
      </trkpt>
      <trkpt lat="41.19207" lon="9.56303">
        <ele>3.5</ele>
        <time>2017-10-08T10:20:56Z</time>
      </trkpt>
      <trkpt lat="41.1923" lon="9.56295">
        <ele>3.98</ele>
        <time>2017-10-08T10:21:05Z</time>
      </trkpt>
      <trkpt lat="41.19255" lon="9.56283">
        <ele>3.02</ele>
        <time>2017-10-08T10:21:15Z</time>
      </trkpt>
      <trkpt lat="41.1928" lon="9.56268">
        <ele>3.02</ele>
        <time>2017-10-08T10:21:25Z</time>
      </trkpt>
      <trkpt lat="41.19282" lon="9.56267">
        <ele>2.54</ele>
        <time>2017-10-08T10:21:26Z</time>
      </trkpt>
      <trkpt lat="41.19294" lon="9.56262">
        <ele>2.06</ele>
        <time>2017-10-08T10:21:31Z</time>
      </trkpt>
      <trkpt lat="41.19322" lon="9.56249">
        <ele>2.54</ele>
        <time>2017-10-08T10:21:43Z</time>
      </trkpt>
      <trkpt lat="41.19349" lon="9.56235">
        <ele>3.02</ele>
        <time>2017-10-08T10:21:54Z</time>
      </trkpt>
      <trkpt lat="41.19375" lon="9.56222">
        <ele>3.02</ele>
        <time>2017-10-08T10:22:05Z</time>
      </trkpt>
      <trkpt lat="41.194" lon="9.56207">
        <ele>3.02</ele>
        <time>2017-10-08T10:22:16Z</time>
      </trkpt>
      <trkpt lat="41.19419" lon="9.56199">
        <ele>3.5</ele>
        <time>2017-10-08T10:22:25Z</time>
      </trkpt>
      <trkpt lat="41.1945" lon="9.56184">
        <ele>3.5</ele>
        <time>2017-10-08T10:22:38Z</time>
      </trkpt>
      <trkpt lat="41.19475" lon="9.5617">
        <ele>3.5</ele>
        <time>2017-10-08T10:22:49Z</time>
      </trkpt>
      <trkpt lat="41.19496" lon="9.56161">
        <ele>3.5</ele>
        <time>2017-10-08T10:22:57Z</time>
      </trkpt>
      <trkpt lat="41.19505" lon="9.56155">
        <ele>3.02</ele>
        <time>2017-10-08T10:23:01Z</time>
      </trkpt>
      <trkpt lat="41.19531" lon="9.56138">
        <ele>3.02</ele>
        <time>2017-10-08T10:23:11Z</time>
      </trkpt>
      <trkpt lat="41.19554" lon="9.56121">
        <ele>3.02</ele>
        <time>2017-10-08T10:23:20Z</time>
      </trkpt>
      <trkpt lat="41.1958" lon="9.56108">
        <ele>3.02</ele>
        <time>2017-10-08T10:23:29Z</time>
      </trkpt>
      <trkpt lat="41.19605" lon="9.56094">
        <ele>3.5</ele>
        <time>2017-10-08T10:23:38Z</time>
      </trkpt>
      <trkpt lat="41.19633" lon="9.56071">
        <ele>3.5</ele>
        <time>2017-10-08T10:23:49Z</time>
      </trkpt>
      <trkpt lat="41.19655" lon="9.56055">
        <ele>3.02</ele>
        <time>2017-10-08T10:23:59Z</time>
      </trkpt>
      <trkpt lat="41.19672" lon="9.56051">
        <ele>2.54</ele>
        <time>2017-10-08T10:24:06Z</time>
      </trkpt>
      <trkpt lat="41.19693" lon="9.56043">
        <ele>2.54</ele>
        <time>2017-10-08T10:24:16Z</time>
      </trkpt>
      <trkpt lat="41.19695" lon="9.56042">
        <ele>2.06</ele>
        <time>2017-10-08T10:24:17Z</time>
      </trkpt>
      <trkpt lat="41.19703" lon="9.56038">
        <ele>2.54</ele>
        <time>2017-10-08T10:24:21Z</time>
      </trkpt>
      <trkpt lat="41.19721" lon="9.56028">
        <ele>1.58</ele>
        <time>2017-10-08T10:24:30Z</time>
      </trkpt>
      <trkpt lat="41.19746" lon="9.56017">
        <ele>2.06</ele>
        <time>2017-10-08T10:24:41Z</time>
      </trkpt>
      <trkpt lat="41.19769" lon="9.56006">
        <ele>2.06</ele>
        <time>2017-10-08T10:24:51Z</time>
      </trkpt>
      <trkpt lat="41.19789" lon="9.55996">
        <ele>2.06</ele>
        <time>2017-10-08T10:25:00Z</time>
      </trkpt>
      <trkpt lat="41.19804" lon="9.5599">
        <ele>2.54</ele>
        <time>2017-10-08T10:25:06Z</time>
      </trkpt>
      <trkpt lat="41.19825" lon="9.5598">
        <ele>2.06</ele>
        <time>2017-10-08T10:25:16Z</time>
      </trkpt>
      <trkpt lat="41.19834" lon="9.55978">
        <ele>1.58</ele>
        <time>2017-10-08T10:25:21Z</time>
      </trkpt>
      <trkpt lat="41.19855" lon="9.55974">
        <ele>1.58</ele>
        <time>2017-10-08T10:25:32Z</time>
      </trkpt>
      <trkpt lat="41.19882" lon="9.55965">
        <ele>2.06</ele>
        <time>2017-10-08T10:25:45Z</time>
      </trkpt>
      <trkpt lat="41.19909" lon="9.55955">
        <ele>2.06</ele>
        <time>2017-10-08T10:25:57Z</time>
      </trkpt>
      <trkpt lat="41.19937" lon="9.55943">
        <ele>2.06</ele>
        <time>2017-10-08T10:26:10Z</time>
      </trkpt>
      <trkpt lat="41.19961" lon="9.55932">
        <ele>3.02</ele>
        <time>2017-10-08T10:26:21Z</time>
      </trkpt>
      <trkpt lat="41.19986" lon="9.55923">
        <ele>3.02</ele>
        <time>2017-10-08T10:26:32Z</time>
      </trkpt>
      <trkpt lat="41.19995" lon="9.55918">
        <ele>3.02</ele>
        <time>2017-10-08T10:26:36Z</time>
      </trkpt>
      <trkpt lat="41.20014" lon="9.55911">
        <ele>2.54</ele>
        <time>2017-10-08T10:26:45Z</time>
      </trkpt>
      <trkpt lat="41.20016" lon="9.55911">
        <ele>2.54</ele>
        <time>2017-10-08T10:26:46Z</time>
      </trkpt>
      <trkpt lat="41.20029" lon="9.55908">
        <ele>2.54</ele>
        <time>2017-10-08T10:26:53Z</time>
      </trkpt>
      <trkpt lat="41.20048" lon="9.55908">
        <ele>2.06</ele>
        <time>2017-10-08T10:27:02Z</time>
      </trkpt>
      <trkpt lat="41.20078" lon="9.55896">
        <ele>2.06</ele>
        <time>2017-10-08T10:27:15Z</time>
      </trkpt>
      <trkpt lat="41.20103" lon="9.55883">
        <ele>1.58</ele>
        <time>2017-10-08T10:27:25Z</time>
      </trkpt>
      <trkpt lat="41.20129" lon="9.5587">
        <ele>1.58</ele>
        <time>2017-10-08T10:27:36Z</time>
      </trkpt>
      <trkpt lat="41.2016" lon="9.55856">
        <ele>1.58</ele>
        <time>2017-10-08T10:27:50Z</time>
      </trkpt>
      <trkpt lat="41.20184" lon="9.55848">
        <ele>1.58</ele>
        <time>2017-10-08T10:28:01Z</time>
      </trkpt>
      <trkpt lat="41.20213" lon="9.55836">
        <ele>2.54</ele>
        <time>2017-10-08T10:28:14Z</time>
      </trkpt>
      <trkpt lat="41.20238" lon="9.55824">
        <ele>3.5</ele>
        <time>2017-10-08T10:28:25Z</time>
      </trkpt>
      <trkpt lat="41.20272" lon="9.55813">
        <ele>3.98</ele>
        <time>2017-10-08T10:28:39Z</time>
      </trkpt>
      <trkpt lat="41.20298" lon="9.55802">
        <ele>3.98</ele>
        <time>2017-10-08T10:28:49Z</time>
      </trkpt>
      <trkpt lat="41.20331" lon="9.55788">
        <ele>3.5</ele>
        <time>2017-10-08T10:29:01Z</time>
      </trkpt>
      <trkpt lat="41.2036" lon="9.55774">
        <ele>3.5</ele>
        <time>2017-10-08T10:29:12Z</time>
      </trkpt>
      <trkpt lat="41.20386" lon="9.55765">
        <ele>3.98</ele>
        <time>2017-10-08T10:29:22Z</time>
      </trkpt>
      <trkpt lat="41.20423" lon="9.55751">
        <ele>4.46</ele>
        <time>2017-10-08T10:29:35Z</time>
      </trkpt>
      <trkpt lat="41.20449" lon="9.55742">
        <ele>4.94</ele>
        <time>2017-10-08T10:29:45Z</time>
      </trkpt>
      <trkpt lat="41.20472" lon="9.55733">
        <ele>4.94</ele>
        <time>2017-10-08T10:29:54Z</time>
      </trkpt>
      <trkpt lat="41.20503" lon="9.55722">
        <ele>3.98</ele>
        <time>2017-10-08T10:30:05Z</time>
      </trkpt>
      <trkpt lat="41.20535" lon="9.55708">
        <ele>3.02</ele>
        <time>2017-10-08T10:30:17Z</time>
      </trkpt>
      <trkpt lat="41.20558" lon="9.55697">
        <ele>3.02</ele>
        <time>2017-10-08T10:30:26Z</time>
      </trkpt>
      <trkpt lat="41.20594" lon="9.55682">
        <ele>3.02</ele>
        <time>2017-10-08T10:30:40Z</time>
      </trkpt>
      <trkpt lat="41.20617" lon="9.5567">
        <ele>3.02</ele>
        <time>2017-10-08T10:30:50Z</time>
      </trkpt>
      <trkpt lat="41.20651" lon="9.55651">
        <ele>3.5</ele>
        <time>2017-10-08T10:31:04Z</time>
      </trkpt>
      <trkpt lat="41.20675" lon="9.55641">
        <ele>4.94</ele>
        <time>2017-10-08T10:31:14Z</time>
      </trkpt>
      <trkpt lat="41.20699" lon="9.5563">
        <ele>4.46</ele>
        <time>2017-10-08T10:31:24Z</time>
      </trkpt>
      <trkpt lat="41.2072" lon="9.55618">
        <ele>4.46</ele>
        <time>2017-10-08T10:31:33Z</time>
      </trkpt>
      <trkpt lat="41.20743" lon="9.55608">
        <ele>3.5</ele>
        <time>2017-10-08T10:31:45Z</time>
      </trkpt>
      <trkpt lat="41.20768" lon="9.55602">
        <ele>3.98</ele>
        <time>2017-10-08T10:31:56Z</time>
      </trkpt>
      <trkpt lat="41.20777" lon="9.55596">
        <ele>3.02</ele>
        <time>2017-10-08T10:32:01Z</time>
      </trkpt>
      <trkpt lat="41.20797" lon="9.55587">
        <ele>3.02</ele>
        <time>2017-10-08T10:32:11Z</time>
      </trkpt>
      <trkpt lat="41.20804" lon="9.55584">
        <ele>3.02</ele>
        <time>2017-10-08T10:32:14Z</time>
      </trkpt>
      <trkpt lat="41.20829" lon="9.55577">
        <ele>3.5</ele>
        <time>2017-10-08T10:32:25Z</time>
      </trkpt>
      <trkpt lat="41.20838" lon="9.55572">
        <ele>3.02</ele>
        <time>2017-10-08T10:32:29Z</time>
      </trkpt>
      <trkpt lat="41.20856" lon="9.55562">
        <ele>2.54</ele>
        <time>2017-10-08T10:32:38Z</time>
      </trkpt>
      <trkpt lat="41.20876" lon="9.55554">
        <ele>3.98</ele>
        <time>2017-10-08T10:32:48Z</time>
      </trkpt>
      <trkpt lat="41.20888" lon="9.5555">
        <ele>3.5</ele>
        <time>2017-10-08T10:32:54Z</time>
      </trkpt>
      <trkpt lat="41.20892" lon="9.55549">
        <ele>3.98</ele>
        <time>2017-10-08T10:32:56Z</time>
      </trkpt>
      <trkpt lat="41.209" lon="9.55545">
        <ele>3.98</ele>
        <time>2017-10-08T10:33:00Z</time>
      </trkpt>
      <trkpt lat="41.20915" lon="9.55535">
        <ele>3.98</ele>
        <time>2017-10-08T10:33:09Z</time>
      </trkpt>
      <trkpt lat="41.20941" lon="9.55521">
        <ele>4.46</ele>
        <time>2017-10-08T10:33:22Z</time>
      </trkpt>
      <trkpt lat="41.20946" lon="9.55516">
        <ele>3.98</ele>
        <time>2017-10-08T10:33:25Z</time>
      </trkpt>
      <trkpt lat="41.20963" lon="9.55505">
        <ele>4.94</ele>
        <time>2017-10-08T10:33:34Z</time>
      </trkpt>
      <trkpt lat="41.20965" lon="9.55504">
        <ele>4.94</ele>
        <time>2017-10-08T10:33:35Z</time>
      </trkpt>
      <trkpt lat="41.20984" lon="9.55492">
        <ele>4.94</ele>
        <time>2017-10-08T10:33:46Z</time>
      </trkpt>
      <trkpt lat="41.21009" lon="9.55479">
        <ele>4.94</ele>
        <time>2017-10-08T10:33:58Z</time>
      </trkpt>
      <trkpt lat="41.21033" lon="9.55467">
        <ele>4.46</ele>
        <time>2017-10-08T10:34:09Z</time>
      </trkpt>
      <trkpt lat="41.21055" lon="9.55456">
        <ele>3.02</ele>
        <time>2017-10-08T10:34:19Z</time>
      </trkpt>
      <trkpt lat="41.21068" lon="9.55448">
        <ele>3.02</ele>
        <time>2017-10-08T10:34:25Z</time>
      </trkpt>
      <trkpt lat="41.21095" lon="9.55434">
        <ele>3.5</ele>
        <time>2017-10-08T10:34:37Z</time>
      </trkpt>
      <trkpt lat="41.21097" lon="9.55433">
        <ele>3.5</ele>
        <time>2017-10-08T10:34:38Z</time>
      </trkpt>
      <trkpt lat="41.21119" lon="9.55416">
        <ele>3.5</ele>
        <time>2017-10-08T10:34:49Z</time>
      </trkpt>
      <trkpt lat="41.21133" lon="9.55408">
        <ele>3.02</ele>
        <time>2017-10-08T10:34:56Z</time>
      </trkpt>
      <trkpt lat="41.21156" lon="9.55399">
        <ele>3.5</ele>
        <time>2017-10-08T10:35:07Z</time>
      </trkpt>
      <trkpt lat="41.21161" lon="9.55396">
        <ele>3.5</ele>
        <time>2017-10-08T10:35:09Z</time>
      </trkpt>
      <trkpt lat="41.21169" lon="9.5539">
        <ele>3.02</ele>
        <time>2017-10-08T10:35:13Z</time>
      </trkpt>
      <trkpt lat="41.21184" lon="9.55379">
        <ele>3.98</ele>
        <time>2017-10-08T10:35:21Z</time>
      </trkpt>
      <trkpt lat="41.212" lon="9.55372">
        <ele>3.98</ele>
        <time>2017-10-08T10:35:29Z</time>
      </trkpt>
      <trkpt lat="41.2121" lon="9.55366">
        <ele>3.98</ele>
        <time>2017-10-08T10:35:34Z</time>
      </trkpt>
      <trkpt lat="41.21225" lon="9.55354">
        <ele>3.5</ele>
        <time>2017-10-08T10:35:42Z</time>
      </trkpt>
      <trkpt lat="41.21229" lon="9.55352">
        <ele>3.5</ele>
        <time>2017-10-08T10:35:44Z</time>
      </trkpt>
      <trkpt lat="41.21252" lon="9.55336">
        <ele>3.5</ele>
        <time>2017-10-08T10:35:55Z</time>
      </trkpt>
      <trkpt lat="41.21275" lon="9.5532">
        <ele>3.5</ele>
        <time>2017-10-08T10:36:06Z</time>
      </trkpt>
      <trkpt lat="41.21283" lon="9.55317">
        <ele>3.5</ele>
        <time>2017-10-08T10:36:10Z</time>
      </trkpt>
      <trkpt lat="41.21291" lon="9.55315">
        <ele>3.5</ele>
        <time>2017-10-08T10:36:14Z</time>
      </trkpt>
      <trkpt lat="41.21307" lon="9.55307">
        <ele>3.5</ele>
        <time>2017-10-08T10:36:25Z</time>
      </trkpt>
      <trkpt lat="41.21314" lon="9.55307">
        <ele>3.02</ele>
        <time>2017-10-08T10:36:29Z</time>
      </trkpt>
      <trkpt lat="41.2132" lon="9.55307">
        <ele>2.54</ele>
        <time>2017-10-08T10:36:32Z</time>
      </trkpt>
      <trkpt lat="41.21332" lon="9.55304">
        <ele>2.54</ele>
        <time>2017-10-08T10:36:38Z</time>
      </trkpt>
      <trkpt lat="41.21355" lon="9.55288">
        <ele>3.5</ele>
        <time>2017-10-08T10:36:52Z</time>
      </trkpt>
      <trkpt lat="41.21362" lon="9.55282">
        <ele>3.5</ele>
        <time>2017-10-08T10:36:57Z</time>
      </trkpt>
      <trkpt lat="41.21379" lon="9.55274">
        <ele>3.5</ele>
        <time>2017-10-08T10:37:09Z</time>
      </trkpt>
      <trkpt lat="41.21394" lon="9.55269">
        <ele>4.94</ele>
        <time>2017-10-08T10:37:19Z</time>
      </trkpt>
      <trkpt lat="41.21399" lon="9.55267">
        <ele>4.46</ele>
        <time>2017-10-08T10:37:23Z</time>
      </trkpt>
      <trkpt lat="41.21415" lon="9.55267">
        <ele>5.42</ele>
        <time>2017-10-08T10:37:35Z</time>
      </trkpt>
      <trkpt lat="41.21429" lon="9.55263">
        <ele>3.98</ele>
        <time>2017-10-08T10:37:47Z</time>
      </trkpt>
      <trkpt lat="41.21444" lon="9.55258">
        <ele>2.54</ele>
        <time>2017-10-08T10:37:59Z</time>
      </trkpt>
      <trkpt lat="41.21447" lon="9.55256">
        <ele>2.54</ele>
        <time>2017-10-08T10:38:03Z</time>
      </trkpt>
      <trkpt lat="41.21456" lon="9.55255">
        <ele>3.02</ele>
        <time>2017-10-08T10:38:10Z</time>
      </trkpt>
      <trkpt lat="41.21464" lon="9.55254">
        <ele>3.5</ele>
        <time>2017-10-08T10:38:15Z</time>
      </trkpt>
      <trkpt lat="41.21477" lon="9.5525">
        <ele>3.02</ele>
        <time>2017-10-08T10:38:25Z</time>
      </trkpt>
      <trkpt lat="41.2149" lon="9.5525">
        <ele>3.02</ele>
        <time>2017-10-08T10:38:33Z</time>
      </trkpt>
      <trkpt lat="41.21499" lon="9.55242">
        <ele>3.5</ele>
        <time>2017-10-08T10:38:43Z</time>
      </trkpt>
      <trkpt lat="41.21501" lon="9.55241">
        <ele>3.5</ele>
        <time>2017-10-08T10:38:46Z</time>
      </trkpt>
      <trkpt lat="41.21522" lon="9.55243">
        <ele>3.02</ele>
        <time>2017-10-08T10:38:59Z</time>
      </trkpt>
      <trkpt lat="41.21537" lon="9.55234">
        <ele>3.5</ele>
        <time>2017-10-08T10:39:10Z</time>
      </trkpt>
      <trkpt lat="41.21551" lon="9.55227">
        <ele>3.5</ele>
        <time>2017-10-08T10:39:21Z</time>
      </trkpt>
      <trkpt lat="41.21552" lon="9.55226">
        <ele>3.5</ele>
        <time>2017-10-08T10:39:22Z</time>
      </trkpt>
      <trkpt lat="41.2156" lon="9.55224">
        <ele>3.98</ele>
        <time>2017-10-08T10:39:27Z</time>
      </trkpt>
      <trkpt lat="41.21576" lon="9.55215">
        <ele>3.98</ele>
        <time>2017-10-08T10:39:38Z</time>
      </trkpt>
      <trkpt lat="41.21583" lon="9.55206">
        <ele>3.5</ele>
        <time>2017-10-08T10:39:46Z</time>
      </trkpt>
      <trkpt lat="41.21597" lon="9.55206">
        <ele>3.98</ele>
        <time>2017-10-08T10:39:56Z</time>
      </trkpt>
      <trkpt lat="41.21613" lon="9.55207">
        <ele>4.46</ele>
        <time>2017-10-08T10:40:06Z</time>
      </trkpt>
      <trkpt lat="41.2162" lon="9.55204">
        <ele>4.46</ele>
        <time>2017-10-08T10:40:11Z</time>
      </trkpt>
      <trkpt lat="41.21624" lon="9.55202">
        <ele>3.98</ele>
        <time>2017-10-08T10:40:15Z</time>
      </trkpt>
      <trkpt lat="41.21639" lon="9.55197">
        <ele>3.98</ele>
        <time>2017-10-08T10:40:28Z</time>
      </trkpt>
      <trkpt lat="41.21655" lon="9.55197">
        <ele>3.98</ele>
        <time>2017-10-08T10:40:42Z</time>
      </trkpt>
      <trkpt lat="41.21667" lon="9.55193">
        <ele>3.5</ele>
        <time>2017-10-08T10:40:51Z</time>
      </trkpt>
      <trkpt lat="41.21671" lon="9.55189">
        <ele>3.5</ele>
        <time>2017-10-08T10:40:55Z</time>
      </trkpt>
      <trkpt lat="41.21687" lon="9.55185">
        <ele>2.06</ele>
        <time>2017-10-08T10:41:06Z</time>
      </trkpt>
      <trkpt lat="41.21704" lon="9.55179">
        <ele>2.54</ele>
        <time>2017-10-08T10:41:18Z</time>
      </trkpt>
      <trkpt lat="41.21705" lon="9.55176">
        <ele>2.54</ele>
        <time>2017-10-08T10:41:29Z</time>
      </trkpt>
      <trkpt lat="41.21706" lon="9.55175">
        <ele>2.06</ele>
        <time>2017-10-08T10:41:34Z</time>
      </trkpt>
      <trkpt lat="41.217" lon="9.55179">
        <ele>3.02</ele>
        <time>2017-10-08T10:41:40Z</time>
      </trkpt>
      <trkpt lat="41.21679" lon="9.55189">
        <ele>3.5</ele>
        <time>2017-10-08T10:41:51Z</time>
      </trkpt>
      <trkpt lat="41.21671" lon="9.55186">
        <ele>3.98</ele>
        <time>2017-10-08T10:41:55Z</time>
      </trkpt>
      <trkpt lat="41.21664" lon="9.55178">
        <ele>3.02</ele>
        <time>2017-10-08T10:42:01Z</time>
      </trkpt>
      <trkpt lat="41.2166" lon="9.55173">
        <ele>2.54</ele>
        <time>2017-10-08T10:42:05Z</time>
      </trkpt>
      <trkpt lat="41.21637" lon="9.5516">
        <ele>1.1</ele>
        <time>2017-10-08T10:42:19Z</time>
      </trkpt>
      <trkpt lat="41.21617" lon="9.55141">
        <ele>1.58</ele>
        <time>2017-10-08T10:42:31Z</time>
      </trkpt>
      <trkpt lat="41.21611" lon="9.55135">
        <ele>2.06</ele>
        <time>2017-10-08T10:42:36Z</time>
      </trkpt>
      <trkpt lat="41.21604" lon="9.55131">
        <ele>2.06</ele>
        <time>2017-10-08T10:42:41Z</time>
      </trkpt>
      <trkpt lat="41.21591" lon="9.55129">
        <ele>2.54</ele>
        <time>2017-10-08T10:42:47Z</time>
      </trkpt>
      <trkpt lat="41.21585" lon="9.55125">
        <ele>3.02</ele>
        <time>2017-10-08T10:42:51Z</time>
      </trkpt>
      <trkpt lat="41.21562" lon="9.55113">
        <ele>3.5</ele>
        <time>2017-10-08T10:43:03Z</time>
      </trkpt>
      <trkpt lat="41.2156" lon="9.55113">
        <ele>3.98</ele>
        <time>2017-10-08T10:43:04Z</time>
      </trkpt>
      <trkpt lat="41.21546" lon="9.55103">
        <ele>3.98</ele>
        <time>2017-10-08T10:43:11Z</time>
      </trkpt>
      <trkpt lat="41.21523" lon="9.55093">
        <ele>2.54</ele>
        <time>2017-10-08T10:43:21Z</time>
      </trkpt>
      <trkpt lat="41.21515" lon="9.55091">
        <ele>3.02</ele>
        <time>2017-10-08T10:43:24Z</time>
      </trkpt>
      <trkpt lat="41.21479" lon="9.55068">
        <ele>3.98</ele>
        <time>2017-10-08T10:43:37Z</time>
      </trkpt>
      <trkpt lat="41.21451" lon="9.55052">
        <ele>3.98</ele>
        <time>2017-10-08T10:43:47Z</time>
      </trkpt>
      <trkpt lat="41.21416" lon="9.55031">
        <ele>5.42</ele>
        <time>2017-10-08T10:44:00Z</time>
      </trkpt>
      <trkpt lat="41.21389" lon="9.55009">
        <ele>5.42</ele>
        <time>2017-10-08T10:44:10Z</time>
      </trkpt>
      <trkpt lat="41.21362" lon="9.54988">
        <ele>4.46</ele>
        <time>2017-10-08T10:44:20Z</time>
      </trkpt>
      <trkpt lat="41.21331" lon="9.54968">
        <ele>4.94</ele>
        <time>2017-10-08T10:44:31Z</time>
      </trkpt>
      <trkpt lat="41.21314" lon="9.54958">
        <ele>4.94</ele>
        <time>2017-10-08T10:44:37Z</time>
      </trkpt>
      <trkpt lat="41.21303" lon="9.54948">
        <ele>4.46</ele>
        <time>2017-10-08T10:44:41Z</time>
      </trkpt>
      <trkpt lat="41.21294" lon="9.5494">
        <ele>4.46</ele>
        <time>2017-10-08T10:44:44Z</time>
      </trkpt>
      <trkpt lat="41.21259" lon="9.54915">
        <ele>4.46</ele>
        <time>2017-10-08T10:44:56Z</time>
      </trkpt>
      <trkpt lat="41.2123" lon="9.54892">
        <ele>4.46</ele>
        <time>2017-10-08T10:45:06Z</time>
      </trkpt>
      <trkpt lat="41.212" lon="9.54863">
        <ele>4.46</ele>
        <time>2017-10-08T10:45:17Z</time>
      </trkpt>
      <trkpt lat="41.21171" lon="9.54838">
        <ele>4.46</ele>
        <time>2017-10-08T10:45:28Z</time>
      </trkpt>
      <trkpt lat="41.21146" lon="9.54817">
        <ele>4.46</ele>
        <time>2017-10-08T10:45:38Z</time>
      </trkpt>
      <trkpt lat="41.21135" lon="9.54811">
        <ele>4.46</ele>
        <time>2017-10-08T10:45:42Z</time>
      </trkpt>
      <trkpt lat="41.21114" lon="9.54802">
        <ele>4.46</ele>
        <time>2017-10-08T10:45:50Z</time>
      </trkpt>
      <trkpt lat="41.21093" lon="9.5479">
        <ele>3.98</ele>
        <time>2017-10-08T10:45:59Z</time>
      </trkpt>
      <trkpt lat="41.21082" lon="9.54782">
        <ele>3.5</ele>
        <time>2017-10-08T10:46:04Z</time>
      </trkpt>
      <trkpt lat="41.2107" lon="9.5478">
        <ele>3.98</ele>
        <time>2017-10-08T10:46:09Z</time>
      </trkpt>
      <trkpt lat="41.2106" lon="9.54779">
        <ele>3.98</ele>
        <time>2017-10-08T10:46:13Z</time>
      </trkpt>
      <trkpt lat="41.21034" lon="9.5477">
        <ele>4.46</ele>
        <time>2017-10-08T10:46:23Z</time>
      </trkpt>
      <trkpt lat="41.2101" lon="9.54758">
        <ele>4.46</ele>
        <time>2017-10-08T10:46:33Z</time>
      </trkpt>
      <trkpt lat="41.20984" lon="9.54746">
        <ele>4.94</ele>
        <time>2017-10-08T10:46:44Z</time>
      </trkpt>
      <trkpt lat="41.20956" lon="9.54726">
        <ele>4.94</ele>
        <time>2017-10-08T10:46:55Z</time>
      </trkpt>
      <trkpt lat="41.20934" lon="9.54703">
        <ele>3.98</ele>
        <time>2017-10-08T10:47:05Z</time>
      </trkpt>
      <trkpt lat="41.2092" lon="9.54689">
        <ele>3.98</ele>
        <time>2017-10-08T10:47:11Z</time>
      </trkpt>
      <trkpt lat="41.20909" lon="9.54679">
        <ele>3.02</ele>
        <time>2017-10-08T10:47:16Z</time>
      </trkpt>
      <trkpt lat="41.20882" lon="9.54655">
        <ele>3.5</ele>
        <time>2017-10-08T10:47:28Z</time>
      </trkpt>
      <trkpt lat="41.20856" lon="9.54635">
        <ele>3.5</ele>
        <time>2017-10-08T10:47:39Z</time>
      </trkpt>
      <trkpt lat="41.20833" lon="9.54623">
        <ele>3.98</ele>
        <time>2017-10-08T10:47:49Z</time>
      </trkpt>
      <trkpt lat="41.208" lon="9.5461">
        <ele>3.02</ele>
        <time>2017-10-08T10:48:01Z</time>
      </trkpt>
      <trkpt lat="41.20777" lon="9.54599">
        <ele>3.02</ele>
        <time>2017-10-08T10:48:10Z</time>
      </trkpt>
      <trkpt lat="41.20767" lon="9.54595">
        <ele>3.98</ele>
        <time>2017-10-08T10:48:14Z</time>
      </trkpt>
      <trkpt lat="41.20754" lon="9.54588">
        <ele>4.46</ele>
        <time>2017-10-08T10:48:19Z</time>
      </trkpt>
      <trkpt lat="41.20726" lon="9.54574">
        <ele>4.46</ele>
        <time>2017-10-08T10:48:29Z</time>
      </trkpt>
      <trkpt lat="41.20703" lon="9.5456">
        <ele>3.98</ele>
        <time>2017-10-08T10:48:38Z</time>
      </trkpt>
      <trkpt lat="41.20677" lon="9.54548">
        <ele>4.94</ele>
        <time>2017-10-08T10:48:48Z</time>
      </trkpt>
      <trkpt lat="41.20673" lon="9.54544">
        <ele>4.46</ele>
        <time>2017-10-08T10:48:50Z</time>
      </trkpt>
      <trkpt lat="41.20647" lon="9.54528">
        <ele>3.5</ele>
        <time>2017-10-08T10:49:00Z</time>
      </trkpt>
      <trkpt lat="41.20643" lon="9.54524">
        <ele>3.5</ele>
        <time>2017-10-08T10:49:02Z</time>
      </trkpt>
      <trkpt lat="41.20633" lon="9.54517">
        <ele>3.02</ele>
        <time>2017-10-08T10:49:06Z</time>
      </trkpt>
      <trkpt lat="41.20601" lon="9.54498">
        <ele>3.5</ele>
        <time>2017-10-08T10:49:18Z</time>
      </trkpt>
      <trkpt lat="41.20577" lon="9.54481">
        <ele>3.5</ele>
        <time>2017-10-08T10:49:27Z</time>
      </trkpt>
      <trkpt lat="41.20544" lon="9.54455">
        <ele>4.46</ele>
        <time>2017-10-08T10:49:39Z</time>
      </trkpt>
      <trkpt lat="41.20519" lon="9.54438">
        <ele>3.98</ele>
        <time>2017-10-08T10:49:48Z</time>
      </trkpt>
      <trkpt lat="41.20503" lon="9.54426">
        <ele>3.98</ele>
        <time>2017-10-08T10:49:54Z</time>
      </trkpt>
      <trkpt lat="41.20489" lon="9.54412">
        <ele>3.5</ele>
        <time>2017-10-08T10:50:00Z</time>
      </trkpt>
      <trkpt lat="41.2047" lon="9.54391">
        <ele>3.5</ele>
        <time>2017-10-08T10:50:09Z</time>
      </trkpt>
      <trkpt lat="41.2046" lon="9.54381">
        <ele>3.5</ele>
        <time>2017-10-08T10:50:14Z</time>
      </trkpt>
      <trkpt lat="41.20438" lon="9.54362">
        <ele>3.98</ele>
        <time>2017-10-08T10:50:24Z</time>
      </trkpt>
      <trkpt lat="41.20412" lon="9.54338">
        <ele>3.5</ele>
        <time>2017-10-08T10:50:35Z</time>
      </trkpt>
      <trkpt lat="41.20391" lon="9.54316">
        <ele>3.5</ele>
        <time>2017-10-08T10:50:45Z</time>
      </trkpt>
      <trkpt lat="41.2037" lon="9.54294">
        <ele>3.02</ele>
        <time>2017-10-08T10:50:55Z</time>
      </trkpt>
      <trkpt lat="41.20356" lon="9.54282">
        <ele>2.54</ele>
        <time>2017-10-08T10:51:01Z</time>
      </trkpt>
      <trkpt lat="41.20334" lon="9.54264">
        <ele>3.02</ele>
        <time>2017-10-08T10:51:10Z</time>
      </trkpt>
      <trkpt lat="41.2032" lon="9.54254">
        <ele>3.5</ele>
        <time>2017-10-08T10:51:15Z</time>
      </trkpt>
      <trkpt lat="41.20288" lon="9.54229">
        <ele>3.5</ele>
        <time>2017-10-08T10:51:27Z</time>
      </trkpt>
      <trkpt lat="41.20262" lon="9.54209">
        <ele>2.54</ele>
        <time>2017-10-08T10:51:37Z</time>
      </trkpt>
      <trkpt lat="41.2024" lon="9.54191">
        <ele>2.54</ele>
        <time>2017-10-08T10:51:46Z</time>
      </trkpt>
      <trkpt lat="41.2021" lon="9.54163">
        <ele>2.54</ele>
        <time>2017-10-08T10:51:58Z</time>
      </trkpt>
      <trkpt lat="41.20182" lon="9.54142">
        <ele>2.06</ele>
        <time>2017-10-08T10:52:09Z</time>
      </trkpt>
      <trkpt lat="41.20156" lon="9.54118">
        <ele>2.54</ele>
        <time>2017-10-08T10:52:20Z</time>
      </trkpt>
      <trkpt lat="41.2012" lon="9.5409">
        <ele>3.02</ele>
        <time>2017-10-08T10:52:35Z</time>
      </trkpt>
      <trkpt lat="41.2009" lon="9.54065">
        <ele>2.54</ele>
        <time>2017-10-08T10:52:49Z</time>
      </trkpt>
      <trkpt lat="41.20062" lon="9.54039">
        <ele>1.58</ele>
        <time>2017-10-08T10:53:02Z</time>
      </trkpt>
      <trkpt lat="41.20037" lon="9.54014">
        <ele>2.06</ele>
        <time>2017-10-08T10:53:14Z</time>
      </trkpt>
      <trkpt lat="41.20027" lon="9.54006">
        <ele>2.06</ele>
        <time>2017-10-08T10:53:19Z</time>
      </trkpt>
      <trkpt lat="41.20007" lon="9.53992">
        <ele>2.06</ele>
        <time>2017-10-08T10:53:30Z</time>
      </trkpt>
      <trkpt lat="41.1998" lon="9.53978">
        <ele>-0.34</ele>
        <time>2017-10-08T10:53:42Z</time>
      </trkpt>
      <trkpt lat="41.1996" lon="9.53959">
        <ele>1.1</ele>
        <time>2017-10-08T10:53:53Z</time>
      </trkpt>
      <trkpt lat="41.19951" lon="9.53951">
        <ele>1.1</ele>
        <time>2017-10-08T10:53:58Z</time>
      </trkpt>
      <trkpt lat="41.19938" lon="9.53945">
        <ele>1.58</ele>
        <time>2017-10-08T10:54:05Z</time>
      </trkpt>
      <trkpt lat="41.19913" lon="9.53936">
        <ele>1.58</ele>
        <time>2017-10-08T10:54:17Z</time>
      </trkpt>
      <trkpt lat="41.19894" lon="9.53927">
        <ele>-0.34</ele>
        <time>2017-10-08T10:54:26Z</time>
      </trkpt>
      <trkpt lat="41.19886" lon="9.53921">
        <ele>0.14</ele>
        <time>2017-10-08T10:54:30Z</time>
      </trkpt>
      <trkpt lat="41.19866" lon="9.53901">
        <ele>1.58</ele>
        <time>2017-10-08T10:54:41Z</time>
      </trkpt>
      <trkpt lat="41.19864" lon="9.539">
        <ele>1.58</ele>
        <time>2017-10-08T10:54:42Z</time>
      </trkpt>
      <trkpt lat="41.19833" lon="9.53877">
        <ele>2.54</ele>
        <time>2017-10-08T10:54:57Z</time>
      </trkpt>
      <trkpt lat="41.19812" lon="9.53855">
        <ele>2.54</ele>
        <time>2017-10-08T10:55:08Z</time>
      </trkpt>
      <trkpt lat="41.19791" lon="9.53834">
        <ele>2.54</ele>
        <time>2017-10-08T10:55:18Z</time>
      </trkpt>
      <trkpt lat="41.19768" lon="9.53811">
        <ele>2.54</ele>
        <time>2017-10-08T10:55:30Z</time>
      </trkpt>
      <trkpt lat="41.19764" lon="9.53808">
        <ele>3.5</ele>
        <time>2017-10-08T10:55:32Z</time>
      </trkpt>
      <trkpt lat="41.19752" lon="9.53795">
        <ele>3.98</ele>
        <time>2017-10-08T10:55:38Z</time>
      </trkpt>
      <trkpt lat="41.19744" lon="9.53787">
        <ele>3.98</ele>
        <time>2017-10-08T10:55:42Z</time>
      </trkpt>
      <trkpt lat="41.19733" lon="9.53773">
        <ele>3.98</ele>
        <time>2017-10-08T10:55:48Z</time>
      </trkpt>
      <trkpt lat="41.19717" lon="9.53752">
        <ele>3.98</ele>
        <time>2017-10-08T10:55:57Z</time>
      </trkpt>
      <trkpt lat="41.197" lon="9.53732">
        <ele>3.5</ele>
        <time>2017-10-08T10:56:06Z</time>
      </trkpt>
      <trkpt lat="41.19688" lon="9.53716">
        <ele>3.98</ele>
        <time>2017-10-08T10:56:13Z</time>
      </trkpt>
      <trkpt lat="41.19669" lon="9.53696">
        <ele>3.5</ele>
        <time>2017-10-08T10:56:23Z</time>
      </trkpt>
      <trkpt lat="41.19664" lon="9.53689">
        <ele>3.5</ele>
        <time>2017-10-08T10:56:26Z</time>
      </trkpt>
      <trkpt lat="41.19647" lon="9.53668">
        <ele>2.54</ele>
        <time>2017-10-08T10:56:37Z</time>
      </trkpt>
      <trkpt lat="41.19629" lon="9.53653">
        <ele>2.06</ele>
        <time>2017-10-08T10:56:47Z</time>
      </trkpt>
      <trkpt lat="41.19608" lon="9.5363">
        <ele>2.06</ele>
        <time>2017-10-08T10:56:58Z</time>
      </trkpt>
      <trkpt lat="41.19591" lon="9.53611">
        <ele>2.54</ele>
        <time>2017-10-08T10:57:08Z</time>
      </trkpt>
      <trkpt lat="41.19574" lon="9.53592">
        <ele>3.02</ele>
        <time>2017-10-08T10:57:20Z</time>
      </trkpt>
      <trkpt lat="41.1956" lon="9.53583">
        <ele>2.54</ele>
        <time>2017-10-08T10:57:28Z</time>
      </trkpt>
      <trkpt lat="41.19536" lon="9.53567">
        <ele>3.98</ele>
        <time>2017-10-08T10:57:41Z</time>
      </trkpt>
      <trkpt lat="41.19525" lon="9.53555">
        <ele>4.46</ele>
        <time>2017-10-08T10:57:49Z</time>
      </trkpt>
      <trkpt lat="41.19512" lon="9.53544">
        <ele>4.46</ele>
        <time>2017-10-08T10:57:57Z</time>
      </trkpt>
      <trkpt lat="41.1949" lon="9.5353">
        <ele>5.42</ele>
        <time>2017-10-08T10:58:09Z</time>
      </trkpt>
      <trkpt lat="41.19488" lon="9.53529">
        <ele>5.42</ele>
        <time>2017-10-08T10:58:10Z</time>
      </trkpt>
      <trkpt lat="41.19479" lon="9.53523">
        <ele>4.94</ele>
        <time>2017-10-08T10:58:15Z</time>
      </trkpt>
      <trkpt lat="41.19451" lon="9.53502">
        <ele>3.98</ele>
        <time>2017-10-08T10:58:30Z</time>
      </trkpt>
      <trkpt lat="41.19433" lon="9.53483">
        <ele>3.98</ele>
        <time>2017-10-08T10:58:42Z</time>
      </trkpt>
      <trkpt lat="41.19417" lon="9.5347">
        <ele>3.5</ele>
        <time>2017-10-08T10:58:53Z</time>
      </trkpt>
      <trkpt lat="41.19408" lon="9.53465">
        <ele>3.98</ele>
        <time>2017-10-08T10:58:58Z</time>
      </trkpt>
      <trkpt lat="41.19394" lon="9.53457">
        <ele>3.98</ele>
        <time>2017-10-08T10:59:06Z</time>
      </trkpt>
      <trkpt lat="41.19363" lon="9.53424">
        <ele>3.98</ele>
        <time>2017-10-08T10:59:24Z</time>
      </trkpt>
      <trkpt lat="41.19359" lon="9.53417">
        <ele>3.5</ele>
        <time>2017-10-08T10:59:27Z</time>
      </trkpt>
      <trkpt lat="41.1934" lon="9.53403">
        <ele>3.98</ele>
        <time>2017-10-08T10:59:38Z</time>
      </trkpt>
      <trkpt lat="41.19321" lon="9.53386">
        <ele>2.54</ele>
        <time>2017-10-08T10:59:48Z</time>
      </trkpt>
      <trkpt lat="41.19306" lon="9.53368">
        <ele>3.02</ele>
        <time>2017-10-08T10:59:57Z</time>
      </trkpt>
      <trkpt lat="41.193" lon="9.53362">
        <ele>3.02</ele>
        <time>2017-10-08T11:00:01Z</time>
      </trkpt>
      <trkpt lat="41.19293" lon="9.53356">
        <ele>3.02</ele>
        <time>2017-10-08T11:00:06Z</time>
      </trkpt>
      <trkpt lat="41.19273" lon="9.53346">
        <ele>3.5</ele>
        <time>2017-10-08T11:00:18Z</time>
      </trkpt>
      <trkpt lat="41.1927" lon="9.53343">
        <ele>3.5</ele>
        <time>2017-10-08T11:00:20Z</time>
      </trkpt>
      <trkpt lat="41.19261" lon="9.53334">
        <ele>3.02</ele>
        <time>2017-10-08T11:00:28Z</time>
      </trkpt>
      <trkpt lat="41.19241" lon="9.53326">
        <ele>1.58</ele>
        <time>2017-10-08T11:00:41Z</time>
      </trkpt>
      <trkpt lat="41.19239" lon="9.53325">
        <ele>2.06</ele>
        <time>2017-10-08T11:00:42Z</time>
      </trkpt>
      <trkpt lat="41.19226" lon="9.53314">
        <ele>1.58</ele>
        <time>2017-10-08T11:00:50Z</time>
      </trkpt>
      <trkpt lat="41.19219" lon="9.53308">
        <ele>2.06</ele>
        <time>2017-10-08T11:00:54Z</time>
      </trkpt>
      <trkpt lat="41.19203" lon="9.53297">
        <ele>1.58</ele>
        <time>2017-10-08T11:01:03Z</time>
      </trkpt>
      <trkpt lat="41.19177" lon="9.53277">
        <ele>3.02</ele>
        <time>2017-10-08T11:01:16Z</time>
      </trkpt>
      <trkpt lat="41.19154" lon="9.53259">
        <ele>2.54</ele>
        <time>2017-10-08T11:01:27Z</time>
      </trkpt>
      <trkpt lat="41.19135" lon="9.5324">
        <ele>2.54</ele>
        <time>2017-10-08T11:01:37Z</time>
      </trkpt>
      <trkpt lat="41.19115" lon="9.53218">
        <ele>2.54</ele>
        <time>2017-10-08T11:01:49Z</time>
      </trkpt>
      <trkpt lat="41.19095" lon="9.53203">
        <ele>3.02</ele>
        <time>2017-10-08T11:01:59Z</time>
      </trkpt>
      <trkpt lat="41.19083" lon="9.53194">
        <ele>3.02</ele>
        <time>2017-10-08T11:02:05Z</time>
      </trkpt>
      <trkpt lat="41.19053" lon="9.53166">
        <ele>3.5</ele>
        <time>2017-10-08T11:02:19Z</time>
      </trkpt>
      <trkpt lat="41.19027" lon="9.53141">
        <ele>3.02</ele>
        <time>2017-10-08T11:02:31Z</time>
      </trkpt>
      <trkpt lat="41.19001" lon="9.53116">
        <ele>3.02</ele>
        <time>2017-10-08T11:02:43Z</time>
      </trkpt>
      <trkpt lat="41.1898" lon="9.53097">
        <ele>2.54</ele>
        <time>2017-10-08T11:02:53Z</time>
      </trkpt>
      <trkpt lat="41.18959" lon="9.53076">
        <ele>3.02</ele>
        <time>2017-10-08T11:03:03Z</time>
      </trkpt>
      <trkpt lat="41.18948" lon="9.53064">
        <ele>2.54</ele>
        <time>2017-10-08T11:03:09Z</time>
      </trkpt>
      <trkpt lat="41.18928" lon="9.5305">
        <ele>2.54</ele>
        <time>2017-10-08T11:03:18Z</time>
      </trkpt>
      <trkpt lat="41.18903" lon="9.53026">
        <ele>2.06</ele>
        <time>2017-10-08T11:03:29Z</time>
      </trkpt>
      <trkpt lat="41.1888" lon="9.53002">
        <ele>3.5</ele>
        <time>2017-10-08T11:03:40Z</time>
      </trkpt>
      <trkpt lat="41.18857" lon="9.52975">
        <ele>3.02</ele>
        <time>2017-10-08T11:03:51Z</time>
      </trkpt>
      <trkpt lat="41.18847" lon="9.52963">
        <ele>3.5</ele>
        <time>2017-10-08T11:03:56Z</time>
      </trkpt>
      <trkpt lat="41.18834" lon="9.5295">
        <ele>3.02</ele>
        <time>2017-10-08T11:04:02Z</time>
      </trkpt>
      <trkpt lat="41.18812" lon="9.52927">
        <ele>3.98</ele>
        <time>2017-10-08T11:04:12Z</time>
      </trkpt>
      <trkpt lat="41.1879" lon="9.52898">
        <ele>3.02</ele>
        <time>2017-10-08T11:04:23Z</time>
      </trkpt>
      <trkpt lat="41.18782" lon="9.52886">
        <ele>3.5</ele>
        <time>2017-10-08T11:04:28Z</time>
      </trkpt>
      <trkpt lat="41.18759" lon="9.52868">
        <ele>2.06</ele>
        <time>2017-10-08T11:04:39Z</time>
      </trkpt>
      <trkpt lat="41.18732" lon="9.52843">
        <ele>2.06</ele>
        <time>2017-10-08T11:04:51Z</time>
      </trkpt>
      <trkpt lat="41.1871" lon="9.52816">
        <ele>2.54</ele>
        <time>2017-10-08T11:05:01Z</time>
      </trkpt>
      <trkpt lat="41.18684" lon="9.52786">
        <ele>2.06</ele>
        <time>2017-10-08T11:05:13Z</time>
      </trkpt>
      <trkpt lat="41.18658" lon="9.52757">
        <ele>1.58</ele>
        <time>2017-10-08T11:05:25Z</time>
      </trkpt>
      <trkpt lat="41.18629" lon="9.52722">
        <ele>2.54</ele>
        <time>2017-10-08T11:05:38Z</time>
      </trkpt>
      <trkpt lat="41.18602" lon="9.52691">
        <ele>3.98</ele>
        <time>2017-10-08T11:05:50Z</time>
      </trkpt>
      <trkpt lat="41.18576" lon="9.52659">
        <ele>3.02</ele>
        <time>2017-10-08T11:06:02Z</time>
      </trkpt>
      <trkpt lat="41.18555" lon="9.52632">
        <ele>2.06</ele>
        <time>2017-10-08T11:06:13Z</time>
      </trkpt>
      <trkpt lat="41.18543" lon="9.52623">
        <ele>2.54</ele>
        <time>2017-10-08T11:06:18Z</time>
      </trkpt>
      <trkpt lat="41.18512" lon="9.52592">
        <ele>3.5</ele>
        <time>2017-10-08T11:06:32Z</time>
      </trkpt>
      <trkpt lat="41.18507" lon="9.52587">
        <ele>3.5</ele>
        <time>2017-10-08T11:06:34Z</time>
      </trkpt>
      <trkpt lat="41.18479" lon="9.52554">
        <ele>4.46</ele>
        <time>2017-10-08T11:06:47Z</time>
      </trkpt>
      <trkpt lat="41.18453" lon="9.52524">
        <ele>4.46</ele>
        <time>2017-10-08T11:06:59Z</time>
      </trkpt>
      <trkpt lat="41.18447" lon="9.52517">
        <ele>4.46</ele>
        <time>2017-10-08T11:07:02Z</time>
      </trkpt>
      <trkpt lat="41.18436" lon="9.52507">
        <ele>4.46</ele>
        <time>2017-10-08T11:07:07Z</time>
      </trkpt>
      <trkpt lat="41.18409" lon="9.52485">
        <ele>4.46</ele>
        <time>2017-10-08T11:07:19Z</time>
      </trkpt>
      <trkpt lat="41.18387" lon="9.52468">
        <ele>4.94</ele>
        <time>2017-10-08T11:07:29Z</time>
      </trkpt>
      <trkpt lat="41.18366" lon="9.52452">
        <ele>5.42</ele>
        <time>2017-10-08T11:07:38Z</time>
      </trkpt>
      <trkpt lat="41.18343" lon="9.52434">
        <ele>5.42</ele>
        <time>2017-10-08T11:07:48Z</time>
      </trkpt>
      <trkpt lat="41.18341" lon="9.52432">
        <ele>4.94</ele>
        <time>2017-10-08T11:07:49Z</time>
      </trkpt>
      <trkpt lat="41.18314" lon="9.52407">
        <ele>4.94</ele>
        <time>2017-10-08T11:08:01Z</time>
      </trkpt>
      <trkpt lat="41.18287" lon="9.52384">
        <ele>4.46</ele>
        <time>2017-10-08T11:08:13Z</time>
      </trkpt>
      <trkpt lat="41.18259" lon="9.5236">
        <ele>4.46</ele>
        <time>2017-10-08T11:08:26Z</time>
      </trkpt>
      <trkpt lat="41.18233" lon="9.52337">
        <ele>3.98</ele>
        <time>2017-10-08T11:08:38Z</time>
      </trkpt>
      <trkpt lat="41.18231" lon="9.52335">
        <ele>3.5</ele>
        <time>2017-10-08T11:08:39Z</time>
      </trkpt>
      <trkpt lat="41.18213" lon="9.52324">
        <ele>2.54</ele>
        <time>2017-10-08T11:08:48Z</time>
      </trkpt>
      <trkpt lat="41.18184" lon="9.52304">
        <ele>2.54</ele>
        <time>2017-10-08T11:09:01Z</time>
      </trkpt>
      <trkpt lat="41.18159" lon="9.52282">
        <ele>3.02</ele>
        <time>2017-10-08T11:09:13Z</time>
      </trkpt>
      <trkpt lat="41.18136" lon="9.52264">
        <ele>2.54</ele>
        <time>2017-10-08T11:09:24Z</time>
      </trkpt>
      <trkpt lat="41.18109" lon="9.52243">
        <ele>3.02</ele>
        <time>2017-10-08T11:09:36Z</time>
      </trkpt>
      <trkpt lat="41.18087" lon="9.52224">
        <ele>2.06</ele>
        <time>2017-10-08T11:09:47Z</time>
      </trkpt>
      <trkpt lat="41.18063" lon="9.52204">
        <ele>0.62</ele>
        <time>2017-10-08T11:09:58Z</time>
      </trkpt>
      <trkpt lat="41.18045" lon="9.52188">
        <ele>-0.82</ele>
        <time>2017-10-08T11:10:06Z</time>
      </trkpt>
      <trkpt lat="41.18042" lon="9.52186">
        <ele>-1.3</ele>
        <time>2017-10-08T11:10:07Z</time>
      </trkpt>
      <trkpt lat="41.18018" lon="9.52165">
        <ele>-3.71</ele>
        <time>2017-10-08T11:10:17Z</time>
      </trkpt>
      <trkpt lat="41.1799" lon="9.52137">
        <ele>-3.23</ele>
        <time>2017-10-08T11:10:28Z</time>
      </trkpt>
      <trkpt lat="41.17967" lon="9.52117">
        <ele>-2.27</ele>
        <time>2017-10-08T11:10:37Z</time>
      </trkpt>
      <trkpt lat="41.17945" lon="9.52097">
        <ele>-2.75</ele>
        <time>2017-10-08T11:10:46Z</time>
      </trkpt>
      <trkpt lat="41.17924" lon="9.52081">
        <ele>-3.71</ele>
        <time>2017-10-08T11:10:54Z</time>
      </trkpt>
      <trkpt lat="41.17903" lon="9.52059">
        <ele>-5.15</ele>
        <time>2017-10-08T11:11:03Z</time>
      </trkpt>
      <trkpt lat="41.1788" lon="9.52036">
        <ele>-2.75</ele>
        <time>2017-10-08T11:11:13Z</time>
      </trkpt>
      <trkpt lat="41.17857" lon="9.52014">
        <ele>-1.79</ele>
        <time>2017-10-08T11:11:23Z</time>
      </trkpt>
      <trkpt lat="41.17832" lon="9.51991">
        <ele>-1.3</ele>
        <time>2017-10-08T11:11:33Z</time>
      </trkpt>
      <trkpt lat="41.17819" lon="9.51977">
        <ele>-1.79</ele>
        <time>2017-10-08T11:11:39Z</time>
      </trkpt>
      <trkpt lat="41.1779" lon="9.51947">
        <ele>-3.71</ele>
        <time>2017-10-08T11:11:52Z</time>
      </trkpt>
      <trkpt lat="41.17754" lon="9.51912">
        <ele>-2.27</ele>
        <time>2017-10-08T11:12:07Z</time>
      </trkpt>
      <trkpt lat="41.17724" lon="9.51881">
        <ele>-1.79</ele>
        <time>2017-10-08T11:12:20Z</time>
      </trkpt>
      <trkpt lat="41.17695" lon="9.51854">
        <ele>-2.27</ele>
        <time>2017-10-08T11:12:35Z</time>
      </trkpt>
      <trkpt lat="41.17672" lon="9.51834">
        <ele>-2.27</ele>
        <time>2017-10-08T11:12:46Z</time>
      </trkpt>
      <trkpt lat="41.1764" lon="9.51805">
        <ele>-1.79</ele>
        <time>2017-10-08T11:12:59Z</time>
      </trkpt>
      <trkpt lat="41.17614" lon="9.51779">
        <ele>-1.79</ele>
        <time>2017-10-08T11:13:11Z</time>
      </trkpt>
      <trkpt lat="41.17583" lon="9.51748">
        <ele>0.14</ele>
        <time>2017-10-08T11:13:24Z</time>
      </trkpt>
      <trkpt lat="41.17559" lon="9.51724">
        <ele>-1.3</ele>
        <time>2017-10-08T11:13:35Z</time>
      </trkpt>
      <trkpt lat="41.17546" lon="9.51711">
        <ele>-1.79</ele>
        <time>2017-10-08T11:13:41Z</time>
      </trkpt>
      <trkpt lat="41.17516" lon="9.51683">
        <ele>-0.82</ele>
        <time>2017-10-08T11:13:55Z</time>
      </trkpt>
      <trkpt lat="41.1748" lon="9.51654">
        <ele>-0.82</ele>
        <time>2017-10-08T11:14:11Z</time>
      </trkpt>
      <trkpt lat="41.17453" lon="9.51637">
        <ele>-1.3</ele>
        <time>2017-10-08T11:14:23Z</time>
      </trkpt>
      <trkpt lat="41.17426" lon="9.51618">
        <ele>-0.82</ele>
        <time>2017-10-08T11:14:34Z</time>
      </trkpt>
      <trkpt lat="41.174" lon="9.51596">
        <ele>-0.34</ele>
        <time>2017-10-08T11:14:45Z</time>
      </trkpt>
      <trkpt lat="41.17372" lon="9.51575">
        <ele>-2.27</ele>
        <time>2017-10-08T11:14:56Z</time>
      </trkpt>
      <trkpt lat="41.17343" lon="9.51548">
        <ele>-1.3</ele>
        <time>2017-10-08T11:15:08Z</time>
      </trkpt>
      <trkpt lat="41.17313" lon="9.51522">
        <ele>-0.82</ele>
        <time>2017-10-08T11:15:21Z</time>
      </trkpt>
      <trkpt lat="41.17286" lon="9.51501">
        <ele>-0.34</ele>
        <time>2017-10-08T11:15:33Z</time>
      </trkpt>
      <trkpt lat="41.17268" lon="9.51481">
        <ele>0.14</ele>
        <time>2017-10-08T11:15:43Z</time>
      </trkpt>
      <trkpt lat="41.17239" lon="9.51459">
        <ele>-0.82</ele>
        <time>2017-10-08T11:15:57Z</time>
      </trkpt>
      <trkpt lat="41.17211" lon="9.51437">
        <ele>-1.3</ele>
        <time>2017-10-08T11:16:09Z</time>
      </trkpt>
      <trkpt lat="41.17174" lon="9.51409">
        <ele>-1.79</ele>
        <time>2017-10-08T11:16:24Z</time>
      </trkpt>
      <trkpt lat="41.17143" lon="9.51383">
        <ele>-0.34</ele>
        <time>2017-10-08T11:16:37Z</time>
      </trkpt>
      <trkpt lat="41.17104" lon="9.51351">
        <ele>0.14</ele>
        <time>2017-10-08T11:16:53Z</time>
      </trkpt>
      <trkpt lat="41.17074" lon="9.5133">
        <ele>-0.82</ele>
        <time>2017-10-08T11:17:05Z</time>
      </trkpt>
      <trkpt lat="41.17036" lon="9.51301">
        <ele>-0.34</ele>
        <time>2017-10-08T11:17:21Z</time>
      </trkpt>
      <trkpt lat="41.16997" lon="9.51277">
        <ele>0.14</ele>
        <time>2017-10-08T11:17:37Z</time>
      </trkpt>
      <trkpt lat="41.16968" lon="9.5126">
        <ele>-0.34</ele>
        <time>2017-10-08T11:17:48Z</time>
      </trkpt>
      <trkpt lat="41.16924" lon="9.51233">
        <ele>-0.34</ele>
        <time>2017-10-08T11:18:03Z</time>
      </trkpt>
      <trkpt lat="41.16884" lon="9.51201">
        <ele>1.1</ele>
        <time>2017-10-08T11:18:17Z</time>
      </trkpt>
      <trkpt lat="41.16853" lon="9.51175">
        <ele>1.1</ele>
        <time>2017-10-08T11:18:30Z</time>
      </trkpt>
      <trkpt lat="41.16818" lon="9.51151">
        <ele>1.1</ele>
        <time>2017-10-08T11:18:45Z</time>
      </trkpt>
      <trkpt lat="41.16794" lon="9.51134">
        <ele>1.1</ele>
        <time>2017-10-08T11:18:55Z</time>
      </trkpt>
      <trkpt lat="41.1676" lon="9.51108">
        <ele>0.14</ele>
        <time>2017-10-08T11:19:09Z</time>
      </trkpt>
      <trkpt lat="41.16728" lon="9.51085">
        <ele>-1.3</ele>
        <time>2017-10-08T11:19:22Z</time>
      </trkpt>
      <trkpt lat="41.16697" lon="9.5106">
        <ele>-2.27</ele>
        <time>2017-10-08T11:19:35Z</time>
      </trkpt>
      <trkpt lat="41.16669" lon="9.51035">
        <ele>-2.75</ele>
        <time>2017-10-08T11:19:47Z</time>
      </trkpt>
      <trkpt lat="41.16633" lon="9.51008">
        <ele>-0.34</ele>
        <time>2017-10-08T11:20:02Z</time>
      </trkpt>
      <trkpt lat="41.16598" lon="9.50983">
        <ele>-0.34</ele>
        <time>2017-10-08T11:20:16Z</time>
      </trkpt>
      <trkpt lat="41.16582" lon="9.50969">
        <ele>0.62</ele>
        <time>2017-10-08T11:20:25Z</time>
      </trkpt>
      <trkpt lat="41.16573" lon="9.50963">
        <ele>0.62</ele>
        <time>2017-10-08T11:20:31Z</time>
      </trkpt>
      <trkpt lat="41.16549" lon="9.50946">
        <ele>1.58</ele>
        <time>2017-10-08T11:20:45Z</time>
      </trkpt>
      <trkpt lat="41.16529" lon="9.50926">
        <ele>1.58</ele>
        <time>2017-10-08T11:20:58Z</time>
      </trkpt>
      <trkpt lat="41.16503" lon="9.50907">
        <ele>0.62</ele>
        <time>2017-10-08T11:21:12Z</time>
      </trkpt>
      <trkpt lat="41.1648" lon="9.50893">
        <ele>-0.34</ele>
        <time>2017-10-08T11:21:22Z</time>
      </trkpt>
      <trkpt lat="41.16442" lon="9.50864">
        <ele>-0.82</ele>
        <time>2017-10-08T11:21:37Z</time>
      </trkpt>
      <trkpt lat="41.16408" lon="9.50838">
        <ele>-0.34</ele>
        <time>2017-10-08T11:21:50Z</time>
      </trkpt>
      <trkpt lat="41.16379" lon="9.50813">
        <ele>-1.3</ele>
        <time>2017-10-08T11:22:02Z</time>
      </trkpt>
      <trkpt lat="41.16344" lon="9.50783">
        <ele>-0.82</ele>
        <time>2017-10-08T11:22:15Z</time>
      </trkpt>
      <trkpt lat="41.16312" lon="9.50756">
        <ele>0.14</ele>
        <time>2017-10-08T11:22:27Z</time>
      </trkpt>
      <trkpt lat="41.16278" lon="9.50722">
        <ele>0.62</ele>
        <time>2017-10-08T11:22:40Z</time>
      </trkpt>
      <trkpt lat="41.16251" lon="9.50695">
        <ele>0.62</ele>
        <time>2017-10-08T11:22:51Z</time>
      </trkpt>
      <trkpt lat="41.16226" lon="9.50663">
        <ele>-0.34</ele>
        <time>2017-10-08T11:23:04Z</time>
      </trkpt>
      <trkpt lat="41.16202" lon="9.50631">
        <ele>0.62</ele>
        <time>2017-10-08T11:23:19Z</time>
      </trkpt>
      <trkpt lat="41.16183" lon="9.50608">
        <ele>0.14</ele>
        <time>2017-10-08T11:23:30Z</time>
      </trkpt>
      <trkpt lat="41.16168" lon="9.50589">
        <ele>0.14</ele>
        <time>2017-10-08T11:23:44Z</time>
      </trkpt>
      <trkpt lat="41.16144" lon="9.50565">
        <ele>-0.34</ele>
        <time>2017-10-08T11:23:58Z</time>
      </trkpt>
      <trkpt lat="41.16121" lon="9.50535">
        <ele>-1.3</ele>
        <time>2017-10-08T11:24:10Z</time>
      </trkpt>
      <trkpt lat="41.16096" lon="9.50511">
        <ele>-1.79</ele>
        <time>2017-10-08T11:24:21Z</time>
      </trkpt>
      <trkpt lat="41.16072" lon="9.50489">
        <ele>-0.34</ele>
        <time>2017-10-08T11:24:32Z</time>
      </trkpt>
      <trkpt lat="41.16044" lon="9.50466">
        <ele>-1.79</ele>
        <time>2017-10-08T11:24:44Z</time>
      </trkpt>
      <trkpt lat="41.1602" lon="9.50443">
        <ele>-0.34</ele>
        <time>2017-10-08T11:24:56Z</time>
      </trkpt>
      <trkpt lat="41.15994" lon="9.5042">
        <ele>0.62</ele>
        <time>2017-10-08T11:25:09Z</time>
      </trkpt>
      <trkpt lat="41.15968" lon="9.504">
        <ele>1.58</ele>
        <time>2017-10-08T11:25:22Z</time>
      </trkpt>
      <trkpt lat="41.15942" lon="9.50376">
        <ele>1.58</ele>
        <time>2017-10-08T11:25:35Z</time>
      </trkpt>
      <trkpt lat="41.15913" lon="9.50353">
        <ele>2.06</ele>
        <time>2017-10-08T11:25:49Z</time>
      </trkpt>
      <trkpt lat="41.15883" lon="9.50326">
        <ele>2.06</ele>
        <time>2017-10-08T11:26:02Z</time>
      </trkpt>
      <trkpt lat="41.15857" lon="9.50304">
        <ele>1.1</ele>
        <time>2017-10-08T11:26:13Z</time>
      </trkpt>
      <trkpt lat="41.15829" lon="9.50279">
        <ele>1.58</ele>
        <time>2017-10-08T11:26:25Z</time>
      </trkpt>
      <trkpt lat="41.15804" lon="9.50253">
        <ele>3.5</ele>
        <time>2017-10-08T11:26:37Z</time>
      </trkpt>
      <trkpt lat="41.15774" lon="9.50221">
        <ele>3.5</ele>
        <time>2017-10-08T11:26:51Z</time>
      </trkpt>
      <trkpt lat="41.15751" lon="9.502">
        <ele>3.02</ele>
        <time>2017-10-08T11:27:02Z</time>
      </trkpt>
      <trkpt lat="41.15726" lon="9.50177">
        <ele>2.54</ele>
        <time>2017-10-08T11:27:15Z</time>
      </trkpt>
      <trkpt lat="41.15696" lon="9.50155">
        <ele>0.14</ele>
        <time>2017-10-08T11:27:30Z</time>
      </trkpt>
      <trkpt lat="41.15669" lon="9.50134">
        <ele>-1.3</ele>
        <time>2017-10-08T11:27:44Z</time>
      </trkpt>
      <trkpt lat="41.15644" lon="9.50115">
        <ele>-1.79</ele>
        <time>2017-10-08T11:27:56Z</time>
      </trkpt>
      <trkpt lat="41.15618" lon="9.50094">
        <ele>-0.34</ele>
        <time>2017-10-08T11:28:07Z</time>
      </trkpt>
      <trkpt lat="41.15618" lon="9.5009">
        <ele>-0.34</ele>
        <time>2017-10-08T11:28:09Z</time>
      </trkpt>
      <trkpt lat="41.15625" lon="9.50087">
        <ele>0.14</ele>
        <time>2017-10-08T11:28:15Z</time>
      </trkpt>
      <trkpt lat="41.15652" lon="9.50096">
        <ele>0.14</ele>
        <time>2017-10-08T11:28:29Z</time>
      </trkpt>
      <trkpt lat="41.1568" lon="9.50099">
        <ele>-0.34</ele>
        <time>2017-10-08T11:28:42Z</time>
      </trkpt>
      <trkpt lat="41.15704" lon="9.5011">
        <ele>-0.34</ele>
        <time>2017-10-08T11:28:53Z</time>
      </trkpt>
      <trkpt lat="41.15706" lon="9.50112">
        <ele>-0.34</ele>
        <time>2017-10-08T11:28:54Z</time>
      </trkpt>
      <trkpt lat="41.15726" lon="9.5013">
        <ele>-0.34</ele>
        <time>2017-10-08T11:29:03Z</time>
      </trkpt>
      <trkpt lat="41.15728" lon="9.50131">
        <ele>-0.34</ele>
        <time>2017-10-08T11:29:04Z</time>
      </trkpt>
      <trkpt lat="41.15741" lon="9.50132">
        <ele>-0.34</ele>
        <time>2017-10-08T11:29:09Z</time>
      </trkpt>
      <trkpt lat="41.15769" lon="9.50141">
        <ele>-1.3</ele>
        <time>2017-10-08T11:29:21Z</time>
      </trkpt>
      <trkpt lat="41.15799" lon="9.50144">
        <ele>-1.79</ele>
        <time>2017-10-08T11:29:33Z</time>
      </trkpt>
      <trkpt lat="41.15816" lon="9.5014">
        <ele>-2.75</ele>
        <time>2017-10-08T11:29:40Z</time>
      </trkpt>
      <trkpt lat="41.15846" lon="9.50133">
        <ele>-2.27</ele>
        <time>2017-10-08T11:29:53Z</time>
      </trkpt>
      <trkpt lat="41.15877" lon="9.50122">
        <ele>-0.82</ele>
        <time>2017-10-08T11:30:06Z</time>
      </trkpt>
      <trkpt lat="41.15916" lon="9.50109">
        <ele>-0.34</ele>
        <time>2017-10-08T11:30:20Z</time>
      </trkpt>
      <trkpt lat="41.15956" lon="9.50091">
        <ele>-0.82</ele>
        <time>2017-10-08T11:30:34Z</time>
      </trkpt>
      <trkpt lat="41.15995" lon="9.50062">
        <ele>0.14</ele>
        <time>2017-10-08T11:30:48Z</time>
      </trkpt>
      <trkpt lat="41.16022" lon="9.50041">
        <ele>-0.34</ele>
        <time>2017-10-08T11:30:59Z</time>
      </trkpt>
      <trkpt lat="41.16051" lon="9.50014">
        <ele>0.14</ele>
        <time>2017-10-08T11:31:13Z</time>
      </trkpt>
      <trkpt lat="41.16085" lon="9.4999">
        <ele>0.62</ele>
        <time>2017-10-08T11:31:28Z</time>
      </trkpt>
      <trkpt lat="41.16119" lon="9.49966">
        <ele>1.1</ele>
        <time>2017-10-08T11:31:41Z</time>
      </trkpt>
      <trkpt lat="41.16155" lon="9.49945">
        <ele>2.06</ele>
        <time>2017-10-08T11:31:54Z</time>
      </trkpt>
      <trkpt lat="41.16191" lon="9.49925">
        <ele>1.1</ele>
        <time>2017-10-08T11:32:06Z</time>
      </trkpt>
      <trkpt lat="41.16226" lon="9.49907">
        <ele>0.62</ele>
        <time>2017-10-08T11:32:18Z</time>
      </trkpt>
      <trkpt lat="41.16257" lon="9.49888">
        <ele>-1.79</ele>
        <time>2017-10-08T11:32:29Z</time>
      </trkpt>
      <trkpt lat="41.16301" lon="9.49862">
        <ele>-3.23</ele>
        <time>2017-10-08T11:32:45Z</time>
      </trkpt>
      <trkpt lat="41.16338" lon="9.49838">
        <ele>-2.27</ele>
        <time>2017-10-08T11:32:59Z</time>
      </trkpt>
      <trkpt lat="41.16369" lon="9.49817">
        <ele>-2.27</ele>
        <time>2017-10-08T11:33:13Z</time>
      </trkpt>
      <trkpt lat="41.164" lon="9.49803">
        <ele>-2.27</ele>
        <time>2017-10-08T11:33:26Z</time>
      </trkpt>
      <trkpt lat="41.16433" lon="9.49789">
        <ele>-1.3</ele>
        <time>2017-10-08T11:33:40Z</time>
      </trkpt>
      <trkpt lat="41.16471" lon="9.49774">
        <ele>-0.82</ele>
        <time>2017-10-08T11:33:54Z</time>
      </trkpt>
      <trkpt lat="41.16508" lon="9.4976">
        <ele>-0.34</ele>
        <time>2017-10-08T11:34:07Z</time>
      </trkpt>
      <trkpt lat="41.1654" lon="9.49746">
        <ele>-1.79</ele>
        <time>2017-10-08T11:34:19Z</time>
      </trkpt>
      <trkpt lat="41.16573" lon="9.49731">
        <ele>-0.34</ele>
        <time>2017-10-08T11:34:33Z</time>
      </trkpt>
      <trkpt lat="41.16607" lon="9.49715">
        <ele>-0.34</ele>
        <time>2017-10-08T11:34:48Z</time>
      </trkpt>
      <trkpt lat="41.16644" lon="9.49697">
        <ele>0.62</ele>
        <time>2017-10-08T11:35:04Z</time>
      </trkpt>
      <trkpt lat="41.16677" lon="9.4968">
        <ele>1.58</ele>
        <time>2017-10-08T11:35:18Z</time>
      </trkpt>
      <trkpt lat="41.16718" lon="9.49655">
        <ele>1.58</ele>
        <time>2017-10-08T11:35:35Z</time>
      </trkpt>
      <trkpt lat="41.16751" lon="9.49634">
        <ele>-0.34</ele>
        <time>2017-10-08T11:35:48Z</time>
      </trkpt>
      <trkpt lat="41.1679" lon="9.49613">
        <ele>-2.27</ele>
        <time>2017-10-08T11:36:02Z</time>
      </trkpt>
      <trkpt lat="41.16826" lon="9.49587">
        <ele>-2.75</ele>
        <time>2017-10-08T11:36:16Z</time>
      </trkpt>
      <trkpt lat="41.16859" lon="9.49567">
        <ele>-3.71</ele>
        <time>2017-10-08T11:36:28Z</time>
      </trkpt>
      <trkpt lat="41.16891" lon="9.49547">
        <ele>-2.27</ele>
        <time>2017-10-08T11:36:39Z</time>
      </trkpt>
      <trkpt lat="41.16926" lon="9.4952">
        <ele>-1.79</ele>
        <time>2017-10-08T11:36:52Z</time>
      </trkpt>
      <trkpt lat="41.16952" lon="9.49502">
        <ele>-0.82</ele>
        <time>2017-10-08T11:37:02Z</time>
      </trkpt>
      <trkpt lat="41.16989" lon="9.49475">
        <ele>-0.34</ele>
        <time>2017-10-08T11:37:16Z</time>
      </trkpt>
      <trkpt lat="41.17034" lon="9.49443">
        <ele>-0.82</ele>
        <time>2017-10-08T11:37:32Z</time>
      </trkpt>
      <trkpt lat="41.17068" lon="9.4942">
        <ele>-0.34</ele>
        <time>2017-10-08T11:37:44Z</time>
      </trkpt>
      <trkpt lat="41.17103" lon="9.49396">
        <ele>-1.3</ele>
        <time>2017-10-08T11:37:57Z</time>
      </trkpt>
      <trkpt lat="41.17136" lon="9.49371">
        <ele>-0.34</ele>
        <time>2017-10-08T11:38:09Z</time>
      </trkpt>
      <trkpt lat="41.17167" lon="9.49346">
        <ele>0.62</ele>
        <time>2017-10-08T11:38:21Z</time>
      </trkpt>
      <trkpt lat="41.17202" lon="9.49321">
        <ele>0.62</ele>
        <time>2017-10-08T11:38:34Z</time>
      </trkpt>
      <trkpt lat="41.17237" lon="9.49308">
        <ele>0.14</ele>
        <time>2017-10-08T11:38:45Z</time>
      </trkpt>
      <trkpt lat="41.17272" lon="9.49299">
        <ele>-0.82</ele>
        <time>2017-10-08T11:38:56Z</time>
      </trkpt>
      <trkpt lat="41.17306" lon="9.49294">
        <ele>0.14</ele>
        <time>2017-10-08T11:39:07Z</time>
      </trkpt>
      <trkpt lat="41.1734" lon="9.49287">
        <ele>1.1</ele>
        <time>2017-10-08T11:39:18Z</time>
      </trkpt>
      <trkpt lat="41.17381" lon="9.4928">
        <ele>1.1</ele>
        <time>2017-10-08T11:39:32Z</time>
      </trkpt>
      <trkpt lat="41.17429" lon="9.49272">
        <ele>0.62</ele>
        <time>2017-10-08T11:39:47Z</time>
      </trkpt>
      <trkpt lat="41.17473" lon="9.49264">
        <ele>0.62</ele>
        <time>2017-10-08T11:40:00Z</time>
      </trkpt>
      <trkpt lat="41.17522" lon="9.49254">
        <ele>0.62</ele>
        <time>2017-10-08T11:40:15Z</time>
      </trkpt>
      <trkpt lat="41.17565" lon="9.49243">
        <ele>1.1</ele>
        <time>2017-10-08T11:40:28Z</time>
      </trkpt>
      <trkpt lat="41.17601" lon="9.4923">
        <ele>0.62</ele>
        <time>2017-10-08T11:40:40Z</time>
      </trkpt>
      <trkpt lat="41.17602" lon="9.49224">
        <ele>0.14</ele>
        <time>2017-10-08T11:40:43Z</time>
      </trkpt>
      <trkpt lat="41.17601" lon="9.49216">
        <ele>0.14</ele>
        <time>2017-10-08T11:40:51Z</time>
      </trkpt>
      <trkpt lat="41.17607" lon="9.49214">
        <ele>0.14</ele>
        <time>2017-10-08T11:40:56Z</time>
      </trkpt>
      <trkpt lat="41.17638" lon="9.49216">
        <ele>-0.82</ele>
        <time>2017-10-08T11:41:10Z</time>
      </trkpt>
      <trkpt lat="41.17674" lon="9.49215">
        <ele>-0.34</ele>
        <time>2017-10-08T11:41:22Z</time>
      </trkpt>
      <trkpt lat="41.17716" lon="9.49204">
        <ele>0.14</ele>
        <time>2017-10-08T11:41:36Z</time>
      </trkpt>
      <trkpt lat="41.17748" lon="9.49193">
        <ele>0.62</ele>
        <time>2017-10-08T11:41:46Z</time>
      </trkpt>
      <trkpt lat="41.17797" lon="9.49194">
        <ele>1.1</ele>
        <time>2017-10-08T11:42:01Z</time>
      </trkpt>
      <trkpt lat="41.17831" lon="9.49188">
        <ele>0.62</ele>
        <time>2017-10-08T11:42:12Z</time>
      </trkpt>
      <trkpt lat="41.17865" lon="9.49186">
        <ele>0.62</ele>
        <time>2017-10-08T11:42:23Z</time>
      </trkpt>
      <trkpt lat="41.17902" lon="9.49182">
        <ele>0.62</ele>
        <time>2017-10-08T11:42:34Z</time>
      </trkpt>
      <trkpt lat="41.17938" lon="9.49178">
        <ele>1.1</ele>
        <time>2017-10-08T11:42:45Z</time>
      </trkpt>
      <trkpt lat="41.17988" lon="9.4917">
        <ele>1.1</ele>
        <time>2017-10-08T11:43:00Z</time>
      </trkpt>
      <trkpt lat="41.18044" lon="9.49164">
        <ele>0.62</ele>
        <time>2017-10-08T11:43:16Z</time>
      </trkpt>
      <trkpt lat="41.18086" lon="9.49159">
        <ele>0.62</ele>
        <time>2017-10-08T11:43:28Z</time>
      </trkpt>
      <trkpt lat="41.18127" lon="9.4915">
        <ele>1.1</ele>
        <time>2017-10-08T11:43:40Z</time>
      </trkpt>
      <trkpt lat="41.18166" lon="9.49144">
        <ele>1.1</ele>
        <time>2017-10-08T11:43:52Z</time>
      </trkpt>
      <trkpt lat="41.18206" lon="9.49142">
        <ele>0.62</ele>
        <time>2017-10-08T11:44:04Z</time>
      </trkpt>
      <trkpt lat="41.18262" lon="9.49137">
        <ele>1.1</ele>
        <time>2017-10-08T11:44:21Z</time>
      </trkpt>
      <trkpt lat="41.18298" lon="9.4913">
        <ele>1.1</ele>
        <time>2017-10-08T11:44:33Z</time>
      </trkpt>
      <trkpt lat="41.18334" lon="9.49118">
        <ele>-0.82</ele>
        <time>2017-10-08T11:44:46Z</time>
      </trkpt>
      <trkpt lat="41.18386" lon="9.491">
        <ele>0.14</ele>
        <time>2017-10-08T11:45:02Z</time>
      </trkpt>
      <trkpt lat="41.18389" lon="9.491">
        <ele>0.14</ele>
        <time>2017-10-08T11:45:03Z</time>
      </trkpt>
      <trkpt lat="41.1843" lon="9.4909">
        <ele>0.14</ele>
        <time>2017-10-08T11:45:16Z</time>
      </trkpt>
      <trkpt lat="41.18477" lon="9.49083">
        <ele>0.62</ele>
        <time>2017-10-08T11:45:31Z</time>
      </trkpt>
      <trkpt lat="41.18521" lon="9.49073">
        <ele>1.1</ele>
        <time>2017-10-08T11:45:45Z</time>
      </trkpt>
      <trkpt lat="41.18555" lon="9.49063">
        <ele>1.58</ele>
        <time>2017-10-08T11:45:56Z</time>
      </trkpt>
      <trkpt lat="41.18607" lon="9.49044">
        <ele>0.62</ele>
        <time>2017-10-08T11:46:13Z</time>
      </trkpt>
      <trkpt lat="41.18645" lon="9.49035">
        <ele>1.1</ele>
        <time>2017-10-08T11:46:25Z</time>
      </trkpt>
      <trkpt lat="41.18688" lon="9.4902">
        <ele>2.54</ele>
        <time>2017-10-08T11:46:38Z</time>
      </trkpt>
      <trkpt lat="41.18741" lon="9.49002">
        <ele>2.54</ele>
        <time>2017-10-08T11:46:54Z</time>
      </trkpt>
      <trkpt lat="41.18793" lon="9.48986">
        <ele>-0.34</ele>
        <time>2017-10-08T11:47:09Z</time>
      </trkpt>
      <trkpt lat="41.1884" lon="9.48972">
        <ele>0.62</ele>
        <time>2017-10-08T11:47:22Z</time>
      </trkpt>
      <trkpt lat="41.18887" lon="9.48959">
        <ele>1.58</ele>
        <time>2017-10-08T11:47:35Z</time>
      </trkpt>
      <trkpt lat="41.18943" lon="9.48942">
        <ele>1.58</ele>
        <time>2017-10-08T11:47:51Z</time>
      </trkpt>
      <trkpt lat="41.19001" lon="9.48919">
        <ele>2.54</ele>
        <time>2017-10-08T11:48:08Z</time>
      </trkpt>
      <trkpt lat="41.19055" lon="9.489">
        <ele>2.06</ele>
        <time>2017-10-08T11:48:24Z</time>
      </trkpt>
      <trkpt lat="41.19094" lon="9.48885">
        <ele>2.06</ele>
        <time>2017-10-08T11:48:36Z</time>
      </trkpt>
      <trkpt lat="41.19142" lon="9.48866">
        <ele>3.02</ele>
        <time>2017-10-08T11:48:50Z</time>
      </trkpt>
      <trkpt lat="41.19193" lon="9.48845">
        <ele>1.58</ele>
        <time>2017-10-08T11:49:06Z</time>
      </trkpt>
      <trkpt lat="41.19249" lon="9.48823">
        <ele>1.58</ele>
        <time>2017-10-08T11:49:22Z</time>
      </trkpt>
      <trkpt lat="41.19299" lon="9.48804">
        <ele>2.06</ele>
        <time>2017-10-08T11:49:37Z</time>
      </trkpt>
      <trkpt lat="41.19352" lon="9.4878">
        <ele>3.5</ele>
        <time>2017-10-08T11:49:53Z</time>
      </trkpt>
      <trkpt lat="41.19405" lon="9.48758">
        <ele>2.06</ele>
        <time>2017-10-08T11:50:09Z</time>
      </trkpt>
      <trkpt lat="41.19454" lon="9.48737">
        <ele>1.1</ele>
        <time>2017-10-08T11:50:24Z</time>
      </trkpt>
      <trkpt lat="41.19504" lon="9.48705">
        <ele>0.62</ele>
        <time>2017-10-08T11:50:39Z</time>
      </trkpt>
      <trkpt lat="41.1954" lon="9.48684">
        <ele>0.14</ele>
        <time>2017-10-08T11:50:51Z</time>
      </trkpt>
      <trkpt lat="41.19577" lon="9.48659">
        <ele>1.1</ele>
        <time>2017-10-08T11:51:05Z</time>
      </trkpt>
      <trkpt lat="41.19611" lon="9.48643">
        <ele>1.1</ele>
        <time>2017-10-08T11:51:18Z</time>
      </trkpt>
      <trkpt lat="41.19655" lon="9.48629">
        <ele>1.58</ele>
        <time>2017-10-08T11:51:35Z</time>
      </trkpt>
      <trkpt lat="41.1969" lon="9.48618">
        <ele>0.14</ele>
        <time>2017-10-08T11:51:49Z</time>
      </trkpt>
      <trkpt lat="41.19718" lon="9.48608">
        <ele>-0.82</ele>
        <time>2017-10-08T11:52:03Z</time>
      </trkpt>
      <trkpt lat="41.19739" lon="9.48603">
        <ele>-1.3</ele>
        <time>2017-10-08T11:52:17Z</time>
      </trkpt>
      <trkpt lat="41.19754" lon="9.486">
        <ele>-0.34</ele>
        <time>2017-10-08T11:52:27Z</time>
      </trkpt>
      <trkpt lat="41.19775" lon="9.48594">
        <ele>-0.82</ele>
        <time>2017-10-08T11:52:39Z</time>
      </trkpt>
      <trkpt lat="41.19792" lon="9.48589">
        <ele>-0.34</ele>
        <time>2017-10-08T11:52:48Z</time>
      </trkpt>
      <trkpt lat="41.19801" lon="9.48587">
        <ele>-1.3</ele>
        <time>2017-10-08T11:52:52Z</time>
      </trkpt>
      <trkpt lat="41.19838" lon="9.48578">
        <ele>-2.27</ele>
        <time>2017-10-08T11:53:10Z</time>
      </trkpt>
      <trkpt lat="41.19866" lon="9.48575">
        <ele>-1.79</ele>
        <time>2017-10-08T11:53:23Z</time>
      </trkpt>
      <trkpt lat="41.19892" lon="9.48571">
        <ele>-1.79</ele>
        <time>2017-10-08T11:53:35Z</time>
      </trkpt>
      <trkpt lat="41.19922" lon="9.48562">
        <ele>-2.75</ele>
        <time>2017-10-08T11:53:50Z</time>
      </trkpt>
      <trkpt lat="41.19948" lon="9.48552">
        <ele>-4.67</ele>
        <time>2017-10-08T11:54:02Z</time>
      </trkpt>
      <trkpt lat="41.1999" lon="9.48536">
        <ele>-4.67</ele>
        <time>2017-10-08T11:54:24Z</time>
      </trkpt>
      <trkpt lat="41.20014" lon="9.48525">
        <ele>-4.19</ele>
        <time>2017-10-08T11:54:34Z</time>
      </trkpt>
      <trkpt lat="41.20039" lon="9.48511">
        <ele>-3.23</ele>
        <time>2017-10-08T11:54:47Z</time>
      </trkpt>
      <trkpt lat="41.20065" lon="9.48494">
        <ele>-0.34</ele>
        <time>2017-10-08T11:55:01Z</time>
      </trkpt>
      <trkpt lat="41.20091" lon="9.48474">
        <ele>0.14</ele>
        <time>2017-10-08T11:55:16Z</time>
      </trkpt>
      <trkpt lat="41.20103" lon="9.48465">
        <ele>0.62</ele>
        <time>2017-10-08T11:55:23Z</time>
      </trkpt>
      <trkpt lat="41.20127" lon="9.48445">
        <ele>1.58</ele>
        <time>2017-10-08T11:55:37Z</time>
      </trkpt>
      <trkpt lat="41.20154" lon="9.48431">
        <ele>2.54</ele>
        <time>2017-10-08T11:55:52Z</time>
      </trkpt>
      <trkpt lat="41.20182" lon="9.48416">
        <ele>5.42</ele>
        <time>2017-10-08T11:56:08Z</time>
      </trkpt>
      <trkpt lat="41.20199" lon="9.48403">
        <ele>4.94</ele>
        <time>2017-10-08T11:56:20Z</time>
      </trkpt>
      <trkpt lat="41.20218" lon="9.48386">
        <ele>3.02</ele>
        <time>2017-10-08T11:56:33Z</time>
      </trkpt>
      <trkpt lat="41.20239" lon="9.4837">
        <ele>1.58</ele>
        <time>2017-10-08T11:56:46Z</time>
      </trkpt>
      <trkpt lat="41.20258" lon="9.48357">
        <ele>2.06</ele>
        <time>2017-10-08T11:56:58Z</time>
      </trkpt>
      <trkpt lat="41.20279" lon="9.48337">
        <ele>2.54</ele>
        <time>2017-10-08T11:57:12Z</time>
      </trkpt>
      <trkpt lat="41.20298" lon="9.48318">
        <ele>2.54</ele>
        <time>2017-10-08T11:57:26Z</time>
      </trkpt>
      <trkpt lat="41.20316" lon="9.48299">
        <ele>2.54</ele>
        <time>2017-10-08T11:57:41Z</time>
      </trkpt>
      <trkpt lat="41.20335" lon="9.48279">
        <ele>0.62</ele>
        <time>2017-10-08T11:57:53Z</time>
      </trkpt>
      <trkpt lat="41.20362" lon="9.48255">
        <ele>-2.75</ele>
        <time>2017-10-08T11:58:10Z</time>
      </trkpt>
      <trkpt lat="41.20382" lon="9.4823">
        <ele>-0.82</ele>
        <time>2017-10-08T11:58:26Z</time>
      </trkpt>
      <trkpt lat="41.20399" lon="9.48208">
        <ele>-1.3</ele>
        <time>2017-10-08T11:58:39Z</time>
      </trkpt>
      <trkpt lat="41.20411" lon="9.48204">
        <ele>-0.82</ele>
        <time>2017-10-08T11:58:46Z</time>
      </trkpt>
      <trkpt lat="41.20411" lon="9.48226">
        <ele>-0.34</ele>
        <time>2017-10-08T11:58:55Z</time>
      </trkpt>
      <trkpt lat="41.20402" lon="9.48232">
        <ele>0.14</ele>
        <time>2017-10-08T11:59:02Z</time>
      </trkpt>
      <trkpt lat="41.2039" lon="9.4824">
        <ele>-0.34</ele>
        <time>2017-10-08T11:59:16Z</time>
      </trkpt>
      <trkpt lat="41.20385" lon="9.48243">
        <ele>-0.82</ele>
        <time>2017-10-08T11:59:24Z</time>
      </trkpt>
      <trkpt lat="41.20374" lon="9.48263">
        <ele>-0.82</ele>
        <time>2017-10-08T11:59:40Z</time>
      </trkpt>
      <trkpt lat="41.20384" lon="9.48278">
        <ele>-0.34</ele>
        <time>2017-10-08T11:59:52Z</time>
      </trkpt>
      <trkpt lat="41.20396" lon="9.48276">
        <ele>0.62</ele>
        <time>2017-10-08T12:00:05Z</time>
      </trkpt>
      <trkpt lat="41.20401" lon="9.48275">
        <ele>-0.34</ele>
        <time>2017-10-08T12:00:10Z</time>
      </trkpt>
      <trkpt lat="41.20418" lon="9.48281">
        <ele>-0.34</ele>
        <time>2017-10-08T12:00:29Z</time>
      </trkpt>
      <trkpt lat="41.20431" lon="9.48287">
        <ele>0.62</ele>
        <time>2017-10-08T12:00:44Z</time>
      </trkpt>
      <trkpt lat="41.20446" lon="9.48296">
        <ele>1.1</ele>
        <time>2017-10-08T12:01:00Z</time>
      </trkpt>
      <trkpt lat="41.20462" lon="9.48307">
        <ele>1.1</ele>
        <time>2017-10-08T12:01:19Z</time>
      </trkpt>
      <trkpt lat="41.20473" lon="9.48313">
        <ele>1.1</ele>
        <time>2017-10-08T12:01:31Z</time>
      </trkpt>
      <trkpt lat="41.20493" lon="9.48312">
        <ele>0.62</ele>
        <time>2017-10-08T12:01:48Z</time>
      </trkpt>
      <trkpt lat="41.20518" lon="9.48296">
        <ele>0.14</ele>
        <time>2017-10-08T12:02:08Z</time>
      </trkpt>
      <trkpt lat="41.20533" lon="9.48277">
        <ele>-0.34</ele>
        <time>2017-10-08T12:02:24Z</time>
      </trkpt>
      <trkpt lat="41.20549" lon="9.48249">
        <ele>-0.34</ele>
        <time>2017-10-08T12:02:43Z</time>
      </trkpt>
      <trkpt lat="41.20557" lon="9.48236">
        <ele>-1.3</ele>
        <time>2017-10-08T12:02:52Z</time>
      </trkpt>
      <trkpt lat="41.20581" lon="9.48221">
        <ele>-1.3</ele>
        <time>2017-10-08T12:03:10Z</time>
      </trkpt>
      <trkpt lat="41.20601" lon="9.48206">
        <ele>-0.82</ele>
        <time>2017-10-08T12:03:25Z</time>
      </trkpt>
      <trkpt lat="41.2061" lon="9.48195">
        <ele>-0.82</ele>
        <time>2017-10-08T12:03:33Z</time>
      </trkpt>
      <trkpt lat="41.20615" lon="9.48189">
        <ele>-0.82</ele>
        <time>2017-10-08T12:03:37Z</time>
      </trkpt>
      <trkpt lat="41.20633" lon="9.48161">
        <ele>-1.79</ele>
        <time>2017-10-08T12:03:56Z</time>
      </trkpt>
      <trkpt lat="41.20642" lon="9.48143">
        <ele>-1.3</ele>
        <time>2017-10-08T12:04:14Z</time>
      </trkpt>
      <trkpt lat="41.20646" lon="9.48125">
        <ele>-0.34</ele>
        <time>2017-10-08T12:04:32Z</time>
      </trkpt>
      <trkpt lat="41.2065" lon="9.48112">
        <ele>-0.82</ele>
        <time>2017-10-08T12:04:49Z</time>
      </trkpt>
      <trkpt lat="41.20654" lon="9.48103">
        <ele>-0.34</ele>
        <time>2017-10-08T12:04:59Z</time>
      </trkpt>
      <trkpt lat="41.20657" lon="9.48088">
        <ele>-0.34</ele>
        <time>2017-10-08T12:05:12Z</time>
      </trkpt>
      <trkpt lat="41.20656" lon="9.48081">
        <ele>-0.82</ele>
        <time>2017-10-08T12:05:16Z</time>
      </trkpt>
      <trkpt lat="41.20654" lon="9.48058">
        <ele>-0.34</ele>
        <time>2017-10-08T12:05:30Z</time>
      </trkpt>
      <trkpt lat="41.2065" lon="9.48029">
        <ele>0.14</ele>
        <time>2017-10-08T12:05:46Z</time>
      </trkpt>
      <trkpt lat="41.20647" lon="9.48012">
        <ele>0.14</ele>
        <time>2017-10-08T12:05:54Z</time>
      </trkpt>
      <trkpt lat="41.20646" lon="9.48006">
        <ele>-0.34</ele>
        <time>2017-10-08T12:05:58Z</time>
      </trkpt>
      <trkpt lat="41.20636" lon="9.47973">
        <ele>0.62</ele>
        <time>2017-10-08T12:06:17Z</time>
      </trkpt>
      <trkpt lat="41.20634" lon="9.47967">
        <ele>1.1</ele>
        <time>2017-10-08T12:06:20Z</time>
      </trkpt>
      <trkpt lat="41.20632" lon="9.47958">
        <ele>2.06</ele>
        <time>2017-10-08T12:06:25Z</time>
      </trkpt>
      <trkpt lat="41.20627" lon="9.47936">
        <ele>2.06</ele>
        <time>2017-10-08T12:06:37Z</time>
      </trkpt>
      <trkpt lat="41.20618" lon="9.47905">
        <ele>2.06</ele>
        <time>2017-10-08T12:06:53Z</time>
      </trkpt>
      <trkpt lat="41.20609" lon="9.47877">
        <ele>2.06</ele>
        <time>2017-10-08T12:07:08Z</time>
      </trkpt>
      <trkpt lat="41.20598" lon="9.47851">
        <ele>1.58</ele>
        <time>2017-10-08T12:07:22Z</time>
      </trkpt>
      <trkpt lat="41.20586" lon="9.47822">
        <ele>1.58</ele>
        <time>2017-10-08T12:07:37Z</time>
      </trkpt>
      <trkpt lat="41.20585" lon="9.47818">
        <ele>1.58</ele>
        <time>2017-10-08T12:07:39Z</time>
      </trkpt>
      <trkpt lat="41.20574" lon="9.4779">
        <ele>0.14</ele>
        <time>2017-10-08T12:07:57Z</time>
      </trkpt>
      <trkpt lat="41.20565" lon="9.47763">
        <ele>0.62</ele>
        <time>2017-10-08T12:08:14Z</time>
      </trkpt>
      <trkpt lat="41.20559" lon="9.47746">
        <ele>0.14</ele>
        <time>2017-10-08T12:08:24Z</time>
      </trkpt>
      <trkpt lat="41.20551" lon="9.47717">
        <ele>-0.34</ele>
        <time>2017-10-08T12:08:39Z</time>
      </trkpt>
      <trkpt lat="41.20539" lon="9.47694">
        <ele>1.58</ele>
        <time>2017-10-08T12:08:56Z</time>
      </trkpt>
      <trkpt lat="41.20529" lon="9.47679">
        <ele>0.14</ele>
        <time>2017-10-08T12:09:11Z</time>
      </trkpt>
      <trkpt lat="41.20525" lon="9.47669">
        <ele>0.14</ele>
        <time>2017-10-08T12:09:21Z</time>
      </trkpt>
      <trkpt lat="41.2052" lon="9.47655">
        <ele>1.58</ele>
        <time>2017-10-08T12:09:38Z</time>
      </trkpt>
      <trkpt lat="41.20517" lon="9.47642">
        <ele>0.62</ele>
        <time>2017-10-08T12:09:56Z</time>
      </trkpt>
      <trkpt lat="41.20514" lon="9.47632">
        <ele>0.62</ele>
        <time>2017-10-08T12:10:14Z</time>
      </trkpt>
      <trkpt lat="41.20511" lon="9.47633">
        <ele>0.62</ele>
        <time>2017-10-08T12:10:29Z</time>
      </trkpt>
      <trkpt lat="41.20509" lon="9.47635">
        <ele>0.62</ele>
        <time>2017-10-08T12:10:50Z</time>
      </trkpt>
      <trkpt lat="41.20511" lon="9.4764">
        <ele>1.1</ele>
        <time>2017-10-08T12:11:08Z</time>
      </trkpt>
      <trkpt lat="41.20514" lon="9.47641">
        <ele>1.58</ele>
        <time>2017-10-08T12:11:24Z</time>
      </trkpt>
      <trkpt lat="41.2052" lon="9.47642">
        <ele>2.06</ele>
        <time>2017-10-08T12:11:45Z</time>
      </trkpt>
      <trkpt lat="41.20521" lon="9.47644">
        <ele>2.54</ele>
        <time>2017-10-08T12:12:05Z</time>
      </trkpt>
      <trkpt lat="41.20521" lon="9.47644">
        <ele>2.06</ele>
        <time>2017-10-08T12:12:27Z</time>
      </trkpt>
      <trkpt lat="41.20521" lon="9.47645">
        <ele>2.06</ele>
        <time>2017-10-08T12:12:44Z</time>
      </trkpt>
      <trkpt lat="41.20519" lon="9.47647">
        <ele>1.58</ele>
        <time>2017-10-08T12:13:03Z</time>
      </trkpt>
      <trkpt lat="41.20517" lon="9.47648">
        <ele>2.06</ele>
        <time>2017-10-08T12:13:19Z</time>
      </trkpt>
      <trkpt lat="41.20516" lon="9.47649">
        <ele>1.58</ele>
        <time>2017-10-08T12:13:35Z</time>
      </trkpt>
      <trkpt lat="41.20515" lon="9.47649">
        <ele>1.58</ele>
        <time>2017-10-08T12:13:52Z</time>
      </trkpt>
      <trkpt lat="41.20514" lon="9.47649">
        <ele>1.58</ele>
        <time>2017-10-08T12:14:09Z</time>
      </trkpt>
      <trkpt lat="41.20513" lon="9.47651">
        <ele>2.06</ele>
        <time>2017-10-08T12:14:34Z</time>
      </trkpt>
      <trkpt lat="41.20513" lon="9.47651">
        <ele>2.06</ele>
        <time>2017-10-08T12:14:49Z</time>
      </trkpt>
      <trkpt lat="41.20514" lon="9.4765">
        <ele>2.06</ele>
        <time>2017-10-08T12:15:05Z</time>
      </trkpt>
      <trkpt lat="41.20514" lon="9.47649">
        <ele>2.06</ele>
        <time>2017-10-08T12:15:20Z</time>
      </trkpt>
      <trkpt lat="41.20514" lon="9.47649">
        <ele>2.06</ele>
        <time>2017-10-08T12:15:21Z</time>
      </trkpt>
      <trkpt lat="41.20516" lon="9.47656">
        <ele>0.62</ele>
        <time>2017-10-08T12:15:34Z</time>
      </trkpt>
      <trkpt lat="41.20516" lon="9.47658">
        <ele>0.14</ele>
        <time>2017-10-08T12:15:43Z</time>
      </trkpt>
      <trkpt lat="41.20599" lon="9.47887">
        <ele>1.58</ele>
        <time>2017-10-08T14:18:58Z</time>
      </trkpt>
      <trkpt lat="41.20611" lon="9.47931">
        <ele>0.62</ele>
        <time>2017-10-08T14:19:16Z</time>
      </trkpt>
      <trkpt lat="41.20621" lon="9.47962">
        <ele>-0.82</ele>
        <time>2017-10-08T14:19:29Z</time>
      </trkpt>
      <trkpt lat="41.20629" lon="9.48012">
        <ele>-0.82</ele>
        <time>2017-10-08T14:19:47Z</time>
      </trkpt>
      <trkpt lat="41.20632" lon="9.48072">
        <ele>0.14</ele>
        <time>2017-10-08T14:20:07Z</time>
      </trkpt>
      <trkpt lat="41.20642" lon="9.48137">
        <ele>-1.3</ele>
        <time>2017-10-08T14:20:29Z</time>
      </trkpt>
      <trkpt lat="41.20648" lon="9.4817">
        <ele>-1.79</ele>
        <time>2017-10-08T14:20:41Z</time>
      </trkpt>
      <trkpt lat="41.20661" lon="9.48234">
        <ele>-0.82</ele>
        <time>2017-10-08T14:21:03Z</time>
      </trkpt>
      <trkpt lat="41.20677" lon="9.48292">
        <ele>1.58</ele>
        <time>2017-10-08T14:21:22Z</time>
      </trkpt>
      <trkpt lat="41.20683" lon="9.48339">
        <ele>2.54</ele>
        <time>2017-10-08T14:21:36Z</time>
      </trkpt>
      <trkpt lat="41.20697" lon="9.48392">
        <ele>2.54</ele>
        <time>2017-10-08T14:21:53Z</time>
      </trkpt>
      <trkpt lat="41.20718" lon="9.48443">
        <ele>2.54</ele>
        <time>2017-10-08T14:22:12Z</time>
      </trkpt>
      <trkpt lat="41.20741" lon="9.48489">
        <ele>2.54</ele>
        <time>2017-10-08T14:22:31Z</time>
      </trkpt>
      <trkpt lat="41.20769" lon="9.48533">
        <ele>1.58</ele>
        <time>2017-10-08T14:22:50Z</time>
      </trkpt>
      <trkpt lat="41.20789" lon="9.48569">
        <ele>0.62</ele>
        <time>2017-10-08T14:23:05Z</time>
      </trkpt>
      <trkpt lat="41.20802" lon="9.48619">
        <ele>0.62</ele>
        <time>2017-10-08T14:23:21Z</time>
      </trkpt>
      <trkpt lat="41.20824" lon="9.48667">
        <ele>2.06</ele>
        <time>2017-10-08T14:23:39Z</time>
      </trkpt>
      <trkpt lat="41.20851" lon="9.48719">
        <ele>1.58</ele>
        <time>2017-10-08T14:23:58Z</time>
      </trkpt>
      <trkpt lat="41.20882" lon="9.48778">
        <ele>1.58</ele>
        <time>2017-10-08T14:24:20Z</time>
      </trkpt>
      <trkpt lat="41.2091" lon="9.48826">
        <ele>0.14</ele>
        <time>2017-10-08T14:24:40Z</time>
      </trkpt>
      <trkpt lat="41.20932" lon="9.48881">
        <ele>0.14</ele>
        <time>2017-10-08T14:25:01Z</time>
      </trkpt>
      <trkpt lat="41.20962" lon="9.48932">
        <ele>0.14</ele>
        <time>2017-10-08T14:25:22Z</time>
      </trkpt>
      <trkpt lat="41.20975" lon="9.48975">
        <ele>0.62</ele>
        <time>2017-10-08T14:25:38Z</time>
      </trkpt>
      <trkpt lat="41.20984" lon="9.49017">
        <ele>0.62</ele>
        <time>2017-10-08T14:25:53Z</time>
      </trkpt>
      <trkpt lat="41.20971" lon="9.49045">
        <ele>-0.82</ele>
        <time>2017-10-08T14:26:06Z</time>
      </trkpt>
      <trkpt lat="41.20954" lon="9.49044">
        <ele>-0.34</ele>
        <time>2017-10-08T14:26:21Z</time>
      </trkpt>
      <trkpt lat="41.20948" lon="9.49044">
        <ele>-0.34</ele>
        <time>2017-10-08T14:26:30Z</time>
      </trkpt>
      <trkpt lat="41.20941" lon="9.49043">
        <ele>0.14</ele>
        <time>2017-10-08T14:26:37Z</time>
      </trkpt>
      <trkpt lat="41.20926" lon="9.49023">
        <ele>1.1</ele>
        <time>2017-10-08T14:26:55Z</time>
      </trkpt>
      <trkpt lat="41.20917" lon="9.49003">
        <ele>1.1</ele>
        <time>2017-10-08T14:27:13Z</time>
      </trkpt>
      <trkpt lat="41.20903" lon="9.48985">
        <ele>0.62</ele>
        <time>2017-10-08T14:27:30Z</time>
      </trkpt>
      <trkpt lat="41.20894" lon="9.48964">
        <ele>-0.34</ele>
        <time>2017-10-08T14:27:45Z</time>
      </trkpt>
      <trkpt lat="41.2088" lon="9.48941">
        <ele>-2.27</ele>
        <time>2017-10-08T14:28:00Z</time>
      </trkpt>
      <trkpt lat="41.20858" lon="9.48931">
        <ele>-0.82</ele>
        <time>2017-10-08T14:28:13Z</time>
      </trkpt>
      <trkpt lat="41.20847" lon="9.48962">
        <ele>0.14</ele>
        <time>2017-10-08T14:28:25Z</time>
      </trkpt>
      <trkpt lat="41.20861" lon="9.48994">
        <ele>-0.34</ele>
        <time>2017-10-08T14:28:39Z</time>
      </trkpt>
      <trkpt lat="41.20878" lon="9.49025">
        <ele>-0.34</ele>
        <time>2017-10-08T14:28:54Z</time>
      </trkpt>
      <trkpt lat="41.20895" lon="9.49055">
        <ele>0.62</ele>
        <time>2017-10-08T14:29:09Z</time>
      </trkpt>
      <trkpt lat="41.20926" lon="9.49105">
        <ele>1.1</ele>
        <time>2017-10-08T14:29:32Z</time>
      </trkpt>
      <trkpt lat="41.20946" lon="9.49136">
        <ele>1.1</ele>
        <time>2017-10-08T14:29:45Z</time>
      </trkpt>
      <trkpt lat="41.20979" lon="9.49176">
        <ele>1.1</ele>
        <time>2017-10-08T14:30:01Z</time>
      </trkpt>
      <trkpt lat="41.21014" lon="9.49219">
        <ele>0.62</ele>
        <time>2017-10-08T14:30:18Z</time>
      </trkpt>
      <trkpt lat="41.2104" lon="9.49264">
        <ele>0.62</ele>
        <time>2017-10-08T14:30:32Z</time>
      </trkpt>
      <trkpt lat="41.21081" lon="9.49307">
        <ele>1.1</ele>
        <time>2017-10-08T14:30:48Z</time>
      </trkpt>
      <trkpt lat="41.211" lon="9.49332">
        <ele>1.1</ele>
        <time>2017-10-08T14:30:57Z</time>
      </trkpt>
      <trkpt lat="41.21129" lon="9.49371">
        <ele>2.54</ele>
        <time>2017-10-08T14:31:11Z</time>
      </trkpt>
      <trkpt lat="41.21166" lon="9.4941">
        <ele>1.58</ele>
        <time>2017-10-08T14:31:27Z</time>
      </trkpt>
      <trkpt lat="41.21205" lon="9.49444">
        <ele>2.06</ele>
        <time>2017-10-08T14:31:42Z</time>
      </trkpt>
      <trkpt lat="41.21262" lon="9.49492">
        <ele>2.06</ele>
        <time>2017-10-08T14:32:03Z</time>
      </trkpt>
      <trkpt lat="41.21314" lon="9.4953">
        <ele>3.02</ele>
        <time>2017-10-08T14:32:21Z</time>
      </trkpt>
      <trkpt lat="41.21366" lon="9.49568">
        <ele>3.5</ele>
        <time>2017-10-08T14:32:40Z</time>
      </trkpt>
      <trkpt lat="41.21404" lon="9.49581">
        <ele>3.02</ele>
        <time>2017-10-08T14:32:53Z</time>
      </trkpt>
      <trkpt lat="41.21451" lon="9.49597">
        <ele>3.02</ele>
        <time>2017-10-08T14:33:09Z</time>
      </trkpt>
      <trkpt lat="41.21489" lon="9.49609">
        <ele>2.06</ele>
        <time>2017-10-08T14:33:22Z</time>
      </trkpt>
      <trkpt lat="41.21493" lon="9.49609">
        <ele>2.06</ele>
        <time>2017-10-08T14:33:23Z</time>
      </trkpt>
      <trkpt lat="41.21502" lon="9.49585">
        <ele>2.54</ele>
        <time>2017-10-08T14:33:32Z</time>
      </trkpt>
      <trkpt lat="41.21509" lon="9.49583">
        <ele>3.02</ele>
        <time>2017-10-08T14:33:35Z</time>
      </trkpt>
      <trkpt lat="41.21553" lon="9.49578">
        <ele>2.54</ele>
        <time>2017-10-08T14:33:50Z</time>
      </trkpt>
      <trkpt lat="41.21612" lon="9.49583">
        <ele>2.54</ele>
        <time>2017-10-08T14:34:08Z</time>
      </trkpt>
      <trkpt lat="41.21662" lon="9.49594">
        <ele>1.58</ele>
        <time>2017-10-08T14:34:23Z</time>
      </trkpt>
      <trkpt lat="41.21722" lon="9.49599">
        <ele>1.1</ele>
        <time>2017-10-08T14:34:40Z</time>
      </trkpt>
      <trkpt lat="41.21769" lon="9.49606">
        <ele>0.62</ele>
        <time>2017-10-08T14:34:54Z</time>
      </trkpt>
      <trkpt lat="41.2182" lon="9.49605">
        <ele>1.1</ele>
        <time>2017-10-08T14:35:10Z</time>
      </trkpt>
      <trkpt lat="41.21872" lon="9.49604">
        <ele>-0.34</ele>
        <time>2017-10-08T14:35:25Z</time>
      </trkpt>
      <trkpt lat="41.21924" lon="9.49598">
        <ele>0.14</ele>
        <time>2017-10-08T14:35:40Z</time>
      </trkpt>
      <trkpt lat="41.21977" lon="9.49588">
        <ele>1.1</ele>
        <time>2017-10-08T14:35:55Z</time>
      </trkpt>
      <trkpt lat="41.22026" lon="9.49582">
        <ele>0.62</ele>
        <time>2017-10-08T14:36:10Z</time>
      </trkpt>
      <trkpt lat="41.2207" lon="9.49577">
        <ele>2.06</ele>
        <time>2017-10-08T14:36:26Z</time>
      </trkpt>
      <trkpt lat="41.22108" lon="9.49573">
        <ele>2.06</ele>
        <time>2017-10-08T14:36:43Z</time>
      </trkpt>
      <trkpt lat="41.22145" lon="9.49568">
        <ele>3.02</ele>
        <time>2017-10-08T14:36:57Z</time>
      </trkpt>
      <trkpt lat="41.2219" lon="9.49551">
        <ele>1.58</ele>
        <time>2017-10-08T14:37:12Z</time>
      </trkpt>
      <trkpt lat="41.22232" lon="9.49544">
        <ele>0.62</ele>
        <time>2017-10-08T14:37:27Z</time>
      </trkpt>
      <trkpt lat="41.22274" lon="9.49533">
        <ele>-1.3</ele>
        <time>2017-10-08T14:37:42Z</time>
      </trkpt>
      <trkpt lat="41.22315" lon="9.49523">
        <ele>0.62</ele>
        <time>2017-10-08T14:37:57Z</time>
      </trkpt>
      <trkpt lat="41.22351" lon="9.49528">
        <ele>-0.34</ele>
        <time>2017-10-08T14:38:12Z</time>
      </trkpt>
      <trkpt lat="41.22379" lon="9.49529">
        <ele>0.14</ele>
        <time>2017-10-08T14:38:25Z</time>
      </trkpt>
      <trkpt lat="41.22405" lon="9.49535">
        <ele>1.1</ele>
        <time>2017-10-08T14:38:40Z</time>
      </trkpt>
      <trkpt lat="41.22433" lon="9.49536">
        <ele>1.1</ele>
        <time>2017-10-08T14:38:58Z</time>
      </trkpt>
      <trkpt lat="41.22464" lon="9.49539">
        <ele>2.06</ele>
        <time>2017-10-08T14:39:12Z</time>
      </trkpt>
      <trkpt lat="41.22501" lon="9.49529">
        <ele>1.1</ele>
        <time>2017-10-08T14:39:24Z</time>
      </trkpt>
      <trkpt lat="41.22547" lon="9.4952">
        <ele>1.1</ele>
        <time>2017-10-08T14:39:40Z</time>
      </trkpt>
      <trkpt lat="41.22591" lon="9.49507">
        <ele>1.1</ele>
        <time>2017-10-08T14:39:57Z</time>
      </trkpt>
      <trkpt lat="41.22626" lon="9.49497">
        <ele>-1.3</ele>
        <time>2017-10-08T14:40:10Z</time>
      </trkpt>
      <trkpt lat="41.2267" lon="9.49479">
        <ele>0.62</ele>
        <time>2017-10-08T14:40:27Z</time>
      </trkpt>
      <trkpt lat="41.22716" lon="9.49458">
        <ele>0.62</ele>
        <time>2017-10-08T14:40:43Z</time>
      </trkpt>
      <trkpt lat="41.22754" lon="9.49434">
        <ele>1.1</ele>
        <time>2017-10-08T14:40:56Z</time>
      </trkpt>
      <trkpt lat="41.22795" lon="9.49411">
        <ele>2.54</ele>
        <time>2017-10-08T14:41:10Z</time>
      </trkpt>
      <trkpt lat="41.22834" lon="9.49393">
        <ele>3.98</ele>
        <time>2017-10-08T14:41:23Z</time>
      </trkpt>
      <trkpt lat="41.22881" lon="9.49364">
        <ele>1.1</ele>
        <time>2017-10-08T14:41:38Z</time>
      </trkpt>
      <trkpt lat="41.22919" lon="9.49341">
        <ele>1.58</ele>
        <time>2017-10-08T14:41:50Z</time>
      </trkpt>
      <trkpt lat="41.22969" lon="9.4932">
        <ele>1.1</ele>
        <time>2017-10-08T14:42:05Z</time>
      </trkpt>
      <trkpt lat="41.23006" lon="9.49303">
        <ele>2.06</ele>
        <time>2017-10-08T14:42:17Z</time>
      </trkpt>
      <trkpt lat="41.23038" lon="9.49279">
        <ele>2.06</ele>
        <time>2017-10-08T14:42:28Z</time>
      </trkpt>
      <trkpt lat="41.23082" lon="9.49253">
        <ele>2.06</ele>
        <time>2017-10-08T14:42:43Z</time>
      </trkpt>
      <trkpt lat="41.2312" lon="9.49237">
        <ele>1.58</ele>
        <time>2017-10-08T14:42:56Z</time>
      </trkpt>
      <trkpt lat="41.23158" lon="9.49216">
        <ele>2.06</ele>
        <time>2017-10-08T14:43:09Z</time>
      </trkpt>
      <trkpt lat="41.23198" lon="9.49187">
        <ele>2.54</ele>
        <time>2017-10-08T14:43:23Z</time>
      </trkpt>
      <trkpt lat="41.23239" lon="9.49157">
        <ele>2.06</ele>
        <time>2017-10-08T14:43:38Z</time>
      </trkpt>
      <trkpt lat="41.23269" lon="9.49137">
        <ele>2.06</ele>
        <time>2017-10-08T14:43:50Z</time>
      </trkpt>
      <trkpt lat="41.23303" lon="9.49124">
        <ele>1.58</ele>
        <time>2017-10-08T14:44:06Z</time>
      </trkpt>
      <trkpt lat="41.23331" lon="9.49114">
        <ele>1.1</ele>
        <time>2017-10-08T14:44:21Z</time>
      </trkpt>
      <trkpt lat="41.2336" lon="9.49099">
        <ele>2.06</ele>
        <time>2017-10-08T14:44:37Z</time>
      </trkpt>
      <trkpt lat="41.23384" lon="9.49089">
        <ele>1.58</ele>
        <time>2017-10-08T14:44:50Z</time>
      </trkpt>
      <trkpt lat="41.23416" lon="9.49071">
        <ele>1.58</ele>
        <time>2017-10-08T14:45:06Z</time>
      </trkpt>
      <trkpt lat="41.23458" lon="9.49054">
        <ele>2.06</ele>
        <time>2017-10-08T14:45:25Z</time>
      </trkpt>
      <trkpt lat="41.23496" lon="9.49045">
        <ele>1.58</ele>
        <time>2017-10-08T14:45:41Z</time>
      </trkpt>
      <trkpt lat="41.23535" lon="9.49036">
        <ele>2.06</ele>
        <time>2017-10-08T14:45:57Z</time>
      </trkpt>
      <trkpt lat="41.23565" lon="9.49028">
        <ele>1.58</ele>
        <time>2017-10-08T14:46:09Z</time>
      </trkpt>
      <trkpt lat="41.23596" lon="9.49021">
        <ele>2.06</ele>
        <time>2017-10-08T14:46:21Z</time>
      </trkpt>
      <trkpt lat="41.2363" lon="9.49012">
        <ele>1.58</ele>
        <time>2017-10-08T14:46:35Z</time>
      </trkpt>
      <trkpt lat="41.23655" lon="9.49003">
        <ele>2.06</ele>
        <time>2017-10-08T14:46:46Z</time>
      </trkpt>
      <trkpt lat="41.23691" lon="9.48994">
        <ele>2.06</ele>
        <time>2017-10-08T14:47:00Z</time>
      </trkpt>
      <trkpt lat="41.23727" lon="9.48983">
        <ele>1.58</ele>
        <time>2017-10-08T14:47:13Z</time>
      </trkpt>
      <trkpt lat="41.23765" lon="9.48971">
        <ele>1.58</ele>
        <time>2017-10-08T14:47:25Z</time>
      </trkpt>
      <trkpt lat="41.23805" lon="9.48957">
        <ele>2.06</ele>
        <time>2017-10-08T14:47:38Z</time>
      </trkpt>
      <trkpt lat="41.23843" lon="9.48936">
        <ele>2.54</ele>
        <time>2017-10-08T14:47:51Z</time>
      </trkpt>
      <trkpt lat="41.23882" lon="9.48916">
        <ele>2.06</ele>
        <time>2017-10-08T14:48:05Z</time>
      </trkpt>
      <trkpt lat="41.23915" lon="9.48909">
        <ele>3.5</ele>
        <time>2017-10-08T14:48:17Z</time>
      </trkpt>
      <trkpt lat="41.23944" lon="9.489">
        <ele>2.54</ele>
        <time>2017-10-08T14:48:26Z</time>
      </trkpt>
      <trkpt lat="41.23982" lon="9.48884">
        <ele>0.62</ele>
        <time>2017-10-08T14:48:39Z</time>
      </trkpt>
      <trkpt lat="41.24019" lon="9.48871">
        <ele>2.06</ele>
        <time>2017-10-08T14:48:52Z</time>
      </trkpt>
      <trkpt lat="41.24053" lon="9.48856">
        <ele>3.5</ele>
        <time>2017-10-08T14:49:04Z</time>
      </trkpt>
      <trkpt lat="41.24094" lon="9.48838">
        <ele>3.5</ele>
        <time>2017-10-08T14:49:19Z</time>
      </trkpt>
      <trkpt lat="41.24133" lon="9.48823">
        <ele>1.58</ele>
        <time>2017-10-08T14:49:35Z</time>
      </trkpt>
      <trkpt lat="41.2416" lon="9.48806">
        <ele>2.54</ele>
        <time>2017-10-08T14:49:48Z</time>
      </trkpt>
      <trkpt lat="41.242" lon="9.48786">
        <ele>2.06</ele>
        <time>2017-10-08T14:50:04Z</time>
      </trkpt>
      <trkpt lat="41.24229" lon="9.48773">
        <ele>1.58</ele>
        <time>2017-10-08T14:50:17Z</time>
      </trkpt>
      <trkpt lat="41.24254" lon="9.48765">
        <ele>3.5</ele>
        <time>2017-10-08T14:50:28Z</time>
      </trkpt>
      <trkpt lat="41.24282" lon="9.4875">
        <ele>4.46</ele>
        <time>2017-10-08T14:50:40Z</time>
      </trkpt>
      <trkpt lat="41.24316" lon="9.48728">
        <ele>2.06</ele>
        <time>2017-10-08T14:50:54Z</time>
      </trkpt>
      <trkpt lat="41.24345" lon="9.48704">
        <ele>0.14</ele>
        <time>2017-10-08T14:51:07Z</time>
      </trkpt>
      <trkpt lat="41.24373" lon="9.48686">
        <ele>-0.34</ele>
        <time>2017-10-08T14:51:21Z</time>
      </trkpt>
      <trkpt lat="41.24394" lon="9.48672">
        <ele>0.62</ele>
        <time>2017-10-08T14:51:34Z</time>
      </trkpt>
      <trkpt lat="41.24423" lon="9.48666">
        <ele>1.58</ele>
        <time>2017-10-08T14:51:49Z</time>
      </trkpt>
      <trkpt lat="41.24454" lon="9.48659">
        <ele>2.06</ele>
        <time>2017-10-08T14:52:02Z</time>
      </trkpt>
      <trkpt lat="41.24478" lon="9.4865">
        <ele>1.58</ele>
        <time>2017-10-08T14:52:11Z</time>
      </trkpt>
      <trkpt lat="41.24507" lon="9.48634">
        <ele>1.58</ele>
        <time>2017-10-08T14:52:23Z</time>
      </trkpt>
      <trkpt lat="41.24537" lon="9.48624">
        <ele>0.14</ele>
        <time>2017-10-08T14:52:35Z</time>
      </trkpt>
      <trkpt lat="41.2457" lon="9.4861">
        <ele>0.14</ele>
        <time>2017-10-08T14:52:49Z</time>
      </trkpt>
      <trkpt lat="41.2461" lon="9.48594">
        <ele>0.62</ele>
        <time>2017-10-08T14:53:03Z</time>
      </trkpt>
      <trkpt lat="41.24641" lon="9.48581">
        <ele>2.06</ele>
        <time>2017-10-08T14:53:14Z</time>
      </trkpt>
      <trkpt lat="41.24673" lon="9.48571">
        <ele>1.1</ele>
        <time>2017-10-08T14:53:25Z</time>
      </trkpt>
      <trkpt lat="41.24707" lon="9.4856">
        <ele>1.58</ele>
        <time>2017-10-08T14:53:36Z</time>
      </trkpt>
      <trkpt lat="41.24746" lon="9.48549">
        <ele>2.54</ele>
        <time>2017-10-08T14:53:47Z</time>
      </trkpt>
      <trkpt lat="41.24792" lon="9.48547">
        <ele>3.02</ele>
        <time>2017-10-08T14:54:00Z</time>
      </trkpt>
      <trkpt lat="41.24833" lon="9.48542">
        <ele>3.02</ele>
        <time>2017-10-08T14:54:12Z</time>
      </trkpt>
      <trkpt lat="41.24877" lon="9.4853">
        <ele>2.06</ele>
        <time>2017-10-08T14:54:25Z</time>
      </trkpt>
      <trkpt lat="41.24917" lon="9.48521">
        <ele>2.06</ele>
        <time>2017-10-08T14:54:37Z</time>
      </trkpt>
      <trkpt lat="41.24955" lon="9.48514">
        <ele>0.62</ele>
        <time>2017-10-08T14:54:49Z</time>
      </trkpt>
      <trkpt lat="41.24987" lon="9.48504">
        <ele>0.14</ele>
        <time>2017-10-08T14:54:59Z</time>
      </trkpt>
      <trkpt lat="41.2502" lon="9.48495">
        <ele>1.1</ele>
        <time>2017-10-08T14:55:09Z</time>
      </trkpt>
      <trkpt lat="41.25058" lon="9.48486">
        <ele>1.1</ele>
        <time>2017-10-08T14:55:20Z</time>
      </trkpt>
      <trkpt lat="41.25092" lon="9.48479">
        <ele>1.1</ele>
        <time>2017-10-08T14:55:30Z</time>
      </trkpt>
      <trkpt lat="41.2513" lon="9.48468">
        <ele>1.1</ele>
        <time>2017-10-08T14:55:42Z</time>
      </trkpt>
      <trkpt lat="41.2517" lon="9.48457">
        <ele>2.54</ele>
        <time>2017-10-08T14:55:54Z</time>
      </trkpt>
      <trkpt lat="41.25202" lon="9.48447">
        <ele>2.54</ele>
        <time>2017-10-08T14:56:04Z</time>
      </trkpt>
      <trkpt lat="41.25233" lon="9.48436">
        <ele>2.54</ele>
        <time>2017-10-08T14:56:14Z</time>
      </trkpt>
      <trkpt lat="41.25263" lon="9.48426">
        <ele>3.02</ele>
        <time>2017-10-08T14:56:24Z</time>
      </trkpt>
      <trkpt lat="41.253" lon="9.48412">
        <ele>3.98</ele>
        <time>2017-10-08T14:56:36Z</time>
      </trkpt>
      <trkpt lat="41.25325" lon="9.48405">
        <ele>4.46</ele>
        <time>2017-10-08T14:56:44Z</time>
      </trkpt>
      <trkpt lat="41.25353" lon="9.48398">
        <ele>3.98</ele>
        <time>2017-10-08T14:56:53Z</time>
      </trkpt>
      <trkpt lat="41.25392" lon="9.48385">
        <ele>1.1</ele>
        <time>2017-10-08T14:57:06Z</time>
      </trkpt>
      <trkpt lat="41.25417" lon="9.48377">
        <ele>1.58</ele>
        <time>2017-10-08T14:57:14Z</time>
      </trkpt>
      <trkpt lat="41.25453" lon="9.48363">
        <ele>1.1</ele>
        <time>2017-10-08T14:57:25Z</time>
      </trkpt>
      <trkpt lat="41.25493" lon="9.48351">
        <ele>-0.34</ele>
        <time>2017-10-08T14:57:38Z</time>
      </trkpt>
      <trkpt lat="41.25522" lon="9.48345">
        <ele>0.14</ele>
        <time>2017-10-08T14:57:47Z</time>
      </trkpt>
      <trkpt lat="41.25554" lon="9.48333">
        <ele>0.62</ele>
        <time>2017-10-08T14:57:58Z</time>
      </trkpt>
      <trkpt lat="41.25583" lon="9.48321">
        <ele>2.54</ele>
        <time>2017-10-08T14:58:07Z</time>
      </trkpt>
      <trkpt lat="41.25611" lon="9.48307">
        <ele>3.5</ele>
        <time>2017-10-08T14:58:17Z</time>
      </trkpt>
      <trkpt lat="41.25637" lon="9.48294">
        <ele>3.98</ele>
        <time>2017-10-08T14:58:27Z</time>
      </trkpt>
      <trkpt lat="41.25672" lon="9.48272">
        <ele>2.06</ele>
        <time>2017-10-08T14:58:41Z</time>
      </trkpt>
      <trkpt lat="41.257" lon="9.48259">
        <ele>1.58</ele>
        <time>2017-10-08T14:58:52Z</time>
      </trkpt>
      <trkpt lat="41.25734" lon="9.48242">
        <ele>1.58</ele>
        <time>2017-10-08T14:59:05Z</time>
      </trkpt>
      <trkpt lat="41.25762" lon="9.48231">
        <ele>1.1</ele>
        <time>2017-10-08T14:59:16Z</time>
      </trkpt>
      <trkpt lat="41.25789" lon="9.48215">
        <ele>0.62</ele>
        <time>2017-10-08T14:59:28Z</time>
      </trkpt>
      <trkpt lat="41.25819" lon="9.48208">
        <ele>0.14</ele>
        <time>2017-10-08T14:59:40Z</time>
      </trkpt>
      <trkpt lat="41.25849" lon="9.48201">
        <ele>0.62</ele>
        <time>2017-10-08T14:59:51Z</time>
      </trkpt>
      <trkpt lat="41.25883" lon="9.48185">
        <ele>1.1</ele>
        <time>2017-10-08T15:00:04Z</time>
      </trkpt>
      <trkpt lat="41.25915" lon="9.48167">
        <ele>1.1</ele>
        <time>2017-10-08T15:00:16Z</time>
      </trkpt>
      <trkpt lat="41.25947" lon="9.48154">
        <ele>4.46</ele>
        <time>2017-10-08T15:00:27Z</time>
      </trkpt>
      <trkpt lat="41.25979" lon="9.48141">
        <ele>4.94</ele>
        <time>2017-10-08T15:00:38Z</time>
      </trkpt>
      <trkpt lat="41.26014" lon="9.4813">
        <ele>3.5</ele>
        <time>2017-10-08T15:00:49Z</time>
      </trkpt>
      <trkpt lat="41.26047" lon="9.4812">
        <ele>2.06</ele>
        <time>2017-10-08T15:00:59Z</time>
      </trkpt>
      <trkpt lat="41.26088" lon="9.48107">
        <ele>1.58</ele>
        <time>2017-10-08T15:01:12Z</time>
      </trkpt>
      <trkpt lat="41.26117" lon="9.48099">
        <ele>2.54</ele>
        <time>2017-10-08T15:01:21Z</time>
      </trkpt>
      <trkpt lat="41.26149" lon="9.48082">
        <ele>2.06</ele>
        <time>2017-10-08T15:01:32Z</time>
      </trkpt>
      <trkpt lat="41.26183" lon="9.48068">
        <ele>4.46</ele>
        <time>2017-10-08T15:01:43Z</time>
      </trkpt>
      <trkpt lat="41.26209" lon="9.48059">
        <ele>5.91</ele>
        <time>2017-10-08T15:01:52Z</time>
      </trkpt>
      <trkpt lat="41.26245" lon="9.48045">
        <ele>5.42</ele>
        <time>2017-10-08T15:02:03Z</time>
      </trkpt>
      <trkpt lat="41.26283" lon="9.48028">
        <ele>4.46</ele>
        <time>2017-10-08T15:02:15Z</time>
      </trkpt>
      <trkpt lat="41.26328" lon="9.48016">
        <ele>5.42</ele>
        <time>2017-10-08T15:02:29Z</time>
      </trkpt>
      <trkpt lat="41.26363" lon="9.48004">
        <ele>6.39</ele>
        <time>2017-10-08T15:02:40Z</time>
      </trkpt>
      <trkpt lat="41.26395" lon="9.47997">
        <ele>5.42</ele>
        <time>2017-10-08T15:02:50Z</time>
      </trkpt>
      <trkpt lat="41.26437" lon="9.47983">
        <ele>4.46</ele>
        <time>2017-10-08T15:03:03Z</time>
      </trkpt>
      <trkpt lat="41.26469" lon="9.4797">
        <ele>4.94</ele>
        <time>2017-10-08T15:03:13Z</time>
      </trkpt>
      <trkpt lat="41.26494" lon="9.47963">
        <ele>5.91</ele>
        <time>2017-10-08T15:03:21Z</time>
      </trkpt>
      <trkpt lat="41.2653" lon="9.47951">
        <ele>5.91</ele>
        <time>2017-10-08T15:03:32Z</time>
      </trkpt>
      <trkpt lat="41.26567" lon="9.4794">
        <ele>6.87</ele>
        <time>2017-10-08T15:03:43Z</time>
      </trkpt>
      <trkpt lat="41.26601" lon="9.47929">
        <ele>8.79</ele>
        <time>2017-10-08T15:03:53Z</time>
      </trkpt>
      <trkpt lat="41.26625" lon="9.47922">
        <ele>9.27</ele>
        <time>2017-10-08T15:04:00Z</time>
      </trkpt>
      <trkpt lat="41.26651" lon="9.47918">
        <ele>7.83</ele>
        <time>2017-10-08T15:04:08Z</time>
      </trkpt>
      <trkpt lat="41.26691" lon="9.47905">
        <ele>7.83</ele>
        <time>2017-10-08T15:04:20Z</time>
      </trkpt>
      <trkpt lat="41.26731" lon="9.47895">
        <ele>7.35</ele>
        <time>2017-10-08T15:04:32Z</time>
      </trkpt>
      <trkpt lat="41.26764" lon="9.47889">
        <ele>4.94</ele>
        <time>2017-10-08T15:04:42Z</time>
      </trkpt>
      <trkpt lat="41.26793" lon="9.47878">
        <ele>4.94</ele>
        <time>2017-10-08T15:04:50Z</time>
      </trkpt>
      <trkpt lat="41.26831" lon="9.47865">
        <ele>1.1</ele>
        <time>2017-10-08T15:05:01Z</time>
      </trkpt>
      <trkpt lat="41.26851" lon="9.47857">
        <ele>0.14</ele>
        <time>2017-10-08T15:05:07Z</time>
      </trkpt>
      <trkpt lat="41.26871" lon="9.47849">
        <ele>0.62</ele>
        <time>2017-10-08T15:05:13Z</time>
      </trkpt>
      <trkpt lat="41.26911" lon="9.47835">
        <ele>-1.3</ele>
        <time>2017-10-08T15:05:25Z</time>
      </trkpt>
      <trkpt lat="41.26947" lon="9.47822">
        <ele>-3.23</ele>
        <time>2017-10-08T15:05:36Z</time>
      </trkpt>
      <trkpt lat="41.26981" lon="9.47812">
        <ele>-4.19</ele>
        <time>2017-10-08T15:05:47Z</time>
      </trkpt>
      <trkpt lat="41.27019" lon="9.47801">
        <ele>-2.75</ele>
        <time>2017-10-08T15:05:58Z</time>
      </trkpt>
      <trkpt lat="41.27049" lon="9.47794">
        <ele>-5.15</ele>
        <time>2017-10-08T15:06:07Z</time>
      </trkpt>
      <trkpt lat="41.2709" lon="9.47785">
        <ele>-5.15</ele>
        <time>2017-10-08T15:06:19Z</time>
      </trkpt>
      <trkpt lat="41.27124" lon="9.47775">
        <ele>-5.63</ele>
        <time>2017-10-08T15:06:30Z</time>
      </trkpt>
      <trkpt lat="41.2715" lon="9.47766">
        <ele>-5.15</ele>
        <time>2017-10-08T15:06:38Z</time>
      </trkpt>
      <trkpt lat="41.2718" lon="9.47755">
        <ele>-4.67</ele>
        <time>2017-10-08T15:06:47Z</time>
      </trkpt>
      <trkpt lat="41.27215" lon="9.47746">
        <ele>-4.19</ele>
        <time>2017-10-08T15:06:57Z</time>
      </trkpt>
      <trkpt lat="41.27244" lon="9.47738">
        <ele>-3.71</ele>
        <time>2017-10-08T15:07:06Z</time>
      </trkpt>
      <trkpt lat="41.2728" lon="9.47726">
        <ele>-3.23</ele>
        <time>2017-10-08T15:07:18Z</time>
      </trkpt>
      <trkpt lat="41.27313" lon="9.47711">
        <ele>-1.79</ele>
        <time>2017-10-08T15:07:28Z</time>
      </trkpt>
      <trkpt lat="41.27348" lon="9.47701">
        <ele>-0.34</ele>
        <time>2017-10-08T15:07:38Z</time>
      </trkpt>
      <trkpt lat="41.27355" lon="9.477">
        <ele>-0.34</ele>
        <time>2017-10-08T15:07:40Z</time>
      </trkpt>
      <trkpt lat="41.27386" lon="9.47689">
        <ele>-1.79</ele>
        <time>2017-10-08T15:07:50Z</time>
      </trkpt>
      <trkpt lat="41.27419" lon="9.47679">
        <ele>-0.82</ele>
        <time>2017-10-08T15:08:00Z</time>
      </trkpt>
      <trkpt lat="41.27436" lon="9.47676">
        <ele>-0.34</ele>
        <time>2017-10-08T15:08:05Z</time>
      </trkpt>
      <trkpt lat="41.27464" lon="9.47675">
        <ele>-0.34</ele>
        <time>2017-10-08T15:08:13Z</time>
      </trkpt>
      <trkpt lat="41.27493" lon="9.47665">
        <ele>0.62</ele>
        <time>2017-10-08T15:08:23Z</time>
      </trkpt>
      <trkpt lat="41.27522" lon="9.4766">
        <ele>0.14</ele>
        <time>2017-10-08T15:08:32Z</time>
      </trkpt>
      <trkpt lat="41.27552" lon="9.47651">
        <ele>-0.82</ele>
        <time>2017-10-08T15:08:41Z</time>
      </trkpt>
      <trkpt lat="41.27582" lon="9.47644">
        <ele>-0.34</ele>
        <time>2017-10-08T15:08:50Z</time>
      </trkpt>
      <trkpt lat="41.27617" lon="9.47639">
        <ele>1.1</ele>
        <time>2017-10-08T15:09:00Z</time>
      </trkpt>
      <trkpt lat="41.27649" lon="9.47637">
        <ele>0.14</ele>
        <time>2017-10-08T15:09:09Z</time>
      </trkpt>
      <trkpt lat="41.27687" lon="9.47633">
        <ele>-1.3</ele>
        <time>2017-10-08T15:09:20Z</time>
      </trkpt>
      <trkpt lat="41.27713" lon="9.47629">
        <ele>-1.79</ele>
        <time>2017-10-08T15:09:28Z</time>
      </trkpt>
      <trkpt lat="41.27741" lon="9.47624">
        <ele>-0.82</ele>
        <time>2017-10-08T15:09:37Z</time>
      </trkpt>
      <trkpt lat="41.27758" lon="9.47624">
        <ele>0.14</ele>
        <time>2017-10-08T15:09:42Z</time>
      </trkpt>
      <trkpt lat="41.27793" lon="9.47613">
        <ele>0.62</ele>
        <time>2017-10-08T15:09:54Z</time>
      </trkpt>
      <trkpt lat="41.27819" lon="9.47604">
        <ele>2.06</ele>
        <time>2017-10-08T15:10:03Z</time>
      </trkpt>
      <trkpt lat="41.27853" lon="9.47592">
        <ele>1.58</ele>
        <time>2017-10-08T15:10:14Z</time>
      </trkpt>
      <trkpt lat="41.27896" lon="9.47588">
        <ele>1.58</ele>
        <time>2017-10-08T15:10:27Z</time>
      </trkpt>
      <trkpt lat="41.27932" lon="9.47593">
        <ele>2.06</ele>
        <time>2017-10-08T15:10:38Z</time>
      </trkpt>
      <trkpt lat="41.27966" lon="9.47599">
        <ele>2.54</ele>
        <time>2017-10-08T15:10:48Z</time>
      </trkpt>
      <trkpt lat="41.28001" lon="9.47611">
        <ele>2.06</ele>
        <time>2017-10-08T15:10:58Z</time>
      </trkpt>
      <trkpt lat="41.28039" lon="9.47625">
        <ele>2.54</ele>
        <time>2017-10-08T15:11:09Z</time>
      </trkpt>
      <trkpt lat="41.28043" lon="9.47625">
        <ele>2.54</ele>
        <time>2017-10-08T15:11:10Z</time>
      </trkpt>
      <trkpt lat="41.28048" lon="9.47623">
        <ele>3.02</ele>
        <time>2017-10-08T15:11:12Z</time>
      </trkpt>
      <trkpt lat="41.28054" lon="9.47611">
        <ele>2.54</ele>
        <time>2017-10-08T15:11:18Z</time>
      </trkpt>
      <trkpt lat="41.28053" lon="9.47605">
        <ele>2.54</ele>
        <time>2017-10-08T15:11:23Z</time>
      </trkpt>
      <trkpt lat="41.28052" lon="9.47603">
        <ele>2.06</ele>
        <time>2017-10-08T15:11:25Z</time>
      </trkpt>
      <trkpt lat="41.2804" lon="9.47601">
        <ele>1.58</ele>
        <time>2017-10-08T15:11:31Z</time>
      </trkpt>
      <trkpt lat="41.28033" lon="9.47597">
        <ele>1.1</ele>
        <time>2017-10-08T15:11:36Z</time>
      </trkpt>
      <trkpt lat="41.28032" lon="9.47592">
        <ele>3.02</ele>
        <time>2017-10-08T15:11:41Z</time>
      </trkpt>
      <trkpt lat="41.28013" lon="9.47584">
        <ele>3.02</ele>
        <time>2017-10-08T15:11:51Z</time>
      </trkpt>
      <trkpt lat="41.28004" lon="9.47574">
        <ele>4.46</ele>
        <time>2017-10-08T15:11:56Z</time>
      </trkpt>
      <trkpt lat="41.27992" lon="9.4756">
        <ele>3.98</ele>
        <time>2017-10-08T15:12:03Z</time>
      </trkpt>
      <trkpt lat="41.27966" lon="9.4754">
        <ele>5.42</ele>
        <time>2017-10-08T15:12:14Z</time>
      </trkpt>
      <trkpt lat="41.27964" lon="9.47537">
        <ele>5.91</ele>
        <time>2017-10-08T15:12:15Z</time>
      </trkpt>
      <trkpt lat="41.27945" lon="9.47518">
        <ele>6.87</ele>
        <time>2017-10-08T15:12:23Z</time>
      </trkpt>
      <trkpt lat="41.27929" lon="9.475">
        <ele>5.42</ele>
        <time>2017-10-08T15:12:31Z</time>
      </trkpt>
      <trkpt lat="41.27928" lon="9.47498">
        <ele>5.91</ele>
        <time>2017-10-08T15:12:32Z</time>
      </trkpt>
      <trkpt lat="41.27906" lon="9.47471">
        <ele>5.91</ele>
        <time>2017-10-08T15:12:48Z</time>
      </trkpt>
      <trkpt lat="41.27898" lon="9.47463">
        <ele>6.39</ele>
        <time>2017-10-08T15:12:53Z</time>
      </trkpt>
      <trkpt lat="41.27883" lon="9.4745">
        <ele>5.91</ele>
        <time>2017-10-08T15:13:01Z</time>
      </trkpt>
      <trkpt lat="41.27864" lon="9.47427">
        <ele>6.87</ele>
        <time>2017-10-08T15:13:12Z</time>
      </trkpt>
      <trkpt lat="41.27842" lon="9.47403">
        <ele>5.91</ele>
        <time>2017-10-08T15:13:24Z</time>
      </trkpt>
      <trkpt lat="41.27828" lon="9.47383">
        <ele>4.94</ele>
        <time>2017-10-08T15:13:33Z</time>
      </trkpt>
      <trkpt lat="41.27813" lon="9.47365">
        <ele>6.87</ele>
        <time>2017-10-08T15:13:44Z</time>
      </trkpt>
      <trkpt lat="41.27794" lon="9.47344">
        <ele>6.39</ele>
        <time>2017-10-08T15:13:54Z</time>
      </trkpt>
      <trkpt lat="41.27774" lon="9.47315">
        <ele>7.83</ele>
        <time>2017-10-08T15:14:05Z</time>
      </trkpt>
      <trkpt lat="41.27761" lon="9.47295">
        <ele>8.31</ele>
        <time>2017-10-08T15:14:14Z</time>
      </trkpt>
      <trkpt lat="41.27753" lon="9.47288">
        <ele>8.31</ele>
        <time>2017-10-08T15:14:18Z</time>
      </trkpt>
      <trkpt lat="41.27728" lon="9.47264">
        <ele>7.83</ele>
        <time>2017-10-08T15:14:29Z</time>
      </trkpt>
      <trkpt lat="41.27711" lon="9.47243">
        <ele>7.35</ele>
        <time>2017-10-08T15:14:38Z</time>
      </trkpt>
      <trkpt lat="41.27692" lon="9.47218">
        <ele>6.87</ele>
        <time>2017-10-08T15:14:49Z</time>
      </trkpt>
      <trkpt lat="41.27687" lon="9.47212">
        <ele>7.35</ele>
        <time>2017-10-08T15:14:52Z</time>
      </trkpt>
      <trkpt lat="41.27667" lon="9.47193">
        <ele>6.39</ele>
        <time>2017-10-08T15:15:03Z</time>
      </trkpt>
      <trkpt lat="41.27651" lon="9.47173">
        <ele>6.39</ele>
        <time>2017-10-08T15:15:13Z</time>
      </trkpt>
      <trkpt lat="41.27639" lon="9.47166">
        <ele>7.35</ele>
        <time>2017-10-08T15:15:18Z</time>
      </trkpt>
      <trkpt lat="41.27634" lon="9.47164">
        <ele>7.83</ele>
        <time>2017-10-08T15:15:20Z</time>
      </trkpt>
      <trkpt lat="41.27607" lon="9.47139">
        <ele>7.35</ele>
        <time>2017-10-08T15:15:31Z</time>
      </trkpt>
      <trkpt lat="41.27571" lon="9.47105">
        <ele>4.94</ele>
        <time>2017-10-08T15:15:44Z</time>
      </trkpt>
      <trkpt lat="41.27547" lon="9.47078">
        <ele>6.39</ele>
        <time>2017-10-08T15:15:54Z</time>
      </trkpt>
      <trkpt lat="41.27522" lon="9.47054">
        <ele>7.35</ele>
        <time>2017-10-08T15:16:04Z</time>
      </trkpt>
      <trkpt lat="41.27489" lon="9.47022">
        <ele>8.79</ele>
        <time>2017-10-08T15:16:17Z</time>
      </trkpt>
      <trkpt lat="41.27461" lon="9.46997">
        <ele>8.79</ele>
        <time>2017-10-08T15:16:27Z</time>
      </trkpt>
      <trkpt lat="41.2744" lon="9.46974">
        <ele>9.75</ele>
        <time>2017-10-08T15:16:35Z</time>
      </trkpt>
      <trkpt lat="41.27404" lon="9.46941">
        <ele>8.31</ele>
        <time>2017-10-08T15:16:47Z</time>
      </trkpt>
      <trkpt lat="41.27377" lon="9.46914">
        <ele>8.79</ele>
        <time>2017-10-08T15:16:57Z</time>
      </trkpt>
      <trkpt lat="41.27371" lon="9.46908">
        <ele>8.31</ele>
        <time>2017-10-08T15:16:59Z</time>
      </trkpt>
      <trkpt lat="41.27339" lon="9.4688">
        <ele>7.35</ele>
        <time>2017-10-08T15:17:10Z</time>
      </trkpt>
      <trkpt lat="41.27309" lon="9.46848">
        <ele>6.87</ele>
        <time>2017-10-08T15:17:21Z</time>
      </trkpt>
      <trkpt lat="41.27276" lon="9.46817">
        <ele>6.87</ele>
        <time>2017-10-08T15:17:33Z</time>
      </trkpt>
      <trkpt lat="41.27244" lon="9.4679">
        <ele>7.35</ele>
        <time>2017-10-08T15:17:44Z</time>
      </trkpt>
      <trkpt lat="41.27226" lon="9.46769">
        <ele>7.35</ele>
        <time>2017-10-08T15:17:51Z</time>
      </trkpt>
      <trkpt lat="41.27194" lon="9.46739">
        <ele>7.83</ele>
        <time>2017-10-08T15:18:02Z</time>
      </trkpt>
      <trkpt lat="41.27168" lon="9.4671">
        <ele>6.87</ele>
        <time>2017-10-08T15:18:12Z</time>
      </trkpt>
      <trkpt lat="41.27138" lon="9.4668">
        <ele>7.35</ele>
        <time>2017-10-08T15:18:23Z</time>
      </trkpt>
      <trkpt lat="41.27106" lon="9.46646">
        <ele>6.87</ele>
        <time>2017-10-08T15:18:34Z</time>
      </trkpt>
      <trkpt lat="41.271" lon="9.4664">
        <ele>6.87</ele>
        <time>2017-10-08T15:18:36Z</time>
      </trkpt>
      <trkpt lat="41.27089" lon="9.46628">
        <ele>5.91</ele>
        <time>2017-10-08T15:18:40Z</time>
      </trkpt>
      <trkpt lat="41.27079" lon="9.46613">
        <ele>5.91</ele>
        <time>2017-10-08T15:18:44Z</time>
      </trkpt>
      <trkpt lat="41.27045" lon="9.46584">
        <ele>6.39</ele>
        <time>2017-10-08T15:18:55Z</time>
      </trkpt>
      <trkpt lat="41.2701" lon="9.46562">
        <ele>6.87</ele>
        <time>2017-10-08T15:19:06Z</time>
      </trkpt>
      <trkpt lat="41.27" lon="9.46551">
        <ele>6.87</ele>
        <time>2017-10-08T15:19:10Z</time>
      </trkpt>
      <trkpt lat="41.26989" lon="9.46539">
        <ele>6.39</ele>
        <time>2017-10-08T15:19:15Z</time>
      </trkpt>
      <trkpt lat="41.26957" lon="9.46511">
        <ele>6.39</ele>
        <time>2017-10-08T15:19:27Z</time>
      </trkpt>
      <trkpt lat="41.26928" lon="9.46485">
        <ele>6.87</ele>
        <time>2017-10-08T15:19:38Z</time>
      </trkpt>
      <trkpt lat="41.26893" lon="9.46451">
        <ele>6.39</ele>
        <time>2017-10-08T15:19:52Z</time>
      </trkpt>
      <trkpt lat="41.26868" lon="9.46433">
        <ele>6.39</ele>
        <time>2017-10-08T15:20:01Z</time>
      </trkpt>
      <trkpt lat="41.26858" lon="9.46424">
        <ele>6.87</ele>
        <time>2017-10-08T15:20:05Z</time>
      </trkpt>
      <trkpt lat="41.26826" lon="9.46396">
        <ele>7.35</ele>
        <time>2017-10-08T15:20:17Z</time>
      </trkpt>
      <trkpt lat="41.26803" lon="9.46373">
        <ele>5.91</ele>
        <time>2017-10-08T15:20:26Z</time>
      </trkpt>
      <trkpt lat="41.26777" lon="9.46346">
        <ele>5.42</ele>
        <time>2017-10-08T15:20:37Z</time>
      </trkpt>
      <trkpt lat="41.26751" lon="9.4632">
        <ele>5.91</ele>
        <time>2017-10-08T15:20:47Z</time>
      </trkpt>
      <trkpt lat="41.26729" lon="9.46296">
        <ele>5.42</ele>
        <time>2017-10-08T15:20:56Z</time>
      </trkpt>
      <trkpt lat="41.26708" lon="9.46274">
        <ele>6.87</ele>
        <time>2017-10-08T15:21:05Z</time>
      </trkpt>
      <trkpt lat="41.2668" lon="9.46252">
        <ele>5.91</ele>
        <time>2017-10-08T15:21:15Z</time>
      </trkpt>
      <trkpt lat="41.2665" lon="9.46225">
        <ele>6.39</ele>
        <time>2017-10-08T15:21:27Z</time>
      </trkpt>
      <trkpt lat="41.26621" lon="9.46203">
        <ele>6.39</ele>
        <time>2017-10-08T15:21:38Z</time>
      </trkpt>
      <trkpt lat="41.26612" lon="9.46196">
        <ele>6.39</ele>
        <time>2017-10-08T15:21:41Z</time>
      </trkpt>
      <trkpt lat="41.26595" lon="9.46183">
        <ele>5.91</ele>
        <time>2017-10-08T15:21:47Z</time>
      </trkpt>
      <trkpt lat="41.26562" lon="9.46162">
        <ele>6.39</ele>
        <time>2017-10-08T15:21:58Z</time>
      </trkpt>
      <trkpt lat="41.26546" lon="9.46147">
        <ele>4.46</ele>
        <time>2017-10-08T15:22:04Z</time>
      </trkpt>
      <trkpt lat="41.26511" lon="9.46114">
        <ele>4.46</ele>
        <time>2017-10-08T15:22:17Z</time>
      </trkpt>
      <trkpt lat="41.26486" lon="9.46089">
        <ele>3.98</ele>
        <time>2017-10-08T15:22:26Z</time>
      </trkpt>
      <trkpt lat="41.26452" lon="9.46061">
        <ele>3.98</ele>
        <time>2017-10-08T15:22:38Z</time>
      </trkpt>
      <trkpt lat="41.26437" lon="9.46044">
        <ele>3.5</ele>
        <time>2017-10-08T15:22:44Z</time>
      </trkpt>
      <trkpt lat="41.26412" lon="9.46022">
        <ele>3.98</ele>
        <time>2017-10-08T15:22:53Z</time>
      </trkpt>
      <trkpt lat="41.26382" lon="9.46">
        <ele>3.98</ele>
        <time>2017-10-08T15:23:03Z</time>
      </trkpt>
      <trkpt lat="41.26352" lon="9.45974">
        <ele>4.46</ele>
        <time>2017-10-08T15:23:13Z</time>
      </trkpt>
      <trkpt lat="41.26319" lon="9.4595">
        <ele>5.42</ele>
        <time>2017-10-08T15:23:24Z</time>
      </trkpt>
      <trkpt lat="41.26276" lon="9.45919">
        <ele>5.42</ele>
        <time>2017-10-08T15:23:38Z</time>
      </trkpt>
      <trkpt lat="41.26263" lon="9.45911">
        <ele>5.91</ele>
        <time>2017-10-08T15:23:42Z</time>
      </trkpt>
      <trkpt lat="41.26216" lon="9.45873">
        <ele>6.39</ele>
        <time>2017-10-08T15:23:58Z</time>
      </trkpt>
      <trkpt lat="41.26183" lon="9.45848">
        <ele>6.87</ele>
        <time>2017-10-08T15:24:09Z</time>
      </trkpt>
      <trkpt lat="41.2615" lon="9.4581">
        <ele>6.39</ele>
        <time>2017-10-08T15:24:22Z</time>
      </trkpt>
      <trkpt lat="41.26114" lon="9.45775">
        <ele>4.94</ele>
        <time>2017-10-08T15:24:35Z</time>
      </trkpt>
      <trkpt lat="41.26081" lon="9.45739">
        <ele>4.94</ele>
        <time>2017-10-08T15:24:48Z</time>
      </trkpt>
      <trkpt lat="41.26052" lon="9.45706">
        <ele>4.94</ele>
        <time>2017-10-08T15:25:00Z</time>
      </trkpt>
      <trkpt lat="41.26013" lon="9.45678">
        <ele>5.42</ele>
        <time>2017-10-08T15:25:14Z</time>
      </trkpt>
      <trkpt lat="41.25986" lon="9.45649">
        <ele>4.94</ele>
        <time>2017-10-08T15:25:25Z</time>
      </trkpt>
      <trkpt lat="41.25947" lon="9.45605">
        <ele>4.46</ele>
        <time>2017-10-08T15:25:41Z</time>
      </trkpt>
      <trkpt lat="41.25918" lon="9.45574">
        <ele>3.98</ele>
        <time>2017-10-08T15:25:53Z</time>
      </trkpt>
      <trkpt lat="41.25885" lon="9.45551">
        <ele>4.46</ele>
        <time>2017-10-08T15:26:06Z</time>
      </trkpt>
      <trkpt lat="41.25853" lon="9.45527">
        <ele>4.46</ele>
        <time>2017-10-08T15:26:17Z</time>
      </trkpt>
      <trkpt lat="41.2582" lon="9.45497">
        <ele>5.42</ele>
        <time>2017-10-08T15:26:29Z</time>
      </trkpt>
      <trkpt lat="41.25785" lon="9.45467">
        <ele>4.46</ele>
        <time>2017-10-08T15:26:41Z</time>
      </trkpt>
      <trkpt lat="41.25759" lon="9.45441">
        <ele>4.94</ele>
        <time>2017-10-08T15:26:51Z</time>
      </trkpt>
      <trkpt lat="41.25725" lon="9.45413">
        <ele>4.46</ele>
        <time>2017-10-08T15:27:02Z</time>
      </trkpt>
      <trkpt lat="41.25694" lon="9.45381">
        <ele>4.94</ele>
        <time>2017-10-08T15:27:14Z</time>
      </trkpt>
      <trkpt lat="41.25662" lon="9.45341">
        <ele>3.5</ele>
        <time>2017-10-08T15:27:27Z</time>
      </trkpt>
      <trkpt lat="41.25631" lon="9.45308">
        <ele>3.98</ele>
        <time>2017-10-08T15:27:39Z</time>
      </trkpt>
      <trkpt lat="41.25613" lon="9.45287">
        <ele>3.98</ele>
        <time>2017-10-08T15:27:46Z</time>
      </trkpt>
      <trkpt lat="41.25577" lon="9.45253">
        <ele>3.98</ele>
        <time>2017-10-08T15:27:59Z</time>
      </trkpt>
      <trkpt lat="41.25547" lon="9.45221">
        <ele>3.98</ele>
        <time>2017-10-08T15:28:10Z</time>
      </trkpt>
      <trkpt lat="41.25513" lon="9.45194">
        <ele>3.5</ele>
        <time>2017-10-08T15:28:21Z</time>
      </trkpt>
      <trkpt lat="41.25476" lon="9.45159">
        <ele>3.98</ele>
        <time>2017-10-08T15:28:34Z</time>
      </trkpt>
      <trkpt lat="41.25446" lon="9.45137">
        <ele>3.98</ele>
        <time>2017-10-08T15:28:44Z</time>
      </trkpt>
      <trkpt lat="41.25414" lon="9.4511">
        <ele>4.46</ele>
        <time>2017-10-08T15:28:55Z</time>
      </trkpt>
      <trkpt lat="41.25379" lon="9.4508">
        <ele>4.46</ele>
        <time>2017-10-08T15:29:07Z</time>
      </trkpt>
      <trkpt lat="41.25339" lon="9.45044">
        <ele>4.46</ele>
        <time>2017-10-08T15:29:21Z</time>
      </trkpt>
      <trkpt lat="41.25297" lon="9.45011">
        <ele>3.02</ele>
        <time>2017-10-08T15:29:35Z</time>
      </trkpt>
      <trkpt lat="41.25262" lon="9.44984">
        <ele>3.5</ele>
        <time>2017-10-08T15:29:46Z</time>
      </trkpt>
      <trkpt lat="41.25225" lon="9.44961">
        <ele>3.98</ele>
        <time>2017-10-08T15:29:58Z</time>
      </trkpt>
      <trkpt lat="41.25187" lon="9.44932">
        <ele>3.98</ele>
        <time>2017-10-08T15:30:11Z</time>
      </trkpt>
      <trkpt lat="41.25139" lon="9.44902">
        <ele>5.42</ele>
        <time>2017-10-08T15:30:26Z</time>
      </trkpt>
      <trkpt lat="41.25103" lon="9.44875">
        <ele>5.42</ele>
        <time>2017-10-08T15:30:38Z</time>
      </trkpt>
      <trkpt lat="41.25061" lon="9.44851">
        <ele>4.46</ele>
        <time>2017-10-08T15:30:51Z</time>
      </trkpt>
      <trkpt lat="41.25026" lon="9.44825">
        <ele>4.46</ele>
        <time>2017-10-08T15:31:03Z</time>
      </trkpt>
      <trkpt lat="41.24982" lon="9.44805">
        <ele>4.46</ele>
        <time>2017-10-08T15:31:17Z</time>
      </trkpt>
      <trkpt lat="41.24933" lon="9.44777">
        <ele>3.02</ele>
        <time>2017-10-08T15:31:32Z</time>
      </trkpt>
      <trkpt lat="41.24887" lon="9.4476">
        <ele>2.06</ele>
        <time>2017-10-08T15:31:46Z</time>
      </trkpt>
      <trkpt lat="41.24837" lon="9.44735">
        <ele>1.58</ele>
        <time>2017-10-08T15:32:01Z</time>
      </trkpt>
      <trkpt lat="41.24793" lon="9.44713">
        <ele>2.54</ele>
        <time>2017-10-08T15:32:14Z</time>
      </trkpt>
      <trkpt lat="41.24749" lon="9.44684">
        <ele>3.02</ele>
        <time>2017-10-08T15:32:28Z</time>
      </trkpt>
      <trkpt lat="41.24704" lon="9.44655">
        <ele>3.02</ele>
        <time>2017-10-08T15:32:44Z</time>
      </trkpt>
      <trkpt lat="41.24667" lon="9.44636">
        <ele>3.5</ele>
        <time>2017-10-08T15:32:57Z</time>
      </trkpt>
      <trkpt lat="41.2464" lon="9.44621">
        <ele>3.98</ele>
        <time>2017-10-08T15:33:07Z</time>
      </trkpt>
      <trkpt lat="41.24607" lon="9.44606">
        <ele>2.54</ele>
        <time>2017-10-08T15:33:19Z</time>
      </trkpt>
      <trkpt lat="41.24577" lon="9.44585">
        <ele>3.02</ele>
        <time>2017-10-08T15:33:31Z</time>
      </trkpt>
      <trkpt lat="41.24569" lon="9.4458">
        <ele>3.02</ele>
        <time>2017-10-08T15:33:34Z</time>
      </trkpt>
      <trkpt lat="41.24544" lon="9.44565">
        <ele>3.98</ele>
        <time>2017-10-08T15:33:43Z</time>
      </trkpt>
      <trkpt lat="41.24518" lon="9.44546">
        <ele>3.02</ele>
        <time>2017-10-08T15:33:52Z</time>
      </trkpt>
      <trkpt lat="41.24489" lon="9.44532">
        <ele>2.06</ele>
        <time>2017-10-08T15:34:03Z</time>
      </trkpt>
      <trkpt lat="41.24463" lon="9.44512">
        <ele>2.54</ele>
        <time>2017-10-08T15:34:14Z</time>
      </trkpt>
      <trkpt lat="41.24461" lon="9.4451">
        <ele>2.54</ele>
        <time>2017-10-08T15:34:15Z</time>
      </trkpt>
      <trkpt lat="41.24428" lon="9.44484">
        <ele>2.54</ele>
        <time>2017-10-08T15:34:27Z</time>
      </trkpt>
      <trkpt lat="41.24404" lon="9.44454">
        <ele>3.5</ele>
        <time>2017-10-08T15:34:37Z</time>
      </trkpt>
      <trkpt lat="41.24389" lon="9.44437">
        <ele>3.02</ele>
        <time>2017-10-08T15:34:43Z</time>
      </trkpt>
      <trkpt lat="41.24396" lon="9.44417">
        <ele>1.1</ele>
        <time>2017-10-08T15:34:54Z</time>
      </trkpt>
      <trkpt lat="41.24401" lon="9.44415">
        <ele>1.58</ele>
        <time>2017-10-08T15:34:57Z</time>
      </trkpt>
      <trkpt lat="41.24427" lon="9.44401">
        <ele>0.62</ele>
        <time>2017-10-08T15:35:10Z</time>
      </trkpt>
      <trkpt lat="41.24451" lon="9.44389">
        <ele>1.58</ele>
        <time>2017-10-08T15:35:21Z</time>
      </trkpt>
      <trkpt lat="41.24475" lon="9.4437">
        <ele>1.1</ele>
        <time>2017-10-08T15:35:32Z</time>
      </trkpt>
      <trkpt lat="41.24503" lon="9.44355">
        <ele>0.62</ele>
        <time>2017-10-08T15:35:45Z</time>
      </trkpt>
      <trkpt lat="41.24531" lon="9.44341">
        <ele>2.54</ele>
        <time>2017-10-08T15:35:56Z</time>
      </trkpt>
      <trkpt lat="41.2458" lon="9.44318">
        <ele>1.58</ele>
        <time>2017-10-08T15:36:13Z</time>
      </trkpt>
      <trkpt lat="41.24627" lon="9.44295">
        <ele>1.58</ele>
        <time>2017-10-08T15:36:31Z</time>
      </trkpt>
      <trkpt lat="41.2466" lon="9.44281">
        <ele>2.54</ele>
        <time>2017-10-08T15:36:43Z</time>
      </trkpt>
      <trkpt lat="41.24692" lon="9.44266">
        <ele>1.1</ele>
        <time>2017-10-08T15:36:55Z</time>
      </trkpt>
      <trkpt lat="41.24729" lon="9.44249">
        <ele>0.62</ele>
        <time>2017-10-08T15:37:08Z</time>
      </trkpt>
      <trkpt lat="41.24738" lon="9.44247">
        <ele>0.62</ele>
        <time>2017-10-08T15:37:11Z</time>
      </trkpt>
      <trkpt lat="41.24748" lon="9.44245">
        <ele>1.1</ele>
        <time>2017-10-08T15:37:15Z</time>
      </trkpt>
      <trkpt lat="41.24798" lon="9.44218">
        <ele>1.1</ele>
        <time>2017-10-08T15:37:34Z</time>
      </trkpt>
      <trkpt lat="41.24835" lon="9.44204">
        <ele>1.1</ele>
        <time>2017-10-08T15:37:49Z</time>
      </trkpt>
      <trkpt lat="41.2486" lon="9.44196">
        <ele>0.62</ele>
        <time>2017-10-08T15:37:59Z</time>
      </trkpt>
      <trkpt lat="41.24889" lon="9.44181">
        <ele>0.62</ele>
        <time>2017-10-08T15:38:10Z</time>
      </trkpt>
      <trkpt lat="41.24923" lon="9.44163">
        <ele>1.1</ele>
        <time>2017-10-08T15:38:22Z</time>
      </trkpt>
      <trkpt lat="41.24968" lon="9.44138">
        <ele>2.06</ele>
        <time>2017-10-08T15:38:38Z</time>
      </trkpt>
      <trkpt lat="41.25003" lon="9.44123">
        <ele>2.06</ele>
        <time>2017-10-08T15:38:50Z</time>
      </trkpt>
      <trkpt lat="41.25048" lon="9.44099">
        <ele>1.1</ele>
        <time>2017-10-08T15:39:05Z</time>
      </trkpt>
      <trkpt lat="41.25083" lon="9.44081">
        <ele>1.1</ele>
        <time>2017-10-08T15:39:18Z</time>
      </trkpt>
      <trkpt lat="41.25118" lon="9.44066">
        <ele>0.62</ele>
        <time>2017-10-08T15:39:30Z</time>
      </trkpt>
      <trkpt lat="41.25162" lon="9.44043">
        <ele>0.14</ele>
        <time>2017-10-08T15:39:46Z</time>
      </trkpt>
      <trkpt lat="41.25214" lon="9.44019">
        <ele>1.1</ele>
        <time>2017-10-08T15:40:03Z</time>
      </trkpt>
      <trkpt lat="41.25248" lon="9.44003">
        <ele>2.54</ele>
        <time>2017-10-08T15:40:14Z</time>
      </trkpt>
      <trkpt lat="41.25279" lon="9.43989">
        <ele>2.06</ele>
        <time>2017-10-08T15:40:25Z</time>
      </trkpt>
      <trkpt lat="41.25329" lon="9.4397">
        <ele>2.06</ele>
        <time>2017-10-08T15:40:42Z</time>
      </trkpt>
      <trkpt lat="41.25377" lon="9.43952">
        <ele>2.06</ele>
        <time>2017-10-08T15:40:59Z</time>
      </trkpt>
      <trkpt lat="41.25414" lon="9.43937">
        <ele>2.54</ele>
        <time>2017-10-08T15:41:12Z</time>
      </trkpt>
      <trkpt lat="41.25436" lon="9.43927">
        <ele>2.54</ele>
        <time>2017-10-08T15:41:21Z</time>
      </trkpt>
      <trkpt lat="41.25463" lon="9.43918">
        <ele>3.02</ele>
        <time>2017-10-08T15:41:30Z</time>
      </trkpt>
      <trkpt lat="41.25493" lon="9.43906">
        <ele>2.54</ele>
        <time>2017-10-08T15:41:42Z</time>
      </trkpt>
      <trkpt lat="41.25514" lon="9.43893">
        <ele>3.98</ele>
        <time>2017-10-08T15:41:53Z</time>
      </trkpt>
      <trkpt lat="41.25524" lon="9.43873">
        <ele>4.46</ele>
        <time>2017-10-08T15:42:07Z</time>
      </trkpt>
      <trkpt lat="41.25529" lon="9.43861">
        <ele>4.94</ele>
        <time>2017-10-08T15:42:20Z</time>
      </trkpt>
      <trkpt lat="41.25532" lon="9.4386">
        <ele>4.46</ele>
        <time>2017-10-08T15:42:23Z</time>
      </trkpt>
      <trkpt lat="41.25542" lon="9.43866">
        <ele>3.5</ele>
        <time>2017-10-08T15:42:31Z</time>
      </trkpt>
      <trkpt lat="41.25548" lon="9.43871">
        <ele>3.02</ele>
        <time>2017-10-08T15:42:34Z</time>
      </trkpt>
      <trkpt lat="41.25557" lon="9.43889">
        <ele>2.54</ele>
        <time>2017-10-08T15:42:42Z</time>
      </trkpt>
      <trkpt lat="41.25558" lon="9.43894">
        <ele>3.02</ele>
        <time>2017-10-08T15:42:44Z</time>
      </trkpt>
      <trkpt lat="41.25564" lon="9.43915">
        <ele>2.54</ele>
        <time>2017-10-08T15:42:51Z</time>
      </trkpt>
      <trkpt lat="41.25567" lon="9.43917">
        <ele>2.54</ele>
        <time>2017-10-08T15:42:53Z</time>
      </trkpt>
      <trkpt lat="41.25574" lon="9.43914">
        <ele>2.06</ele>
        <time>2017-10-08T15:42:57Z</time>
      </trkpt>
      <trkpt lat="41.2558" lon="9.43907">
        <ele>2.54</ele>
        <time>2017-10-08T15:43:03Z</time>
      </trkpt>
      <trkpt lat="41.25589" lon="9.43887">
        <ele>2.54</ele>
        <time>2017-10-08T15:43:18Z</time>
      </trkpt>
      <trkpt lat="41.25591" lon="9.43878">
        <ele>2.54</ele>
        <time>2017-10-08T15:43:24Z</time>
      </trkpt>
      <trkpt lat="41.25592" lon="9.43871">
        <ele>2.54</ele>
        <time>2017-10-08T15:43:30Z</time>
      </trkpt>
      <trkpt lat="41.25593" lon="9.43869">
        <ele>2.54</ele>
        <time>2017-10-08T15:43:32Z</time>
      </trkpt>
      <trkpt lat="41.25597" lon="9.43855">
        <ele>1.58</ele>
        <time>2017-10-08T15:43:43Z</time>
      </trkpt>
      <trkpt lat="41.25596" lon="9.43848">
        <ele>2.06</ele>
        <time>2017-10-08T15:43:48Z</time>
      </trkpt>
      <trkpt lat="41.25596" lon="9.43839">
        <ele>2.06</ele>
        <time>2017-10-08T15:43:53Z</time>
      </trkpt>
      <trkpt lat="41.25597" lon="9.43835">
        <ele>1.58</ele>
        <time>2017-10-08T15:43:55Z</time>
      </trkpt>
      <trkpt lat="41.25603" lon="9.43798">
        <ele>2.54</ele>
        <time>2017-10-08T15:44:10Z</time>
      </trkpt>
      <trkpt lat="41.25611" lon="9.43749">
        <ele>2.06</ele>
        <time>2017-10-08T15:44:27Z</time>
      </trkpt>
      <trkpt lat="41.25619" lon="9.43695">
        <ele>2.54</ele>
        <time>2017-10-08T15:44:45Z</time>
      </trkpt>
      <trkpt lat="41.25631" lon="9.43642">
        <ele>3.02</ele>
        <time>2017-10-08T15:45:03Z</time>
      </trkpt>
      <trkpt lat="41.25639" lon="9.43588">
        <ele>3.02</ele>
        <time>2017-10-08T15:45:20Z</time>
      </trkpt>
      <trkpt lat="41.25641" lon="9.43526">
        <ele>3.5</ele>
        <time>2017-10-08T15:45:39Z</time>
      </trkpt>
      <trkpt lat="41.25646" lon="9.43469">
        <ele>3.5</ele>
        <time>2017-10-08T15:45:57Z</time>
      </trkpt>
      <trkpt lat="41.25652" lon="9.43412">
        <ele>3.5</ele>
        <time>2017-10-08T15:46:14Z</time>
      </trkpt>
      <trkpt lat="41.25667" lon="9.4334">
        <ele>3.5</ele>
        <time>2017-10-08T15:46:36Z</time>
      </trkpt>
      <trkpt lat="41.25686" lon="9.43271">
        <ele>3.98</ele>
        <time>2017-10-08T15:46:57Z</time>
      </trkpt>
      <trkpt lat="41.2569" lon="9.43248">
        <ele>3.5</ele>
        <time>2017-10-08T15:47:04Z</time>
      </trkpt>
      <trkpt lat="41.25694" lon="9.43209">
        <ele>3.02</ele>
        <time>2017-10-08T15:47:20Z</time>
      </trkpt>
      <trkpt lat="41.257" lon="9.43179">
        <ele>2.54</ele>
        <time>2017-10-08T15:47:41Z</time>
      </trkpt>
      <trkpt lat="41.25705" lon="9.43159">
        <ele>2.06</ele>
        <time>2017-10-08T15:47:59Z</time>
      </trkpt>
      <trkpt lat="41.25707" lon="9.43143">
        <ele>1.58</ele>
        <time>2017-10-08T15:48:14Z</time>
      </trkpt>
      <trkpt lat="41.25707" lon="9.43134">
        <ele>3.02</ele>
        <time>2017-10-08T15:48:20Z</time>
      </trkpt>
      <trkpt lat="41.25709" lon="9.43097">
        <ele>3.02</ele>
        <time>2017-10-08T15:48:43Z</time>
      </trkpt>
      <trkpt lat="41.25708" lon="9.43058">
        <ele>2.54</ele>
        <time>2017-10-08T15:49:05Z</time>
      </trkpt>
      <trkpt lat="41.25709" lon="9.43049">
        <ele>2.54</ele>
        <time>2017-10-08T15:49:10Z</time>
      </trkpt>
      <trkpt lat="41.25713" lon="9.43002">
        <ele>2.06</ele>
        <time>2017-10-08T15:49:38Z</time>
      </trkpt>
      <trkpt lat="41.2572" lon="9.42954">
        <ele>2.54</ele>
        <time>2017-10-08T15:50:05Z</time>
      </trkpt>
      <trkpt lat="41.25723" lon="9.42913">
        <ele>2.06</ele>
        <time>2017-10-08T15:50:28Z</time>
      </trkpt>
      <trkpt lat="41.25723" lon="9.42877">
        <ele>2.54</ele>
        <time>2017-10-08T15:50:48Z</time>
      </trkpt>
      <trkpt lat="41.25722" lon="9.42844">
        <ele>3.5</ele>
        <time>2017-10-08T15:51:05Z</time>
      </trkpt>
      <trkpt lat="41.2572" lon="9.42803">
        <ele>4.94</ele>
        <time>2017-10-08T15:51:27Z</time>
      </trkpt>
      <trkpt lat="41.25734" lon="9.42779">
        <ele>3.5</ele>
        <time>2017-10-08T15:51:48Z</time>
      </trkpt>
      <trkpt lat="41.25757" lon="9.42773">
        <ele>3.5</ele>
        <time>2017-10-08T15:52:12Z</time>
      </trkpt>
      <trkpt lat="41.25774" lon="9.42776">
        <ele>3.98</ele>
        <time>2017-10-08T15:52:28Z</time>
      </trkpt>
      <trkpt lat="41.25792" lon="9.42787">
        <ele>4.94</ele>
        <time>2017-10-08T15:52:50Z</time>
      </trkpt>
      <trkpt lat="41.25803" lon="9.42791">
        <ele>3.02</ele>
        <time>2017-10-08T15:53:05Z</time>
      </trkpt>
      <trkpt lat="41.25812" lon="9.42795">
        <ele>3.98</ele>
        <time>2017-10-08T15:53:22Z</time>
      </trkpt>
      <trkpt lat="41.25824" lon="9.42801">
        <ele>3.5</ele>
        <time>2017-10-08T15:53:41Z</time>
      </trkpt>
      <trkpt lat="41.25834" lon="9.42793">
        <ele>3.5</ele>
        <time>2017-10-08T15:54:00Z</time>
      </trkpt>
      <trkpt lat="41.25835" lon="9.42796">
        <ele>3.02</ele>
        <time>2017-10-08T15:54:15Z</time>
      </trkpt>
      <trkpt lat="41.25833" lon="9.42804">
        <ele>3.02</ele>
        <time>2017-10-08T15:54:35Z</time>
      </trkpt>
      <trkpt lat="41.25828" lon="9.42809">
        <ele>2.54</ele>
        <time>2017-10-08T15:54:59Z</time>
      </trkpt>
      <trkpt lat="41.25828" lon="9.42813">
        <ele>2.54</ele>
        <time>2017-10-08T15:55:18Z</time>
      </trkpt>
      <trkpt lat="41.25836" lon="9.42817">
        <ele>2.06</ele>
        <time>2017-10-08T15:55:29Z</time>
      </trkpt>
      <trkpt lat="41.25848" lon="9.42803">
        <ele>2.54</ele>
        <time>2017-10-08T15:55:48Z</time>
      </trkpt>
      <trkpt lat="41.25846" lon="9.42798">
        <ele>2.06</ele>
        <time>2017-10-08T15:55:53Z</time>
      </trkpt>
      <trkpt lat="41.25837" lon="9.42788">
        <ele>3.5</ele>
        <time>2017-10-08T15:56:06Z</time>
      </trkpt>
      <trkpt lat="41.25833" lon="9.4278">
        <ele>1.1</ele>
        <time>2017-10-08T15:56:21Z</time>
      </trkpt>
      <trkpt lat="41.25833" lon="9.42779">
        <ele>1.1</ele>
        <time>2017-10-08T15:56:37Z</time>
      </trkpt>
      <trkpt lat="41.2583" lon="9.4279">
        <ele>1.1</ele>
        <time>2017-10-08T15:57:01Z</time>
      </trkpt>
      <trkpt lat="41.25831" lon="9.42803">
        <ele>2.06</ele>
        <time>2017-10-08T15:57:15Z</time>
      </trkpt>
      <trkpt lat="41.25831" lon="9.42807">
        <ele>3.98</ele>
        <time>2017-10-08T15:57:27Z</time>
      </trkpt>
      <trkpt lat="41.25831" lon="9.42807">
        <ele>3.5</ele>
        <time>2017-10-08T15:57:52Z</time>
      </trkpt>
      <trkpt lat="41.25829" lon="9.42809">
        <ele>3.5</ele>
        <time>2017-10-08T15:58:14Z</time>
      </trkpt>
      <trkpt lat="41.25827" lon="9.42816">
        <ele>4.46</ele>
        <time>2017-10-08T15:58:34Z</time>
      </trkpt>
      <trkpt lat="41.25825" lon="9.42826">
        <ele>3.02</ele>
        <time>2017-10-08T15:58:50Z</time>
      </trkpt>
      <trkpt lat="41.25825" lon="9.42828">
        <ele>2.06</ele>
        <time>2017-10-08T15:59:10Z</time>
      </trkpt>
      <trkpt lat="41.25824" lon="9.42829">
        <ele>3.5</ele>
        <time>2017-10-08T15:59:30Z</time>
      </trkpt>
      <trkpt lat="41.25823" lon="9.4283">
        <ele>3.98</ele>
        <time>2017-10-08T15:59:51Z</time>
      </trkpt>
      <trkpt lat="41.25821" lon="9.4283">
        <ele>4.46</ele>
        <time>2017-10-08T16:00:10Z</time>
      </trkpt>
      <trkpt lat="41.2582" lon="9.4283">
        <ele>3.02</ele>
        <time>2017-10-08T16:00:28Z</time>
      </trkpt>
      <trkpt lat="41.25819" lon="9.42832">
        <ele>3.02</ele>
        <time>2017-10-08T16:00:45Z</time>
      </trkpt>
      <trkpt lat="41.25819" lon="9.42832">
        <ele>3.02</ele>
        <time>2017-10-08T16:01:00Z</time>
      </trkpt>
      <trkpt lat="41.2582" lon="9.42833">
        <ele>2.54</ele>
        <time>2017-10-08T16:01:16Z</time>
      </trkpt>
      <trkpt lat="41.25821" lon="9.42833">
        <ele>3.02</ele>
        <time>2017-10-08T16:01:32Z</time>
      </trkpt>
      <trkpt lat="41.25821" lon="9.42833">
        <ele>3.02</ele>
        <time>2017-10-08T16:01:48Z</time>
      </trkpt>
      <trkpt lat="41.25821" lon="9.42832">
        <ele>3.5</ele>
        <time>2017-10-08T16:02:04Z</time>
      </trkpt>
      <trkpt lat="41.2582" lon="9.42831">
        <ele>3.5</ele>
        <time>2017-10-08T16:02:21Z</time>
      </trkpt>
      <trkpt lat="41.25819" lon="9.42832">
        <ele>3.5</ele>
        <time>2017-10-08T16:02:33Z</time>
      </trkpt>
      <trkpt lat="41.25819" lon="9.4283">
        <ele>3.98</ele>
        <time>2017-10-08T16:02:35Z</time>
      </trkpt>
      <trkpt lat="41.2582" lon="9.42829">
        <ele>4.46</ele>
        <time>2017-10-08T16:02:40Z</time>
      </trkpt>
    </trkseg>
  </trk>
  <trk>
    <name><![CDATA[Tracé actuel: 09 OCT 2017 10:00]]></name>
    <trkseg>
      <trkpt lat="41.2582" lon="9.42842">
        <ele>-7.07</ele>
        <time>2017-10-09T09:00:21Z</time>
      </trkpt>
      <trkpt lat="41.25816" lon="9.42847">
        <ele>2.06</ele>
        <time>2017-10-09T09:00:35Z</time>
      </trkpt>
      <trkpt lat="41.25815" lon="9.4285">
        <ele>5.42</ele>
        <time>2017-10-09T09:00:48Z</time>
      </trkpt>
      <trkpt lat="41.25814" lon="9.42851">
        <ele>7.83</ele>
        <time>2017-10-09T09:01:06Z</time>
      </trkpt>
      <trkpt lat="41.2582" lon="9.42832">
        <ele>1.58</ele>
        <time>2017-10-09T09:01:22Z</time>
      </trkpt>
      <trkpt lat="41.2582" lon="9.42831">
        <ele>3.5</ele>
        <time>2017-10-09T09:01:38Z</time>
      </trkpt>
      <trkpt lat="41.2582" lon="9.42831">
        <ele>4.94</ele>
        <time>2017-10-09T09:01:56Z</time>
      </trkpt>
      <trkpt lat="41.2582" lon="9.42831">
        <ele>6.39</ele>
        <time>2017-10-09T09:02:14Z</time>
      </trkpt>
      <trkpt lat="41.2582" lon="9.42831">
        <ele>7.35</ele>
        <time>2017-10-09T09:02:32Z</time>
      </trkpt>
      <trkpt lat="41.25819" lon="9.42832">
        <ele>8.79</ele>
        <time>2017-10-09T09:02:52Z</time>
      </trkpt>
      <trkpt lat="41.25821" lon="9.42832">
        <ele>6.87</ele>
        <time>2017-10-09T09:03:13Z</time>
      </trkpt>
      <trkpt lat="41.25821" lon="9.42831">
        <ele>5.91</ele>
        <time>2017-10-09T09:03:33Z</time>
      </trkpt>
      <trkpt lat="41.25821" lon="9.42831">
        <ele>4.94</ele>
        <time>2017-10-09T09:03:50Z</time>
      </trkpt>
      <trkpt lat="41.25821" lon="9.4283">
        <ele>4.94</ele>
        <time>2017-10-09T09:04:10Z</time>
      </trkpt>
      <trkpt lat="41.25823" lon="9.42822">
        <ele>5.42</ele>
        <time>2017-10-09T09:04:25Z</time>
      </trkpt>
      <trkpt lat="41.25824" lon="9.42817">
        <ele>4.94</ele>
        <time>2017-10-09T09:04:41Z</time>
      </trkpt>
      <trkpt lat="41.25823" lon="9.42813">
        <ele>4.94</ele>
        <time>2017-10-09T09:04:45Z</time>
      </trkpt>
      <trkpt lat="41.25811" lon="9.42792">
        <ele>6.87</ele>
        <time>2017-10-09T09:05:00Z</time>
      </trkpt>
      <trkpt lat="41.25788" lon="9.42779">
        <ele>6.39</ele>
        <time>2017-10-09T09:05:16Z</time>
      </trkpt>
      <trkpt lat="41.25762" lon="9.42772">
        <ele>5.42</ele>
        <time>2017-10-09T09:05:31Z</time>
      </trkpt>
      <trkpt lat="41.2573" lon="9.4278">
        <ele>4.46</ele>
        <time>2017-10-09T09:05:48Z</time>
      </trkpt>
      <trkpt lat="41.25713" lon="9.42813">
        <ele>6.39</ele>
        <time>2017-10-09T09:06:05Z</time>
      </trkpt>
      <trkpt lat="41.25705" lon="9.42853">
        <ele>6.87</ele>
        <time>2017-10-09T09:06:22Z</time>
      </trkpt>
      <trkpt lat="41.257" lon="9.42879">
        <ele>5.91</ele>
        <time>2017-10-09T09:06:33Z</time>
      </trkpt>
      <trkpt lat="41.25692" lon="9.42911">
        <ele>6.39</ele>
        <time>2017-10-09T09:06:48Z</time>
      </trkpt>
      <trkpt lat="41.25674" lon="9.42948">
        <ele>5.42</ele>
        <time>2017-10-09T09:07:07Z</time>
      </trkpt>
      <trkpt lat="41.25659" lon="9.42988">
        <ele>3.98</ele>
        <time>2017-10-09T09:07:26Z</time>
      </trkpt>
      <trkpt lat="41.25647" lon="9.43037">
        <ele>3.98</ele>
        <time>2017-10-09T09:07:47Z</time>
      </trkpt>
      <trkpt lat="41.25637" lon="9.43078">
        <ele>3.5</ele>
        <time>2017-10-09T09:08:05Z</time>
      </trkpt>
      <trkpt lat="41.2563" lon="9.43126">
        <ele>3.5</ele>
        <time>2017-10-09T09:08:26Z</time>
      </trkpt>
      <trkpt lat="41.25624" lon="9.43182">
        <ele>3.98</ele>
        <time>2017-10-09T09:08:51Z</time>
      </trkpt>
      <trkpt lat="41.25621" lon="9.43224">
        <ele>3.5</ele>
        <time>2017-10-09T09:09:09Z</time>
      </trkpt>
      <trkpt lat="41.25618" lon="9.43264">
        <ele>3.5</ele>
        <time>2017-10-09T09:09:27Z</time>
      </trkpt>
      <trkpt lat="41.25614" lon="9.43297">
        <ele>1.58</ele>
        <time>2017-10-09T09:09:42Z</time>
      </trkpt>
      <trkpt lat="41.25616" lon="9.43329">
        <ele>3.02</ele>
        <time>2017-10-09T09:09:56Z</time>
      </trkpt>
      <trkpt lat="41.25625" lon="9.43357">
        <ele>2.54</ele>
        <time>2017-10-09T09:10:11Z</time>
      </trkpt>
      <trkpt lat="41.25636" lon="9.43397">
        <ele>2.54</ele>
        <time>2017-10-09T09:10:31Z</time>
      </trkpt>
      <trkpt lat="41.25649" lon="9.43437">
        <ele>2.06</ele>
        <time>2017-10-09T09:10:51Z</time>
      </trkpt>
      <trkpt lat="41.25659" lon="9.43476">
        <ele>2.54</ele>
        <time>2017-10-09T09:11:10Z</time>
      </trkpt>
      <trkpt lat="41.25669" lon="9.43518">
        <ele>2.54</ele>
        <time>2017-10-09T09:11:30Z</time>
      </trkpt>
      <trkpt lat="41.25683" lon="9.43546">
        <ele>1.1</ele>
        <time>2017-10-09T09:11:46Z</time>
      </trkpt>
      <trkpt lat="41.25704" lon="9.43574">
        <ele>1.1</ele>
        <time>2017-10-09T09:12:05Z</time>
      </trkpt>
      <trkpt lat="41.25743" lon="9.43604">
        <ele>1.58</ele>
        <time>2017-10-09T09:12:33Z</time>
      </trkpt>
      <trkpt lat="41.2578" lon="9.43621">
        <ele>2.06</ele>
        <time>2017-10-09T09:12:56Z</time>
      </trkpt>
      <trkpt lat="41.25808" lon="9.4363">
        <ele>2.06</ele>
        <time>2017-10-09T09:13:13Z</time>
      </trkpt>
      <trkpt lat="41.25838" lon="9.43637">
        <ele>2.06</ele>
        <time>2017-10-09T09:13:31Z</time>
      </trkpt>
      <trkpt lat="41.25869" lon="9.43647">
        <ele>1.58</ele>
        <time>2017-10-09T09:13:50Z</time>
      </trkpt>
      <trkpt lat="41.25903" lon="9.43662">
        <ele>2.06</ele>
        <time>2017-10-09T09:14:11Z</time>
      </trkpt>
      <trkpt lat="41.25934" lon="9.43675">
        <ele>2.06</ele>
        <time>2017-10-09T09:14:31Z</time>
      </trkpt>
      <trkpt lat="41.25967" lon="9.43685">
        <ele>2.06</ele>
        <time>2017-10-09T09:14:52Z</time>
      </trkpt>
      <trkpt lat="41.25998" lon="9.43688">
        <ele>2.06</ele>
        <time>2017-10-09T09:15:11Z</time>
      </trkpt>
      <trkpt lat="41.2603" lon="9.43689">
        <ele>2.54</ele>
        <time>2017-10-09T09:15:29Z</time>
      </trkpt>
      <trkpt lat="41.26065" lon="9.43692">
        <ele>2.54</ele>
        <time>2017-10-09T09:15:48Z</time>
      </trkpt>
      <trkpt lat="41.26102" lon="9.43689">
        <ele>2.54</ele>
        <time>2017-10-09T09:16:09Z</time>
      </trkpt>
      <trkpt lat="41.2613" lon="9.4368">
        <ele>2.06</ele>
        <time>2017-10-09T09:16:24Z</time>
      </trkpt>
      <trkpt lat="41.26167" lon="9.43664">
        <ele>2.54</ele>
        <time>2017-10-09T09:16:44Z</time>
      </trkpt>
      <trkpt lat="41.26201" lon="9.43646">
        <ele>3.02</ele>
        <time>2017-10-09T09:17:02Z</time>
      </trkpt>
      <trkpt lat="41.2624" lon="9.43626">
        <ele>2.06</ele>
        <time>2017-10-09T09:17:24Z</time>
      </trkpt>
      <trkpt lat="41.26275" lon="9.43607">
        <ele>3.02</ele>
        <time>2017-10-09T09:17:43Z</time>
      </trkpt>
      <trkpt lat="41.26314" lon="9.43579">
        <ele>3.02</ele>
        <time>2017-10-09T09:18:05Z</time>
      </trkpt>
      <trkpt lat="41.26347" lon="9.4355">
        <ele>2.54</ele>
        <time>2017-10-09T09:18:25Z</time>
      </trkpt>
      <trkpt lat="41.26376" lon="9.43526">
        <ele>2.54</ele>
        <time>2017-10-09T09:18:42Z</time>
      </trkpt>
      <trkpt lat="41.26408" lon="9.43501">
        <ele>2.54</ele>
        <time>2017-10-09T09:19:00Z</time>
      </trkpt>
      <trkpt lat="41.26431" lon="9.43484">
        <ele>2.54</ele>
        <time>2017-10-09T09:19:13Z</time>
      </trkpt>
      <trkpt lat="41.26458" lon="9.43462">
        <ele>2.06</ele>
        <time>2017-10-09T09:19:29Z</time>
      </trkpt>
      <trkpt lat="41.26499" lon="9.43429">
        <ele>2.06</ele>
        <time>2017-10-09T09:19:53Z</time>
      </trkpt>
      <trkpt lat="41.26529" lon="9.43397">
        <ele>1.58</ele>
        <time>2017-10-09T09:20:11Z</time>
      </trkpt>
      <trkpt lat="41.26557" lon="9.43366">
        <ele>2.06</ele>
        <time>2017-10-09T09:20:28Z</time>
      </trkpt>
      <trkpt lat="41.26585" lon="9.43338">
        <ele>2.06</ele>
        <time>2017-10-09T09:20:46Z</time>
      </trkpt>
      <trkpt lat="41.26611" lon="9.43314">
        <ele>1.1</ele>
        <time>2017-10-09T09:21:03Z</time>
      </trkpt>
      <trkpt lat="41.26631" lon="9.43285">
        <ele>2.06</ele>
        <time>2017-10-09T09:21:19Z</time>
      </trkpt>
      <trkpt lat="41.26656" lon="9.43251">
        <ele>1.1</ele>
        <time>2017-10-09T09:21:38Z</time>
      </trkpt>
      <trkpt lat="41.2668" lon="9.43222">
        <ele>1.58</ele>
        <time>2017-10-09T09:21:55Z</time>
      </trkpt>
      <trkpt lat="41.26699" lon="9.43203">
        <ele>2.06</ele>
        <time>2017-10-09T09:22:07Z</time>
      </trkpt>
      <trkpt lat="41.26728" lon="9.43169">
        <ele>2.06</ele>
        <time>2017-10-09T09:22:27Z</time>
      </trkpt>
      <trkpt lat="41.26749" lon="9.43136">
        <ele>1.58</ele>
        <time>2017-10-09T09:22:44Z</time>
      </trkpt>
      <trkpt lat="41.2677" lon="9.43101">
        <ele>1.58</ele>
        <time>2017-10-09T09:23:04Z</time>
      </trkpt>
      <trkpt lat="41.26788" lon="9.4307">
        <ele>2.54</ele>
        <time>2017-10-09T09:23:22Z</time>
      </trkpt>
      <trkpt lat="41.26808" lon="9.43036">
        <ele>2.06</ele>
        <time>2017-10-09T09:23:42Z</time>
      </trkpt>
      <trkpt lat="41.26824" lon="9.43002">
        <ele>2.06</ele>
        <time>2017-10-09T09:24:01Z</time>
      </trkpt>
      <trkpt lat="41.26837" lon="9.42971">
        <ele>1.1</ele>
        <time>2017-10-09T09:24:18Z</time>
      </trkpt>
      <trkpt lat="41.26852" lon="9.42934">
        <ele>1.58</ele>
        <time>2017-10-09T09:24:37Z</time>
      </trkpt>
      <trkpt lat="41.26868" lon="9.42894">
        <ele>2.06</ele>
        <time>2017-10-09T09:24:56Z</time>
      </trkpt>
      <trkpt lat="41.26884" lon="9.42857">
        <ele>2.06</ele>
        <time>2017-10-09T09:25:14Z</time>
      </trkpt>
      <trkpt lat="41.26899" lon="9.42825">
        <ele>2.54</ele>
        <time>2017-10-09T09:25:30Z</time>
      </trkpt>
      <trkpt lat="41.26915" lon="9.42789">
        <ele>2.06</ele>
        <time>2017-10-09T09:25:48Z</time>
      </trkpt>
      <trkpt lat="41.26932" lon="9.42751">
        <ele>2.06</ele>
        <time>2017-10-09T09:26:08Z</time>
      </trkpt>
      <trkpt lat="41.26946" lon="9.42719">
        <ele>1.58</ele>
        <time>2017-10-09T09:26:26Z</time>
      </trkpt>
      <trkpt lat="41.26955" lon="9.42691">
        <ele>1.58</ele>
        <time>2017-10-09T09:26:41Z</time>
      </trkpt>
      <trkpt lat="41.26965" lon="9.42662">
        <ele>1.1</ele>
        <time>2017-10-09T09:26:58Z</time>
      </trkpt>
      <trkpt lat="41.26974" lon="9.4264">
        <ele>0.14</ele>
        <time>2017-10-09T09:27:11Z</time>
      </trkpt>
      <trkpt lat="41.26986" lon="9.42614">
        <ele>0.14</ele>
        <time>2017-10-09T09:27:28Z</time>
      </trkpt>
      <trkpt lat="41.26998" lon="9.42585">
        <ele>0.62</ele>
        <time>2017-10-09T09:27:46Z</time>
      </trkpt>
      <trkpt lat="41.27009" lon="9.42558">
        <ele>1.1</ele>
        <time>2017-10-09T09:28:02Z</time>
      </trkpt>
      <trkpt lat="41.27022" lon="9.42531">
        <ele>0.62</ele>
        <time>2017-10-09T09:28:21Z</time>
      </trkpt>
      <trkpt lat="41.27033" lon="9.42506">
        <ele>0.14</ele>
        <time>2017-10-09T09:28:38Z</time>
      </trkpt>
      <trkpt lat="41.27035" lon="9.425">
        <ele>0.14</ele>
        <time>2017-10-09T09:28:42Z</time>
      </trkpt>
      <trkpt lat="41.27045" lon="9.42475">
        <ele>0.62</ele>
        <time>2017-10-09T09:28:58Z</time>
      </trkpt>
      <trkpt lat="41.27055" lon="9.42444">
        <ele>1.1</ele>
        <time>2017-10-09T09:29:16Z</time>
      </trkpt>
      <trkpt lat="41.27066" lon="9.42416">
        <ele>0.62</ele>
        <time>2017-10-09T09:29:34Z</time>
      </trkpt>
      <trkpt lat="41.27078" lon="9.42389">
        <ele>0.14</ele>
        <time>2017-10-09T09:29:51Z</time>
      </trkpt>
      <trkpt lat="41.27088" lon="9.42364">
        <ele>-0.82</ele>
        <time>2017-10-09T09:30:06Z</time>
      </trkpt>
      <trkpt lat="41.27093" lon="9.42348">
        <ele>0.14</ele>
        <time>2017-10-09T09:30:16Z</time>
      </trkpt>
      <trkpt lat="41.27101" lon="9.42326">
        <ele>0.62</ele>
        <time>2017-10-09T09:30:30Z</time>
      </trkpt>
      <trkpt lat="41.2711" lon="9.42296">
        <ele>1.1</ele>
        <time>2017-10-09T09:30:48Z</time>
      </trkpt>
      <trkpt lat="41.27117" lon="9.42275">
        <ele>0.62</ele>
        <time>2017-10-09T09:31:01Z</time>
      </trkpt>
      <trkpt lat="41.27126" lon="9.42252">
        <ele>0.62</ele>
        <time>2017-10-09T09:31:17Z</time>
      </trkpt>
      <trkpt lat="41.27135" lon="9.42229">
        <ele>0.62</ele>
        <time>2017-10-09T09:31:33Z</time>
      </trkpt>
      <trkpt lat="41.27136" lon="9.42227">
        <ele>1.1</ele>
        <time>2017-10-09T09:31:35Z</time>
      </trkpt>
      <trkpt lat="41.27139" lon="9.42222">
        <ele>0.62</ele>
        <time>2017-10-09T09:31:39Z</time>
      </trkpt>
      <trkpt lat="41.27141" lon="9.42216">
        <ele>1.1</ele>
        <time>2017-10-09T09:31:43Z</time>
      </trkpt>
      <trkpt lat="41.27143" lon="9.4221">
        <ele>1.1</ele>
        <time>2017-10-09T09:31:47Z</time>
      </trkpt>
      <trkpt lat="41.27153" lon="9.42182">
        <ele>1.1</ele>
        <time>2017-10-09T09:32:06Z</time>
      </trkpt>
      <trkpt lat="41.27161" lon="9.42154">
        <ele>2.06</ele>
        <time>2017-10-09T09:32:22Z</time>
      </trkpt>
      <trkpt lat="41.27171" lon="9.42123">
        <ele>1.58</ele>
        <time>2017-10-09T09:32:39Z</time>
      </trkpt>
      <trkpt lat="41.27172" lon="9.42122">
        <ele>1.58</ele>
        <time>2017-10-09T09:32:40Z</time>
      </trkpt>
      <trkpt lat="41.27177" lon="9.42101">
        <ele>1.58</ele>
        <time>2017-10-09T09:32:51Z</time>
      </trkpt>
      <trkpt lat="41.27178" lon="9.421">
        <ele>1.58</ele>
        <time>2017-10-09T09:32:52Z</time>
      </trkpt>
      <trkpt lat="41.27187" lon="9.42073">
        <ele>2.54</ele>
        <time>2017-10-09T09:33:08Z</time>
      </trkpt>
      <trkpt lat="41.27195" lon="9.42049">
        <ele>2.54</ele>
        <time>2017-10-09T09:33:23Z</time>
      </trkpt>
      <trkpt lat="41.27204" lon="9.42024">
        <ele>2.06</ele>
        <time>2017-10-09T09:33:39Z</time>
      </trkpt>
      <trkpt lat="41.27215" lon="9.41999">
        <ele>2.06</ele>
        <time>2017-10-09T09:33:54Z</time>
      </trkpt>
      <trkpt lat="41.27229" lon="9.41978">
        <ele>0.14</ele>
        <time>2017-10-09T09:34:08Z</time>
      </trkpt>
      <trkpt lat="41.2724" lon="9.41947">
        <ele>0.14</ele>
        <time>2017-10-09T09:34:25Z</time>
      </trkpt>
      <trkpt lat="41.27245" lon="9.41916">
        <ele>1.58</ele>
        <time>2017-10-09T09:34:42Z</time>
      </trkpt>
      <trkpt lat="41.27253" lon="9.41889">
        <ele>2.06</ele>
        <time>2017-10-09T09:34:58Z</time>
      </trkpt>
      <trkpt lat="41.27259" lon="9.41864">
        <ele>2.06</ele>
        <time>2017-10-09T09:35:13Z</time>
      </trkpt>
      <trkpt lat="41.2726" lon="9.41842">
        <ele>1.58</ele>
        <time>2017-10-09T09:35:27Z</time>
      </trkpt>
      <trkpt lat="41.2726" lon="9.41833">
        <ele>1.58</ele>
        <time>2017-10-09T09:35:33Z</time>
      </trkpt>
      <trkpt lat="41.27261" lon="9.41814">
        <ele>2.06</ele>
        <time>2017-10-09T09:35:47Z</time>
      </trkpt>
      <trkpt lat="41.27263" lon="9.41798">
        <ele>1.58</ele>
        <time>2017-10-09T09:35:58Z</time>
      </trkpt>
      <trkpt lat="41.27263" lon="9.41792">
        <ele>2.06</ele>
        <time>2017-10-09T09:36:02Z</time>
      </trkpt>
      <trkpt lat="41.27267" lon="9.41768">
        <ele>1.58</ele>
        <time>2017-10-09T09:36:18Z</time>
      </trkpt>
      <trkpt lat="41.27271" lon="9.41746">
        <ele>1.1</ele>
        <time>2017-10-09T09:36:33Z</time>
      </trkpt>
      <trkpt lat="41.27278" lon="9.4172">
        <ele>1.1</ele>
        <time>2017-10-09T09:36:51Z</time>
      </trkpt>
      <trkpt lat="41.2728" lon="9.41709">
        <ele>1.58</ele>
        <time>2017-10-09T09:36:59Z</time>
      </trkpt>
      <trkpt lat="41.27282" lon="9.41686">
        <ele>1.1</ele>
        <time>2017-10-09T09:37:15Z</time>
      </trkpt>
      <trkpt lat="41.27281" lon="9.41665">
        <ele>1.58</ele>
        <time>2017-10-09T09:37:32Z</time>
      </trkpt>
      <trkpt lat="41.27279" lon="9.41646">
        <ele>1.58</ele>
        <time>2017-10-09T09:37:47Z</time>
      </trkpt>
      <trkpt lat="41.27277" lon="9.41626">
        <ele>1.58</ele>
        <time>2017-10-09T09:38:02Z</time>
      </trkpt>
      <trkpt lat="41.27275" lon="9.41604">
        <ele>2.06</ele>
        <time>2017-10-09T09:38:17Z</time>
      </trkpt>
      <trkpt lat="41.27275" lon="9.41582">
        <ele>2.06</ele>
        <time>2017-10-09T09:38:32Z</time>
      </trkpt>
      <trkpt lat="41.27274" lon="9.41558">
        <ele>2.06</ele>
        <time>2017-10-09T09:38:49Z</time>
      </trkpt>
      <trkpt lat="41.27274" lon="9.41548">
        <ele>2.06</ele>
        <time>2017-10-09T09:38:56Z</time>
      </trkpt>
      <trkpt lat="41.27273" lon="9.41546">
        <ele>2.06</ele>
        <time>2017-10-09T09:38:58Z</time>
      </trkpt>
      <trkpt lat="41.27272" lon="9.41528">
        <ele>2.06</ele>
        <time>2017-10-09T09:39:12Z</time>
      </trkpt>
      <trkpt lat="41.27269" lon="9.41506">
        <ele>1.58</ele>
        <time>2017-10-09T09:39:30Z</time>
      </trkpt>
      <trkpt lat="41.27267" lon="9.41485">
        <ele>2.06</ele>
        <time>2017-10-09T09:39:48Z</time>
      </trkpt>
      <trkpt lat="41.27264" lon="9.41466">
        <ele>2.06</ele>
        <time>2017-10-09T09:40:05Z</time>
      </trkpt>
      <trkpt lat="41.27262" lon="9.41451">
        <ele>2.54</ele>
        <time>2017-10-09T09:40:19Z</time>
      </trkpt>
      <trkpt lat="41.2726" lon="9.41437">
        <ele>1.58</ele>
        <time>2017-10-09T09:40:32Z</time>
      </trkpt>
      <trkpt lat="41.27258" lon="9.41421">
        <ele>1.1</ele>
        <time>2017-10-09T09:40:48Z</time>
      </trkpt>
      <trkpt lat="41.27258" lon="9.41415">
        <ele>0.62</ele>
        <time>2017-10-09T09:40:53Z</time>
      </trkpt>
      <trkpt lat="41.27257" lon="9.41395">
        <ele>0.62</ele>
        <time>2017-10-09T09:41:11Z</time>
      </trkpt>
      <trkpt lat="41.27257" lon="9.41384">
        <ele>1.1</ele>
        <time>2017-10-09T09:41:21Z</time>
      </trkpt>
      <trkpt lat="41.27258" lon="9.41365">
        <ele>2.54</ele>
        <time>2017-10-09T09:41:39Z</time>
      </trkpt>
      <trkpt lat="41.27259" lon="9.41349">
        <ele>1.58</ele>
        <time>2017-10-09T09:41:52Z</time>
      </trkpt>
      <trkpt lat="41.27259" lon="9.41333">
        <ele>2.06</ele>
        <time>2017-10-09T09:42:04Z</time>
      </trkpt>
      <trkpt lat="41.27261" lon="9.41325">
        <ele>1.58</ele>
        <time>2017-10-09T09:42:14Z</time>
      </trkpt>
      <trkpt lat="41.27262" lon="9.4131">
        <ele>1.1</ele>
        <time>2017-10-09T09:42:28Z</time>
      </trkpt>
      <trkpt lat="41.27262" lon="9.41293">
        <ele>1.58</ele>
        <time>2017-10-09T09:42:45Z</time>
      </trkpt>
      <trkpt lat="41.27261" lon="9.41275">
        <ele>0.14</ele>
        <time>2017-10-09T09:43:04Z</time>
      </trkpt>
      <trkpt lat="41.27261" lon="9.41268">
        <ele>0.14</ele>
        <time>2017-10-09T09:43:10Z</time>
      </trkpt>
      <trkpt lat="41.27258" lon="9.41247">
        <ele>0.62</ele>
        <time>2017-10-09T09:43:29Z</time>
      </trkpt>
      <trkpt lat="41.27253" lon="9.4123">
        <ele>1.1</ele>
        <time>2017-10-09T09:43:48Z</time>
      </trkpt>
      <trkpt lat="41.27248" lon="9.41215">
        <ele>0.62</ele>
        <time>2017-10-09T09:44:03Z</time>
      </trkpt>
      <trkpt lat="41.27244" lon="9.41199">
        <ele>0.14</ele>
        <time>2017-10-09T09:44:18Z</time>
      </trkpt>
      <trkpt lat="41.27243" lon="9.4118">
        <ele>0.14</ele>
        <time>2017-10-09T09:44:36Z</time>
      </trkpt>
      <trkpt lat="41.27243" lon="9.41161">
        <ele>0.14</ele>
        <time>2017-10-09T09:44:52Z</time>
      </trkpt>
      <trkpt lat="41.27242" lon="9.41142">
        <ele>1.58</ele>
        <time>2017-10-09T09:45:09Z</time>
      </trkpt>
      <trkpt lat="41.27241" lon="9.41127">
        <ele>2.06</ele>
        <time>2017-10-09T09:45:23Z</time>
      </trkpt>
      <trkpt lat="41.2724" lon="9.41112">
        <ele>2.06</ele>
        <time>2017-10-09T09:45:38Z</time>
      </trkpt>
      <trkpt lat="41.27238" lon="9.41095">
        <ele>2.06</ele>
        <time>2017-10-09T09:45:56Z</time>
      </trkpt>
      <trkpt lat="41.27235" lon="9.41082">
        <ele>2.06</ele>
        <time>2017-10-09T09:46:11Z</time>
      </trkpt>
      <trkpt lat="41.27233" lon="9.41069">
        <ele>1.58</ele>
        <time>2017-10-09T09:46:27Z</time>
      </trkpt>
      <trkpt lat="41.27229" lon="9.41055">
        <ele>2.06</ele>
        <time>2017-10-09T09:46:44Z</time>
      </trkpt>
      <trkpt lat="41.27226" lon="9.41039">
        <ele>2.54</ele>
        <time>2017-10-09T09:47:03Z</time>
      </trkpt>
      <trkpt lat="41.27221" lon="9.41027">
        <ele>2.06</ele>
        <time>2017-10-09T09:47:20Z</time>
      </trkpt>
      <trkpt lat="41.27217" lon="9.41012">
        <ele>1.58</ele>
        <time>2017-10-09T09:47:37Z</time>
      </trkpt>
      <trkpt lat="41.27211" lon="9.40996">
        <ele>-0.82</ele>
        <time>2017-10-09T09:47:56Z</time>
      </trkpt>
      <trkpt lat="41.27205" lon="9.4098">
        <ele>0.14</ele>
        <time>2017-10-09T09:48:14Z</time>
      </trkpt>
      <trkpt lat="41.27197" lon="9.40968">
        <ele>0.62</ele>
        <time>2017-10-09T09:48:30Z</time>
      </trkpt>
      <trkpt lat="41.2719" lon="9.40948">
        <ele>0.62</ele>
        <time>2017-10-09T09:48:48Z</time>
      </trkpt>
      <trkpt lat="41.27185" lon="9.40925">
        <ele>1.1</ele>
        <time>2017-10-09T09:49:08Z</time>
      </trkpt>
      <trkpt lat="41.27178" lon="9.40906">
        <ele>1.58</ele>
        <time>2017-10-09T09:49:26Z</time>
      </trkpt>
      <trkpt lat="41.27175" lon="9.40889">
        <ele>2.06</ele>
        <time>2017-10-09T09:49:42Z</time>
      </trkpt>
      <trkpt lat="41.27173" lon="9.40871">
        <ele>2.06</ele>
        <time>2017-10-09T09:49:59Z</time>
      </trkpt>
      <trkpt lat="41.27169" lon="9.40852">
        <ele>2.54</ele>
        <time>2017-10-09T09:50:18Z</time>
      </trkpt>
      <trkpt lat="41.27166" lon="9.40839">
        <ele>2.06</ele>
        <time>2017-10-09T09:50:33Z</time>
      </trkpt>
      <trkpt lat="41.27164" lon="9.40823">
        <ele>1.58</ele>
        <time>2017-10-09T09:50:50Z</time>
      </trkpt>
      <trkpt lat="41.27162" lon="9.40804">
        <ele>1.1</ele>
        <time>2017-10-09T09:51:10Z</time>
      </trkpt>
      <trkpt lat="41.2716" lon="9.40789">
        <ele>1.58</ele>
        <time>2017-10-09T09:51:26Z</time>
      </trkpt>
      <trkpt lat="41.27158" lon="9.4077">
        <ele>1.58</ele>
        <time>2017-10-09T09:51:46Z</time>
      </trkpt>
      <trkpt lat="41.27156" lon="9.40754">
        <ele>1.58</ele>
        <time>2017-10-09T09:52:04Z</time>
      </trkpt>
      <trkpt lat="41.27153" lon="9.40737">
        <ele>1.58</ele>
        <time>2017-10-09T09:52:20Z</time>
      </trkpt>
      <trkpt lat="41.27148" lon="9.40716">
        <ele>0.14</ele>
        <time>2017-10-09T09:52:38Z</time>
      </trkpt>
      <trkpt lat="41.27147" lon="9.40707">
        <ele>0.62</ele>
        <time>2017-10-09T09:52:45Z</time>
      </trkpt>
      <trkpt lat="41.27146" lon="9.40698">
        <ele>1.1</ele>
        <time>2017-10-09T09:52:51Z</time>
      </trkpt>
      <trkpt lat="41.27143" lon="9.4067">
        <ele>1.58</ele>
        <time>2017-10-09T09:53:10Z</time>
      </trkpt>
      <trkpt lat="41.27139" lon="9.40648">
        <ele>1.58</ele>
        <time>2017-10-09T09:53:26Z</time>
      </trkpt>
      <trkpt lat="41.27135" lon="9.40622">
        <ele>2.06</ele>
        <time>2017-10-09T09:53:45Z</time>
      </trkpt>
      <trkpt lat="41.27131" lon="9.40601">
        <ele>2.06</ele>
        <time>2017-10-09T09:54:03Z</time>
      </trkpt>
      <trkpt lat="41.27129" lon="9.40581">
        <ele>1.58</ele>
        <time>2017-10-09T09:54:20Z</time>
      </trkpt>
      <trkpt lat="41.27128" lon="9.40564">
        <ele>2.54</ele>
        <time>2017-10-09T09:54:36Z</time>
      </trkpt>
      <trkpt lat="41.27128" lon="9.40543">
        <ele>3.02</ele>
        <time>2017-10-09T09:54:54Z</time>
      </trkpt>
      <trkpt lat="41.27126" lon="9.4052">
        <ele>3.02</ele>
        <time>2017-10-09T09:55:13Z</time>
      </trkpt>
      <trkpt lat="41.27124" lon="9.40493">
        <ele>3.02</ele>
        <time>2017-10-09T09:55:35Z</time>
      </trkpt>
      <trkpt lat="41.27124" lon="9.40467">
        <ele>2.54</ele>
        <time>2017-10-09T09:55:56Z</time>
      </trkpt>
      <trkpt lat="41.27124" lon="9.40441">
        <ele>2.54</ele>
        <time>2017-10-09T09:56:15Z</time>
      </trkpt>
      <trkpt lat="41.27124" lon="9.40417">
        <ele>2.54</ele>
        <time>2017-10-09T09:56:31Z</time>
      </trkpt>
      <trkpt lat="41.27123" lon="9.404">
        <ele>2.54</ele>
        <time>2017-10-09T09:56:42Z</time>
      </trkpt>
      <trkpt lat="41.27122" lon="9.4037">
        <ele>1.58</ele>
        <time>2017-10-09T09:57:02Z</time>
      </trkpt>
      <trkpt lat="41.27123" lon="9.4034">
        <ele>2.06</ele>
        <time>2017-10-09T09:57:20Z</time>
      </trkpt>
      <trkpt lat="41.27123" lon="9.40325">
        <ele>2.54</ele>
        <time>2017-10-09T09:57:29Z</time>
      </trkpt>
      <trkpt lat="41.27121" lon="9.40294">
        <ele>2.06</ele>
        <time>2017-10-09T09:57:47Z</time>
      </trkpt>
      <trkpt lat="41.27119" lon="9.40263">
        <ele>2.54</ele>
        <time>2017-10-09T09:58:05Z</time>
      </trkpt>
      <trkpt lat="41.27116" lon="9.40235">
        <ele>2.06</ele>
        <time>2017-10-09T09:58:21Z</time>
      </trkpt>
      <trkpt lat="41.27114" lon="9.40225">
        <ele>1.58</ele>
        <time>2017-10-09T09:58:27Z</time>
      </trkpt>
      <trkpt lat="41.27114" lon="9.40222">
        <ele>1.58</ele>
        <time>2017-10-09T09:58:29Z</time>
      </trkpt>
      <trkpt lat="41.27113" lon="9.40215">
        <ele>1.1</ele>
        <time>2017-10-09T09:58:34Z</time>
      </trkpt>
      <trkpt lat="41.2711" lon="9.40189">
        <ele>2.54</ele>
        <time>2017-10-09T09:58:51Z</time>
      </trkpt>
      <trkpt lat="41.2711" lon="9.40183">
        <ele>1.58</ele>
        <time>2017-10-09T09:58:55Z</time>
      </trkpt>
      <trkpt lat="41.27106" lon="9.40155">
        <ele>3.02</ele>
        <time>2017-10-09T09:59:13Z</time>
      </trkpt>
      <trkpt lat="41.27103" lon="9.40134">
        <ele>2.54</ele>
        <time>2017-10-09T09:59:28Z</time>
      </trkpt>
      <trkpt lat="41.27101" lon="9.40112">
        <ele>1.1</ele>
        <time>2017-10-09T09:59:41Z</time>
      </trkpt>
      <trkpt lat="41.27099" lon="9.40088">
        <ele>0.14</ele>
        <time>2017-10-09T09:59:57Z</time>
      </trkpt>
      <trkpt lat="41.27096" lon="9.40058">
        <ele>0.62</ele>
        <time>2017-10-09T10:00:18Z</time>
      </trkpt>
      <trkpt lat="41.27094" lon="9.40042">
        <ele>2.06</ele>
        <time>2017-10-09T10:00:31Z</time>
      </trkpt>
      <trkpt lat="41.27094" lon="9.40036">
        <ele>1.58</ele>
        <time>2017-10-09T10:00:35Z</time>
      </trkpt>
      <trkpt lat="41.27094" lon="9.40028">
        <ele>1.58</ele>
        <time>2017-10-09T10:00:39Z</time>
      </trkpt>
      <trkpt lat="41.2709" lon="9.40005">
        <ele>2.54</ele>
        <time>2017-10-09T10:00:53Z</time>
      </trkpt>
      <trkpt lat="41.27089" lon="9.39982">
        <ele>3.02</ele>
        <time>2017-10-09T10:01:04Z</time>
      </trkpt>
      <trkpt lat="41.27087" lon="9.39971">
        <ele>3.02</ele>
        <time>2017-10-09T10:01:16Z</time>
      </trkpt>
      <trkpt lat="41.27086" lon="9.39961">
        <ele>2.06</ele>
        <time>2017-10-09T10:01:28Z</time>
      </trkpt>
      <trkpt lat="41.27083" lon="9.39944">
        <ele>2.06</ele>
        <time>2017-10-09T10:01:42Z</time>
      </trkpt>
      <trkpt lat="41.27083" lon="9.39931">
        <ele>2.06</ele>
        <time>2017-10-09T10:01:54Z</time>
      </trkpt>
      <trkpt lat="41.27082" lon="9.39917">
        <ele>3.02</ele>
        <time>2017-10-09T10:02:06Z</time>
      </trkpt>
      <trkpt lat="41.2708" lon="9.39897">
        <ele>2.54</ele>
        <time>2017-10-09T10:02:24Z</time>
      </trkpt>
      <trkpt lat="41.27077" lon="9.39872">
        <ele>2.54</ele>
        <time>2017-10-09T10:02:44Z</time>
      </trkpt>
      <trkpt lat="41.27076" lon="9.39866">
        <ele>3.02</ele>
        <time>2017-10-09T10:02:48Z</time>
      </trkpt>
      <trkpt lat="41.27073" lon="9.3983">
        <ele>3.5</ele>
        <time>2017-10-09T10:03:11Z</time>
      </trkpt>
      <trkpt lat="41.2707" lon="9.39798">
        <ele>3.02</ele>
        <time>2017-10-09T10:03:30Z</time>
      </trkpt>
      <trkpt lat="41.27069" lon="9.39772">
        <ele>2.06</ele>
        <time>2017-10-09T10:03:46Z</time>
      </trkpt>
      <trkpt lat="41.27066" lon="9.39748">
        <ele>2.06</ele>
        <time>2017-10-09T10:04:01Z</time>
      </trkpt>
      <trkpt lat="41.27065" lon="9.39734">
        <ele>2.54</ele>
        <time>2017-10-09T10:04:10Z</time>
      </trkpt>
      <trkpt lat="41.27064" lon="9.39723">
        <ele>2.06</ele>
        <time>2017-10-09T10:04:17Z</time>
      </trkpt>
      <trkpt lat="41.27062" lon="9.39697">
        <ele>2.54</ele>
        <time>2017-10-09T10:04:35Z</time>
      </trkpt>
      <trkpt lat="41.2706" lon="9.39671">
        <ele>3.02</ele>
        <time>2017-10-09T10:04:55Z</time>
      </trkpt>
      <trkpt lat="41.27058" lon="9.39647">
        <ele>3.5</ele>
        <time>2017-10-09T10:05:14Z</time>
      </trkpt>
      <trkpt lat="41.27056" lon="9.39626">
        <ele>4.94</ele>
        <time>2017-10-09T10:05:32Z</time>
      </trkpt>
      <trkpt lat="41.27055" lon="9.39604">
        <ele>4.94</ele>
        <time>2017-10-09T10:05:52Z</time>
      </trkpt>
      <trkpt lat="41.27054" lon="9.39587">
        <ele>3.98</ele>
        <time>2017-10-09T10:06:10Z</time>
      </trkpt>
      <trkpt lat="41.27052" lon="9.3957">
        <ele>3.98</ele>
        <time>2017-10-09T10:06:27Z</time>
      </trkpt>
      <trkpt lat="41.27051" lon="9.39554">
        <ele>3.98</ele>
        <time>2017-10-09T10:06:43Z</time>
      </trkpt>
      <trkpt lat="41.2705" lon="9.39537">
        <ele>3.5</ele>
        <time>2017-10-09T10:07:00Z</time>
      </trkpt>
      <trkpt lat="41.27049" lon="9.39523">
        <ele>3.02</ele>
        <time>2017-10-09T10:07:15Z</time>
      </trkpt>
      <trkpt lat="41.27047" lon="9.39509">
        <ele>3.5</ele>
        <time>2017-10-09T10:07:30Z</time>
      </trkpt>
      <trkpt lat="41.27047" lon="9.39492">
        <ele>3.5</ele>
        <time>2017-10-09T10:07:47Z</time>
      </trkpt>
      <trkpt lat="41.27047" lon="9.39475">
        <ele>3.02</ele>
        <time>2017-10-09T10:08:03Z</time>
      </trkpt>
      <trkpt lat="41.27046" lon="9.39457">
        <ele>2.54</ele>
        <time>2017-10-09T10:08:21Z</time>
      </trkpt>
      <trkpt lat="41.27045" lon="9.39439">
        <ele>2.54</ele>
        <time>2017-10-09T10:08:38Z</time>
      </trkpt>
      <trkpt lat="41.27042" lon="9.39419">
        <ele>3.02</ele>
        <time>2017-10-09T10:08:56Z</time>
      </trkpt>
      <trkpt lat="41.27041" lon="9.39398">
        <ele>2.54</ele>
        <time>2017-10-09T10:09:16Z</time>
      </trkpt>
      <trkpt lat="41.27039" lon="9.39374">
        <ele>2.54</ele>
        <time>2017-10-09T10:09:38Z</time>
      </trkpt>
      <trkpt lat="41.27038" lon="9.39353">
        <ele>2.54</ele>
        <time>2017-10-09T10:09:59Z</time>
      </trkpt>
      <trkpt lat="41.27036" lon="9.39331">
        <ele>2.54</ele>
        <time>2017-10-09T10:10:21Z</time>
      </trkpt>
      <trkpt lat="41.27035" lon="9.39313">
        <ele>3.02</ele>
        <time>2017-10-09T10:10:40Z</time>
      </trkpt>
      <trkpt lat="41.27034" lon="9.39299">
        <ele>3.5</ele>
        <time>2017-10-09T10:10:56Z</time>
      </trkpt>
      <trkpt lat="41.27032" lon="9.39282">
        <ele>3.02</ele>
        <time>2017-10-09T10:11:14Z</time>
      </trkpt>
      <trkpt lat="41.2703" lon="9.39264">
        <ele>3.02</ele>
        <time>2017-10-09T10:11:34Z</time>
      </trkpt>
      <trkpt lat="41.27029" lon="9.39244">
        <ele>2.54</ele>
        <time>2017-10-09T10:11:55Z</time>
      </trkpt>
      <trkpt lat="41.27028" lon="9.39229">
        <ele>2.06</ele>
        <time>2017-10-09T10:12:11Z</time>
      </trkpt>
      <trkpt lat="41.27027" lon="9.39212">
        <ele>1.58</ele>
        <time>2017-10-09T10:12:28Z</time>
      </trkpt>
      <trkpt lat="41.27025" lon="9.39187">
        <ele>1.58</ele>
        <time>2017-10-09T10:12:46Z</time>
      </trkpt>
      <trkpt lat="41.27022" lon="9.39143">
        <ele>1.58</ele>
        <time>2017-10-09T10:13:06Z</time>
      </trkpt>
      <trkpt lat="41.27019" lon="9.39102">
        <ele>0.62</ele>
        <time>2017-10-09T10:13:22Z</time>
      </trkpt>
      <trkpt lat="41.27016" lon="9.39051">
        <ele>1.1</ele>
        <time>2017-10-09T10:13:41Z</time>
      </trkpt>
      <trkpt lat="41.27014" lon="9.39007">
        <ele>0.62</ele>
        <time>2017-10-09T10:13:57Z</time>
      </trkpt>
      <trkpt lat="41.27012" lon="9.38958">
        <ele>1.58</ele>
        <time>2017-10-09T10:14:15Z</time>
      </trkpt>
      <trkpt lat="41.27008" lon="9.38907">
        <ele>1.58</ele>
        <time>2017-10-09T10:14:34Z</time>
      </trkpt>
      <trkpt lat="41.27006" lon="9.38863">
        <ele>0.14</ele>
        <time>2017-10-09T10:14:50Z</time>
      </trkpt>
      <trkpt lat="41.27004" lon="9.38817">
        <ele>0.14</ele>
        <time>2017-10-09T10:15:07Z</time>
      </trkpt>
      <trkpt lat="41.27" lon="9.38761">
        <ele>1.1</ele>
        <time>2017-10-09T10:15:25Z</time>
      </trkpt>
      <trkpt lat="41.26997" lon="9.38697">
        <ele>0.14</ele>
        <time>2017-10-09T10:15:44Z</time>
      </trkpt>
      <trkpt lat="41.26995" lon="9.38631">
        <ele>-0.34</ele>
        <time>2017-10-09T10:16:03Z</time>
      </trkpt>
      <trkpt lat="41.26992" lon="9.38572">
        <ele>0.62</ele>
        <time>2017-10-09T10:16:20Z</time>
      </trkpt>
      <trkpt lat="41.26989" lon="9.3851">
        <ele>0.62</ele>
        <time>2017-10-09T10:16:38Z</time>
      </trkpt>
      <trkpt lat="41.26987" lon="9.38448">
        <ele>0.14</ele>
        <time>2017-10-09T10:16:56Z</time>
      </trkpt>
      <trkpt lat="41.26984" lon="9.38392">
        <ele>1.1</ele>
        <time>2017-10-09T10:17:12Z</time>
      </trkpt>
      <trkpt lat="41.26981" lon="9.38329">
        <ele>0.62</ele>
        <time>2017-10-09T10:17:30Z</time>
      </trkpt>
      <trkpt lat="41.26978" lon="9.38265">
        <ele>0.14</ele>
        <time>2017-10-09T10:17:48Z</time>
      </trkpt>
      <trkpt lat="41.26975" lon="9.38196">
        <ele>1.1</ele>
        <time>2017-10-09T10:18:08Z</time>
      </trkpt>
      <trkpt lat="41.26972" lon="9.38139">
        <ele>1.58</ele>
        <time>2017-10-09T10:18:24Z</time>
      </trkpt>
      <trkpt lat="41.26968" lon="9.38073">
        <ele>1.58</ele>
        <time>2017-10-09T10:18:43Z</time>
      </trkpt>
      <trkpt lat="41.26965" lon="9.3801">
        <ele>1.1</ele>
        <time>2017-10-09T10:19:01Z</time>
      </trkpt>
      <trkpt lat="41.26962" lon="9.3794">
        <ele>1.58</ele>
        <time>2017-10-09T10:19:19Z</time>
      </trkpt>
      <trkpt lat="41.26958" lon="9.37855">
        <ele>1.58</ele>
        <time>2017-10-09T10:19:40Z</time>
      </trkpt>
      <trkpt lat="41.26955" lon="9.37774">
        <ele>1.1</ele>
        <time>2017-10-09T10:20:00Z</time>
      </trkpt>
      <trkpt lat="41.26952" lon="9.37692">
        <ele>1.1</ele>
        <time>2017-10-09T10:20:20Z</time>
      </trkpt>
      <trkpt lat="41.2695" lon="9.37626">
        <ele>0.62</ele>
        <time>2017-10-09T10:20:36Z</time>
      </trkpt>
      <trkpt lat="41.26947" lon="9.37553">
        <ele>1.1</ele>
        <time>2017-10-09T10:20:54Z</time>
      </trkpt>
      <trkpt lat="41.26946" lon="9.37489">
        <ele>1.1</ele>
        <time>2017-10-09T10:21:10Z</time>
      </trkpt>
      <trkpt lat="41.26945" lon="9.3742">
        <ele>0.62</ele>
        <time>2017-10-09T10:21:27Z</time>
      </trkpt>
      <trkpt lat="41.26944" lon="9.37349">
        <ele>1.58</ele>
        <time>2017-10-09T10:21:44Z</time>
      </trkpt>
      <trkpt lat="41.26943" lon="9.37283">
        <ele>0.62</ele>
        <time>2017-10-09T10:22:00Z</time>
      </trkpt>
      <trkpt lat="41.26941" lon="9.37214">
        <ele>0.62</ele>
        <time>2017-10-09T10:22:17Z</time>
      </trkpt>
      <trkpt lat="41.2694" lon="9.37137">
        <ele>1.1</ele>
        <time>2017-10-09T10:22:36Z</time>
      </trkpt>
      <trkpt lat="41.26938" lon="9.37064">
        <ele>0.14</ele>
        <time>2017-10-09T10:22:54Z</time>
      </trkpt>
      <trkpt lat="41.26936" lon="9.36983">
        <ele>0.14</ele>
        <time>2017-10-09T10:23:14Z</time>
      </trkpt>
      <trkpt lat="41.26935" lon="9.3691">
        <ele>0.14</ele>
        <time>2017-10-09T10:23:32Z</time>
      </trkpt>
      <trkpt lat="41.26934" lon="9.36842">
        <ele>0.62</ele>
        <time>2017-10-09T10:23:49Z</time>
      </trkpt>
      <trkpt lat="41.26934" lon="9.36778">
        <ele>0.14</ele>
        <time>2017-10-09T10:24:05Z</time>
      </trkpt>
      <trkpt lat="41.26933" lon="9.36709">
        <ele>-0.34</ele>
        <time>2017-10-09T10:24:22Z</time>
      </trkpt>
      <trkpt lat="41.26934" lon="9.36641">
        <ele>-0.34</ele>
        <time>2017-10-09T10:24:39Z</time>
      </trkpt>
      <trkpt lat="41.26933" lon="9.36581">
        <ele>0.62</ele>
        <time>2017-10-09T10:24:54Z</time>
      </trkpt>
      <trkpt lat="41.26934" lon="9.36512">
        <ele>0.14</ele>
        <time>2017-10-09T10:25:11Z</time>
      </trkpt>
      <trkpt lat="41.26933" lon="9.36443">
        <ele>0.62</ele>
        <time>2017-10-09T10:25:28Z</time>
      </trkpt>
      <trkpt lat="41.26932" lon="9.36362">
        <ele>0.62</ele>
        <time>2017-10-09T10:25:48Z</time>
      </trkpt>
      <trkpt lat="41.26932" lon="9.36299">
        <ele>0.62</ele>
        <time>2017-10-09T10:26:04Z</time>
      </trkpt>
      <trkpt lat="41.26931" lon="9.36236">
        <ele>1.1</ele>
        <time>2017-10-09T10:26:20Z</time>
      </trkpt>
      <trkpt lat="41.2693" lon="9.36156">
        <ele>1.1</ele>
        <time>2017-10-09T10:26:40Z</time>
      </trkpt>
      <trkpt lat="41.26929" lon="9.36083">
        <ele>0.14</ele>
        <time>2017-10-09T10:26:58Z</time>
      </trkpt>
      <trkpt lat="41.26927" lon="9.3601">
        <ele>0.62</ele>
        <time>2017-10-09T10:27:16Z</time>
      </trkpt>
      <trkpt lat="41.26928" lon="9.3595">
        <ele>1.1</ele>
        <time>2017-10-09T10:27:31Z</time>
      </trkpt>
      <trkpt lat="41.26929" lon="9.35884">
        <ele>1.1</ele>
        <time>2017-10-09T10:27:47Z</time>
      </trkpt>
      <trkpt lat="41.2693" lon="9.35802">
        <ele>1.58</ele>
        <time>2017-10-09T10:28:07Z</time>
      </trkpt>
      <trkpt lat="41.26933" lon="9.35738">
        <ele>1.1</ele>
        <time>2017-10-09T10:28:23Z</time>
      </trkpt>
      <trkpt lat="41.26936" lon="9.35678">
        <ele>1.1</ele>
        <time>2017-10-09T10:28:38Z</time>
      </trkpt>
      <trkpt lat="41.2694" lon="9.35609">
        <ele>1.1</ele>
        <time>2017-10-09T10:28:55Z</time>
      </trkpt>
      <trkpt lat="41.26944" lon="9.35532">
        <ele>1.1</ele>
        <time>2017-10-09T10:29:14Z</time>
      </trkpt>
      <trkpt lat="41.26948" lon="9.35455">
        <ele>0.14</ele>
        <time>2017-10-09T10:29:33Z</time>
      </trkpt>
      <trkpt lat="41.26953" lon="9.35391">
        <ele>0.14</ele>
        <time>2017-10-09T10:29:49Z</time>
      </trkpt>
      <trkpt lat="41.2696" lon="9.35308">
        <ele>0.62</ele>
        <time>2017-10-09T10:30:09Z</time>
      </trkpt>
      <trkpt lat="41.26967" lon="9.35239">
        <ele>0.14</ele>
        <time>2017-10-09T10:30:26Z</time>
      </trkpt>
      <trkpt lat="41.26973" lon="9.35162">
        <ele>1.1</ele>
        <time>2017-10-09T10:30:45Z</time>
      </trkpt>
      <trkpt lat="41.2698" lon="9.35093">
        <ele>0.62</ele>
        <time>2017-10-09T10:31:02Z</time>
      </trkpt>
      <trkpt lat="41.26986" lon="9.35031">
        <ele>0.14</ele>
        <time>2017-10-09T10:31:17Z</time>
      </trkpt>
      <trkpt lat="41.26992" lon="9.3497">
        <ele>-2.75</ele>
        <time>2017-10-09T10:31:32Z</time>
      </trkpt>
      <trkpt lat="41.26998" lon="9.34915">
        <ele>-1.79</ele>
        <time>2017-10-09T10:31:46Z</time>
      </trkpt>
      <trkpt lat="41.27004" lon="9.34855">
        <ele>-1.3</ele>
        <time>2017-10-09T10:32:01Z</time>
      </trkpt>
      <trkpt lat="41.27012" lon="9.34797">
        <ele>-0.34</ele>
        <time>2017-10-09T10:32:16Z</time>
      </trkpt>
      <trkpt lat="41.27021" lon="9.34734">
        <ele>0.62</ele>
        <time>2017-10-09T10:32:32Z</time>
      </trkpt>
      <trkpt lat="41.2703" lon="9.34674">
        <ele>1.1</ele>
        <time>2017-10-09T10:32:47Z</time>
      </trkpt>
      <trkpt lat="41.27039" lon="9.3461">
        <ele>1.1</ele>
        <time>2017-10-09T10:33:03Z</time>
      </trkpt>
      <trkpt lat="41.27049" lon="9.34553">
        <ele>-0.34</ele>
        <time>2017-10-09T10:33:17Z</time>
      </trkpt>
      <trkpt lat="41.27057" lon="9.34506">
        <ele>0.62</ele>
        <time>2017-10-09T10:33:29Z</time>
      </trkpt>
      <trkpt lat="41.2707" lon="9.34435">
        <ele>0.62</ele>
        <time>2017-10-09T10:33:47Z</time>
      </trkpt>
      <trkpt lat="41.27086" lon="9.34356">
        <ele>1.1</ele>
        <time>2017-10-09T10:34:07Z</time>
      </trkpt>
      <trkpt lat="41.271" lon="9.34285">
        <ele>1.58</ele>
        <time>2017-10-09T10:34:25Z</time>
      </trkpt>
      <trkpt lat="41.27115" lon="9.34214">
        <ele>0.62</ele>
        <time>2017-10-09T10:34:43Z</time>
      </trkpt>
      <trkpt lat="41.27133" lon="9.34145">
        <ele>0.14</ele>
        <time>2017-10-09T10:35:01Z</time>
      </trkpt>
      <trkpt lat="41.27149" lon="9.34087">
        <ele>0.14</ele>
        <time>2017-10-09T10:35:16Z</time>
      </trkpt>
      <trkpt lat="41.27171" lon="9.3403">
        <ele>0.14</ele>
        <time>2017-10-09T10:35:32Z</time>
      </trkpt>
      <trkpt lat="41.27194" lon="9.33975">
        <ele>0.14</ele>
        <time>2017-10-09T10:35:48Z</time>
      </trkpt>
      <trkpt lat="41.2722" lon="9.33922">
        <ele>-0.82</ele>
        <time>2017-10-09T10:36:04Z</time>
      </trkpt>
      <trkpt lat="41.27255" lon="9.33855">
        <ele>-1.3</ele>
        <time>2017-10-09T10:36:25Z</time>
      </trkpt>
      <trkpt lat="41.27281" lon="9.33807">
        <ele>-0.82</ele>
        <time>2017-10-09T10:36:40Z</time>
      </trkpt>
      <trkpt lat="41.27309" lon="9.33759">
        <ele>-0.34</ele>
        <time>2017-10-09T10:36:55Z</time>
      </trkpt>
      <trkpt lat="41.27339" lon="9.33706">
        <ele>-0.34</ele>
        <time>2017-10-09T10:37:12Z</time>
      </trkpt>
      <trkpt lat="41.27374" lon="9.33646">
        <ele>-0.82</ele>
        <time>2017-10-09T10:37:31Z</time>
      </trkpt>
      <trkpt lat="41.27409" lon="9.3359">
        <ele>0.14</ele>
        <time>2017-10-09T10:37:49Z</time>
      </trkpt>
      <trkpt lat="41.27439" lon="9.33535">
        <ele>0.14</ele>
        <time>2017-10-09T10:38:06Z</time>
      </trkpt>
      <trkpt lat="41.2747" lon="9.33481">
        <ele>0.62</ele>
        <time>2017-10-09T10:38:23Z</time>
      </trkpt>
      <trkpt lat="41.27499" lon="9.33432">
        <ele>0.62</ele>
        <time>2017-10-09T10:38:38Z</time>
      </trkpt>
      <trkpt lat="41.27531" lon="9.33376">
        <ele>1.58</ele>
        <time>2017-10-09T10:38:55Z</time>
      </trkpt>
      <trkpt lat="41.27563" lon="9.33318">
        <ele>1.58</ele>
        <time>2017-10-09T10:39:13Z</time>
      </trkpt>
      <trkpt lat="41.2759" lon="9.33274">
        <ele>0.62</ele>
        <time>2017-10-09T10:39:27Z</time>
      </trkpt>
      <trkpt lat="41.27623" lon="9.33222">
        <ele>1.1</ele>
        <time>2017-10-09T10:39:44Z</time>
      </trkpt>
      <trkpt lat="41.27656" lon="9.33165">
        <ele>1.1</ele>
        <time>2017-10-09T10:40:02Z</time>
      </trkpt>
      <trkpt lat="41.27688" lon="9.33112">
        <ele>1.58</ele>
        <time>2017-10-09T10:40:19Z</time>
      </trkpt>
      <trkpt lat="41.27722" lon="9.33055">
        <ele>1.1</ele>
        <time>2017-10-09T10:40:37Z</time>
      </trkpt>
      <trkpt lat="41.27755" lon="9.33001">
        <ele>1.1</ele>
        <time>2017-10-09T10:40:54Z</time>
      </trkpt>
      <trkpt lat="41.27786" lon="9.3295">
        <ele>2.06</ele>
        <time>2017-10-09T10:41:10Z</time>
      </trkpt>
      <trkpt lat="41.27823" lon="9.3289">
        <ele>1.1</ele>
        <time>2017-10-09T10:41:29Z</time>
      </trkpt>
      <trkpt lat="41.27854" lon="9.32839">
        <ele>0.62</ele>
        <time>2017-10-09T10:41:45Z</time>
      </trkpt>
      <trkpt lat="41.27884" lon="9.3279">
        <ele>0.62</ele>
        <time>2017-10-09T10:42:01Z</time>
      </trkpt>
      <trkpt lat="41.27914" lon="9.32742">
        <ele>0.14</ele>
        <time>2017-10-09T10:42:17Z</time>
      </trkpt>
      <trkpt lat="41.27941" lon="9.32698">
        <ele>0.62</ele>
        <time>2017-10-09T10:42:32Z</time>
      </trkpt>
      <trkpt lat="41.27971" lon="9.32648">
        <ele>0.62</ele>
        <time>2017-10-09T10:42:49Z</time>
      </trkpt>
      <trkpt lat="41.28003" lon="9.32596">
        <ele>1.1</ele>
        <time>2017-10-09T10:43:07Z</time>
      </trkpt>
      <trkpt lat="41.28031" lon="9.3255">
        <ele>0.62</ele>
        <time>2017-10-09T10:43:23Z</time>
      </trkpt>
      <trkpt lat="41.28062" lon="9.32497">
        <ele>0.14</ele>
        <time>2017-10-09T10:44:00Z</time>
      </trkpt>
      <trkpt lat="41.28093" lon="9.32449">
        <ele>0.14</ele>
        <time>2017-10-09T10:44:17Z</time>
      </trkpt>
      <trkpt lat="41.28118" lon="9.32409">
        <ele>1.1</ele>
        <time>2017-10-09T10:44:31Z</time>
      </trkpt>
      <trkpt lat="41.28154" lon="9.32352">
        <ele>1.1</ele>
        <time>2017-10-09T10:44:51Z</time>
      </trkpt>
      <trkpt lat="41.28185" lon="9.32303">
        <ele>1.1</ele>
        <time>2017-10-09T10:45:08Z</time>
      </trkpt>
      <trkpt lat="41.28215" lon="9.32254">
        <ele>1.1</ele>
        <time>2017-10-09T10:45:25Z</time>
      </trkpt>
      <trkpt lat="41.28247" lon="9.32202">
        <ele>0.14</ele>
        <time>2017-10-09T10:45:43Z</time>
      </trkpt>
      <trkpt lat="41.28276" lon="9.32158">
        <ele>-0.34</ele>
        <time>2017-10-09T10:45:59Z</time>
      </trkpt>
      <trkpt lat="41.2831" lon="9.32104">
        <ele>-0.34</ele>
        <time>2017-10-09T10:46:18Z</time>
      </trkpt>
      <trkpt lat="41.28335" lon="9.32063">
        <ele>0.14</ele>
        <time>2017-10-09T10:46:32Z</time>
      </trkpt>
      <trkpt lat="41.28366" lon="9.32014">
        <ele>0.14</ele>
        <time>2017-10-09T10:46:49Z</time>
      </trkpt>
      <trkpt lat="41.28401" lon="9.31959">
        <ele>0.14</ele>
        <time>2017-10-09T10:47:08Z</time>
      </trkpt>
      <trkpt lat="41.28429" lon="9.31914">
        <ele>-0.82</ele>
        <time>2017-10-09T10:47:23Z</time>
      </trkpt>
      <trkpt lat="41.28458" lon="9.31867">
        <ele>0.62</ele>
        <time>2017-10-09T10:47:39Z</time>
      </trkpt>
      <trkpt lat="41.28482" lon="9.31826">
        <ele>1.1</ele>
        <time>2017-10-09T10:47:53Z</time>
      </trkpt>
      <trkpt lat="41.28513" lon="9.31773">
        <ele>-0.34</ele>
        <time>2017-10-09T10:48:11Z</time>
      </trkpt>
      <trkpt lat="41.28539" lon="9.31728">
        <ele>-0.82</ele>
        <time>2017-10-09T10:48:26Z</time>
      </trkpt>
      <trkpt lat="41.28564" lon="9.31686">
        <ele>-0.34</ele>
        <time>2017-10-09T10:48:40Z</time>
      </trkpt>
      <trkpt lat="41.28591" lon="9.31643">
        <ele>-0.34</ele>
        <time>2017-10-09T10:48:55Z</time>
      </trkpt>
      <trkpt lat="41.28615" lon="9.31601">
        <ele>-0.34</ele>
        <time>2017-10-09T10:49:09Z</time>
      </trkpt>
      <trkpt lat="41.28643" lon="9.31554">
        <ele>-0.82</ele>
        <time>2017-10-09T10:49:25Z</time>
      </trkpt>
      <trkpt lat="41.28672" lon="9.31508">
        <ele>-0.82</ele>
        <time>2017-10-09T10:49:41Z</time>
      </trkpt>
      <trkpt lat="41.28694" lon="9.3147">
        <ele>-0.34</ele>
        <time>2017-10-09T10:49:54Z</time>
      </trkpt>
      <trkpt lat="41.28722" lon="9.31423">
        <ele>-0.34</ele>
        <time>2017-10-09T10:50:10Z</time>
      </trkpt>
      <trkpt lat="41.28742" lon="9.31387">
        <ele>-0.82</ele>
        <time>2017-10-09T10:50:22Z</time>
      </trkpt>
      <trkpt lat="41.28772" lon="9.31337">
        <ele>0.14</ele>
        <time>2017-10-09T10:50:39Z</time>
      </trkpt>
      <trkpt lat="41.28796" lon="9.31297">
        <ele>0.14</ele>
        <time>2017-10-09T10:50:53Z</time>
      </trkpt>
      <trkpt lat="41.28823" lon="9.31249">
        <ele>0.14</ele>
        <time>2017-10-09T10:51:09Z</time>
      </trkpt>
      <trkpt lat="41.28853" lon="9.31199">
        <ele>-0.34</ele>
        <time>2017-10-09T10:51:26Z</time>
      </trkpt>
      <trkpt lat="41.28881" lon="9.3115">
        <ele>-0.34</ele>
        <time>2017-10-09T10:51:42Z</time>
      </trkpt>
      <trkpt lat="41.28911" lon="9.31103">
        <ele>-1.3</ele>
        <time>2017-10-09T10:51:58Z</time>
      </trkpt>
      <trkpt lat="41.28934" lon="9.31065">
        <ele>-0.34</ele>
        <time>2017-10-09T10:52:11Z</time>
      </trkpt>
      <trkpt lat="41.28963" lon="9.31023">
        <ele>-0.34</ele>
        <time>2017-10-09T10:52:26Z</time>
      </trkpt>
      <trkpt lat="41.28994" lon="9.30979">
        <ele>-0.34</ele>
        <time>2017-10-09T10:52:42Z</time>
      </trkpt>
      <trkpt lat="41.29026" lon="9.30934">
        <ele>-0.82</ele>
        <time>2017-10-09T10:52:58Z</time>
      </trkpt>
      <trkpt lat="41.29055" lon="9.30892">
        <ele>0.14</ele>
        <time>2017-10-09T10:53:13Z</time>
      </trkpt>
      <trkpt lat="41.29091" lon="9.30841">
        <ele>-0.34</ele>
        <time>2017-10-09T10:53:31Z</time>
      </trkpt>
      <trkpt lat="41.29121" lon="9.308">
        <ele>-0.82</ele>
        <time>2017-10-09T10:53:46Z</time>
      </trkpt>
      <trkpt lat="41.29149" lon="9.30761">
        <ele>-0.34</ele>
        <time>2017-10-09T10:54:00Z</time>
      </trkpt>
      <trkpt lat="41.29184" lon="9.30713">
        <ele>0.14</ele>
        <time>2017-10-09T10:54:18Z</time>
      </trkpt>
      <trkpt lat="41.29218" lon="9.30663">
        <ele>0.62</ele>
        <time>2017-10-09T10:54:36Z</time>
      </trkpt>
      <trkpt lat="41.2925" lon="9.30616">
        <ele>-0.34</ele>
        <time>2017-10-09T10:54:53Z</time>
      </trkpt>
      <trkpt lat="41.29281" lon="9.30571">
        <ele>0.14</ele>
        <time>2017-10-09T10:55:09Z</time>
      </trkpt>
      <trkpt lat="41.29313" lon="9.30528">
        <ele>0.14</ele>
        <time>2017-10-09T10:55:25Z</time>
      </trkpt>
      <trkpt lat="41.2934" lon="9.30488">
        <ele>-0.34</ele>
        <time>2017-10-09T10:55:39Z</time>
      </trkpt>
      <trkpt lat="41.29369" lon="9.30447">
        <ele>0.14</ele>
        <time>2017-10-09T10:55:54Z</time>
      </trkpt>
      <trkpt lat="41.29392" lon="9.30415">
        <ele>-0.34</ele>
        <time>2017-10-09T10:56:06Z</time>
      </trkpt>
      <trkpt lat="41.29424" lon="9.30369">
        <ele>-0.34</ele>
        <time>2017-10-09T10:56:23Z</time>
      </trkpt>
      <trkpt lat="41.29446" lon="9.30338">
        <ele>-0.82</ele>
        <time>2017-10-09T10:56:16Z</time>
      </trkpt>
      <trkpt lat="41.29475" lon="9.30299">
        <ele>-0.34</ele>
        <time>2017-10-09T10:56:31Z</time>
      </trkpt>
      <trkpt lat="41.29504" lon="9.30259">
        <ele>0.14</ele>
        <time>2017-10-09T10:56:46Z</time>
      </trkpt>
      <trkpt lat="41.29531" lon="9.30222">
        <ele>1.58</ele>
        <time>2017-10-09T10:57:00Z</time>
      </trkpt>
      <trkpt lat="41.29558" lon="9.30184">
        <ele>1.1</ele>
        <time>2017-10-09T10:57:14Z</time>
      </trkpt>
      <trkpt lat="41.29585" lon="9.30146">
        <ele>1.58</ele>
        <time>2017-10-09T10:57:28Z</time>
      </trkpt>
      <trkpt lat="41.2962" lon="9.30101">
        <ele>1.58</ele>
        <time>2017-10-09T10:57:45Z</time>
      </trkpt>
      <trkpt lat="41.29647" lon="9.30066">
        <ele>2.06</ele>
        <time>2017-10-09T10:57:58Z</time>
      </trkpt>
      <trkpt lat="41.29676" lon="9.30028">
        <ele>2.06</ele>
        <time>2017-10-09T10:58:12Z</time>
      </trkpt>
      <trkpt lat="41.29706" lon="9.29991">
        <ele>1.1</ele>
        <time>2017-10-09T10:58:26Z</time>
      </trkpt>
      <trkpt lat="41.29734" lon="9.29951">
        <ele>0.62</ele>
        <time>2017-10-09T10:58:40Z</time>
      </trkpt>
      <trkpt lat="41.29767" lon="9.29905">
        <ele>0.62</ele>
        <time>2017-10-09T10:58:56Z</time>
      </trkpt>
      <trkpt lat="41.29793" lon="9.29867">
        <ele>0.62</ele>
        <time>2017-10-09T10:59:09Z</time>
      </trkpt>
      <trkpt lat="41.29821" lon="9.29827">
        <ele>0.62</ele>
        <time>2017-10-09T10:59:23Z</time>
      </trkpt>
      <trkpt lat="41.29843" lon="9.29796">
        <ele>-0.34</ele>
        <time>2017-10-09T10:59:34Z</time>
      </trkpt>
      <trkpt lat="41.29869" lon="9.29756">
        <ele>0.14</ele>
        <time>2017-10-09T10:59:48Z</time>
      </trkpt>
      <trkpt lat="41.29899" lon="9.29715">
        <ele>-0.82</ele>
        <time>2017-10-09T11:00:03Z</time>
      </trkpt>
      <trkpt lat="41.2993" lon="9.29664">
        <ele>-0.82</ele>
        <time>2017-10-09T11:00:20Z</time>
      </trkpt>
      <trkpt lat="41.29957" lon="9.29621">
        <ele>-0.82</ele>
        <time>2017-10-09T11:00:35Z</time>
      </trkpt>
      <trkpt lat="41.29983" lon="9.29576">
        <ele>-1.3</ele>
        <time>2017-10-09T11:00:50Z</time>
      </trkpt>
      <trkpt lat="41.30007" lon="9.29534">
        <ele>-2.27</ele>
        <time>2017-10-09T11:01:04Z</time>
      </trkpt>
      <trkpt lat="41.30034" lon="9.2949">
        <ele>-1.3</ele>
        <time>2017-10-09T11:01:19Z</time>
      </trkpt>
      <trkpt lat="41.30058" lon="9.29448">
        <ele>-2.27</ele>
        <time>2017-10-09T11:01:33Z</time>
      </trkpt>
      <trkpt lat="41.30085" lon="9.29406">
        <ele>-1.3</ele>
        <time>2017-10-09T11:01:48Z</time>
      </trkpt>
      <trkpt lat="41.30116" lon="9.29363">
        <ele>-0.82</ele>
        <time>2017-10-09T11:02:04Z</time>
      </trkpt>
      <trkpt lat="41.30141" lon="9.2933">
        <ele>0.62</ele>
        <time>2017-10-09T11:02:17Z</time>
      </trkpt>
      <trkpt lat="41.30173" lon="9.29289">
        <ele>1.58</ele>
        <time>2017-10-09T11:02:33Z</time>
      </trkpt>
      <trkpt lat="41.30202" lon="9.29252">
        <ele>2.06</ele>
        <time>2017-10-09T11:02:47Z</time>
      </trkpt>
      <trkpt lat="41.3023" lon="9.29214">
        <ele>3.02</ele>
        <time>2017-10-09T11:03:01Z</time>
      </trkpt>
      <trkpt lat="41.30256" lon="9.29179">
        <ele>3.02</ele>
        <time>2017-10-09T11:03:14Z</time>
      </trkpt>
      <trkpt lat="41.30285" lon="9.29143">
        <ele>0.62</ele>
        <time>2017-10-09T11:03:28Z</time>
      </trkpt>
      <trkpt lat="41.30309" lon="9.29112">
        <ele>1.58</ele>
        <time>2017-10-09T11:03:40Z</time>
      </trkpt>
      <trkpt lat="41.30335" lon="9.29077">
        <ele>1.58</ele>
        <time>2017-10-09T11:03:53Z</time>
      </trkpt>
      <trkpt lat="41.3036" lon="9.29042">
        <ele>2.06</ele>
        <time>2017-10-09T11:04:06Z</time>
      </trkpt>
      <trkpt lat="41.30384" lon="9.2901">
        <ele>1.58</ele>
        <time>2017-10-09T11:04:18Z</time>
      </trkpt>
      <trkpt lat="41.3041" lon="9.28977">
        <ele>2.06</ele>
        <time>2017-10-09T11:04:31Z</time>
      </trkpt>
      <trkpt lat="41.30437" lon="9.28939">
        <ele>1.1</ele>
        <time>2017-10-09T11:04:45Z</time>
      </trkpt>
      <trkpt lat="41.30459" lon="9.28906">
        <ele>1.1</ele>
        <time>2017-10-09T11:04:57Z</time>
      </trkpt>
      <trkpt lat="41.30476" lon="9.28885">
        <ele>1.1</ele>
        <time>2017-10-09T11:05:05Z</time>
      </trkpt>
      <trkpt lat="41.30501" lon="9.28849">
        <ele>-0.82</ele>
        <time>2017-10-09T11:05:18Z</time>
      </trkpt>
      <trkpt lat="41.30527" lon="9.28812">
        <ele>-0.82</ele>
        <time>2017-10-09T11:05:31Z</time>
      </trkpt>
      <trkpt lat="41.30557" lon="9.28771">
        <ele>-0.34</ele>
        <time>2017-10-09T11:05:46Z</time>
      </trkpt>
      <trkpt lat="41.30587" lon="9.28728">
        <ele>-0.82</ele>
        <time>2017-10-09T11:06:01Z</time>
      </trkpt>
      <trkpt lat="41.3062" lon="9.28683">
        <ele>-1.3</ele>
        <time>2017-10-09T11:06:17Z</time>
      </trkpt>
      <trkpt lat="41.30642" lon="9.28651">
        <ele>-2.75</ele>
        <time>2017-10-09T11:06:28Z</time>
      </trkpt>
      <trkpt lat="41.30662" lon="9.28623">
        <ele>-2.27</ele>
        <time>2017-10-09T11:06:38Z</time>
      </trkpt>
      <trkpt lat="41.30691" lon="9.28582">
        <ele>-1.3</ele>
        <time>2017-10-09T11:06:53Z</time>
      </trkpt>
      <trkpt lat="41.30715" lon="9.28545">
        <ele>-2.27</ele>
        <time>2017-10-09T11:07:06Z</time>
      </trkpt>
      <trkpt lat="41.30738" lon="9.28512">
        <ele>-1.79</ele>
        <time>2017-10-09T11:07:18Z</time>
      </trkpt>
      <trkpt lat="41.30762" lon="9.28478">
        <ele>-1.3</ele>
        <time>2017-10-09T11:07:30Z</time>
      </trkpt>
      <trkpt lat="41.30787" lon="9.28442">
        <ele>0.62</ele>
        <time>2017-10-09T11:07:43Z</time>
      </trkpt>
      <trkpt lat="41.30812" lon="9.28407">
        <ele>0.62</ele>
        <time>2017-10-09T11:07:55Z</time>
      </trkpt>
      <trkpt lat="41.30841" lon="9.28364">
        <ele>0.62</ele>
        <time>2017-10-09T11:08:10Z</time>
      </trkpt>
      <trkpt lat="41.30866" lon="9.28326">
        <ele>0.14</ele>
        <time>2017-10-09T11:08:23Z</time>
      </trkpt>
      <trkpt lat="41.30897" lon="9.2828">
        <ele>-0.82</ele>
        <time>2017-10-09T11:08:39Z</time>
      </trkpt>
      <trkpt lat="41.30923" lon="9.2824">
        <ele>-0.82</ele>
        <time>2017-10-09T11:08:53Z</time>
      </trkpt>
      <trkpt lat="41.30948" lon="9.28202">
        <ele>-1.3</ele>
        <time>2017-10-09T11:09:06Z</time>
      </trkpt>
      <trkpt lat="41.30971" lon="9.28168">
        <ele>-3.23</ele>
        <time>2017-10-09T11:09:18Z</time>
      </trkpt>
      <trkpt lat="41.30996" lon="9.28131">
        <ele>-3.23</ele>
        <time>2017-10-09T11:09:31Z</time>
      </trkpt>
      <trkpt lat="41.31016" lon="9.28099">
        <ele>-3.71</ele>
        <time>2017-10-09T11:09:42Z</time>
      </trkpt>
      <trkpt lat="41.31039" lon="9.28064">
        <ele>-4.19</ele>
        <time>2017-10-09T11:09:54Z</time>
      </trkpt>
      <trkpt lat="41.31061" lon="9.2803">
        <ele>-2.75</ele>
        <time>2017-10-09T11:10:06Z</time>
      </trkpt>
      <trkpt lat="41.31082" lon="9.27998">
        <ele>-2.75</ele>
        <time>2017-10-09T11:10:17Z</time>
      </trkpt>
      <trkpt lat="41.31105" lon="9.27962">
        <ele>-2.75</ele>
        <time>2017-10-09T11:10:29Z</time>
      </trkpt>
      <trkpt lat="41.3113" lon="9.27925">
        <ele>-1.79</ele>
        <time>2017-10-09T11:10:42Z</time>
      </trkpt>
      <trkpt lat="41.31159" lon="9.27883">
        <ele>-0.82</ele>
        <time>2017-10-09T11:10:57Z</time>
      </trkpt>
      <trkpt lat="41.31185" lon="9.27842">
        <ele>-1.3</ele>
        <time>2017-10-09T11:11:11Z</time>
      </trkpt>
      <trkpt lat="41.31211" lon="9.27803">
        <ele>-1.3</ele>
        <time>2017-10-09T11:11:25Z</time>
      </trkpt>
      <trkpt lat="41.31237" lon="9.27763">
        <ele>-1.3</ele>
        <time>2017-10-09T11:11:39Z</time>
      </trkpt>
      <trkpt lat="41.3126" lon="9.27728">
        <ele>-0.82</ele>
        <time>2017-10-09T11:11:51Z</time>
      </trkpt>
      <trkpt lat="41.31283" lon="9.27694">
        <ele>-1.79</ele>
        <time>2017-10-09T11:12:03Z</time>
      </trkpt>
      <trkpt lat="41.31306" lon="9.27659">
        <ele>-0.82</ele>
        <time>2017-10-09T11:12:15Z</time>
      </trkpt>
      <trkpt lat="41.31332" lon="9.27617">
        <ele>-1.79</ele>
        <time>2017-10-09T11:12:29Z</time>
      </trkpt>
      <trkpt lat="41.31363" lon="9.27571">
        <ele>-0.82</ele>
        <time>2017-10-09T11:12:45Z</time>
      </trkpt>
      <trkpt lat="41.31388" lon="9.27532">
        <ele>-1.79</ele>
        <time>2017-10-09T11:12:58Z</time>
      </trkpt>
      <trkpt lat="41.31413" lon="9.27495">
        <ele>-0.82</ele>
        <time>2017-10-09T11:13:11Z</time>
      </trkpt>
      <trkpt lat="41.31441" lon="9.27456">
        <ele>-0.34</ele>
        <time>2017-10-09T11:13:25Z</time>
      </trkpt>
      <trkpt lat="41.31443" lon="9.2742">
        <ele>0.62</ele>
        <time>2017-10-09T11:13:36Z</time>
      </trkpt>
      <trkpt lat="41.31443" lon="9.27389">
        <ele>0.62</ele>
        <time>2017-10-09T11:13:49Z</time>
      </trkpt>
      <trkpt lat="41.3144" lon="9.27364">
        <ele>0.14</ele>
        <time>2017-10-09T11:14:05Z</time>
      </trkpt>
      <trkpt lat="41.31437" lon="9.27355">
        <ele>-0.34</ele>
        <time>2017-10-09T11:14:16Z</time>
      </trkpt>
      <trkpt lat="41.31434" lon="9.27348">
        <ele>-0.82</ele>
        <time>2017-10-09T11:14:31Z</time>
      </trkpt>
      <trkpt lat="41.31431" lon="9.27343">
        <ele>-1.3</ele>
        <time>2017-10-09T11:14:44Z</time>
      </trkpt>
      <trkpt lat="41.31426" lon="9.2734">
        <ele>-1.3</ele>
        <time>2017-10-09T11:14:58Z</time>
      </trkpt>
      <trkpt lat="41.31425" lon="9.27331">
        <ele>-2.27</ele>
        <time>2017-10-09T11:15:09Z</time>
      </trkpt>
      <trkpt lat="41.31426" lon="9.27328">
        <ele>-3.71</ele>
        <time>2017-10-09T11:15:11Z</time>
      </trkpt>
      <trkpt lat="41.31434" lon="9.27315">
        <ele>-2.75</ele>
        <time>2017-10-09T11:15:24Z</time>
      </trkpt>
      <trkpt lat="41.3144" lon="9.27306">
        <ele>-2.27</ele>
        <time>2017-10-09T11:15:38Z</time>
      </trkpt>
      <trkpt lat="41.31444" lon="9.27303">
        <ele>-1.79</ele>
        <time>2017-10-09T11:15:50Z</time>
      </trkpt>
      <trkpt lat="41.31449" lon="9.27299">
        <ele>-2.27</ele>
        <time>2017-10-09T11:16:06Z</time>
      </trkpt>
      <trkpt lat="41.31452" lon="9.27294">
        <ele>-0.82</ele>
        <time>2017-10-09T11:16:16Z</time>
      </trkpt>
      <trkpt lat="41.31454" lon="9.2729">
        <ele>-2.75</ele>
        <time>2017-10-09T11:16:26Z</time>
      </trkpt>
      <trkpt lat="41.31455" lon="9.27282">
        <ele>-2.75</ele>
        <time>2017-10-09T11:16:38Z</time>
      </trkpt>
      <trkpt lat="41.31454" lon="9.27275">
        <ele>-2.75</ele>
        <time>2017-10-09T11:16:51Z</time>
      </trkpt>
      <trkpt lat="41.31453" lon="9.27268">
        <ele>-2.75</ele>
        <time>2017-10-09T11:17:04Z</time>
      </trkpt>
      <trkpt lat="41.31451" lon="9.27262">
        <ele>-2.27</ele>
        <time>2017-10-09T11:17:17Z</time>
      </trkpt>
      <trkpt lat="41.31449" lon="9.27258">
        <ele>-2.27</ele>
        <time>2017-10-09T11:17:27Z</time>
      </trkpt>
      <trkpt lat="41.31448" lon="9.27254">
        <ele>-1.79</ele>
        <time>2017-10-09T11:17:40Z</time>
      </trkpt>
      <trkpt lat="41.31448" lon="9.2725">
        <ele>-1.79</ele>
        <time>2017-10-09T11:17:53Z</time>
      </trkpt>
      <trkpt lat="41.31448" lon="9.27249">
        <ele>-2.27</ele>
        <time>2017-10-09T11:18:05Z</time>
      </trkpt>
      <trkpt lat="41.31449" lon="9.27249">
        <ele>-2.75</ele>
        <time>2017-10-09T11:18:16Z</time>
      </trkpt>
      <trkpt lat="41.3145" lon="9.27247">
        <ele>-3.23</ele>
        <time>2017-10-09T11:18:33Z</time>
      </trkpt>
      <trkpt lat="41.31453" lon="9.27245">
        <ele>-3.23</ele>
        <time>2017-10-09T11:18:45Z</time>
      </trkpt>
      <trkpt lat="41.31455" lon="9.27243">
        <ele>-3.23</ele>
        <time>2017-10-09T11:19:01Z</time>
      </trkpt>
      <trkpt lat="41.31456" lon="9.2724">
        <ele>-2.75</ele>
        <time>2017-10-09T11:19:14Z</time>
      </trkpt>
      <trkpt lat="41.31458" lon="9.27237">
        <ele>-3.23</ele>
        <time>2017-10-09T11:19:26Z</time>
      </trkpt>
      <trkpt lat="41.31458" lon="9.27234">
        <ele>-3.23</ele>
        <time>2017-10-09T11:19:41Z</time>
      </trkpt>
      <trkpt lat="41.31459" lon="9.27232">
        <ele>-2.75</ele>
        <time>2017-10-09T11:19:52Z</time>
      </trkpt>
      <trkpt lat="41.3146" lon="9.27228">
        <ele>-2.75</ele>
        <time>2017-10-09T11:20:07Z</time>
      </trkpt>
      <trkpt lat="41.3146" lon="9.27224">
        <ele>-2.27</ele>
        <time>2017-10-09T11:20:18Z</time>
      </trkpt>
      <trkpt lat="41.3146" lon="9.27221">
        <ele>-1.79</ele>
        <time>2017-10-09T11:20:32Z</time>
      </trkpt>
      <trkpt lat="41.3146" lon="9.27217">
        <ele>-2.27</ele>
        <time>2017-10-09T11:20:47Z</time>
      </trkpt>
      <trkpt lat="41.31459" lon="9.27214">
        <ele>-2.27</ele>
        <time>2017-10-09T11:21:00Z</time>
      </trkpt>
      <trkpt lat="41.31457" lon="9.27209">
        <ele>-2.27</ele>
        <time>2017-10-09T11:21:13Z</time>
      </trkpt>
      <trkpt lat="41.31457" lon="9.27207">
        <ele>-2.75</ele>
        <time>2017-10-09T11:21:25Z</time>
      </trkpt>
      <trkpt lat="41.31456" lon="9.27205">
        <ele>-2.75</ele>
        <time>2017-10-09T11:21:37Z</time>
      </trkpt>
      <trkpt lat="41.31456" lon="9.27203">
        <ele>-2.27</ele>
        <time>2017-10-09T11:21:48Z</time>
      </trkpt>
      <trkpt lat="41.31456" lon="9.27199">
        <ele>-2.75</ele>
        <time>2017-10-09T11:21:59Z</time>
      </trkpt>
      <trkpt lat="41.31456" lon="9.27197">
        <ele>-3.23</ele>
        <time>2017-10-09T11:22:11Z</time>
      </trkpt>
      <trkpt lat="41.31456" lon="9.27195">
        <ele>-2.75</ele>
        <time>2017-10-09T11:22:25Z</time>
      </trkpt>
      <trkpt lat="41.31457" lon="9.27192">
        <ele>-3.23</ele>
        <time>2017-10-09T11:22:42Z</time>
      </trkpt>
      <trkpt lat="41.31456" lon="9.27188">
        <ele>-3.23</ele>
        <time>2017-10-09T11:22:58Z</time>
      </trkpt>
      <trkpt lat="41.31455" lon="9.27184">
        <ele>-3.71</ele>
        <time>2017-10-09T11:23:09Z</time>
      </trkpt>
      <trkpt lat="41.31455" lon="9.27182">
        <ele>-3.23</ele>
        <time>2017-10-09T11:23:20Z</time>
      </trkpt>
      <trkpt lat="41.31455" lon="9.2718">
        <ele>-2.75</ele>
        <time>2017-10-09T11:23:31Z</time>
      </trkpt>
      <trkpt lat="41.31455" lon="9.27178">
        <ele>-2.75</ele>
        <time>2017-10-09T11:23:46Z</time>
      </trkpt>
      <trkpt lat="41.31454" lon="9.27176">
        <ele>-4.67</ele>
        <time>2017-10-09T11:23:58Z</time>
      </trkpt>
      <trkpt lat="41.31453" lon="9.27172">
        <ele>-4.19</ele>
        <time>2017-10-09T11:24:12Z</time>
      </trkpt>
      <trkpt lat="41.31452" lon="9.27168">
        <ele>-3.71</ele>
        <time>2017-10-09T11:24:26Z</time>
      </trkpt>
      <trkpt lat="41.31451" lon="9.27165">
        <ele>-3.71</ele>
        <time>2017-10-09T11:24:40Z</time>
      </trkpt>
      <trkpt lat="41.31451" lon="9.27161">
        <ele>-4.19</ele>
        <time>2017-10-09T11:24:50Z</time>
      </trkpt>
      <trkpt lat="41.3145" lon="9.27159">
        <ele>-3.71</ele>
        <time>2017-10-09T11:25:03Z</time>
      </trkpt>
      <trkpt lat="41.3145" lon="9.27157">
        <ele>-3.71</ele>
        <time>2017-10-09T11:25:14Z</time>
      </trkpt>
      <trkpt lat="41.31449" lon="9.27154">
        <ele>-3.71</ele>
        <time>2017-10-09T11:25:28Z</time>
      </trkpt>
      <trkpt lat="41.31448" lon="9.27149">
        <ele>-2.75</ele>
        <time>2017-10-09T11:25:44Z</time>
      </trkpt>
      <trkpt lat="41.31448" lon="9.27147">
        <ele>-2.27</ele>
        <time>2017-10-09T11:25:57Z</time>
      </trkpt>
      <trkpt lat="41.31448" lon="9.27142">
        <ele>-1.79</ele>
        <time>2017-10-09T11:26:08Z</time>
      </trkpt>
      <trkpt lat="41.31447" lon="9.27139">
        <ele>-1.79</ele>
        <time>2017-10-09T11:26:17Z</time>
      </trkpt>
      <trkpt lat="41.31446" lon="9.27134">
        <ele>-1.79</ele>
        <time>2017-10-09T11:26:29Z</time>
      </trkpt>
      <trkpt lat="41.31445" lon="9.27129">
        <ele>-2.27</ele>
        <time>2017-10-09T11:26:42Z</time>
      </trkpt>
      <trkpt lat="41.31444" lon="9.27124">
        <ele>-2.75</ele>
        <time>2017-10-09T11:26:56Z</time>
      </trkpt>
      <trkpt lat="41.31443" lon="9.27121">
        <ele>-2.75</ele>
        <time>2017-10-09T11:27:10Z</time>
      </trkpt>
      <trkpt lat="41.31442" lon="9.27115">
        <ele>-3.23</ele>
        <time>2017-10-09T11:27:24Z</time>
      </trkpt>
      <trkpt lat="41.3144" lon="9.27112">
        <ele>-3.71</ele>
        <time>2017-10-09T11:27:34Z</time>
      </trkpt>
      <trkpt lat="41.3144" lon="9.27108">
        <ele>-2.75</ele>
        <time>2017-10-09T11:27:47Z</time>
      </trkpt>
      <trkpt lat="41.31439" lon="9.27104">
        <ele>-2.27</ele>
        <time>2017-10-09T11:28:00Z</time>
      </trkpt>
      <trkpt lat="41.31439" lon="9.271">
        <ele>-2.27</ele>
        <time>2017-10-09T11:28:13Z</time>
      </trkpt>
      <trkpt lat="41.31439" lon="9.27098">
        <ele>-2.27</ele>
        <time>2017-10-09T11:28:23Z</time>
      </trkpt>
      <trkpt lat="41.31439" lon="9.27095">
        <ele>-3.23</ele>
        <time>2017-10-09T11:28:34Z</time>
      </trkpt>
      <trkpt lat="41.3144" lon="9.27093">
        <ele>-3.23</ele>
        <time>2017-10-09T11:28:46Z</time>
      </trkpt>
      <trkpt lat="41.31441" lon="9.2709">
        <ele>-2.75</ele>
        <time>2017-10-09T11:28:56Z</time>
      </trkpt>
      <trkpt lat="41.31442" lon="9.27088">
        <ele>-2.27</ele>
        <time>2017-10-09T11:29:09Z</time>
      </trkpt>
      <trkpt lat="41.31444" lon="9.27084">
        <ele>-2.27</ele>
        <time>2017-10-09T11:29:23Z</time>
      </trkpt>
      <trkpt lat="41.31444" lon="9.27079">
        <ele>-2.27</ele>
        <time>2017-10-09T11:29:36Z</time>
      </trkpt>
      <trkpt lat="41.31445" lon="9.27072">
        <ele>-2.27</ele>
        <time>2017-10-09T11:29:49Z</time>
      </trkpt>
      <trkpt lat="41.31444" lon="9.27065">
        <ele>-1.79</ele>
        <time>2017-10-09T11:30:01Z</time>
      </trkpt>
      <trkpt lat="41.31443" lon="9.27058">
        <ele>-2.75</ele>
        <time>2017-10-09T11:30:18Z</time>
      </trkpt>
      <trkpt lat="41.31443" lon="9.27052">
        <ele>-2.75</ele>
        <time>2017-10-09T11:30:31Z</time>
      </trkpt>
      <trkpt lat="41.31441" lon="9.27047">
        <ele>-3.23</ele>
        <time>2017-10-09T11:30:45Z</time>
      </trkpt>
      <trkpt lat="41.3144" lon="9.27043">
        <ele>-3.23</ele>
        <time>2017-10-09T11:30:59Z</time>
      </trkpt>
      <trkpt lat="41.3144" lon="9.27041">
        <ele>-3.23</ele>
        <time>2017-10-09T11:31:14Z</time>
      </trkpt>
      <trkpt lat="41.3144" lon="9.27036">
        <ele>-3.23</ele>
        <time>2017-10-09T11:31:27Z</time>
      </trkpt>
      <trkpt lat="41.31439" lon="9.27032">
        <ele>-2.75</ele>
        <time>2017-10-09T11:31:39Z</time>
      </trkpt>
      <trkpt lat="41.31438" lon="9.27029">
        <ele>-2.27</ele>
        <time>2017-10-09T11:31:52Z</time>
      </trkpt>
      <trkpt lat="41.31437" lon="9.27024">
        <ele>-2.75</ele>
        <time>2017-10-09T11:32:05Z</time>
      </trkpt>
      <trkpt lat="41.31436" lon="9.27021">
        <ele>-3.23</ele>
        <time>2017-10-09T11:32:18Z</time>
      </trkpt>
      <trkpt lat="41.31435" lon="9.27018">
        <ele>-3.23</ele>
        <time>2017-10-09T11:32:32Z</time>
      </trkpt>
      <trkpt lat="41.31435" lon="9.27015">
        <ele>-3.71</ele>
        <time>2017-10-09T11:32:45Z</time>
      </trkpt>
      <trkpt lat="41.31437" lon="9.27013">
        <ele>-2.75</ele>
        <time>2017-10-09T11:32:57Z</time>
      </trkpt>
      <trkpt lat="41.31438" lon="9.27007">
        <ele>-4.19</ele>
        <time>2017-10-09T11:33:11Z</time>
      </trkpt>
      <trkpt lat="41.31437" lon="9.27002">
        <ele>-3.71</ele>
        <time>2017-10-09T11:33:24Z</time>
      </trkpt>
      <trkpt lat="41.31436" lon="9.26996">
        <ele>-2.75</ele>
        <time>2017-10-09T11:33:37Z</time>
      </trkpt>
      <trkpt lat="41.31435" lon="9.26991">
        <ele>-3.23</ele>
        <time>2017-10-09T11:33:50Z</time>
      </trkpt>
      <trkpt lat="41.31434" lon="9.26985">
        <ele>-4.19</ele>
        <time>2017-10-09T11:34:05Z</time>
      </trkpt>
      <trkpt lat="41.31433" lon="9.26981">
        <ele>-3.23</ele>
        <time>2017-10-09T11:34:17Z</time>
      </trkpt>
      <trkpt lat="41.31432" lon="9.26978">
        <ele>-3.71</ele>
        <time>2017-10-09T11:34:31Z</time>
      </trkpt>
      <trkpt lat="41.31432" lon="9.26974">
        <ele>-4.19</ele>
        <time>2017-10-09T11:34:44Z</time>
      </trkpt>
      <trkpt lat="41.31429" lon="9.26969">
        <ele>-4.67</ele>
        <time>2017-10-09T11:35:00Z</time>
      </trkpt>
      <trkpt lat="41.31428" lon="9.26963">
        <ele>-4.19</ele>
        <time>2017-10-09T11:35:15Z</time>
      </trkpt>
      <trkpt lat="41.31426" lon="9.26961">
        <ele>-4.19</ele>
        <time>2017-10-09T11:35:30Z</time>
      </trkpt>
      <trkpt lat="41.31426" lon="9.26958">
        <ele>-3.71</ele>
        <time>2017-10-09T11:35:47Z</time>
      </trkpt>
      <trkpt lat="41.31424" lon="9.26953">
        <ele>-3.23</ele>
        <time>2017-10-09T11:36:04Z</time>
      </trkpt>
      <trkpt lat="41.31424" lon="9.2695">
        <ele>-3.71</ele>
        <time>2017-10-09T11:36:17Z</time>
      </trkpt>
      <trkpt lat="41.31423" lon="9.26945">
        <ele>-3.23</ele>
        <time>2017-10-09T11:36:31Z</time>
      </trkpt>
      <trkpt lat="41.31422" lon="9.2694">
        <ele>-3.71</ele>
        <time>2017-10-09T11:36:45Z</time>
      </trkpt>
      <trkpt lat="41.31422" lon="9.26935">
        <ele>-3.71</ele>
        <time>2017-10-09T11:36:58Z</time>
      </trkpt>
      <trkpt lat="41.31422" lon="9.26931">
        <ele>-4.19</ele>
        <time>2017-10-09T11:37:13Z</time>
      </trkpt>
      <trkpt lat="41.31421" lon="9.26926">
        <ele>-3.23</ele>
        <time>2017-10-09T11:37:28Z</time>
      </trkpt>
      <trkpt lat="41.3142" lon="9.26922">
        <ele>-2.75</ele>
        <time>2017-10-09T11:37:41Z</time>
      </trkpt>
      <trkpt lat="41.31419" lon="9.26916">
        <ele>-3.23</ele>
        <time>2017-10-09T11:37:55Z</time>
      </trkpt>
      <trkpt lat="41.31418" lon="9.26911">
        <ele>-3.71</ele>
        <time>2017-10-09T11:38:11Z</time>
      </trkpt>
      <trkpt lat="41.31415" lon="9.26907">
        <ele>-2.75</ele>
        <time>2017-10-09T11:38:25Z</time>
      </trkpt>
      <trkpt lat="41.31414" lon="9.26903">
        <ele>-2.27</ele>
        <time>2017-10-09T11:38:38Z</time>
      </trkpt>
      <trkpt lat="41.31413" lon="9.26898">
        <ele>-2.27</ele>
        <time>2017-10-09T11:38:52Z</time>
      </trkpt>
      <trkpt lat="41.31412" lon="9.26894">
        <ele>-1.3</ele>
        <time>2017-10-09T11:39:05Z</time>
      </trkpt>
      <trkpt lat="41.3141" lon="9.2689">
        <ele>-2.75</ele>
        <time>2017-10-09T11:39:18Z</time>
      </trkpt>
      <trkpt lat="41.3141" lon="9.26889">
        <ele>-2.75</ele>
        <time>2017-10-09T11:39:31Z</time>
      </trkpt>
      <trkpt lat="41.31409" lon="9.26887">
        <ele>-3.23</ele>
        <time>2017-10-09T11:39:45Z</time>
      </trkpt>
      <trkpt lat="41.31408" lon="9.26885">
        <ele>-3.23</ele>
        <time>2017-10-09T11:40:00Z</time>
      </trkpt>
      <trkpt lat="41.31406" lon="9.26883">
        <ele>-3.71</ele>
        <time>2017-10-09T11:40:14Z</time>
      </trkpt>
      <trkpt lat="41.31405" lon="9.26881">
        <ele>-3.71</ele>
        <time>2017-10-09T11:40:26Z</time>
      </trkpt>
      <trkpt lat="41.31402" lon="9.26878">
        <ele>-2.75</ele>
        <time>2017-10-09T11:40:39Z</time>
      </trkpt>
      <trkpt lat="41.31401" lon="9.26876">
        <ele>-1.79</ele>
        <time>2017-10-09T11:40:51Z</time>
      </trkpt>
      <trkpt lat="41.31399" lon="9.26874">
        <ele>-2.27</ele>
        <time>2017-10-09T11:41:08Z</time>
      </trkpt>
      <trkpt lat="41.31397" lon="9.26873">
        <ele>-2.27</ele>
        <time>2017-10-09T11:41:19Z</time>
      </trkpt>
      <trkpt lat="41.31396" lon="9.26871">
        <ele>-2.75</ele>
        <time>2017-10-09T11:41:30Z</time>
      </trkpt>
      <trkpt lat="41.31395" lon="9.26869">
        <ele>-3.23</ele>
        <time>2017-10-09T11:41:45Z</time>
      </trkpt>
      <trkpt lat="41.31393" lon="9.26867">
        <ele>-3.23</ele>
        <time>2017-10-09T11:42:00Z</time>
      </trkpt>
      <trkpt lat="41.31393" lon="9.26865">
        <ele>-3.71</ele>
        <time>2017-10-09T11:42:10Z</time>
      </trkpt>
      <trkpt lat="41.31391" lon="9.26862">
        <ele>-4.19</ele>
        <time>2017-10-09T11:42:27Z</time>
      </trkpt>
      <trkpt lat="41.3139" lon="9.2686">
        <ele>-4.19</ele>
        <time>2017-10-09T11:42:39Z</time>
      </trkpt>
      <trkpt lat="41.31389" lon="9.26857">
        <ele>-3.71</ele>
        <time>2017-10-09T11:42:53Z</time>
      </trkpt>
      <trkpt lat="41.31387" lon="9.26854">
        <ele>-4.19</ele>
        <time>2017-10-09T11:43:08Z</time>
      </trkpt>
      <trkpt lat="41.31385" lon="9.26851">
        <ele>-4.67</ele>
        <time>2017-10-09T11:43:24Z</time>
      </trkpt>
      <trkpt lat="41.31384" lon="9.26848">
        <ele>-5.15</ele>
        <time>2017-10-09T11:43:38Z</time>
      </trkpt>
      <trkpt lat="41.31383" lon="9.26846">
        <ele>-5.15</ele>
        <time>2017-10-09T11:43:52Z</time>
      </trkpt>
      <trkpt lat="41.31381" lon="9.26842">
        <ele>-5.63</ele>
        <time>2017-10-09T11:44:08Z</time>
      </trkpt>
      <trkpt lat="41.3138" lon="9.2684">
        <ele>-6.11</ele>
        <time>2017-10-09T11:44:20Z</time>
      </trkpt>
      <trkpt lat="41.31378" lon="9.26837">
        <ele>-6.11</ele>
        <time>2017-10-09T11:44:33Z</time>
      </trkpt>
      <trkpt lat="41.31374" lon="9.26833">
        <ele>-6.11</ele>
        <time>2017-10-09T11:44:46Z</time>
      </trkpt>
      <trkpt lat="41.31371" lon="9.2683">
        <ele>-5.63</ele>
        <time>2017-10-09T11:45:01Z</time>
      </trkpt>
      <trkpt lat="41.31368" lon="9.26827">
        <ele>-5.15</ele>
        <time>2017-10-09T11:45:15Z</time>
      </trkpt>
      <trkpt lat="41.31365" lon="9.26824">
        <ele>-5.15</ele>
        <time>2017-10-09T11:45:27Z</time>
      </trkpt>
      <trkpt lat="41.31363" lon="9.26822">
        <ele>-4.67</ele>
        <time>2017-10-09T11:45:40Z</time>
      </trkpt>
      <trkpt lat="41.31362" lon="9.2682">
        <ele>-4.19</ele>
        <time>2017-10-09T11:45:55Z</time>
      </trkpt>
      <trkpt lat="41.31361" lon="9.2682">
        <ele>-4.19</ele>
        <time>2017-10-09T11:46:10Z</time>
      </trkpt>
      <trkpt lat="41.31361" lon="9.26817">
        <ele>-3.71</ele>
        <time>2017-10-09T11:46:23Z</time>
      </trkpt>
      <trkpt lat="41.31361" lon="9.26814">
        <ele>-3.71</ele>
        <time>2017-10-09T11:46:34Z</time>
      </trkpt>
      <trkpt lat="41.31361" lon="9.26811">
        <ele>-3.23</ele>
        <time>2017-10-09T11:46:48Z</time>
      </trkpt>
      <trkpt lat="41.3136" lon="9.26808">
        <ele>-3.23</ele>
        <time>2017-10-09T11:47:00Z</time>
      </trkpt>
      <trkpt lat="41.31359" lon="9.26805">
        <ele>-2.75</ele>
        <time>2017-10-09T11:47:13Z</time>
      </trkpt>
      <trkpt lat="41.31359" lon="9.26802">
        <ele>-2.75</ele>
        <time>2017-10-09T11:47:24Z</time>
      </trkpt>
      <trkpt lat="41.31359" lon="9.26797">
        <ele>-2.75</ele>
        <time>2017-10-09T11:47:37Z</time>
      </trkpt>
      <trkpt lat="41.31359" lon="9.26794">
        <ele>-2.75</ele>
        <time>2017-10-09T11:47:49Z</time>
      </trkpt>
      <trkpt lat="41.3136" lon="9.2679">
        <ele>-2.75</ele>
        <time>2017-10-09T11:48:02Z</time>
      </trkpt>
      <trkpt lat="41.3136" lon="9.26786">
        <ele>-3.23</ele>
        <time>2017-10-09T11:48:13Z</time>
      </trkpt>
      <trkpt lat="41.3136" lon="9.26781">
        <ele>-2.75</ele>
        <time>2017-10-09T11:48:26Z</time>
      </trkpt>
      <trkpt lat="41.3136" lon="9.26776">
        <ele>-2.27</ele>
        <time>2017-10-09T11:48:41Z</time>
      </trkpt>
      <trkpt lat="41.3136" lon="9.26772">
        <ele>-1.3</ele>
        <time>2017-10-09T11:48:55Z</time>
      </trkpt>
      <trkpt lat="41.3136" lon="9.26767">
        <ele>-0.82</ele>
        <time>2017-10-09T11:49:08Z</time>
      </trkpt>
      <trkpt lat="41.31359" lon="9.26763">
        <ele>-0.82</ele>
        <time>2017-10-09T11:49:22Z</time>
      </trkpt>
      <trkpt lat="41.31359" lon="9.26759">
        <ele>-1.79</ele>
        <time>2017-10-09T11:49:38Z</time>
      </trkpt>
      <trkpt lat="41.31357" lon="9.26755">
        <ele>-2.75</ele>
        <time>2017-10-09T11:49:54Z</time>
      </trkpt>
      <trkpt lat="41.31356" lon="9.26751">
        <ele>-2.75</ele>
        <time>2017-10-09T11:50:10Z</time>
      </trkpt>
      <trkpt lat="41.31355" lon="9.26747">
        <ele>-1.79</ele>
        <time>2017-10-09T11:50:24Z</time>
      </trkpt>
      <trkpt lat="41.31353" lon="9.26742">
        <ele>-2.75</ele>
        <time>2017-10-09T11:50:39Z</time>
      </trkpt>
      <trkpt lat="41.31352" lon="9.2674">
        <ele>-3.23</ele>
        <time>2017-10-09T11:50:54Z</time>
      </trkpt>
      <trkpt lat="41.3135" lon="9.26735">
        <ele>-3.71</ele>
        <time>2017-10-09T11:51:09Z</time>
      </trkpt>
      <trkpt lat="41.31346" lon="9.26731">
        <ele>-2.75</ele>
        <time>2017-10-09T11:51:23Z</time>
      </trkpt>
      <trkpt lat="41.31342" lon="9.26727">
        <ele>-1.79</ele>
        <time>2017-10-09T11:51:38Z</time>
      </trkpt>
      <trkpt lat="41.31339" lon="9.26725">
        <ele>-2.27</ele>
        <time>2017-10-09T11:51:52Z</time>
      </trkpt>
      <trkpt lat="41.31336" lon="9.26723">
        <ele>-2.75</ele>
        <time>2017-10-09T11:52:06Z</time>
      </trkpt>
      <trkpt lat="41.31333" lon="9.26724">
        <ele>-2.27</ele>
        <time>2017-10-09T11:52:17Z</time>
      </trkpt>
      <trkpt lat="41.31333" lon="9.26724">
        <ele>-2.75</ele>
        <time>2017-10-09T11:52:31Z</time>
      </trkpt>
      <trkpt lat="41.31333" lon="9.26723">
        <ele>-3.23</ele>
        <time>2017-10-09T11:52:46Z</time>
      </trkpt>
      <trkpt lat="41.31333" lon="9.26718">
        <ele>-2.75</ele>
        <time>2017-10-09T11:52:59Z</time>
      </trkpt>
      <trkpt lat="41.31332" lon="9.26715">
        <ele>-3.23</ele>
        <time>2017-10-09T11:53:11Z</time>
      </trkpt>
      <trkpt lat="41.31332" lon="9.26712">
        <ele>-3.71</ele>
        <time>2017-10-09T11:53:24Z</time>
      </trkpt>
      <trkpt lat="41.31333" lon="9.2671">
        <ele>-2.75</ele>
        <time>2017-10-09T11:53:37Z</time>
      </trkpt>
      <trkpt lat="41.31333" lon="9.26707">
        <ele>-2.27</ele>
        <time>2017-10-09T11:53:51Z</time>
      </trkpt>
      <trkpt lat="41.31331" lon="9.26703">
        <ele>-2.27</ele>
        <time>2017-10-09T11:54:04Z</time>
      </trkpt>
      <trkpt lat="41.3133" lon="9.26699">
        <ele>-1.79</ele>
        <time>2017-10-09T11:54:14Z</time>
      </trkpt>
      <trkpt lat="41.31328" lon="9.26695">
        <ele>-2.27</ele>
        <time>2017-10-09T11:54:29Z</time>
      </trkpt>
      <trkpt lat="41.31326" lon="9.26693">
        <ele>-3.23</ele>
        <time>2017-10-09T11:54:41Z</time>
      </trkpt>
      <trkpt lat="41.31325" lon="9.26691">
        <ele>-3.23</ele>
        <time>2017-10-09T11:54:55Z</time>
      </trkpt>
      <trkpt lat="41.31324" lon="9.2669">
        <ele>-3.23</ele>
        <time>2017-10-09T11:55:07Z</time>
      </trkpt>
      <trkpt lat="41.31323" lon="9.26689">
        <ele>-2.75</ele>
        <time>2017-10-09T11:55:21Z</time>
      </trkpt>
      <trkpt lat="41.31323" lon="9.26688">
        <ele>-2.27</ele>
        <time>2017-10-09T11:55:33Z</time>
      </trkpt>
      <trkpt lat="41.31323" lon="9.26687">
        <ele>-2.27</ele>
        <time>2017-10-09T11:55:48Z</time>
      </trkpt>
      <trkpt lat="41.31323" lon="9.26684">
        <ele>-1.79</ele>
        <time>2017-10-09T11:56:02Z</time>
      </trkpt>
      <trkpt lat="41.31322" lon="9.26682">
        <ele>-1.79</ele>
        <time>2017-10-09T11:56:15Z</time>
      </trkpt>
      <trkpt lat="41.31322" lon="9.26682">
        <ele>-1.79</ele>
        <time>2017-10-09T11:56:16Z</time>
      </trkpt>
      <trkpt lat="41.31322" lon="9.26678">
        <ele>-2.27</ele>
        <time>2017-10-09T11:56:26Z</time>
      </trkpt>
      <trkpt lat="41.31322" lon="9.26675">
        <ele>-2.27</ele>
        <time>2017-10-09T11:56:37Z</time>
      </trkpt>
      <trkpt lat="41.31322" lon="9.26673">
        <ele>-2.27</ele>
        <time>2017-10-09T11:56:51Z</time>
      </trkpt>
      <trkpt lat="41.31322" lon="9.26671">
        <ele>-2.27</ele>
        <time>2017-10-09T11:57:05Z</time>
      </trkpt>
      <trkpt lat="41.31321" lon="9.26668">
        <ele>-2.27</ele>
        <time>2017-10-09T11:57:15Z</time>
      </trkpt>
      <trkpt lat="41.31322" lon="9.26666">
        <ele>-1.79</ele>
        <time>2017-10-09T11:57:26Z</time>
      </trkpt>
      <trkpt lat="41.31323" lon="9.26663">
        <ele>-0.82</ele>
        <time>2017-10-09T11:57:42Z</time>
      </trkpt>
      <trkpt lat="41.31324" lon="9.26659">
        <ele>0.14</ele>
        <time>2017-10-09T11:57:54Z</time>
      </trkpt>
      <trkpt lat="41.31325" lon="9.26655">
        <ele>0.62</ele>
        <time>2017-10-09T11:58:08Z</time>
      </trkpt>
      <trkpt lat="41.31325" lon="9.26651">
        <ele>0.62</ele>
        <time>2017-10-09T11:58:20Z</time>
      </trkpt>
      <trkpt lat="41.31325" lon="9.26646">
        <ele>0.14</ele>
        <time>2017-10-09T11:58:32Z</time>
      </trkpt>
      <trkpt lat="41.31324" lon="9.26641">
        <ele>-0.34</ele>
        <time>2017-10-09T11:58:47Z</time>
      </trkpt>
      <trkpt lat="41.31324" lon="9.26638">
        <ele>-0.34</ele>
        <time>2017-10-09T11:59:01Z</time>
      </trkpt>
      <trkpt lat="41.31322" lon="9.26634">
        <ele>-0.34</ele>
        <time>2017-10-09T11:59:18Z</time>
      </trkpt>
      <trkpt lat="41.31321" lon="9.26632">
        <ele>-0.34</ele>
        <time>2017-10-09T11:59:29Z</time>
      </trkpt>
      <trkpt lat="41.31319" lon="9.2663">
        <ele>-0.82</ele>
        <time>2017-10-09T11:59:45Z</time>
      </trkpt>
      <trkpt lat="41.31318" lon="9.26628">
        <ele>-0.82</ele>
        <time>2017-10-09T12:00:01Z</time>
      </trkpt>
      <trkpt lat="41.31317" lon="9.26627">
        <ele>-0.82</ele>
        <time>2017-10-09T12:00:11Z</time>
      </trkpt>
      <trkpt lat="41.31317" lon="9.26626">
        <ele>-0.82</ele>
        <time>2017-10-09T12:00:22Z</time>
      </trkpt>
      <trkpt lat="41.31316" lon="9.26624">
        <ele>-0.82</ele>
        <time>2017-10-09T12:00:35Z</time>
      </trkpt>
      <trkpt lat="41.31316" lon="9.26621">
        <ele>-0.34</ele>
        <time>2017-10-09T12:00:48Z</time>
      </trkpt>
      <trkpt lat="41.31317" lon="9.26615">
        <ele>-0.82</ele>
        <time>2017-10-09T12:01:01Z</time>
      </trkpt>
      <trkpt lat="41.31318" lon="9.26608">
        <ele>-0.34</ele>
        <time>2017-10-09T12:01:14Z</time>
      </trkpt>
      <trkpt lat="41.31318" lon="9.26603">
        <ele>0.14</ele>
        <time>2017-10-09T12:01:30Z</time>
      </trkpt>
      <trkpt lat="41.31318" lon="9.26598">
        <ele>-0.34</ele>
        <time>2017-10-09T12:01:43Z</time>
      </trkpt>
      <trkpt lat="41.31318" lon="9.26594">
        <ele>-0.82</ele>
        <time>2017-10-09T12:01:54Z</time>
      </trkpt>
      <trkpt lat="41.31317" lon="9.26589">
        <ele>-0.82</ele>
        <time>2017-10-09T12:02:08Z</time>
      </trkpt>
      <trkpt lat="41.31317" lon="9.26584">
        <ele>-0.82</ele>
        <time>2017-10-09T12:02:23Z</time>
      </trkpt>
      <trkpt lat="41.31316" lon="9.26581">
        <ele>-0.82</ele>
        <time>2017-10-09T12:02:37Z</time>
      </trkpt>
      <trkpt lat="41.31316" lon="9.26578">
        <ele>-0.34</ele>
        <time>2017-10-09T12:02:52Z</time>
      </trkpt>
      <trkpt lat="41.31315" lon="9.26576">
        <ele>-0.34</ele>
        <time>2017-10-09T12:03:04Z</time>
      </trkpt>
      <trkpt lat="41.31314" lon="9.26576">
        <ele>-0.82</ele>
        <time>2017-10-09T12:03:15Z</time>
      </trkpt>
      <trkpt lat="41.31314" lon="9.26575">
        <ele>-0.82</ele>
        <time>2017-10-09T12:03:28Z</time>
      </trkpt>
      <trkpt lat="41.31315" lon="9.26574">
        <ele>-0.82</ele>
        <time>2017-10-09T12:03:37Z</time>
      </trkpt>
      <trkpt lat="41.31316" lon="9.26572">
        <ele>-0.82</ele>
        <time>2017-10-09T12:03:49Z</time>
      </trkpt>
      <trkpt lat="41.31316" lon="9.26571">
        <ele>-0.82</ele>
        <time>2017-10-09T12:04:01Z</time>
      </trkpt>
      <trkpt lat="41.31317" lon="9.26568">
        <ele>-0.82</ele>
        <time>2017-10-09T12:04:17Z</time>
      </trkpt>
      <trkpt lat="41.31317" lon="9.26566">
        <ele>-0.82</ele>
        <time>2017-10-09T12:04:30Z</time>
      </trkpt>
      <trkpt lat="41.31316" lon="9.26564">
        <ele>-0.82</ele>
        <time>2017-10-09T12:04:41Z</time>
      </trkpt>
      <trkpt lat="41.31316" lon="9.26562">
        <ele>-0.82</ele>
        <time>2017-10-09T12:04:51Z</time>
      </trkpt>
      <trkpt lat="41.31316" lon="9.26559">
        <ele>-0.82</ele>
        <time>2017-10-09T12:05:05Z</time>
      </trkpt>
      <trkpt lat="41.31315" lon="9.26557">
        <ele>-0.82</ele>
        <time>2017-10-09T12:05:19Z</time>
      </trkpt>
      <trkpt lat="41.31315" lon="9.26554">
        <ele>-0.34</ele>
        <time>2017-10-09T12:05:32Z</time>
      </trkpt>
      <trkpt lat="41.31314" lon="9.26552">
        <ele>-0.82</ele>
        <time>2017-10-09T12:05:46Z</time>
      </trkpt>
      <trkpt lat="41.31313" lon="9.26549">
        <ele>-0.82</ele>
        <time>2017-10-09T12:05:59Z</time>
      </trkpt>
      <trkpt lat="41.31312" lon="9.26545">
        <ele>-0.34</ele>
        <time>2017-10-09T12:06:15Z</time>
      </trkpt>
      <trkpt lat="41.3131" lon="9.26542">
        <ele>-0.34</ele>
        <time>2017-10-09T12:06:30Z</time>
      </trkpt>
      <trkpt lat="41.31308" lon="9.2654">
        <ele>-0.82</ele>
        <time>2017-10-09T12:06:47Z</time>
      </trkpt>
      <trkpt lat="41.31307" lon="9.26539">
        <ele>-1.3</ele>
        <time>2017-10-09T12:07:00Z</time>
      </trkpt>
      <trkpt lat="41.31306" lon="9.26538">
        <ele>-0.82</ele>
        <time>2017-10-09T12:07:15Z</time>
      </trkpt>
      <trkpt lat="41.31306" lon="9.26536">
        <ele>-0.82</ele>
        <time>2017-10-09T12:07:28Z</time>
      </trkpt>
      <trkpt lat="41.31305" lon="9.26533">
        <ele>-0.34</ele>
        <time>2017-10-09T12:07:42Z</time>
      </trkpt>
      <trkpt lat="41.31305" lon="9.26531">
        <ele>-0.34</ele>
        <time>2017-10-09T12:07:55Z</time>
      </trkpt>
      <trkpt lat="41.31305" lon="9.26529">
        <ele>0.14</ele>
        <time>2017-10-09T12:08:08Z</time>
      </trkpt>
      <trkpt lat="41.31305" lon="9.26526">
        <ele>0.62</ele>
        <time>2017-10-09T12:08:22Z</time>
      </trkpt>
      <trkpt lat="41.31305" lon="9.26522">
        <ele>1.1</ele>
        <time>2017-10-09T12:08:34Z</time>
      </trkpt>
      <trkpt lat="41.31304" lon="9.26519">
        <ele>0.62</ele>
        <time>2017-10-09T12:08:47Z</time>
      </trkpt>
      <trkpt lat="41.31304" lon="9.26517">
        <ele>1.1</ele>
        <time>2017-10-09T12:08:59Z</time>
      </trkpt>
      <trkpt lat="41.31304" lon="9.26515">
        <ele>1.1</ele>
        <time>2017-10-09T12:09:17Z</time>
      </trkpt>
      <trkpt lat="41.31304" lon="9.26513">
        <ele>1.1</ele>
        <time>2017-10-09T12:09:29Z</time>
      </trkpt>
      <trkpt lat="41.31303" lon="9.26511">
        <ele>1.1</ele>
        <time>2017-10-09T12:09:42Z</time>
      </trkpt>
      <trkpt lat="41.31303" lon="9.26509">
        <ele>1.1</ele>
        <time>2017-10-09T12:09:57Z</time>
      </trkpt>
      <trkpt lat="41.31303" lon="9.26508">
        <ele>1.58</ele>
        <time>2017-10-09T12:10:14Z</time>
      </trkpt>
      <trkpt lat="41.31304" lon="9.26506">
        <ele>1.58</ele>
        <time>2017-10-09T12:10:24Z</time>
      </trkpt>
      <trkpt lat="41.31305" lon="9.26504">
        <ele>2.06</ele>
        <time>2017-10-09T12:10:38Z</time>
      </trkpt>
      <trkpt lat="41.31306" lon="9.26501">
        <ele>2.54</ele>
        <time>2017-10-09T12:10:53Z</time>
      </trkpt>
      <trkpt lat="41.31307" lon="9.26497">
        <ele>3.02</ele>
        <time>2017-10-09T12:11:06Z</time>
      </trkpt>
      <trkpt lat="41.31308" lon="9.26494">
        <ele>3.02</ele>
        <time>2017-10-09T12:11:18Z</time>
      </trkpt>
      <trkpt lat="41.31309" lon="9.2649">
        <ele>3.02</ele>
        <time>2017-10-09T12:11:35Z</time>
      </trkpt>
      <trkpt lat="41.31309" lon="9.26486">
        <ele>3.5</ele>
        <time>2017-10-09T12:11:49Z</time>
      </trkpt>
      <trkpt lat="41.31309" lon="9.26483">
        <ele>3.02</ele>
        <time>2017-10-09T12:12:03Z</time>
      </trkpt>
      <trkpt lat="41.31308" lon="9.26479">
        <ele>2.06</ele>
        <time>2017-10-09T12:12:15Z</time>
      </trkpt>
      <trkpt lat="41.31308" lon="9.26478">
        <ele>1.58</ele>
        <time>2017-10-09T12:12:30Z</time>
      </trkpt>
      <trkpt lat="41.31308" lon="9.26477">
        <ele>2.06</ele>
        <time>2017-10-09T12:12:43Z</time>
      </trkpt>
      <trkpt lat="41.31309" lon="9.26476">
        <ele>1.58</ele>
        <time>2017-10-09T12:12:57Z</time>
      </trkpt>
      <trkpt lat="41.3131" lon="9.26473">
        <ele>2.06</ele>
        <time>2017-10-09T12:13:09Z</time>
      </trkpt>
      <trkpt lat="41.31311" lon="9.26471">
        <ele>2.06</ele>
        <time>2017-10-09T12:13:23Z</time>
      </trkpt>
      <trkpt lat="41.31313" lon="9.26468">
        <ele>2.06</ele>
        <time>2017-10-09T12:13:36Z</time>
      </trkpt>
      <trkpt lat="41.31315" lon="9.26465">
        <ele>2.54</ele>
        <time>2017-10-09T12:13:50Z</time>
      </trkpt>
      <trkpt lat="41.31316" lon="9.26458">
        <ele>2.54</ele>
        <time>2017-10-09T12:14:06Z</time>
      </trkpt>
      <trkpt lat="41.31317" lon="9.26453">
        <ele>1.58</ele>
        <time>2017-10-09T12:14:18Z</time>
      </trkpt>
      <trkpt lat="41.31318" lon="9.26449">
        <ele>1.1</ele>
        <time>2017-10-09T12:14:30Z</time>
      </trkpt>
      <trkpt lat="41.31317" lon="9.26446">
        <ele>1.1</ele>
        <time>2017-10-09T12:14:45Z</time>
      </trkpt>
      <trkpt lat="41.31318" lon="9.26445">
        <ele>1.1</ele>
        <time>2017-10-09T12:14:56Z</time>
      </trkpt>
      <trkpt lat="41.31318" lon="9.26444">
        <ele>1.1</ele>
        <time>2017-10-09T12:15:10Z</time>
      </trkpt>
      <trkpt lat="41.31319" lon="9.26442">
        <ele>1.58</ele>
        <time>2017-10-09T12:15:26Z</time>
      </trkpt>
      <trkpt lat="41.3132" lon="9.2644">
        <ele>1.58</ele>
        <time>2017-10-09T12:15:40Z</time>
      </trkpt>
      <trkpt lat="41.31322" lon="9.26436">
        <ele>1.58</ele>
        <time>2017-10-09T12:15:53Z</time>
      </trkpt>
      <trkpt lat="41.31322" lon="9.26432">
        <ele>1.58</ele>
        <time>2017-10-09T12:16:06Z</time>
      </trkpt>
      <trkpt lat="41.31323" lon="9.2643">
        <ele>1.1</ele>
        <time>2017-10-09T12:16:17Z</time>
      </trkpt>
      <trkpt lat="41.31323" lon="9.26427">
        <ele>1.58</ele>
        <time>2017-10-09T12:16:32Z</time>
      </trkpt>
      <trkpt lat="41.31324" lon="9.26426">
        <ele>1.58</ele>
        <time>2017-10-09T12:16:43Z</time>
      </trkpt>
      <trkpt lat="41.31325" lon="9.26425">
        <ele>1.58</ele>
        <time>2017-10-09T12:16:55Z</time>
      </trkpt>
      <trkpt lat="41.31326" lon="9.26423">
        <ele>1.58</ele>
        <time>2017-10-09T12:17:07Z</time>
      </trkpt>
      <trkpt lat="41.31327" lon="9.2642">
        <ele>2.06</ele>
        <time>2017-10-09T12:17:20Z</time>
      </trkpt>
      <trkpt lat="41.31328" lon="9.26416">
        <ele>1.58</ele>
        <time>2017-10-09T12:17:36Z</time>
      </trkpt>
      <trkpt lat="41.31329" lon="9.2641">
        <ele>1.58</ele>
        <time>2017-10-09T12:17:48Z</time>
      </trkpt>
      <trkpt lat="41.31331" lon="9.26406">
        <ele>0.62</ele>
        <time>2017-10-09T12:18:02Z</time>
      </trkpt>
      <trkpt lat="41.31332" lon="9.26404">
        <ele>0.14</ele>
        <time>2017-10-09T12:18:14Z</time>
      </trkpt>
      <trkpt lat="41.31332" lon="9.26402">
        <ele>-0.34</ele>
        <time>2017-10-09T12:18:28Z</time>
      </trkpt>
      <trkpt lat="41.31328" lon="9.26402">
        <ele>0.14</ele>
        <time>2017-10-09T12:18:40Z</time>
      </trkpt>
      <trkpt lat="41.31323" lon="9.26404">
        <ele>0.14</ele>
        <time>2017-10-09T12:18:46Z</time>
      </trkpt>
      <trkpt lat="41.31314" lon="9.26411">
        <ele>-0.34</ele>
        <time>2017-10-09T12:18:58Z</time>
      </trkpt>
      <trkpt lat="41.3131" lon="9.26416">
        <ele>0.14</ele>
        <time>2017-10-09T12:19:04Z</time>
      </trkpt>
      <trkpt lat="41.31304" lon="9.26422">
        <ele>0.14</ele>
        <time>2017-10-09T12:19:11Z</time>
      </trkpt>
      <trkpt lat="41.31297" lon="9.26427">
        <ele>0.14</ele>
        <time>2017-10-09T12:19:18Z</time>
      </trkpt>
      <trkpt lat="41.31292" lon="9.26432">
        <ele>0.62</ele>
        <time>2017-10-09T12:19:23Z</time>
      </trkpt>
      <trkpt lat="41.31276" lon="9.26449">
        <ele>0.14</ele>
        <time>2017-10-09T12:19:40Z</time>
      </trkpt>
      <trkpt lat="41.3126" lon="9.26463">
        <ele>0.14</ele>
        <time>2017-10-09T12:19:54Z</time>
      </trkpt>
      <trkpt lat="41.31256" lon="9.26468">
        <ele>0.62</ele>
        <time>2017-10-09T12:19:58Z</time>
      </trkpt>
      <trkpt lat="41.31239" lon="9.26484">
        <ele>0.14</ele>
        <time>2017-10-09T12:20:13Z</time>
      </trkpt>
      <trkpt lat="41.31225" lon="9.265">
        <ele>0.62</ele>
        <time>2017-10-09T12:20:25Z</time>
      </trkpt>
      <trkpt lat="41.31204" lon="9.26526">
        <ele>1.58</ele>
        <time>2017-10-09T12:20:43Z</time>
      </trkpt>
      <trkpt lat="41.31186" lon="9.26548">
        <ele>1.58</ele>
        <time>2017-10-09T12:20:57Z</time>
      </trkpt>
      <trkpt lat="41.31169" lon="9.26569">
        <ele>0.62</ele>
        <time>2017-10-09T12:21:10Z</time>
      </trkpt>
      <trkpt lat="41.31151" lon="9.2659">
        <ele>0.62</ele>
        <time>2017-10-09T12:21:23Z</time>
      </trkpt>
      <trkpt lat="41.31135" lon="9.2661">
        <ele>0.14</ele>
        <time>2017-10-09T12:21:35Z</time>
      </trkpt>
      <trkpt lat="41.31119" lon="9.26631">
        <ele>0.62</ele>
        <time>2017-10-09T12:21:47Z</time>
      </trkpt>
      <trkpt lat="41.31118" lon="9.26634">
        <ele>0.62</ele>
        <time>2017-10-09T12:21:48Z</time>
      </trkpt>
      <trkpt lat="41.31115" lon="9.26636">
        <ele>0.14</ele>
        <time>2017-10-09T12:21:50Z</time>
      </trkpt>
      <trkpt lat="41.3111" lon="9.26643">
        <ele>0.62</ele>
        <time>2017-10-09T12:21:54Z</time>
      </trkpt>
      <trkpt lat="41.311" lon="9.26655">
        <ele>0.62</ele>
        <time>2017-10-09T12:22:01Z</time>
      </trkpt>
      <trkpt lat="41.3108" lon="9.26681">
        <ele>1.1</ele>
        <time>2017-10-09T12:22:16Z</time>
      </trkpt>
      <trkpt lat="41.31076" lon="9.26685">
        <ele>2.06</ele>
        <time>2017-10-09T12:22:19Z</time>
      </trkpt>
      <trkpt lat="41.31071" lon="9.26692">
        <ele>1.58</ele>
        <time>2017-10-09T12:22:23Z</time>
      </trkpt>
      <trkpt lat="41.31055" lon="9.26711">
        <ele>2.06</ele>
        <time>2017-10-09T12:22:35Z</time>
      </trkpt>
      <trkpt lat="41.31033" lon="9.26734">
        <ele>2.54</ele>
        <time>2017-10-09T12:22:51Z</time>
      </trkpt>
      <trkpt lat="41.31014" lon="9.2675">
        <ele>1.1</ele>
        <time>2017-10-09T12:23:04Z</time>
      </trkpt>
      <trkpt lat="41.30987" lon="9.26762">
        <ele>0.62</ele>
        <time>2017-10-09T12:23:18Z</time>
      </trkpt>
      <trkpt lat="41.30957" lon="9.2677">
        <ele>-0.34</ele>
        <time>2017-10-09T12:23:32Z</time>
      </trkpt>
      <trkpt lat="41.30954" lon="9.26769">
        <ele>-0.82</ele>
        <time>2017-10-09T12:23:33Z</time>
      </trkpt>
      <trkpt lat="41.30926" lon="9.2677">
        <ele>-0.82</ele>
        <time>2017-10-09T12:23:45Z</time>
      </trkpt>
      <trkpt lat="41.30898" lon="9.26767">
        <ele>1.1</ele>
        <time>2017-10-09T12:23:57Z</time>
      </trkpt>
      <trkpt lat="41.30867" lon="9.26759">
        <ele>-0.34</ele>
        <time>2017-10-09T12:24:09Z</time>
      </trkpt>
      <trkpt lat="41.30837" lon="9.26752">
        <ele>-0.34</ele>
        <time>2017-10-09T12:24:21Z</time>
      </trkpt>
      <trkpt lat="41.30807" lon="9.26742">
        <ele>-0.34</ele>
        <time>2017-10-09T12:24:33Z</time>
      </trkpt>
      <trkpt lat="41.30777" lon="9.2673">
        <ele>-0.34</ele>
        <time>2017-10-09T12:24:46Z</time>
      </trkpt>
      <trkpt lat="41.30754" lon="9.2672">
        <ele>-1.3</ele>
        <time>2017-10-09T12:24:56Z</time>
      </trkpt>
      <trkpt lat="41.30723" lon="9.26704">
        <ele>-1.3</ele>
        <time>2017-10-09T12:25:09Z</time>
      </trkpt>
      <trkpt lat="41.30701" lon="9.26694">
        <ele>-0.82</ele>
        <time>2017-10-09T12:25:18Z</time>
      </trkpt>
      <trkpt lat="41.30678" lon="9.26683">
        <ele>-0.34</ele>
        <time>2017-10-09T12:25:27Z</time>
      </trkpt>
      <trkpt lat="41.30647" lon="9.26667">
        <ele>-1.3</ele>
        <time>2017-10-09T12:25:40Z</time>
      </trkpt>
      <trkpt lat="41.30622" lon="9.26655">
        <ele>-1.3</ele>
        <time>2017-10-09T12:25:51Z</time>
      </trkpt>
      <trkpt lat="41.30594" lon="9.26641">
        <ele>-1.3</ele>
        <time>2017-10-09T12:26:03Z</time>
      </trkpt>
      <trkpt lat="41.30564" lon="9.26625">
        <ele>-0.82</ele>
        <time>2017-10-09T12:26:16Z</time>
      </trkpt>
      <trkpt lat="41.30539" lon="9.26613">
        <ele>-1.3</ele>
        <time>2017-10-09T12:26:26Z</time>
      </trkpt>
      <trkpt lat="41.30512" lon="9.26599">
        <ele>-1.3</ele>
        <time>2017-10-09T12:26:37Z</time>
      </trkpt>
      <trkpt lat="41.30484" lon="9.26585">
        <ele>-0.82</ele>
        <time>2017-10-09T12:26:48Z</time>
      </trkpt>
      <trkpt lat="41.30448" lon="9.26567">
        <ele>-0.82</ele>
        <time>2017-10-09T12:27:02Z</time>
      </trkpt>
      <trkpt lat="41.30426" lon="9.26556">
        <ele>-1.3</ele>
        <time>2017-10-09T12:27:11Z</time>
      </trkpt>
      <trkpt lat="41.30419" lon="9.26552">
        <ele>-0.82</ele>
        <time>2017-10-09T12:27:14Z</time>
      </trkpt>
      <trkpt lat="41.30391" lon="9.26535">
        <ele>-1.3</ele>
        <time>2017-10-09T12:27:26Z</time>
      </trkpt>
      <trkpt lat="41.30367" lon="9.26523">
        <ele>-1.3</ele>
        <time>2017-10-09T12:27:36Z</time>
      </trkpt>
      <trkpt lat="41.30342" lon="9.2651">
        <ele>-1.79</ele>
        <time>2017-10-09T12:27:46Z</time>
      </trkpt>
      <trkpt lat="41.30304" lon="9.2649">
        <ele>-2.27</ele>
        <time>2017-10-09T12:28:01Z</time>
      </trkpt>
      <trkpt lat="41.30274" lon="9.26475">
        <ele>-1.79</ele>
        <time>2017-10-09T12:28:13Z</time>
      </trkpt>
      <trkpt lat="41.30255" lon="9.26463">
        <ele>-1.3</ele>
        <time>2017-10-09T12:28:21Z</time>
      </trkpt>
      <trkpt lat="41.30226" lon="9.26449">
        <ele>-1.3</ele>
        <time>2017-10-09T12:28:32Z</time>
      </trkpt>
      <trkpt lat="41.30196" lon="9.26432">
        <ele>-2.27</ele>
        <time>2017-10-09T12:28:44Z</time>
      </trkpt>
      <trkpt lat="41.30167" lon="9.26418">
        <ele>-1.79</ele>
        <time>2017-10-09T12:28:55Z</time>
      </trkpt>
      <trkpt lat="41.30138" lon="9.26402">
        <ele>-2.27</ele>
        <time>2017-10-09T12:29:06Z</time>
      </trkpt>
      <trkpt lat="41.30123" lon="9.26396">
        <ele>-1.3</ele>
        <time>2017-10-09T12:29:12Z</time>
      </trkpt>
      <trkpt lat="41.30098" lon="9.26381">
        <ele>-1.79</ele>
        <time>2017-10-09T12:29:22Z</time>
      </trkpt>
      <trkpt lat="41.30072" lon="9.26368">
        <ele>-1.3</ele>
        <time>2017-10-09T12:29:33Z</time>
      </trkpt>
      <trkpt lat="41.30047" lon="9.26354">
        <ele>-1.79</ele>
        <time>2017-10-09T12:29:44Z</time>
      </trkpt>
      <trkpt lat="41.30018" lon="9.2634">
        <ele>-2.27</ele>
        <time>2017-10-09T12:29:56Z</time>
      </trkpt>
      <trkpt lat="41.29994" lon="9.26328">
        <ele>-2.27</ele>
        <time>2017-10-09T12:30:05Z</time>
      </trkpt>
      <trkpt lat="41.29981" lon="9.26319">
        <ele>-1.79</ele>
        <time>2017-10-09T12:30:10Z</time>
      </trkpt>
      <trkpt lat="41.29961" lon="9.26309">
        <ele>-1.79</ele>
        <time>2017-10-09T12:30:17Z</time>
      </trkpt>
      <trkpt lat="41.29926" lon="9.26293">
        <ele>-1.79</ele>
        <time>2017-10-09T12:30:29Z</time>
      </trkpt>
      <trkpt lat="41.29887" lon="9.26271">
        <ele>-1.79</ele>
        <time>2017-10-09T12:30:43Z</time>
      </trkpt>
      <trkpt lat="41.29854" lon="9.26254">
        <ele>-2.27</ele>
        <time>2017-10-09T12:30:55Z</time>
      </trkpt>
      <trkpt lat="41.29818" lon="9.26237">
        <ele>-2.27</ele>
        <time>2017-10-09T12:31:08Z</time>
      </trkpt>
      <trkpt lat="41.2979" lon="9.26223">
        <ele>-1.79</ele>
        <time>2017-10-09T12:31:18Z</time>
      </trkpt>
      <trkpt lat="41.29747" lon="9.26201">
        <ele>-2.75</ele>
        <time>2017-10-09T12:31:33Z</time>
      </trkpt>
      <trkpt lat="41.29711" lon="9.26184">
        <ele>-2.75</ele>
        <time>2017-10-09T12:31:45Z</time>
      </trkpt>
      <trkpt lat="41.29673" lon="9.26166">
        <ele>-2.75</ele>
        <time>2017-10-09T12:31:59Z</time>
      </trkpt>
      <trkpt lat="41.29646" lon="9.26154">
        <ele>-1.79</ele>
        <time>2017-10-09T12:32:09Z</time>
      </trkpt>
      <trkpt lat="41.29604" lon="9.26133">
        <ele>-2.75</ele>
        <time>2017-10-09T12:32:25Z</time>
      </trkpt>
      <trkpt lat="41.29574" lon="9.26118">
        <ele>-3.23</ele>
        <time>2017-10-09T12:32:36Z</time>
      </trkpt>
      <trkpt lat="41.29541" lon="9.26104">
        <ele>-2.75</ele>
        <time>2017-10-09T12:32:48Z</time>
      </trkpt>
      <trkpt lat="41.29508" lon="9.26089">
        <ele>-2.75</ele>
        <time>2017-10-09T12:33:00Z</time>
      </trkpt>
      <trkpt lat="41.29477" lon="9.26075">
        <ele>-2.75</ele>
        <time>2017-10-09T12:33:11Z</time>
      </trkpt>
      <trkpt lat="41.29446" lon="9.26061">
        <ele>-2.75</ele>
        <time>2017-10-09T12:33:22Z</time>
      </trkpt>
      <trkpt lat="41.29408" lon="9.26043">
        <ele>-2.75</ele>
        <time>2017-10-09T12:33:36Z</time>
      </trkpt>
      <trkpt lat="41.29378" lon="9.2603">
        <ele>-1.79</ele>
        <time>2017-10-09T12:33:47Z</time>
      </trkpt>
      <trkpt lat="41.29349" lon="9.26017">
        <ele>-1.3</ele>
        <time>2017-10-09T12:33:58Z</time>
      </trkpt>
      <trkpt lat="41.29321" lon="9.26004">
        <ele>-1.79</ele>
        <time>2017-10-09T12:34:08Z</time>
      </trkpt>
      <trkpt lat="41.29299" lon="9.25995">
        <ele>-1.79</ele>
        <time>2017-10-09T12:34:16Z</time>
      </trkpt>
      <trkpt lat="41.29263" lon="9.25979">
        <ele>-1.79</ele>
        <time>2017-10-09T12:34:29Z</time>
      </trkpt>
      <trkpt lat="41.29233" lon="9.25967">
        <ele>-1.79</ele>
        <time>2017-10-09T12:34:40Z</time>
      </trkpt>
      <trkpt lat="41.29202" lon="9.25954">
        <ele>-1.3</ele>
        <time>2017-10-09T12:34:52Z</time>
      </trkpt>
      <trkpt lat="41.29177" lon="9.25943">
        <ele>-1.79</ele>
        <time>2017-10-09T12:35:01Z</time>
      </trkpt>
      <trkpt lat="41.29147" lon="9.2593">
        <ele>-1.79</ele>
        <time>2017-10-09T12:35:12Z</time>
      </trkpt>
      <trkpt lat="41.2911" lon="9.25915">
        <ele>-1.79</ele>
        <time>2017-10-09T12:35:25Z</time>
      </trkpt>
      <trkpt lat="41.29098" lon="9.25911">
        <ele>-1.3</ele>
        <time>2017-10-09T12:35:29Z</time>
      </trkpt>
      <trkpt lat="41.29061" lon="9.25894">
        <ele>-1.79</ele>
        <time>2017-10-09T12:35:42Z</time>
      </trkpt>
      <trkpt lat="41.29023" lon="9.25879">
        <ele>-1.3</ele>
        <time>2017-10-09T12:35:55Z</time>
      </trkpt>
      <trkpt lat="41.28991" lon="9.25866">
        <ele>-0.82</ele>
        <time>2017-10-09T12:36:06Z</time>
      </trkpt>
      <trkpt lat="41.28958" lon="9.25853">
        <ele>-1.79</ele>
        <time>2017-10-09T12:36:18Z</time>
      </trkpt>
      <trkpt lat="41.2892" lon="9.25837">
        <ele>-1.79</ele>
        <time>2017-10-09T12:36:32Z</time>
      </trkpt>
      <trkpt lat="41.28877" lon="9.25818">
        <ele>-1.79</ele>
        <time>2017-10-09T12:36:47Z</time>
      </trkpt>
      <trkpt lat="41.2883" lon="9.25799">
        <ele>-2.75</ele>
        <time>2017-10-09T12:37:04Z</time>
      </trkpt>
      <trkpt lat="41.28789" lon="9.2578">
        <ele>-2.27</ele>
        <time>2017-10-09T12:37:18Z</time>
      </trkpt>
      <trkpt lat="41.28754" lon="9.25765">
        <ele>-1.79</ele>
        <time>2017-10-09T12:37:30Z</time>
      </trkpt>
      <trkpt lat="41.28718" lon="9.25751">
        <ele>-1.79</ele>
        <time>2017-10-09T12:37:42Z</time>
      </trkpt>
      <trkpt lat="41.28674" lon="9.25733">
        <ele>-1.3</ele>
        <time>2017-10-09T12:37:57Z</time>
      </trkpt>
      <trkpt lat="41.28628" lon="9.25713">
        <ele>-1.3</ele>
        <time>2017-10-09T12:38:13Z</time>
      </trkpt>
      <trkpt lat="41.28582" lon="9.25694">
        <ele>-1.3</ele>
        <time>2017-10-09T12:38:29Z</time>
      </trkpt>
      <trkpt lat="41.28551" lon="9.25682">
        <ele>-2.27</ele>
        <time>2017-10-09T12:38:40Z</time>
      </trkpt>
      <trkpt lat="41.28514" lon="9.25667">
        <ele>-2.27</ele>
        <time>2017-10-09T12:38:53Z</time>
      </trkpt>
      <trkpt lat="41.28478" lon="9.25654">
        <ele>-1.79</ele>
        <time>2017-10-09T12:39:06Z</time>
      </trkpt>
      <trkpt lat="41.28441" lon="9.25639">
        <ele>-1.3</ele>
        <time>2017-10-09T12:39:19Z</time>
      </trkpt>
      <trkpt lat="41.28398" lon="9.2562">
        <ele>-0.82</ele>
        <time>2017-10-09T12:39:34Z</time>
      </trkpt>
      <trkpt lat="41.28361" lon="9.25604">
        <ele>-0.82</ele>
        <time>2017-10-09T12:39:47Z</time>
      </trkpt>
      <trkpt lat="41.28318" lon="9.25586">
        <ele>-0.82</ele>
        <time>2017-10-09T12:40:02Z</time>
      </trkpt>
      <trkpt lat="41.28274" lon="9.25565">
        <ele>-1.3</ele>
        <time>2017-10-09T12:40:17Z</time>
      </trkpt>
      <trkpt lat="41.28232" lon="9.25547">
        <ele>-1.3</ele>
        <time>2017-10-09T12:40:31Z</time>
      </trkpt>
      <trkpt lat="41.28198" lon="9.25531">
        <ele>-1.3</ele>
        <time>2017-10-09T12:40:42Z</time>
      </trkpt>
      <trkpt lat="41.2816" lon="9.25515">
        <ele>-1.79</ele>
        <time>2017-10-09T12:40:54Z</time>
      </trkpt>
      <trkpt lat="41.2812" lon="9.25496">
        <ele>-0.82</ele>
        <time>2017-10-09T12:41:07Z</time>
      </trkpt>
      <trkpt lat="41.28079" lon="9.25481">
        <ele>-0.82</ele>
        <time>2017-10-09T12:41:21Z</time>
      </trkpt>
      <trkpt lat="41.28044" lon="9.25466">
        <ele>-0.82</ele>
        <time>2017-10-09T12:41:33Z</time>
      </trkpt>
      <trkpt lat="41.28006" lon="9.2545">
        <ele>-0.34</ele>
        <time>2017-10-09T12:41:45Z</time>
      </trkpt>
      <trkpt lat="41.2797" lon="9.25438">
        <ele>-0.82</ele>
        <time>2017-10-09T12:41:56Z</time>
      </trkpt>
      <trkpt lat="41.27922" lon="9.25422">
        <ele>-0.82</ele>
        <time>2017-10-09T12:42:11Z</time>
      </trkpt>
      <trkpt lat="41.27879" lon="9.25408">
        <ele>-0.34</ele>
        <time>2017-10-09T12:42:25Z</time>
      </trkpt>
      <trkpt lat="41.27844" lon="9.25398">
        <ele>-0.82</ele>
        <time>2017-10-09T12:42:37Z</time>
      </trkpt>
      <trkpt lat="41.27808" lon="9.25389">
        <ele>-0.82</ele>
        <time>2017-10-09T12:42:49Z</time>
      </trkpt>
      <trkpt lat="41.27772" lon="9.25378">
        <ele>-1.3</ele>
        <time>2017-10-09T12:43:01Z</time>
      </trkpt>
      <trkpt lat="41.27732" lon="9.25364">
        <ele>-1.3</ele>
        <time>2017-10-09T12:43:14Z</time>
      </trkpt>
      <trkpt lat="41.27689" lon="9.25347">
        <ele>-0.82</ele>
        <time>2017-10-09T12:43:28Z</time>
      </trkpt>
      <trkpt lat="41.27651" lon="9.25336">
        <ele>-0.82</ele>
        <time>2017-10-09T12:43:40Z</time>
      </trkpt>
      <trkpt lat="41.27615" lon="9.25327">
        <ele>-0.82</ele>
        <time>2017-10-09T12:43:52Z</time>
      </trkpt>
      <trkpt lat="41.27577" lon="9.25313">
        <ele>-0.82</ele>
        <time>2017-10-09T12:44:05Z</time>
      </trkpt>
      <trkpt lat="41.27552" lon="9.25303">
        <ele>0.14</ele>
        <time>2017-10-09T12:44:14Z</time>
      </trkpt>
      <trkpt lat="41.27512" lon="9.25288">
        <ele>0.14</ele>
        <time>2017-10-09T12:44:28Z</time>
      </trkpt>
      <trkpt lat="41.27477" lon="9.25276">
        <ele>-0.34</ele>
        <time>2017-10-09T12:44:40Z</time>
      </trkpt>
      <trkpt lat="41.27432" lon="9.2526">
        <ele>-1.3</ele>
        <time>2017-10-09T12:44:55Z</time>
      </trkpt>
      <trkpt lat="41.27385" lon="9.25242">
        <ele>-0.82</ele>
        <time>2017-10-09T12:45:11Z</time>
      </trkpt>
      <trkpt lat="41.27353" lon="9.25233">
        <ele>-0.34</ele>
        <time>2017-10-09T12:45:22Z</time>
      </trkpt>
      <trkpt lat="41.27314" lon="9.2522">
        <ele>-0.34</ele>
        <time>2017-10-09T12:45:36Z</time>
      </trkpt>
      <trkpt lat="41.27275" lon="9.25205">
        <ele>-0.34</ele>
        <time>2017-10-09T12:45:50Z</time>
      </trkpt>
      <trkpt lat="41.27241" lon="9.25192">
        <ele>-0.34</ele>
        <time>2017-10-09T12:46:02Z</time>
      </trkpt>
      <trkpt lat="41.27204" lon="9.25181">
        <ele>-0.34</ele>
        <time>2017-10-09T12:46:15Z</time>
      </trkpt>
      <trkpt lat="41.27163" lon="9.25169">
        <ele>0.14</ele>
        <time>2017-10-09T12:46:30Z</time>
      </trkpt>
      <trkpt lat="41.27125" lon="9.25155">
        <ele>0.14</ele>
        <time>2017-10-09T12:46:43Z</time>
      </trkpt>
      <trkpt lat="41.2709" lon="9.25143">
        <ele>-0.34</ele>
        <time>2017-10-09T12:46:55Z</time>
      </trkpt>
      <trkpt lat="41.27051" lon="9.25129">
        <ele>0.14</ele>
        <time>2017-10-09T12:47:08Z</time>
      </trkpt>
      <trkpt lat="41.27011" lon="9.25116">
        <ele>0.62</ele>
        <time>2017-10-09T12:47:21Z</time>
      </trkpt>
      <trkpt lat="41.26978" lon="9.25103">
        <ele>0.14</ele>
        <time>2017-10-09T12:47:32Z</time>
      </trkpt>
      <trkpt lat="41.26938" lon="9.2509">
        <ele>0.14</ele>
        <time>2017-10-09T12:47:45Z</time>
      </trkpt>
      <trkpt lat="41.26899" lon="9.25076">
        <ele>0.14</ele>
        <time>2017-10-09T12:47:58Z</time>
      </trkpt>
      <trkpt lat="41.26866" lon="9.25064">
        <ele>-0.34</ele>
        <time>2017-10-09T12:48:09Z</time>
      </trkpt>
      <trkpt lat="41.26828" lon="9.25051">
        <ele>-0.34</ele>
        <time>2017-10-09T12:48:22Z</time>
      </trkpt>
      <trkpt lat="41.26789" lon="9.25038">
        <ele>0.14</ele>
        <time>2017-10-09T12:48:35Z</time>
      </trkpt>
      <trkpt lat="41.2674" lon="9.25022">
        <ele>-0.34</ele>
        <time>2017-10-09T12:48:52Z</time>
      </trkpt>
      <trkpt lat="41.26691" lon="9.25004">
        <ele>0.14</ele>
        <time>2017-10-09T12:49:08Z</time>
      </trkpt>
      <trkpt lat="41.26644" lon="9.24989">
        <ele>0.14</ele>
        <time>2017-10-09T12:49:23Z</time>
      </trkpt>
      <trkpt lat="41.26602" lon="9.24975">
        <ele>0.14</ele>
        <time>2017-10-09T12:49:37Z</time>
      </trkpt>
      <trkpt lat="41.2656" lon="9.24962">
        <ele>0.62</ele>
        <time>2017-10-09T12:49:51Z</time>
      </trkpt>
      <trkpt lat="41.26508" lon="9.24943">
        <ele>0.62</ele>
        <time>2017-10-09T12:50:09Z</time>
      </trkpt>
      <trkpt lat="41.2647" lon="9.24929">
        <ele>0.62</ele>
        <time>2017-10-09T12:50:22Z</time>
      </trkpt>
      <trkpt lat="41.26425" lon="9.24914">
        <ele>1.1</ele>
        <time>2017-10-09T12:50:37Z</time>
      </trkpt>
      <trkpt lat="41.26381" lon="9.24894">
        <ele>0.14</ele>
        <time>2017-10-09T12:50:52Z</time>
      </trkpt>
      <trkpt lat="41.26342" lon="9.24879">
        <ele>0.62</ele>
        <time>2017-10-09T12:51:05Z</time>
      </trkpt>
      <trkpt lat="41.26302" lon="9.2486">
        <ele>0.14</ele>
        <time>2017-10-09T12:51:18Z</time>
      </trkpt>
      <trkpt lat="41.26256" lon="9.24843">
        <ele>0.62</ele>
        <time>2017-10-09T12:51:33Z</time>
      </trkpt>
      <trkpt lat="41.26207" lon="9.24827">
        <ele>0.62</ele>
        <time>2017-10-09T12:51:49Z</time>
      </trkpt>
      <trkpt lat="41.26161" lon="9.24815">
        <ele>0.62</ele>
        <time>2017-10-09T12:52:04Z</time>
      </trkpt>
      <trkpt lat="41.26108" lon="9.24803">
        <ele>0.14</ele>
        <time>2017-10-09T12:52:21Z</time>
      </trkpt>
      <trkpt lat="41.26065" lon="9.24785">
        <ele>0.14</ele>
        <time>2017-10-09T12:52:35Z</time>
      </trkpt>
      <trkpt lat="41.26016" lon="9.24772">
        <ele>0.14</ele>
        <time>2017-10-09T12:52:51Z</time>
      </trkpt>
      <trkpt lat="41.25966" lon="9.24751">
        <ele>0.14</ele>
        <time>2017-10-09T12:53:08Z</time>
      </trkpt>
      <trkpt lat="41.25926" lon="9.24746">
        <ele>0.14</ele>
        <time>2017-10-09T12:53:21Z</time>
      </trkpt>
      <trkpt lat="41.25878" lon="9.24738">
        <ele>0.62</ele>
        <time>2017-10-09T12:53:37Z</time>
      </trkpt>
      <trkpt lat="41.25834" lon="9.24719">
        <ele>1.1</ele>
        <time>2017-10-09T12:53:52Z</time>
      </trkpt>
      <trkpt lat="41.25784" lon="9.24701">
        <ele>1.1</ele>
        <time>2017-10-09T12:54:09Z</time>
      </trkpt>
      <trkpt lat="41.25739" lon="9.24683">
        <ele>1.1</ele>
        <time>2017-10-09T12:54:24Z</time>
      </trkpt>
      <trkpt lat="41.25697" lon="9.24669">
        <ele>1.1</ele>
        <time>2017-10-09T12:54:38Z</time>
      </trkpt>
      <trkpt lat="41.25641" lon="9.24646">
        <ele>1.58</ele>
        <time>2017-10-09T12:54:58Z</time>
      </trkpt>
      <trkpt lat="41.25588" lon="9.24618">
        <ele>2.06</ele>
        <time>2017-10-09T12:55:17Z</time>
      </trkpt>
      <trkpt lat="41.25541" lon="9.24591">
        <ele>1.58</ele>
        <time>2017-10-09T12:55:34Z</time>
      </trkpt>
      <trkpt lat="41.255" lon="9.24566">
        <ele>2.06</ele>
        <time>2017-10-09T12:55:50Z</time>
      </trkpt>
      <trkpt lat="41.25447" lon="9.24522">
        <ele>1.58</ele>
        <time>2017-10-09T12:56:12Z</time>
      </trkpt>
      <trkpt lat="41.25395" lon="9.24465">
        <ele>1.1</ele>
        <time>2017-10-09T12:56:33Z</time>
      </trkpt>
      <trkpt lat="41.25343" lon="9.24411">
        <ele>0.14</ele>
        <time>2017-10-09T12:56:53Z</time>
      </trkpt>
      <trkpt lat="41.25297" lon="9.24366">
        <ele>0.62</ele>
        <time>2017-10-09T12:57:11Z</time>
      </trkpt>
      <trkpt lat="41.25237" lon="9.2431">
        <ele>1.1</ele>
        <time>2017-10-09T12:57:34Z</time>
      </trkpt>
      <trkpt lat="41.25185" lon="9.24265">
        <ele>0.62</ele>
        <time>2017-10-09T12:57:53Z</time>
      </trkpt>
      <trkpt lat="41.25136" lon="9.24218">
        <ele>0.14</ele>
        <time>2017-10-09T12:58:12Z</time>
      </trkpt>
      <trkpt lat="41.2508" lon="9.24168">
        <ele>0.14</ele>
        <time>2017-10-09T12:58:32Z</time>
      </trkpt>
      <trkpt lat="41.25013" lon="9.24127">
        <ele>0.14</ele>
        <time>2017-10-09T12:58:55Z</time>
      </trkpt>
      <trkpt lat="41.24951" lon="9.24081">
        <ele>0.62</ele>
        <time>2017-10-09T12:59:16Z</time>
      </trkpt>
      <trkpt lat="41.24891" lon="9.24052">
        <ele>-0.34</ele>
        <time>2017-10-09T12:59:38Z</time>
      </trkpt>
      <trkpt lat="41.24846" lon="9.24035">
        <ele>0.14</ele>
        <time>2017-10-09T12:59:57Z</time>
      </trkpt>
      <trkpt lat="41.24781" lon="9.24001">
        <ele>0.14</ele>
        <time>2017-10-09T13:00:28Z</time>
      </trkpt>
      <trkpt lat="41.24747" lon="9.23972">
        <ele>0.62</ele>
        <time>2017-10-09T13:00:49Z</time>
      </trkpt>
      <trkpt lat="41.24716" lon="9.23944">
        <ele>0.14</ele>
        <time>2017-10-09T13:01:15Z</time>
      </trkpt>
      <trkpt lat="41.24693" lon="9.23924">
        <ele>1.1</ele>
        <time>2017-10-09T13:01:44Z</time>
      </trkpt>
      <trkpt lat="41.24679" lon="9.23917">
        <ele>1.1</ele>
        <time>2017-10-09T13:02:10Z</time>
      </trkpt>
      <trkpt lat="41.24671" lon="9.23915">
        <ele>1.1</ele>
        <time>2017-10-09T13:02:35Z</time>
      </trkpt>
      <trkpt lat="41.24658" lon="9.23918">
        <ele>0.62</ele>
        <time>2017-10-09T13:02:59Z</time>
      </trkpt>
      <trkpt lat="41.24658" lon="9.23931">
        <ele>1.58</ele>
        <time>2017-10-09T13:03:23Z</time>
      </trkpt>
      <trkpt lat="41.24656" lon="9.23943">
        <ele>1.1</ele>
        <time>2017-10-09T13:03:48Z</time>
      </trkpt>
      <trkpt lat="41.24656" lon="9.23942">
        <ele>0.14</ele>
        <time>2017-10-09T13:04:11Z</time>
      </trkpt>
      <trkpt lat="41.24656" lon="9.23942">
        <ele>0.14</ele>
        <time>2017-10-09T13:04:27Z</time>
      </trkpt>
      <trkpt lat="41.24648" lon="9.2395">
        <ele>0.62</ele>
        <time>2017-10-09T13:04:48Z</time>
      </trkpt>
      <trkpt lat="41.24648" lon="9.23948">
        <ele>0.62</ele>
        <time>2017-10-09T13:05:12Z</time>
      </trkpt>
      <trkpt lat="41.24648" lon="9.23947">
        <ele>0.62</ele>
        <time>2017-10-09T13:05:31Z</time>
      </trkpt>
      <trkpt lat="41.2465" lon="9.23947">
        <ele>0.62</ele>
        <time>2017-10-09T13:05:53Z</time>
      </trkpt>
      <trkpt lat="41.24651" lon="9.23949">
        <ele>-0.34</ele>
        <time>2017-10-09T13:06:14Z</time>
      </trkpt>
      <trkpt lat="41.24652" lon="9.23949">
        <ele>-0.82</ele>
        <time>2017-10-09T13:06:35Z</time>
      </trkpt>
      <trkpt lat="41.24651" lon="9.23947">
        <ele>-0.34</ele>
        <time>2017-10-09T13:06:59Z</time>
      </trkpt>
      <trkpt lat="41.24653" lon="9.23948">
        <ele>-0.34</ele>
        <time>2017-10-09T13:07:17Z</time>
      </trkpt>
      <trkpt lat="41.24654" lon="9.2395">
        <ele>-0.34</ele>
        <time>2017-10-09T13:07:39Z</time>
      </trkpt>
      <trkpt lat="41.24654" lon="9.2395">
        <ele>-0.82</ele>
        <time>2017-10-09T13:08:00Z</time>
      </trkpt>
      <trkpt lat="41.24649" lon="9.23961">
        <ele>0.62</ele>
        <time>2017-10-09T13:08:27Z</time>
      </trkpt>
      <trkpt lat="41.24647" lon="9.23961">
        <ele>-0.34</ele>
        <time>2017-10-09T13:08:52Z</time>
      </trkpt>
      <trkpt lat="41.24646" lon="9.23967">
        <ele>-0.82</ele>
        <time>2017-10-09T13:09:12Z</time>
      </trkpt>
      <trkpt lat="41.24647" lon="9.23969">
        <ele>-0.82</ele>
        <time>2017-10-09T13:09:35Z</time>
      </trkpt>
      <trkpt lat="41.24647" lon="9.23968">
        <ele>-0.82</ele>
        <time>2017-10-09T13:10:02Z</time>
      </trkpt>
      <trkpt lat="41.24645" lon="9.23975">
        <ele>-0.34</ele>
        <time>2017-10-09T13:10:27Z</time>
      </trkpt>
      <trkpt lat="41.24643" lon="9.23976">
        <ele>-0.34</ele>
        <time>2017-10-09T13:10:51Z</time>
      </trkpt>
      <trkpt lat="41.24643" lon="9.23975">
        <ele>0.14</ele>
        <time>2017-10-09T13:11:15Z</time>
      </trkpt>
      <trkpt lat="41.24649" lon="9.23978">
        <ele>0.14</ele>
        <time>2017-10-09T13:11:37Z</time>
      </trkpt>
      <trkpt lat="41.2465" lon="9.23979">
        <ele>0.14</ele>
        <time>2017-10-09T13:11:57Z</time>
      </trkpt>
      <trkpt lat="41.2465" lon="9.23977">
        <ele>0.14</ele>
        <time>2017-10-09T13:12:24Z</time>
      </trkpt>
      <trkpt lat="41.24648" lon="9.23975">
        <ele>0.14</ele>
        <time>2017-10-09T13:12:49Z</time>
      </trkpt>
      <trkpt lat="41.24644" lon="9.23975">
        <ele>-0.34</ele>
        <time>2017-10-09T13:13:12Z</time>
      </trkpt>
      <trkpt lat="41.24641" lon="9.23975">
        <ele>-0.34</ele>
        <time>2017-10-09T13:13:30Z</time>
      </trkpt>
      <trkpt lat="41.24642" lon="9.23975">
        <ele>0.62</ele>
        <time>2017-10-09T13:13:53Z</time>
      </trkpt>
      <trkpt lat="41.24645" lon="9.23976">
        <ele>1.1</ele>
        <time>2017-10-09T13:14:17Z</time>
      </trkpt>
      <trkpt lat="41.24647" lon="9.23977">
        <ele>0.14</ele>
        <time>2017-10-09T13:14:38Z</time>
      </trkpt>
      <trkpt lat="41.24648" lon="9.23977">
        <ele>0.14</ele>
        <time>2017-10-09T13:14:58Z</time>
      </trkpt>
      <trkpt lat="41.24647" lon="9.23976">
        <ele>0.62</ele>
        <time>2017-10-09T13:15:25Z</time>
      </trkpt>
      <trkpt lat="41.24639" lon="9.23975">
        <ele>-0.82</ele>
        <time>2017-10-09T13:15:47Z</time>
      </trkpt>
      <trkpt lat="41.24639" lon="9.23975">
        <ele>0.62</ele>
        <time>2017-10-09T13:16:12Z</time>
      </trkpt>
      <trkpt lat="41.24642" lon="9.23975">
        <ele>0.62</ele>
        <time>2017-10-09T13:16:33Z</time>
      </trkpt>
      <trkpt lat="41.24646" lon="9.23977">
        <ele>0.14</ele>
        <time>2017-10-09T13:16:52Z</time>
      </trkpt>
      <trkpt lat="41.24649" lon="9.23977">
        <ele>-0.34</ele>
        <time>2017-10-09T13:17:14Z</time>
      </trkpt>
      <trkpt lat="41.2465" lon="9.23976">
        <ele>-0.82</ele>
        <time>2017-10-09T13:17:31Z</time>
      </trkpt>
      <trkpt lat="41.24646" lon="9.23976">
        <ele>-0.34</ele>
        <time>2017-10-09T13:17:57Z</time>
      </trkpt>
      <trkpt lat="41.24643" lon="9.23976">
        <ele>-0.82</ele>
        <time>2017-10-09T13:18:20Z</time>
      </trkpt>
      <trkpt lat="41.24644" lon="9.23976">
        <ele>-0.34</ele>
        <time>2017-10-09T13:18:36Z</time>
      </trkpt>
      <trkpt lat="41.24645" lon="9.23975">
        <ele>-0.34</ele>
        <time>2017-10-09T13:18:54Z</time>
      </trkpt>
      <trkpt lat="41.24647" lon="9.23976">
        <ele>0.14</ele>
        <time>2017-10-09T13:19:16Z</time>
      </trkpt>
      <trkpt lat="41.24649" lon="9.23977">
        <ele>-0.34</ele>
        <time>2017-10-09T13:19:34Z</time>
      </trkpt>
      <trkpt lat="41.24647" lon="9.23977">
        <ele>-0.34</ele>
        <time>2017-10-09T13:19:53Z</time>
      </trkpt>
      <trkpt lat="41.24646" lon="9.23976">
        <ele>-0.34</ele>
        <time>2017-10-09T13:20:12Z</time>
      </trkpt>
      <trkpt lat="41.24643" lon="9.23975">
        <ele>-1.3</ele>
        <time>2017-10-09T13:20:37Z</time>
      </trkpt>
      <trkpt lat="41.24643" lon="9.23976">
        <ele>-0.34</ele>
        <time>2017-10-09T13:20:56Z</time>
      </trkpt>
      <trkpt lat="41.24645" lon="9.23978">
        <ele>-0.34</ele>
        <time>2017-10-09T13:21:22Z</time>
      </trkpt>
      <trkpt lat="41.24647" lon="9.23978">
        <ele>-1.3</ele>
        <time>2017-10-09T13:21:44Z</time>
      </trkpt>
      <trkpt lat="41.24649" lon="9.23978">
        <ele>-1.79</ele>
        <time>2017-10-09T13:22:06Z</time>
      </trkpt>
      <trkpt lat="41.2465" lon="9.23978">
        <ele>-1.3</ele>
        <time>2017-10-09T13:22:27Z</time>
      </trkpt>
      <trkpt lat="41.2465" lon="9.23977">
        <ele>-0.82</ele>
        <time>2017-10-09T13:22:49Z</time>
      </trkpt>
      <trkpt lat="41.24648" lon="9.23976">
        <ele>-0.34</ele>
        <time>2017-10-09T13:23:08Z</time>
      </trkpt>
      <trkpt lat="41.24645" lon="9.23975">
        <ele>0.62</ele>
        <time>2017-10-09T13:23:30Z</time>
      </trkpt>
      <trkpt lat="41.24642" lon="9.23974">
        <ele>0.62</ele>
        <time>2017-10-09T13:23:50Z</time>
      </trkpt>
      <trkpt lat="41.24641" lon="9.23975">
        <ele>-0.34</ele>
        <time>2017-10-09T13:24:12Z</time>
      </trkpt>
      <trkpt lat="41.24643" lon="9.23977">
        <ele>-0.34</ele>
        <time>2017-10-09T13:24:36Z</time>
      </trkpt>
      <trkpt lat="41.24645" lon="9.23977">
        <ele>-0.34</ele>
        <time>2017-10-09T13:24:57Z</time>
      </trkpt>
      <trkpt lat="41.24647" lon="9.23978">
        <ele>-0.34</ele>
        <time>2017-10-09T13:25:16Z</time>
      </trkpt>
      <trkpt lat="41.24651" lon="9.23978">
        <ele>-0.82</ele>
        <time>2017-10-09T13:25:37Z</time>
      </trkpt>
      <trkpt lat="41.24652" lon="9.23977">
        <ele>-0.82</ele>
        <time>2017-10-09T13:26:01Z</time>
      </trkpt>
      <trkpt lat="41.2465" lon="9.23977">
        <ele>-0.82</ele>
        <time>2017-10-09T13:26:23Z</time>
      </trkpt>
      <trkpt lat="41.24649" lon="9.23977">
        <ele>-0.82</ele>
        <time>2017-10-09T13:26:44Z</time>
      </trkpt>
      <trkpt lat="41.24646" lon="9.23979">
        <ele>0.14</ele>
        <time>2017-10-09T13:27:05Z</time>
      </trkpt>
      <trkpt lat="41.24646" lon="9.23977">
        <ele>-0.82</ele>
        <time>2017-10-09T13:27:30Z</time>
      </trkpt>
      <trkpt lat="41.24649" lon="9.23977">
        <ele>-1.3</ele>
        <time>2017-10-09T13:27:49Z</time>
      </trkpt>
      <trkpt lat="41.24652" lon="9.23978">
        <ele>-1.3</ele>
        <time>2017-10-09T13:28:10Z</time>
      </trkpt>
      <trkpt lat="41.24653" lon="9.23977">
        <ele>-1.79</ele>
        <time>2017-10-09T13:28:31Z</time>
      </trkpt>
      <trkpt lat="41.24653" lon="9.23977">
        <ele>-0.82</ele>
        <time>2017-10-09T13:28:54Z</time>
      </trkpt>
      <trkpt lat="41.2465" lon="9.23977">
        <ele>-0.82</ele>
        <time>2017-10-09T13:29:17Z</time>
      </trkpt>
      <trkpt lat="41.24648" lon="9.23978">
        <ele>0.14</ele>
        <time>2017-10-09T13:29:38Z</time>
      </trkpt>
      <trkpt lat="41.24647" lon="9.23978">
        <ele>-0.34</ele>
        <time>2017-10-09T13:29:57Z</time>
      </trkpt>
      <trkpt lat="41.24648" lon="9.23978">
        <ele>0.14</ele>
        <time>2017-10-09T13:30:18Z</time>
      </trkpt>
      <trkpt lat="41.2465" lon="9.23977">
        <ele>0.14</ele>
        <time>2017-10-09T13:30:36Z</time>
      </trkpt>
      <trkpt lat="41.24651" lon="9.23977">
        <ele>-0.34</ele>
        <time>2017-10-09T13:30:56Z</time>
      </trkpt>
      <trkpt lat="41.24652" lon="9.23977">
        <ele>-0.82</ele>
        <time>2017-10-09T13:31:17Z</time>
      </trkpt>
      <trkpt lat="41.24651" lon="9.23977">
        <ele>-0.34</ele>
        <time>2017-10-09T13:31:39Z</time>
      </trkpt>
      <trkpt lat="41.2465" lon="9.23976">
        <ele>0.14</ele>
        <time>2017-10-09T13:32:02Z</time>
      </trkpt>
      <trkpt lat="41.24646" lon="9.23976">
        <ele>0.62</ele>
        <time>2017-10-09T13:32:24Z</time>
      </trkpt>
      <trkpt lat="41.24641" lon="9.23975">
        <ele>0.62</ele>
        <time>2017-10-09T13:32:47Z</time>
      </trkpt>
      <trkpt lat="41.2464" lon="9.23974">
        <ele>0.14</ele>
        <time>2017-10-09T13:33:09Z</time>
      </trkpt>
      <trkpt lat="41.2464" lon="9.23975">
        <ele>0.14</ele>
        <time>2017-10-09T13:33:27Z</time>
      </trkpt>
      <trkpt lat="41.24642" lon="9.23976">
        <ele>-0.34</ele>
        <time>2017-10-09T13:33:45Z</time>
      </trkpt>
      <trkpt lat="41.24644" lon="9.23976">
        <ele>-0.34</ele>
        <time>2017-10-09T13:34:07Z</time>
      </trkpt>
      <trkpt lat="41.24645" lon="9.23976">
        <ele>-0.34</ele>
        <time>2017-10-09T13:34:21Z</time>
      </trkpt>
      <trkpt lat="41.24643" lon="9.23976">
        <ele>-0.34</ele>
        <time>2017-10-09T13:34:41Z</time>
      </trkpt>
      <trkpt lat="41.24641" lon="9.23975">
        <ele>0.14</ele>
        <time>2017-10-09T13:35:04Z</time>
      </trkpt>
      <trkpt lat="41.2464" lon="9.23975">
        <ele>-0.34</ele>
        <time>2017-10-09T13:35:27Z</time>
      </trkpt>
      <trkpt lat="41.24641" lon="9.23976">
        <ele>-0.82</ele>
        <time>2017-10-09T13:35:50Z</time>
      </trkpt>
      <trkpt lat="41.24643" lon="9.23977">
        <ele>-1.79</ele>
        <time>2017-10-09T13:36:08Z</time>
      </trkpt>
      <trkpt lat="41.24646" lon="9.23977">
        <ele>-1.3</ele>
        <time>2017-10-09T13:36:28Z</time>
      </trkpt>
      <trkpt lat="41.24647" lon="9.23977">
        <ele>-1.3</ele>
        <time>2017-10-09T13:36:48Z</time>
      </trkpt>
      <trkpt lat="41.24648" lon="9.23977">
        <ele>-1.3</ele>
        <time>2017-10-09T13:37:06Z</time>
      </trkpt>
      <trkpt lat="41.24648" lon="9.23978">
        <ele>-1.3</ele>
        <time>2017-10-09T13:37:25Z</time>
      </trkpt>
      <trkpt lat="41.24649" lon="9.23977">
        <ele>-1.3</ele>
        <time>2017-10-09T13:37:48Z</time>
      </trkpt>
      <trkpt lat="41.2465" lon="9.23976">
        <ele>-0.82</ele>
        <time>2017-10-09T13:38:09Z</time>
      </trkpt>
      <trkpt lat="41.24649" lon="9.23977">
        <ele>-0.82</ele>
        <time>2017-10-09T13:38:29Z</time>
      </trkpt>
      <trkpt lat="41.24645" lon="9.23978">
        <ele>-0.34</ele>
        <time>2017-10-09T13:38:48Z</time>
      </trkpt>
      <trkpt lat="41.24647" lon="9.23977">
        <ele>-0.82</ele>
        <time>2017-10-09T13:39:09Z</time>
      </trkpt>
      <trkpt lat="41.24648" lon="9.23977">
        <ele>-0.82</ele>
        <time>2017-10-09T13:39:24Z</time>
      </trkpt>
      <trkpt lat="41.24651" lon="9.23977">
        <ele>-1.3</ele>
        <time>2017-10-09T13:39:43Z</time>
      </trkpt>
      <trkpt lat="41.24652" lon="9.23977">
        <ele>-1.79</ele>
        <time>2017-10-09T13:40:04Z</time>
      </trkpt>
      <trkpt lat="41.24652" lon="9.23975">
        <ele>-1.79</ele>
        <time>2017-10-09T13:40:22Z</time>
      </trkpt>
      <trkpt lat="41.2465" lon="9.23976">
        <ele>-1.79</ele>
        <time>2017-10-09T13:40:49Z</time>
      </trkpt>
      <trkpt lat="41.24645" lon="9.23978">
        <ele>-1.3</ele>
        <time>2017-10-09T13:41:10Z</time>
      </trkpt>
      <trkpt lat="41.24645" lon="9.23977">
        <ele>-0.82</ele>
        <time>2017-10-09T13:41:28Z</time>
      </trkpt>
      <trkpt lat="41.24648" lon="9.23976">
        <ele>-1.3</ele>
        <time>2017-10-09T13:41:51Z</time>
      </trkpt>
      <trkpt lat="41.24653" lon="9.23977">
        <ele>-1.79</ele>
        <time>2017-10-09T13:42:10Z</time>
      </trkpt>
      <trkpt lat="41.24653" lon="9.23976">
        <ele>-1.79</ele>
        <time>2017-10-09T13:42:35Z</time>
      </trkpt>
      <trkpt lat="41.24652" lon="9.23976">
        <ele>-1.79</ele>
        <time>2017-10-09T13:42:54Z</time>
      </trkpt>
      <trkpt lat="41.2465" lon="9.23977">
        <ele>-1.3</ele>
        <time>2017-10-09T13:43:16Z</time>
      </trkpt>
      <trkpt lat="41.24644" lon="9.23975">
        <ele>-0.82</ele>
        <time>2017-10-09T13:43:42Z</time>
      </trkpt>
      <trkpt lat="41.24641" lon="9.23974">
        <ele>-0.34</ele>
        <time>2017-10-09T13:44:04Z</time>
      </trkpt>
      <trkpt lat="41.24641" lon="9.23974">
        <ele>-0.34</ele>
        <time>2017-10-09T13:44:25Z</time>
      </trkpt>
      <trkpt lat="41.24642" lon="9.23976">
        <ele>-0.34</ele>
        <time>2017-10-09T13:44:43Z</time>
      </trkpt>
      <trkpt lat="41.24644" lon="9.23977">
        <ele>-0.82</ele>
        <time>2017-10-09T13:44:58Z</time>
      </trkpt>
      <trkpt lat="41.24647" lon="9.23976">
        <ele>-1.79</ele>
        <time>2017-10-09T13:45:20Z</time>
      </trkpt>
      <trkpt lat="41.24649" lon="9.23977">
        <ele>-1.79</ele>
        <time>2017-10-09T13:45:40Z</time>
      </trkpt>
      <trkpt lat="41.2465" lon="9.23977">
        <ele>-1.79</ele>
        <time>2017-10-09T13:46:01Z</time>
      </trkpt>
      <trkpt lat="41.2465" lon="9.23977">
        <ele>-1.3</ele>
        <time>2017-10-09T13:46:27Z</time>
      </trkpt>
      <trkpt lat="41.24648" lon="9.23977">
        <ele>-0.82</ele>
        <time>2017-10-09T13:46:49Z</time>
      </trkpt>
      <trkpt lat="41.24646" lon="9.23977">
        <ele>-0.82</ele>
        <time>2017-10-09T13:47:10Z</time>
      </trkpt>
      <trkpt lat="41.24647" lon="9.23978">
        <ele>-0.82</ele>
        <time>2017-10-09T13:47:33Z</time>
      </trkpt>
      <trkpt lat="41.24648" lon="9.23977">
        <ele>-0.34</ele>
        <time>2017-10-09T13:47:52Z</time>
      </trkpt>
      <trkpt lat="41.24651" lon="9.23977">
        <ele>0.14</ele>
        <time>2017-10-09T13:48:16Z</time>
      </trkpt>
      <trkpt lat="41.24652" lon="9.23978">
        <ele>0.14</ele>
        <time>2017-10-09T13:48:36Z</time>
      </trkpt>
      <trkpt lat="41.24654" lon="9.23977">
        <ele>-0.34</ele>
        <time>2017-10-09T13:48:58Z</time>
      </trkpt>
      <trkpt lat="41.24653" lon="9.23977">
        <ele>-0.34</ele>
        <time>2017-10-09T13:49:20Z</time>
      </trkpt>
      <trkpt lat="41.24652" lon="9.23977">
        <ele>-0.82</ele>
        <time>2017-10-09T13:49:42Z</time>
      </trkpt>
      <trkpt lat="41.24649" lon="9.23977">
        <ele>-0.34</ele>
        <time>2017-10-09T13:50:03Z</time>
      </trkpt>
      <trkpt lat="41.24647" lon="9.23977">
        <ele>0.14</ele>
        <time>2017-10-09T13:50:28Z</time>
      </trkpt>
      <trkpt lat="41.24648" lon="9.23977">
        <ele>0.14</ele>
        <time>2017-10-09T13:50:47Z</time>
      </trkpt>
      <trkpt lat="41.2465" lon="9.23978">
        <ele>0.14</ele>
        <time>2017-10-09T13:51:11Z</time>
      </trkpt>
      <trkpt lat="41.24652" lon="9.23978">
        <ele>-0.34</ele>
        <time>2017-10-09T13:51:32Z</time>
      </trkpt>
      <trkpt lat="41.24654" lon="9.23977">
        <ele>-1.79</ele>
        <time>2017-10-09T13:51:54Z</time>
      </trkpt>
      <trkpt lat="41.24654" lon="9.23977">
        <ele>-1.79</ele>
        <time>2017-10-09T13:52:20Z</time>
      </trkpt>
      <trkpt lat="41.24652" lon="9.23977">
        <ele>-0.82</ele>
        <time>2017-10-09T13:52:40Z</time>
      </trkpt>
      <trkpt lat="41.24649" lon="9.23978">
        <ele>-0.34</ele>
        <time>2017-10-09T13:53:04Z</time>
      </trkpt>
      <trkpt lat="41.24649" lon="9.23978">
        <ele>0.14</ele>
        <time>2017-10-09T13:53:24Z</time>
      </trkpt>
      <trkpt lat="41.24651" lon="9.23978">
        <ele>-0.34</ele>
        <time>2017-10-09T13:53:44Z</time>
      </trkpt>
      <trkpt lat="41.24652" lon="9.23978">
        <ele>-0.34</ele>
        <time>2017-10-09T13:54:06Z</time>
      </trkpt>
      <trkpt lat="41.24654" lon="9.23978">
        <ele>-0.82</ele>
        <time>2017-10-09T13:54:28Z</time>
      </trkpt>
      <trkpt lat="41.24652" lon="9.23976">
        <ele>-0.34</ele>
        <time>2017-10-09T13:54:58Z</time>
      </trkpt>
      <trkpt lat="41.24646" lon="9.23975">
        <ele>-0.34</ele>
        <time>2017-10-09T13:55:24Z</time>
      </trkpt>
      <trkpt lat="41.24642" lon="9.23975">
        <ele>-0.34</ele>
        <time>2017-10-09T13:55:45Z</time>
      </trkpt>
      <trkpt lat="41.24643" lon="9.23976">
        <ele>-0.82</ele>
        <time>2017-10-09T13:56:10Z</time>
      </trkpt>
      <trkpt lat="41.24647" lon="9.23977">
        <ele>-0.82</ele>
        <time>2017-10-09T13:56:35Z</time>
      </trkpt>
      <trkpt lat="41.24648" lon="9.23978">
        <ele>-1.3</ele>
        <time>2017-10-09T13:56:56Z</time>
      </trkpt>
      <trkpt lat="41.24649" lon="9.23978">
        <ele>-1.3</ele>
        <time>2017-10-09T13:57:19Z</time>
      </trkpt>
      <trkpt lat="41.24649" lon="9.23977">
        <ele>-0.82</ele>
        <time>2017-10-09T13:57:47Z</time>
      </trkpt>
      <trkpt lat="41.24648" lon="9.23978">
        <ele>0.14</ele>
        <time>2017-10-09T13:58:09Z</time>
      </trkpt>
      <trkpt lat="41.24648" lon="9.23978">
        <ele>0.14</ele>
        <time>2017-10-09T13:58:29Z</time>
      </trkpt>
      <trkpt lat="41.2465" lon="9.23977">
        <ele>0.62</ele>
        <time>2017-10-09T13:58:49Z</time>
      </trkpt>
      <trkpt lat="41.24653" lon="9.23978">
        <ele>0.14</ele>
        <time>2017-10-09T13:59:08Z</time>
      </trkpt>
      <trkpt lat="41.24654" lon="9.23977">
        <ele>-0.82</ele>
        <time>2017-10-09T13:59:29Z</time>
      </trkpt>
      <trkpt lat="41.24654" lon="9.23977">
        <ele>-1.3</ele>
        <time>2017-10-09T13:59:52Z</time>
      </trkpt>
      <trkpt lat="41.24652" lon="9.23978">
        <ele>-1.79</ele>
        <time>2017-10-09T14:00:20Z</time>
      </trkpt>
      <trkpt lat="41.24648" lon="9.23977">
        <ele>-0.34</ele>
        <time>2017-10-09T14:00:38Z</time>
      </trkpt>
      <trkpt lat="41.24646" lon="9.23978">
        <ele>0.14</ele>
        <time>2017-10-09T14:00:58Z</time>
      </trkpt>
      <trkpt lat="41.24648" lon="9.23977">
        <ele>0.14</ele>
        <time>2017-10-09T14:01:21Z</time>
      </trkpt>
      <trkpt lat="41.2465" lon="9.23978">
        <ele>0.14</ele>
        <time>2017-10-09T14:01:40Z</time>
      </trkpt>
      <trkpt lat="41.24652" lon="9.23978">
        <ele>-0.34</ele>
        <time>2017-10-09T14:01:59Z</time>
      </trkpt>
      <trkpt lat="41.24655" lon="9.23979">
        <ele>-0.34</ele>
        <time>2017-10-09T14:02:24Z</time>
      </trkpt>
      <trkpt lat="41.24655" lon="9.23979">
        <ele>-0.82</ele>
        <time>2017-10-09T14:02:42Z</time>
      </trkpt>
      <trkpt lat="41.24649" lon="9.23977">
        <ele>-1.79</ele>
        <time>2017-10-09T14:03:13Z</time>
      </trkpt>
      <trkpt lat="41.24646" lon="9.23976">
        <ele>-0.34</ele>
        <time>2017-10-09T14:03:33Z</time>
      </trkpt>
      <trkpt lat="41.24643" lon="9.23976">
        <ele>0.14</ele>
        <time>2017-10-09T14:03:51Z</time>
      </trkpt>
      <trkpt lat="41.24644" lon="9.23977">
        <ele>0.14</ele>
        <time>2017-10-09T14:04:11Z</time>
      </trkpt>
      <trkpt lat="41.24646" lon="9.23977">
        <ele>0.62</ele>
        <time>2017-10-09T14:04:33Z</time>
      </trkpt>
      <trkpt lat="41.24651" lon="9.23978">
        <ele>0.14</ele>
        <time>2017-10-09T14:04:55Z</time>
      </trkpt>
      <trkpt lat="41.24653" lon="9.23978">
        <ele>-0.34</ele>
        <time>2017-10-09T14:05:14Z</time>
      </trkpt>
      <trkpt lat="41.24655" lon="9.23978">
        <ele>-0.82</ele>
        <time>2017-10-09T14:05:37Z</time>
      </trkpt>
      <trkpt lat="41.24655" lon="9.23978">
        <ele>-0.82</ele>
        <time>2017-10-09T14:05:59Z</time>
      </trkpt>
      <trkpt lat="41.24653" lon="9.23976">
        <ele>-1.3</ele>
        <time>2017-10-09T14:06:19Z</time>
      </trkpt>
      <trkpt lat="41.24645" lon="9.23976">
        <ele>0.14</ele>
        <time>2017-10-09T14:06:39Z</time>
      </trkpt>
      <trkpt lat="41.24643" lon="9.23977">
        <ele>0.14</ele>
        <time>2017-10-09T14:06:58Z</time>
      </trkpt>
      <trkpt lat="41.24645" lon="9.23977">
        <ele>1.1</ele>
        <time>2017-10-09T14:07:22Z</time>
      </trkpt>
      <trkpt lat="41.2465" lon="9.23978">
        <ele>-0.34</ele>
        <time>2017-10-09T14:07:50Z</time>
      </trkpt>
      <trkpt lat="41.24653" lon="9.23977">
        <ele>-0.34</ele>
        <time>2017-10-09T14:08:03Z</time>
      </trkpt>
      <trkpt lat="41.24653" lon="9.23977">
        <ele>-0.82</ele>
        <time>2017-10-09T14:08:27Z</time>
      </trkpt>
      <trkpt lat="41.24652" lon="9.23978">
        <ele>-0.82</ele>
        <time>2017-10-09T14:08:54Z</time>
      </trkpt>
      <trkpt lat="41.24649" lon="9.23977">
        <ele>0.14</ele>
        <time>2017-10-09T14:09:19Z</time>
      </trkpt>
      <trkpt lat="41.24647" lon="9.23976">
        <ele>0.14</ele>
        <time>2017-10-09T14:09:40Z</time>
      </trkpt>
      <trkpt lat="41.24648" lon="9.23976">
        <ele>0.62</ele>
        <time>2017-10-09T14:10:04Z</time>
      </trkpt>
      <trkpt lat="41.24651" lon="9.23976">
        <ele>0.14</ele>
        <time>2017-10-09T14:10:25Z</time>
      </trkpt>
      <trkpt lat="41.24653" lon="9.23977">
        <ele>0.14</ele>
        <time>2017-10-09T14:10:46Z</time>
      </trkpt>
      <trkpt lat="41.24655" lon="9.23977">
        <ele>-1.3</ele>
        <time>2017-10-09T14:11:06Z</time>
      </trkpt>
      <trkpt lat="41.24654" lon="9.23977">
        <ele>-1.3</ele>
        <time>2017-10-09T14:11:29Z</time>
      </trkpt>
      <trkpt lat="41.24651" lon="9.23976">
        <ele>-0.82</ele>
        <time>2017-10-09T14:11:53Z</time>
      </trkpt>
      <trkpt lat="41.24646" lon="9.23976">
        <ele>-0.34</ele>
        <time>2017-10-09T14:12:16Z</time>
      </trkpt>
      <trkpt lat="41.24645" lon="9.23975">
        <ele>0.62</ele>
        <time>2017-10-09T14:12:37Z</time>
      </trkpt>
      <trkpt lat="41.24655" lon="9.23969">
        <ele>1.1</ele>
        <time>2017-10-09T14:13:03Z</time>
      </trkpt>
      <trkpt lat="41.24659" lon="9.23968">
        <ele>0.62</ele>
        <time>2017-10-09T14:13:30Z</time>
      </trkpt>
      <trkpt lat="41.2466" lon="9.23967">
        <ele>0.14</ele>
        <time>2017-10-09T14:13:54Z</time>
      </trkpt>
      <trkpt lat="41.24662" lon="9.23969">
        <ele>-0.34</ele>
        <time>2017-10-09T14:14:16Z</time>
      </trkpt>
      <trkpt lat="41.2466" lon="9.23976">
        <ele>-1.79</ele>
        <time>2017-10-09T14:14:38Z</time>
      </trkpt>
      <trkpt lat="41.24658" lon="9.23977">
        <ele>-1.3</ele>
        <time>2017-10-09T14:14:58Z</time>
      </trkpt>
      <trkpt lat="41.24656" lon="9.23974">
        <ele>-2.75</ele>
        <time>2017-10-09T14:15:21Z</time>
      </trkpt>
      <trkpt lat="41.2465" lon="9.23968">
        <ele>-2.75</ele>
        <time>2017-10-09T14:15:48Z</time>
      </trkpt>
      <trkpt lat="41.24647" lon="9.23969">
        <ele>-1.79</ele>
        <time>2017-10-09T14:16:07Z</time>
      </trkpt>
      <trkpt lat="41.24641" lon="9.23975">
        <ele>0.14</ele>
        <time>2017-10-09T14:16:28Z</time>
      </trkpt>
      <trkpt lat="41.24643" lon="9.23976">
        <ele>0.62</ele>
        <time>2017-10-09T14:16:48Z</time>
      </trkpt>
      <trkpt lat="41.24646" lon="9.23975">
        <ele>0.62</ele>
        <time>2017-10-09T14:17:10Z</time>
      </trkpt>
      <trkpt lat="41.2465" lon="9.23977">
        <ele>0.62</ele>
        <time>2017-10-09T15:02:45Z</time>
      </trkpt>
      <trkpt lat="41.24649" lon="9.23975">
        <ele>-1.3</ele>
        <time>2017-10-09T15:03:08Z</time>
      </trkpt>
      <trkpt lat="41.24645" lon="9.23975">
        <ele>-0.82</ele>
        <time>2017-10-09T15:03:35Z</time>
      </trkpt>
      <trkpt lat="41.24641" lon="9.23975">
        <ele>-1.3</ele>
        <time>2017-10-09T15:03:54Z</time>
      </trkpt>
      <trkpt lat="41.24645" lon="9.23975">
        <ele>-1.3</ele>
        <time>2017-10-09T15:04:16Z</time>
      </trkpt>
      <trkpt lat="41.2465" lon="9.23976">
        <ele>-1.79</ele>
        <time>2017-10-09T15:04:38Z</time>
      </trkpt>
      <trkpt lat="41.24655" lon="9.23976">
        <ele>-1.3</ele>
        <time>2017-10-09T15:05:04Z</time>
      </trkpt>
      <trkpt lat="41.24659" lon="9.23975">
        <ele>-0.82</ele>
        <time>2017-10-09T15:05:33Z</time>
      </trkpt>
      <trkpt lat="41.24658" lon="9.23975">
        <ele>-0.82</ele>
        <time>2017-10-09T15:06:00Z</time>
      </trkpt>
      <trkpt lat="41.24653" lon="9.2397">
        <ele>-0.34</ele>
        <time>2017-10-09T15:06:24Z</time>
      </trkpt>
      <trkpt lat="41.24647" lon="9.23967">
        <ele>-1.3</ele>
        <time>2017-10-09T15:06:48Z</time>
      </trkpt>
      <trkpt lat="41.24642" lon="9.23968">
        <ele>-0.82</ele>
        <time>2017-10-09T15:07:12Z</time>
      </trkpt>
      <trkpt lat="41.24638" lon="9.23971">
        <ele>-1.3</ele>
        <time>2017-10-09T15:07:35Z</time>
      </trkpt>
      <trkpt lat="41.24642" lon="9.23976">
        <ele>-1.79</ele>
        <time>2017-10-09T15:07:56Z</time>
      </trkpt>
      <trkpt lat="41.24645" lon="9.23977">
        <ele>-1.79</ele>
        <time>2017-10-09T15:08:20Z</time>
      </trkpt>
      <trkpt lat="41.24642" lon="9.23976">
        <ele>-1.3</ele>
        <time>2017-10-09T15:08:42Z</time>
      </trkpt>
      <trkpt lat="41.24643" lon="9.23975">
        <ele>-1.3</ele>
        <time>2017-10-09T15:09:05Z</time>
      </trkpt>
      <trkpt lat="41.24654" lon="9.23972">
        <ele>-0.82</ele>
        <time>2017-10-09T15:09:29Z</time>
      </trkpt>
      <trkpt lat="41.24644" lon="9.23967">
        <ele>-1.3</ele>
        <time>2017-10-09T15:09:53Z</time>
      </trkpt>
      <trkpt lat="41.24633" lon="9.2396">
        <ele>-1.3</ele>
        <time>2017-10-09T15:10:20Z</time>
      </trkpt>
      <trkpt lat="41.24641" lon="9.23966">
        <ele>-0.82</ele>
        <time>2017-10-09T15:10:42Z</time>
      </trkpt>
      <trkpt lat="41.2465" lon="9.23969">
        <ele>-0.82</ele>
        <time>2017-10-09T15:11:08Z</time>
      </trkpt>
      <trkpt lat="41.24649" lon="9.23967">
        <ele>-0.34</ele>
        <time>2017-10-09T15:11:27Z</time>
      </trkpt>
      <trkpt lat="41.24637" lon="9.23957">
        <ele>-0.82</ele>
        <time>2017-10-09T15:11:51Z</time>
      </trkpt>
      <trkpt lat="41.24639" lon="9.23955">
        <ele>-0.34</ele>
        <time>2017-10-09T15:12:19Z</time>
      </trkpt>
      <trkpt lat="41.24654" lon="9.23962">
        <ele>0.14</ele>
        <time>2017-10-09T15:12:42Z</time>
      </trkpt>
      <trkpt lat="41.2466" lon="9.23958">
        <ele>-1.3</ele>
        <time>2017-10-09T15:13:02Z</time>
      </trkpt>
      <trkpt lat="41.24648" lon="9.2395">
        <ele>-2.75</ele>
        <time>2017-10-09T15:13:26Z</time>
      </trkpt>
      <trkpt lat="41.2464" lon="9.23938">
        <ele>-3.71</ele>
        <time>2017-10-09T15:13:53Z</time>
      </trkpt>
      <trkpt lat="41.24637" lon="9.23934">
        <ele>-1.3</ele>
        <time>2017-10-09T15:14:15Z</time>
      </trkpt>
      <trkpt lat="41.24643" lon="9.23937">
        <ele>-2.27</ele>
        <time>2017-10-09T15:14:46Z</time>
      </trkpt>
      <trkpt lat="41.24652" lon="9.23944">
        <ele>-1.79</ele>
        <time>2017-10-09T15:15:10Z</time>
      </trkpt>
      <trkpt lat="41.24654" lon="9.23944">
        <ele>-2.27</ele>
        <time>2017-10-09T15:15:34Z</time>
      </trkpt>
      <trkpt lat="41.24648" lon="9.23938">
        <ele>-3.23</ele>
        <time>2017-10-09T15:15:59Z</time>
      </trkpt>
      <trkpt lat="41.24651" lon="9.23935">
        <ele>-2.27</ele>
        <time>2017-10-09T15:16:26Z</time>
      </trkpt>
      <trkpt lat="41.24659" lon="9.23934">
        <ele>-3.23</ele>
        <time>2017-10-09T15:16:52Z</time>
      </trkpt>
      <trkpt lat="41.24652" lon="9.23929">
        <ele>-3.71</ele>
        <time>2017-10-09T15:17:18Z</time>
      </trkpt>
      <trkpt lat="41.24641" lon="9.23924">
        <ele>-3.71</ele>
        <time>2017-10-09T15:17:45Z</time>
      </trkpt>
      <trkpt lat="41.2463" lon="9.2392">
        <ele>-3.23</ele>
        <time>2017-10-09T15:18:14Z</time>
      </trkpt>
      <trkpt lat="41.24618" lon="9.23915">
        <ele>-3.23</ele>
        <time>2017-10-09T15:18:42Z</time>
      </trkpt>
      <trkpt lat="41.24604" lon="9.23914">
        <ele>-2.75</ele>
        <time>2017-10-09T15:19:09Z</time>
      </trkpt>
      <trkpt lat="41.24604" lon="9.23915">
        <ele>-0.82</ele>
        <time>2017-10-09T15:19:37Z</time>
      </trkpt>
      <trkpt lat="41.24625" lon="9.23921">
        <ele>0.62</ele>
        <time>2017-10-09T15:20:04Z</time>
      </trkpt>
      <trkpt lat="41.24655" lon="9.23933">
        <ele>1.58</ele>
        <time>2017-10-09T15:20:33Z</time>
      </trkpt>
      <trkpt lat="41.24695" lon="9.23963">
        <ele>-0.82</ele>
        <time>2017-10-09T15:21:08Z</time>
      </trkpt>
      <trkpt lat="41.24722" lon="9.23984">
        <ele>-0.82</ele>
        <time>2017-10-09T15:21:32Z</time>
      </trkpt>
      <trkpt lat="41.24751" lon="9.24008">
        <ele>0.14</ele>
        <time>2017-10-09T15:21:54Z</time>
      </trkpt>
      <trkpt lat="41.24791" lon="9.24046">
        <ele>0.62</ele>
        <time>2017-10-09T15:22:20Z</time>
      </trkpt>
      <trkpt lat="41.24827" lon="9.24082">
        <ele>-0.82</ele>
        <time>2017-10-09T15:22:43Z</time>
      </trkpt>
      <trkpt lat="41.24866" lon="9.24122">
        <ele>-0.82</ele>
        <time>2017-10-09T15:23:08Z</time>
      </trkpt>
      <trkpt lat="41.2491" lon="9.24167">
        <ele>0.14</ele>
        <time>2017-10-09T15:23:33Z</time>
      </trkpt>
      <trkpt lat="41.24962" lon="9.24219">
        <ele>0.62</ele>
        <time>2017-10-09T15:24:01Z</time>
      </trkpt>
      <trkpt lat="41.25019" lon="9.24273">
        <ele>0.14</ele>
        <time>2017-10-09T15:24:30Z</time>
      </trkpt>
      <trkpt lat="41.25069" lon="9.2432">
        <ele>-0.34</ele>
        <time>2017-10-09T15:24:55Z</time>
      </trkpt>
      <trkpt lat="41.25118" lon="9.2436">
        <ele>-0.34</ele>
        <time>2017-10-09T15:25:16Z</time>
      </trkpt>
      <trkpt lat="41.25164" lon="9.24397">
        <ele>-0.34</ele>
        <time>2017-10-09T15:25:36Z</time>
      </trkpt>
      <trkpt lat="41.2522" lon="9.24439">
        <ele>-0.82</ele>
        <time>2017-10-09T15:25:57Z</time>
      </trkpt>
      <trkpt lat="41.25281" lon="9.24488">
        <ele>-0.82</ele>
        <time>2017-10-09T15:26:20Z</time>
      </trkpt>
      <trkpt lat="41.25335" lon="9.24529">
        <ele>-0.34</ele>
        <time>2017-10-09T15:26:43Z</time>
      </trkpt>
      <trkpt lat="41.25395" lon="9.24573">
        <ele>0.14</ele>
        <time>2017-10-09T15:27:05Z</time>
      </trkpt>
      <trkpt lat="41.25459" lon="9.24625">
        <ele>0.14</ele>
        <time>2017-10-09T15:27:30Z</time>
      </trkpt>
      <trkpt lat="41.25509" lon="9.24663">
        <ele>-0.34</ele>
        <time>2017-10-09T15:27:51Z</time>
      </trkpt>
      <trkpt lat="41.25567" lon="9.24705">
        <ele>-0.34</ele>
        <time>2017-10-09T15:28:13Z</time>
      </trkpt>
      <trkpt lat="41.25622" lon="9.24748">
        <ele>-0.82</ele>
        <time>2017-10-09T15:28:34Z</time>
      </trkpt>
      <trkpt lat="41.25672" lon="9.24785">
        <ele>-0.82</ele>
        <time>2017-10-09T15:28:52Z</time>
      </trkpt>
      <trkpt lat="41.25715" lon="9.24786">
        <ele>-0.82</ele>
        <time>2017-10-09T15:29:06Z</time>
      </trkpt>
      <trkpt lat="41.25765" lon="9.24771">
        <ele>-0.34</ele>
        <time>2017-10-09T15:29:23Z</time>
      </trkpt>
      <trkpt lat="41.25822" lon="9.24754">
        <ele>0.62</ele>
        <time>2017-10-09T15:29:42Z</time>
      </trkpt>
      <trkpt lat="41.25873" lon="9.24737">
        <ele>-1.3</ele>
        <time>2017-10-09T15:29:58Z</time>
      </trkpt>
      <trkpt lat="41.25921" lon="9.24722">
        <ele>-2.75</ele>
        <time>2017-10-09T15:30:13Z</time>
      </trkpt>
      <trkpt lat="41.25966" lon="9.24709">
        <ele>-2.75</ele>
        <time>2017-10-09T15:30:27Z</time>
      </trkpt>
      <trkpt lat="41.26021" lon="9.24687">
        <ele>-2.75</ele>
        <time>2017-10-09T15:30:45Z</time>
      </trkpt>
      <trkpt lat="41.26072" lon="9.24671">
        <ele>-2.75</ele>
        <time>2017-10-09T15:31:01Z</time>
      </trkpt>
      <trkpt lat="41.26123" lon="9.24651">
        <ele>-2.75</ele>
        <time>2017-10-09T15:31:17Z</time>
      </trkpt>
      <trkpt lat="41.2617" lon="9.24628">
        <ele>-3.71</ele>
        <time>2017-10-09T15:31:32Z</time>
      </trkpt>
      <trkpt lat="41.26214" lon="9.24608">
        <ele>-4.19</ele>
        <time>2017-10-09T15:31:46Z</time>
      </trkpt>
      <trkpt lat="41.26256" lon="9.24595">
        <ele>-3.71</ele>
        <time>2017-10-09T15:31:59Z</time>
      </trkpt>
      <trkpt lat="41.26293" lon="9.24584">
        <ele>-3.23</ele>
        <time>2017-10-09T15:32:10Z</time>
      </trkpt>
      <trkpt lat="41.26343" lon="9.24563">
        <ele>-3.23</ele>
        <time>2017-10-09T15:32:25Z</time>
      </trkpt>
      <trkpt lat="41.26384" lon="9.24544">
        <ele>-3.23</ele>
        <time>2017-10-09T15:32:38Z</time>
      </trkpt>
      <trkpt lat="41.26429" lon="9.24519">
        <ele>-2.75</ele>
        <time>2017-10-09T15:32:53Z</time>
      </trkpt>
      <trkpt lat="41.26469" lon="9.24498">
        <ele>-2.75</ele>
        <time>2017-10-09T15:33:07Z</time>
      </trkpt>
      <trkpt lat="41.26503" lon="9.24476">
        <ele>-2.27</ele>
        <time>2017-10-09T15:33:20Z</time>
      </trkpt>
      <trkpt lat="41.26541" lon="9.24456">
        <ele>-1.79</ele>
        <time>2017-10-09T15:33:33Z</time>
      </trkpt>
      <trkpt lat="41.26575" lon="9.24432">
        <ele>-2.27</ele>
        <time>2017-10-09T15:33:45Z</time>
      </trkpt>
      <trkpt lat="41.26615" lon="9.24402">
        <ele>-2.27</ele>
        <time>2017-10-09T15:33:59Z</time>
      </trkpt>
      <trkpt lat="41.2666" lon="9.24367">
        <ele>-3.23</ele>
        <time>2017-10-09T15:34:15Z</time>
      </trkpt>
      <trkpt lat="41.26689" lon="9.24343">
        <ele>-4.19</ele>
        <time>2017-10-09T15:34:26Z</time>
      </trkpt>
      <trkpt lat="41.26724" lon="9.24316">
        <ele>-5.15</ele>
        <time>2017-10-09T15:34:40Z</time>
      </trkpt>
      <trkpt lat="41.26759" lon="9.24292">
        <ele>-4.67</ele>
        <time>2017-10-09T15:34:53Z</time>
      </trkpt>
      <trkpt lat="41.26797" lon="9.24265">
        <ele>-4.67</ele>
        <time>2017-10-09T15:35:07Z</time>
      </trkpt>
      <trkpt lat="41.26831" lon="9.2424">
        <ele>-4.19</ele>
        <time>2017-10-09T15:35:20Z</time>
      </trkpt>
      <trkpt lat="41.26873" lon="9.24214">
        <ele>-2.75</ele>
        <time>2017-10-09T15:35:36Z</time>
      </trkpt>
      <trkpt lat="41.26915" lon="9.24186">
        <ele>-2.27</ele>
        <time>2017-10-09T15:35:52Z</time>
      </trkpt>
      <trkpt lat="41.26945" lon="9.24166">
        <ele>-2.27</ele>
        <time>2017-10-09T15:36:03Z</time>
      </trkpt>
      <trkpt lat="41.26984" lon="9.24142">
        <ele>-2.75</ele>
        <time>2017-10-09T15:36:17Z</time>
      </trkpt>
      <trkpt lat="41.27021" lon="9.24114">
        <ele>-2.27</ele>
        <time>2017-10-09T15:36:31Z</time>
      </trkpt>
      <trkpt lat="41.27068" lon="9.24081">
        <ele>-2.75</ele>
        <time>2017-10-09T15:36:48Z</time>
      </trkpt>
      <trkpt lat="41.27108" lon="9.24052">
        <ele>-2.27</ele>
        <time>2017-10-09T15:37:03Z</time>
      </trkpt>
      <trkpt lat="41.2714" lon="9.24028">
        <ele>-2.27</ele>
        <time>2017-10-09T15:37:15Z</time>
      </trkpt>
      <trkpt lat="41.27171" lon="9.24003">
        <ele>-2.75</ele>
        <time>2017-10-09T15:37:27Z</time>
      </trkpt>
      <trkpt lat="41.27209" lon="9.23975">
        <ele>-3.23</ele>
        <time>2017-10-09T15:37:41Z</time>
      </trkpt>
      <trkpt lat="41.27245" lon="9.23952">
        <ele>-3.71</ele>
        <time>2017-10-09T15:37:54Z</time>
      </trkpt>
      <trkpt lat="41.2728" lon="9.23925">
        <ele>-4.19</ele>
        <time>2017-10-09T15:38:07Z</time>
      </trkpt>
      <trkpt lat="41.27318" lon="9.23896">
        <ele>-3.71</ele>
        <time>2017-10-09T15:38:21Z</time>
      </trkpt>
      <trkpt lat="41.27349" lon="9.2387">
        <ele>-3.71</ele>
        <time>2017-10-09T15:38:33Z</time>
      </trkpt>
      <trkpt lat="41.27378" lon="9.23848">
        <ele>-2.75</ele>
        <time>2017-10-09T15:38:44Z</time>
      </trkpt>
      <trkpt lat="41.2741" lon="9.23815">
        <ele>-2.75</ele>
        <time>2017-10-09T15:38:58Z</time>
      </trkpt>
      <trkpt lat="41.27445" lon="9.23787">
        <ele>-2.27</ele>
        <time>2017-10-09T15:39:12Z</time>
      </trkpt>
      <trkpt lat="41.27478" lon="9.23765">
        <ele>-1.3</ele>
        <time>2017-10-09T15:39:25Z</time>
      </trkpt>
      <trkpt lat="41.27508" lon="9.23747">
        <ele>-0.82</ele>
        <time>2017-10-09T15:39:36Z</time>
      </trkpt>
      <trkpt lat="41.27545" lon="9.23725">
        <ele>-1.79</ele>
        <time>2017-10-09T15:39:49Z</time>
      </trkpt>
      <trkpt lat="41.27579" lon="9.23704">
        <ele>-1.79</ele>
        <time>2017-10-09T15:40:01Z</time>
      </trkpt>
      <trkpt lat="41.27615" lon="9.23681">
        <ele>-1.79</ele>
        <time>2017-10-09T15:40:14Z</time>
      </trkpt>
      <trkpt lat="41.27645" lon="9.23657">
        <ele>-1.79</ele>
        <time>2017-10-09T15:40:26Z</time>
      </trkpt>
      <trkpt lat="41.27678" lon="9.23632">
        <ele>-0.82</ele>
        <time>2017-10-09T15:40:39Z</time>
      </trkpt>
      <trkpt lat="41.27709" lon="9.23607">
        <ele>-1.79</ele>
        <time>2017-10-09T15:40:51Z</time>
      </trkpt>
      <trkpt lat="41.27739" lon="9.23578">
        <ele>-1.3</ele>
        <time>2017-10-09T15:41:03Z</time>
      </trkpt>
      <trkpt lat="41.27772" lon="9.23547">
        <ele>-1.79</ele>
        <time>2017-10-09T15:41:16Z</time>
      </trkpt>
      <trkpt lat="41.27808" lon="9.23511">
        <ele>-0.34</ele>
        <time>2017-10-09T15:41:31Z</time>
      </trkpt>
      <trkpt lat="41.27835" lon="9.23484">
        <ele>0.14</ele>
        <time>2017-10-09T15:41:43Z</time>
      </trkpt>
      <trkpt lat="41.27859" lon="9.23455">
        <ele>0.62</ele>
        <time>2017-10-09T15:41:54Z</time>
      </trkpt>
      <trkpt lat="41.27891" lon="9.23419">
        <ele>1.58</ele>
        <time>2017-10-09T15:42:08Z</time>
      </trkpt>
      <trkpt lat="41.27921" lon="9.23389">
        <ele>1.58</ele>
        <time>2017-10-09T15:42:21Z</time>
      </trkpt>
      <trkpt lat="41.27956" lon="9.23362">
        <ele>0.62</ele>
        <time>2017-10-09T15:42:34Z</time>
      </trkpt>
      <trkpt lat="41.27983" lon="9.23334">
        <ele>-0.34</ele>
        <time>2017-10-09T15:42:45Z</time>
      </trkpt>
      <trkpt lat="41.28017" lon="9.23299">
        <ele>-0.34</ele>
        <time>2017-10-09T15:42:59Z</time>
      </trkpt>
      <trkpt lat="41.28049" lon="9.23272">
        <ele>0.14</ele>
        <time>2017-10-09T15:43:11Z</time>
      </trkpt>
      <trkpt lat="41.28083" lon="9.23248">
        <ele>-0.82</ele>
        <time>2017-10-09T15:43:23Z</time>
      </trkpt>
      <trkpt lat="41.28121" lon="9.23222">
        <ele>-1.3</ele>
        <time>2017-10-09T15:43:36Z</time>
      </trkpt>
      <trkpt lat="41.28155" lon="9.23186">
        <ele>-1.79</ele>
        <time>2017-10-09T15:43:50Z</time>
      </trkpt>
      <trkpt lat="41.28185" lon="9.23159">
        <ele>-1.3</ele>
        <time>2017-10-09T15:44:02Z</time>
      </trkpt>
      <trkpt lat="41.2822" lon="9.23123">
        <ele>-0.82</ele>
        <time>2017-10-09T15:44:16Z</time>
      </trkpt>
      <trkpt lat="41.28247" lon="9.23097">
        <ele>-0.82</ele>
        <time>2017-10-09T15:44:27Z</time>
      </trkpt>
      <trkpt lat="41.28282" lon="9.23082">
        <ele>-1.3</ele>
        <time>2017-10-09T15:44:39Z</time>
      </trkpt>
      <trkpt lat="41.28302" lon="9.23056">
        <ele>-0.82</ele>
        <time>2017-10-09T15:44:49Z</time>
      </trkpt>
      <trkpt lat="41.28286" lon="9.2303">
        <ele>-0.34</ele>
        <time>2017-10-09T15:45:01Z</time>
      </trkpt>
      <trkpt lat="41.2828" lon="9.23016">
        <ele>-0.82</ele>
        <time>2017-10-09T15:45:07Z</time>
      </trkpt>
      <trkpt lat="41.28275" lon="9.23011">
        <ele>-1.3</ele>
        <time>2017-10-09T15:45:11Z</time>
      </trkpt>
      <trkpt lat="41.28265" lon="9.23">
        <ele>-1.3</ele>
        <time>2017-10-09T15:45:19Z</time>
      </trkpt>
      <trkpt lat="41.28249" lon="9.22981">
        <ele>-0.34</ele>
        <time>2017-10-09T15:45:32Z</time>
      </trkpt>
      <trkpt lat="41.28243" lon="9.22974">
        <ele>-0.34</ele>
        <time>2017-10-09T15:45:37Z</time>
      </trkpt>
      <trkpt lat="41.28224" lon="9.22954">
        <ele>-0.82</ele>
        <time>2017-10-09T15:45:49Z</time>
      </trkpt>
      <trkpt lat="41.28204" lon="9.22928">
        <ele>-0.82</ele>
        <time>2017-10-09T15:46:01Z</time>
      </trkpt>
      <trkpt lat="41.28181" lon="9.22898">
        <ele>-0.34</ele>
        <time>2017-10-09T15:46:15Z</time>
      </trkpt>
      <trkpt lat="41.28158" lon="9.22864">
        <ele>0.62</ele>
        <time>2017-10-09T15:46:30Z</time>
      </trkpt>
      <trkpt lat="41.28132" lon="9.22837">
        <ele>1.1</ele>
        <time>2017-10-09T15:46:44Z</time>
      </trkpt>
      <trkpt lat="41.28102" lon="9.22803">
        <ele>1.1</ele>
        <time>2017-10-09T15:46:58Z</time>
      </trkpt>
      <trkpt lat="41.28072" lon="9.22771">
        <ele>0.62</ele>
        <time>2017-10-09T15:47:11Z</time>
      </trkpt>
      <trkpt lat="41.28058" lon="9.22756">
        <ele>1.1</ele>
        <time>2017-10-09T15:47:17Z</time>
      </trkpt>
      <trkpt lat="41.28046" lon="9.22739">
        <ele>0.62</ele>
        <time>2017-10-09T15:47:23Z</time>
      </trkpt>
      <trkpt lat="41.28004" lon="9.22695">
        <ele>0.14</ele>
        <time>2017-10-09T15:47:40Z</time>
      </trkpt>
      <trkpt lat="41.27978" lon="9.22663">
        <ele>1.1</ele>
        <time>2017-10-09T15:47:52Z</time>
      </trkpt>
      <trkpt lat="41.2795" lon="9.22629">
        <ele>1.1</ele>
        <time>2017-10-09T15:48:05Z</time>
      </trkpt>
      <trkpt lat="41.27919" lon="9.22594">
        <ele>0.14</ele>
        <time>2017-10-09T15:48:19Z</time>
      </trkpt>
      <trkpt lat="41.27888" lon="9.22558">
        <ele>1.1</ele>
        <time>2017-10-09T15:48:33Z</time>
      </trkpt>
      <trkpt lat="41.27859" lon="9.22524">
        <ele>1.58</ele>
        <time>2017-10-09T15:48:46Z</time>
      </trkpt>
      <trkpt lat="41.27824" lon="9.22484">
        <ele>1.1</ele>
        <time>2017-10-09T15:49:01Z</time>
      </trkpt>
      <trkpt lat="41.27795" lon="9.22447">
        <ele>0.14</ele>
        <time>2017-10-09T15:49:14Z</time>
      </trkpt>
      <trkpt lat="41.27765" lon="9.22411">
        <ele>0.14</ele>
        <time>2017-10-09T15:49:27Z</time>
      </trkpt>
      <trkpt lat="41.27731" lon="9.2237">
        <ele>0.14</ele>
        <time>2017-10-09T15:49:42Z</time>
      </trkpt>
      <trkpt lat="41.277" lon="9.22338">
        <ele>1.1</ele>
        <time>2017-10-09T15:49:56Z</time>
      </trkpt>
      <trkpt lat="41.2767" lon="9.22304">
        <ele>1.58</ele>
        <time>2017-10-09T15:50:11Z</time>
      </trkpt>
      <trkpt lat="41.27645" lon="9.22277">
        <ele>0.62</ele>
        <time>2017-10-09T15:50:23Z</time>
      </trkpt>
      <trkpt lat="41.27613" lon="9.22237">
        <ele>0.62</ele>
        <time>2017-10-09T15:50:39Z</time>
      </trkpt>
      <trkpt lat="41.27589" lon="9.22201">
        <ele>1.1</ele>
        <time>2017-10-09T15:50:52Z</time>
      </trkpt>
      <trkpt lat="41.27563" lon="9.22166">
        <ele>1.58</ele>
        <time>2017-10-09T15:51:05Z</time>
      </trkpt>
      <trkpt lat="41.27531" lon="9.22121">
        <ele>0.62</ele>
        <time>2017-10-09T15:51:21Z</time>
      </trkpt>
      <trkpt lat="41.27506" lon="9.22088">
        <ele>0.14</ele>
        <time>2017-10-09T15:51:33Z</time>
      </trkpt>
      <trkpt lat="41.27483" lon="9.22059">
        <ele>0.14</ele>
        <time>2017-10-09T15:51:44Z</time>
      </trkpt>
      <trkpt lat="41.2746" lon="9.22029">
        <ele>0.14</ele>
        <time>2017-10-09T15:51:56Z</time>
      </trkpt>
      <trkpt lat="41.27446" lon="9.22012">
        <ele>0.62</ele>
        <time>2017-10-09T15:52:03Z</time>
      </trkpt>
      <trkpt lat="41.27417" lon="9.21975">
        <ele>-0.34</ele>
        <time>2017-10-09T15:52:19Z</time>
      </trkpt>
      <trkpt lat="41.27391" lon="9.21944">
        <ele>-0.34</ele>
        <time>2017-10-09T15:52:34Z</time>
      </trkpt>
      <trkpt lat="41.27366" lon="9.21913">
        <ele>0.14</ele>
        <time>2017-10-09T15:52:49Z</time>
      </trkpt>
      <trkpt lat="41.27336" lon="9.21878">
        <ele>0.14</ele>
        <time>2017-10-09T15:53:05Z</time>
      </trkpt>
      <trkpt lat="41.2731" lon="9.21847">
        <ele>0.62</ele>
        <time>2017-10-09T15:53:19Z</time>
      </trkpt>
      <trkpt lat="41.27284" lon="9.21818">
        <ele>-0.34</ele>
        <time>2017-10-09T15:53:32Z</time>
      </trkpt>
      <trkpt lat="41.27256" lon="9.21782">
        <ele>0.14</ele>
        <time>2017-10-09T15:53:46Z</time>
      </trkpt>
      <trkpt lat="41.27226" lon="9.21751">
        <ele>-0.34</ele>
        <time>2017-10-09T15:54:00Z</time>
      </trkpt>
      <trkpt lat="41.27207" lon="9.21728">
        <ele>-0.34</ele>
        <time>2017-10-09T15:54:09Z</time>
      </trkpt>
      <trkpt lat="41.27176" lon="9.21692">
        <ele>0.14</ele>
        <time>2017-10-09T15:54:23Z</time>
      </trkpt>
      <trkpt lat="41.27143" lon="9.21653">
        <ele>0.14</ele>
        <time>2017-10-09T15:54:37Z</time>
      </trkpt>
      <trkpt lat="41.27112" lon="9.21617">
        <ele>0.62</ele>
        <time>2017-10-09T15:54:50Z</time>
      </trkpt>
      <trkpt lat="41.27081" lon="9.21577">
        <ele>0.62</ele>
        <time>2017-10-09T15:55:03Z</time>
      </trkpt>
      <trkpt lat="41.27053" lon="9.21546">
        <ele>0.14</ele>
        <time>2017-10-09T15:55:14Z</time>
      </trkpt>
      <trkpt lat="41.27021" lon="9.21509">
        <ele>0.62</ele>
        <time>2017-10-09T15:55:27Z</time>
      </trkpt>
      <trkpt lat="41.26988" lon="9.21474">
        <ele>0.62</ele>
        <time>2017-10-09T15:55:40Z</time>
      </trkpt>
      <trkpt lat="41.26958" lon="9.21441">
        <ele>-0.34</ele>
        <time>2017-10-09T15:55:53Z</time>
      </trkpt>
      <trkpt lat="41.26933" lon="9.21414">
        <ele>0.14</ele>
        <time>2017-10-09T15:56:04Z</time>
      </trkpt>
      <trkpt lat="41.26904" lon="9.21382">
        <ele>0.14</ele>
        <time>2017-10-09T15:56:17Z</time>
      </trkpt>
      <trkpt lat="41.26877" lon="9.21353">
        <ele>-0.34</ele>
        <time>2017-10-09T15:56:29Z</time>
      </trkpt>
      <trkpt lat="41.26844" lon="9.21319">
        <ele>0.62</ele>
        <time>2017-10-09T15:56:44Z</time>
      </trkpt>
      <trkpt lat="41.26815" lon="9.21285">
        <ele>0.14</ele>
        <time>2017-10-09T15:56:57Z</time>
      </trkpt>
      <trkpt lat="41.26783" lon="9.21251">
        <ele>0.62</ele>
        <time>2017-10-09T15:57:11Z</time>
      </trkpt>
      <trkpt lat="41.26749" lon="9.2121">
        <ele>0.14</ele>
        <time>2017-10-09T15:57:26Z</time>
      </trkpt>
      <trkpt lat="41.26715" lon="9.21171">
        <ele>0.62</ele>
        <time>2017-10-09T15:57:40Z</time>
      </trkpt>
      <trkpt lat="41.2668" lon="9.21138">
        <ele>0.62</ele>
        <time>2017-10-09T15:57:54Z</time>
      </trkpt>
      <trkpt lat="41.26648" lon="9.21103">
        <ele>0.62</ele>
        <time>2017-10-09T15:58:08Z</time>
      </trkpt>
      <trkpt lat="41.26617" lon="9.2107">
        <ele>0.14</ele>
        <time>2017-10-09T15:58:21Z</time>
      </trkpt>
      <trkpt lat="41.26576" lon="9.21024">
        <ele>-0.34</ele>
        <time>2017-10-09T15:58:39Z</time>
      </trkpt>
      <trkpt lat="41.26541" lon="9.20987">
        <ele>-0.34</ele>
        <time>2017-10-09T15:58:54Z</time>
      </trkpt>
      <trkpt lat="41.26508" lon="9.20953">
        <ele>-0.34</ele>
        <time>2017-10-09T15:59:08Z</time>
      </trkpt>
      <trkpt lat="41.26478" lon="9.20922">
        <ele>0.14</ele>
        <time>2017-10-09T15:59:21Z</time>
      </trkpt>
      <trkpt lat="41.26439" lon="9.20882">
        <ele>-0.34</ele>
        <time>2017-10-09T15:59:38Z</time>
      </trkpt>
      <trkpt lat="41.26415" lon="9.20858">
        <ele>0.14</ele>
        <time>2017-10-09T15:59:49Z</time>
      </trkpt>
      <trkpt lat="41.26388" lon="9.20829">
        <ele>0.62</ele>
        <time>2017-10-09T16:00:02Z</time>
      </trkpt>
      <trkpt lat="41.26357" lon="9.20802">
        <ele>1.58</ele>
        <time>2017-10-09T16:00:16Z</time>
      </trkpt>
      <trkpt lat="41.26319" lon="9.2077">
        <ele>2.06</ele>
        <time>2017-10-09T16:00:32Z</time>
      </trkpt>
      <trkpt lat="41.26291" lon="9.20743">
        <ele>1.58</ele>
        <time>2017-10-09T16:00:44Z</time>
      </trkpt>
      <trkpt lat="41.26259" lon="9.2071">
        <ele>0.14</ele>
        <time>2017-10-09T16:00:57Z</time>
      </trkpt>
      <trkpt lat="41.26216" lon="9.2067">
        <ele>0.14</ele>
        <time>2017-10-09T16:01:13Z</time>
      </trkpt>
      <trkpt lat="41.26179" lon="9.20642">
        <ele>-0.34</ele>
        <time>2017-10-09T16:01:27Z</time>
      </trkpt>
      <trkpt lat="41.26144" lon="9.20613">
        <ele>-0.82</ele>
        <time>2017-10-09T16:01:41Z</time>
      </trkpt>
      <trkpt lat="41.26115" lon="9.20579">
        <ele>-0.82</ele>
        <time>2017-10-09T16:01:55Z</time>
      </trkpt>
      <trkpt lat="41.26087" lon="9.20548">
        <ele>0.14</ele>
        <time>2017-10-09T16:02:09Z</time>
      </trkpt>
      <trkpt lat="41.26061" lon="9.20522">
        <ele>1.1</ele>
        <time>2017-10-09T16:02:22Z</time>
      </trkpt>
      <trkpt lat="41.26025" lon="9.20496">
        <ele>0.62</ele>
        <time>2017-10-09T16:02:37Z</time>
      </trkpt>
      <trkpt lat="41.25992" lon="9.2047">
        <ele>0.14</ele>
        <time>2017-10-09T16:02:50Z</time>
      </trkpt>
      <trkpt lat="41.25954" lon="9.20444">
        <ele>-0.82</ele>
        <time>2017-10-09T16:03:04Z</time>
      </trkpt>
      <trkpt lat="41.25922" lon="9.20416">
        <ele>-0.34</ele>
        <time>2017-10-09T16:03:17Z</time>
      </trkpt>
      <trkpt lat="41.25876" lon="9.20381">
        <ele>0.14</ele>
        <time>2017-10-09T16:03:34Z</time>
      </trkpt>
      <trkpt lat="41.25833" lon="9.2035">
        <ele>1.1</ele>
        <time>2017-10-09T16:03:50Z</time>
      </trkpt>
      <trkpt lat="41.25795" lon="9.20324">
        <ele>1.1</ele>
        <time>2017-10-09T16:04:04Z</time>
      </trkpt>
      <trkpt lat="41.25755" lon="9.20295">
        <ele>0.14</ele>
        <time>2017-10-09T16:04:19Z</time>
      </trkpt>
      <trkpt lat="41.25727" lon="9.20264">
        <ele>0.62</ele>
        <time>2017-10-09T16:04:32Z</time>
      </trkpt>
      <trkpt lat="41.25698" lon="9.20231">
        <ele>1.1</ele>
        <time>2017-10-09T16:04:46Z</time>
      </trkpt>
      <trkpt lat="41.25671" lon="9.20206">
        <ele>0.14</ele>
        <time>2017-10-09T16:04:58Z</time>
      </trkpt>
      <trkpt lat="41.25637" lon="9.20176">
        <ele>-0.34</ele>
        <time>2017-10-09T16:05:13Z</time>
      </trkpt>
      <trkpt lat="41.25604" lon="9.20152">
        <ele>0.14</ele>
        <time>2017-10-09T16:05:26Z</time>
      </trkpt>
      <trkpt lat="41.2557" lon="9.20125">
        <ele>0.62</ele>
        <time>2017-10-09T16:05:40Z</time>
      </trkpt>
      <trkpt lat="41.25539" lon="9.20108">
        <ele>0.14</ele>
        <time>2017-10-09T16:05:51Z</time>
      </trkpt>
      <trkpt lat="41.25502" lon="9.20095">
        <ele>0.14</ele>
        <time>2017-10-09T16:06:05Z</time>
      </trkpt>
      <trkpt lat="41.2547" lon="9.20089">
        <ele>0.14</ele>
        <time>2017-10-09T16:06:20Z</time>
      </trkpt>
      <trkpt lat="41.25446" lon="9.20087">
        <ele>0.14</ele>
        <time>2017-10-09T16:06:34Z</time>
      </trkpt>
      <trkpt lat="41.2544" lon="9.20083">
        <ele>0.14</ele>
        <time>2017-10-09T16:06:39Z</time>
      </trkpt>
      <trkpt lat="41.25436" lon="9.20078">
        <ele>0.14</ele>
        <time>2017-10-09T16:06:44Z</time>
      </trkpt>
      <trkpt lat="41.25433" lon="9.2006">
        <ele>-0.34</ele>
        <time>2017-10-09T16:07:01Z</time>
      </trkpt>
      <trkpt lat="41.25433" lon="9.2005">
        <ele>0.14</ele>
        <time>2017-10-09T16:07:15Z</time>
      </trkpt>
      <trkpt lat="41.25433" lon="9.20042">
        <ele>0.62</ele>
        <time>2017-10-09T16:07:32Z</time>
      </trkpt>
      <trkpt lat="41.25426" lon="9.20021">
        <ele>1.58</ele>
        <time>2017-10-09T16:07:48Z</time>
      </trkpt>
      <trkpt lat="41.25426" lon="9.20018">
        <ele>1.58</ele>
        <time>2017-10-09T16:07:50Z</time>
      </trkpt>
      <trkpt lat="41.25424" lon="9.20011">
        <ele>1.58</ele>
        <time>2017-10-09T16:07:54Z</time>
      </trkpt>
      <trkpt lat="41.25409" lon="9.19991">
        <ele>1.1</ele>
        <time>2017-10-09T16:08:10Z</time>
      </trkpt>
      <trkpt lat="41.25404" lon="9.19989">
        <ele>1.1</ele>
        <time>2017-10-09T16:08:13Z</time>
      </trkpt>
      <trkpt lat="41.25387" lon="9.19981">
        <ele>1.1</ele>
        <time>2017-10-09T16:08:24Z</time>
      </trkpt>
      <trkpt lat="41.25355" lon="9.19966">
        <ele>0.62</ele>
        <time>2017-10-09T16:08:41Z</time>
      </trkpt>
      <trkpt lat="41.25325" lon="9.19944">
        <ele>0.14</ele>
        <time>2017-10-09T16:08:57Z</time>
      </trkpt>
      <trkpt lat="41.25293" lon="9.19927">
        <ele>1.1</ele>
        <time>2017-10-09T16:09:13Z</time>
      </trkpt>
      <trkpt lat="41.25262" lon="9.19911">
        <ele>0.62</ele>
        <time>2017-10-09T16:09:28Z</time>
      </trkpt>
      <trkpt lat="41.25229" lon="9.19892">
        <ele>0.14</ele>
        <time>2017-10-09T16:09:44Z</time>
      </trkpt>
      <trkpt lat="41.25198" lon="9.19882">
        <ele>0.14</ele>
        <time>2017-10-09T16:09:57Z</time>
      </trkpt>
      <trkpt lat="41.25162" lon="9.19867">
        <ele>-0.34</ele>
        <time>2017-10-09T16:10:12Z</time>
      </trkpt>
      <trkpt lat="41.25124" lon="9.1985">
        <ele>0.14</ele>
        <time>2017-10-09T16:10:28Z</time>
      </trkpt>
      <trkpt lat="41.25088" lon="9.19836">
        <ele>0.62</ele>
        <time>2017-10-09T16:10:43Z</time>
      </trkpt>
      <trkpt lat="41.25048" lon="9.19814">
        <ele>0.14</ele>
        <time>2017-10-09T16:11:01Z</time>
      </trkpt>
      <trkpt lat="41.25009" lon="9.19797">
        <ele>0.14</ele>
        <time>2017-10-09T16:11:17Z</time>
      </trkpt>
      <trkpt lat="41.24983" lon="9.19784">
        <ele>0.62</ele>
        <time>2017-10-09T16:11:28Z</time>
      </trkpt>
      <trkpt lat="41.24954" lon="9.19771">
        <ele>0.62</ele>
        <time>2017-10-09T16:11:40Z</time>
      </trkpt>
      <trkpt lat="41.24913" lon="9.19762">
        <ele>0.14</ele>
        <time>2017-10-09T16:11:56Z</time>
      </trkpt>
      <trkpt lat="41.2487" lon="9.19752">
        <ele>0.14</ele>
        <time>2017-10-09T16:12:13Z</time>
      </trkpt>
      <trkpt lat="41.24832" lon="9.19741">
        <ele>0.14</ele>
        <time>2017-10-09T16:12:28Z</time>
      </trkpt>
      <trkpt lat="41.24789" lon="9.19733">
        <ele>0.62</ele>
        <time>2017-10-09T16:12:45Z</time>
      </trkpt>
      <trkpt lat="41.24753" lon="9.19724">
        <ele>0.62</ele>
        <time>2017-10-09T16:12:59Z</time>
      </trkpt>
      <trkpt lat="41.24706" lon="9.19709">
        <ele>0.14</ele>
        <time>2017-10-09T16:13:18Z</time>
      </trkpt>
      <trkpt lat="41.24669" lon="9.19705">
        <ele>-0.34</ele>
        <time>2017-10-09T16:13:32Z</time>
      </trkpt>
      <trkpt lat="41.24628" lon="9.19692">
        <ele>-0.34</ele>
        <time>2017-10-09T16:13:48Z</time>
      </trkpt>
      <trkpt lat="41.24577" lon="9.19684">
        <ele>-0.34</ele>
        <time>2017-10-09T16:14:07Z</time>
      </trkpt>
      <trkpt lat="41.24526" lon="9.19677">
        <ele>0.14</ele>
        <time>2017-10-09T16:14:26Z</time>
      </trkpt>
      <trkpt lat="41.2447" lon="9.19669">
        <ele>-0.34</ele>
        <time>2017-10-09T16:14:47Z</time>
      </trkpt>
      <trkpt lat="41.24414" lon="9.19658">
        <ele>0.62</ele>
        <time>2017-10-09T16:15:08Z</time>
      </trkpt>
      <trkpt lat="41.24345" lon="9.19641">
        <ele>0.62</ele>
        <time>2017-10-09T16:15:34Z</time>
      </trkpt>
      <trkpt lat="41.24266" lon="9.1962">
        <ele>0.14</ele>
        <time>2017-10-09T16:16:04Z</time>
      </trkpt>
      <trkpt lat="41.2419" lon="9.19595">
        <ele>-0.34</ele>
        <time>2017-10-09T16:16:34Z</time>
      </trkpt>
      <trkpt lat="41.24128" lon="9.19588">
        <ele>0.14</ele>
        <time>2017-10-09T16:17:00Z</time>
      </trkpt>
      <trkpt lat="41.24066" lon="9.19567">
        <ele>-0.34</ele>
        <time>2017-10-09T16:17:31Z</time>
      </trkpt>
      <trkpt lat="41.24032" lon="9.19552">
        <ele>1.1</ele>
        <time>2017-10-09T16:17:54Z</time>
      </trkpt>
      <trkpt lat="41.24" lon="9.19537">
        <ele>1.1</ele>
        <time>2017-10-09T16:18:15Z</time>
      </trkpt>
      <trkpt lat="41.23949" lon="9.19511">
        <ele>0.14</ele>
        <time>2017-10-09T16:18:43Z</time>
      </trkpt>
      <trkpt lat="41.23892" lon="9.19493">
        <ele>0.14</ele>
        <time>2017-10-09T16:19:16Z</time>
      </trkpt>
      <trkpt lat="41.23845" lon="9.19506">
        <ele>0.62</ele>
        <time>2017-10-09T16:19:46Z</time>
      </trkpt>
      <trkpt lat="41.23813" lon="9.1954">
        <ele>0.62</ele>
        <time>2017-10-09T16:20:13Z</time>
      </trkpt>
      <trkpt lat="41.23785" lon="9.19579">
        <ele>-0.34</ele>
        <time>2017-10-09T16:20:47Z</time>
      </trkpt>
      <trkpt lat="41.23768" lon="9.19608">
        <ele>0.14</ele>
        <time>2017-10-09T16:21:17Z</time>
      </trkpt>
      <trkpt lat="41.23761" lon="9.1963">
        <ele>1.1</ele>
        <time>2017-10-09T16:21:41Z</time>
      </trkpt>
      <trkpt lat="41.23757" lon="9.19638">
        <ele>0.14</ele>
        <time>2017-10-09T16:22:12Z</time>
      </trkpt>
      <trkpt lat="41.23755" lon="9.19628">
        <ele>0.14</ele>
        <time>2017-10-09T16:22:34Z</time>
      </trkpt>
      <trkpt lat="41.23759" lon="9.19651">
        <ele>1.1</ele>
        <time>2017-10-09T16:22:59Z</time>
      </trkpt>
      <trkpt lat="41.23758" lon="9.19655">
        <ele>2.54</ele>
        <time>2017-10-09T16:23:20Z</time>
      </trkpt>
      <trkpt lat="41.23755" lon="9.19644">
        <ele>2.54</ele>
        <time>2017-10-09T16:23:31Z</time>
      </trkpt>
      <trkpt lat="41.2376" lon="9.19616">
        <ele>2.06</ele>
        <time>2017-10-09T16:23:56Z</time>
      </trkpt>
      <trkpt lat="41.23753" lon="9.19599">
        <ele>3.02</ele>
        <time>2017-10-09T16:24:24Z</time>
      </trkpt>
      <trkpt lat="41.23749" lon="9.19597">
        <ele>3.5</ele>
        <time>2017-10-09T16:24:53Z</time>
      </trkpt>
      <trkpt lat="41.23748" lon="9.19595">
        <ele>2.06</ele>
        <time>2017-10-09T16:25:22Z</time>
      </trkpt>
      <trkpt lat="41.23748" lon="9.19595">
        <ele>2.06</ele>
        <time>2017-10-09T16:25:31Z</time>
      </trkpt>
    </trkseg>
  </trk>
  <trk>
    <name><![CDATA[Tracé actuel: 10 OCT 2017 09:38]]></name>
    <trkseg>
      <trkpt lat="41.23734" lon="9.19606">
        <ele>-0.82</ele>
        <time>2017-10-10T08:38:02Z</time>
      </trkpt>
      <trkpt lat="41.23723" lon="9.19591">
        <ele>19.36</ele>
        <time>2017-10-10T08:38:28Z</time>
      </trkpt>
      <trkpt lat="41.23744" lon="9.19597">
        <ele>0.62</ele>
        <time>2017-10-10T08:38:58Z</time>
      </trkpt>
      <trkpt lat="41.23744" lon="9.19601">
        <ele>0.14</ele>
        <time>2017-10-10T08:39:24Z</time>
      </trkpt>
      <trkpt lat="41.23744" lon="9.196">
        <ele>-1.3</ele>
        <time>2017-10-10T08:39:55Z</time>
      </trkpt>
      <trkpt lat="41.23746" lon="9.19599">
        <ele>-1.3</ele>
        <time>2017-10-10T08:40:32Z</time>
      </trkpt>
      <trkpt lat="41.23746" lon="9.19599">
        <ele>-0.82</ele>
        <time>2017-10-10T08:40:53Z</time>
      </trkpt>
      <trkpt lat="41.23747" lon="9.19597">
        <ele>0.14</ele>
        <time>2017-10-10T08:41:28Z</time>
      </trkpt>
      <trkpt lat="41.23747" lon="9.19597">
        <ele>0.62</ele>
        <time>2017-10-10T08:41:58Z</time>
      </trkpt>
      <trkpt lat="41.23747" lon="9.19596">
        <ele>2.54</ele>
        <time>2017-10-10T08:42:23Z</time>
      </trkpt>
      <trkpt lat="41.23747" lon="9.19596">
        <ele>3.02</ele>
        <time>2017-10-10T08:42:49Z</time>
      </trkpt>
      <trkpt lat="41.23747" lon="9.19597">
        <ele>3.5</ele>
        <time>2017-10-10T08:43:19Z</time>
      </trkpt>
      <trkpt lat="41.23747" lon="9.19597">
        <ele>3.98</ele>
        <time>2017-10-10T08:43:53Z</time>
      </trkpt>
      <trkpt lat="41.23747" lon="9.19597">
        <ele>3.98</ele>
        <time>2017-10-10T08:44:20Z</time>
      </trkpt>
      <trkpt lat="41.23755" lon="9.19603">
        <ele>4.94</ele>
        <time>2017-10-10T08:44:44Z</time>
      </trkpt>
      <trkpt lat="41.23772" lon="9.19607">
        <ele>3.5</ele>
        <time>2017-10-10T08:45:06Z</time>
      </trkpt>
      <trkpt lat="41.23788" lon="9.19583">
        <ele>3.5</ele>
        <time>2017-10-10T08:45:33Z</time>
      </trkpt>
      <trkpt lat="41.23794" lon="9.19573">
        <ele>3.5</ele>
        <time>2017-10-10T08:45:43Z</time>
      </trkpt>
      <trkpt lat="41.23813" lon="9.19542">
        <ele>3.02</ele>
        <time>2017-10-10T08:46:10Z</time>
      </trkpt>
      <trkpt lat="41.23837" lon="9.19513">
        <ele>3.02</ele>
        <time>2017-10-10T08:46:35Z</time>
      </trkpt>
      <trkpt lat="41.23865" lon="9.19497">
        <ele>3.02</ele>
        <time>2017-10-10T08:46:56Z</time>
      </trkpt>
      <trkpt lat="41.2391" lon="9.19504">
        <ele>2.54</ele>
        <time>2017-10-10T08:47:21Z</time>
      </trkpt>
      <trkpt lat="41.23958" lon="9.19521">
        <ele>3.02</ele>
        <time>2017-10-10T08:47:47Z</time>
      </trkpt>
      <trkpt lat="41.24002" lon="9.19534">
        <ele>2.54</ele>
        <time>2017-10-10T08:48:10Z</time>
      </trkpt>
      <trkpt lat="41.24052" lon="9.19555">
        <ele>3.02</ele>
        <time>2017-10-10T08:48:36Z</time>
      </trkpt>
      <trkpt lat="41.24096" lon="9.19578">
        <ele>3.02</ele>
        <time>2017-10-10T08:49:00Z</time>
      </trkpt>
      <trkpt lat="41.24139" lon="9.19597">
        <ele>3.5</ele>
        <time>2017-10-10T08:49:23Z</time>
      </trkpt>
      <trkpt lat="41.24181" lon="9.1961">
        <ele>3.5</ele>
        <time>2017-10-10T08:49:45Z</time>
      </trkpt>
      <trkpt lat="41.24231" lon="9.19625">
        <ele>3.5</ele>
        <time>2017-10-10T08:50:11Z</time>
      </trkpt>
      <trkpt lat="41.24274" lon="9.19643">
        <ele>2.54</ele>
        <time>2017-10-10T08:50:34Z</time>
      </trkpt>
      <trkpt lat="41.24322" lon="9.19652">
        <ele>2.54</ele>
        <time>2017-10-10T08:50:59Z</time>
      </trkpt>
      <trkpt lat="41.2436" lon="9.19659">
        <ele>1.58</ele>
        <time>2017-10-10T08:51:19Z</time>
      </trkpt>
      <trkpt lat="41.24404" lon="9.1967">
        <ele>2.06</ele>
        <time>2017-10-10T08:51:42Z</time>
      </trkpt>
      <trkpt lat="41.24448" lon="9.19681">
        <ele>2.54</ele>
        <time>2017-10-10T08:52:06Z</time>
      </trkpt>
      <trkpt lat="41.24486" lon="9.19692">
        <ele>3.02</ele>
        <time>2017-10-10T08:52:26Z</time>
      </trkpt>
      <trkpt lat="41.24528" lon="9.19697">
        <ele>3.5</ele>
        <time>2017-10-10T08:52:48Z</time>
      </trkpt>
      <trkpt lat="41.24569" lon="9.19708">
        <ele>3.5</ele>
        <time>2017-10-10T08:53:10Z</time>
      </trkpt>
      <trkpt lat="41.24613" lon="9.19721">
        <ele>3.98</ele>
        <time>2017-10-10T08:53:34Z</time>
      </trkpt>
      <trkpt lat="41.24656" lon="9.19718">
        <ele>3.02</ele>
        <time>2017-10-10T08:53:56Z</time>
      </trkpt>
      <trkpt lat="41.24698" lon="9.19726">
        <ele>2.54</ele>
        <time>2017-10-10T08:54:17Z</time>
      </trkpt>
      <trkpt lat="41.24736" lon="9.19736">
        <ele>3.02</ele>
        <time>2017-10-10T08:54:36Z</time>
      </trkpt>
      <trkpt lat="41.24775" lon="9.19744">
        <ele>3.02</ele>
        <time>2017-10-10T08:54:56Z</time>
      </trkpt>
      <trkpt lat="41.24815" lon="9.19753">
        <ele>3.02</ele>
        <time>2017-10-10T08:55:19Z</time>
      </trkpt>
      <trkpt lat="41.24846" lon="9.19761">
        <ele>3.02</ele>
        <time>2017-10-10T08:55:40Z</time>
      </trkpt>
      <trkpt lat="41.24875" lon="9.1977">
        <ele>3.02</ele>
        <time>2017-10-10T08:56:01Z</time>
      </trkpt>
      <trkpt lat="41.24899" lon="9.19782">
        <ele>3.02</ele>
        <time>2017-10-10T08:56:20Z</time>
      </trkpt>
      <trkpt lat="41.24919" lon="9.19794">
        <ele>3.02</ele>
        <time>2017-10-10T08:56:37Z</time>
      </trkpt>
      <trkpt lat="41.2494" lon="9.19803">
        <ele>3.5</ele>
        <time>2017-10-10T08:56:54Z</time>
      </trkpt>
      <trkpt lat="41.24946" lon="9.19805">
        <ele>3.5</ele>
        <time>2017-10-10T08:56:59Z</time>
      </trkpt>
      <trkpt lat="41.24966" lon="9.19815">
        <ele>3.5</ele>
        <time>2017-10-10T08:57:18Z</time>
      </trkpt>
      <trkpt lat="41.24983" lon="9.1982">
        <ele>3.02</ele>
        <time>2017-10-10T08:57:35Z</time>
      </trkpt>
      <trkpt lat="41.25001" lon="9.19825">
        <ele>2.54</ele>
        <time>2017-10-10T08:57:54Z</time>
      </trkpt>
      <trkpt lat="41.25019" lon="9.1983">
        <ele>2.54</ele>
        <time>2017-10-10T08:58:13Z</time>
      </trkpt>
      <trkpt lat="41.25036" lon="9.19833">
        <ele>3.02</ele>
        <time>2017-10-10T08:58:32Z</time>
      </trkpt>
      <trkpt lat="41.25048" lon="9.19837">
        <ele>3.02</ele>
        <time>2017-10-10T08:58:48Z</time>
      </trkpt>
      <trkpt lat="41.25062" lon="9.19841">
        <ele>1.58</ele>
        <time>2017-10-10T08:59:05Z</time>
      </trkpt>
      <trkpt lat="41.25073" lon="9.19845">
        <ele>1.58</ele>
        <time>2017-10-10T08:59:20Z</time>
      </trkpt>
      <trkpt lat="41.25086" lon="9.19851">
        <ele>1.58</ele>
        <time>2017-10-10T08:59:37Z</time>
      </trkpt>
      <trkpt lat="41.251" lon="9.19856">
        <ele>1.58</ele>
        <time>2017-10-10T08:59:55Z</time>
      </trkpt>
      <trkpt lat="41.25111" lon="9.19859">
        <ele>2.06</ele>
        <time>2017-10-10T09:00:10Z</time>
      </trkpt>
      <trkpt lat="41.25123" lon="9.19863">
        <ele>1.1</ele>
        <time>2017-10-10T09:00:25Z</time>
      </trkpt>
      <trkpt lat="41.25137" lon="9.19867">
        <ele>1.1</ele>
        <time>2017-10-10T09:00:43Z</time>
      </trkpt>
      <trkpt lat="41.25148" lon="9.19872">
        <ele>1.58</ele>
        <time>2017-10-10T09:00:58Z</time>
      </trkpt>
      <trkpt lat="41.25162" lon="9.19878">
        <ele>2.06</ele>
        <time>2017-10-10T09:01:16Z</time>
      </trkpt>
      <trkpt lat="41.25177" lon="9.19883">
        <ele>1.58</ele>
        <time>2017-10-10T09:01:33Z</time>
      </trkpt>
      <trkpt lat="41.25193" lon="9.1989">
        <ele>2.06</ele>
        <time>2017-10-10T09:01:52Z</time>
      </trkpt>
      <trkpt lat="41.25208" lon="9.19896">
        <ele>2.06</ele>
        <time>2017-10-10T09:02:11Z</time>
      </trkpt>
      <trkpt lat="41.25217" lon="9.199">
        <ele>1.58</ele>
        <time>2017-10-10T09:02:22Z</time>
      </trkpt>
      <trkpt lat="41.25232" lon="9.19907">
        <ele>2.06</ele>
        <time>2017-10-10T09:02:41Z</time>
      </trkpt>
      <trkpt lat="41.25246" lon="9.19911">
        <ele>2.54</ele>
        <time>2017-10-10T09:02:58Z</time>
      </trkpt>
      <trkpt lat="41.2526" lon="9.19918">
        <ele>3.02</ele>
        <time>2017-10-10T09:03:15Z</time>
      </trkpt>
      <trkpt lat="41.25275" lon="9.19925">
        <ele>3.02</ele>
        <time>2017-10-10T09:03:31Z</time>
      </trkpt>
      <trkpt lat="41.25278" lon="9.19926">
        <ele>3.5</ele>
        <time>2017-10-10T09:03:35Z</time>
      </trkpt>
      <trkpt lat="41.25283" lon="9.19928">
        <ele>3.5</ele>
        <time>2017-10-10T09:03:40Z</time>
      </trkpt>
      <trkpt lat="41.25299" lon="9.19935">
        <ele>3.02</ele>
        <time>2017-10-10T09:03:56Z</time>
      </trkpt>
      <trkpt lat="41.25316" lon="9.19944">
        <ele>2.06</ele>
        <time>2017-10-10T09:04:13Z</time>
      </trkpt>
      <trkpt lat="41.25338" lon="9.19953">
        <ele>3.02</ele>
        <time>2017-10-10T09:04:33Z</time>
      </trkpt>
      <trkpt lat="41.25364" lon="9.19962">
        <ele>3.02</ele>
        <time>2017-10-10T09:04:52Z</time>
      </trkpt>
      <trkpt lat="41.25385" lon="9.19969">
        <ele>2.06</ele>
        <time>2017-10-10T09:05:07Z</time>
      </trkpt>
      <trkpt lat="41.25405" lon="9.1999">
        <ele>1.58</ele>
        <time>2017-10-10T09:05:23Z</time>
      </trkpt>
      <trkpt lat="41.25424" lon="9.20012">
        <ele>2.06</ele>
        <time>2017-10-10T09:05:40Z</time>
      </trkpt>
      <trkpt lat="41.25441" lon="9.20028">
        <ele>1.58</ele>
        <time>2017-10-10T09:05:53Z</time>
      </trkpt>
      <trkpt lat="41.25446" lon="9.20032">
        <ele>1.1</ele>
        <time>2017-10-10T09:05:57Z</time>
      </trkpt>
      <trkpt lat="41.25459" lon="9.20044">
        <ele>1.1</ele>
        <time>2017-10-10T09:06:08Z</time>
      </trkpt>
      <trkpt lat="41.25467" lon="9.20053">
        <ele>1.1</ele>
        <time>2017-10-10T09:06:16Z</time>
      </trkpt>
      <trkpt lat="41.25473" lon="9.20062">
        <ele>1.58</ele>
        <time>2017-10-10T09:06:23Z</time>
      </trkpt>
      <trkpt lat="41.2548" lon="9.2007">
        <ele>1.58</ele>
        <time>2017-10-10T09:06:30Z</time>
      </trkpt>
      <trkpt lat="41.25495" lon="9.2009">
        <ele>1.58</ele>
        <time>2017-10-10T09:06:47Z</time>
      </trkpt>
      <trkpt lat="41.25519" lon="9.20106">
        <ele>1.58</ele>
        <time>2017-10-10T09:07:05Z</time>
      </trkpt>
      <trkpt lat="41.25544" lon="9.20118">
        <ele>1.58</ele>
        <time>2017-10-10T09:07:21Z</time>
      </trkpt>
      <trkpt lat="41.25572" lon="9.20148">
        <ele>1.1</ele>
        <time>2017-10-10T09:07:36Z</time>
      </trkpt>
      <trkpt lat="41.25603" lon="9.20183">
        <ele>1.1</ele>
        <time>2017-10-10T09:07:51Z</time>
      </trkpt>
      <trkpt lat="41.2563" lon="9.20222">
        <ele>1.58</ele>
        <time>2017-10-10T09:08:05Z</time>
      </trkpt>
      <trkpt lat="41.25657" lon="9.20261">
        <ele>1.58</ele>
        <time>2017-10-10T09:08:19Z</time>
      </trkpt>
      <trkpt lat="41.25696" lon="9.20292">
        <ele>1.58</ele>
        <time>2017-10-10T09:08:34Z</time>
      </trkpt>
      <trkpt lat="41.25734" lon="9.2034">
        <ele>2.06</ele>
        <time>2017-10-10T09:08:51Z</time>
      </trkpt>
      <trkpt lat="41.25763" lon="9.20386">
        <ele>2.54</ele>
        <time>2017-10-10T09:09:07Z</time>
      </trkpt>
      <trkpt lat="41.25779" lon="9.20432">
        <ele>2.54</ele>
        <time>2017-10-10T09:09:22Z</time>
      </trkpt>
      <trkpt lat="41.25791" lon="9.20475">
        <ele>2.06</ele>
        <time>2017-10-10T09:09:37Z</time>
      </trkpt>
      <trkpt lat="41.25804" lon="9.20514">
        <ele>2.06</ele>
        <time>2017-10-10T09:09:52Z</time>
      </trkpt>
      <trkpt lat="41.25828" lon="9.2055">
        <ele>2.06</ele>
        <time>2017-10-10T09:10:09Z</time>
      </trkpt>
      <trkpt lat="41.25857" lon="9.2058">
        <ele>2.06</ele>
        <time>2017-10-10T09:10:23Z</time>
      </trkpt>
      <trkpt lat="41.25875" lon="9.20615">
        <ele>2.54</ele>
        <time>2017-10-10T09:10:34Z</time>
      </trkpt>
      <trkpt lat="41.25897" lon="9.20646">
        <ele>2.06</ele>
        <time>2017-10-10T09:10:46Z</time>
      </trkpt>
      <trkpt lat="41.25927" lon="9.20679">
        <ele>2.06</ele>
        <time>2017-10-10T09:11:02Z</time>
      </trkpt>
      <trkpt lat="41.25949" lon="9.2071">
        <ele>1.58</ele>
        <time>2017-10-10T09:11:15Z</time>
      </trkpt>
      <trkpt lat="41.25972" lon="9.20749">
        <ele>2.06</ele>
        <time>2017-10-10T09:11:30Z</time>
      </trkpt>
      <trkpt lat="41.25998" lon="9.20781">
        <ele>1.1</ele>
        <time>2017-10-10T09:11:43Z</time>
      </trkpt>
      <trkpt lat="41.26028" lon="9.20813">
        <ele>1.58</ele>
        <time>2017-10-10T09:11:58Z</time>
      </trkpt>
      <trkpt lat="41.26061" lon="9.20845">
        <ele>1.58</ele>
        <time>2017-10-10T09:12:11Z</time>
      </trkpt>
      <trkpt lat="41.26105" lon="9.20885">
        <ele>1.58</ele>
        <time>2017-10-10T09:12:27Z</time>
      </trkpt>
      <trkpt lat="41.26138" lon="9.20917">
        <ele>1.58</ele>
        <time>2017-10-10T09:12:40Z</time>
      </trkpt>
      <trkpt lat="41.26173" lon="9.20952">
        <ele>1.58</ele>
        <time>2017-10-10T09:12:55Z</time>
      </trkpt>
      <trkpt lat="41.262" lon="9.20996">
        <ele>2.06</ele>
        <time>2017-10-10T09:13:11Z</time>
      </trkpt>
      <trkpt lat="41.26222" lon="9.21035">
        <ele>2.54</ele>
        <time>2017-10-10T09:13:26Z</time>
      </trkpt>
      <trkpt lat="41.2624" lon="9.21075">
        <ele>2.54</ele>
        <time>2017-10-10T09:13:43Z</time>
      </trkpt>
      <trkpt lat="41.26254" lon="9.21115">
        <ele>2.06</ele>
        <time>2017-10-10T09:14:00Z</time>
      </trkpt>
      <trkpt lat="41.26266" lon="9.21146">
        <ele>2.06</ele>
        <time>2017-10-10T09:14:14Z</time>
      </trkpt>
      <trkpt lat="41.26292" lon="9.21178">
        <ele>1.58</ele>
        <time>2017-10-10T09:14:31Z</time>
      </trkpt>
      <trkpt lat="41.26317" lon="9.2121">
        <ele>1.58</ele>
        <time>2017-10-10T09:14:47Z</time>
      </trkpt>
      <trkpt lat="41.26343" lon="9.21241">
        <ele>1.58</ele>
        <time>2017-10-10T09:15:03Z</time>
      </trkpt>
      <trkpt lat="41.26361" lon="9.2126">
        <ele>2.06</ele>
        <time>2017-10-10T09:15:14Z</time>
      </trkpt>
      <trkpt lat="41.2639" lon="9.21292">
        <ele>2.54</ele>
        <time>2017-10-10T09:15:29Z</time>
      </trkpt>
      <trkpt lat="41.26415" lon="9.21329">
        <ele>2.06</ele>
        <time>2017-10-10T09:15:44Z</time>
      </trkpt>
      <trkpt lat="41.26438" lon="9.21366">
        <ele>2.06</ele>
        <time>2017-10-10T09:15:59Z</time>
      </trkpt>
      <trkpt lat="41.26461" lon="9.21399">
        <ele>2.54</ele>
        <time>2017-10-10T09:16:13Z</time>
      </trkpt>
      <trkpt lat="41.26478" lon="9.21423">
        <ele>2.54</ele>
        <time>2017-10-10T09:16:24Z</time>
      </trkpt>
      <trkpt lat="41.26509" lon="9.21447">
        <ele>2.54</ele>
        <time>2017-10-10T09:16:38Z</time>
      </trkpt>
      <trkpt lat="41.26539" lon="9.21479">
        <ele>2.54</ele>
        <time>2017-10-10T09:16:52Z</time>
      </trkpt>
      <trkpt lat="41.26575" lon="9.21517">
        <ele>3.02</ele>
        <time>2017-10-10T09:17:07Z</time>
      </trkpt>
      <trkpt lat="41.26612" lon="9.21558">
        <ele>2.54</ele>
        <time>2017-10-10T09:17:22Z</time>
      </trkpt>
      <trkpt lat="41.26644" lon="9.21605">
        <ele>2.54</ele>
        <time>2017-10-10T09:17:38Z</time>
      </trkpt>
      <trkpt lat="41.26672" lon="9.2164">
        <ele>2.06</ele>
        <time>2017-10-10T09:17:51Z</time>
      </trkpt>
      <trkpt lat="41.26707" lon="9.21681">
        <ele>1.58</ele>
        <time>2017-10-10T09:18:06Z</time>
      </trkpt>
      <trkpt lat="41.26736" lon="9.21705">
        <ele>2.06</ele>
        <time>2017-10-10T09:18:17Z</time>
      </trkpt>
      <trkpt lat="41.26769" lon="9.21741">
        <ele>1.58</ele>
        <time>2017-10-10T09:18:30Z</time>
      </trkpt>
      <trkpt lat="41.2679" lon="9.21781">
        <ele>2.54</ele>
        <time>2017-10-10T09:18:43Z</time>
      </trkpt>
      <trkpt lat="41.2682" lon="9.2182">
        <ele>3.02</ele>
        <time>2017-10-10T09:18:59Z</time>
      </trkpt>
      <trkpt lat="41.26845" lon="9.21856">
        <ele>3.02</ele>
        <time>2017-10-10T09:19:13Z</time>
      </trkpt>
      <trkpt lat="41.26878" lon="9.21901">
        <ele>3.5</ele>
        <time>2017-10-10T09:19:30Z</time>
      </trkpt>
      <trkpt lat="41.26902" lon="9.2194">
        <ele>3.02</ele>
        <time>2017-10-10T09:19:44Z</time>
      </trkpt>
      <trkpt lat="41.26926" lon="9.21974">
        <ele>3.5</ele>
        <time>2017-10-10T09:19:57Z</time>
      </trkpt>
      <trkpt lat="41.26949" lon="9.22005">
        <ele>3.02</ele>
        <time>2017-10-10T09:20:09Z</time>
      </trkpt>
      <trkpt lat="41.26977" lon="9.22039">
        <ele>2.54</ele>
        <time>2017-10-10T09:20:23Z</time>
      </trkpt>
      <trkpt lat="41.26999" lon="9.22076">
        <ele>2.54</ele>
        <time>2017-10-10T09:20:37Z</time>
      </trkpt>
      <trkpt lat="41.2702" lon="9.22116">
        <ele>2.54</ele>
        <time>2017-10-10T09:20:52Z</time>
      </trkpt>
      <trkpt lat="41.27048" lon="9.22157">
        <ele>2.54</ele>
        <time>2017-10-10T09:21:08Z</time>
      </trkpt>
      <trkpt lat="41.27075" lon="9.22195">
        <ele>3.02</ele>
        <time>2017-10-10T09:21:22Z</time>
      </trkpt>
      <trkpt lat="41.27102" lon="9.22228">
        <ele>2.54</ele>
        <time>2017-10-10T09:21:35Z</time>
      </trkpt>
      <trkpt lat="41.27123" lon="9.22263">
        <ele>2.54</ele>
        <time>2017-10-10T09:21:47Z</time>
      </trkpt>
      <trkpt lat="41.27139" lon="9.22301">
        <ele>2.06</ele>
        <time>2017-10-10T09:22:00Z</time>
      </trkpt>
      <trkpt lat="41.27154" lon="9.22336">
        <ele>1.58</ele>
        <time>2017-10-10T09:22:13Z</time>
      </trkpt>
      <trkpt lat="41.27169" lon="9.22374">
        <ele>0.14</ele>
        <time>2017-10-10T09:22:27Z</time>
      </trkpt>
      <trkpt lat="41.27187" lon="9.224">
        <ele>1.1</ele>
        <time>2017-10-10T09:22:38Z</time>
      </trkpt>
      <trkpt lat="41.27218" lon="9.22429">
        <ele>1.58</ele>
        <time>2017-10-10T09:22:52Z</time>
      </trkpt>
      <trkpt lat="41.27253" lon="9.2246">
        <ele>2.06</ele>
        <time>2017-10-10T09:23:08Z</time>
      </trkpt>
      <trkpt lat="41.27278" lon="9.2249">
        <ele>2.54</ele>
        <time>2017-10-10T09:23:21Z</time>
      </trkpt>
      <trkpt lat="41.27297" lon="9.22532">
        <ele>1.1</ele>
        <time>2017-10-10T09:23:36Z</time>
      </trkpt>
      <trkpt lat="41.27311" lon="9.22565">
        <ele>0.62</ele>
        <time>2017-10-10T09:23:48Z</time>
      </trkpt>
      <trkpt lat="41.27334" lon="9.22612">
        <ele>1.1</ele>
        <time>2017-10-10T09:24:06Z</time>
      </trkpt>
      <trkpt lat="41.27356" lon="9.22641">
        <ele>1.1</ele>
        <time>2017-10-10T09:24:18Z</time>
      </trkpt>
      <trkpt lat="41.2738" lon="9.22668">
        <ele>1.58</ele>
        <time>2017-10-10T09:24:30Z</time>
      </trkpt>
      <trkpt lat="41.27408" lon="9.22708">
        <ele>2.06</ele>
        <time>2017-10-10T09:24:45Z</time>
      </trkpt>
      <trkpt lat="41.27427" lon="9.22749">
        <ele>1.58</ele>
        <time>2017-10-10T09:24:59Z</time>
      </trkpt>
      <trkpt lat="41.27449" lon="9.22779">
        <ele>2.06</ele>
        <time>2017-10-10T09:25:11Z</time>
      </trkpt>
      <trkpt lat="41.27471" lon="9.22813">
        <ele>2.54</ele>
        <time>2017-10-10T09:25:24Z</time>
      </trkpt>
      <trkpt lat="41.27495" lon="9.22847">
        <ele>2.54</ele>
        <time>2017-10-10T09:25:37Z</time>
      </trkpt>
      <trkpt lat="41.27519" lon="9.22878">
        <ele>2.54</ele>
        <time>2017-10-10T09:25:49Z</time>
      </trkpt>
      <trkpt lat="41.27542" lon="9.22918">
        <ele>1.58</ele>
        <time>2017-10-10T09:26:04Z</time>
      </trkpt>
      <trkpt lat="41.27566" lon="9.22958">
        <ele>2.06</ele>
        <time>2017-10-10T09:26:19Z</time>
      </trkpt>
      <trkpt lat="41.27598" lon="9.23001">
        <ele>1.58</ele>
        <time>2017-10-10T09:26:36Z</time>
      </trkpt>
      <trkpt lat="41.27624" lon="9.23045">
        <ele>1.58</ele>
        <time>2017-10-10T09:26:50Z</time>
      </trkpt>
      <trkpt lat="41.27657" lon="9.23099">
        <ele>1.58</ele>
        <time>2017-10-10T09:27:08Z</time>
      </trkpt>
      <trkpt lat="41.2768" lon="9.23148">
        <ele>2.06</ele>
        <time>2017-10-10T09:27:23Z</time>
      </trkpt>
      <trkpt lat="41.27698" lon="9.23188">
        <ele>1.58</ele>
        <time>2017-10-10T09:27:36Z</time>
      </trkpt>
      <trkpt lat="41.27724" lon="9.23239">
        <ele>0.62</ele>
        <time>2017-10-10T09:27:53Z</time>
      </trkpt>
      <trkpt lat="41.27751" lon="9.23296">
        <ele>1.1</ele>
        <time>2017-10-10T09:28:11Z</time>
      </trkpt>
      <trkpt lat="41.27774" lon="9.23347">
        <ele>1.58</ele>
        <time>2017-10-10T09:28:27Z</time>
      </trkpt>
      <trkpt lat="41.27794" lon="9.23383">
        <ele>1.58</ele>
        <time>2017-10-10T09:28:39Z</time>
      </trkpt>
      <trkpt lat="41.27821" lon="9.23444">
        <ele>1.58</ele>
        <time>2017-10-10T09:28:58Z</time>
      </trkpt>
      <trkpt lat="41.27841" lon="9.23486">
        <ele>1.1</ele>
        <time>2017-10-10T09:29:12Z</time>
      </trkpt>
      <trkpt lat="41.27859" lon="9.23524">
        <ele>1.58</ele>
        <time>2017-10-10T09:29:24Z</time>
      </trkpt>
      <trkpt lat="41.27876" lon="9.23559">
        <ele>1.58</ele>
        <time>2017-10-10T09:29:36Z</time>
      </trkpt>
      <trkpt lat="41.27897" lon="9.23603">
        <ele>1.58</ele>
        <time>2017-10-10T09:29:50Z</time>
      </trkpt>
      <trkpt lat="41.27917" lon="9.23644">
        <ele>1.1</ele>
        <time>2017-10-10T09:30:04Z</time>
      </trkpt>
      <trkpt lat="41.27934" lon="9.23679">
        <ele>1.58</ele>
        <time>2017-10-10T09:30:16Z</time>
      </trkpt>
      <trkpt lat="41.27955" lon="9.23725">
        <ele>1.1</ele>
        <time>2017-10-10T09:30:32Z</time>
      </trkpt>
      <trkpt lat="41.27972" lon="9.23763">
        <ele>1.58</ele>
        <time>2017-10-10T09:30:46Z</time>
      </trkpt>
      <trkpt lat="41.27991" lon="9.23797">
        <ele>1.58</ele>
        <time>2017-10-10T09:30:58Z</time>
      </trkpt>
      <trkpt lat="41.28012" lon="9.23841">
        <ele>1.58</ele>
        <time>2017-10-10T09:31:13Z</time>
      </trkpt>
      <trkpt lat="41.28032" lon="9.23884">
        <ele>1.58</ele>
        <time>2017-10-10T09:31:27Z</time>
      </trkpt>
      <trkpt lat="41.28056" lon="9.23932">
        <ele>1.1</ele>
        <time>2017-10-10T09:31:43Z</time>
      </trkpt>
      <trkpt lat="41.28071" lon="9.23968">
        <ele>2.06</ele>
        <time>2017-10-10T09:31:55Z</time>
      </trkpt>
      <trkpt lat="41.2809" lon="9.24006">
        <ele>2.54</ele>
        <time>2017-10-10T09:32:08Z</time>
      </trkpt>
      <trkpt lat="41.28108" lon="9.24046">
        <ele>2.54</ele>
        <time>2017-10-10T09:32:21Z</time>
      </trkpt>
      <trkpt lat="41.28128" lon="9.2409">
        <ele>1.58</ele>
        <time>2017-10-10T09:32:35Z</time>
      </trkpt>
      <trkpt lat="41.28154" lon="9.24142">
        <ele>1.1</ele>
        <time>2017-10-10T09:32:51Z</time>
      </trkpt>
      <trkpt lat="41.2817" lon="9.24178">
        <ele>1.58</ele>
        <time>2017-10-10T09:33:02Z</time>
      </trkpt>
      <trkpt lat="41.28193" lon="9.24227">
        <ele>2.06</ele>
        <time>2017-10-10T09:33:17Z</time>
      </trkpt>
      <trkpt lat="41.28212" lon="9.24269">
        <ele>2.06</ele>
        <time>2017-10-10T09:33:31Z</time>
      </trkpt>
      <trkpt lat="41.28232" lon="9.24314">
        <ele>2.54</ele>
        <time>2017-10-10T09:33:45Z</time>
      </trkpt>
      <trkpt lat="41.28251" lon="9.24356">
        <ele>1.58</ele>
        <time>2017-10-10T09:33:58Z</time>
      </trkpt>
      <trkpt lat="41.28269" lon="9.24395">
        <ele>1.58</ele>
        <time>2017-10-10T09:34:11Z</time>
      </trkpt>
      <trkpt lat="41.28288" lon="9.24436">
        <ele>2.06</ele>
        <time>2017-10-10T09:34:25Z</time>
      </trkpt>
      <trkpt lat="41.28305" lon="9.24475">
        <ele>1.58</ele>
        <time>2017-10-10T09:34:39Z</time>
      </trkpt>
      <trkpt lat="41.28321" lon="9.24513">
        <ele>1.58</ele>
        <time>2017-10-10T09:34:52Z</time>
      </trkpt>
      <trkpt lat="41.28341" lon="9.24556">
        <ele>1.1</ele>
        <time>2017-10-10T09:35:08Z</time>
      </trkpt>
      <trkpt lat="41.2836" lon="9.24595">
        <ele>0.62</ele>
        <time>2017-10-10T09:35:22Z</time>
      </trkpt>
      <trkpt lat="41.28377" lon="9.24637">
        <ele>0.62</ele>
        <time>2017-10-10T09:35:36Z</time>
      </trkpt>
      <trkpt lat="41.28404" lon="9.24688">
        <ele>0.62</ele>
        <time>2017-10-10T09:35:53Z</time>
      </trkpt>
      <trkpt lat="41.28435" lon="9.24731">
        <ele>1.58</ele>
        <time>2017-10-10T09:36:08Z</time>
      </trkpt>
      <trkpt lat="41.28464" lon="9.24769">
        <ele>1.58</ele>
        <time>2017-10-10T09:36:22Z</time>
      </trkpt>
      <trkpt lat="41.28493" lon="9.24804">
        <ele>1.58</ele>
        <time>2017-10-10T09:36:36Z</time>
      </trkpt>
      <trkpt lat="41.28528" lon="9.24841">
        <ele>2.54</ele>
        <time>2017-10-10T09:36:51Z</time>
      </trkpt>
      <trkpt lat="41.28564" lon="9.24878">
        <ele>3.02</ele>
        <time>2017-10-10T09:37:07Z</time>
      </trkpt>
      <trkpt lat="41.28596" lon="9.24911">
        <ele>3.02</ele>
        <time>2017-10-10T09:37:21Z</time>
      </trkpt>
      <trkpt lat="41.28622" lon="9.24944">
        <ele>2.54</ele>
        <time>2017-10-10T09:37:34Z</time>
      </trkpt>
      <trkpt lat="41.28646" lon="9.24987">
        <ele>2.54</ele>
        <time>2017-10-10T09:37:48Z</time>
      </trkpt>
      <trkpt lat="41.28675" lon="9.25036">
        <ele>1.58</ele>
        <time>2017-10-10T09:38:04Z</time>
      </trkpt>
      <trkpt lat="41.28703" lon="9.25081">
        <ele>1.1</ele>
        <time>2017-10-10T09:38:19Z</time>
      </trkpt>
      <trkpt lat="41.28731" lon="9.25117">
        <ele>1.58</ele>
        <time>2017-10-10T09:38:33Z</time>
      </trkpt>
      <trkpt lat="41.28765" lon="9.2516">
        <ele>1.58</ele>
        <time>2017-10-10T09:38:50Z</time>
      </trkpt>
      <trkpt lat="41.28793" lon="9.25194">
        <ele>2.54</ele>
        <time>2017-10-10T09:39:04Z</time>
      </trkpt>
      <trkpt lat="41.28826" lon="9.2523">
        <ele>2.54</ele>
        <time>2017-10-10T09:39:19Z</time>
      </trkpt>
      <trkpt lat="41.28862" lon="9.25264">
        <ele>2.54</ele>
        <time>2017-10-10T09:39:34Z</time>
      </trkpt>
      <trkpt lat="41.28894" lon="9.25294">
        <ele>3.5</ele>
        <time>2017-10-10T09:39:46Z</time>
      </trkpt>
      <trkpt lat="41.28937" lon="9.25332">
        <ele>3.5</ele>
        <time>2017-10-10T09:40:02Z</time>
      </trkpt>
      <trkpt lat="41.28971" lon="9.25362">
        <ele>3.5</ele>
        <time>2017-10-10T09:40:16Z</time>
      </trkpt>
      <trkpt lat="41.29009" lon="9.25386">
        <ele>3.5</ele>
        <time>2017-10-10T09:40:30Z</time>
      </trkpt>
      <trkpt lat="41.29051" lon="9.2541">
        <ele>3.02</ele>
        <time>2017-10-10T09:40:44Z</time>
      </trkpt>
      <trkpt lat="41.29098" lon="9.25447">
        <ele>3.02</ele>
        <time>2017-10-10T09:41:00Z</time>
      </trkpt>
      <trkpt lat="41.29139" lon="9.25481">
        <ele>2.54</ele>
        <time>2017-10-10T09:41:15Z</time>
      </trkpt>
      <trkpt lat="41.29177" lon="9.25512">
        <ele>3.02</ele>
        <time>2017-10-10T09:41:29Z</time>
      </trkpt>
      <trkpt lat="41.29214" lon="9.25545">
        <ele>2.54</ele>
        <time>2017-10-10T09:41:43Z</time>
      </trkpt>
      <trkpt lat="41.29249" lon="9.25572">
        <ele>2.06</ele>
        <time>2017-10-10T09:41:56Z</time>
      </trkpt>
      <trkpt lat="41.29284" lon="9.25602">
        <ele>3.02</ele>
        <time>2017-10-10T09:42:10Z</time>
      </trkpt>
      <trkpt lat="41.29321" lon="9.25641">
        <ele>1.58</ele>
        <time>2017-10-10T09:42:27Z</time>
      </trkpt>
      <trkpt lat="41.29349" lon="9.25666">
        <ele>2.54</ele>
        <time>2017-10-10T09:42:39Z</time>
      </trkpt>
      <trkpt lat="41.29389" lon="9.25697">
        <ele>2.06</ele>
        <time>2017-10-10T09:42:54Z</time>
      </trkpt>
      <trkpt lat="41.2943" lon="9.25732">
        <ele>2.54</ele>
        <time>2017-10-10T09:43:09Z</time>
      </trkpt>
      <trkpt lat="41.29473" lon="9.25767">
        <ele>2.54</ele>
        <time>2017-10-10T09:43:25Z</time>
      </trkpt>
      <trkpt lat="41.29503" lon="9.25793">
        <ele>3.5</ele>
        <time>2017-10-10T09:43:36Z</time>
      </trkpt>
      <trkpt lat="41.29538" lon="9.25824">
        <ele>3.5</ele>
        <time>2017-10-10T09:43:49Z</time>
      </trkpt>
      <trkpt lat="41.29579" lon="9.2586">
        <ele>2.54</ele>
        <time>2017-10-10T09:44:04Z</time>
      </trkpt>
      <trkpt lat="41.29619" lon="9.25891">
        <ele>2.54</ele>
        <time>2017-10-10T09:44:18Z</time>
      </trkpt>
      <trkpt lat="41.29663" lon="9.25931">
        <ele>2.06</ele>
        <time>2017-10-10T09:44:34Z</time>
      </trkpt>
      <trkpt lat="41.29691" lon="9.25958">
        <ele>1.58</ele>
        <time>2017-10-10T09:44:45Z</time>
      </trkpt>
      <trkpt lat="41.29728" lon="9.25988">
        <ele>2.06</ele>
        <time>2017-10-10T09:44:58Z</time>
      </trkpt>
      <trkpt lat="41.29769" lon="9.26025">
        <ele>1.58</ele>
        <time>2017-10-10T09:45:13Z</time>
      </trkpt>
      <trkpt lat="41.29816" lon="9.26066">
        <ele>1.58</ele>
        <time>2017-10-10T09:45:30Z</time>
      </trkpt>
      <trkpt lat="41.29849" lon="9.26102">
        <ele>1.58</ele>
        <time>2017-10-10T09:45:44Z</time>
      </trkpt>
      <trkpt lat="41.29884" lon="9.26128">
        <ele>2.06</ele>
        <time>2017-10-10T09:45:57Z</time>
      </trkpt>
      <trkpt lat="41.2993" lon="9.26168">
        <ele>2.06</ele>
        <time>2017-10-10T09:46:14Z</time>
      </trkpt>
      <trkpt lat="41.29961" lon="9.2619">
        <ele>2.54</ele>
        <time>2017-10-10T09:46:25Z</time>
      </trkpt>
      <trkpt lat="41.29997" lon="9.2622">
        <ele>2.06</ele>
        <time>2017-10-10T09:46:38Z</time>
      </trkpt>
      <trkpt lat="41.30032" lon="9.26251">
        <ele>2.06</ele>
        <time>2017-10-10T09:46:52Z</time>
      </trkpt>
      <trkpt lat="41.30069" lon="9.26286">
        <ele>2.06</ele>
        <time>2017-10-10T09:47:08Z</time>
      </trkpt>
      <trkpt lat="41.301" lon="9.26318">
        <ele>1.1</ele>
        <time>2017-10-10T09:47:22Z</time>
      </trkpt>
      <trkpt lat="41.3014" lon="9.26352">
        <ele>1.58</ele>
        <time>2017-10-10T09:47:39Z</time>
      </trkpt>
      <trkpt lat="41.3018" lon="9.26385">
        <ele>1.58</ele>
        <time>2017-10-10T09:47:55Z</time>
      </trkpt>
      <trkpt lat="41.30221" lon="9.26418">
        <ele>1.58</ele>
        <time>2017-10-10T09:48:11Z</time>
      </trkpt>
      <trkpt lat="41.30255" lon="9.26447">
        <ele>1.58</ele>
        <time>2017-10-10T09:48:24Z</time>
      </trkpt>
      <trkpt lat="41.30294" lon="9.2648">
        <ele>1.1</ele>
        <time>2017-10-10T09:48:38Z</time>
      </trkpt>
      <trkpt lat="41.3033" lon="9.2651">
        <ele>1.58</ele>
        <time>2017-10-10T09:48:51Z</time>
      </trkpt>
      <trkpt lat="41.30377" lon="9.2655">
        <ele>1.58</ele>
        <time>2017-10-10T09:49:08Z</time>
      </trkpt>
      <trkpt lat="41.30422" lon="9.26587">
        <ele>1.58</ele>
        <time>2017-10-10T09:49:24Z</time>
      </trkpt>
      <trkpt lat="41.3046" lon="9.26621">
        <ele>2.06</ele>
        <time>2017-10-10T09:49:38Z</time>
      </trkpt>
      <trkpt lat="41.30499" lon="9.26653">
        <ele>2.06</ele>
        <time>2017-10-10T09:49:52Z</time>
      </trkpt>
      <trkpt lat="41.30542" lon="9.26689">
        <ele>1.58</ele>
        <time>2017-10-10T09:50:07Z</time>
      </trkpt>
      <trkpt lat="41.30581" lon="9.26722">
        <ele>1.58</ele>
        <time>2017-10-10T09:50:21Z</time>
      </trkpt>
      <trkpt lat="41.30625" lon="9.26756">
        <ele>1.58</ele>
        <time>2017-10-10T09:50:37Z</time>
      </trkpt>
      <trkpt lat="41.30662" lon="9.26789">
        <ele>1.58</ele>
        <time>2017-10-10T09:50:51Z</time>
      </trkpt>
      <trkpt lat="41.30706" lon="9.26824">
        <ele>1.58</ele>
        <time>2017-10-10T09:51:07Z</time>
      </trkpt>
      <trkpt lat="41.30745" lon="9.26855">
        <ele>1.58</ele>
        <time>2017-10-10T09:51:21Z</time>
      </trkpt>
      <trkpt lat="41.30782" lon="9.26887">
        <ele>2.06</ele>
        <time>2017-10-10T09:51:35Z</time>
      </trkpt>
      <trkpt lat="41.30818" lon="9.26919">
        <ele>1.58</ele>
        <time>2017-10-10T09:51:49Z</time>
      </trkpt>
      <trkpt lat="41.30854" lon="9.26947">
        <ele>2.06</ele>
        <time>2017-10-10T09:52:03Z</time>
      </trkpt>
      <trkpt lat="41.3089" lon="9.26974">
        <ele>2.54</ele>
        <time>2017-10-10T09:52:17Z</time>
      </trkpt>
      <trkpt lat="41.30931" lon="9.27012">
        <ele>2.54</ele>
        <time>2017-10-10T09:52:33Z</time>
      </trkpt>
      <trkpt lat="41.30966" lon="9.2704">
        <ele>2.54</ele>
        <time>2017-10-10T09:52:47Z</time>
      </trkpt>
      <trkpt lat="41.31011" lon="9.27077">
        <ele>2.54</ele>
        <time>2017-10-10T09:53:04Z</time>
      </trkpt>
      <trkpt lat="41.31053" lon="9.27111">
        <ele>2.06</ele>
        <time>2017-10-10T09:53:19Z</time>
      </trkpt>
      <trkpt lat="41.31102" lon="9.27153">
        <ele>2.06</ele>
        <time>2017-10-10T09:53:37Z</time>
      </trkpt>
      <trkpt lat="41.31137" lon="9.27182">
        <ele>2.54</ele>
        <time>2017-10-10T09:53:50Z</time>
      </trkpt>
      <trkpt lat="41.31178" lon="9.27219">
        <ele>2.06</ele>
        <time>2017-10-10T09:54:06Z</time>
      </trkpt>
      <trkpt lat="41.31214" lon="9.27247">
        <ele>1.58</ele>
        <time>2017-10-10T09:54:19Z</time>
      </trkpt>
      <trkpt lat="41.31259" lon="9.27279">
        <ele>1.58</ele>
        <time>2017-10-10T09:54:34Z</time>
      </trkpt>
      <trkpt lat="41.31307" lon="9.27317">
        <ele>1.58</ele>
        <time>2017-10-10T09:54:51Z</time>
      </trkpt>
      <trkpt lat="41.31352" lon="9.27353">
        <ele>1.58</ele>
        <time>2017-10-10T09:55:07Z</time>
      </trkpt>
      <trkpt lat="41.31396" lon="9.27393">
        <ele>2.06</ele>
        <time>2017-10-10T09:55:23Z</time>
      </trkpt>
      <trkpt lat="41.31427" lon="9.27419">
        <ele>2.06</ele>
        <time>2017-10-10T09:55:34Z</time>
      </trkpt>
      <trkpt lat="41.31462" lon="9.27445">
        <ele>2.54</ele>
        <time>2017-10-10T09:55:46Z</time>
      </trkpt>
      <trkpt lat="41.31499" lon="9.27476">
        <ele>2.54</ele>
        <time>2017-10-10T09:56:00Z</time>
      </trkpt>
      <trkpt lat="41.31543" lon="9.27507">
        <ele>2.54</ele>
        <time>2017-10-10T09:56:15Z</time>
      </trkpt>
      <trkpt lat="41.31582" lon="9.27537">
        <ele>2.54</ele>
        <time>2017-10-10T09:56:28Z</time>
      </trkpt>
      <trkpt lat="41.31624" lon="9.27571">
        <ele>3.02</ele>
        <time>2017-10-10T09:56:43Z</time>
      </trkpt>
      <trkpt lat="41.31665" lon="9.27606">
        <ele>3.02</ele>
        <time>2017-10-10T09:56:59Z</time>
      </trkpt>
      <trkpt lat="41.31708" lon="9.27639">
        <ele>2.54</ele>
        <time>2017-10-10T09:57:14Z</time>
      </trkpt>
      <trkpt lat="41.31751" lon="9.27671">
        <ele>3.02</ele>
        <time>2017-10-10T09:57:28Z</time>
      </trkpt>
      <trkpt lat="41.31797" lon="9.27706">
        <ele>3.02</ele>
        <time>2017-10-10T09:57:44Z</time>
      </trkpt>
      <trkpt lat="41.31839" lon="9.27741">
        <ele>2.54</ele>
        <time>2017-10-10T09:57:59Z</time>
      </trkpt>
      <trkpt lat="41.3188" lon="9.27773">
        <ele>3.02</ele>
        <time>2017-10-10T09:58:14Z</time>
      </trkpt>
      <trkpt lat="41.31913" lon="9.278">
        <ele>2.54</ele>
        <time>2017-10-10T09:58:26Z</time>
      </trkpt>
      <trkpt lat="41.31952" lon="9.27833">
        <ele>2.54</ele>
        <time>2017-10-10T09:58:40Z</time>
      </trkpt>
      <trkpt lat="41.31988" lon="9.27867">
        <ele>2.54</ele>
        <time>2017-10-10T09:58:55Z</time>
      </trkpt>
      <trkpt lat="41.32015" lon="9.2789">
        <ele>2.54</ele>
        <time>2017-10-10T09:59:09Z</time>
      </trkpt>
      <trkpt lat="41.32036" lon="9.27911">
        <ele>2.06</ele>
        <time>2017-10-10T09:59:22Z</time>
      </trkpt>
      <trkpt lat="41.32043" lon="9.27919">
        <ele>2.06</ele>
        <time>2017-10-10T09:59:27Z</time>
      </trkpt>
      <trkpt lat="41.32066" lon="9.2794">
        <ele>2.54</ele>
        <time>2017-10-10T09:59:42Z</time>
      </trkpt>
      <trkpt lat="41.32078" lon="9.27955">
        <ele>2.06</ele>
        <time>2017-10-10T09:59:51Z</time>
      </trkpt>
      <trkpt lat="41.32084" lon="9.27961">
        <ele>1.58</ele>
        <time>2017-10-10T09:59:55Z</time>
      </trkpt>
      <trkpt lat="41.3211" lon="9.27982">
        <ele>1.1</ele>
        <time>2017-10-10T10:00:14Z</time>
      </trkpt>
      <trkpt lat="41.3213" lon="9.27999">
        <ele>1.1</ele>
        <time>2017-10-10T10:00:30Z</time>
      </trkpt>
      <trkpt lat="41.32131" lon="9.28">
        <ele>1.1</ele>
        <time>2017-10-10T10:00:31Z</time>
      </trkpt>
      <trkpt lat="41.32146" lon="9.28014">
        <ele>0.62</ele>
        <time>2017-10-10T10:00:44Z</time>
      </trkpt>
      <trkpt lat="41.32164" lon="9.2803">
        <ele>1.1</ele>
        <time>2017-10-10T10:00:59Z</time>
      </trkpt>
      <trkpt lat="41.32179" lon="9.28043">
        <ele>1.1</ele>
        <time>2017-10-10T10:01:12Z</time>
      </trkpt>
      <trkpt lat="41.32189" lon="9.28053">
        <ele>0.62</ele>
        <time>2017-10-10T10:01:20Z</time>
      </trkpt>
      <trkpt lat="41.32191" lon="9.28055">
        <ele>0.62</ele>
        <time>2017-10-10T10:01:22Z</time>
      </trkpt>
      <trkpt lat="41.32198" lon="9.28061">
        <ele>1.1</ele>
        <time>2017-10-10T10:01:27Z</time>
      </trkpt>
      <trkpt lat="41.32221" lon="9.28083">
        <ele>0.62</ele>
        <time>2017-10-10T10:01:43Z</time>
      </trkpt>
      <trkpt lat="41.32245" lon="9.28107">
        <ele>0.14</ele>
        <time>2017-10-10T10:01:58Z</time>
      </trkpt>
      <trkpt lat="41.32272" lon="9.28124">
        <ele>0.62</ele>
        <time>2017-10-10T10:02:12Z</time>
      </trkpt>
      <trkpt lat="41.32282" lon="9.28126">
        <ele>0.62</ele>
        <time>2017-10-10T10:02:17Z</time>
      </trkpt>
      <trkpt lat="41.3229" lon="9.2813">
        <ele>0.62</ele>
        <time>2017-10-10T10:02:21Z</time>
      </trkpt>
      <trkpt lat="41.32333" lon="9.2814">
        <ele>0.62</ele>
        <time>2017-10-10T10:02:40Z</time>
      </trkpt>
      <trkpt lat="41.32368" lon="9.2814">
        <ele>2.06</ele>
        <time>2017-10-10T10:02:55Z</time>
      </trkpt>
      <trkpt lat="41.32408" lon="9.28134">
        <ele>2.06</ele>
        <time>2017-10-10T10:03:12Z</time>
      </trkpt>
      <trkpt lat="41.32448" lon="9.28121">
        <ele>0.62</ele>
        <time>2017-10-10T10:03:30Z</time>
      </trkpt>
      <trkpt lat="41.32481" lon="9.28098">
        <ele>1.58</ele>
        <time>2017-10-10T10:03:47Z</time>
      </trkpt>
      <trkpt lat="41.32511" lon="9.28051">
        <ele>2.06</ele>
        <time>2017-10-10T10:04:06Z</time>
      </trkpt>
      <trkpt lat="41.32525" lon="9.28008">
        <ele>2.06</ele>
        <time>2017-10-10T10:04:24Z</time>
      </trkpt>
      <trkpt lat="41.32552" lon="9.27958">
        <ele>2.06</ele>
        <time>2017-10-10T10:04:44Z</time>
      </trkpt>
      <trkpt lat="41.32584" lon="9.27907">
        <ele>3.5</ele>
        <time>2017-10-10T10:05:04Z</time>
      </trkpt>
      <trkpt lat="41.32608" lon="9.27871">
        <ele>3.02</ele>
        <time>2017-10-10T10:05:18Z</time>
      </trkpt>
      <trkpt lat="41.32639" lon="9.27829">
        <ele>2.54</ele>
        <time>2017-10-10T10:05:35Z</time>
      </trkpt>
      <trkpt lat="41.32667" lon="9.2779">
        <ele>2.54</ele>
        <time>2017-10-10T10:05:51Z</time>
      </trkpt>
      <trkpt lat="41.32694" lon="9.27751">
        <ele>2.54</ele>
        <time>2017-10-10T10:06:06Z</time>
      </trkpt>
      <trkpt lat="41.32724" lon="9.27707">
        <ele>2.54</ele>
        <time>2017-10-10T10:06:23Z</time>
      </trkpt>
      <trkpt lat="41.3275" lon="9.27667">
        <ele>1.58</ele>
        <time>2017-10-10T10:06:38Z</time>
      </trkpt>
      <trkpt lat="41.32779" lon="9.27618">
        <ele>-0.34</ele>
        <time>2017-10-10T10:06:56Z</time>
      </trkpt>
      <trkpt lat="41.32813" lon="9.27566">
        <ele>0.14</ele>
        <time>2017-10-10T10:07:16Z</time>
      </trkpt>
      <trkpt lat="41.32843" lon="9.27516">
        <ele>0.62</ele>
        <time>2017-10-10T10:07:35Z</time>
      </trkpt>
      <trkpt lat="41.32874" lon="9.27461">
        <ele>0.62</ele>
        <time>2017-10-10T10:07:55Z</time>
      </trkpt>
      <trkpt lat="41.32915" lon="9.2739">
        <ele>1.1</ele>
        <time>2017-10-10T10:08:20Z</time>
      </trkpt>
      <trkpt lat="41.32948" lon="9.27328">
        <ele>1.58</ele>
        <time>2017-10-10T10:08:41Z</time>
      </trkpt>
      <trkpt lat="41.32985" lon="9.27269">
        <ele>1.1</ele>
        <time>2017-10-10T10:09:03Z</time>
      </trkpt>
      <trkpt lat="41.3302" lon="9.27207">
        <ele>1.1</ele>
        <time>2017-10-10T10:09:25Z</time>
      </trkpt>
      <trkpt lat="41.33057" lon="9.27153">
        <ele>1.1</ele>
        <time>2017-10-10T10:09:46Z</time>
      </trkpt>
      <trkpt lat="41.33087" lon="9.27115">
        <ele>2.06</ele>
        <time>2017-10-10T10:10:03Z</time>
      </trkpt>
      <trkpt lat="41.33116" lon="9.27073">
        <ele>2.06</ele>
        <time>2017-10-10T10:10:20Z</time>
      </trkpt>
      <trkpt lat="41.33147" lon="9.27028">
        <ele>2.06</ele>
        <time>2017-10-10T10:10:38Z</time>
      </trkpt>
      <trkpt lat="41.33177" lon="9.26987">
        <ele>2.06</ele>
        <time>2017-10-10T10:10:55Z</time>
      </trkpt>
      <trkpt lat="41.33204" lon="9.26945">
        <ele>1.58</ele>
        <time>2017-10-10T10:11:11Z</time>
      </trkpt>
      <trkpt lat="41.3323" lon="9.26901">
        <ele>1.58</ele>
        <time>2017-10-10T10:11:27Z</time>
      </trkpt>
      <trkpt lat="41.33259" lon="9.26852">
        <ele>1.1</ele>
        <time>2017-10-10T10:11:44Z</time>
      </trkpt>
      <trkpt lat="41.33282" lon="9.26807">
        <ele>1.58</ele>
        <time>2017-10-10T10:11:59Z</time>
      </trkpt>
      <trkpt lat="41.33309" lon="9.26769">
        <ele>1.58</ele>
        <time>2017-10-10T10:12:14Z</time>
      </trkpt>
      <trkpt lat="41.33337" lon="9.26728">
        <ele>2.06</ele>
        <time>2017-10-10T10:12:29Z</time>
      </trkpt>
      <trkpt lat="41.33365" lon="9.26685">
        <ele>2.54</ele>
        <time>2017-10-10T10:12:45Z</time>
      </trkpt>
      <trkpt lat="41.33392" lon="9.26634">
        <ele>2.06</ele>
        <time>2017-10-10T10:13:04Z</time>
      </trkpt>
      <trkpt lat="41.33385" lon="9.26617">
        <ele>1.58</ele>
        <time>2017-10-10T10:13:13Z</time>
      </trkpt>
      <trkpt lat="41.33365" lon="9.26606">
        <ele>1.58</ele>
        <time>2017-10-10T10:13:30Z</time>
      </trkpt>
      <trkpt lat="41.33344" lon="9.26595">
        <ele>1.1</ele>
        <time>2017-10-10T10:13:47Z</time>
      </trkpt>
      <trkpt lat="41.33323" lon="9.26575">
        <ele>1.58</ele>
        <time>2017-10-10T10:14:02Z</time>
      </trkpt>
      <trkpt lat="41.33299" lon="9.26547">
        <ele>2.06</ele>
        <time>2017-10-10T10:14:19Z</time>
      </trkpt>
      <trkpt lat="41.33268" lon="9.26519">
        <ele>2.06</ele>
        <time>2017-10-10T10:14:40Z</time>
      </trkpt>
      <trkpt lat="41.33238" lon="9.26498">
        <ele>1.1</ele>
        <time>2017-10-10T10:14:56Z</time>
      </trkpt>
      <trkpt lat="41.3321" lon="9.26477">
        <ele>1.58</ele>
        <time>2017-10-10T10:15:11Z</time>
      </trkpt>
      <trkpt lat="41.33184" lon="9.26458">
        <ele>1.58</ele>
        <time>2017-10-10T10:15:24Z</time>
      </trkpt>
      <trkpt lat="41.3315" lon="9.26434">
        <ele>2.06</ele>
        <time>2017-10-10T10:15:39Z</time>
      </trkpt>
      <trkpt lat="41.33121" lon="9.26412">
        <ele>1.58</ele>
        <time>2017-10-10T10:15:52Z</time>
      </trkpt>
      <trkpt lat="41.33083" lon="9.26387">
        <ele>0.62</ele>
        <time>2017-10-10T10:16:09Z</time>
      </trkpt>
      <trkpt lat="41.33052" lon="9.26367">
        <ele>0.62</ele>
        <time>2017-10-10T10:16:23Z</time>
      </trkpt>
      <trkpt lat="41.33019" lon="9.26345">
        <ele>0.14</ele>
        <time>2017-10-10T10:16:38Z</time>
      </trkpt>
      <trkpt lat="41.32982" lon="9.26321">
        <ele>0.14</ele>
        <time>2017-10-10T10:16:55Z</time>
      </trkpt>
      <trkpt lat="41.32953" lon="9.26304">
        <ele>0.14</ele>
        <time>2017-10-10T10:17:09Z</time>
      </trkpt>
      <trkpt lat="41.32927" lon="9.26289">
        <ele>0.14</ele>
        <time>2017-10-10T10:17:22Z</time>
      </trkpt>
      <trkpt lat="41.32898" lon="9.26271">
        <ele>0.14</ele>
        <time>2017-10-10T10:17:36Z</time>
      </trkpt>
      <trkpt lat="41.32862" lon="9.26248">
        <ele>0.14</ele>
        <time>2017-10-10T10:17:53Z</time>
      </trkpt>
      <trkpt lat="41.32822" lon="9.26219">
        <ele>0.62</ele>
        <time>2017-10-10T10:18:11Z</time>
      </trkpt>
      <trkpt lat="41.32793" lon="9.26202">
        <ele>1.1</ele>
        <time>2017-10-10T10:18:24Z</time>
      </trkpt>
      <trkpt lat="41.32763" lon="9.26182">
        <ele>1.58</ele>
        <time>2017-10-10T10:18:38Z</time>
      </trkpt>
      <trkpt lat="41.3273" lon="9.26157">
        <ele>1.58</ele>
        <time>2017-10-10T10:18:53Z</time>
      </trkpt>
      <trkpt lat="41.32698" lon="9.26135">
        <ele>1.58</ele>
        <time>2017-10-10T10:19:07Z</time>
      </trkpt>
      <trkpt lat="41.3266" lon="9.26106">
        <ele>1.58</ele>
        <time>2017-10-10T10:19:23Z</time>
      </trkpt>
      <trkpt lat="41.32622" lon="9.26077">
        <ele>2.06</ele>
        <time>2017-10-10T10:19:39Z</time>
      </trkpt>
      <trkpt lat="41.3259" lon="9.26053">
        <ele>2.54</ele>
        <time>2017-10-10T10:19:52Z</time>
      </trkpt>
      <trkpt lat="41.3255" lon="9.26022">
        <ele>1.58</ele>
        <time>2017-10-10T10:20:08Z</time>
      </trkpt>
      <trkpt lat="41.3251" lon="9.25989">
        <ele>1.58</ele>
        <time>2017-10-10T10:20:24Z</time>
      </trkpt>
      <trkpt lat="41.32468" lon="9.25958">
        <ele>1.58</ele>
        <time>2017-10-10T10:20:40Z</time>
      </trkpt>
      <trkpt lat="41.32432" lon="9.2593">
        <ele>1.58</ele>
        <time>2017-10-10T10:20:54Z</time>
      </trkpt>
      <trkpt lat="41.32401" lon="9.25906">
        <ele>1.58</ele>
        <time>2017-10-10T10:21:06Z</time>
      </trkpt>
      <trkpt lat="41.32358" lon="9.25873">
        <ele>1.58</ele>
        <time>2017-10-10T10:21:23Z</time>
      </trkpt>
      <trkpt lat="41.32329" lon="9.25848">
        <ele>1.58</ele>
        <time>2017-10-10T10:21:35Z</time>
      </trkpt>
      <trkpt lat="41.32298" lon="9.25823">
        <ele>1.58</ele>
        <time>2017-10-10T10:21:48Z</time>
      </trkpt>
      <trkpt lat="41.32267" lon="9.25798">
        <ele>2.06</ele>
        <time>2017-10-10T10:22:01Z</time>
      </trkpt>
      <trkpt lat="41.3223" lon="9.2577">
        <ele>2.54</ele>
        <time>2017-10-10T10:22:16Z</time>
      </trkpt>
      <trkpt lat="41.32196" lon="9.25743">
        <ele>2.54</ele>
        <time>2017-10-10T10:22:32Z</time>
      </trkpt>
      <trkpt lat="41.32166" lon="9.25718">
        <ele>2.54</ele>
        <time>2017-10-10T10:22:47Z</time>
      </trkpt>
      <trkpt lat="41.32141" lon="9.257">
        <ele>3.02</ele>
        <time>2017-10-10T10:23:00Z</time>
      </trkpt>
      <trkpt lat="41.32113" lon="9.25682">
        <ele>2.06</ele>
        <time>2017-10-10T10:23:15Z</time>
      </trkpt>
      <trkpt lat="41.3211" lon="9.25674">
        <ele>1.1</ele>
        <time>2017-10-10T10:23:20Z</time>
      </trkpt>
      <trkpt lat="41.32126" lon="9.25664">
        <ele>1.1</ele>
        <time>2017-10-10T10:23:32Z</time>
      </trkpt>
      <trkpt lat="41.32161" lon="9.25639">
        <ele>2.06</ele>
        <time>2017-10-10T10:23:48Z</time>
      </trkpt>
      <trkpt lat="41.32194" lon="9.25616">
        <ele>2.54</ele>
        <time>2017-10-10T10:24:02Z</time>
      </trkpt>
      <trkpt lat="41.32219" lon="9.25599">
        <ele>2.06</ele>
        <time>2017-10-10T10:24:14Z</time>
      </trkpt>
      <trkpt lat="41.32248" lon="9.25581">
        <ele>2.06</ele>
        <time>2017-10-10T10:24:28Z</time>
      </trkpt>
      <trkpt lat="41.32282" lon="9.25564">
        <ele>1.58</ele>
        <time>2017-10-10T10:24:45Z</time>
      </trkpt>
      <trkpt lat="41.32314" lon="9.25546">
        <ele>1.58</ele>
        <time>2017-10-10T10:25:03Z</time>
      </trkpt>
      <trkpt lat="41.32342" lon="9.25532">
        <ele>1.58</ele>
        <time>2017-10-10T10:25:19Z</time>
      </trkpt>
      <trkpt lat="41.32367" lon="9.25522">
        <ele>1.58</ele>
        <time>2017-10-10T10:25:33Z</time>
      </trkpt>
      <trkpt lat="41.32394" lon="9.25508">
        <ele>1.1</ele>
        <time>2017-10-10T10:25:47Z</time>
      </trkpt>
      <trkpt lat="41.32431" lon="9.25486">
        <ele>1.1</ele>
        <time>2017-10-10T10:26:04Z</time>
      </trkpt>
      <trkpt lat="41.32464" lon="9.25464">
        <ele>1.1</ele>
        <time>2017-10-10T10:26:18Z</time>
      </trkpt>
      <trkpt lat="41.32494" lon="9.25445">
        <ele>0.14</ele>
        <time>2017-10-10T10:26:31Z</time>
      </trkpt>
      <trkpt lat="41.32525" lon="9.25437">
        <ele>0.62</ele>
        <time>2017-10-10T10:26:44Z</time>
      </trkpt>
      <trkpt lat="41.32557" lon="9.25429">
        <ele>1.1</ele>
        <time>2017-10-10T10:26:57Z</time>
      </trkpt>
      <trkpt lat="41.32595" lon="9.25415">
        <ele>1.58</ele>
        <time>2017-10-10T10:27:13Z</time>
      </trkpt>
      <trkpt lat="41.32631" lon="9.25401">
        <ele>1.58</ele>
        <time>2017-10-10T10:27:30Z</time>
      </trkpt>
      <trkpt lat="41.32668" lon="9.25383">
        <ele>1.1</ele>
        <time>2017-10-10T10:27:45Z</time>
      </trkpt>
      <trkpt lat="41.32708" lon="9.25362">
        <ele>1.1</ele>
        <time>2017-10-10T10:28:00Z</time>
      </trkpt>
      <trkpt lat="41.32747" lon="9.2534">
        <ele>1.58</ele>
        <time>2017-10-10T10:28:15Z</time>
      </trkpt>
      <trkpt lat="41.32796" lon="9.25321">
        <ele>0.62</ele>
        <time>2017-10-10T10:28:34Z</time>
      </trkpt>
      <trkpt lat="41.32836" lon="9.253">
        <ele>0.62</ele>
        <time>2017-10-10T10:28:49Z</time>
      </trkpt>
      <trkpt lat="41.32867" lon="9.25284">
        <ele>1.1</ele>
        <time>2017-10-10T10:29:01Z</time>
      </trkpt>
      <trkpt lat="41.32913" lon="9.25258">
        <ele>0.14</ele>
        <time>2017-10-10T10:29:18Z</time>
      </trkpt>
      <trkpt lat="41.32942" lon="9.25239">
        <ele>0.14</ele>
        <time>2017-10-10T10:29:32Z</time>
      </trkpt>
      <trkpt lat="41.32967" lon="9.25226">
        <ele>-0.34</ele>
        <time>2017-10-10T10:29:47Z</time>
      </trkpt>
      <trkpt lat="41.32993" lon="9.25215">
        <ele>-0.82</ele>
        <time>2017-10-10T10:30:03Z</time>
      </trkpt>
      <trkpt lat="41.33015" lon="9.25201">
        <ele>-0.34</ele>
        <time>2017-10-10T10:30:18Z</time>
      </trkpt>
      <trkpt lat="41.33035" lon="9.25192">
        <ele>0.14</ele>
        <time>2017-10-10T10:30:30Z</time>
      </trkpt>
      <trkpt lat="41.33062" lon="9.2518">
        <ele>-0.34</ele>
        <time>2017-10-10T10:30:46Z</time>
      </trkpt>
      <trkpt lat="41.33081" lon="9.25167">
        <ele>0.14</ele>
        <time>2017-10-10T10:30:58Z</time>
      </trkpt>
      <trkpt lat="41.33087" lon="9.25145">
        <ele>0.14</ele>
        <time>2017-10-10T10:31:12Z</time>
      </trkpt>
      <trkpt lat="41.33091" lon="9.25119">
        <ele>0.14</ele>
        <time>2017-10-10T10:31:33Z</time>
      </trkpt>
      <trkpt lat="41.33099" lon="9.25101">
        <ele>-0.34</ele>
        <time>2017-10-10T10:31:49Z</time>
      </trkpt>
      <trkpt lat="41.33101" lon="9.25101">
        <ele>0.14</ele>
        <time>2017-10-10T10:31:51Z</time>
      </trkpt>
      <trkpt lat="41.33107" lon="9.25103">
        <ele>1.1</ele>
        <time>2017-10-10T10:31:57Z</time>
      </trkpt>
      <trkpt lat="41.33113" lon="9.25105">
        <ele>1.58</ele>
        <time>2017-10-10T10:32:02Z</time>
      </trkpt>
      <trkpt lat="41.33124" lon="9.25106">
        <ele>0.62</ele>
        <time>2017-10-10T10:32:11Z</time>
      </trkpt>
      <trkpt lat="41.33134" lon="9.25106">
        <ele>0.62</ele>
        <time>2017-10-10T10:32:20Z</time>
      </trkpt>
      <trkpt lat="41.33151" lon="9.25105">
        <ele>1.1</ele>
        <time>2017-10-10T10:32:34Z</time>
      </trkpt>
      <trkpt lat="41.33168" lon="9.25102">
        <ele>0.14</ele>
        <time>2017-10-10T10:32:48Z</time>
      </trkpt>
      <trkpt lat="41.33173" lon="9.25101">
        <ele>0.62</ele>
        <time>2017-10-10T10:32:52Z</time>
      </trkpt>
      <trkpt lat="41.33192" lon="9.25095">
        <ele>1.1</ele>
        <time>2017-10-10T10:33:08Z</time>
      </trkpt>
      <trkpt lat="41.33211" lon="9.25091">
        <ele>0.62</ele>
        <time>2017-10-10T10:33:23Z</time>
      </trkpt>
      <trkpt lat="41.33227" lon="9.25086">
        <ele>0.62</ele>
        <time>2017-10-10T10:33:36Z</time>
      </trkpt>
      <trkpt lat="41.33235" lon="9.25084">
        <ele>0.62</ele>
        <time>2017-10-10T10:33:42Z</time>
      </trkpt>
      <trkpt lat="41.33255" lon="9.25078">
        <ele>1.58</ele>
        <time>2017-10-10T10:33:58Z</time>
      </trkpt>
      <trkpt lat="41.33274" lon="9.25072">
        <ele>0.62</ele>
        <time>2017-10-10T10:34:13Z</time>
      </trkpt>
      <trkpt lat="41.33293" lon="9.25066">
        <ele>0.62</ele>
        <time>2017-10-10T10:34:27Z</time>
      </trkpt>
      <trkpt lat="41.33315" lon="9.25059">
        <ele>0.14</ele>
        <time>2017-10-10T10:34:41Z</time>
      </trkpt>
      <trkpt lat="41.33317" lon="9.25059">
        <ele>0.14</ele>
        <time>2017-10-10T10:34:42Z</time>
      </trkpt>
      <trkpt lat="41.33328" lon="9.25054">
        <ele>-0.34</ele>
        <time>2017-10-10T10:34:49Z</time>
      </trkpt>
      <trkpt lat="41.33359" lon="9.25043">
        <ele>-0.82</ele>
        <time>2017-10-10T10:35:07Z</time>
      </trkpt>
      <trkpt lat="41.33388" lon="9.25029">
        <ele>-0.82</ele>
        <time>2017-10-10T10:35:23Z</time>
      </trkpt>
      <trkpt lat="41.33415" lon="9.2502">
        <ele>-1.3</ele>
        <time>2017-10-10T10:35:38Z</time>
      </trkpt>
      <trkpt lat="41.33419" lon="9.25017">
        <ele>-1.3</ele>
        <time>2017-10-10T10:35:41Z</time>
      </trkpt>
      <trkpt lat="41.33426" lon="9.25016">
        <ele>-0.82</ele>
        <time>2017-10-10T10:35:45Z</time>
      </trkpt>
      <trkpt lat="41.33454" lon="9.25026">
        <ele>-0.34</ele>
        <time>2017-10-10T10:36:01Z</time>
      </trkpt>
      <trkpt lat="41.33477" lon="9.25033">
        <ele>0.14</ele>
        <time>2017-10-10T10:36:13Z</time>
      </trkpt>
      <trkpt lat="41.33486" lon="9.25036">
        <ele>0.14</ele>
        <time>2017-10-10T10:36:18Z</time>
      </trkpt>
      <trkpt lat="41.33516" lon="9.25056">
        <ele>1.58</ele>
        <time>2017-10-10T10:36:34Z</time>
      </trkpt>
      <trkpt lat="41.33543" lon="9.25075">
        <ele>1.58</ele>
        <time>2017-10-10T10:36:49Z</time>
      </trkpt>
      <trkpt lat="41.33583" lon="9.25102">
        <ele>2.06</ele>
        <time>2017-10-10T10:37:11Z</time>
      </trkpt>
      <trkpt lat="41.33617" lon="9.25124">
        <ele>2.06</ele>
        <time>2017-10-10T10:37:29Z</time>
      </trkpt>
      <trkpt lat="41.33651" lon="9.2514">
        <ele>2.06</ele>
        <time>2017-10-10T10:37:46Z</time>
      </trkpt>
      <trkpt lat="41.33684" lon="9.25158">
        <ele>1.58</ele>
        <time>2017-10-10T10:38:03Z</time>
      </trkpt>
      <trkpt lat="41.33716" lon="9.25173">
        <ele>1.1</ele>
        <time>2017-10-10T10:38:20Z</time>
      </trkpt>
      <trkpt lat="41.33746" lon="9.25186">
        <ele>1.58</ele>
        <time>2017-10-10T10:38:40Z</time>
      </trkpt>
      <trkpt lat="41.33768" lon="9.25195">
        <ele>1.58</ele>
        <time>2017-10-10T10:38:57Z</time>
      </trkpt>
      <trkpt lat="41.33794" lon="9.25206">
        <ele>2.54</ele>
        <time>2017-10-10T10:39:18Z</time>
      </trkpt>
      <trkpt lat="41.3382" lon="9.2521">
        <ele>2.06</ele>
        <time>2017-10-10T10:39:40Z</time>
      </trkpt>
      <trkpt lat="41.33838" lon="9.25202">
        <ele>1.1</ele>
        <time>2017-10-10T10:39:58Z</time>
      </trkpt>
      <trkpt lat="41.33853" lon="9.25185">
        <ele>1.1</ele>
        <time>2017-10-10T10:40:18Z</time>
      </trkpt>
      <trkpt lat="41.33862" lon="9.25159">
        <ele>0.14</ele>
        <time>2017-10-10T10:40:44Z</time>
      </trkpt>
      <trkpt lat="41.33864" lon="9.25147">
        <ele>2.06</ele>
        <time>2017-10-10T10:41:08Z</time>
      </trkpt>
      <trkpt lat="41.33869" lon="9.25132">
        <ele>2.54</ele>
        <time>2017-10-10T10:41:35Z</time>
      </trkpt>
      <trkpt lat="41.33867" lon="9.25128">
        <ele>2.06</ele>
        <time>2017-10-10T10:42:02Z</time>
      </trkpt>
      <trkpt lat="41.33866" lon="9.2513">
        <ele>1.1</ele>
        <time>2017-10-10T10:42:25Z</time>
      </trkpt>
      <trkpt lat="41.33862" lon="9.25145">
        <ele>0.14</ele>
        <time>2017-10-10T10:42:56Z</time>
      </trkpt>
      <trkpt lat="41.33857" lon="9.25156">
        <ele>-0.82</ele>
        <time>2017-10-10T10:43:20Z</time>
      </trkpt>
      <trkpt lat="41.33853" lon="9.25169">
        <ele>-0.82</ele>
        <time>2017-10-10T10:43:42Z</time>
      </trkpt>
      <trkpt lat="41.33855" lon="9.25169">
        <ele>1.1</ele>
        <time>2017-10-10T10:44:04Z</time>
      </trkpt>
      <trkpt lat="41.33867" lon="9.25179">
        <ele>1.1</ele>
        <time>2017-10-10T10:44:23Z</time>
      </trkpt>
      <trkpt lat="41.33881" lon="9.25178">
        <ele>1.1</ele>
        <time>2017-10-10T10:44:43Z</time>
      </trkpt>
      <trkpt lat="41.33895" lon="9.25177">
        <ele>0.14</ele>
        <time>2017-10-10T10:45:07Z</time>
      </trkpt>
      <trkpt lat="41.33901" lon="9.25163">
        <ele>0.62</ele>
        <time>2017-10-10T10:45:31Z</time>
      </trkpt>
      <trkpt lat="41.33894" lon="9.25154">
        <ele>2.06</ele>
        <time>2017-10-10T10:45:57Z</time>
      </trkpt>
      <trkpt lat="41.33891" lon="9.25148">
        <ele>2.54</ele>
        <time>2017-10-10T10:46:26Z</time>
      </trkpt>
      <trkpt lat="41.3389" lon="9.25146">
        <ele>2.54</ele>
        <time>2017-10-10T10:46:54Z</time>
      </trkpt>
      <trkpt lat="41.3389" lon="9.2515">
        <ele>2.06</ele>
        <time>2017-10-10T10:47:19Z</time>
      </trkpt>
      <trkpt lat="41.33891" lon="9.25169">
        <ele>1.1</ele>
        <time>2017-10-10T10:47:51Z</time>
      </trkpt>
      <trkpt lat="41.33893" lon="9.25176">
        <ele>0.62</ele>
        <time>2017-10-10T10:48:20Z</time>
      </trkpt>
      <trkpt lat="41.33894" lon="9.25176">
        <ele>2.06</ele>
        <time>2017-10-10T10:48:44Z</time>
      </trkpt>
      <trkpt lat="41.33894" lon="9.25177">
        <ele>2.06</ele>
        <time>2017-10-10T10:49:13Z</time>
      </trkpt>
      <trkpt lat="41.33894" lon="9.25177">
        <ele>2.06</ele>
        <time>2017-10-10T10:49:38Z</time>
      </trkpt>
      <trkpt lat="41.33893" lon="9.25178">
        <ele>2.06</ele>
        <time>2017-10-10T10:50:01Z</time>
      </trkpt>
      <trkpt lat="41.33892" lon="9.25178">
        <ele>1.58</ele>
        <time>2017-10-10T10:50:20Z</time>
      </trkpt>
      <trkpt lat="41.33892" lon="9.25177">
        <ele>1.58</ele>
        <time>2017-10-10T10:50:50Z</time>
      </trkpt>
      <trkpt lat="41.33893" lon="9.25177">
        <ele>1.58</ele>
        <time>2017-10-10T10:51:13Z</time>
      </trkpt>
      <trkpt lat="41.33893" lon="9.25176">
        <ele>1.58</ele>
        <time>2017-10-10T10:51:42Z</time>
      </trkpt>
      <trkpt lat="41.33892" lon="9.25176">
        <ele>1.1</ele>
        <time>2017-10-10T10:52:05Z</time>
      </trkpt>
      <trkpt lat="41.3389" lon="9.25178">
        <ele>1.1</ele>
        <time>2017-10-10T10:52:30Z</time>
      </trkpt>
      <trkpt lat="41.3389" lon="9.25176">
        <ele>1.1</ele>
        <time>2017-10-10T10:52:57Z</time>
      </trkpt>
      <trkpt lat="41.33892" lon="9.25175">
        <ele>0.62</ele>
        <time>2017-10-10T10:53:23Z</time>
      </trkpt>
      <trkpt lat="41.33895" lon="9.25174">
        <ele>0.14</ele>
        <time>2017-10-10T10:53:45Z</time>
      </trkpt>
      <trkpt lat="41.33896" lon="9.25174">
        <ele>0.62</ele>
        <time>2017-10-10T10:54:13Z</time>
      </trkpt>
      <trkpt lat="41.33895" lon="9.25175">
        <ele>0.62</ele>
        <time>2017-10-10T10:54:35Z</time>
      </trkpt>
      <trkpt lat="41.33892" lon="9.25177">
        <ele>0.62</ele>
        <time>2017-10-10T10:55:00Z</time>
      </trkpt>
      <trkpt lat="41.33893" lon="9.25175">
        <ele>0.14</ele>
        <time>2017-10-10T10:55:27Z</time>
      </trkpt>
      <trkpt lat="41.33896" lon="9.25174">
        <ele>-0.34</ele>
        <time>2017-10-10T10:55:48Z</time>
      </trkpt>
      <trkpt lat="41.33898" lon="9.25173">
        <ele>-0.82</ele>
        <time>2017-10-10T10:56:09Z</time>
      </trkpt>
      <trkpt lat="41.33897" lon="9.25173">
        <ele>-0.82</ele>
        <time>2017-10-10T10:56:33Z</time>
      </trkpt>
      <trkpt lat="41.33896" lon="9.25175">
        <ele>-0.34</ele>
        <time>2017-10-10T10:56:58Z</time>
      </trkpt>
      <trkpt lat="41.33893" lon="9.25177">
        <ele>0.14</ele>
        <time>2017-10-10T10:57:23Z</time>
      </trkpt>
      <trkpt lat="41.33893" lon="9.25177">
        <ele>0.62</ele>
        <time>2017-10-10T10:57:45Z</time>
      </trkpt>
      <trkpt lat="41.33895" lon="9.25176">
        <ele>1.1</ele>
        <time>2017-10-10T10:58:13Z</time>
      </trkpt>
      <trkpt lat="41.33897" lon="9.25174">
        <ele>0.62</ele>
        <time>2017-10-10T10:58:35Z</time>
      </trkpt>
      <trkpt lat="41.33896" lon="9.25174">
        <ele>0.62</ele>
        <time>2017-10-10T10:58:59Z</time>
      </trkpt>
      <trkpt lat="41.33894" lon="9.25176">
        <ele>0.14</ele>
        <time>2017-10-10T10:59:20Z</time>
      </trkpt>
      <trkpt lat="41.33895" lon="9.25175">
        <ele>0.14</ele>
        <time>2017-10-10T10:59:52Z</time>
      </trkpt>
      <trkpt lat="41.33898" lon="9.25174">
        <ele>-0.82</ele>
        <time>2017-10-10T11:00:22Z</time>
      </trkpt>
      <trkpt lat="41.33898" lon="9.25173">
        <ele>-1.79</ele>
        <time>2017-10-10T11:00:48Z</time>
      </trkpt>
      <trkpt lat="41.33897" lon="9.25174">
        <ele>-1.3</ele>
        <time>2017-10-10T11:01:09Z</time>
      </trkpt>
      <trkpt lat="41.33894" lon="9.25176">
        <ele>-1.3</ele>
        <time>2017-10-10T11:01:32Z</time>
      </trkpt>
      <trkpt lat="41.3389" lon="9.25178">
        <ele>0.62</ele>
        <time>2017-10-10T11:01:58Z</time>
      </trkpt>
      <trkpt lat="41.33891" lon="9.25177">
        <ele>0.14</ele>
        <time>2017-10-10T11:02:24Z</time>
      </trkpt>
      <trkpt lat="41.33893" lon="9.25176">
        <ele>0.62</ele>
        <time>2017-10-10T11:02:47Z</time>
      </trkpt>
      <trkpt lat="41.33894" lon="9.25176">
        <ele>0.62</ele>
        <time>2017-10-10T11:03:12Z</time>
      </trkpt>
      <trkpt lat="41.33894" lon="9.25176">
        <ele>0.14</ele>
        <time>2017-10-10T11:03:39Z</time>
      </trkpt>
      <trkpt lat="41.33892" lon="9.25177">
        <ele>0.62</ele>
        <time>2017-10-10T11:03:57Z</time>
      </trkpt>
      <trkpt lat="41.33891" lon="9.25178">
        <ele>1.58</ele>
        <time>2017-10-10T11:04:19Z</time>
      </trkpt>
      <trkpt lat="41.33891" lon="9.25177">
        <ele>1.1</ele>
        <time>2017-10-10T11:04:40Z</time>
      </trkpt>
      <trkpt lat="41.33894" lon="9.25175">
        <ele>1.1</ele>
        <time>2017-10-10T11:05:08Z</time>
      </trkpt>
      <trkpt lat="41.33895" lon="9.25174">
        <ele>-0.34</ele>
        <time>2017-10-10T11:05:31Z</time>
      </trkpt>
      <trkpt lat="41.33895" lon="9.25175">
        <ele>0.14</ele>
        <time>2017-10-10T11:05:52Z</time>
      </trkpt>
      <trkpt lat="41.33892" lon="9.25177">
        <ele>0.14</ele>
        <time>2017-10-10T11:06:15Z</time>
      </trkpt>
      <trkpt lat="41.33891" lon="9.25178">
        <ele>1.1</ele>
        <time>2017-10-10T11:06:37Z</time>
      </trkpt>
      <trkpt lat="41.33894" lon="9.25176">
        <ele>0.62</ele>
        <time>2017-10-10T11:07:04Z</time>
      </trkpt>
      <trkpt lat="41.33897" lon="9.25174">
        <ele>0.62</ele>
        <time>2017-10-10T11:07:27Z</time>
      </trkpt>
      <trkpt lat="41.33899" lon="9.25172">
        <ele>0.14</ele>
        <time>2017-10-10T11:07:49Z</time>
      </trkpt>
      <trkpt lat="41.33898" lon="9.25174">
        <ele>-0.34</ele>
        <time>2017-10-10T11:08:11Z</time>
      </trkpt>
      <trkpt lat="41.33897" lon="9.25175">
        <ele>-0.34</ele>
        <time>2017-10-10T11:08:33Z</time>
      </trkpt>
      <trkpt lat="41.33895" lon="9.25177">
        <ele>0.14</ele>
        <time>2017-10-10T11:08:56Z</time>
      </trkpt>
      <trkpt lat="41.33897" lon="9.25174">
        <ele>0.14</ele>
        <time>2017-10-10T11:09:25Z</time>
      </trkpt>
      <trkpt lat="41.339" lon="9.25172">
        <ele>-0.34</ele>
        <time>2017-10-10T11:09:47Z</time>
      </trkpt>
      <trkpt lat="41.339" lon="9.25172">
        <ele>-1.3</ele>
        <time>2017-10-10T11:10:18Z</time>
      </trkpt>
      <trkpt lat="41.33897" lon="9.25174">
        <ele>-1.3</ele>
        <time>2017-10-10T11:10:45Z</time>
      </trkpt>
      <trkpt lat="41.33894" lon="9.25176">
        <ele>-1.79</ele>
        <time>2017-10-10T11:11:05Z</time>
      </trkpt>
      <trkpt lat="41.33893" lon="9.25178">
        <ele>-1.3</ele>
        <time>2017-10-10T11:11:29Z</time>
      </trkpt>
      <trkpt lat="41.33893" lon="9.25177">
        <ele>-1.3</ele>
        <time>2017-10-10T11:11:37Z</time>
      </trkpt>
    </trkseg>
  </trk>
  <trk>
    <name><![CDATA[Tracé actuel: 10 OCT 2017 16:15]]></name>
    <trkseg>
      <trkpt lat="41.33886" lon="9.25173">
        <ele>17.44</ele>
        <time>2017-10-10T15:15:10Z</time>
      </trkpt>
      <trkpt lat="41.33889" lon="9.25179">
        <ele>2.06</ele>
        <time>2017-10-10T15:15:41Z</time>
      </trkpt>
      <trkpt lat="41.33889" lon="9.25176">
        <ele>-0.82</ele>
        <time>2017-10-10T15:15:58Z</time>
      </trkpt>
      <trkpt lat="41.33898" lon="9.25168">
        <ele>-0.34</ele>
        <time>2017-10-10T15:16:27Z</time>
      </trkpt>
      <trkpt lat="41.33902" lon="9.25165">
        <ele>-0.34</ele>
        <time>2017-10-10T15:16:59Z</time>
      </trkpt>
      <trkpt lat="41.33903" lon="9.25166">
        <ele>-0.82</ele>
        <time>2017-10-10T15:17:22Z</time>
      </trkpt>
      <trkpt lat="41.33902" lon="9.25169">
        <ele>-0.82</ele>
        <time>2017-10-10T15:17:51Z</time>
      </trkpt>
      <trkpt lat="41.33892" lon="9.25173">
        <ele>-1.3</ele>
        <time>2017-10-10T15:18:20Z</time>
      </trkpt>
      <trkpt lat="41.33884" lon="9.25176">
        <ele>-0.82</ele>
        <time>2017-10-10T15:18:49Z</time>
      </trkpt>
      <trkpt lat="41.3389" lon="9.25177">
        <ele>0.14</ele>
        <time>2017-10-10T15:19:20Z</time>
      </trkpt>
      <trkpt lat="41.33898" lon="9.25175">
        <ele>0.14</ele>
        <time>2017-10-10T15:19:53Z</time>
      </trkpt>
      <trkpt lat="41.33898" lon="9.25173">
        <ele>0.14</ele>
        <time>2017-10-10T15:20:17Z</time>
      </trkpt>
      <trkpt lat="41.33891" lon="9.25175">
        <ele>-0.82</ele>
        <time>2017-10-10T15:20:45Z</time>
      </trkpt>
      <trkpt lat="41.33885" lon="9.25177">
        <ele>-0.34</ele>
        <time>2017-10-10T15:21:16Z</time>
      </trkpt>
      <trkpt lat="41.33894" lon="9.25171">
        <ele>-0.82</ele>
        <time>2017-10-10T15:21:44Z</time>
      </trkpt>
      <trkpt lat="41.33898" lon="9.25162">
        <ele>-0.82</ele>
        <time>2017-10-10T15:22:10Z</time>
      </trkpt>
      <trkpt lat="41.33887" lon="9.25164">
        <ele>-0.34</ele>
        <time>2017-10-10T15:22:38Z</time>
      </trkpt>
      <trkpt lat="41.33883" lon="9.25146">
        <ele>-0.34</ele>
        <time>2017-10-10T15:23:06Z</time>
      </trkpt>
      <trkpt lat="41.33883" lon="9.25141">
        <ele>-0.82</ele>
        <time>2017-10-10T15:23:30Z</time>
      </trkpt>
      <trkpt lat="41.3388" lon="9.25153">
        <ele>-1.3</ele>
        <time>2017-10-10T15:23:56Z</time>
      </trkpt>
      <trkpt lat="41.33883" lon="9.25155">
        <ele>-0.82</ele>
        <time>2017-10-10T15:24:20Z</time>
      </trkpt>
      <trkpt lat="41.33891" lon="9.25139">
        <ele>-0.34</ele>
        <time>2017-10-10T15:24:44Z</time>
      </trkpt>
      <trkpt lat="41.33894" lon="9.25136">
        <ele>0.62</ele>
        <time>2017-10-10T15:25:08Z</time>
      </trkpt>
      <trkpt lat="41.33895" lon="9.25145">
        <ele>1.1</ele>
        <time>2017-10-10T15:25:36Z</time>
      </trkpt>
      <trkpt lat="41.3388" lon="9.25169">
        <ele>-0.34</ele>
        <time>2017-10-10T15:26:01Z</time>
      </trkpt>
      <trkpt lat="41.33879" lon="9.25169">
        <ele>-0.34</ele>
        <time>2017-10-10T15:26:02Z</time>
      </trkpt>
      <trkpt lat="41.33854" lon="9.25184">
        <ele>-0.34</ele>
        <time>2017-10-10T15:26:27Z</time>
      </trkpt>
      <trkpt lat="41.33832" lon="9.25202">
        <ele>-0.82</ele>
        <time>2017-10-10T15:26:54Z</time>
      </trkpt>
      <trkpt lat="41.33813" lon="9.25208">
        <ele>-0.34</ele>
        <time>2017-10-10T15:27:16Z</time>
      </trkpt>
      <trkpt lat="41.33794" lon="9.25209">
        <ele>-1.3</ele>
        <time>2017-10-10T15:27:36Z</time>
      </trkpt>
      <trkpt lat="41.33772" lon="9.252">
        <ele>-1.3</ele>
        <time>2017-10-10T15:28:01Z</time>
      </trkpt>
      <trkpt lat="41.33771" lon="9.252">
        <ele>-1.3</ele>
        <time>2017-10-10T15:28:02Z</time>
      </trkpt>
      <trkpt lat="41.33746" lon="9.25185">
        <ele>-0.82</ele>
        <time>2017-10-10T15:28:30Z</time>
      </trkpt>
      <trkpt lat="41.33721" lon="9.25166">
        <ele>-0.82</ele>
        <time>2017-10-10T15:28:49Z</time>
      </trkpt>
      <trkpt lat="41.33687" lon="9.25143">
        <ele>-1.3</ele>
        <time>2017-10-10T15:29:11Z</time>
      </trkpt>
      <trkpt lat="41.33647" lon="9.25112">
        <ele>-0.82</ele>
        <time>2017-10-10T15:29:32Z</time>
      </trkpt>
      <trkpt lat="41.33604" lon="9.25086">
        <ele>-1.3</ele>
        <time>2017-10-10T15:29:51Z</time>
      </trkpt>
      <trkpt lat="41.33565" lon="9.25067">
        <ele>-0.82</ele>
        <time>2017-10-10T15:30:08Z</time>
      </trkpt>
      <trkpt lat="41.3352" lon="9.25038">
        <ele>-0.34</ele>
        <time>2017-10-10T15:30:28Z</time>
      </trkpt>
      <trkpt lat="41.33483" lon="9.25018">
        <ele>-0.34</ele>
        <time>2017-10-10T15:30:45Z</time>
      </trkpt>
      <trkpt lat="41.33449" lon="9.24996">
        <ele>-0.82</ele>
        <time>2017-10-10T15:31:01Z</time>
      </trkpt>
      <trkpt lat="41.33421" lon="9.24975">
        <ele>-0.34</ele>
        <time>2017-10-10T15:31:15Z</time>
      </trkpt>
      <trkpt lat="41.33392" lon="9.24954">
        <ele>-0.82</ele>
        <time>2017-10-10T15:31:29Z</time>
      </trkpt>
      <trkpt lat="41.33366" lon="9.24933">
        <ele>-0.34</ele>
        <time>2017-10-10T15:31:43Z</time>
      </trkpt>
      <trkpt lat="41.33345" lon="9.24917">
        <ele>-0.34</ele>
        <time>2017-10-10T15:31:55Z</time>
      </trkpt>
      <trkpt lat="41.33309" lon="9.24885">
        <ele>0.62</ele>
        <time>2017-10-10T15:32:14Z</time>
      </trkpt>
      <trkpt lat="41.33288" lon="9.24868">
        <ele>0.14</ele>
        <time>2017-10-10T15:32:26Z</time>
      </trkpt>
      <trkpt lat="41.33266" lon="9.24848">
        <ele>0.14</ele>
        <time>2017-10-10T15:32:40Z</time>
      </trkpt>
      <trkpt lat="41.33239" lon="9.24827">
        <ele>0.14</ele>
        <time>2017-10-10T15:32:55Z</time>
      </trkpt>
      <trkpt lat="41.33216" lon="9.24808">
        <ele>-0.34</ele>
        <time>2017-10-10T15:33:08Z</time>
      </trkpt>
      <trkpt lat="41.33191" lon="9.24786">
        <ele>0.14</ele>
        <time>2017-10-10T15:33:21Z</time>
      </trkpt>
      <trkpt lat="41.33171" lon="9.24766">
        <ele>-0.34</ele>
        <time>2017-10-10T15:33:33Z</time>
      </trkpt>
      <trkpt lat="41.33164" lon="9.24735">
        <ele>-0.34</ele>
        <time>2017-10-10T15:33:48Z</time>
      </trkpt>
      <trkpt lat="41.33159" lon="9.24708">
        <ele>0.14</ele>
        <time>2017-10-10T15:34:03Z</time>
      </trkpt>
      <trkpt lat="41.33143" lon="9.24671">
        <ele>0.62</ele>
        <time>2017-10-10T15:34:21Z</time>
      </trkpt>
      <trkpt lat="41.33127" lon="9.24642">
        <ele>0.62</ele>
        <time>2017-10-10T15:34:35Z</time>
      </trkpt>
      <trkpt lat="41.33117" lon="9.24595">
        <ele>0.62</ele>
        <time>2017-10-10T15:34:54Z</time>
      </trkpt>
      <trkpt lat="41.33112" lon="9.24554">
        <ele>0.62</ele>
        <time>2017-10-10T15:35:10Z</time>
      </trkpt>
      <trkpt lat="41.33091" lon="9.24529">
        <ele>0.62</ele>
        <time>2017-10-10T15:35:23Z</time>
      </trkpt>
      <trkpt lat="41.33064" lon="9.24504">
        <ele>0.62</ele>
        <time>2017-10-10T15:35:37Z</time>
      </trkpt>
      <trkpt lat="41.33035" lon="9.24486">
        <ele>1.1</ele>
        <time>2017-10-10T15:35:49Z</time>
      </trkpt>
      <trkpt lat="41.3299" lon="9.24473">
        <ele>0.62</ele>
        <time>2017-10-10T15:36:05Z</time>
      </trkpt>
      <trkpt lat="41.32964" lon="9.24469">
        <ele>0.14</ele>
        <time>2017-10-10T15:36:15Z</time>
      </trkpt>
      <trkpt lat="41.32935" lon="9.24462">
        <ele>-0.34</ele>
        <time>2017-10-10T15:36:26Z</time>
      </trkpt>
      <trkpt lat="41.32907" lon="9.24437">
        <ele>-0.82</ele>
        <time>2017-10-10T15:36:42Z</time>
      </trkpt>
      <trkpt lat="41.32879" lon="9.24421">
        <ele>-0.82</ele>
        <time>2017-10-10T15:36:57Z</time>
      </trkpt>
      <trkpt lat="41.32844" lon="9.24401">
        <ele>-0.82</ele>
        <time>2017-10-10T15:37:10Z</time>
      </trkpt>
      <trkpt lat="41.32812" lon="9.24382">
        <ele>-0.34</ele>
        <time>2017-10-10T15:37:22Z</time>
      </trkpt>
      <trkpt lat="41.32781" lon="9.24356">
        <ele>0.14</ele>
        <time>2017-10-10T15:37:35Z</time>
      </trkpt>
      <trkpt lat="41.32754" lon="9.24336">
        <ele>0.14</ele>
        <time>2017-10-10T15:37:47Z</time>
      </trkpt>
      <trkpt lat="41.32722" lon="9.24312">
        <ele>0.62</ele>
        <time>2017-10-10T15:38:01Z</time>
      </trkpt>
      <trkpt lat="41.32692" lon="9.24293">
        <ele>1.1</ele>
        <time>2017-10-10T15:38:13Z</time>
      </trkpt>
      <trkpt lat="41.32662" lon="9.24271">
        <ele>0.62</ele>
        <time>2017-10-10T15:38:26Z</time>
      </trkpt>
      <trkpt lat="41.3263" lon="9.24249">
        <ele>0.62</ele>
        <time>2017-10-10T15:38:40Z</time>
      </trkpt>
      <trkpt lat="41.32607" lon="9.24222">
        <ele>-0.34</ele>
        <time>2017-10-10T15:38:52Z</time>
      </trkpt>
      <trkpt lat="41.32583" lon="9.24195">
        <ele>-1.3</ele>
        <time>2017-10-10T15:39:05Z</time>
      </trkpt>
      <trkpt lat="41.32575" lon="9.24188">
        <ele>-0.82</ele>
        <time>2017-10-10T15:39:09Z</time>
      </trkpt>
      <trkpt lat="41.32544" lon="9.24161">
        <ele>-0.34</ele>
        <time>2017-10-10T15:39:23Z</time>
      </trkpt>
      <trkpt lat="41.32511" lon="9.24136">
        <ele>0.62</ele>
        <time>2017-10-10T15:39:37Z</time>
      </trkpt>
      <trkpt lat="41.32483" lon="9.24116">
        <ele>1.1</ele>
        <time>2017-10-10T15:39:49Z</time>
      </trkpt>
      <trkpt lat="41.32456" lon="9.24093">
        <ele>1.58</ele>
        <time>2017-10-10T15:40:01Z</time>
      </trkpt>
      <trkpt lat="41.32425" lon="9.24066">
        <ele>1.1</ele>
        <time>2017-10-10T15:40:14Z</time>
      </trkpt>
      <trkpt lat="41.32398" lon="9.2404">
        <ele>1.1</ele>
        <time>2017-10-10T15:40:26Z</time>
      </trkpt>
      <trkpt lat="41.32364" lon="9.24009">
        <ele>1.1</ele>
        <time>2017-10-10T15:40:41Z</time>
      </trkpt>
      <trkpt lat="41.32337" lon="9.23985">
        <ele>1.58</ele>
        <time>2017-10-10T15:40:53Z</time>
      </trkpt>
      <trkpt lat="41.3231" lon="9.23961">
        <ele>0.62</ele>
        <time>2017-10-10T15:41:06Z</time>
      </trkpt>
      <trkpt lat="41.32287" lon="9.2394">
        <ele>0.62</ele>
        <time>2017-10-10T15:41:17Z</time>
      </trkpt>
      <trkpt lat="41.32273" lon="9.23924">
        <ele>0.14</ele>
        <time>2017-10-10T15:41:26Z</time>
      </trkpt>
      <trkpt lat="41.32246" lon="9.23904">
        <ele>0.14</ele>
        <time>2017-10-10T15:41:40Z</time>
      </trkpt>
      <trkpt lat="41.32225" lon="9.23884">
        <ele>0.14</ele>
        <time>2017-10-10T15:41:53Z</time>
      </trkpt>
      <trkpt lat="41.32198" lon="9.23865">
        <ele>0.62</ele>
        <time>2017-10-10T15:42:07Z</time>
      </trkpt>
      <trkpt lat="41.3218" lon="9.23854">
        <ele>0.62</ele>
        <time>2017-10-10T15:42:16Z</time>
      </trkpt>
      <trkpt lat="41.32164" lon="9.23844">
        <ele>1.1</ele>
        <time>2017-10-10T15:42:25Z</time>
      </trkpt>
      <trkpt lat="41.32141" lon="9.23825">
        <ele>1.58</ele>
        <time>2017-10-10T15:42:38Z</time>
      </trkpt>
      <trkpt lat="41.32121" lon="9.23811">
        <ele>2.06</ele>
        <time>2017-10-10T15:42:49Z</time>
      </trkpt>
      <trkpt lat="41.321" lon="9.23796">
        <ele>2.06</ele>
        <time>2017-10-10T15:43:00Z</time>
      </trkpt>
      <trkpt lat="41.3208" lon="9.23773">
        <ele>1.58</ele>
        <time>2017-10-10T15:43:12Z</time>
      </trkpt>
      <trkpt lat="41.3206" lon="9.23757">
        <ele>-0.34</ele>
        <time>2017-10-10T15:43:22Z</time>
      </trkpt>
      <trkpt lat="41.32036" lon="9.23735">
        <ele>0.14</ele>
        <time>2017-10-10T15:43:34Z</time>
      </trkpt>
      <trkpt lat="41.32005" lon="9.23708">
        <ele>1.1</ele>
        <time>2017-10-10T15:43:48Z</time>
      </trkpt>
      <trkpt lat="41.31974" lon="9.2368">
        <ele>2.06</ele>
        <time>2017-10-10T15:44:01Z</time>
      </trkpt>
      <trkpt lat="41.31943" lon="9.23653">
        <ele>3.02</ele>
        <time>2017-10-10T15:44:14Z</time>
      </trkpt>
      <trkpt lat="41.31908" lon="9.23627">
        <ele>3.5</ele>
        <time>2017-10-10T15:44:28Z</time>
      </trkpt>
      <trkpt lat="41.31879" lon="9.23603">
        <ele>4.46</ele>
        <time>2017-10-10T15:44:41Z</time>
      </trkpt>
      <trkpt lat="41.31841" lon="9.23575">
        <ele>5.42</ele>
        <time>2017-10-10T15:44:58Z</time>
      </trkpt>
      <trkpt lat="41.31812" lon="9.23558">
        <ele>5.42</ele>
        <time>2017-10-10T15:45:12Z</time>
      </trkpt>
      <trkpt lat="41.3179" lon="9.23539">
        <ele>4.94</ele>
        <time>2017-10-10T15:45:25Z</time>
      </trkpt>
      <trkpt lat="41.31765" lon="9.23524">
        <ele>2.54</ele>
        <time>2017-10-10T15:45:38Z</time>
      </trkpt>
      <trkpt lat="41.31732" lon="9.23502">
        <ele>3.5</ele>
        <time>2017-10-10T15:45:54Z</time>
      </trkpt>
      <trkpt lat="41.31695" lon="9.23487">
        <ele>3.5</ele>
        <time>2017-10-10T15:46:08Z</time>
      </trkpt>
      <trkpt lat="41.31673" lon="9.23469">
        <ele>2.06</ele>
        <time>2017-10-10T15:46:20Z</time>
      </trkpt>
      <trkpt lat="41.3167" lon="9.23464">
        <ele>2.06</ele>
        <time>2017-10-10T15:46:24Z</time>
      </trkpt>
      <trkpt lat="41.31672" lon="9.2346">
        <ele>2.06</ele>
        <time>2017-10-10T15:46:27Z</time>
      </trkpt>
      <trkpt lat="41.31678" lon="9.23457">
        <ele>2.06</ele>
        <time>2017-10-10T15:46:31Z</time>
      </trkpt>
      <trkpt lat="41.31684" lon="9.23454">
        <ele>2.06</ele>
        <time>2017-10-10T15:46:34Z</time>
      </trkpt>
      <trkpt lat="41.31692" lon="9.23442">
        <ele>2.06</ele>
        <time>2017-10-10T15:46:41Z</time>
      </trkpt>
      <trkpt lat="41.31699" lon="9.23436">
        <ele>2.06</ele>
        <time>2017-10-10T15:46:45Z</time>
      </trkpt>
      <trkpt lat="41.31727" lon="9.23398">
        <ele>2.54</ele>
        <time>2017-10-10T15:47:00Z</time>
      </trkpt>
      <trkpt lat="41.31751" lon="9.23358">
        <ele>2.06</ele>
        <time>2017-10-10T15:47:14Z</time>
      </trkpt>
      <trkpt lat="41.31776" lon="9.23319">
        <ele>1.1</ele>
        <time>2017-10-10T15:47:28Z</time>
      </trkpt>
      <trkpt lat="41.31806" lon="9.23277">
        <ele>0.14</ele>
        <time>2017-10-10T15:47:43Z</time>
      </trkpt>
      <trkpt lat="41.31835" lon="9.23236">
        <ele>0.14</ele>
        <time>2017-10-10T15:47:57Z</time>
      </trkpt>
      <trkpt lat="41.31866" lon="9.23196">
        <ele>0.62</ele>
        <time>2017-10-10T15:48:11Z</time>
      </trkpt>
      <trkpt lat="41.31896" lon="9.23158">
        <ele>1.1</ele>
        <time>2017-10-10T15:48:24Z</time>
      </trkpt>
      <trkpt lat="41.3192" lon="9.23126">
        <ele>0.14</ele>
        <time>2017-10-10T15:48:35Z</time>
      </trkpt>
      <trkpt lat="41.31945" lon="9.2308">
        <ele>0.62</ele>
        <time>2017-10-10T15:48:49Z</time>
      </trkpt>
      <trkpt lat="41.31978" lon="9.23036">
        <ele>0.14</ele>
        <time>2017-10-10T15:49:03Z</time>
      </trkpt>
      <trkpt lat="41.32011" lon="9.2299">
        <ele>0.62</ele>
        <time>2017-10-10T15:49:17Z</time>
      </trkpt>
      <trkpt lat="41.32039" lon="9.22946">
        <ele>1.58</ele>
        <time>2017-10-10T15:49:30Z</time>
      </trkpt>
      <trkpt lat="41.3207" lon="9.22904">
        <ele>1.1</ele>
        <time>2017-10-10T15:49:43Z</time>
      </trkpt>
      <trkpt lat="41.32109" lon="9.22852">
        <ele>1.1</ele>
        <time>2017-10-10T15:49:59Z</time>
      </trkpt>
      <trkpt lat="41.32138" lon="9.22819">
        <ele>1.1</ele>
        <time>2017-10-10T15:50:10Z</time>
      </trkpt>
      <trkpt lat="41.32172" lon="9.22774">
        <ele>1.1</ele>
        <time>2017-10-10T15:50:24Z</time>
      </trkpt>
      <trkpt lat="41.32206" lon="9.22725">
        <ele>0.62</ele>
        <time>2017-10-10T15:50:39Z</time>
      </trkpt>
      <trkpt lat="41.3224" lon="9.22692">
        <ele>1.58</ele>
        <time>2017-10-10T15:50:51Z</time>
      </trkpt>
      <trkpt lat="41.32268" lon="9.22657">
        <ele>1.1</ele>
        <time>2017-10-10T15:51:02Z</time>
      </trkpt>
      <trkpt lat="41.32292" lon="9.22624">
        <ele>1.1</ele>
        <time>2017-10-10T15:51:12Z</time>
      </trkpt>
      <trkpt lat="41.32322" lon="9.22589">
        <ele>1.1</ele>
        <time>2017-10-10T15:51:24Z</time>
      </trkpt>
      <trkpt lat="41.32351" lon="9.22548">
        <ele>0.62</ele>
        <time>2017-10-10T15:51:37Z</time>
      </trkpt>
      <trkpt lat="41.32381" lon="9.22506">
        <ele>0.62</ele>
        <time>2017-10-10T15:51:50Z</time>
      </trkpt>
      <trkpt lat="41.32413" lon="9.22467">
        <ele>0.62</ele>
        <time>2017-10-10T15:52:03Z</time>
      </trkpt>
      <trkpt lat="41.32449" lon="9.22414">
        <ele>0.62</ele>
        <time>2017-10-10T15:52:19Z</time>
      </trkpt>
      <trkpt lat="41.32483" lon="9.22367">
        <ele>0.62</ele>
        <time>2017-10-10T15:52:33Z</time>
      </trkpt>
      <trkpt lat="41.3251" lon="9.22324">
        <ele>0.14</ele>
        <time>2017-10-10T15:52:46Z</time>
      </trkpt>
      <trkpt lat="41.32544" lon="9.22279">
        <ele>0.14</ele>
        <time>2017-10-10T15:53:00Z</time>
      </trkpt>
      <trkpt lat="41.32576" lon="9.22242">
        <ele>-0.34</ele>
        <time>2017-10-10T15:53:12Z</time>
      </trkpt>
      <trkpt lat="41.326" lon="9.22212">
        <ele>0.14</ele>
        <time>2017-10-10T15:53:22Z</time>
      </trkpt>
      <trkpt lat="41.32637" lon="9.22165">
        <ele>0.14</ele>
        <time>2017-10-10T15:53:37Z</time>
      </trkpt>
      <trkpt lat="41.32667" lon="9.22127">
        <ele>0.14</ele>
        <time>2017-10-10T15:53:49Z</time>
      </trkpt>
      <trkpt lat="41.32702" lon="9.22082">
        <ele>-0.34</ele>
        <time>2017-10-10T15:54:03Z</time>
      </trkpt>
      <trkpt lat="41.32735" lon="9.22035">
        <ele>0.14</ele>
        <time>2017-10-10T15:54:17Z</time>
      </trkpt>
      <trkpt lat="41.32763" lon="9.22008">
        <ele>1.1</ele>
        <time>2017-10-10T15:54:27Z</time>
      </trkpt>
      <trkpt lat="41.32792" lon="9.21968">
        <ele>0.62</ele>
        <time>2017-10-10T15:54:39Z</time>
      </trkpt>
      <trkpt lat="41.32822" lon="9.21925">
        <ele>-0.34</ele>
        <time>2017-10-10T15:54:52Z</time>
      </trkpt>
      <trkpt lat="41.32858" lon="9.21879">
        <ele>-0.34</ele>
        <time>2017-10-10T15:55:06Z</time>
      </trkpt>
      <trkpt lat="41.3289" lon="9.21846">
        <ele>-0.34</ele>
        <time>2017-10-10T15:55:18Z</time>
      </trkpt>
      <trkpt lat="41.32923" lon="9.21808">
        <ele>0.14</ele>
        <time>2017-10-10T15:55:31Z</time>
      </trkpt>
      <trkpt lat="41.3295" lon="9.21775">
        <ele>0.14</ele>
        <time>2017-10-10T15:55:42Z</time>
      </trkpt>
      <trkpt lat="41.32984" lon="9.21739">
        <ele>0.62</ele>
        <time>2017-10-10T15:55:55Z</time>
      </trkpt>
      <trkpt lat="41.33017" lon="9.217">
        <ele>0.62</ele>
        <time>2017-10-10T15:56:08Z</time>
      </trkpt>
      <trkpt lat="41.3305" lon="9.21656">
        <ele>0.14</ele>
        <time>2017-10-10T15:56:22Z</time>
      </trkpt>
      <trkpt lat="41.3308" lon="9.21617">
        <ele>-0.34</ele>
        <time>2017-10-10T15:56:35Z</time>
      </trkpt>
      <trkpt lat="41.33113" lon="9.21576">
        <ele>-0.34</ele>
        <time>2017-10-10T15:56:49Z</time>
      </trkpt>
      <trkpt lat="41.33151" lon="9.21525">
        <ele>-0.34</ele>
        <time>2017-10-10T15:57:05Z</time>
      </trkpt>
      <trkpt lat="41.33184" lon="9.21484">
        <ele>-0.82</ele>
        <time>2017-10-10T15:57:18Z</time>
      </trkpt>
      <trkpt lat="41.33219" lon="9.21436">
        <ele>-0.82</ele>
        <time>2017-10-10T15:57:33Z</time>
      </trkpt>
      <trkpt lat="41.3324" lon="9.21407">
        <ele>-1.79</ele>
        <time>2017-10-10T15:57:42Z</time>
      </trkpt>
      <trkpt lat="41.33273" lon="9.21362">
        <ele>-2.27</ele>
        <time>2017-10-10T15:57:56Z</time>
      </trkpt>
      <trkpt lat="41.33309" lon="9.2132">
        <ele>-3.23</ele>
        <time>2017-10-10T15:58:10Z</time>
      </trkpt>
      <trkpt lat="41.33339" lon="9.21284">
        <ele>-3.71</ele>
        <time>2017-10-10T15:58:22Z</time>
      </trkpt>
      <trkpt lat="41.33369" lon="9.21242">
        <ele>-3.71</ele>
        <time>2017-10-10T15:58:35Z</time>
      </trkpt>
      <trkpt lat="41.33401" lon="9.21202">
        <ele>-2.27</ele>
        <time>2017-10-10T15:58:48Z</time>
      </trkpt>
      <trkpt lat="41.33433" lon="9.21164">
        <ele>-2.27</ele>
        <time>2017-10-10T15:59:01Z</time>
      </trkpt>
      <trkpt lat="41.33469" lon="9.21125">
        <ele>-2.75</ele>
        <time>2017-10-10T15:59:15Z</time>
      </trkpt>
      <trkpt lat="41.33496" lon="9.2109">
        <ele>-2.75</ele>
        <time>2017-10-10T15:59:27Z</time>
      </trkpt>
      <trkpt lat="41.33518" lon="9.2106">
        <ele>-2.75</ele>
        <time>2017-10-10T15:59:37Z</time>
      </trkpt>
      <trkpt lat="41.33534" lon="9.21036">
        <ele>-2.27</ele>
        <time>2017-10-10T15:59:45Z</time>
      </trkpt>
      <trkpt lat="41.33561" lon="9.21001">
        <ele>-2.27</ele>
        <time>2017-10-10T15:59:57Z</time>
      </trkpt>
      <trkpt lat="41.33589" lon="9.20968">
        <ele>-2.27</ele>
        <time>2017-10-10T16:00:08Z</time>
      </trkpt>
      <trkpt lat="41.33618" lon="9.20931">
        <ele>-1.79</ele>
        <time>2017-10-10T16:00:20Z</time>
      </trkpt>
      <trkpt lat="41.33644" lon="9.20902">
        <ele>-1.3</ele>
        <time>2017-10-10T16:00:30Z</time>
      </trkpt>
      <trkpt lat="41.33671" lon="9.20871">
        <ele>-0.82</ele>
        <time>2017-10-10T16:00:41Z</time>
      </trkpt>
      <trkpt lat="41.337" lon="9.20836">
        <ele>-1.3</ele>
        <time>2017-10-10T16:00:53Z</time>
      </trkpt>
      <trkpt lat="41.33729" lon="9.20794">
        <ele>-2.27</ele>
        <time>2017-10-10T16:01:06Z</time>
      </trkpt>
      <trkpt lat="41.33765" lon="9.20755">
        <ele>-1.79</ele>
        <time>2017-10-10T16:01:20Z</time>
      </trkpt>
      <trkpt lat="41.33793" lon="9.2072">
        <ele>-1.79</ele>
        <time>2017-10-10T16:01:32Z</time>
      </trkpt>
      <trkpt lat="41.33824" lon="9.20687">
        <ele>-1.3</ele>
        <time>2017-10-10T16:01:44Z</time>
      </trkpt>
      <trkpt lat="41.33857" lon="9.20646">
        <ele>-1.3</ele>
        <time>2017-10-10T16:01:58Z</time>
      </trkpt>
      <trkpt lat="41.33887" lon="9.20612">
        <ele>-0.82</ele>
        <time>2017-10-10T16:02:10Z</time>
      </trkpt>
      <trkpt lat="41.33914" lon="9.20583">
        <ele>-1.3</ele>
        <time>2017-10-10T16:02:21Z</time>
      </trkpt>
      <trkpt lat="41.3394" lon="9.20551">
        <ele>-0.82</ele>
        <time>2017-10-10T16:02:32Z</time>
      </trkpt>
      <trkpt lat="41.33971" lon="9.20512">
        <ele>-1.3</ele>
        <time>2017-10-10T16:02:45Z</time>
      </trkpt>
      <trkpt lat="41.33996" lon="9.20479">
        <ele>-1.3</ele>
        <time>2017-10-10T16:02:56Z</time>
      </trkpt>
      <trkpt lat="41.34022" lon="9.20453">
        <ele>-1.3</ele>
        <time>2017-10-10T16:03:06Z</time>
      </trkpt>
      <trkpt lat="41.34051" lon="9.20418">
        <ele>-1.3</ele>
        <time>2017-10-10T16:03:18Z</time>
      </trkpt>
      <trkpt lat="41.34078" lon="9.20377">
        <ele>-0.82</ele>
        <time>2017-10-10T16:03:31Z</time>
      </trkpt>
      <trkpt lat="41.34105" lon="9.20343">
        <ele>-0.34</ele>
        <time>2017-10-10T16:03:42Z</time>
      </trkpt>
      <trkpt lat="41.3414" lon="9.203">
        <ele>-0.34</ele>
        <time>2017-10-10T16:03:56Z</time>
      </trkpt>
      <trkpt lat="41.34168" lon="9.20268">
        <ele>-0.34</ele>
        <time>2017-10-10T16:04:07Z</time>
      </trkpt>
      <trkpt lat="41.34192" lon="9.20237">
        <ele>0.62</ele>
        <time>2017-10-10T16:04:17Z</time>
      </trkpt>
      <trkpt lat="41.34225" lon="9.20199">
        <ele>0.62</ele>
        <time>2017-10-10T16:04:30Z</time>
      </trkpt>
      <trkpt lat="41.3426" lon="9.20158">
        <ele>0.62</ele>
        <time>2017-10-10T16:04:44Z</time>
      </trkpt>
      <trkpt lat="41.34293" lon="9.20122">
        <ele>0.14</ele>
        <time>2017-10-10T16:04:57Z</time>
      </trkpt>
      <trkpt lat="41.34326" lon="9.2009">
        <ele>-0.34</ele>
        <time>2017-10-10T16:05:09Z</time>
      </trkpt>
      <trkpt lat="41.34352" lon="9.20064">
        <ele>0.14</ele>
        <time>2017-10-10T16:05:19Z</time>
      </trkpt>
      <trkpt lat="41.34382" lon="9.20028">
        <ele>0.62</ele>
        <time>2017-10-10T16:05:31Z</time>
      </trkpt>
      <trkpt lat="41.34411" lon="9.19992">
        <ele>0.62</ele>
        <time>2017-10-10T16:05:43Z</time>
      </trkpt>
      <trkpt lat="41.34443" lon="9.19955">
        <ele>0.62</ele>
        <time>2017-10-10T16:05:56Z</time>
      </trkpt>
      <trkpt lat="41.34474" lon="9.19918">
        <ele>-0.34</ele>
        <time>2017-10-10T16:06:08Z</time>
      </trkpt>
      <trkpt lat="41.34506" lon="9.19879">
        <ele>0.14</ele>
        <time>2017-10-10T16:06:21Z</time>
      </trkpt>
      <trkpt lat="41.34534" lon="9.19847">
        <ele>-0.34</ele>
        <time>2017-10-10T16:06:32Z</time>
      </trkpt>
      <trkpt lat="41.34567" lon="9.1981">
        <ele>0.62</ele>
        <time>2017-10-10T16:06:45Z</time>
      </trkpt>
      <trkpt lat="41.346" lon="9.19775">
        <ele>1.1</ele>
        <time>2017-10-10T16:06:58Z</time>
      </trkpt>
      <trkpt lat="41.34632" lon="9.19742">
        <ele>2.06</ele>
        <time>2017-10-10T16:07:11Z</time>
      </trkpt>
      <trkpt lat="41.3466" lon="9.1971">
        <ele>1.1</ele>
        <time>2017-10-10T16:07:23Z</time>
      </trkpt>
      <trkpt lat="41.34686" lon="9.1968">
        <ele>2.54</ele>
        <time>2017-10-10T16:07:34Z</time>
      </trkpt>
      <trkpt lat="41.34715" lon="9.19648">
        <ele>1.58</ele>
        <time>2017-10-10T16:07:46Z</time>
      </trkpt>
      <trkpt lat="41.34724" lon="9.19637">
        <ele>2.06</ele>
        <time>2017-10-10T16:07:50Z</time>
      </trkpt>
      <trkpt lat="41.34758" lon="9.19599">
        <ele>1.1</ele>
        <time>2017-10-10T16:08:04Z</time>
      </trkpt>
      <trkpt lat="41.34793" lon="9.19559">
        <ele>1.1</ele>
        <time>2017-10-10T16:08:19Z</time>
      </trkpt>
      <trkpt lat="41.34814" lon="9.19536">
        <ele>1.58</ele>
        <time>2017-10-10T16:08:28Z</time>
      </trkpt>
      <trkpt lat="41.34842" lon="9.19504">
        <ele>2.06</ele>
        <time>2017-10-10T16:08:40Z</time>
      </trkpt>
      <trkpt lat="41.34869" lon="9.19475">
        <ele>1.58</ele>
        <time>2017-10-10T16:08:51Z</time>
      </trkpt>
      <trkpt lat="41.34903" lon="9.19436">
        <ele>1.1</ele>
        <time>2017-10-10T16:09:05Z</time>
      </trkpt>
      <trkpt lat="41.34932" lon="9.19407">
        <ele>0.62</ele>
        <time>2017-10-10T16:09:16Z</time>
      </trkpt>
      <trkpt lat="41.34966" lon="9.19364">
        <ele>1.58</ele>
        <time>2017-10-10T16:09:30Z</time>
      </trkpt>
      <trkpt lat="41.35" lon="9.19323">
        <ele>1.58</ele>
        <time>2017-10-10T16:09:44Z</time>
      </trkpt>
      <trkpt lat="41.35028" lon="9.19292">
        <ele>1.58</ele>
        <time>2017-10-10T16:09:55Z</time>
      </trkpt>
      <trkpt lat="41.35055" lon="9.19259">
        <ele>1.58</ele>
        <time>2017-10-10T16:10:06Z</time>
      </trkpt>
      <trkpt lat="41.35091" lon="9.19223">
        <ele>1.1</ele>
        <time>2017-10-10T16:10:20Z</time>
      </trkpt>
      <trkpt lat="41.3512" lon="9.1919">
        <ele>1.1</ele>
        <time>2017-10-10T16:10:32Z</time>
      </trkpt>
      <trkpt lat="41.3515" lon="9.1916">
        <ele>0.14</ele>
        <time>2017-10-10T16:10:44Z</time>
      </trkpt>
      <trkpt lat="41.35181" lon="9.19127">
        <ele>0.62</ele>
        <time>2017-10-10T16:10:57Z</time>
      </trkpt>
      <trkpt lat="41.35211" lon="9.19097">
        <ele>1.58</ele>
        <time>2017-10-10T16:11:09Z</time>
      </trkpt>
      <trkpt lat="41.35239" lon="9.19065">
        <ele>1.58</ele>
        <time>2017-10-10T16:11:21Z</time>
      </trkpt>
      <trkpt lat="41.35268" lon="9.19032">
        <ele>2.54</ele>
        <time>2017-10-10T16:11:34Z</time>
      </trkpt>
      <trkpt lat="41.35297" lon="9.19">
        <ele>3.5</ele>
        <time>2017-10-10T16:11:47Z</time>
      </trkpt>
      <trkpt lat="41.35325" lon="9.18971">
        <ele>3.5</ele>
        <time>2017-10-10T16:12:00Z</time>
      </trkpt>
      <trkpt lat="41.35358" lon="9.18936">
        <ele>3.98</ele>
        <time>2017-10-10T16:12:15Z</time>
      </trkpt>
      <trkpt lat="41.35387" lon="9.18908">
        <ele>3.5</ele>
        <time>2017-10-10T16:12:28Z</time>
      </trkpt>
      <trkpt lat="41.35421" lon="9.18875">
        <ele>3.02</ele>
        <time>2017-10-10T16:12:42Z</time>
      </trkpt>
      <trkpt lat="41.35452" lon="9.18843">
        <ele>2.54</ele>
        <time>2017-10-10T16:12:55Z</time>
      </trkpt>
      <trkpt lat="41.35479" lon="9.18814">
        <ele>2.54</ele>
        <time>2017-10-10T16:13:07Z</time>
      </trkpt>
      <trkpt lat="41.35511" lon="9.18779">
        <ele>2.54</ele>
        <time>2017-10-10T16:13:21Z</time>
      </trkpt>
      <trkpt lat="41.35535" lon="9.18754">
        <ele>2.54</ele>
        <time>2017-10-10T16:13:31Z</time>
      </trkpt>
      <trkpt lat="41.35563" lon="9.18723">
        <ele>2.54</ele>
        <time>2017-10-10T16:13:43Z</time>
      </trkpt>
      <trkpt lat="41.35598" lon="9.18685">
        <ele>3.02</ele>
        <time>2017-10-10T16:13:58Z</time>
      </trkpt>
      <trkpt lat="41.35622" lon="9.18657">
        <ele>3.02</ele>
        <time>2017-10-10T16:14:09Z</time>
      </trkpt>
      <trkpt lat="41.3565" lon="9.18627">
        <ele>3.02</ele>
        <time>2017-10-10T16:14:21Z</time>
      </trkpt>
      <trkpt lat="41.35681" lon="9.18589">
        <ele>3.98</ele>
        <time>2017-10-10T16:14:35Z</time>
      </trkpt>
      <trkpt lat="41.35721" lon="9.18542">
        <ele>3.02</ele>
        <time>2017-10-10T16:14:52Z</time>
      </trkpt>
      <trkpt lat="41.35753" lon="9.18502">
        <ele>3.02</ele>
        <time>2017-10-10T16:15:06Z</time>
      </trkpt>
      <trkpt lat="41.35788" lon="9.18462">
        <ele>2.54</ele>
        <time>2017-10-10T16:15:21Z</time>
      </trkpt>
      <trkpt lat="41.35814" lon="9.18433">
        <ele>3.02</ele>
        <time>2017-10-10T16:15:32Z</time>
      </trkpt>
      <trkpt lat="41.35847" lon="9.18397">
        <ele>2.54</ele>
        <time>2017-10-10T16:15:46Z</time>
      </trkpt>
      <trkpt lat="41.35878" lon="9.18366">
        <ele>3.5</ele>
        <time>2017-10-10T16:15:59Z</time>
      </trkpt>
      <trkpt lat="41.35905" lon="9.18341">
        <ele>2.54</ele>
        <time>2017-10-10T16:16:10Z</time>
      </trkpt>
      <trkpt lat="41.35933" lon="9.18309">
        <ele>2.06</ele>
        <time>2017-10-10T16:16:23Z</time>
      </trkpt>
      <trkpt lat="41.35963" lon="9.18277">
        <ele>3.02</ele>
        <time>2017-10-10T16:16:36Z</time>
      </trkpt>
      <trkpt lat="41.35992" lon="9.18249">
        <ele>3.02</ele>
        <time>2017-10-10T16:16:48Z</time>
      </trkpt>
      <trkpt lat="41.36019" lon="9.18221">
        <ele>3.02</ele>
        <time>2017-10-10T16:17:00Z</time>
      </trkpt>
      <trkpt lat="41.36046" lon="9.18194">
        <ele>3.02</ele>
        <time>2017-10-10T16:17:12Z</time>
      </trkpt>
      <trkpt lat="41.36079" lon="9.18159">
        <ele>3.02</ele>
        <time>2017-10-10T16:17:27Z</time>
      </trkpt>
      <trkpt lat="41.36105" lon="9.18127">
        <ele>3.02</ele>
        <time>2017-10-10T16:17:41Z</time>
      </trkpt>
      <trkpt lat="41.36127" lon="9.18101">
        <ele>2.54</ele>
        <time>2017-10-10T16:17:53Z</time>
      </trkpt>
      <trkpt lat="41.36155" lon="9.18068">
        <ele>2.06</ele>
        <time>2017-10-10T16:18:09Z</time>
      </trkpt>
      <trkpt lat="41.36178" lon="9.1804">
        <ele>3.02</ele>
        <time>2017-10-10T16:18:22Z</time>
      </trkpt>
      <trkpt lat="41.36203" lon="9.1801">
        <ele>3.5</ele>
        <time>2017-10-10T16:18:35Z</time>
      </trkpt>
      <trkpt lat="41.36229" lon="9.17976">
        <ele>3.5</ele>
        <time>2017-10-10T16:18:48Z</time>
      </trkpt>
      <trkpt lat="41.36259" lon="9.17935">
        <ele>3.02</ele>
        <time>2017-10-10T16:19:03Z</time>
      </trkpt>
      <trkpt lat="41.36282" lon="9.17905">
        <ele>2.54</ele>
        <time>2017-10-10T16:19:14Z</time>
      </trkpt>
      <trkpt lat="41.36304" lon="9.17876">
        <ele>2.06</ele>
        <time>2017-10-10T16:19:25Z</time>
      </trkpt>
      <trkpt lat="41.36336" lon="9.17832">
        <ele>2.06</ele>
        <time>2017-10-10T16:19:41Z</time>
      </trkpt>
      <trkpt lat="41.36363" lon="9.17797">
        <ele>2.54</ele>
        <time>2017-10-10T16:19:55Z</time>
      </trkpt>
      <trkpt lat="41.36389" lon="9.17764">
        <ele>3.02</ele>
        <time>2017-10-10T16:20:09Z</time>
      </trkpt>
      <trkpt lat="41.36414" lon="9.17735">
        <ele>2.06</ele>
        <time>2017-10-10T16:20:23Z</time>
      </trkpt>
      <trkpt lat="41.36436" lon="9.17707">
        <ele>2.54</ele>
        <time>2017-10-10T16:20:36Z</time>
      </trkpt>
      <trkpt lat="41.36459" lon="9.17676">
        <ele>2.54</ele>
        <time>2017-10-10T16:20:50Z</time>
      </trkpt>
      <trkpt lat="41.36479" lon="9.17652">
        <ele>2.54</ele>
        <time>2017-10-10T16:21:02Z</time>
      </trkpt>
      <trkpt lat="41.36499" lon="9.17628">
        <ele>2.54</ele>
        <time>2017-10-10T16:21:14Z</time>
      </trkpt>
      <trkpt lat="41.3652" lon="9.17604">
        <ele>2.54</ele>
        <time>2017-10-10T16:21:28Z</time>
      </trkpt>
      <trkpt lat="41.3654" lon="9.17579">
        <ele>2.54</ele>
        <time>2017-10-10T16:21:42Z</time>
      </trkpt>
      <trkpt lat="41.36551" lon="9.17565">
        <ele>3.02</ele>
        <time>2017-10-10T16:21:49Z</time>
      </trkpt>
      <trkpt lat="41.36554" lon="9.1756">
        <ele>3.02</ele>
        <time>2017-10-10T16:21:51Z</time>
      </trkpt>
      <trkpt lat="41.36582" lon="9.17525">
        <ele>2.06</ele>
        <time>2017-10-10T16:22:07Z</time>
      </trkpt>
      <trkpt lat="41.36605" lon="9.17496">
        <ele>2.54</ele>
        <time>2017-10-10T16:22:19Z</time>
      </trkpt>
      <trkpt lat="41.36619" lon="9.17475">
        <ele>3.02</ele>
        <time>2017-10-10T16:22:27Z</time>
      </trkpt>
      <trkpt lat="41.36643" lon="9.17444">
        <ele>2.54</ele>
        <time>2017-10-10T16:22:40Z</time>
      </trkpt>
      <trkpt lat="41.36665" lon="9.17415">
        <ele>2.54</ele>
        <time>2017-10-10T16:22:52Z</time>
      </trkpt>
      <trkpt lat="41.36693" lon="9.17378">
        <ele>2.54</ele>
        <time>2017-10-10T16:23:06Z</time>
      </trkpt>
      <trkpt lat="41.36719" lon="9.17342">
        <ele>3.02</ele>
        <time>2017-10-10T16:23:20Z</time>
      </trkpt>
      <trkpt lat="41.36744" lon="9.17308">
        <ele>2.06</ele>
        <time>2017-10-10T16:23:34Z</time>
      </trkpt>
      <trkpt lat="41.36767" lon="9.17278">
        <ele>2.06</ele>
        <time>2017-10-10T16:23:48Z</time>
      </trkpt>
      <trkpt lat="41.36787" lon="9.17256">
        <ele>2.54</ele>
        <time>2017-10-10T16:24:01Z</time>
      </trkpt>
      <trkpt lat="41.36806" lon="9.17232">
        <ele>2.06</ele>
        <time>2017-10-10T16:24:13Z</time>
      </trkpt>
      <trkpt lat="41.36827" lon="9.17206">
        <ele>2.06</ele>
        <time>2017-10-10T16:24:25Z</time>
      </trkpt>
      <trkpt lat="41.36848" lon="9.1718">
        <ele>2.06</ele>
        <time>2017-10-10T16:24:36Z</time>
      </trkpt>
      <trkpt lat="41.36872" lon="9.17149">
        <ele>2.06</ele>
        <time>2017-10-10T16:24:49Z</time>
      </trkpt>
      <trkpt lat="41.369" lon="9.17113">
        <ele>2.06</ele>
        <time>2017-10-10T16:25:04Z</time>
      </trkpt>
      <trkpt lat="41.36924" lon="9.17082">
        <ele>2.54</ele>
        <time>2017-10-10T16:25:18Z</time>
      </trkpt>
      <trkpt lat="41.36946" lon="9.17055">
        <ele>3.02</ele>
        <time>2017-10-10T16:25:32Z</time>
      </trkpt>
      <trkpt lat="41.36962" lon="9.17037">
        <ele>3.5</ele>
        <time>2017-10-10T16:25:43Z</time>
      </trkpt>
      <trkpt lat="41.36983" lon="9.17013">
        <ele>3.5</ele>
        <time>2017-10-10T16:25:57Z</time>
      </trkpt>
      <trkpt lat="41.37004" lon="9.16987">
        <ele>3.5</ele>
        <time>2017-10-10T16:26:11Z</time>
      </trkpt>
      <trkpt lat="41.37027" lon="9.16959">
        <ele>3.02</ele>
        <time>2017-10-10T16:26:26Z</time>
      </trkpt>
      <trkpt lat="41.37046" lon="9.16935">
        <ele>3.02</ele>
        <time>2017-10-10T16:26:38Z</time>
      </trkpt>
      <trkpt lat="41.37064" lon="9.16914">
        <ele>3.98</ele>
        <time>2017-10-10T16:26:49Z</time>
      </trkpt>
      <trkpt lat="41.37089" lon="9.16883">
        <ele>3.5</ele>
        <time>2017-10-10T16:27:03Z</time>
      </trkpt>
      <trkpt lat="41.37114" lon="9.16849">
        <ele>3.98</ele>
        <time>2017-10-10T16:27:17Z</time>
      </trkpt>
      <trkpt lat="41.37137" lon="9.1682">
        <ele>3.02</ele>
        <time>2017-10-10T16:27:29Z</time>
      </trkpt>
      <trkpt lat="41.37159" lon="9.16795">
        <ele>3.02</ele>
        <time>2017-10-10T16:27:41Z</time>
      </trkpt>
      <trkpt lat="41.37182" lon="9.16766">
        <ele>2.54</ele>
        <time>2017-10-10T16:27:54Z</time>
      </trkpt>
      <trkpt lat="41.37207" lon="9.16734">
        <ele>3.02</ele>
        <time>2017-10-10T16:28:08Z</time>
      </trkpt>
      <trkpt lat="41.37238" lon="9.16693">
        <ele>2.06</ele>
        <time>2017-10-10T16:28:25Z</time>
      </trkpt>
      <trkpt lat="41.37263" lon="9.16662">
        <ele>2.06</ele>
        <time>2017-10-10T16:28:39Z</time>
      </trkpt>
      <trkpt lat="41.37284" lon="9.16634">
        <ele>1.58</ele>
        <time>2017-10-10T16:28:52Z</time>
      </trkpt>
      <trkpt lat="41.37304" lon="9.1661">
        <ele>2.06</ele>
        <time>2017-10-10T16:29:05Z</time>
      </trkpt>
      <trkpt lat="41.37327" lon="9.16583">
        <ele>2.54</ele>
        <time>2017-10-10T16:29:19Z</time>
      </trkpt>
      <trkpt lat="41.37351" lon="9.16548">
        <ele>2.06</ele>
        <time>2017-10-10T16:29:34Z</time>
      </trkpt>
      <trkpt lat="41.37373" lon="9.16518">
        <ele>1.58</ele>
        <time>2017-10-10T16:29:46Z</time>
      </trkpt>
      <trkpt lat="41.37392" lon="9.16489">
        <ele>1.58</ele>
        <time>2017-10-10T16:29:57Z</time>
      </trkpt>
      <trkpt lat="41.37413" lon="9.1646">
        <ele>1.58</ele>
        <time>2017-10-10T16:30:10Z</time>
      </trkpt>
      <trkpt lat="41.37435" lon="9.16428">
        <ele>1.58</ele>
        <time>2017-10-10T16:30:24Z</time>
      </trkpt>
      <trkpt lat="41.37457" lon="9.16395">
        <ele>1.58</ele>
        <time>2017-10-10T16:30:38Z</time>
      </trkpt>
      <trkpt lat="41.37476" lon="9.16367">
        <ele>2.54</ele>
        <time>2017-10-10T16:30:50Z</time>
      </trkpt>
      <trkpt lat="41.37497" lon="9.16339">
        <ele>2.54</ele>
        <time>2017-10-10T16:31:04Z</time>
      </trkpt>
      <trkpt lat="41.37512" lon="9.16321">
        <ele>2.06</ele>
        <time>2017-10-10T16:31:15Z</time>
      </trkpt>
      <trkpt lat="41.37529" lon="9.16298">
        <ele>2.06</ele>
        <time>2017-10-10T16:31:28Z</time>
      </trkpt>
      <trkpt lat="41.37547" lon="9.16271">
        <ele>2.06</ele>
        <time>2017-10-10T16:31:41Z</time>
      </trkpt>
      <trkpt lat="41.37572" lon="9.16238">
        <ele>1.58</ele>
        <time>2017-10-10T16:31:56Z</time>
      </trkpt>
      <trkpt lat="41.37592" lon="9.16208">
        <ele>2.54</ele>
        <time>2017-10-10T16:32:09Z</time>
      </trkpt>
      <trkpt lat="41.37612" lon="9.16179">
        <ele>3.02</ele>
        <time>2017-10-10T16:32:21Z</time>
      </trkpt>
      <trkpt lat="41.37632" lon="9.16147">
        <ele>3.02</ele>
        <time>2017-10-10T16:32:33Z</time>
      </trkpt>
      <trkpt lat="41.37656" lon="9.16111">
        <ele>2.06</ele>
        <time>2017-10-10T16:32:46Z</time>
      </trkpt>
      <trkpt lat="41.37677" lon="9.16075">
        <ele>2.06</ele>
        <time>2017-10-10T16:32:59Z</time>
      </trkpt>
      <trkpt lat="41.37699" lon="9.1604">
        <ele>2.06</ele>
        <time>2017-10-10T16:33:12Z</time>
      </trkpt>
      <trkpt lat="41.37721" lon="9.16004">
        <ele>2.06</ele>
        <time>2017-10-10T16:33:25Z</time>
      </trkpt>
      <trkpt lat="41.37742" lon="9.15973">
        <ele>2.54</ele>
        <time>2017-10-10T16:33:37Z</time>
      </trkpt>
      <trkpt lat="41.37766" lon="9.15936">
        <ele>2.06</ele>
        <time>2017-10-10T16:33:50Z</time>
      </trkpt>
      <trkpt lat="41.37793" lon="9.15889">
        <ele>2.06</ele>
        <time>2017-10-10T16:34:06Z</time>
      </trkpt>
      <trkpt lat="41.3782" lon="9.15847">
        <ele>2.54</ele>
        <time>2017-10-10T16:34:22Z</time>
      </trkpt>
      <trkpt lat="41.37841" lon="9.15814">
        <ele>3.02</ele>
        <time>2017-10-10T16:34:35Z</time>
      </trkpt>
      <trkpt lat="41.37845" lon="9.15807">
        <ele>3.02</ele>
        <time>2017-10-10T16:34:38Z</time>
      </trkpt>
      <trkpt lat="41.37867" lon="9.15773">
        <ele>2.06</ele>
        <time>2017-10-10T16:34:52Z</time>
      </trkpt>
      <trkpt lat="41.37886" lon="9.15743">
        <ele>1.58</ele>
        <time>2017-10-10T16:35:05Z</time>
      </trkpt>
      <trkpt lat="41.37898" lon="9.15727">
        <ele>1.1</ele>
        <time>2017-10-10T16:35:13Z</time>
      </trkpt>
      <trkpt lat="41.37919" lon="9.15696">
        <ele>0.62</ele>
        <time>2017-10-10T16:35:29Z</time>
      </trkpt>
      <trkpt lat="41.37934" lon="9.15676">
        <ele>1.58</ele>
        <time>2017-10-10T16:35:41Z</time>
      </trkpt>
      <trkpt lat="41.37949" lon="9.15655">
        <ele>2.06</ele>
        <time>2017-10-10T16:35:54Z</time>
      </trkpt>
      <trkpt lat="41.37969" lon="9.15631">
        <ele>2.06</ele>
        <time>2017-10-10T16:36:07Z</time>
      </trkpt>
      <trkpt lat="41.37988" lon="9.15605">
        <ele>2.54</ele>
        <time>2017-10-10T16:36:19Z</time>
      </trkpt>
      <trkpt lat="41.38008" lon="9.15577">
        <ele>2.54</ele>
        <time>2017-10-10T16:36:31Z</time>
      </trkpt>
      <trkpt lat="41.3803" lon="9.15542">
        <ele>3.02</ele>
        <time>2017-10-10T16:36:45Z</time>
      </trkpt>
      <trkpt lat="41.3805" lon="9.15514">
        <ele>3.5</ele>
        <time>2017-10-10T16:36:57Z</time>
      </trkpt>
      <trkpt lat="41.3807" lon="9.15483">
        <ele>3.02</ele>
        <time>2017-10-10T16:37:10Z</time>
      </trkpt>
      <trkpt lat="41.38096" lon="9.15445">
        <ele>2.06</ele>
        <time>2017-10-10T16:37:25Z</time>
      </trkpt>
      <trkpt lat="41.38118" lon="9.15412">
        <ele>2.54</ele>
        <time>2017-10-10T16:37:38Z</time>
      </trkpt>
      <trkpt lat="41.38138" lon="9.15383">
        <ele>2.54</ele>
        <time>2017-10-10T16:37:50Z</time>
      </trkpt>
      <trkpt lat="41.38157" lon="9.15356">
        <ele>2.54</ele>
        <time>2017-10-10T16:38:01Z</time>
      </trkpt>
      <trkpt lat="41.38182" lon="9.15318">
        <ele>2.06</ele>
        <time>2017-10-10T16:38:16Z</time>
      </trkpt>
      <trkpt lat="41.38205" lon="9.15285">
        <ele>2.54</ele>
        <time>2017-10-10T16:38:29Z</time>
      </trkpt>
      <trkpt lat="41.38223" lon="9.15255">
        <ele>1.58</ele>
        <time>2017-10-10T16:38:41Z</time>
      </trkpt>
      <trkpt lat="41.38224" lon="9.15252">
        <ele>1.58</ele>
        <time>2017-10-10T16:38:42Z</time>
      </trkpt>
      <trkpt lat="41.38232" lon="9.15241">
        <ele>2.06</ele>
        <time>2017-10-10T16:38:47Z</time>
      </trkpt>
      <trkpt lat="41.38251" lon="9.1521">
        <ele>1.58</ele>
        <time>2017-10-10T16:39:01Z</time>
      </trkpt>
      <trkpt lat="41.38259" lon="9.15182">
        <ele>1.58</ele>
        <time>2017-10-10T16:39:17Z</time>
      </trkpt>
      <trkpt lat="41.38261" lon="9.15176">
        <ele>1.58</ele>
        <time>2017-10-10T16:39:30Z</time>
      </trkpt>
      <trkpt lat="41.38266" lon="9.15168">
        <ele>1.1</ele>
        <time>2017-10-10T16:39:41Z</time>
      </trkpt>
      <trkpt lat="41.38274" lon="9.15148">
        <ele>1.58</ele>
        <time>2017-10-10T16:39:55Z</time>
      </trkpt>
      <trkpt lat="41.38281" lon="9.15124">
        <ele>2.54</ele>
        <time>2017-10-10T16:40:09Z</time>
      </trkpt>
      <trkpt lat="41.38283" lon="9.15108">
        <ele>2.54</ele>
        <time>2017-10-10T16:40:17Z</time>
      </trkpt>
      <trkpt lat="41.38287" lon="9.15096">
        <ele>2.54</ele>
        <time>2017-10-10T16:40:24Z</time>
      </trkpt>
      <trkpt lat="41.38301" lon="9.15073">
        <ele>1.58</ele>
        <time>2017-10-10T16:40:36Z</time>
      </trkpt>
      <trkpt lat="41.38317" lon="9.15041">
        <ele>1.58</ele>
        <time>2017-10-10T16:40:49Z</time>
      </trkpt>
      <trkpt lat="41.38336" lon="9.15004">
        <ele>2.06</ele>
        <time>2017-10-10T16:41:04Z</time>
      </trkpt>
      <trkpt lat="41.38352" lon="9.14983">
        <ele>1.1</ele>
        <time>2017-10-10T16:41:14Z</time>
      </trkpt>
      <trkpt lat="41.38359" lon="9.14974">
        <ele>1.1</ele>
        <time>2017-10-10T16:41:18Z</time>
      </trkpt>
      <trkpt lat="41.38382" lon="9.14943">
        <ele>1.58</ele>
        <time>2017-10-10T16:41:32Z</time>
      </trkpt>
      <trkpt lat="41.38398" lon="9.1492">
        <ele>1.58</ele>
        <time>2017-10-10T16:41:42Z</time>
      </trkpt>
      <trkpt lat="41.38415" lon="9.14904">
        <ele>1.1</ele>
        <time>2017-10-10T16:41:51Z</time>
      </trkpt>
      <trkpt lat="41.38422" lon="9.14895">
        <ele>1.58</ele>
        <time>2017-10-10T16:41:55Z</time>
      </trkpt>
      <trkpt lat="41.38451" lon="9.14866">
        <ele>0.62</ele>
        <time>2017-10-10T16:42:10Z</time>
      </trkpt>
      <trkpt lat="41.3848" lon="9.14839">
        <ele>0.14</ele>
        <time>2017-10-10T16:42:24Z</time>
      </trkpt>
      <trkpt lat="41.38504" lon="9.14821">
        <ele>1.1</ele>
        <time>2017-10-10T16:42:35Z</time>
      </trkpt>
      <trkpt lat="41.38528" lon="9.14803">
        <ele>0.62</ele>
        <time>2017-10-10T16:42:46Z</time>
      </trkpt>
      <trkpt lat="41.38565" lon="9.14779">
        <ele>1.58</ele>
        <time>2017-10-10T16:43:02Z</time>
      </trkpt>
      <trkpt lat="41.38604" lon="9.14769">
        <ele>1.1</ele>
        <time>2017-10-10T16:43:17Z</time>
      </trkpt>
      <trkpt lat="41.38633" lon="9.14765">
        <ele>1.1</ele>
        <time>2017-10-10T16:43:28Z</time>
      </trkpt>
      <trkpt lat="41.38672" lon="9.14765">
        <ele>1.1</ele>
        <time>2017-10-10T16:43:42Z</time>
      </trkpt>
      <trkpt lat="41.38703" lon="9.14769">
        <ele>1.1</ele>
        <time>2017-10-10T16:43:53Z</time>
      </trkpt>
      <trkpt lat="41.38733" lon="9.14774">
        <ele>0.62</ele>
        <time>2017-10-10T16:44:04Z</time>
      </trkpt>
      <trkpt lat="41.38766" lon="9.14795">
        <ele>0.62</ele>
        <time>2017-10-10T16:44:17Z</time>
      </trkpt>
      <trkpt lat="41.38805" lon="9.14834">
        <ele>0.14</ele>
        <time>2017-10-10T16:44:34Z</time>
      </trkpt>
      <trkpt lat="41.38838" lon="9.14887">
        <ele>0.14</ele>
        <time>2017-10-10T16:44:52Z</time>
      </trkpt>
      <trkpt lat="41.38871" lon="9.1495">
        <ele>0.14</ele>
        <time>2017-10-10T16:45:12Z</time>
      </trkpt>
      <trkpt lat="41.38895" lon="9.15024">
        <ele>-1.3</ele>
        <time>2017-10-10T16:45:33Z</time>
      </trkpt>
      <trkpt lat="41.3891" lon="9.15092">
        <ele>-0.82</ele>
        <time>2017-10-10T16:45:51Z</time>
      </trkpt>
      <trkpt lat="41.38921" lon="9.15165">
        <ele>-0.34</ele>
        <time>2017-10-10T16:46:10Z</time>
      </trkpt>
      <trkpt lat="41.38928" lon="9.15237">
        <ele>1.1</ele>
        <time>2017-10-10T16:46:30Z</time>
      </trkpt>
      <trkpt lat="41.38935" lon="9.15314">
        <ele>1.1</ele>
        <time>2017-10-10T16:46:54Z</time>
      </trkpt>
      <trkpt lat="41.38935" lon="9.15372">
        <ele>1.58</ele>
        <time>2017-10-10T16:47:13Z</time>
      </trkpt>
      <trkpt lat="41.38932" lon="9.15428">
        <ele>1.58</ele>
        <time>2017-10-10T16:47:31Z</time>
      </trkpt>
      <trkpt lat="41.38929" lon="9.1549">
        <ele>0.62</ele>
        <time>2017-10-10T16:47:51Z</time>
      </trkpt>
      <trkpt lat="41.38929" lon="9.15557">
        <ele>1.1</ele>
        <time>2017-10-10T16:48:13Z</time>
      </trkpt>
      <trkpt lat="41.38928" lon="9.15628">
        <ele>0.14</ele>
        <time>2017-10-10T16:48:37Z</time>
      </trkpt>
      <trkpt lat="41.38921" lon="9.15705">
        <ele>-1.3</ele>
        <time>2017-10-10T16:49:03Z</time>
      </trkpt>
      <trkpt lat="41.38914" lon="9.1578">
        <ele>-0.34</ele>
        <time>2017-10-10T16:49:28Z</time>
      </trkpt>
      <trkpt lat="41.38905" lon="9.15864">
        <ele>-0.82</ele>
        <time>2017-10-10T16:49:56Z</time>
      </trkpt>
      <trkpt lat="41.38901" lon="9.15916">
        <ele>-0.34</ele>
        <time>2017-10-10T16:50:15Z</time>
      </trkpt>
      <trkpt lat="41.38899" lon="9.15974">
        <ele>-0.82</ele>
        <time>2017-10-10T16:50:43Z</time>
      </trkpt>
      <trkpt lat="41.38897" lon="9.1602">
        <ele>-0.34</ele>
        <time>2017-10-10T16:51:08Z</time>
      </trkpt>
      <trkpt lat="41.38896" lon="9.16063">
        <ele>-2.27</ele>
        <time>2017-10-10T16:51:35Z</time>
      </trkpt>
      <trkpt lat="41.38892" lon="9.16099">
        <ele>-1.3</ele>
        <time>2017-10-10T16:51:57Z</time>
      </trkpt>
      <trkpt lat="41.38886" lon="9.16144">
        <ele>1.1</ele>
        <time>2017-10-10T16:52:24Z</time>
      </trkpt>
      <trkpt lat="41.38879" lon="9.16188">
        <ele>2.54</ele>
        <time>2017-10-10T16:52:52Z</time>
      </trkpt>
      <trkpt lat="41.3887" lon="9.16232">
        <ele>2.54</ele>
        <time>2017-10-10T16:53:20Z</time>
      </trkpt>
      <trkpt lat="41.38865" lon="9.16291">
        <ele>0.62</ele>
        <time>2017-10-10T16:53:56Z</time>
      </trkpt>
      <trkpt lat="41.38868" lon="9.16333">
        <ele>0.62</ele>
        <time>2017-10-10T16:54:22Z</time>
      </trkpt>
      <trkpt lat="41.38877" lon="9.16376">
        <ele>3.5</ele>
        <time>2017-10-10T16:54:51Z</time>
      </trkpt>
      <trkpt lat="41.3888" lon="9.16419">
        <ele>3.98</ele>
        <time>2017-10-10T16:55:19Z</time>
      </trkpt>
      <trkpt lat="41.3889" lon="9.16441">
        <ele>4.46</ele>
        <time>2017-10-10T16:55:36Z</time>
      </trkpt>
      <trkpt lat="41.38892" lon="9.16446">
        <ele>3.98</ele>
        <time>2017-10-10T16:55:56Z</time>
      </trkpt>
      <trkpt lat="41.38894" lon="9.16445">
        <ele>3.98</ele>
        <time>2017-10-10T16:55:58Z</time>
      </trkpt>
      <trkpt lat="41.38901" lon="9.16422">
        <ele>2.06</ele>
        <time>2017-10-10T16:56:15Z</time>
      </trkpt>
      <trkpt lat="41.38887" lon="9.16388">
        <ele>-0.34</ele>
        <time>2017-10-10T16:56:40Z</time>
      </trkpt>
      <trkpt lat="41.38878" lon="9.16357">
        <ele>2.06</ele>
        <time>2017-10-10T16:57:08Z</time>
      </trkpt>
      <trkpt lat="41.38874" lon="9.16325">
        <ele>3.02</ele>
        <time>2017-10-10T16:57:38Z</time>
      </trkpt>
      <trkpt lat="41.3887" lon="9.16292">
        <ele>1.1</ele>
        <time>2017-10-10T16:58:07Z</time>
      </trkpt>
      <trkpt lat="41.38875" lon="9.16255">
        <ele>0.62</ele>
        <time>2017-10-10T16:58:39Z</time>
      </trkpt>
      <trkpt lat="41.38877" lon="9.16247">
        <ele>0.62</ele>
        <time>2017-10-10T16:59:00Z</time>
      </trkpt>
      <trkpt lat="41.3887" lon="9.16267">
        <ele>-0.82</ele>
        <time>2017-10-10T16:59:16Z</time>
      </trkpt>
      <trkpt lat="41.38854" lon="9.16291">
        <ele>0.62</ele>
        <time>2017-10-10T16:59:43Z</time>
      </trkpt>
      <trkpt lat="41.38841" lon="9.16299">
        <ele>0.14</ele>
        <time>2017-10-10T17:00:02Z</time>
      </trkpt>
      <trkpt lat="41.38847" lon="9.16301">
        <ele>0.62</ele>
        <time>2017-10-10T17:00:14Z</time>
      </trkpt>
      <trkpt lat="41.38864" lon="9.16286">
        <ele>1.1</ele>
        <time>2017-10-10T17:00:38Z</time>
      </trkpt>
      <trkpt lat="41.38869" lon="9.16256">
        <ele>1.58</ele>
        <time>2017-10-10T17:01:07Z</time>
      </trkpt>
      <trkpt lat="41.38872" lon="9.16228">
        <ele>2.54</ele>
        <time>2017-10-10T17:01:32Z</time>
      </trkpt>
      <trkpt lat="41.38877" lon="9.16196">
        <ele>1.58</ele>
        <time>2017-10-10T17:01:59Z</time>
      </trkpt>
      <trkpt lat="41.38883" lon="9.16161">
        <ele>1.58</ele>
        <time>2017-10-10T17:02:30Z</time>
      </trkpt>
      <trkpt lat="41.38886" lon="9.16136">
        <ele>0.14</ele>
        <time>2017-10-10T17:02:54Z</time>
      </trkpt>
      <trkpt lat="41.38885" lon="9.16102">
        <ele>-0.82</ele>
        <time>2017-10-10T17:03:26Z</time>
      </trkpt>
      <trkpt lat="41.38885" lon="9.16071">
        <ele>-1.79</ele>
        <time>2017-10-10T17:03:54Z</time>
      </trkpt>
      <trkpt lat="41.38883" lon="9.16049">
        <ele>-0.34</ele>
        <time>2017-10-10T17:04:18Z</time>
      </trkpt>
      <trkpt lat="41.38879" lon="9.16034">
        <ele>-0.34</ele>
        <time>2017-10-10T17:04:47Z</time>
      </trkpt>
      <trkpt lat="41.38879" lon="9.16033">
        <ele>0.14</ele>
        <time>2017-10-10T17:04:57Z</time>
      </trkpt>
    </trkseg>
  </trk>
  <trk>
    <name><![CDATA[Tracé actuel: 11 OCT 2017 11:58]]></name>
    <trkseg>
      <trkpt lat="41.38931" lon="9.15944">
        <ele>2.06</ele>
        <time>2017-10-11T10:58:28Z</time>
      </trkpt>
      <trkpt lat="41.38934" lon="9.15886">
        <ele>0.62</ele>
        <time>2017-10-11T10:58:54Z</time>
      </trkpt>
      <trkpt lat="41.38928" lon="9.15799">
        <ele>0.62</ele>
        <time>2017-10-11T10:59:24Z</time>
      </trkpt>
      <trkpt lat="41.38931" lon="9.15755">
        <ele>1.58</ele>
        <time>2017-10-11T10:59:50Z</time>
      </trkpt>
      <trkpt lat="41.38934" lon="9.15712">
        <ele>3.98</ele>
        <time>2017-10-11T11:00:17Z</time>
      </trkpt>
      <trkpt lat="41.38936" lon="9.15673">
        <ele>3.02</ele>
        <time>2017-10-11T11:00:44Z</time>
      </trkpt>
      <trkpt lat="41.3894" lon="9.15625">
        <ele>1.58</ele>
        <time>2017-10-11T11:01:11Z</time>
      </trkpt>
      <trkpt lat="41.38948" lon="9.15549">
        <ele>0.14</ele>
        <time>2017-10-11T11:01:45Z</time>
      </trkpt>
      <trkpt lat="41.3895" lon="9.15474">
        <ele>1.58</ele>
        <time>2017-10-11T11:02:15Z</time>
      </trkpt>
      <trkpt lat="41.38959" lon="9.15411">
        <ele>1.1</ele>
        <time>2017-10-11T11:02:41Z</time>
      </trkpt>
      <trkpt lat="41.38955" lon="9.15355">
        <ele>2.06</ele>
        <time>2017-10-11T11:03:04Z</time>
      </trkpt>
      <trkpt lat="41.38957" lon="9.15305">
        <ele>1.58</ele>
        <time>2017-10-11T11:03:29Z</time>
      </trkpt>
      <trkpt lat="41.38956" lon="9.15259">
        <ele>2.54</ele>
        <time>2017-10-11T11:04:00Z</time>
      </trkpt>
      <trkpt lat="41.38946" lon="9.15209">
        <ele>2.06</ele>
        <time>2017-10-11T11:04:26Z</time>
      </trkpt>
      <trkpt lat="41.3894" lon="9.15142">
        <ele>1.1</ele>
        <time>2017-10-11T11:04:53Z</time>
      </trkpt>
      <trkpt lat="41.38932" lon="9.15076">
        <ele>1.1</ele>
        <time>2017-10-11T11:05:19Z</time>
      </trkpt>
      <trkpt lat="41.38914" lon="9.14997">
        <ele>1.1</ele>
        <time>2017-10-11T11:05:50Z</time>
      </trkpt>
      <trkpt lat="41.38896" lon="9.14932">
        <ele>2.54</ele>
        <time>2017-10-11T11:06:17Z</time>
      </trkpt>
      <trkpt lat="41.38881" lon="9.14872">
        <ele>2.54</ele>
        <time>2017-10-11T11:06:41Z</time>
      </trkpt>
      <trkpt lat="41.38854" lon="9.14823">
        <ele>1.58</ele>
        <time>2017-10-11T11:07:05Z</time>
      </trkpt>
      <trkpt lat="41.38822" lon="9.14789">
        <ele>2.06</ele>
        <time>2017-10-11T11:07:28Z</time>
      </trkpt>
      <trkpt lat="41.38783" lon="9.14754">
        <ele>2.06</ele>
        <time>2017-10-11T11:07:53Z</time>
      </trkpt>
      <trkpt lat="41.38745" lon="9.14721">
        <ele>1.1</ele>
        <time>2017-10-11T11:08:17Z</time>
      </trkpt>
      <trkpt lat="41.38706" lon="9.14694">
        <ele>-0.34</ele>
        <time>2017-10-11T11:08:40Z</time>
      </trkpt>
      <trkpt lat="41.38666" lon="9.14677">
        <ele>-0.82</ele>
        <time>2017-10-11T11:09:02Z</time>
      </trkpt>
      <trkpt lat="41.38628" lon="9.14659">
        <ele>-0.34</ele>
        <time>2017-10-11T11:09:23Z</time>
      </trkpt>
      <trkpt lat="41.38596" lon="9.14646">
        <ele>-0.34</ele>
        <time>2017-10-11T11:09:40Z</time>
      </trkpt>
      <trkpt lat="41.38561" lon="9.14637">
        <ele>0.14</ele>
        <time>2017-10-11T11:09:59Z</time>
      </trkpt>
      <trkpt lat="41.38529" lon="9.14629">
        <ele>0.14</ele>
        <time>2017-10-11T11:10:16Z</time>
      </trkpt>
      <trkpt lat="41.385" lon="9.14613">
        <ele>1.1</ele>
        <time>2017-10-11T11:10:33Z</time>
      </trkpt>
      <trkpt lat="41.38473" lon="9.14581">
        <ele>1.58</ele>
        <time>2017-10-11T11:10:53Z</time>
      </trkpt>
      <trkpt lat="41.38445" lon="9.14554">
        <ele>1.58</ele>
        <time>2017-10-11T11:11:11Z</time>
      </trkpt>
      <trkpt lat="41.38419" lon="9.14564">
        <ele>-0.34</ele>
        <time>2017-10-11T11:11:26Z</time>
      </trkpt>
      <trkpt lat="41.3839" lon="9.14595">
        <ele>1.1</ele>
        <time>2017-10-11T11:11:45Z</time>
      </trkpt>
      <trkpt lat="41.38363" lon="9.1462">
        <ele>0.14</ele>
        <time>2017-10-11T11:12:03Z</time>
      </trkpt>
      <trkpt lat="41.38343" lon="9.14634">
        <ele>0.62</ele>
        <time>2017-10-11T11:12:22Z</time>
      </trkpt>
      <trkpt lat="41.38327" lon="9.1464">
        <ele>1.1</ele>
        <time>2017-10-11T11:12:40Z</time>
      </trkpt>
      <trkpt lat="41.38316" lon="9.1465">
        <ele>1.1</ele>
        <time>2017-10-11T11:12:57Z</time>
      </trkpt>
      <trkpt lat="41.38298" lon="9.14662">
        <ele>-0.34</ele>
        <time>2017-10-11T11:13:15Z</time>
      </trkpt>
      <trkpt lat="41.3827" lon="9.14677">
        <ele>1.1</ele>
        <time>2017-10-11T11:13:34Z</time>
      </trkpt>
      <trkpt lat="41.38242" lon="9.14703">
        <ele>0.14</ele>
        <time>2017-10-11T11:13:54Z</time>
      </trkpt>
      <trkpt lat="41.38223" lon="9.14719">
        <ele>-0.34</ele>
        <time>2017-10-11T11:14:07Z</time>
      </trkpt>
      <trkpt lat="41.3819" lon="9.14723">
        <ele>0.62</ele>
        <time>2017-10-11T11:14:27Z</time>
      </trkpt>
      <trkpt lat="41.38158" lon="9.14726">
        <ele>0.14</ele>
        <time>2017-10-11T11:14:48Z</time>
      </trkpt>
      <trkpt lat="41.38135" lon="9.14727">
        <ele>0.14</ele>
        <time>2017-10-11T11:15:05Z</time>
      </trkpt>
      <trkpt lat="41.38121" lon="9.14746">
        <ele>0.14</ele>
        <time>2017-10-11T11:15:21Z</time>
      </trkpt>
      <trkpt lat="41.38115" lon="9.14773">
        <ele>1.58</ele>
        <time>2017-10-11T11:15:43Z</time>
      </trkpt>
      <trkpt lat="41.38109" lon="9.1479">
        <ele>1.58</ele>
        <time>2017-10-11T11:15:59Z</time>
      </trkpt>
      <trkpt lat="41.38105" lon="9.14804">
        <ele>1.58</ele>
        <time>2017-10-11T11:16:16Z</time>
      </trkpt>
      <trkpt lat="41.38101" lon="9.1482">
        <ele>1.58</ele>
        <time>2017-10-11T11:16:37Z</time>
      </trkpt>
      <trkpt lat="41.38099" lon="9.14827">
        <ele>1.1</ele>
        <time>2017-10-11T11:16:54Z</time>
      </trkpt>
      <trkpt lat="41.38099" lon="9.14836">
        <ele>0.62</ele>
        <time>2017-10-11T11:17:19Z</time>
      </trkpt>
      <trkpt lat="41.38105" lon="9.14847">
        <ele>0.14</ele>
        <time>2017-10-11T11:17:40Z</time>
      </trkpt>
      <trkpt lat="41.38113" lon="9.14859">
        <ele>0.62</ele>
        <time>2017-10-11T11:18:01Z</time>
      </trkpt>
      <trkpt lat="41.38116" lon="9.14868">
        <ele>-0.34</ele>
        <time>2017-10-11T11:18:21Z</time>
      </trkpt>
      <trkpt lat="41.38118" lon="9.14872">
        <ele>-0.82</ele>
        <time>2017-10-11T11:18:27Z</time>
      </trkpt>
      <trkpt lat="41.38115" lon="9.14892">
        <ele>0.14</ele>
        <time>2017-10-11T11:18:47Z</time>
      </trkpt>
      <trkpt lat="41.38112" lon="9.14895">
        <ele>0.14</ele>
        <time>2017-10-11T11:19:06Z</time>
      </trkpt>
      <trkpt lat="41.38111" lon="9.14898">
        <ele>0.14</ele>
        <time>2017-10-11T11:19:22Z</time>
      </trkpt>
      <trkpt lat="41.38112" lon="9.14905">
        <ele>0.14</ele>
        <time>2017-10-11T11:19:41Z</time>
      </trkpt>
      <trkpt lat="41.38113" lon="9.14923">
        <ele>1.1</ele>
        <time>2017-10-11T11:20:03Z</time>
      </trkpt>
      <trkpt lat="41.38114" lon="9.14945">
        <ele>0.62</ele>
        <time>2017-10-11T11:20:23Z</time>
      </trkpt>
      <trkpt lat="41.38119" lon="9.14973">
        <ele>0.14</ele>
        <time>2017-10-11T11:20:43Z</time>
      </trkpt>
      <trkpt lat="41.3813" lon="9.14996">
        <ele>0.62</ele>
        <time>2017-10-11T11:21:00Z</time>
      </trkpt>
      <trkpt lat="41.38145" lon="9.15027">
        <ele>-0.34</ele>
        <time>2017-10-11T11:21:22Z</time>
      </trkpt>
      <trkpt lat="41.38155" lon="9.15058">
        <ele>-0.34</ele>
        <time>2017-10-11T11:21:43Z</time>
      </trkpt>
      <trkpt lat="41.38164" lon="9.15095">
        <ele>0.14</ele>
        <time>2017-10-11T11:22:07Z</time>
      </trkpt>
      <trkpt lat="41.38166" lon="9.15126">
        <ele>0.14</ele>
        <time>2017-10-11T11:22:26Z</time>
      </trkpt>
      <trkpt lat="41.38164" lon="9.15157">
        <ele>-1.3</ele>
        <time>2017-10-11T11:22:46Z</time>
      </trkpt>
      <trkpt lat="41.38161" lon="9.15186">
        <ele>-0.34</ele>
        <time>2017-10-11T11:23:04Z</time>
      </trkpt>
      <trkpt lat="41.38157" lon="9.15205">
        <ele>-0.34</ele>
        <time>2017-10-11T11:23:22Z</time>
      </trkpt>
      <trkpt lat="41.38168" lon="9.15222">
        <ele>-0.34</ele>
        <time>2017-10-11T11:23:43Z</time>
      </trkpt>
      <trkpt lat="41.38177" lon="9.15256">
        <ele>-0.34</ele>
        <time>2017-10-11T11:24:08Z</time>
      </trkpt>
      <trkpt lat="41.38168" lon="9.1528">
        <ele>-0.34</ele>
        <time>2017-10-11T11:24:24Z</time>
      </trkpt>
      <trkpt lat="41.38152" lon="9.15298">
        <ele>-0.82</ele>
        <time>2017-10-11T11:24:41Z</time>
      </trkpt>
      <trkpt lat="41.38129" lon="9.15317">
        <ele>-1.3</ele>
        <time>2017-10-11T11:25:03Z</time>
      </trkpt>
      <trkpt lat="41.3811" lon="9.15335">
        <ele>-0.82</ele>
        <time>2017-10-11T11:25:21Z</time>
      </trkpt>
      <trkpt lat="41.38106" lon="9.15367">
        <ele>-0.82</ele>
        <time>2017-10-11T11:25:39Z</time>
      </trkpt>
      <trkpt lat="41.38096" lon="9.15396">
        <ele>-0.82</ele>
        <time>2017-10-11T11:25:56Z</time>
      </trkpt>
      <trkpt lat="41.38079" lon="9.15426">
        <ele>-0.82</ele>
        <time>2017-10-11T11:26:17Z</time>
      </trkpt>
      <trkpt lat="41.3806" lon="9.15447">
        <ele>0.14</ele>
        <time>2017-10-11T11:26:36Z</time>
      </trkpt>
      <trkpt lat="41.38041" lon="9.15466">
        <ele>0.14</ele>
        <time>2017-10-11T11:26:53Z</time>
      </trkpt>
      <trkpt lat="41.38021" lon="9.15489">
        <ele>0.62</ele>
        <time>2017-10-11T11:27:13Z</time>
      </trkpt>
      <trkpt lat="41.38006" lon="9.15493">
        <ele>0.14</ele>
        <time>2017-10-11T11:27:32Z</time>
      </trkpt>
      <trkpt lat="41.37992" lon="9.15495">
        <ele>-0.82</ele>
        <time>2017-10-11T11:27:54Z</time>
      </trkpt>
      <trkpt lat="41.37986" lon="9.15497">
        <ele>-1.79</ele>
        <time>2017-10-11T11:28:11Z</time>
      </trkpt>
      <trkpt lat="41.3798" lon="9.15493">
        <ele>-1.3</ele>
        <time>2017-10-11T11:28:26Z</time>
      </trkpt>
      <trkpt lat="41.37962" lon="9.15467">
        <ele>-0.34</ele>
        <time>2017-10-11T11:28:48Z</time>
      </trkpt>
      <trkpt lat="41.37936" lon="9.15454">
        <ele>-0.34</ele>
        <time>2017-10-11T11:29:07Z</time>
      </trkpt>
      <trkpt lat="41.37902" lon="9.15437">
        <ele>-0.34</ele>
        <time>2017-10-11T11:29:29Z</time>
      </trkpt>
      <trkpt lat="41.37864" lon="9.15413">
        <ele>-0.34</ele>
        <time>2017-10-11T11:29:52Z</time>
      </trkpt>
      <trkpt lat="41.37829" lon="9.15397">
        <ele>-1.3</ele>
        <time>2017-10-11T11:30:11Z</time>
      </trkpt>
      <trkpt lat="41.37792" lon="9.15384">
        <ele>0.62</ele>
        <time>2017-10-11T11:30:33Z</time>
      </trkpt>
      <trkpt lat="41.3776" lon="9.1536">
        <ele>-0.82</ele>
        <time>2017-10-11T11:30:54Z</time>
      </trkpt>
      <trkpt lat="41.37724" lon="9.15345">
        <ele>-0.82</ele>
        <time>2017-10-11T11:31:14Z</time>
      </trkpt>
      <trkpt lat="41.37694" lon="9.15339">
        <ele>0.14</ele>
        <time>2017-10-11T11:31:34Z</time>
      </trkpt>
      <trkpt lat="41.37668" lon="9.15321">
        <ele>-0.34</ele>
        <time>2017-10-11T11:31:52Z</time>
      </trkpt>
      <trkpt lat="41.37634" lon="9.15296">
        <ele>-0.82</ele>
        <time>2017-10-11T11:32:12Z</time>
      </trkpt>
      <trkpt lat="41.37598" lon="9.15265">
        <ele>-0.82</ele>
        <time>2017-10-11T11:32:32Z</time>
      </trkpt>
      <trkpt lat="41.37558" lon="9.15232">
        <ele>-0.34</ele>
        <time>2017-10-11T11:32:54Z</time>
      </trkpt>
      <trkpt lat="41.37518" lon="9.15202">
        <ele>-1.3</ele>
        <time>2017-10-11T11:33:14Z</time>
      </trkpt>
      <trkpt lat="41.37474" lon="9.15176">
        <ele>-1.3</ele>
        <time>2017-10-11T11:33:35Z</time>
      </trkpt>
      <trkpt lat="41.37434" lon="9.15159">
        <ele>-1.3</ele>
        <time>2017-10-11T11:33:55Z</time>
      </trkpt>
      <trkpt lat="41.37397" lon="9.15139">
        <ele>0.14</ele>
        <time>2017-10-11T11:34:17Z</time>
      </trkpt>
      <trkpt lat="41.37365" lon="9.15118">
        <ele>0.14</ele>
        <time>2017-10-11T11:34:36Z</time>
      </trkpt>
      <trkpt lat="41.37329" lon="9.15088">
        <ele>-1.3</ele>
        <time>2017-10-11T11:34:57Z</time>
      </trkpt>
      <trkpt lat="41.37288" lon="9.15056">
        <ele>-1.3</ele>
        <time>2017-10-11T11:35:19Z</time>
      </trkpt>
      <trkpt lat="41.37249" lon="9.15024">
        <ele>-1.3</ele>
        <time>2017-10-11T11:35:40Z</time>
      </trkpt>
      <trkpt lat="41.37214" lon="9.14999">
        <ele>-2.75</ele>
        <time>2017-10-11T11:35:59Z</time>
      </trkpt>
      <trkpt lat="41.37177" lon="9.14974">
        <ele>-3.71</ele>
        <time>2017-10-11T11:36:20Z</time>
      </trkpt>
      <trkpt lat="41.37133" lon="9.14944">
        <ele>-4.19</ele>
        <time>2017-10-11T11:36:43Z</time>
      </trkpt>
      <trkpt lat="41.37094" lon="9.14917">
        <ele>-2.27</ele>
        <time>2017-10-11T11:37:03Z</time>
      </trkpt>
      <trkpt lat="41.37054" lon="9.14891">
        <ele>-2.27</ele>
        <time>2017-10-11T11:37:23Z</time>
      </trkpt>
      <trkpt lat="41.37016" lon="9.14874">
        <ele>-0.82</ele>
        <time>2017-10-11T11:37:42Z</time>
      </trkpt>
      <trkpt lat="41.3698" lon="9.14864">
        <ele>0.14</ele>
        <time>2017-10-11T11:38:02Z</time>
      </trkpt>
      <trkpt lat="41.36945" lon="9.14849">
        <ele>0.62</ele>
        <time>2017-10-11T11:38:23Z</time>
      </trkpt>
      <trkpt lat="41.36908" lon="9.1483">
        <ele>-0.34</ele>
        <time>2017-10-11T11:38:44Z</time>
      </trkpt>
      <trkpt lat="41.36873" lon="9.14812">
        <ele>-0.82</ele>
        <time>2017-10-11T11:39:05Z</time>
      </trkpt>
      <trkpt lat="41.36839" lon="9.14792">
        <ele>-0.82</ele>
        <time>2017-10-11T11:39:26Z</time>
      </trkpt>
      <trkpt lat="41.36807" lon="9.14772">
        <ele>-0.34</ele>
        <time>2017-10-11T11:39:47Z</time>
      </trkpt>
      <trkpt lat="41.36779" lon="9.14755">
        <ele>-0.34</ele>
        <time>2017-10-11T11:40:05Z</time>
      </trkpt>
      <trkpt lat="41.3675" lon="9.14737">
        <ele>-0.82</ele>
        <time>2017-10-11T11:40:23Z</time>
      </trkpt>
      <trkpt lat="41.36719" lon="9.14722">
        <ele>0.14</ele>
        <time>2017-10-11T11:40:43Z</time>
      </trkpt>
      <trkpt lat="41.36681" lon="9.14708">
        <ele>-0.34</ele>
        <time>2017-10-11T11:41:07Z</time>
      </trkpt>
      <trkpt lat="41.36647" lon="9.14701">
        <ele>-0.34</ele>
        <time>2017-10-11T11:41:29Z</time>
      </trkpt>
      <trkpt lat="41.36615" lon="9.14699">
        <ele>0.14</ele>
        <time>2017-10-11T11:41:52Z</time>
      </trkpt>
      <trkpt lat="41.36586" lon="9.14693">
        <ele>0.14</ele>
        <time>2017-10-11T11:42:13Z</time>
      </trkpt>
      <trkpt lat="41.36549" lon="9.14683">
        <ele>-0.82</ele>
        <time>2017-10-11T11:42:40Z</time>
      </trkpt>
      <trkpt lat="41.3652" lon="9.14673">
        <ele>0.14</ele>
        <time>2017-10-11T11:43:01Z</time>
      </trkpt>
      <trkpt lat="41.36485" lon="9.1466">
        <ele>0.62</ele>
        <time>2017-10-11T11:43:22Z</time>
      </trkpt>
      <trkpt lat="41.36451" lon="9.14653">
        <ele>1.1</ele>
        <time>2017-10-11T11:43:43Z</time>
      </trkpt>
      <trkpt lat="41.36424" lon="9.14648">
        <ele>1.58</ele>
        <time>2017-10-11T11:44:04Z</time>
      </trkpt>
      <trkpt lat="41.36394" lon="9.14637">
        <ele>2.54</ele>
        <time>2017-10-11T11:44:27Z</time>
      </trkpt>
      <trkpt lat="41.36363" lon="9.1463">
        <ele>1.58</ele>
        <time>2017-10-11T11:44:50Z</time>
      </trkpt>
      <trkpt lat="41.36339" lon="9.14627">
        <ele>0.14</ele>
        <time>2017-10-11T11:45:10Z</time>
      </trkpt>
      <trkpt lat="41.36312" lon="9.14618">
        <ele>-0.82</ele>
        <time>2017-10-11T11:45:31Z</time>
      </trkpt>
      <trkpt lat="41.36281" lon="9.14609">
        <ele>-0.34</ele>
        <time>2017-10-11T11:45:56Z</time>
      </trkpt>
      <trkpt lat="41.36249" lon="9.14595">
        <ele>1.58</ele>
        <time>2017-10-11T11:46:20Z</time>
      </trkpt>
      <trkpt lat="41.36222" lon="9.1459">
        <ele>0.14</ele>
        <time>2017-10-11T11:46:38Z</time>
      </trkpt>
      <trkpt lat="41.36194" lon="9.14586">
        <ele>0.62</ele>
        <time>2017-10-11T11:46:57Z</time>
      </trkpt>
      <trkpt lat="41.36162" lon="9.14584">
        <ele>0.62</ele>
        <time>2017-10-11T11:47:19Z</time>
      </trkpt>
      <trkpt lat="41.36134" lon="9.14577">
        <ele>1.58</ele>
        <time>2017-10-11T11:47:41Z</time>
      </trkpt>
      <trkpt lat="41.36103" lon="9.14573">
        <ele>0.62</ele>
        <time>2017-10-11T11:48:04Z</time>
      </trkpt>
      <trkpt lat="41.36071" lon="9.14569">
        <ele>0.62</ele>
        <time>2017-10-11T11:48:27Z</time>
      </trkpt>
      <trkpt lat="41.36038" lon="9.14569">
        <ele>0.14</ele>
        <time>2017-10-11T11:48:48Z</time>
      </trkpt>
      <trkpt lat="41.36007" lon="9.14569">
        <ele>0.14</ele>
        <time>2017-10-11T11:49:09Z</time>
      </trkpt>
      <trkpt lat="41.35981" lon="9.14566">
        <ele>0.62</ele>
        <time>2017-10-11T11:49:26Z</time>
      </trkpt>
      <trkpt lat="41.35954" lon="9.14565">
        <ele>0.14</ele>
        <time>2017-10-11T11:49:45Z</time>
      </trkpt>
      <trkpt lat="41.35928" lon="9.14561">
        <ele>0.62</ele>
        <time>2017-10-11T11:50:05Z</time>
      </trkpt>
      <trkpt lat="41.35903" lon="9.14563">
        <ele>0.14</ele>
        <time>2017-10-11T11:50:26Z</time>
      </trkpt>
      <trkpt lat="41.35881" lon="9.14563">
        <ele>0.14</ele>
        <time>2017-10-11T11:50:42Z</time>
      </trkpt>
      <trkpt lat="41.35875" lon="9.14583">
        <ele>1.1</ele>
        <time>2017-10-11T11:50:57Z</time>
      </trkpt>
      <trkpt lat="41.35886" lon="9.1461">
        <ele>1.58</ele>
        <time>2017-10-11T11:51:17Z</time>
      </trkpt>
      <trkpt lat="41.35888" lon="9.14636">
        <ele>1.58</ele>
        <time>2017-10-11T11:51:37Z</time>
      </trkpt>
      <trkpt lat="41.3589" lon="9.14662">
        <ele>1.1</ele>
        <time>2017-10-11T11:51:56Z</time>
      </trkpt>
      <trkpt lat="41.35897" lon="9.14692">
        <ele>1.1</ele>
        <time>2017-10-11T11:52:18Z</time>
      </trkpt>
      <trkpt lat="41.35906" lon="9.14725">
        <ele>-0.34</ele>
        <time>2017-10-11T11:52:41Z</time>
      </trkpt>
      <trkpt lat="41.35913" lon="9.14753">
        <ele>1.1</ele>
        <time>2017-10-11T11:53:01Z</time>
      </trkpt>
      <trkpt lat="41.35921" lon="9.14783">
        <ele>1.1</ele>
        <time>2017-10-11T11:53:22Z</time>
      </trkpt>
      <trkpt lat="41.35931" lon="9.14813">
        <ele>1.1</ele>
        <time>2017-10-11T11:53:42Z</time>
      </trkpt>
      <trkpt lat="41.3594" lon="9.1485">
        <ele>1.58</ele>
        <time>2017-10-11T11:54:06Z</time>
      </trkpt>
      <trkpt lat="41.3595" lon="9.14882">
        <ele>2.06</ele>
        <time>2017-10-11T11:54:27Z</time>
      </trkpt>
      <trkpt lat="41.3596" lon="9.14921">
        <ele>1.58</ele>
        <time>2017-10-11T11:54:51Z</time>
      </trkpt>
      <trkpt lat="41.35966" lon="9.14957">
        <ele>1.1</ele>
        <time>2017-10-11T11:55:13Z</time>
      </trkpt>
      <trkpt lat="41.35976" lon="9.14997">
        <ele>1.58</ele>
        <time>2017-10-11T11:55:38Z</time>
      </trkpt>
      <trkpt lat="41.35985" lon="9.15034">
        <ele>2.06</ele>
        <time>2017-10-11T11:56:00Z</time>
      </trkpt>
      <trkpt lat="41.35994" lon="9.15071">
        <ele>2.06</ele>
        <time>2017-10-11T11:56:22Z</time>
      </trkpt>
      <trkpt lat="41.36005" lon="9.15115">
        <ele>1.58</ele>
        <time>2017-10-11T11:56:46Z</time>
      </trkpt>
      <trkpt lat="41.36011" lon="9.15153">
        <ele>1.58</ele>
        <time>2017-10-11T11:57:05Z</time>
      </trkpt>
      <trkpt lat="41.36019" lon="9.1519">
        <ele>2.06</ele>
        <time>2017-10-11T11:57:24Z</time>
      </trkpt>
      <trkpt lat="41.36027" lon="9.1523">
        <ele>2.54</ele>
        <time>2017-10-11T11:57:45Z</time>
      </trkpt>
      <trkpt lat="41.36033" lon="9.15267">
        <ele>2.54</ele>
        <time>2017-10-11T11:58:04Z</time>
      </trkpt>
      <trkpt lat="41.36036" lon="9.153">
        <ele>3.02</ele>
        <time>2017-10-11T11:58:21Z</time>
      </trkpt>
      <trkpt lat="41.3604" lon="9.15332">
        <ele>2.54</ele>
        <time>2017-10-11T11:58:39Z</time>
      </trkpt>
      <trkpt lat="41.36046" lon="9.15368">
        <ele>3.02</ele>
        <time>2017-10-11T11:59:00Z</time>
      </trkpt>
      <trkpt lat="41.36051" lon="9.15402">
        <ele>3.02</ele>
        <time>2017-10-11T11:59:20Z</time>
      </trkpt>
      <trkpt lat="41.36057" lon="9.15435">
        <ele>3.02</ele>
        <time>2017-10-11T11:59:41Z</time>
      </trkpt>
      <trkpt lat="41.36061" lon="9.1546">
        <ele>3.98</ele>
        <time>2017-10-11T12:00:00Z</time>
      </trkpt>
      <trkpt lat="41.36064" lon="9.15482">
        <ele>3.02</ele>
        <time>2017-10-11T12:00:19Z</time>
      </trkpt>
      <trkpt lat="41.36068" lon="9.15508">
        <ele>2.54</ele>
        <time>2017-10-11T12:00:42Z</time>
      </trkpt>
      <trkpt lat="41.36078" lon="9.15533">
        <ele>3.02</ele>
        <time>2017-10-11T12:01:02Z</time>
      </trkpt>
      <trkpt lat="41.36083" lon="9.15567">
        <ele>2.06</ele>
        <time>2017-10-11T12:01:26Z</time>
      </trkpt>
      <trkpt lat="41.36085" lon="9.15593">
        <ele>2.54</ele>
        <time>2017-10-11T12:01:49Z</time>
      </trkpt>
      <trkpt lat="41.36085" lon="9.15595">
        <ele>2.54</ele>
        <time>2017-10-11T12:01:50Z</time>
      </trkpt>
      <trkpt lat="41.36105" lon="9.15618">
        <ele>3.5</ele>
        <time>2017-10-11T12:02:11Z</time>
      </trkpt>
      <trkpt lat="41.36119" lon="9.15647">
        <ele>3.98</ele>
        <time>2017-10-11T12:02:28Z</time>
      </trkpt>
      <trkpt lat="41.36127" lon="9.15691">
        <ele>3.02</ele>
        <time>2017-10-11T12:02:51Z</time>
      </trkpt>
      <trkpt lat="41.36133" lon="9.15726">
        <ele>2.54</ele>
        <time>2017-10-11T12:03:10Z</time>
      </trkpt>
      <trkpt lat="41.3614" lon="9.1576">
        <ele>2.54</ele>
        <time>2017-10-11T12:03:30Z</time>
      </trkpt>
      <trkpt lat="41.36149" lon="9.15795">
        <ele>2.54</ele>
        <time>2017-10-11T12:03:53Z</time>
      </trkpt>
      <trkpt lat="41.36159" lon="9.15832">
        <ele>3.02</ele>
        <time>2017-10-11T12:04:16Z</time>
      </trkpt>
      <trkpt lat="41.36168" lon="9.15869">
        <ele>3.02</ele>
        <time>2017-10-11T12:04:38Z</time>
      </trkpt>
      <trkpt lat="41.36173" lon="9.15898">
        <ele>3.5</ele>
        <time>2017-10-11T12:04:58Z</time>
      </trkpt>
      <trkpt lat="41.36187" lon="9.15926">
        <ele>3.02</ele>
        <time>2017-10-11T12:05:18Z</time>
      </trkpt>
      <trkpt lat="41.36196" lon="9.15955">
        <ele>3.02</ele>
        <time>2017-10-11T12:05:34Z</time>
      </trkpt>
      <trkpt lat="41.36204" lon="9.15996">
        <ele>3.02</ele>
        <time>2017-10-11T12:05:57Z</time>
      </trkpt>
      <trkpt lat="41.36211" lon="9.16033">
        <ele>2.54</ele>
        <time>2017-10-11T12:06:22Z</time>
      </trkpt>
      <trkpt lat="41.36221" lon="9.16062">
        <ele>2.06</ele>
        <time>2017-10-11T12:06:44Z</time>
      </trkpt>
      <trkpt lat="41.36232" lon="9.16093">
        <ele>2.06</ele>
        <time>2017-10-11T12:07:06Z</time>
      </trkpt>
      <trkpt lat="41.36236" lon="9.16121">
        <ele>3.02</ele>
        <time>2017-10-11T12:07:28Z</time>
      </trkpt>
      <trkpt lat="41.36248" lon="9.16143">
        <ele>3.02</ele>
        <time>2017-10-11T12:07:46Z</time>
      </trkpt>
      <trkpt lat="41.36256" lon="9.16171">
        <ele>3.02</ele>
        <time>2017-10-11T12:08:05Z</time>
      </trkpt>
      <trkpt lat="41.36265" lon="9.16197">
        <ele>3.5</ele>
        <time>2017-10-11T12:08:24Z</time>
      </trkpt>
      <trkpt lat="41.36277" lon="9.16228">
        <ele>3.02</ele>
        <time>2017-10-11T12:08:45Z</time>
      </trkpt>
      <trkpt lat="41.36285" lon="9.16259">
        <ele>3.02</ele>
        <time>2017-10-11T12:09:07Z</time>
      </trkpt>
      <trkpt lat="41.36296" lon="9.16288">
        <ele>3.02</ele>
        <time>2017-10-11T12:09:29Z</time>
      </trkpt>
      <trkpt lat="41.36301" lon="9.16317">
        <ele>3.02</ele>
        <time>2017-10-11T12:09:52Z</time>
      </trkpt>
      <trkpt lat="41.3631" lon="9.16341">
        <ele>3.02</ele>
        <time>2017-10-11T12:10:14Z</time>
      </trkpt>
      <trkpt lat="41.36326" lon="9.16365">
        <ele>3.02</ele>
        <time>2017-10-11T12:10:33Z</time>
      </trkpt>
      <trkpt lat="41.36338" lon="9.164">
        <ele>2.54</ele>
        <time>2017-10-11T12:10:56Z</time>
      </trkpt>
      <trkpt lat="41.36353" lon="9.16441">
        <ele>3.02</ele>
        <time>2017-10-11T12:11:20Z</time>
      </trkpt>
      <trkpt lat="41.36367" lon="9.16478">
        <ele>2.54</ele>
        <time>2017-10-11T12:11:41Z</time>
      </trkpt>
      <trkpt lat="41.36382" lon="9.16524">
        <ele>2.54</ele>
        <time>2017-10-11T12:12:05Z</time>
      </trkpt>
      <trkpt lat="41.36401" lon="9.16577">
        <ele>2.54</ele>
        <time>2017-10-11T12:12:31Z</time>
      </trkpt>
      <trkpt lat="41.36418" lon="9.16625">
        <ele>2.06</ele>
        <time>2017-10-11T12:12:55Z</time>
      </trkpt>
      <trkpt lat="41.36434" lon="9.16675">
        <ele>2.06</ele>
        <time>2017-10-11T12:13:20Z</time>
      </trkpt>
      <trkpt lat="41.36449" lon="9.16719">
        <ele>2.06</ele>
        <time>2017-10-11T12:13:43Z</time>
      </trkpt>
      <trkpt lat="41.36463" lon="9.1676">
        <ele>2.54</ele>
        <time>2017-10-11T12:14:04Z</time>
      </trkpt>
      <trkpt lat="41.36476" lon="9.16803">
        <ele>2.54</ele>
        <time>2017-10-11T12:14:24Z</time>
      </trkpt>
      <trkpt lat="41.36488" lon="9.16844">
        <ele>2.54</ele>
        <time>2017-10-11T12:14:44Z</time>
      </trkpt>
      <trkpt lat="41.36499" lon="9.1688">
        <ele>2.06</ele>
        <time>2017-10-11T12:15:05Z</time>
      </trkpt>
      <trkpt lat="41.36495" lon="9.16888">
        <ele>2.54</ele>
        <time>2017-10-11T12:15:11Z</time>
      </trkpt>
      <trkpt lat="41.36488" lon="9.16887">
        <ele>2.54</ele>
        <time>2017-10-11T12:15:17Z</time>
      </trkpt>
      <trkpt lat="41.36458" lon="9.16889">
        <ele>2.06</ele>
        <time>2017-10-11T12:15:37Z</time>
      </trkpt>
      <trkpt lat="41.36418" lon="9.16903">
        <ele>1.58</ele>
        <time>2017-10-11T12:16:01Z</time>
      </trkpt>
      <trkpt lat="41.36382" lon="9.16916">
        <ele>2.06</ele>
        <time>2017-10-11T12:16:20Z</time>
      </trkpt>
      <trkpt lat="41.36352" lon="9.16929">
        <ele>1.58</ele>
        <time>2017-10-11T12:16:36Z</time>
      </trkpt>
      <trkpt lat="41.3631" lon="9.16943">
        <ele>1.58</ele>
        <time>2017-10-11T12:16:56Z</time>
      </trkpt>
      <trkpt lat="41.36277" lon="9.16953">
        <ele>2.06</ele>
        <time>2017-10-11T12:17:11Z</time>
      </trkpt>
      <trkpt lat="41.36236" lon="9.16968">
        <ele>2.54</ele>
        <time>2017-10-11T12:17:29Z</time>
      </trkpt>
      <trkpt lat="41.36185" lon="9.16989">
        <ele>2.54</ele>
        <time>2017-10-11T12:17:52Z</time>
      </trkpt>
      <trkpt lat="41.36143" lon="9.17006">
        <ele>1.58</ele>
        <time>2017-10-11T12:18:12Z</time>
      </trkpt>
      <trkpt lat="41.36103" lon="9.17021">
        <ele>1.58</ele>
        <time>2017-10-11T12:18:31Z</time>
      </trkpt>
      <trkpt lat="41.36054" lon="9.17037">
        <ele>0.62</ele>
        <time>2017-10-11T12:18:53Z</time>
      </trkpt>
      <trkpt lat="41.36004" lon="9.17055">
        <ele>1.1</ele>
        <time>2017-10-11T12:19:15Z</time>
      </trkpt>
      <trkpt lat="41.35959" lon="9.17069">
        <ele>1.1</ele>
        <time>2017-10-11T12:19:35Z</time>
      </trkpt>
      <trkpt lat="41.35919" lon="9.17083">
        <ele>1.1</ele>
        <time>2017-10-11T12:19:53Z</time>
      </trkpt>
      <trkpt lat="41.35867" lon="9.17101">
        <ele>0.62</ele>
        <time>2017-10-11T12:20:16Z</time>
      </trkpt>
      <trkpt lat="41.35819" lon="9.17116">
        <ele>0.62</ele>
        <time>2017-10-11T12:20:38Z</time>
      </trkpt>
      <trkpt lat="41.35773" lon="9.1713">
        <ele>0.62</ele>
        <time>2017-10-11T12:21:00Z</time>
      </trkpt>
      <trkpt lat="41.35731" lon="9.17143">
        <ele>1.1</ele>
        <time>2017-10-11T12:21:20Z</time>
      </trkpt>
      <trkpt lat="41.3569" lon="9.17156">
        <ele>1.1</ele>
        <time>2017-10-11T12:21:39Z</time>
      </trkpt>
      <trkpt lat="41.35651" lon="9.17168">
        <ele>1.58</ele>
        <time>2017-10-11T12:21:57Z</time>
      </trkpt>
      <trkpt lat="41.35611" lon="9.1718">
        <ele>1.58</ele>
        <time>2017-10-11T12:22:15Z</time>
      </trkpt>
      <trkpt lat="41.35568" lon="9.17192">
        <ele>2.06</ele>
        <time>2017-10-11T12:22:35Z</time>
      </trkpt>
      <trkpt lat="41.35531" lon="9.17203">
        <ele>2.06</ele>
        <time>2017-10-11T12:22:53Z</time>
      </trkpt>
      <trkpt lat="41.3549" lon="9.17215">
        <ele>2.06</ele>
        <time>2017-10-11T12:23:13Z</time>
      </trkpt>
      <trkpt lat="41.35447" lon="9.17228">
        <ele>1.1</ele>
        <time>2017-10-11T12:23:35Z</time>
      </trkpt>
      <trkpt lat="41.35414" lon="9.17237">
        <ele>1.1</ele>
        <time>2017-10-11T12:23:52Z</time>
      </trkpt>
      <trkpt lat="41.35374" lon="9.17248">
        <ele>0.62</ele>
        <time>2017-10-11T12:24:13Z</time>
      </trkpt>
      <trkpt lat="41.35335" lon="9.17258">
        <ele>1.1</ele>
        <time>2017-10-11T12:24:35Z</time>
      </trkpt>
      <trkpt lat="41.35304" lon="9.17266">
        <ele>0.62</ele>
        <time>2017-10-11T12:24:54Z</time>
      </trkpt>
      <trkpt lat="41.35273" lon="9.17272">
        <ele>1.1</ele>
        <time>2017-10-11T12:25:14Z</time>
      </trkpt>
      <trkpt lat="41.35244" lon="9.17278">
        <ele>0.62</ele>
        <time>2017-10-11T12:25:34Z</time>
      </trkpt>
      <trkpt lat="41.35219" lon="9.17285">
        <ele>0.62</ele>
        <time>2017-10-11T12:25:53Z</time>
      </trkpt>
      <trkpt lat="41.35195" lon="9.17292">
        <ele>0.62</ele>
        <time>2017-10-11T12:26:13Z</time>
      </trkpt>
      <trkpt lat="41.35168" lon="9.17297">
        <ele>0.62</ele>
        <time>2017-10-11T12:26:35Z</time>
      </trkpt>
      <trkpt lat="41.35144" lon="9.17312">
        <ele>1.58</ele>
        <time>2017-10-11T12:26:56Z</time>
      </trkpt>
      <trkpt lat="41.3512" lon="9.17328">
        <ele>2.06</ele>
        <time>2017-10-11T12:27:15Z</time>
      </trkpt>
      <trkpt lat="41.35093" lon="9.1735">
        <ele>2.54</ele>
        <time>2017-10-11T12:27:35Z</time>
      </trkpt>
      <trkpt lat="41.35063" lon="9.17375">
        <ele>2.54</ele>
        <time>2017-10-11T12:27:54Z</time>
      </trkpt>
      <trkpt lat="41.35026" lon="9.17408">
        <ele>2.54</ele>
        <time>2017-10-11T12:28:16Z</time>
      </trkpt>
      <trkpt lat="41.34986" lon="9.17443">
        <ele>2.54</ele>
        <time>2017-10-11T12:28:39Z</time>
      </trkpt>
      <trkpt lat="41.34942" lon="9.17481">
        <ele>2.06</ele>
        <time>2017-10-11T12:29:04Z</time>
      </trkpt>
      <trkpt lat="41.34901" lon="9.17517">
        <ele>2.06</ele>
        <time>2017-10-11T12:29:26Z</time>
      </trkpt>
      <trkpt lat="41.34868" lon="9.17548">
        <ele>2.54</ele>
        <time>2017-10-11T12:29:44Z</time>
      </trkpt>
      <trkpt lat="41.34834" lon="9.17578">
        <ele>2.54</ele>
        <time>2017-10-11T12:30:02Z</time>
      </trkpt>
      <trkpt lat="41.34796" lon="9.17612">
        <ele>2.06</ele>
        <time>2017-10-11T12:30:22Z</time>
      </trkpt>
      <trkpt lat="41.34755" lon="9.17648">
        <ele>1.58</ele>
        <time>2017-10-11T12:30:44Z</time>
      </trkpt>
      <trkpt lat="41.34724" lon="9.17676">
        <ele>2.06</ele>
        <time>2017-10-11T12:31:01Z</time>
      </trkpt>
      <trkpt lat="41.34687" lon="9.17708">
        <ele>2.06</ele>
        <time>2017-10-11T12:31:21Z</time>
      </trkpt>
      <trkpt lat="41.34645" lon="9.17745">
        <ele>1.58</ele>
        <time>2017-10-11T12:31:45Z</time>
      </trkpt>
      <trkpt lat="41.34607" lon="9.17778">
        <ele>1.58</ele>
        <time>2017-10-11T12:32:08Z</time>
      </trkpt>
      <trkpt lat="41.34572" lon="9.17808">
        <ele>1.58</ele>
        <time>2017-10-11T12:32:28Z</time>
      </trkpt>
      <trkpt lat="41.34528" lon="9.17844">
        <ele>2.06</ele>
        <time>2017-10-11T12:32:52Z</time>
      </trkpt>
      <trkpt lat="41.34487" lon="9.1788">
        <ele>2.06</ele>
        <time>2017-10-11T12:33:14Z</time>
      </trkpt>
      <trkpt lat="41.34449" lon="9.17913">
        <ele>2.06</ele>
        <time>2017-10-11T12:33:34Z</time>
      </trkpt>
      <trkpt lat="41.3441" lon="9.17947">
        <ele>2.06</ele>
        <time>2017-10-11T12:33:55Z</time>
      </trkpt>
      <trkpt lat="41.34366" lon="9.17986">
        <ele>2.06</ele>
        <time>2017-10-11T12:34:18Z</time>
      </trkpt>
      <trkpt lat="41.34331" lon="9.18016">
        <ele>2.06</ele>
        <time>2017-10-11T12:34:36Z</time>
      </trkpt>
      <trkpt lat="41.34294" lon="9.18047">
        <ele>2.06</ele>
        <time>2017-10-11T12:34:56Z</time>
      </trkpt>
      <trkpt lat="41.34252" lon="9.18083">
        <ele>2.06</ele>
        <time>2017-10-11T12:35:18Z</time>
      </trkpt>
      <trkpt lat="41.34223" lon="9.18107">
        <ele>2.06</ele>
        <time>2017-10-11T12:35:33Z</time>
      </trkpt>
      <trkpt lat="41.34187" lon="9.18138">
        <ele>2.06</ele>
        <time>2017-10-11T12:35:52Z</time>
      </trkpt>
      <trkpt lat="41.34147" lon="9.18173">
        <ele>2.06</ele>
        <time>2017-10-11T12:36:13Z</time>
      </trkpt>
      <trkpt lat="41.34108" lon="9.18206">
        <ele>1.58</ele>
        <time>2017-10-11T12:36:34Z</time>
      </trkpt>
      <trkpt lat="41.34068" lon="9.18239">
        <ele>1.58</ele>
        <time>2017-10-11T12:36:55Z</time>
      </trkpt>
      <trkpt lat="41.34026" lon="9.1827">
        <ele>1.58</ele>
        <time>2017-10-11T12:37:17Z</time>
      </trkpt>
      <trkpt lat="41.33996" lon="9.18294">
        <ele>2.06</ele>
        <time>2017-10-11T12:37:35Z</time>
      </trkpt>
      <trkpt lat="41.33963" lon="9.18319">
        <ele>2.06</ele>
        <time>2017-10-11T12:37:56Z</time>
      </trkpt>
      <trkpt lat="41.33934" lon="9.18339">
        <ele>2.06</ele>
        <time>2017-10-11T12:38:14Z</time>
      </trkpt>
      <trkpt lat="41.33921" lon="9.18361">
        <ele>2.54</ele>
        <time>2017-10-11T12:38:28Z</time>
      </trkpt>
      <trkpt lat="41.33939" lon="9.1838">
        <ele>2.06</ele>
        <time>2017-10-11T12:38:46Z</time>
      </trkpt>
      <trkpt lat="41.33964" lon="9.18402">
        <ele>2.06</ele>
        <time>2017-10-11T12:39:07Z</time>
      </trkpt>
      <trkpt lat="41.3399" lon="9.18426">
        <ele>2.06</ele>
        <time>2017-10-11T12:39:28Z</time>
      </trkpt>
      <trkpt lat="41.34017" lon="9.18451">
        <ele>2.06</ele>
        <time>2017-10-11T12:39:49Z</time>
      </trkpt>
      <trkpt lat="41.34036" lon="9.18477">
        <ele>2.06</ele>
        <time>2017-10-11T12:40:09Z</time>
      </trkpt>
      <trkpt lat="41.34057" lon="9.18503">
        <ele>2.54</ele>
        <time>2017-10-11T12:40:32Z</time>
      </trkpt>
      <trkpt lat="41.34067" lon="9.18526">
        <ele>2.54</ele>
        <time>2017-10-11T12:40:54Z</time>
      </trkpt>
      <trkpt lat="41.34083" lon="9.18542">
        <ele>2.06</ele>
        <time>2017-10-11T12:41:16Z</time>
      </trkpt>
      <trkpt lat="41.34087" lon="9.18556">
        <ele>2.06</ele>
        <time>2017-10-11T12:41:35Z</time>
      </trkpt>
      <trkpt lat="41.34083" lon="9.18558">
        <ele>2.06</ele>
        <time>2017-10-11T12:41:40Z</time>
      </trkpt>
      <trkpt lat="41.3406" lon="9.18569">
        <ele>2.06</ele>
        <time>2017-10-11T12:42:05Z</time>
      </trkpt>
      <trkpt lat="41.3404" lon="9.18585">
        <ele>2.54</ele>
        <time>2017-10-11T12:42:25Z</time>
      </trkpt>
      <trkpt lat="41.34019" lon="9.1861">
        <ele>2.06</ele>
        <time>2017-10-11T12:42:45Z</time>
      </trkpt>
      <trkpt lat="41.34001" lon="9.18641">
        <ele>1.58</ele>
        <time>2017-10-11T12:43:05Z</time>
      </trkpt>
      <trkpt lat="41.33986" lon="9.18677">
        <ele>1.1</ele>
        <time>2017-10-11T12:43:28Z</time>
      </trkpt>
      <trkpt lat="41.33971" lon="9.18707">
        <ele>1.58</ele>
        <time>2017-10-11T12:43:47Z</time>
      </trkpt>
      <trkpt lat="41.33954" lon="9.18738">
        <ele>1.58</ele>
        <time>2017-10-11T12:44:07Z</time>
      </trkpt>
      <trkpt lat="41.33938" lon="9.18764">
        <ele>1.58</ele>
        <time>2017-10-11T12:44:24Z</time>
      </trkpt>
      <trkpt lat="41.33919" lon="9.18796">
        <ele>1.58</ele>
        <time>2017-10-11T12:44:43Z</time>
      </trkpt>
      <trkpt lat="41.33903" lon="9.18826">
        <ele>1.58</ele>
        <time>2017-10-11T12:45:01Z</time>
      </trkpt>
      <trkpt lat="41.33887" lon="9.18853">
        <ele>2.06</ele>
        <time>2017-10-11T12:45:17Z</time>
      </trkpt>
      <trkpt lat="41.33864" lon="9.1889">
        <ele>1.1</ele>
        <time>2017-10-11T12:45:38Z</time>
      </trkpt>
      <trkpt lat="41.33839" lon="9.18932">
        <ele>1.1</ele>
        <time>2017-10-11T12:46:00Z</time>
      </trkpt>
      <trkpt lat="41.33818" lon="9.18975">
        <ele>1.58</ele>
        <time>2017-10-11T12:46:20Z</time>
      </trkpt>
      <trkpt lat="41.33799" lon="9.19011">
        <ele>1.1</ele>
        <time>2017-10-11T12:46:39Z</time>
      </trkpt>
      <trkpt lat="41.33777" lon="9.19052">
        <ele>1.1</ele>
        <time>2017-10-11T12:47:01Z</time>
      </trkpt>
      <trkpt lat="41.33757" lon="9.19091">
        <ele>1.1</ele>
        <time>2017-10-11T12:47:23Z</time>
      </trkpt>
      <trkpt lat="41.33739" lon="9.19127">
        <ele>1.58</ele>
        <time>2017-10-11T12:47:43Z</time>
      </trkpt>
      <trkpt lat="41.33723" lon="9.19153">
        <ele>1.1</ele>
        <time>2017-10-11T12:47:58Z</time>
      </trkpt>
      <trkpt lat="41.33702" lon="9.19185">
        <ele>0.62</ele>
        <time>2017-10-11T12:48:16Z</time>
      </trkpt>
      <trkpt lat="41.3367" lon="9.19238">
        <ele>1.1</ele>
        <time>2017-10-11T12:48:44Z</time>
      </trkpt>
      <trkpt lat="41.33649" lon="9.19279">
        <ele>1.1</ele>
        <time>2017-10-11T12:49:04Z</time>
      </trkpt>
      <trkpt lat="41.33625" lon="9.19319">
        <ele>1.1</ele>
        <time>2017-10-11T12:49:23Z</time>
      </trkpt>
      <trkpt lat="41.33598" lon="9.19374">
        <ele>1.58</ele>
        <time>2017-10-11T12:49:47Z</time>
      </trkpt>
      <trkpt lat="41.33576" lon="9.19418">
        <ele>1.58</ele>
        <time>2017-10-11T12:50:08Z</time>
      </trkpt>
      <trkpt lat="41.33552" lon="9.19465">
        <ele>1.58</ele>
        <time>2017-10-11T12:50:31Z</time>
      </trkpt>
      <trkpt lat="41.33534" lon="9.19497">
        <ele>1.1</ele>
        <time>2017-10-11T12:50:48Z</time>
      </trkpt>
      <trkpt lat="41.33509" lon="9.19536">
        <ele>0.62</ele>
        <time>2017-10-11T12:51:08Z</time>
      </trkpt>
      <trkpt lat="41.33482" lon="9.19581">
        <ele>1.1</ele>
        <time>2017-10-11T12:51:30Z</time>
      </trkpt>
      <trkpt lat="41.33461" lon="9.1962">
        <ele>1.1</ele>
        <time>2017-10-11T12:51:51Z</time>
      </trkpt>
      <trkpt lat="41.33437" lon="9.19664">
        <ele>1.1</ele>
        <time>2017-10-11T12:52:15Z</time>
      </trkpt>
      <trkpt lat="41.33416" lon="9.19705">
        <ele>1.1</ele>
        <time>2017-10-11T12:52:39Z</time>
      </trkpt>
      <trkpt lat="41.33394" lon="9.1974">
        <ele>0.14</ele>
        <time>2017-10-11T12:53:00Z</time>
      </trkpt>
      <trkpt lat="41.33371" lon="9.19779">
        <ele>0.62</ele>
        <time>2017-10-11T12:53:21Z</time>
      </trkpt>
      <trkpt lat="41.33353" lon="9.19809">
        <ele>0.62</ele>
        <time>2017-10-11T12:53:37Z</time>
      </trkpt>
      <trkpt lat="41.33338" lon="9.19842">
        <ele>0.62</ele>
        <time>2017-10-11T12:53:55Z</time>
      </trkpt>
      <trkpt lat="41.33329" lon="9.19871">
        <ele>1.1</ele>
        <time>2017-10-11T12:54:13Z</time>
      </trkpt>
      <trkpt lat="41.33317" lon="9.19892">
        <ele>1.1</ele>
        <time>2017-10-11T12:54:28Z</time>
      </trkpt>
      <trkpt lat="41.33302" lon="9.19917">
        <ele>1.1</ele>
        <time>2017-10-11T12:54:45Z</time>
      </trkpt>
      <trkpt lat="41.33281" lon="9.19952">
        <ele>1.1</ele>
        <time>2017-10-11T12:55:07Z</time>
      </trkpt>
      <trkpt lat="41.33264" lon="9.19984">
        <ele>0.62</ele>
        <time>2017-10-11T12:55:26Z</time>
      </trkpt>
      <trkpt lat="41.33248" lon="9.20012">
        <ele>0.62</ele>
        <time>2017-10-11T12:55:42Z</time>
      </trkpt>
      <trkpt lat="41.33231" lon="9.20043">
        <ele>0.62</ele>
        <time>2017-10-11T12:55:59Z</time>
      </trkpt>
      <trkpt lat="41.33206" lon="9.20085">
        <ele>1.1</ele>
        <time>2017-10-11T12:56:22Z</time>
      </trkpt>
      <trkpt lat="41.33187" lon="9.20121">
        <ele>0.62</ele>
        <time>2017-10-11T12:56:40Z</time>
      </trkpt>
      <trkpt lat="41.33168" lon="9.20156">
        <ele>0.62</ele>
        <time>2017-10-11T12:56:57Z</time>
      </trkpt>
      <trkpt lat="41.33143" lon="9.202">
        <ele>0.14</ele>
        <time>2017-10-11T12:57:19Z</time>
      </trkpt>
      <trkpt lat="41.3312" lon="9.20241">
        <ele>1.1</ele>
        <time>2017-10-11T12:57:40Z</time>
      </trkpt>
      <trkpt lat="41.33096" lon="9.2028">
        <ele>0.62</ele>
        <time>2017-10-11T12:58:00Z</time>
      </trkpt>
      <trkpt lat="41.33073" lon="9.20316">
        <ele>0.62</ele>
        <time>2017-10-11T12:58:19Z</time>
      </trkpt>
      <trkpt lat="41.33055" lon="9.20349">
        <ele>0.62</ele>
        <time>2017-10-11T12:58:37Z</time>
      </trkpt>
      <trkpt lat="41.3304" lon="9.20381">
        <ele>1.1</ele>
        <time>2017-10-11T12:58:58Z</time>
      </trkpt>
      <trkpt lat="41.33024" lon="9.20408">
        <ele>0.62</ele>
        <time>2017-10-11T12:59:20Z</time>
      </trkpt>
      <trkpt lat="41.33007" lon="9.2043">
        <ele>0.62</ele>
        <time>2017-10-11T12:59:39Z</time>
      </trkpt>
      <trkpt lat="41.32992" lon="9.20454">
        <ele>1.58</ele>
        <time>2017-10-11T12:59:58Z</time>
      </trkpt>
      <trkpt lat="41.32974" lon="9.20476">
        <ele>1.1</ele>
        <time>2017-10-11T13:00:15Z</time>
      </trkpt>
      <trkpt lat="41.32953" lon="9.20505">
        <ele>1.58</ele>
        <time>2017-10-11T13:00:35Z</time>
      </trkpt>
      <trkpt lat="41.32938" lon="9.20532">
        <ele>1.58</ele>
        <time>2017-10-11T13:00:55Z</time>
      </trkpt>
      <trkpt lat="41.32926" lon="9.2055">
        <ele>2.54</ele>
        <time>2017-10-11T13:01:12Z</time>
      </trkpt>
      <trkpt lat="41.32912" lon="9.20568">
        <ele>2.06</ele>
        <time>2017-10-11T13:01:30Z</time>
      </trkpt>
      <trkpt lat="41.329" lon="9.20583">
        <ele>2.54</ele>
        <time>2017-10-11T13:01:45Z</time>
      </trkpt>
      <trkpt lat="41.32887" lon="9.20601">
        <ele>2.54</ele>
        <time>2017-10-11T13:02:01Z</time>
      </trkpt>
      <trkpt lat="41.32872" lon="9.2062">
        <ele>2.06</ele>
        <time>2017-10-11T13:02:18Z</time>
      </trkpt>
      <trkpt lat="41.32866" lon="9.20628">
        <ele>2.06</ele>
        <time>2017-10-11T13:02:25Z</time>
      </trkpt>
      <trkpt lat="41.32849" lon="9.20651">
        <ele>1.58</ele>
        <time>2017-10-11T13:02:43Z</time>
      </trkpt>
      <trkpt lat="41.32836" lon="9.20671">
        <ele>1.1</ele>
        <time>2017-10-11T13:02:59Z</time>
      </trkpt>
      <trkpt lat="41.32822" lon="9.20688">
        <ele>1.58</ele>
        <time>2017-10-11T13:03:13Z</time>
      </trkpt>
      <trkpt lat="41.32823" lon="9.20696">
        <ele>1.58</ele>
        <time>2017-10-11T13:03:20Z</time>
      </trkpt>
      <trkpt lat="41.32844" lon="9.20701">
        <ele>2.06</ele>
        <time>2017-10-11T13:03:36Z</time>
      </trkpt>
      <trkpt lat="41.32869" lon="9.20715">
        <ele>2.06</ele>
        <time>2017-10-11T13:03:56Z</time>
      </trkpt>
      <trkpt lat="41.32894" lon="9.20733">
        <ele>2.54</ele>
        <time>2017-10-11T13:04:15Z</time>
      </trkpt>
      <trkpt lat="41.32919" lon="9.20751">
        <ele>2.06</ele>
        <time>2017-10-11T13:04:32Z</time>
      </trkpt>
      <trkpt lat="41.32948" lon="9.20774">
        <ele>2.06</ele>
        <time>2017-10-11T13:04:51Z</time>
      </trkpt>
      <trkpt lat="41.32972" lon="9.20794">
        <ele>2.54</ele>
        <time>2017-10-11T13:05:07Z</time>
      </trkpt>
      <trkpt lat="41.32995" lon="9.20814">
        <ele>2.06</ele>
        <time>2017-10-11T13:05:23Z</time>
      </trkpt>
      <trkpt lat="41.33023" lon="9.20841">
        <ele>2.06</ele>
        <time>2017-10-11T13:05:42Z</time>
      </trkpt>
      <trkpt lat="41.33046" lon="9.20869">
        <ele>2.06</ele>
        <time>2017-10-11T13:06:01Z</time>
      </trkpt>
      <trkpt lat="41.33074" lon="9.20895">
        <ele>2.06</ele>
        <time>2017-10-11T13:06:21Z</time>
      </trkpt>
      <trkpt lat="41.33098" lon="9.20922">
        <ele>1.58</ele>
        <time>2017-10-11T13:06:39Z</time>
      </trkpt>
      <trkpt lat="41.33121" lon="9.20948">
        <ele>2.06</ele>
        <time>2017-10-11T13:06:57Z</time>
      </trkpt>
      <trkpt lat="41.33142" lon="9.20968">
        <ele>2.54</ele>
        <time>2017-10-11T13:07:13Z</time>
      </trkpt>
      <trkpt lat="41.33164" lon="9.20989">
        <ele>3.02</ele>
        <time>2017-10-11T13:07:33Z</time>
      </trkpt>
      <trkpt lat="41.33181" lon="9.21004">
        <ele>3.5</ele>
        <time>2017-10-11T13:07:50Z</time>
      </trkpt>
      <trkpt lat="41.33198" lon="9.2102">
        <ele>3.02</ele>
        <time>2017-10-11T13:08:07Z</time>
      </trkpt>
      <trkpt lat="41.33214" lon="9.21038">
        <ele>3.02</ele>
        <time>2017-10-11T13:08:26Z</time>
      </trkpt>
      <trkpt lat="41.33225" lon="9.21052">
        <ele>2.54</ele>
        <time>2017-10-11T13:08:43Z</time>
      </trkpt>
      <trkpt lat="41.33238" lon="9.21062">
        <ele>3.02</ele>
        <time>2017-10-11T13:08:59Z</time>
      </trkpt>
      <trkpt lat="41.33258" lon="9.21076">
        <ele>3.5</ele>
        <time>2017-10-11T13:09:21Z</time>
      </trkpt>
      <trkpt lat="41.33275" lon="9.21089">
        <ele>3.02</ele>
        <time>2017-10-11T13:09:38Z</time>
      </trkpt>
      <trkpt lat="41.33295" lon="9.21107">
        <ele>3.02</ele>
        <time>2017-10-11T13:09:56Z</time>
      </trkpt>
      <trkpt lat="41.33317" lon="9.21128">
        <ele>3.5</ele>
        <time>2017-10-11T13:10:19Z</time>
      </trkpt>
      <trkpt lat="41.33333" lon="9.21142">
        <ele>3.5</ele>
        <time>2017-10-11T13:10:38Z</time>
      </trkpt>
      <trkpt lat="41.33355" lon="9.21155">
        <ele>3.02</ele>
        <time>2017-10-11T13:10:59Z</time>
      </trkpt>
      <trkpt lat="41.33375" lon="9.21166">
        <ele>2.54</ele>
        <time>2017-10-11T13:11:16Z</time>
      </trkpt>
      <trkpt lat="41.33397" lon="9.2118">
        <ele>2.54</ele>
        <time>2017-10-11T13:11:34Z</time>
      </trkpt>
      <trkpt lat="41.3342" lon="9.21195">
        <ele>3.5</ele>
        <time>2017-10-11T13:11:52Z</time>
      </trkpt>
      <trkpt lat="41.33448" lon="9.21211">
        <ele>3.02</ele>
        <time>2017-10-11T13:12:14Z</time>
      </trkpt>
      <trkpt lat="41.33474" lon="9.21227">
        <ele>2.54</ele>
        <time>2017-10-11T13:12:37Z</time>
      </trkpt>
      <trkpt lat="41.33502" lon="9.21244">
        <ele>3.02</ele>
        <time>2017-10-11T13:12:59Z</time>
      </trkpt>
      <trkpt lat="41.33522" lon="9.21256">
        <ele>2.54</ele>
        <time>2017-10-11T13:13:15Z</time>
      </trkpt>
      <trkpt lat="41.33549" lon="9.2127">
        <ele>2.54</ele>
        <time>2017-10-11T13:13:35Z</time>
      </trkpt>
      <trkpt lat="41.33572" lon="9.21286">
        <ele>2.54</ele>
        <time>2017-10-11T13:13:53Z</time>
      </trkpt>
      <trkpt lat="41.33591" lon="9.21296">
        <ele>3.5</ele>
        <time>2017-10-11T13:14:08Z</time>
      </trkpt>
      <trkpt lat="41.3361" lon="9.21307">
        <ele>3.5</ele>
        <time>2017-10-11T13:14:23Z</time>
      </trkpt>
      <trkpt lat="41.3363" lon="9.21318">
        <ele>3.02</ele>
        <time>2017-10-11T13:14:39Z</time>
      </trkpt>
      <trkpt lat="41.33653" lon="9.21329">
        <ele>3.02</ele>
        <time>2017-10-11T13:14:56Z</time>
      </trkpt>
      <trkpt lat="41.33672" lon="9.21341">
        <ele>3.02</ele>
        <time>2017-10-11T13:15:11Z</time>
      </trkpt>
      <trkpt lat="41.33689" lon="9.21352">
        <ele>3.5</ele>
        <time>2017-10-11T13:15:26Z</time>
      </trkpt>
      <trkpt lat="41.33712" lon="9.21367">
        <ele>4.46</ele>
        <time>2017-10-11T13:15:46Z</time>
      </trkpt>
      <trkpt lat="41.33733" lon="9.2138">
        <ele>3.98</ele>
        <time>2017-10-11T13:16:04Z</time>
      </trkpt>
      <trkpt lat="41.33754" lon="9.21393">
        <ele>3.02</ele>
        <time>2017-10-11T13:16:23Z</time>
      </trkpt>
      <trkpt lat="41.33773" lon="9.21406">
        <ele>2.06</ele>
        <time>2017-10-11T13:16:41Z</time>
      </trkpt>
      <trkpt lat="41.33795" lon="9.21422">
        <ele>2.06</ele>
        <time>2017-10-11T13:17:01Z</time>
      </trkpt>
      <trkpt lat="41.33815" lon="9.21435">
        <ele>2.54</ele>
        <time>2017-10-11T13:17:17Z</time>
      </trkpt>
      <trkpt lat="41.33838" lon="9.2145">
        <ele>3.02</ele>
        <time>2017-10-11T13:17:36Z</time>
      </trkpt>
      <trkpt lat="41.33862" lon="9.21466">
        <ele>2.54</ele>
        <time>2017-10-11T13:17:53Z</time>
      </trkpt>
      <trkpt lat="41.3389" lon="9.21487">
        <ele>3.02</ele>
        <time>2017-10-11T13:18:13Z</time>
      </trkpt>
      <trkpt lat="41.33914" lon="9.21506">
        <ele>3.5</ele>
        <time>2017-10-11T13:18:31Z</time>
      </trkpt>
      <trkpt lat="41.33944" lon="9.21531">
        <ele>3.98</ele>
        <time>2017-10-11T13:18:55Z</time>
      </trkpt>
      <trkpt lat="41.33972" lon="9.2155">
        <ele>4.46</ele>
        <time>2017-10-11T13:19:17Z</time>
      </trkpt>
      <trkpt lat="41.33999" lon="9.21569">
        <ele>3.5</ele>
        <time>2017-10-11T13:19:38Z</time>
      </trkpt>
      <trkpt lat="41.34005" lon="9.21574">
        <ele>3.02</ele>
        <time>2017-10-11T13:19:43Z</time>
      </trkpt>
      <trkpt lat="41.34012" lon="9.21577">
        <ele>3.5</ele>
        <time>2017-10-11T13:19:48Z</time>
      </trkpt>
      <trkpt lat="41.34042" lon="9.21593">
        <ele>2.54</ele>
        <time>2017-10-11T13:20:08Z</time>
      </trkpt>
      <trkpt lat="41.34068" lon="9.21609">
        <ele>2.06</ele>
        <time>2017-10-11T13:20:25Z</time>
      </trkpt>
      <trkpt lat="41.341" lon="9.21628">
        <ele>2.06</ele>
        <time>2017-10-11T13:20:45Z</time>
      </trkpt>
      <trkpt lat="41.34134" lon="9.2165">
        <ele>2.54</ele>
        <time>2017-10-11T13:21:07Z</time>
      </trkpt>
      <trkpt lat="41.34167" lon="9.21673">
        <ele>2.54</ele>
        <time>2017-10-11T13:21:27Z</time>
      </trkpt>
      <trkpt lat="41.34196" lon="9.21695">
        <ele>2.54</ele>
        <time>2017-10-11T13:21:46Z</time>
      </trkpt>
      <trkpt lat="41.34232" lon="9.21719">
        <ele>3.02</ele>
        <time>2017-10-11T13:22:08Z</time>
      </trkpt>
      <trkpt lat="41.34268" lon="9.21745">
        <ele>2.54</ele>
        <time>2017-10-11T13:22:30Z</time>
      </trkpt>
      <trkpt lat="41.34298" lon="9.21768">
        <ele>2.54</ele>
        <time>2017-10-11T13:22:50Z</time>
      </trkpt>
      <trkpt lat="41.34332" lon="9.21793">
        <ele>2.54</ele>
        <time>2017-10-11T13:23:12Z</time>
      </trkpt>
      <trkpt lat="41.34359" lon="9.21815">
        <ele>2.06</ele>
        <time>2017-10-11T13:23:31Z</time>
      </trkpt>
      <trkpt lat="41.34392" lon="9.21842">
        <ele>1.1</ele>
        <time>2017-10-11T13:23:54Z</time>
      </trkpt>
      <trkpt lat="41.34421" lon="9.21863">
        <ele>2.06</ele>
        <time>2017-10-11T13:24:14Z</time>
      </trkpt>
      <trkpt lat="41.34453" lon="9.21883">
        <ele>3.02</ele>
        <time>2017-10-11T13:24:35Z</time>
      </trkpt>
      <trkpt lat="41.34491" lon="9.21905">
        <ele>3.02</ele>
        <time>2017-10-11T13:24:58Z</time>
      </trkpt>
      <trkpt lat="41.34523" lon="9.21925">
        <ele>3.02</ele>
        <time>2017-10-11T13:25:17Z</time>
      </trkpt>
      <trkpt lat="41.34556" lon="9.21945">
        <ele>2.54</ele>
        <time>2017-10-11T13:25:38Z</time>
      </trkpt>
      <trkpt lat="41.3459" lon="9.21964">
        <ele>2.54</ele>
        <time>2017-10-11T13:26:00Z</time>
      </trkpt>
      <trkpt lat="41.3462" lon="9.21979">
        <ele>2.06</ele>
        <time>2017-10-11T13:26:21Z</time>
      </trkpt>
      <trkpt lat="41.34646" lon="9.21993">
        <ele>2.06</ele>
        <time>2017-10-11T13:26:41Z</time>
      </trkpt>
      <trkpt lat="41.34674" lon="9.22007">
        <ele>1.1</ele>
        <time>2017-10-11T13:27:03Z</time>
      </trkpt>
      <trkpt lat="41.34702" lon="9.2202">
        <ele>1.1</ele>
        <time>2017-10-11T13:27:26Z</time>
      </trkpt>
      <trkpt lat="41.34731" lon="9.22035">
        <ele>1.58</ele>
        <time>2017-10-11T13:27:51Z</time>
      </trkpt>
      <trkpt lat="41.34761" lon="9.22049">
        <ele>1.1</ele>
        <time>2017-10-11T13:28:15Z</time>
      </trkpt>
      <trkpt lat="41.34789" lon="9.22066">
        <ele>2.06</ele>
        <time>2017-10-11T13:28:35Z</time>
      </trkpt>
      <trkpt lat="41.34814" lon="9.22082">
        <ele>2.06</ele>
        <time>2017-10-11T13:28:53Z</time>
      </trkpt>
      <trkpt lat="41.34842" lon="9.221">
        <ele>2.54</ele>
        <time>2017-10-11T13:29:12Z</time>
      </trkpt>
      <trkpt lat="41.3487" lon="9.22118">
        <ele>2.06</ele>
        <time>2017-10-11T13:29:31Z</time>
      </trkpt>
      <trkpt lat="41.34897" lon="9.22137">
        <ele>1.58</ele>
        <time>2017-10-11T13:29:50Z</time>
      </trkpt>
      <trkpt lat="41.34921" lon="9.2215">
        <ele>2.06</ele>
        <time>2017-10-11T13:30:09Z</time>
      </trkpt>
      <trkpt lat="41.34948" lon="9.22165">
        <ele>1.1</ele>
        <time>2017-10-11T13:30:29Z</time>
      </trkpt>
      <trkpt lat="41.34975" lon="9.2218">
        <ele>1.58</ele>
        <time>2017-10-11T13:30:48Z</time>
      </trkpt>
      <trkpt lat="41.35002" lon="9.22197">
        <ele>1.58</ele>
        <time>2017-10-11T13:31:08Z</time>
      </trkpt>
      <trkpt lat="41.35029" lon="9.22212">
        <ele>1.58</ele>
        <time>2017-10-11T13:31:28Z</time>
      </trkpt>
      <trkpt lat="41.35052" lon="9.22226">
        <ele>1.58</ele>
        <time>2017-10-11T13:31:46Z</time>
      </trkpt>
      <trkpt lat="41.35078" lon="9.22241">
        <ele>3.02</ele>
        <time>2017-10-11T13:32:07Z</time>
      </trkpt>
      <trkpt lat="41.35111" lon="9.22257">
        <ele>2.54</ele>
        <time>2017-10-11T13:32:33Z</time>
      </trkpt>
      <trkpt lat="41.35136" lon="9.22271">
        <ele>2.06</ele>
        <time>2017-10-11T13:32:53Z</time>
      </trkpt>
      <trkpt lat="41.3516" lon="9.22286">
        <ele>2.54</ele>
        <time>2017-10-11T13:33:11Z</time>
      </trkpt>
      <trkpt lat="41.35193" lon="9.22308">
        <ele>2.06</ele>
        <time>2017-10-11T13:33:33Z</time>
      </trkpt>
      <trkpt lat="41.35226" lon="9.22331">
        <ele>2.06</ele>
        <time>2017-10-11T13:33:55Z</time>
      </trkpt>
      <trkpt lat="41.35264" lon="9.22356">
        <ele>2.06</ele>
        <time>2017-10-11T13:34:19Z</time>
      </trkpt>
      <trkpt lat="41.35297" lon="9.22377">
        <ele>1.58</ele>
        <time>2017-10-11T13:34:39Z</time>
      </trkpt>
      <trkpt lat="41.35327" lon="9.224">
        <ele>2.06</ele>
        <time>2017-10-11T13:34:58Z</time>
      </trkpt>
      <trkpt lat="41.35356" lon="9.22421">
        <ele>2.06</ele>
        <time>2017-10-11T13:35:17Z</time>
      </trkpt>
      <trkpt lat="41.35394" lon="9.22444">
        <ele>2.06</ele>
        <time>2017-10-11T13:35:40Z</time>
      </trkpt>
      <trkpt lat="41.35429" lon="9.22469">
        <ele>2.54</ele>
        <time>2017-10-11T13:36:01Z</time>
      </trkpt>
      <trkpt lat="41.35466" lon="9.22494">
        <ele>2.54</ele>
        <time>2017-10-11T13:36:23Z</time>
      </trkpt>
      <trkpt lat="41.35499" lon="9.22516">
        <ele>2.06</ele>
        <time>2017-10-11T13:36:41Z</time>
      </trkpt>
      <trkpt lat="41.35534" lon="9.22539">
        <ele>1.1</ele>
        <time>2017-10-11T13:37:01Z</time>
      </trkpt>
      <trkpt lat="41.35567" lon="9.2256">
        <ele>1.58</ele>
        <time>2017-10-11T13:37:21Z</time>
      </trkpt>
      <trkpt lat="41.356" lon="9.22581">
        <ele>1.1</ele>
        <time>2017-10-11T13:37:40Z</time>
      </trkpt>
      <trkpt lat="41.35641" lon="9.2261">
        <ele>1.1</ele>
        <time>2017-10-11T13:38:04Z</time>
      </trkpt>
      <trkpt lat="41.35672" lon="9.22634">
        <ele>1.58</ele>
        <time>2017-10-11T13:38:25Z</time>
      </trkpt>
      <trkpt lat="41.35701" lon="9.22656">
        <ele>0.62</ele>
        <time>2017-10-11T13:38:47Z</time>
      </trkpt>
      <trkpt lat="41.35733" lon="9.2268">
        <ele>0.62</ele>
        <time>2017-10-11T13:39:13Z</time>
      </trkpt>
      <trkpt lat="41.3576" lon="9.227">
        <ele>0.62</ele>
        <time>2017-10-11T13:39:37Z</time>
      </trkpt>
      <trkpt lat="41.3578" lon="9.22712">
        <ele>1.58</ele>
        <time>2017-10-11T13:39:54Z</time>
      </trkpt>
      <trkpt lat="41.35791" lon="9.2272">
        <ele>1.1</ele>
        <time>2017-10-11T13:40:04Z</time>
      </trkpt>
      <trkpt lat="41.35796" lon="9.22724">
        <ele>1.1</ele>
        <time>2017-10-11T13:40:09Z</time>
      </trkpt>
      <trkpt lat="41.35819" lon="9.2274">
        <ele>2.06</ele>
        <time>2017-10-11T13:40:28Z</time>
      </trkpt>
      <trkpt lat="41.35842" lon="9.2276">
        <ele>1.58</ele>
        <time>2017-10-11T13:40:46Z</time>
      </trkpt>
      <trkpt lat="41.35865" lon="9.22781">
        <ele>1.58</ele>
        <time>2017-10-11T13:41:03Z</time>
      </trkpt>
      <trkpt lat="41.35891" lon="9.22803">
        <ele>2.54</ele>
        <time>2017-10-11T13:41:21Z</time>
      </trkpt>
      <trkpt lat="41.35928" lon="9.22835">
        <ele>3.02</ele>
        <time>2017-10-11T13:41:45Z</time>
      </trkpt>
      <trkpt lat="41.35965" lon="9.22867">
        <ele>3.5</ele>
        <time>2017-10-11T13:42:08Z</time>
      </trkpt>
      <trkpt lat="41.36" lon="9.22898">
        <ele>3.5</ele>
        <time>2017-10-11T13:42:30Z</time>
      </trkpt>
      <trkpt lat="41.36034" lon="9.22928">
        <ele>3.5</ele>
        <time>2017-10-11T13:42:52Z</time>
      </trkpt>
      <trkpt lat="41.36072" lon="9.22961">
        <ele>3.02</ele>
        <time>2017-10-11T13:43:16Z</time>
      </trkpt>
      <trkpt lat="41.36111" lon="9.22997">
        <ele>3.02</ele>
        <time>2017-10-11T13:43:41Z</time>
      </trkpt>
      <trkpt lat="41.36146" lon="9.23027">
        <ele>3.02</ele>
        <time>2017-10-11T13:44:03Z</time>
      </trkpt>
      <trkpt lat="41.36182" lon="9.23061">
        <ele>2.54</ele>
        <time>2017-10-11T13:44:26Z</time>
      </trkpt>
      <trkpt lat="41.36217" lon="9.23091">
        <ele>3.5</ele>
        <time>2017-10-11T13:44:47Z</time>
      </trkpt>
      <trkpt lat="41.36261" lon="9.2312">
        <ele>3.5</ele>
        <time>2017-10-11T13:45:12Z</time>
      </trkpt>
      <trkpt lat="41.36298" lon="9.2314">
        <ele>3.02</ele>
        <time>2017-10-11T13:45:33Z</time>
      </trkpt>
      <trkpt lat="41.36336" lon="9.23159">
        <ele>3.5</ele>
        <time>2017-10-11T13:45:55Z</time>
      </trkpt>
      <trkpt lat="41.36365" lon="9.23175">
        <ele>2.06</ele>
        <time>2017-10-11T13:46:12Z</time>
      </trkpt>
      <trkpt lat="41.36408" lon="9.23197">
        <ele>0.62</ele>
        <time>2017-10-11T13:46:36Z</time>
      </trkpt>
      <trkpt lat="41.36446" lon="9.23216">
        <ele>1.1</ele>
        <time>2017-10-11T13:46:59Z</time>
      </trkpt>
      <trkpt lat="41.36478" lon="9.23233">
        <ele>-0.34</ele>
        <time>2017-10-11T13:47:19Z</time>
      </trkpt>
      <trkpt lat="41.36512" lon="9.23248">
        <ele>1.1</ele>
        <time>2017-10-11T13:47:40Z</time>
      </trkpt>
      <trkpt lat="41.36541" lon="9.23263">
        <ele>1.1</ele>
        <time>2017-10-11T13:48:01Z</time>
      </trkpt>
      <trkpt lat="41.36569" lon="9.23273">
        <ele>2.06</ele>
        <time>2017-10-11T13:48:24Z</time>
      </trkpt>
      <trkpt lat="41.36594" lon="9.23281">
        <ele>1.58</ele>
        <time>2017-10-11T13:48:45Z</time>
      </trkpt>
      <trkpt lat="41.36613" lon="9.2329">
        <ele>1.1</ele>
        <time>2017-10-11T13:49:05Z</time>
      </trkpt>
      <trkpt lat="41.36631" lon="9.233">
        <ele>0.14</ele>
        <time>2017-10-11T13:49:27Z</time>
      </trkpt>
      <trkpt lat="41.36656" lon="9.23307">
        <ele>1.1</ele>
        <time>2017-10-11T13:49:52Z</time>
      </trkpt>
      <trkpt lat="41.3668" lon="9.23319">
        <ele>1.58</ele>
        <time>2017-10-11T13:50:17Z</time>
      </trkpt>
      <trkpt lat="41.36704" lon="9.23329">
        <ele>1.1</ele>
        <time>2017-10-11T13:50:39Z</time>
      </trkpt>
      <trkpt lat="41.36726" lon="9.23343">
        <ele>1.58</ele>
        <time>2017-10-11T13:51:02Z</time>
      </trkpt>
      <trkpt lat="41.36747" lon="9.23352">
        <ele>1.58</ele>
        <time>2017-10-11T13:51:24Z</time>
      </trkpt>
      <trkpt lat="41.3677" lon="9.23362">
        <ele>1.58</ele>
        <time>2017-10-11T13:51:45Z</time>
      </trkpt>
      <trkpt lat="41.36788" lon="9.23375">
        <ele>0.62</ele>
        <time>2017-10-11T13:52:04Z</time>
      </trkpt>
      <trkpt lat="41.36814" lon="9.23387">
        <ele>1.1</ele>
        <time>2017-10-11T13:52:30Z</time>
      </trkpt>
      <trkpt lat="41.3684" lon="9.23402">
        <ele>1.1</ele>
        <time>2017-10-11T13:52:54Z</time>
      </trkpt>
      <trkpt lat="41.36862" lon="9.23414">
        <ele>1.58</ele>
        <time>2017-10-11T13:53:14Z</time>
      </trkpt>
      <trkpt lat="41.36891" lon="9.23427">
        <ele>1.1</ele>
        <time>2017-10-11T13:53:36Z</time>
      </trkpt>
      <trkpt lat="41.36919" lon="9.23442">
        <ele>1.1</ele>
        <time>2017-10-11T13:53:56Z</time>
      </trkpt>
      <trkpt lat="41.36949" lon="9.23457">
        <ele>0.14</ele>
        <time>2017-10-11T13:54:18Z</time>
      </trkpt>
      <trkpt lat="41.36976" lon="9.2347">
        <ele>0.14</ele>
        <time>2017-10-11T13:54:36Z</time>
      </trkpt>
      <trkpt lat="41.37004" lon="9.23483">
        <ele>0.62</ele>
        <time>2017-10-11T13:54:54Z</time>
      </trkpt>
      <trkpt lat="41.3704" lon="9.23499">
        <ele>1.1</ele>
        <time>2017-10-11T13:55:16Z</time>
      </trkpt>
      <trkpt lat="41.37085" lon="9.23518">
        <ele>0.62</ele>
        <time>2017-10-11T13:55:42Z</time>
      </trkpt>
      <trkpt lat="41.37126" lon="9.23535">
        <ele>-0.34</ele>
        <time>2017-10-11T13:56:06Z</time>
      </trkpt>
      <trkpt lat="41.37169" lon="9.23554">
        <ele>-1.3</ele>
        <time>2017-10-11T13:56:32Z</time>
      </trkpt>
      <trkpt lat="41.37206" lon="9.2357">
        <ele>-0.34</ele>
        <time>2017-10-11T13:56:55Z</time>
      </trkpt>
      <trkpt lat="41.37241" lon="9.23585">
        <ele>-0.34</ele>
        <time>2017-10-11T13:57:19Z</time>
      </trkpt>
      <trkpt lat="41.37283" lon="9.23603">
        <ele>0.14</ele>
        <time>2017-10-11T13:57:45Z</time>
      </trkpt>
      <trkpt lat="41.37324" lon="9.23618">
        <ele>0.62</ele>
        <time>2017-10-11T13:58:09Z</time>
      </trkpt>
      <trkpt lat="41.37365" lon="9.23631">
        <ele>-0.34</ele>
        <time>2017-10-11T13:58:33Z</time>
      </trkpt>
      <trkpt lat="41.37409" lon="9.23644">
        <ele>0.14</ele>
        <time>2017-10-11T13:59:02Z</time>
      </trkpt>
      <trkpt lat="41.37443" lon="9.23654">
        <ele>0.14</ele>
        <time>2017-10-11T13:59:26Z</time>
      </trkpt>
      <trkpt lat="41.37479" lon="9.23662">
        <ele>0.62</ele>
        <time>2017-10-11T13:59:49Z</time>
      </trkpt>
      <trkpt lat="41.37526" lon="9.23675">
        <ele>0.62</ele>
        <time>2017-10-11T14:00:19Z</time>
      </trkpt>
      <trkpt lat="41.3757" lon="9.23682">
        <ele>0.14</ele>
        <time>2017-10-11T14:00:45Z</time>
      </trkpt>
      <trkpt lat="41.37612" lon="9.23693">
        <ele>0.14</ele>
        <time>2017-10-11T14:01:10Z</time>
      </trkpt>
      <trkpt lat="41.37651" lon="9.23697">
        <ele>0.14</ele>
        <time>2017-10-11T14:01:33Z</time>
      </trkpt>
      <trkpt lat="41.37685" lon="9.23704">
        <ele>0.62</ele>
        <time>2017-10-11T14:02:00Z</time>
      </trkpt>
      <trkpt lat="41.37712" lon="9.23707">
        <ele>0.62</ele>
        <time>2017-10-11T14:02:24Z</time>
      </trkpt>
      <trkpt lat="41.37743" lon="9.23711">
        <ele>0.62</ele>
        <time>2017-10-11T14:02:54Z</time>
      </trkpt>
      <trkpt lat="41.37777" lon="9.23711">
        <ele>0.62</ele>
        <time>2017-10-11T14:03:23Z</time>
      </trkpt>
      <trkpt lat="41.37816" lon="9.23717">
        <ele>1.1</ele>
        <time>2017-10-11T14:03:52Z</time>
      </trkpt>
      <trkpt lat="41.37851" lon="9.23725">
        <ele>0.62</ele>
        <time>2017-10-11T14:04:19Z</time>
      </trkpt>
      <trkpt lat="41.37884" lon="9.2375">
        <ele>1.1</ele>
        <time>2017-10-11T14:04:50Z</time>
      </trkpt>
      <trkpt lat="41.37904" lon="9.23771">
        <ele>1.1</ele>
        <time>2017-10-11T14:05:16Z</time>
      </trkpt>
      <trkpt lat="41.37922" lon="9.23787">
        <ele>1.58</ele>
        <time>2017-10-11T14:05:42Z</time>
      </trkpt>
      <trkpt lat="41.37936" lon="9.23803">
        <ele>1.58</ele>
        <time>2017-10-11T14:06:06Z</time>
      </trkpt>
      <trkpt lat="41.37954" lon="9.23819">
        <ele>1.1</ele>
        <time>2017-10-11T14:06:33Z</time>
      </trkpt>
      <trkpt lat="41.37973" lon="9.23836">
        <ele>1.58</ele>
        <time>2017-10-11T14:07:02Z</time>
      </trkpt>
      <trkpt lat="41.37994" lon="9.23854">
        <ele>1.58</ele>
        <time>2017-10-11T14:07:33Z</time>
      </trkpt>
      <trkpt lat="41.38011" lon="9.23877">
        <ele>2.06</ele>
        <time>2017-10-11T14:08:05Z</time>
      </trkpt>
      <trkpt lat="41.38024" lon="9.23896">
        <ele>1.58</ele>
        <time>2017-10-11T14:08:27Z</time>
      </trkpt>
      <trkpt lat="41.38038" lon="9.23923">
        <ele>1.1</ele>
        <time>2017-10-11T14:08:50Z</time>
      </trkpt>
      <trkpt lat="41.38053" lon="9.23952">
        <ele>1.58</ele>
        <time>2017-10-11T14:09:16Z</time>
      </trkpt>
      <trkpt lat="41.38069" lon="9.23986">
        <ele>1.1</ele>
        <time>2017-10-11T14:09:44Z</time>
      </trkpt>
      <trkpt lat="41.38083" lon="9.24016">
        <ele>0.14</ele>
        <time>2017-10-11T14:10:08Z</time>
      </trkpt>
      <trkpt lat="41.381" lon="9.24048">
        <ele>1.1</ele>
        <time>2017-10-11T14:10:33Z</time>
      </trkpt>
      <trkpt lat="41.38117" lon="9.24078">
        <ele>1.1</ele>
        <time>2017-10-11T14:10:58Z</time>
      </trkpt>
      <trkpt lat="41.38131" lon="9.24106">
        <ele>1.1</ele>
        <time>2017-10-11T14:11:22Z</time>
      </trkpt>
      <trkpt lat="41.38145" lon="9.24133">
        <ele>1.58</ele>
        <time>2017-10-11T14:11:44Z</time>
      </trkpt>
      <trkpt lat="41.38163" lon="9.24165">
        <ele>2.54</ele>
        <time>2017-10-11T14:12:11Z</time>
      </trkpt>
      <trkpt lat="41.38182" lon="9.24187">
        <ele>3.5</ele>
        <time>2017-10-11T14:12:31Z</time>
      </trkpt>
      <trkpt lat="41.38207" lon="9.24215">
        <ele>3.98</ele>
        <time>2017-10-11T14:12:56Z</time>
      </trkpt>
      <trkpt lat="41.38233" lon="9.2425">
        <ele>3.5</ele>
        <time>2017-10-11T14:13:24Z</time>
      </trkpt>
      <trkpt lat="41.38261" lon="9.24286">
        <ele>3.98</ele>
        <time>2017-10-11T14:13:53Z</time>
      </trkpt>
      <trkpt lat="41.38277" lon="9.24317">
        <ele>1.58</ele>
        <time>2017-10-11T14:14:16Z</time>
      </trkpt>
      <trkpt lat="41.38299" lon="9.24354">
        <ele>2.54</ele>
        <time>2017-10-11T14:14:45Z</time>
      </trkpt>
      <trkpt lat="41.38315" lon="9.24387">
        <ele>0.62</ele>
        <time>2017-10-11T14:15:10Z</time>
      </trkpt>
      <trkpt lat="41.38336" lon="9.24425">
        <ele>1.1</ele>
        <time>2017-10-11T14:15:38Z</time>
      </trkpt>
      <trkpt lat="41.38356" lon="9.24469">
        <ele>0.14</ele>
        <time>2017-10-11T14:16:09Z</time>
      </trkpt>
      <trkpt lat="41.38374" lon="9.2451">
        <ele>-0.34</ele>
        <time>2017-10-11T14:16:38Z</time>
      </trkpt>
      <trkpt lat="41.38391" lon="9.24542">
        <ele>0.62</ele>
        <time>2017-10-11T14:17:02Z</time>
      </trkpt>
      <trkpt lat="41.38412" lon="9.24587">
        <ele>0.62</ele>
        <time>2017-10-11T14:17:30Z</time>
      </trkpt>
      <trkpt lat="41.38438" lon="9.24645">
        <ele>2.06</ele>
        <time>2017-10-11T14:18:01Z</time>
      </trkpt>
      <trkpt lat="41.38457" lon="9.24698">
        <ele>2.54</ele>
        <time>2017-10-11T14:18:27Z</time>
      </trkpt>
      <trkpt lat="41.3848" lon="9.24753">
        <ele>2.54</ele>
        <time>2017-10-11T14:18:55Z</time>
      </trkpt>
      <trkpt lat="41.3851" lon="9.24799">
        <ele>2.54</ele>
        <time>2017-10-11T14:19:22Z</time>
      </trkpt>
      <trkpt lat="41.38538" lon="9.24842">
        <ele>2.06</ele>
        <time>2017-10-11T14:19:47Z</time>
      </trkpt>
      <trkpt lat="41.38581" lon="9.24891">
        <ele>2.54</ele>
        <time>2017-10-11T14:20:19Z</time>
      </trkpt>
      <trkpt lat="41.38615" lon="9.24934">
        <ele>1.58</ele>
        <time>2017-10-11T14:20:45Z</time>
      </trkpt>
      <trkpt lat="41.38657" lon="9.24987">
        <ele>1.1</ele>
        <time>2017-10-11T14:21:17Z</time>
      </trkpt>
      <trkpt lat="41.38694" lon="9.25035">
        <ele>1.58</ele>
        <time>2017-10-11T14:21:46Z</time>
      </trkpt>
      <trkpt lat="41.3873" lon="9.25081">
        <ele>2.54</ele>
        <time>2017-10-11T14:22:12Z</time>
      </trkpt>
      <trkpt lat="41.38775" lon="9.25137">
        <ele>3.02</ele>
        <time>2017-10-11T14:22:42Z</time>
      </trkpt>
      <trkpt lat="41.3882" lon="9.25192">
        <ele>2.54</ele>
        <time>2017-10-11T14:23:11Z</time>
      </trkpt>
      <trkpt lat="41.38868" lon="9.25252">
        <ele>1.58</ele>
        <time>2017-10-11T14:23:42Z</time>
      </trkpt>
      <trkpt lat="41.38915" lon="9.25309">
        <ele>1.1</ele>
        <time>2017-10-11T14:24:12Z</time>
      </trkpt>
      <trkpt lat="41.38965" lon="9.25373">
        <ele>2.54</ele>
        <time>2017-10-11T14:24:44Z</time>
      </trkpt>
      <trkpt lat="41.39009" lon="9.25426">
        <ele>2.54</ele>
        <time>2017-10-11T14:25:11Z</time>
      </trkpt>
      <trkpt lat="41.39061" lon="9.25496">
        <ele>3.02</ele>
        <time>2017-10-11T14:25:42Z</time>
      </trkpt>
      <trkpt lat="41.39113" lon="9.25565">
        <ele>2.54</ele>
        <time>2017-10-11T14:26:12Z</time>
      </trkpt>
      <trkpt lat="41.39159" lon="9.25624">
        <ele>2.54</ele>
        <time>2017-10-11T14:26:38Z</time>
      </trkpt>
      <trkpt lat="41.39208" lon="9.2568">
        <ele>1.1</ele>
        <time>2017-10-11T14:27:05Z</time>
      </trkpt>
      <trkpt lat="41.3927" lon="9.25753">
        <ele>1.58</ele>
        <time>2017-10-11T14:27:39Z</time>
      </trkpt>
      <trkpt lat="41.39329" lon="9.25833">
        <ele>1.1</ele>
        <time>2017-10-11T14:28:15Z</time>
      </trkpt>
      <trkpt lat="41.39363" lon="9.25884">
        <ele>2.06</ele>
        <time>2017-10-11T14:28:37Z</time>
      </trkpt>
      <trkpt lat="41.39409" lon="9.25958">
        <ele>0.62</ele>
        <time>2017-10-11T14:29:08Z</time>
      </trkpt>
      <trkpt lat="41.39447" lon="9.26019">
        <ele>1.58</ele>
        <time>2017-10-11T14:29:33Z</time>
      </trkpt>
      <trkpt lat="41.3949" lon="9.26086">
        <ele>0.62</ele>
        <time>2017-10-11T14:30:01Z</time>
      </trkpt>
      <trkpt lat="41.39535" lon="9.26155">
        <ele>0.62</ele>
        <time>2017-10-11T14:30:30Z</time>
      </trkpt>
      <trkpt lat="41.39575" lon="9.26218">
        <ele>0.62</ele>
        <time>2017-10-11T14:30:57Z</time>
      </trkpt>
      <trkpt lat="41.39616" lon="9.26282">
        <ele>-0.34</ele>
        <time>2017-10-11T14:31:24Z</time>
      </trkpt>
      <trkpt lat="41.39654" lon="9.26341">
        <ele>0.14</ele>
        <time>2017-10-11T14:31:49Z</time>
      </trkpt>
      <trkpt lat="41.39692" lon="9.26399">
        <ele>-0.34</ele>
        <time>2017-10-11T14:32:14Z</time>
      </trkpt>
      <trkpt lat="41.39736" lon="9.26467">
        <ele>-1.3</ele>
        <time>2017-10-11T14:32:43Z</time>
      </trkpt>
      <trkpt lat="41.39774" lon="9.26524">
        <ele>-0.82</ele>
        <time>2017-10-11T14:33:07Z</time>
      </trkpt>
      <trkpt lat="41.39804" lon="9.26571">
        <ele>-0.34</ele>
        <time>2017-10-11T14:33:27Z</time>
      </trkpt>
      <trkpt lat="41.39839" lon="9.26626">
        <ele>0.14</ele>
        <time>2017-10-11T14:33:52Z</time>
      </trkpt>
      <trkpt lat="41.39892" lon="9.26705">
        <ele>0.62</ele>
        <time>2017-10-11T14:34:27Z</time>
      </trkpt>
      <trkpt lat="41.39941" lon="9.26765">
        <ele>2.54</ele>
        <time>2017-10-11T14:34:55Z</time>
      </trkpt>
      <trkpt lat="41.39995" lon="9.26819">
        <ele>1.58</ele>
        <time>2017-10-11T14:35:23Z</time>
      </trkpt>
      <trkpt lat="41.40048" lon="9.26876">
        <ele>0.14</ele>
        <time>2017-10-11T14:35:51Z</time>
      </trkpt>
      <trkpt lat="41.40103" lon="9.26933">
        <ele>0.14</ele>
        <time>2017-10-11T14:36:19Z</time>
      </trkpt>
      <trkpt lat="41.40146" lon="9.26974">
        <ele>2.54</ele>
        <time>2017-10-11T14:36:44Z</time>
      </trkpt>
      <trkpt lat="41.4018" lon="9.26999">
        <ele>2.54</ele>
        <time>2017-10-11T14:37:08Z</time>
      </trkpt>
      <trkpt lat="41.4022" lon="9.2702">
        <ele>1.58</ele>
        <time>2017-10-11T14:37:34Z</time>
      </trkpt>
      <trkpt lat="41.4025" lon="9.27036">
        <ele>1.58</ele>
        <time>2017-10-11T14:37:53Z</time>
      </trkpt>
      <trkpt lat="41.40287" lon="9.27056">
        <ele>0.62</ele>
        <time>2017-10-11T14:38:16Z</time>
      </trkpt>
      <trkpt lat="41.40327" lon="9.27078">
        <ele>-0.34</ele>
        <time>2017-10-11T14:38:42Z</time>
      </trkpt>
      <trkpt lat="41.40369" lon="9.27099">
        <ele>-0.34</ele>
        <time>2017-10-11T14:39:11Z</time>
      </trkpt>
      <trkpt lat="41.40392" lon="9.27111">
        <ele>-0.82</ele>
        <time>2017-10-11T14:39:27Z</time>
      </trkpt>
      <trkpt lat="41.40428" lon="9.2713">
        <ele>-1.3</ele>
        <time>2017-10-11T14:39:54Z</time>
      </trkpt>
      <trkpt lat="41.40467" lon="9.27149">
        <ele>-0.34</ele>
        <time>2017-10-11T14:40:23Z</time>
      </trkpt>
      <trkpt lat="41.40511" lon="9.27168">
        <ele>-0.34</ele>
        <time>2017-10-11T14:40:53Z</time>
      </trkpt>
      <trkpt lat="41.40557" lon="9.27187">
        <ele>-0.34</ele>
        <time>2017-10-11T14:41:24Z</time>
      </trkpt>
      <trkpt lat="41.40599" lon="9.27205">
        <ele>0.14</ele>
        <time>2017-10-11T14:41:49Z</time>
      </trkpt>
      <trkpt lat="41.40651" lon="9.27229">
        <ele>-0.82</ele>
        <time>2017-10-11T14:42:22Z</time>
      </trkpt>
      <trkpt lat="41.40703" lon="9.27251">
        <ele>-0.34</ele>
        <time>2017-10-11T14:42:55Z</time>
      </trkpt>
      <trkpt lat="41.40753" lon="9.27273">
        <ele>-0.34</ele>
        <time>2017-10-11T14:43:25Z</time>
      </trkpt>
      <trkpt lat="41.40807" lon="9.27298">
        <ele>-0.34</ele>
        <time>2017-10-11T14:43:58Z</time>
      </trkpt>
      <trkpt lat="41.4085" lon="9.27317">
        <ele>-0.34</ele>
        <time>2017-10-11T14:44:25Z</time>
      </trkpt>
      <trkpt lat="41.40893" lon="9.27335">
        <ele>-0.34</ele>
        <time>2017-10-11T14:44:53Z</time>
      </trkpt>
      <trkpt lat="41.40947" lon="9.27354">
        <ele>-1.3</ele>
        <time>2017-10-11T14:45:25Z</time>
      </trkpt>
      <trkpt lat="41.41001" lon="9.27371">
        <ele>-1.3</ele>
        <time>2017-10-11T14:45:56Z</time>
      </trkpt>
      <trkpt lat="41.41049" lon="9.27387">
        <ele>-1.3</ele>
        <time>2017-10-11T14:46:24Z</time>
      </trkpt>
      <trkpt lat="41.41102" lon="9.27403">
        <ele>-1.3</ele>
        <time>2017-10-11T14:46:55Z</time>
      </trkpt>
      <trkpt lat="41.41153" lon="9.2742">
        <ele>-1.3</ele>
        <time>2017-10-11T14:47:22Z</time>
      </trkpt>
      <trkpt lat="41.4121" lon="9.27439">
        <ele>-2.27</ele>
        <time>2017-10-11T14:47:53Z</time>
      </trkpt>
      <trkpt lat="41.41265" lon="9.27458">
        <ele>-1.79</ele>
        <time>2017-10-11T14:48:24Z</time>
      </trkpt>
      <trkpt lat="41.41308" lon="9.2747">
        <ele>-1.79</ele>
        <time>2017-10-11T14:48:50Z</time>
      </trkpt>
      <trkpt lat="41.41351" lon="9.27483">
        <ele>-1.79</ele>
        <time>2017-10-11T14:49:14Z</time>
      </trkpt>
      <trkpt lat="41.4139" lon="9.27495">
        <ele>-1.3</ele>
        <time>2017-10-11T14:49:37Z</time>
      </trkpt>
      <trkpt lat="41.41434" lon="9.27507">
        <ele>-0.34</ele>
        <time>2017-10-11T14:50:03Z</time>
      </trkpt>
      <trkpt lat="41.41481" lon="9.27522">
        <ele>-0.34</ele>
        <time>2017-10-11T14:50:30Z</time>
      </trkpt>
      <trkpt lat="41.41533" lon="9.2754">
        <ele>0.62</ele>
        <time>2017-10-11T14:50:59Z</time>
      </trkpt>
      <trkpt lat="41.41581" lon="9.27555">
        <ele>1.1</ele>
        <time>2017-10-11T14:51:26Z</time>
      </trkpt>
      <trkpt lat="41.41634" lon="9.2757">
        <ele>1.1</ele>
        <time>2017-10-11T14:51:55Z</time>
      </trkpt>
      <trkpt lat="41.41677" lon="9.27583">
        <ele>1.1</ele>
        <time>2017-10-11T14:52:19Z</time>
      </trkpt>
      <trkpt lat="41.41725" lon="9.276">
        <ele>0.62</ele>
        <time>2017-10-11T14:52:47Z</time>
      </trkpt>
      <trkpt lat="41.41776" lon="9.27614">
        <ele>1.1</ele>
        <time>2017-10-11T14:53:17Z</time>
      </trkpt>
      <trkpt lat="41.41826" lon="9.2763">
        <ele>1.1</ele>
        <time>2017-10-11T14:53:43Z</time>
      </trkpt>
      <trkpt lat="41.41873" lon="9.27644">
        <ele>0.62</ele>
        <time>2017-10-11T14:54:08Z</time>
      </trkpt>
      <trkpt lat="41.41915" lon="9.27656">
        <ele>0.14</ele>
        <time>2017-10-11T14:54:31Z</time>
      </trkpt>
      <trkpt lat="41.41961" lon="9.27666">
        <ele>0.62</ele>
        <time>2017-10-11T14:54:56Z</time>
      </trkpt>
      <trkpt lat="41.42002" lon="9.27675">
        <ele>0.62</ele>
        <time>2017-10-11T14:55:19Z</time>
      </trkpt>
      <trkpt lat="41.42045" lon="9.27685">
        <ele>0.62</ele>
        <time>2017-10-11T14:55:44Z</time>
      </trkpt>
      <trkpt lat="41.42085" lon="9.27694">
        <ele>1.1</ele>
        <time>2017-10-11T14:56:08Z</time>
      </trkpt>
      <trkpt lat="41.42125" lon="9.27701">
        <ele>0.62</ele>
        <time>2017-10-11T14:56:30Z</time>
      </trkpt>
      <trkpt lat="41.42168" lon="9.2771">
        <ele>1.1</ele>
        <time>2017-10-11T14:56:53Z</time>
      </trkpt>
      <trkpt lat="41.42211" lon="9.27721">
        <ele>0.62</ele>
        <time>2017-10-11T14:57:15Z</time>
      </trkpt>
      <trkpt lat="41.42249" lon="9.27729">
        <ele>0.14</ele>
        <time>2017-10-11T14:57:37Z</time>
      </trkpt>
      <trkpt lat="41.42299" lon="9.27738">
        <ele>0.14</ele>
        <time>2017-10-11T14:58:05Z</time>
      </trkpt>
      <trkpt lat="41.42353" lon="9.2775">
        <ele>0.62</ele>
        <time>2017-10-11T14:58:32Z</time>
      </trkpt>
      <trkpt lat="41.42412" lon="9.27765">
        <ele>1.1</ele>
        <time>2017-10-11T14:59:02Z</time>
      </trkpt>
      <trkpt lat="41.42458" lon="9.27774">
        <ele>1.1</ele>
        <time>2017-10-11T14:59:27Z</time>
      </trkpt>
      <trkpt lat="41.42508" lon="9.27785">
        <ele>1.58</ele>
        <time>2017-10-11T14:59:56Z</time>
      </trkpt>
      <trkpt lat="41.42558" lon="9.27796">
        <ele>1.58</ele>
        <time>2017-10-11T15:00:26Z</time>
      </trkpt>
      <trkpt lat="41.42606" lon="9.27805">
        <ele>1.58</ele>
        <time>2017-10-11T15:00:53Z</time>
      </trkpt>
      <trkpt lat="41.42651" lon="9.27814">
        <ele>1.1</ele>
        <time>2017-10-11T15:01:18Z</time>
      </trkpt>
      <trkpt lat="41.42701" lon="9.27825">
        <ele>1.58</ele>
        <time>2017-10-11T15:01:46Z</time>
      </trkpt>
      <trkpt lat="41.42751" lon="9.27838">
        <ele>2.06</ele>
        <time>2017-10-11T15:02:14Z</time>
      </trkpt>
      <trkpt lat="41.42795" lon="9.27847">
        <ele>2.54</ele>
        <time>2017-10-11T15:02:39Z</time>
      </trkpt>
      <trkpt lat="41.42844" lon="9.27856">
        <ele>2.06</ele>
        <time>2017-10-11T15:03:07Z</time>
      </trkpt>
      <trkpt lat="41.42882" lon="9.27865">
        <ele>2.06</ele>
        <time>2017-10-11T15:03:31Z</time>
      </trkpt>
      <trkpt lat="41.42924" lon="9.27872">
        <ele>1.1</ele>
        <time>2017-10-11T15:03:57Z</time>
      </trkpt>
      <trkpt lat="41.42973" lon="9.27883">
        <ele>0.62</ele>
        <time>2017-10-11T15:04:27Z</time>
      </trkpt>
      <trkpt lat="41.43015" lon="9.27892">
        <ele>0.62</ele>
        <time>2017-10-11T15:04:52Z</time>
      </trkpt>
      <trkpt lat="41.43063" lon="9.27902">
        <ele>0.62</ele>
        <time>2017-10-11T15:05:20Z</time>
      </trkpt>
      <trkpt lat="41.43106" lon="9.27911">
        <ele>0.62</ele>
        <time>2017-10-11T15:05:45Z</time>
      </trkpt>
      <trkpt lat="41.43143" lon="9.27918">
        <ele>-0.34</ele>
        <time>2017-10-11T15:06:08Z</time>
      </trkpt>
      <trkpt lat="41.43186" lon="9.27927">
        <ele>-0.82</ele>
        <time>2017-10-11T15:06:37Z</time>
      </trkpt>
      <trkpt lat="41.4322" lon="9.27934">
        <ele>0.62</ele>
        <time>2017-10-11T15:07:01Z</time>
      </trkpt>
      <trkpt lat="41.43253" lon="9.27939">
        <ele>1.1</ele>
        <time>2017-10-11T15:07:24Z</time>
      </trkpt>
      <trkpt lat="41.43288" lon="9.27947">
        <ele>0.14</ele>
        <time>2017-10-11T15:07:46Z</time>
      </trkpt>
      <trkpt lat="41.43329" lon="9.27955">
        <ele>0.62</ele>
        <time>2017-10-11T15:08:12Z</time>
      </trkpt>
      <trkpt lat="41.43372" lon="9.27963">
        <ele>0.14</ele>
        <time>2017-10-11T15:08:40Z</time>
      </trkpt>
      <trkpt lat="41.43415" lon="9.27971">
        <ele>2.06</ele>
        <time>2017-10-11T15:09:09Z</time>
      </trkpt>
      <trkpt lat="41.43467" lon="9.27983">
        <ele>2.54</ele>
        <time>2017-10-11T15:09:39Z</time>
      </trkpt>
      <trkpt lat="41.43515" lon="9.27994">
        <ele>2.54</ele>
        <time>2017-10-11T15:10:04Z</time>
      </trkpt>
      <trkpt lat="41.43565" lon="9.28004">
        <ele>3.5</ele>
        <time>2017-10-11T15:10:31Z</time>
      </trkpt>
      <trkpt lat="41.43615" lon="9.28016">
        <ele>3.5</ele>
        <time>2017-10-11T15:10:58Z</time>
      </trkpt>
      <trkpt lat="41.43662" lon="9.28027">
        <ele>2.54</ele>
        <time>2017-10-11T15:11:23Z</time>
      </trkpt>
      <trkpt lat="41.43716" lon="9.28037">
        <ele>0.14</ele>
        <time>2017-10-11T15:11:53Z</time>
      </trkpt>
      <trkpt lat="41.43767" lon="9.28048">
        <ele>-0.34</ele>
        <time>2017-10-11T15:12:21Z</time>
      </trkpt>
      <trkpt lat="41.4382" lon="9.28059">
        <ele>-0.82</ele>
        <time>2017-10-11T15:12:49Z</time>
      </trkpt>
      <trkpt lat="41.43875" lon="9.28071">
        <ele>-0.34</ele>
        <time>2017-10-11T15:13:20Z</time>
      </trkpt>
      <trkpt lat="41.43927" lon="9.28083">
        <ele>-0.34</ele>
        <time>2017-10-11T15:13:51Z</time>
      </trkpt>
      <trkpt lat="41.43975" lon="9.28093">
        <ele>0.14</ele>
        <time>2017-10-11T15:14:20Z</time>
      </trkpt>
      <trkpt lat="41.44017" lon="9.28101">
        <ele>-0.34</ele>
        <time>2017-10-11T15:14:45Z</time>
      </trkpt>
      <trkpt lat="41.44073" lon="9.28112">
        <ele>-0.34</ele>
        <time>2017-10-11T15:15:18Z</time>
      </trkpt>
      <trkpt lat="41.44118" lon="9.28122">
        <ele>-0.82</ele>
        <time>2017-10-11T15:15:45Z</time>
      </trkpt>
      <trkpt lat="41.44174" lon="9.28133">
        <ele>-0.34</ele>
        <time>2017-10-11T15:16:19Z</time>
      </trkpt>
      <trkpt lat="41.44219" lon="9.28142">
        <ele>-0.34</ele>
        <time>2017-10-11T15:16:47Z</time>
      </trkpt>
      <trkpt lat="41.44276" lon="9.28153">
        <ele>0.62</ele>
        <time>2017-10-11T15:17:19Z</time>
      </trkpt>
      <trkpt lat="41.44332" lon="9.28166">
        <ele>0.62</ele>
        <time>2017-10-11T15:17:51Z</time>
      </trkpt>
      <trkpt lat="41.44378" lon="9.28173">
        <ele>1.1</ele>
        <time>2017-10-11T15:18:19Z</time>
      </trkpt>
      <trkpt lat="41.44425" lon="9.28181">
        <ele>1.58</ele>
        <time>2017-10-11T15:18:48Z</time>
      </trkpt>
      <trkpt lat="41.44473" lon="9.2819">
        <ele>1.58</ele>
        <time>2017-10-11T15:19:17Z</time>
      </trkpt>
      <trkpt lat="41.44509" lon="9.28199">
        <ele>1.58</ele>
        <time>2017-10-11T15:19:40Z</time>
      </trkpt>
      <trkpt lat="41.44545" lon="9.28206">
        <ele>2.06</ele>
        <time>2017-10-11T15:20:05Z</time>
      </trkpt>
      <trkpt lat="41.44583" lon="9.28213">
        <ele>1.58</ele>
        <time>2017-10-11T15:20:33Z</time>
      </trkpt>
      <trkpt lat="41.44619" lon="9.28219">
        <ele>1.58</ele>
        <time>2017-10-11T15:21:01Z</time>
      </trkpt>
      <trkpt lat="41.44657" lon="9.28226">
        <ele>2.06</ele>
        <time>2017-10-11T15:21:27Z</time>
      </trkpt>
      <trkpt lat="41.44699" lon="9.28236">
        <ele>3.02</ele>
        <time>2017-10-11T15:21:56Z</time>
      </trkpt>
      <trkpt lat="41.44742" lon="9.28245">
        <ele>3.5</ele>
        <time>2017-10-11T15:22:22Z</time>
      </trkpt>
      <trkpt lat="41.44785" lon="9.28257">
        <ele>3.5</ele>
        <time>2017-10-11T15:22:48Z</time>
      </trkpt>
      <trkpt lat="41.44826" lon="9.28267">
        <ele>2.06</ele>
        <time>2017-10-11T15:23:12Z</time>
      </trkpt>
      <trkpt lat="41.44869" lon="9.28276">
        <ele>1.58</ele>
        <time>2017-10-11T15:23:39Z</time>
      </trkpt>
      <trkpt lat="41.44914" lon="9.28286">
        <ele>3.02</ele>
        <time>2017-10-11T15:24:11Z</time>
      </trkpt>
      <trkpt lat="41.44948" lon="9.28293">
        <ele>2.06</ele>
        <time>2017-10-11T15:24:36Z</time>
      </trkpt>
      <trkpt lat="41.44987" lon="9.28303">
        <ele>2.06</ele>
        <time>2017-10-11T15:25:03Z</time>
      </trkpt>
      <trkpt lat="41.45029" lon="9.28312">
        <ele>1.1</ele>
        <time>2017-10-11T15:25:29Z</time>
      </trkpt>
      <trkpt lat="41.45061" lon="9.28319">
        <ele>0.62</ele>
        <time>2017-10-11T15:25:49Z</time>
      </trkpt>
      <trkpt lat="41.45099" lon="9.28329">
        <ele>1.1</ele>
        <time>2017-10-11T15:26:13Z</time>
      </trkpt>
      <trkpt lat="41.45134" lon="9.28338">
        <ele>0.14</ele>
        <time>2017-10-11T15:26:37Z</time>
      </trkpt>
      <trkpt lat="41.45175" lon="9.28346">
        <ele>1.1</ele>
        <time>2017-10-11T15:27:04Z</time>
      </trkpt>
      <trkpt lat="41.45214" lon="9.28356">
        <ele>2.06</ele>
        <time>2017-10-11T15:27:32Z</time>
      </trkpt>
      <trkpt lat="41.45254" lon="9.28364">
        <ele>2.06</ele>
        <time>2017-10-11T15:27:59Z</time>
      </trkpt>
      <trkpt lat="41.45295" lon="9.28374">
        <ele>3.02</ele>
        <time>2017-10-11T15:28:29Z</time>
      </trkpt>
      <trkpt lat="41.45336" lon="9.28383">
        <ele>2.54</ele>
        <time>2017-10-11T15:28:57Z</time>
      </trkpt>
      <trkpt lat="41.4537" lon="9.28392">
        <ele>2.54</ele>
        <time>2017-10-11T15:29:22Z</time>
      </trkpt>
      <trkpt lat="41.45412" lon="9.284">
        <ele>2.06</ele>
        <time>2017-10-11T15:29:52Z</time>
      </trkpt>
      <trkpt lat="41.45446" lon="9.28406">
        <ele>2.06</ele>
        <time>2017-10-11T15:30:19Z</time>
      </trkpt>
      <trkpt lat="41.45477" lon="9.28412">
        <ele>2.54</ele>
        <time>2017-10-11T15:30:42Z</time>
      </trkpt>
      <trkpt lat="41.45506" lon="9.28418">
        <ele>2.54</ele>
        <time>2017-10-11T15:31:03Z</time>
      </trkpt>
      <trkpt lat="41.45544" lon="9.28425">
        <ele>1.58</ele>
        <time>2017-10-11T15:31:28Z</time>
      </trkpt>
      <trkpt lat="41.45583" lon="9.28434">
        <ele>1.58</ele>
        <time>2017-10-11T15:31:54Z</time>
      </trkpt>
      <trkpt lat="41.45617" lon="9.28443">
        <ele>2.06</ele>
        <time>2017-10-11T15:32:20Z</time>
      </trkpt>
      <trkpt lat="41.45645" lon="9.28447">
        <ele>1.1</ele>
        <time>2017-10-11T15:32:42Z</time>
      </trkpt>
      <trkpt lat="41.45677" lon="9.28453">
        <ele>1.1</ele>
        <time>2017-10-11T15:33:05Z</time>
      </trkpt>
      <trkpt lat="41.4571" lon="9.2846">
        <ele>0.62</ele>
        <time>2017-10-11T15:33:28Z</time>
      </trkpt>
      <trkpt lat="41.45743" lon="9.28468">
        <ele>0.14</ele>
        <time>2017-10-11T15:33:54Z</time>
      </trkpt>
      <trkpt lat="41.45776" lon="9.28474">
        <ele>-0.34</ele>
        <time>2017-10-11T15:34:18Z</time>
      </trkpt>
      <trkpt lat="41.45809" lon="9.28481">
        <ele>0.14</ele>
        <time>2017-10-11T15:34:42Z</time>
      </trkpt>
      <trkpt lat="41.45843" lon="9.28489">
        <ele>-0.34</ele>
        <time>2017-10-11T15:35:07Z</time>
      </trkpt>
      <trkpt lat="41.4587" lon="9.28494">
        <ele>-0.82</ele>
        <time>2017-10-11T15:35:28Z</time>
      </trkpt>
      <trkpt lat="41.45896" lon="9.28499">
        <ele>-0.82</ele>
        <time>2017-10-11T15:35:47Z</time>
      </trkpt>
      <trkpt lat="41.45919" lon="9.28505">
        <ele>-0.82</ele>
        <time>2017-10-11T15:36:04Z</time>
      </trkpt>
      <trkpt lat="41.45954" lon="9.28511">
        <ele>0.14</ele>
        <time>2017-10-11T15:36:28Z</time>
      </trkpt>
      <trkpt lat="41.45988" lon="9.2852">
        <ele>0.62</ele>
        <time>2017-10-11T15:36:53Z</time>
      </trkpt>
      <trkpt lat="41.46017" lon="9.28524">
        <ele>1.1</ele>
        <time>2017-10-11T15:37:15Z</time>
      </trkpt>
      <trkpt lat="41.4605" lon="9.28531">
        <ele>0.62</ele>
        <time>2017-10-11T15:37:38Z</time>
      </trkpt>
      <trkpt lat="41.46082" lon="9.28539">
        <ele>2.54</ele>
        <time>2017-10-11T15:38:01Z</time>
      </trkpt>
      <trkpt lat="41.46128" lon="9.28548">
        <ele>1.58</ele>
        <time>2017-10-11T15:38:32Z</time>
      </trkpt>
      <trkpt lat="41.46178" lon="9.2856">
        <ele>2.06</ele>
        <time>2017-10-11T15:39:06Z</time>
      </trkpt>
      <trkpt lat="41.46215" lon="9.28566">
        <ele>2.54</ele>
        <time>2017-10-11T15:39:31Z</time>
      </trkpt>
      <trkpt lat="41.46259" lon="9.28576">
        <ele>2.06</ele>
        <time>2017-10-11T15:39:59Z</time>
      </trkpt>
      <trkpt lat="41.46298" lon="9.28586">
        <ele>1.58</ele>
        <time>2017-10-11T15:40:24Z</time>
      </trkpt>
      <trkpt lat="41.46343" lon="9.28595">
        <ele>2.54</ele>
        <time>2017-10-11T15:40:55Z</time>
      </trkpt>
      <trkpt lat="41.46382" lon="9.28602">
        <ele>3.5</ele>
        <time>2017-10-11T15:41:27Z</time>
      </trkpt>
      <trkpt lat="41.4641" lon="9.28606">
        <ele>3.5</ele>
        <time>2017-10-11T15:41:49Z</time>
      </trkpt>
      <trkpt lat="41.46446" lon="9.28614">
        <ele>2.06</ele>
        <time>2017-10-11T15:42:15Z</time>
      </trkpt>
      <trkpt lat="41.46474" lon="9.2862">
        <ele>1.58</ele>
        <time>2017-10-11T15:42:34Z</time>
      </trkpt>
      <trkpt lat="41.46507" lon="9.28628">
        <ele>1.58</ele>
        <time>2017-10-11T15:42:56Z</time>
      </trkpt>
      <trkpt lat="41.46538" lon="9.28637">
        <ele>1.1</ele>
        <time>2017-10-11T15:43:17Z</time>
      </trkpt>
      <trkpt lat="41.46576" lon="9.28644">
        <ele>1.1</ele>
        <time>2017-10-11T15:43:42Z</time>
      </trkpt>
      <trkpt lat="41.46617" lon="9.28654">
        <ele>1.58</ele>
        <time>2017-10-11T15:44:12Z</time>
      </trkpt>
      <trkpt lat="41.46646" lon="9.28659">
        <ele>2.54</ele>
        <time>2017-10-11T15:44:35Z</time>
      </trkpt>
      <trkpt lat="41.46679" lon="9.28664">
        <ele>1.58</ele>
        <time>2017-10-11T15:45:01Z</time>
      </trkpt>
      <trkpt lat="41.46709" lon="9.2867">
        <ele>1.58</ele>
        <time>2017-10-11T15:45:26Z</time>
      </trkpt>
      <trkpt lat="41.46745" lon="9.28678">
        <ele>1.58</ele>
        <time>2017-10-11T15:45:57Z</time>
      </trkpt>
      <trkpt lat="41.46772" lon="9.28683">
        <ele>2.06</ele>
        <time>2017-10-11T15:46:21Z</time>
      </trkpt>
      <trkpt lat="41.46805" lon="9.28689">
        <ele>2.06</ele>
        <time>2017-10-11T15:46:50Z</time>
      </trkpt>
      <trkpt lat="41.46843" lon="9.28696">
        <ele>2.06</ele>
        <time>2017-10-11T15:47:20Z</time>
      </trkpt>
      <trkpt lat="41.46866" lon="9.28703">
        <ele>1.1</ele>
        <time>2017-10-11T15:47:42Z</time>
      </trkpt>
      <trkpt lat="41.46884" lon="9.28707">
        <ele>1.58</ele>
        <time>2017-10-11T15:48:01Z</time>
      </trkpt>
      <trkpt lat="41.4691" lon="9.28713">
        <ele>2.06</ele>
        <time>2017-10-11T15:48:23Z</time>
      </trkpt>
      <trkpt lat="41.46962" lon="9.28728">
        <ele>2.06</ele>
        <time>2017-10-11T15:48:50Z</time>
      </trkpt>
      <trkpt lat="41.47027" lon="9.28748">
        <ele>2.06</ele>
        <time>2017-10-11T15:49:18Z</time>
      </trkpt>
      <trkpt lat="41.47102" lon="9.28769">
        <ele>1.58</ele>
        <time>2017-10-11T15:49:49Z</time>
      </trkpt>
      <trkpt lat="41.4716" lon="9.28787">
        <ele>2.06</ele>
        <time>2017-10-11T15:50:14Z</time>
      </trkpt>
      <trkpt lat="41.4722" lon="9.28806">
        <ele>1.58</ele>
        <time>2017-10-11T15:50:39Z</time>
      </trkpt>
      <trkpt lat="41.4728" lon="9.28822">
        <ele>0.62</ele>
        <time>2017-10-11T15:51:04Z</time>
      </trkpt>
      <trkpt lat="41.47343" lon="9.28842">
        <ele>0.14</ele>
        <time>2017-10-11T15:51:30Z</time>
      </trkpt>
      <trkpt lat="41.47408" lon="9.28861">
        <ele>2.06</ele>
        <time>2017-10-11T15:51:57Z</time>
      </trkpt>
      <trkpt lat="41.47468" lon="9.28881">
        <ele>2.54</ele>
        <time>2017-10-11T15:52:22Z</time>
      </trkpt>
      <trkpt lat="41.47537" lon="9.28902">
        <ele>3.98</ele>
        <time>2017-10-11T15:52:51Z</time>
      </trkpt>
      <trkpt lat="41.47592" lon="9.2892">
        <ele>2.06</ele>
        <time>2017-10-11T15:53:14Z</time>
      </trkpt>
      <trkpt lat="41.47656" lon="9.28941">
        <ele>1.1</ele>
        <time>2017-10-11T15:53:41Z</time>
      </trkpt>
      <trkpt lat="41.47726" lon="9.28963">
        <ele>0.14</ele>
        <time>2017-10-11T15:54:10Z</time>
      </trkpt>
      <trkpt lat="41.47788" lon="9.28984">
        <ele>0.62</ele>
        <time>2017-10-11T15:54:36Z</time>
      </trkpt>
      <trkpt lat="41.4785" lon="9.29004">
        <ele>0.62</ele>
        <time>2017-10-11T15:55:02Z</time>
      </trkpt>
      <trkpt lat="41.47927" lon="9.2903">
        <ele>1.1</ele>
        <time>2017-10-11T15:55:34Z</time>
      </trkpt>
      <trkpt lat="41.47996" lon="9.29053">
        <ele>1.58</ele>
        <time>2017-10-11T15:56:03Z</time>
      </trkpt>
      <trkpt lat="41.48061" lon="9.29074">
        <ele>1.58</ele>
        <time>2017-10-11T15:56:30Z</time>
      </trkpt>
      <trkpt lat="41.48127" lon="9.29094">
        <ele>1.1</ele>
        <time>2017-10-11T15:56:57Z</time>
      </trkpt>
      <trkpt lat="41.48194" lon="9.29116">
        <ele>1.1</ele>
        <time>2017-10-11T15:57:25Z</time>
      </trkpt>
      <trkpt lat="41.48264" lon="9.29138">
        <ele>1.58</ele>
        <time>2017-10-11T15:57:54Z</time>
      </trkpt>
      <trkpt lat="41.48328" lon="9.29161">
        <ele>1.58</ele>
        <time>2017-10-11T15:58:21Z</time>
      </trkpt>
      <trkpt lat="41.48393" lon="9.29182">
        <ele>1.1</ele>
        <time>2017-10-11T15:58:48Z</time>
      </trkpt>
      <trkpt lat="41.4847" lon="9.29209">
        <ele>2.06</ele>
        <time>2017-10-11T15:59:20Z</time>
      </trkpt>
      <trkpt lat="41.48529" lon="9.29227">
        <ele>2.06</ele>
        <time>2017-10-11T15:59:44Z</time>
      </trkpt>
      <trkpt lat="41.4859" lon="9.29245">
        <ele>1.58</ele>
        <time>2017-10-11T16:00:09Z</time>
      </trkpt>
      <trkpt lat="41.48653" lon="9.29266">
        <ele>2.06</ele>
        <time>2017-10-11T16:00:35Z</time>
      </trkpt>
      <trkpt lat="41.48721" lon="9.29288">
        <ele>2.06</ele>
        <time>2017-10-11T16:01:03Z</time>
      </trkpt>
      <trkpt lat="41.48791" lon="9.29312">
        <ele>2.54</ele>
        <time>2017-10-11T16:01:32Z</time>
      </trkpt>
      <trkpt lat="41.48851" lon="9.29332">
        <ele>2.06</ele>
        <time>2017-10-11T16:01:57Z</time>
      </trkpt>
      <trkpt lat="41.48917" lon="9.29352">
        <ele>2.06</ele>
        <time>2017-10-11T16:02:24Z</time>
      </trkpt>
      <trkpt lat="41.48978" lon="9.29371">
        <ele>2.06</ele>
        <time>2017-10-11T16:02:49Z</time>
      </trkpt>
      <trkpt lat="41.49044" lon="9.29391">
        <ele>2.06</ele>
        <time>2017-10-11T16:03:16Z</time>
      </trkpt>
      <trkpt lat="41.49094" lon="9.29402">
        <ele>1.58</ele>
        <time>2017-10-11T16:03:36Z</time>
      </trkpt>
      <trkpt lat="41.49147" lon="9.29399">
        <ele>3.02</ele>
        <time>2017-10-11T16:03:57Z</time>
      </trkpt>
      <trkpt lat="41.49224" lon="9.29389">
        <ele>3.5</ele>
        <time>2017-10-11T16:04:28Z</time>
      </trkpt>
      <trkpt lat="41.493" lon="9.2938">
        <ele>3.02</ele>
        <time>2017-10-11T16:04:58Z</time>
      </trkpt>
      <trkpt lat="41.4936" lon="9.29372">
        <ele>3.02</ele>
        <time>2017-10-11T16:05:22Z</time>
      </trkpt>
      <trkpt lat="41.49426" lon="9.29363">
        <ele>3.5</ele>
        <time>2017-10-11T16:05:48Z</time>
      </trkpt>
      <trkpt lat="41.49472" lon="9.29356">
        <ele>3.02</ele>
        <time>2017-10-11T16:06:06Z</time>
      </trkpt>
      <trkpt lat="41.49536" lon="9.29348">
        <ele>3.02</ele>
        <time>2017-10-11T16:06:31Z</time>
      </trkpt>
      <trkpt lat="41.49606" lon="9.29338">
        <ele>4.46</ele>
        <time>2017-10-11T16:06:59Z</time>
      </trkpt>
      <trkpt lat="41.49668" lon="9.2933">
        <ele>4.46</ele>
        <time>2017-10-11T16:07:23Z</time>
      </trkpt>
      <trkpt lat="41.49737" lon="9.29322">
        <ele>5.42</ele>
        <time>2017-10-11T16:07:50Z</time>
      </trkpt>
      <trkpt lat="41.49813" lon="9.29313">
        <ele>5.91</ele>
        <time>2017-10-11T16:08:20Z</time>
      </trkpt>
      <trkpt lat="41.49885" lon="9.29303">
        <ele>4.94</ele>
        <time>2017-10-11T16:08:48Z</time>
      </trkpt>
      <trkpt lat="41.49963" lon="9.29285">
        <ele>4.46</ele>
        <time>2017-10-11T16:09:19Z</time>
      </trkpt>
      <trkpt lat="41.50029" lon="9.2926">
        <ele>2.54</ele>
        <time>2017-10-11T16:09:46Z</time>
      </trkpt>
      <trkpt lat="41.50092" lon="9.29239">
        <ele>3.02</ele>
        <time>2017-10-11T16:10:11Z</time>
      </trkpt>
      <trkpt lat="41.50159" lon="9.29223">
        <ele>3.02</ele>
        <time>2017-10-11T16:10:37Z</time>
      </trkpt>
      <trkpt lat="41.50225" lon="9.29209">
        <ele>3.98</ele>
        <time>2017-10-11T16:11:03Z</time>
      </trkpt>
      <trkpt lat="41.50281" lon="9.29198">
        <ele>4.46</ele>
        <time>2017-10-11T16:11:25Z</time>
      </trkpt>
      <trkpt lat="41.50344" lon="9.29176">
        <ele>3.98</ele>
        <time>2017-10-11T16:11:51Z</time>
      </trkpt>
      <trkpt lat="41.50411" lon="9.2915">
        <ele>3.02</ele>
        <time>2017-10-11T16:12:18Z</time>
      </trkpt>
      <trkpt lat="41.50481" lon="9.29126">
        <ele>3.02</ele>
        <time>2017-10-11T16:12:46Z</time>
      </trkpt>
      <trkpt lat="41.50536" lon="9.29106">
        <ele>3.02</ele>
        <time>2017-10-11T16:13:08Z</time>
      </trkpt>
      <trkpt lat="41.50599" lon="9.2909">
        <ele>3.02</ele>
        <time>2017-10-11T16:13:33Z</time>
      </trkpt>
      <trkpt lat="41.50657" lon="9.29074">
        <ele>3.02</ele>
        <time>2017-10-11T16:13:56Z</time>
      </trkpt>
      <trkpt lat="41.50718" lon="9.29058">
        <ele>2.54</ele>
        <time>2017-10-11T16:14:20Z</time>
      </trkpt>
      <trkpt lat="41.50778" lon="9.29047">
        <ele>2.06</ele>
        <time>2017-10-11T16:14:44Z</time>
      </trkpt>
      <trkpt lat="41.50847" lon="9.29035">
        <ele>2.54</ele>
        <time>2017-10-11T16:15:11Z</time>
      </trkpt>
      <trkpt lat="41.50916" lon="9.29022">
        <ele>3.02</ele>
        <time>2017-10-11T16:15:38Z</time>
      </trkpt>
      <trkpt lat="41.50978" lon="9.29013">
        <ele>2.54</ele>
        <time>2017-10-11T16:16:02Z</time>
      </trkpt>
      <trkpt lat="41.51044" lon="9.28996">
        <ele>2.54</ele>
        <time>2017-10-11T16:16:28Z</time>
      </trkpt>
      <trkpt lat="41.51114" lon="9.28976">
        <ele>3.02</ele>
        <time>2017-10-11T16:16:56Z</time>
      </trkpt>
      <trkpt lat="41.51176" lon="9.28953">
        <ele>3.02</ele>
        <time>2017-10-11T16:17:21Z</time>
      </trkpt>
      <trkpt lat="41.51244" lon="9.28931">
        <ele>3.5</ele>
        <time>2017-10-11T16:17:48Z</time>
      </trkpt>
      <trkpt lat="41.51311" lon="9.28911">
        <ele>3.5</ele>
        <time>2017-10-11T16:18:15Z</time>
      </trkpt>
      <trkpt lat="41.51365" lon="9.28898">
        <ele>3.02</ele>
        <time>2017-10-11T16:18:36Z</time>
      </trkpt>
      <trkpt lat="41.51427" lon="9.28876">
        <ele>2.54</ele>
        <time>2017-10-11T16:19:01Z</time>
      </trkpt>
      <trkpt lat="41.51484" lon="9.28858">
        <ele>3.5</ele>
        <time>2017-10-11T16:19:24Z</time>
      </trkpt>
      <trkpt lat="41.51561" lon="9.2884">
        <ele>3.02</ele>
        <time>2017-10-11T16:19:55Z</time>
      </trkpt>
      <trkpt lat="41.51617" lon="9.28841">
        <ele>3.02</ele>
        <time>2017-10-11T16:20:17Z</time>
      </trkpt>
      <trkpt lat="41.51692" lon="9.28842">
        <ele>3.98</ele>
        <time>2017-10-11T16:20:47Z</time>
      </trkpt>
      <trkpt lat="41.5176" lon="9.28837">
        <ele>3.5</ele>
        <time>2017-10-11T16:21:14Z</time>
      </trkpt>
      <trkpt lat="41.5183" lon="9.28817">
        <ele>3.5</ele>
        <time>2017-10-11T16:21:42Z</time>
      </trkpt>
      <trkpt lat="41.51891" lon="9.28785">
        <ele>3.5</ele>
        <time>2017-10-11T16:22:08Z</time>
      </trkpt>
      <trkpt lat="41.51952" lon="9.28747">
        <ele>3.98</ele>
        <time>2017-10-11T16:22:35Z</time>
      </trkpt>
      <trkpt lat="41.5201" lon="9.28707">
        <ele>3.98</ele>
        <time>2017-10-11T16:23:01Z</time>
      </trkpt>
      <trkpt lat="41.52076" lon="9.28656">
        <ele>3.5</ele>
        <time>2017-10-11T16:23:31Z</time>
      </trkpt>
      <trkpt lat="41.52134" lon="9.28608">
        <ele>3.5</ele>
        <time>2017-10-11T16:23:58Z</time>
      </trkpt>
      <trkpt lat="41.52185" lon="9.28542">
        <ele>3.02</ele>
        <time>2017-10-11T16:24:26Z</time>
      </trkpt>
      <trkpt lat="41.52232" lon="9.28477">
        <ele>3.5</ele>
        <time>2017-10-11T16:24:53Z</time>
      </trkpt>
      <trkpt lat="41.52278" lon="9.28411">
        <ele>3.02</ele>
        <time>2017-10-11T16:25:20Z</time>
      </trkpt>
      <trkpt lat="41.52319" lon="9.28319">
        <ele>2.06</ele>
        <time>2017-10-11T16:25:52Z</time>
      </trkpt>
      <trkpt lat="41.52339" lon="9.28244">
        <ele>2.06</ele>
        <time>2017-10-11T16:26:17Z</time>
      </trkpt>
      <trkpt lat="41.52361" lon="9.28154">
        <ele>1.1</ele>
        <time>2017-10-11T16:26:46Z</time>
      </trkpt>
      <trkpt lat="41.52382" lon="9.28085">
        <ele>2.54</ele>
        <time>2017-10-11T16:27:09Z</time>
      </trkpt>
      <trkpt lat="41.52404" lon="9.28013">
        <ele>2.54</ele>
        <time>2017-10-11T16:27:33Z</time>
      </trkpt>
      <trkpt lat="41.52413" lon="9.27944">
        <ele>1.1</ele>
        <time>2017-10-11T16:27:55Z</time>
      </trkpt>
      <trkpt lat="41.52417" lon="9.27862">
        <ele>1.1</ele>
        <time>2017-10-11T16:28:21Z</time>
      </trkpt>
      <trkpt lat="41.52419" lon="9.27793">
        <ele>1.58</ele>
        <time>2017-10-11T16:28:45Z</time>
      </trkpt>
      <trkpt lat="41.52415" lon="9.27752">
        <ele>2.54</ele>
        <time>2017-10-11T16:29:06Z</time>
      </trkpt>
      <trkpt lat="41.52414" lon="9.27713">
        <ele>2.54</ele>
        <time>2017-10-11T16:29:32Z</time>
      </trkpt>
      <trkpt lat="41.52413" lon="9.27676">
        <ele>2.06</ele>
        <time>2017-10-11T16:30:05Z</time>
      </trkpt>
      <trkpt lat="41.52421" lon="9.27658">
        <ele>2.54</ele>
        <time>2017-10-11T16:30:33Z</time>
      </trkpt>
      <trkpt lat="41.52437" lon="9.27647">
        <ele>3.02</ele>
        <time>2017-10-11T16:31:00Z</time>
      </trkpt>
      <trkpt lat="41.52454" lon="9.27639">
        <ele>2.54</ele>
        <time>2017-10-11T16:31:28Z</time>
      </trkpt>
      <trkpt lat="41.52475" lon="9.27633">
        <ele>3.02</ele>
        <time>2017-10-11T16:31:57Z</time>
      </trkpt>
      <trkpt lat="41.52498" lon="9.27613">
        <ele>3.98</ele>
        <time>2017-10-11T16:32:27Z</time>
      </trkpt>
      <trkpt lat="41.52518" lon="9.27597">
        <ele>3.02</ele>
        <time>2017-10-11T16:32:51Z</time>
      </trkpt>
      <trkpt lat="41.52534" lon="9.27582">
        <ele>1.58</ele>
        <time>2017-10-11T16:33:17Z</time>
      </trkpt>
      <trkpt lat="41.52547" lon="9.27578">
        <ele>3.02</ele>
        <time>2017-10-11T16:33:41Z</time>
      </trkpt>
      <trkpt lat="41.52554" lon="9.27576">
        <ele>2.06</ele>
        <time>2017-10-11T16:34:08Z</time>
      </trkpt>
      <trkpt lat="41.52556" lon="9.27573">
        <ele>1.58</ele>
        <time>2017-10-11T16:34:35Z</time>
      </trkpt>
      <trkpt lat="41.52554" lon="9.27566">
        <ele>1.58</ele>
        <time>2017-10-11T16:34:59Z</time>
      </trkpt>
      <trkpt lat="41.52554" lon="9.2756">
        <ele>1.58</ele>
        <time>2017-10-11T16:35:28Z</time>
      </trkpt>
      <trkpt lat="41.52554" lon="9.27556">
        <ele>1.1</ele>
        <time>2017-10-11T16:35:53Z</time>
      </trkpt>
      <trkpt lat="41.52555" lon="9.27552">
        <ele>1.1</ele>
        <time>2017-10-11T16:36:23Z</time>
      </trkpt>
      <trkpt lat="41.52554" lon="9.27553">
        <ele>2.06</ele>
        <time>2017-10-11T16:36:50Z</time>
      </trkpt>
      <trkpt lat="41.52554" lon="9.27555">
        <ele>3.02</ele>
        <time>2017-10-11T16:37:14Z</time>
      </trkpt>
      <trkpt lat="41.52555" lon="9.27556">
        <ele>2.54</ele>
        <time>2017-10-11T16:37:37Z</time>
      </trkpt>
      <trkpt lat="41.52556" lon="9.27558">
        <ele>2.54</ele>
        <time>2017-10-11T16:38:06Z</time>
      </trkpt>
      <trkpt lat="41.52557" lon="9.27559">
        <ele>3.02</ele>
        <time>2017-10-11T16:38:33Z</time>
      </trkpt>
      <trkpt lat="41.52559" lon="9.27558">
        <ele>2.06</ele>
        <time>2017-10-11T16:38:59Z</time>
      </trkpt>
      <trkpt lat="41.52561" lon="9.27556">
        <ele>1.58</ele>
        <time>2017-10-11T16:39:31Z</time>
      </trkpt>
      <trkpt lat="41.52562" lon="9.27557">
        <ele>1.58</ele>
        <time>2017-10-11T16:39:42Z</time>
      </trkpt>
    </trkseg>
  </trk>
  <trk>
    <name><![CDATA[Tracé actuel: 12 OCT 2017 08:19]]></name>
    <trkseg>
      <trkpt lat="41.52496" lon="9.27595">
        <ele>2.54</ele>
        <time>2017-10-12T07:19:47Z</time>
      </trkpt>
      <trkpt lat="41.52505" lon="9.27674">
        <ele>21.77</ele>
        <time>2017-10-12T07:20:17Z</time>
      </trkpt>
      <trkpt lat="41.52483" lon="9.27715">
        <ele>12.63</ele>
        <time>2017-10-12T07:20:43Z</time>
      </trkpt>
      <trkpt lat="41.52465" lon="9.27747">
        <ele>2.06</ele>
        <time>2017-10-12T07:21:12Z</time>
      </trkpt>
      <trkpt lat="41.52452" lon="9.27791">
        <ele>3.98</ele>
        <time>2017-10-12T07:21:33Z</time>
      </trkpt>
      <trkpt lat="41.52434" lon="9.2787">
        <ele>3.98</ele>
        <time>2017-10-12T07:22:00Z</time>
      </trkpt>
      <trkpt lat="41.52418" lon="9.27986">
        <ele>3.02</ele>
        <time>2017-10-12T07:22:33Z</time>
      </trkpt>
      <trkpt lat="41.52404" lon="9.28091">
        <ele>3.02</ele>
        <time>2017-10-12T07:23:02Z</time>
      </trkpt>
      <trkpt lat="41.52388" lon="9.28207">
        <ele>3.02</ele>
        <time>2017-10-12T07:23:34Z</time>
      </trkpt>
      <trkpt lat="41.52382" lon="9.28316">
        <ele>2.54</ele>
        <time>2017-10-12T07:24:04Z</time>
      </trkpt>
      <trkpt lat="41.52396" lon="9.28391">
        <ele>2.06</ele>
        <time>2017-10-12T07:24:25Z</time>
      </trkpt>
      <trkpt lat="41.52405" lon="9.28432">
        <ele>2.54</ele>
        <time>2017-10-12T07:24:37Z</time>
      </trkpt>
      <trkpt lat="41.52415" lon="9.28468">
        <ele>1.58</ele>
        <time>2017-10-12T07:24:48Z</time>
      </trkpt>
      <trkpt lat="41.52427" lon="9.28513">
        <ele>3.02</ele>
        <time>2017-10-12T07:25:01Z</time>
      </trkpt>
      <trkpt lat="41.52438" lon="9.28559">
        <ele>3.5</ele>
        <time>2017-10-12T07:25:14Z</time>
      </trkpt>
      <trkpt lat="41.52452" lon="9.28618">
        <ele>3.5</ele>
        <time>2017-10-12T07:25:31Z</time>
      </trkpt>
      <trkpt lat="41.52467" lon="9.28674">
        <ele>3.98</ele>
        <time>2017-10-12T07:25:47Z</time>
      </trkpt>
      <trkpt lat="41.52486" lon="9.28749">
        <ele>4.46</ele>
        <time>2017-10-12T07:26:08Z</time>
      </trkpt>
      <trkpt lat="41.525" lon="9.28805">
        <ele>4.46</ele>
        <time>2017-10-12T07:26:24Z</time>
      </trkpt>
      <trkpt lat="41.5252" lon="9.28858">
        <ele>3.98</ele>
        <time>2017-10-12T07:26:40Z</time>
      </trkpt>
      <trkpt lat="41.52543" lon="9.28918">
        <ele>4.46</ele>
        <time>2017-10-12T07:26:58Z</time>
      </trkpt>
      <trkpt lat="41.5257" lon="9.28984">
        <ele>3.02</ele>
        <time>2017-10-12T07:27:18Z</time>
      </trkpt>
      <trkpt lat="41.52594" lon="9.29039">
        <ele>3.98</ele>
        <time>2017-10-12T07:27:35Z</time>
      </trkpt>
      <trkpt lat="41.52623" lon="9.29107">
        <ele>3.5</ele>
        <time>2017-10-12T07:27:56Z</time>
      </trkpt>
      <trkpt lat="41.52646" lon="9.29162">
        <ele>3.5</ele>
        <time>2017-10-12T07:28:13Z</time>
      </trkpt>
      <trkpt lat="41.52663" lon="9.29204">
        <ele>3.98</ele>
        <time>2017-10-12T07:28:26Z</time>
      </trkpt>
      <trkpt lat="41.52692" lon="9.29276">
        <ele>3.98</ele>
        <time>2017-10-12T07:28:48Z</time>
      </trkpt>
      <trkpt lat="41.52721" lon="9.29341">
        <ele>3.02</ele>
        <time>2017-10-12T07:29:08Z</time>
      </trkpt>
      <trkpt lat="41.52761" lon="9.29405">
        <ele>3.5</ele>
        <time>2017-10-12T07:29:30Z</time>
      </trkpt>
      <trkpt lat="41.52794" lon="9.29461">
        <ele>4.94</ele>
        <time>2017-10-12T07:29:49Z</time>
      </trkpt>
      <trkpt lat="41.52842" lon="9.29536">
        <ele>4.94</ele>
        <time>2017-10-12T07:30:15Z</time>
      </trkpt>
      <trkpt lat="41.52886" lon="9.29612">
        <ele>5.42</ele>
        <time>2017-10-12T07:30:41Z</time>
      </trkpt>
      <trkpt lat="41.52915" lon="9.2966">
        <ele>4.94</ele>
        <time>2017-10-12T07:30:57Z</time>
      </trkpt>
      <trkpt lat="41.52955" lon="9.29722">
        <ele>4.46</ele>
        <time>2017-10-12T07:31:19Z</time>
      </trkpt>
      <trkpt lat="41.52978" lon="9.29764">
        <ele>3.02</ele>
        <time>2017-10-12T07:31:33Z</time>
      </trkpt>
      <trkpt lat="41.53018" lon="9.29827">
        <ele>1.58</ele>
        <time>2017-10-12T07:31:55Z</time>
      </trkpt>
      <trkpt lat="41.53067" lon="9.29906">
        <ele>3.5</ele>
        <time>2017-10-12T07:32:22Z</time>
      </trkpt>
      <trkpt lat="41.53112" lon="9.29979">
        <ele>3.98</ele>
        <time>2017-10-12T07:32:47Z</time>
      </trkpt>
      <trkpt lat="41.53154" lon="9.30049">
        <ele>4.46</ele>
        <time>2017-10-12T07:33:11Z</time>
      </trkpt>
      <trkpt lat="41.53194" lon="9.30113">
        <ele>3.02</ele>
        <time>2017-10-12T07:33:33Z</time>
      </trkpt>
      <trkpt lat="41.53239" lon="9.3019">
        <ele>3.02</ele>
        <time>2017-10-12T07:33:59Z</time>
      </trkpt>
      <trkpt lat="41.5328" lon="9.30257">
        <ele>3.98</ele>
        <time>2017-10-12T07:34:22Z</time>
      </trkpt>
      <trkpt lat="41.53302" lon="9.30297">
        <ele>3.98</ele>
        <time>2017-10-12T07:34:36Z</time>
      </trkpt>
      <trkpt lat="41.53327" lon="9.30338">
        <ele>3.02</ele>
        <time>2017-10-12T07:34:50Z</time>
      </trkpt>
      <trkpt lat="41.53353" lon="9.30382">
        <ele>3.5</ele>
        <time>2017-10-12T07:35:05Z</time>
      </trkpt>
      <trkpt lat="41.53381" lon="9.30428">
        <ele>3.98</ele>
        <time>2017-10-12T07:35:21Z</time>
      </trkpt>
      <trkpt lat="41.53411" lon="9.30478">
        <ele>4.94</ele>
        <time>2017-10-12T07:35:38Z</time>
      </trkpt>
      <trkpt lat="41.53448" lon="9.30541">
        <ele>4.94</ele>
        <time>2017-10-12T07:35:59Z</time>
      </trkpt>
      <trkpt lat="41.53475" lon="9.30584">
        <ele>4.94</ele>
        <time>2017-10-12T07:36:14Z</time>
      </trkpt>
      <trkpt lat="41.53507" lon="9.30636">
        <ele>4.94</ele>
        <time>2017-10-12T07:36:32Z</time>
      </trkpt>
      <trkpt lat="41.5354" lon="9.30693">
        <ele>3.98</ele>
        <time>2017-10-12T07:36:51Z</time>
      </trkpt>
      <trkpt lat="41.53583" lon="9.30763">
        <ele>3.5</ele>
        <time>2017-10-12T07:37:15Z</time>
      </trkpt>
      <trkpt lat="41.53622" lon="9.30828">
        <ele>3.98</ele>
        <time>2017-10-12T07:37:37Z</time>
      </trkpt>
      <trkpt lat="41.53663" lon="9.30894">
        <ele>3.02</ele>
        <time>2017-10-12T07:37:59Z</time>
      </trkpt>
      <trkpt lat="41.53684" lon="9.30927">
        <ele>2.54</ele>
        <time>2017-10-12T07:38:11Z</time>
      </trkpt>
      <trkpt lat="41.53709" lon="9.30969">
        <ele>4.46</ele>
        <time>2017-10-12T07:38:25Z</time>
      </trkpt>
      <trkpt lat="41.53728" lon="9.31001">
        <ele>2.54</ele>
        <time>2017-10-12T07:38:36Z</time>
      </trkpt>
      <trkpt lat="41.53746" lon="9.31035">
        <ele>0.62</ele>
        <time>2017-10-12T07:38:47Z</time>
      </trkpt>
      <trkpt lat="41.5377" lon="9.31072">
        <ele>2.06</ele>
        <time>2017-10-12T07:39:00Z</time>
      </trkpt>
      <trkpt lat="41.53795" lon="9.31114">
        <ele>2.54</ele>
        <time>2017-10-12T07:39:14Z</time>
      </trkpt>
      <trkpt lat="41.53818" lon="9.31152">
        <ele>2.54</ele>
        <time>2017-10-12T07:39:27Z</time>
      </trkpt>
      <trkpt lat="41.53846" lon="9.31199">
        <ele>2.06</ele>
        <time>2017-10-12T07:39:43Z</time>
      </trkpt>
      <trkpt lat="41.53862" lon="9.31225">
        <ele>0.62</ele>
        <time>2017-10-12T07:39:52Z</time>
      </trkpt>
      <trkpt lat="41.53882" lon="9.31256">
        <ele>-0.34</ele>
        <time>2017-10-12T07:40:03Z</time>
      </trkpt>
      <trkpt lat="41.53896" lon="9.31283">
        <ele>0.14</ele>
        <time>2017-10-12T07:40:12Z</time>
      </trkpt>
      <trkpt lat="41.53917" lon="9.31316">
        <ele>-0.34</ele>
        <time>2017-10-12T07:40:24Z</time>
      </trkpt>
      <trkpt lat="41.53939" lon="9.31352">
        <ele>0.14</ele>
        <time>2017-10-12T07:40:36Z</time>
      </trkpt>
      <trkpt lat="41.53963" lon="9.3139">
        <ele>1.58</ele>
        <time>2017-10-12T07:40:49Z</time>
      </trkpt>
      <trkpt lat="41.53981" lon="9.31419">
        <ele>1.1</ele>
        <time>2017-10-12T07:40:59Z</time>
      </trkpt>
      <trkpt lat="41.54013" lon="9.31475">
        <ele>1.58</ele>
        <time>2017-10-12T07:41:18Z</time>
      </trkpt>
      <trkpt lat="41.54031" lon="9.31502">
        <ele>0.62</ele>
        <time>2017-10-12T07:41:28Z</time>
      </trkpt>
      <trkpt lat="41.54052" lon="9.31537">
        <ele>1.1</ele>
        <time>2017-10-12T07:41:40Z</time>
      </trkpt>
      <trkpt lat="41.54071" lon="9.31571">
        <ele>1.1</ele>
        <time>2017-10-12T07:41:51Z</time>
      </trkpt>
      <trkpt lat="41.54085" lon="9.31596">
        <ele>2.54</ele>
        <time>2017-10-12T07:42:00Z</time>
      </trkpt>
      <trkpt lat="41.54109" lon="9.31635">
        <ele>1.58</ele>
        <time>2017-10-12T07:42:13Z</time>
      </trkpt>
      <trkpt lat="41.54133" lon="9.31676">
        <ele>1.58</ele>
        <time>2017-10-12T07:42:27Z</time>
      </trkpt>
      <trkpt lat="41.54148" lon="9.317">
        <ele>0.62</ele>
        <time>2017-10-12T07:42:36Z</time>
      </trkpt>
      <trkpt lat="41.54171" lon="9.31738">
        <ele>1.58</ele>
        <time>2017-10-12T07:42:49Z</time>
      </trkpt>
      <trkpt lat="41.54195" lon="9.31779">
        <ele>2.54</ele>
        <time>2017-10-12T07:43:03Z</time>
      </trkpt>
      <trkpt lat="41.54221" lon="9.31818">
        <ele>2.54</ele>
        <time>2017-10-12T07:43:16Z</time>
      </trkpt>
      <trkpt lat="41.54255" lon="9.31875">
        <ele>1.1</ele>
        <time>2017-10-12T07:43:36Z</time>
      </trkpt>
      <trkpt lat="41.54283" lon="9.31922">
        <ele>1.1</ele>
        <time>2017-10-12T07:43:52Z</time>
      </trkpt>
      <trkpt lat="41.54321" lon="9.31985">
        <ele>0.62</ele>
        <time>2017-10-12T07:44:14Z</time>
      </trkpt>
      <trkpt lat="41.54351" lon="9.32035">
        <ele>0.62</ele>
        <time>2017-10-12T07:44:31Z</time>
      </trkpt>
      <trkpt lat="41.54372" lon="9.32069">
        <ele>1.1</ele>
        <time>2017-10-12T07:44:43Z</time>
      </trkpt>
      <trkpt lat="41.5442" lon="9.3211">
        <ele>1.1</ele>
        <time>2017-10-12T07:45:03Z</time>
      </trkpt>
      <trkpt lat="41.54466" lon="9.32151">
        <ele>0.62</ele>
        <time>2017-10-12T07:45:23Z</time>
      </trkpt>
      <trkpt lat="41.5452" lon="9.32196">
        <ele>1.58</ele>
        <time>2017-10-12T07:45:46Z</time>
      </trkpt>
      <trkpt lat="41.54559" lon="9.32231">
        <ele>1.58</ele>
        <time>2017-10-12T07:46:03Z</time>
      </trkpt>
      <trkpt lat="41.54604" lon="9.32268">
        <ele>1.1</ele>
        <time>2017-10-12T07:46:22Z</time>
      </trkpt>
      <trkpt lat="41.54638" lon="9.32298">
        <ele>1.1</ele>
        <time>2017-10-12T07:46:37Z</time>
      </trkpt>
      <trkpt lat="41.54677" lon="9.3233">
        <ele>1.58</ele>
        <time>2017-10-12T07:46:53Z</time>
      </trkpt>
      <trkpt lat="41.54717" lon="9.32364">
        <ele>2.54</ele>
        <time>2017-10-12T07:47:10Z</time>
      </trkpt>
      <trkpt lat="41.54769" lon="9.32408">
        <ele>1.1</ele>
        <time>2017-10-12T07:47:32Z</time>
      </trkpt>
      <trkpt lat="41.54808" lon="9.3244">
        <ele>2.06</ele>
        <time>2017-10-12T07:47:49Z</time>
      </trkpt>
      <trkpt lat="41.54843" lon="9.3247">
        <ele>2.06</ele>
        <time>2017-10-12T07:48:04Z</time>
      </trkpt>
      <trkpt lat="41.54887" lon="9.32507">
        <ele>2.06</ele>
        <time>2017-10-12T07:48:23Z</time>
      </trkpt>
      <trkpt lat="41.54928" lon="9.32542">
        <ele>2.06</ele>
        <time>2017-10-12T07:48:40Z</time>
      </trkpt>
      <trkpt lat="41.54965" lon="9.32574">
        <ele>2.06</ele>
        <time>2017-10-12T07:48:56Z</time>
      </trkpt>
      <trkpt lat="41.55002" lon="9.32604">
        <ele>1.58</ele>
        <time>2017-10-12T07:49:12Z</time>
      </trkpt>
      <trkpt lat="41.55032" lon="9.32633">
        <ele>0.62</ele>
        <time>2017-10-12T07:49:25Z</time>
      </trkpt>
      <trkpt lat="41.55092" lon="9.3269">
        <ele>0.62</ele>
        <time>2017-10-12T07:49:51Z</time>
      </trkpt>
      <trkpt lat="41.55126" lon="9.32723">
        <ele>1.58</ele>
        <time>2017-10-12T07:50:06Z</time>
      </trkpt>
      <trkpt lat="41.55165" lon="9.3276">
        <ele>1.58</ele>
        <time>2017-10-12T07:50:23Z</time>
      </trkpt>
      <trkpt lat="41.552" lon="9.32794">
        <ele>1.58</ele>
        <time>2017-10-12T07:50:39Z</time>
      </trkpt>
      <trkpt lat="41.55234" lon="9.32828">
        <ele>1.1</ele>
        <time>2017-10-12T07:50:54Z</time>
      </trkpt>
      <trkpt lat="41.55262" lon="9.32854">
        <ele>1.1</ele>
        <time>2017-10-12T07:51:06Z</time>
      </trkpt>
      <trkpt lat="41.55292" lon="9.32882">
        <ele>1.1</ele>
        <time>2017-10-12T07:51:19Z</time>
      </trkpt>
      <trkpt lat="41.55314" lon="9.32903">
        <ele>1.58</ele>
        <time>2017-10-12T07:51:29Z</time>
      </trkpt>
      <trkpt lat="41.55358" lon="9.3295">
        <ele>0.62</ele>
        <time>2017-10-12T07:51:49Z</time>
      </trkpt>
      <trkpt lat="41.55414" lon="9.33011">
        <ele>0.62</ele>
        <time>2017-10-12T07:52:15Z</time>
      </trkpt>
      <trkpt lat="41.55451" lon="9.33053">
        <ele>1.1</ele>
        <time>2017-10-12T07:52:33Z</time>
      </trkpt>
      <trkpt lat="41.55485" lon="9.33086">
        <ele>0.14</ele>
        <time>2017-10-12T07:52:48Z</time>
      </trkpt>
      <trkpt lat="41.55523" lon="9.33122">
        <ele>0.14</ele>
        <time>2017-10-12T07:53:06Z</time>
      </trkpt>
      <trkpt lat="41.5555" lon="9.33147">
        <ele>1.1</ele>
        <time>2017-10-12T07:53:22Z</time>
      </trkpt>
      <trkpt lat="41.5557" lon="9.33164">
        <ele>1.1</ele>
        <time>2017-10-12T07:53:35Z</time>
      </trkpt>
      <trkpt lat="41.55592" lon="9.33179">
        <ele>1.58</ele>
        <time>2017-10-12T07:53:49Z</time>
      </trkpt>
      <trkpt lat="41.55623" lon="9.332">
        <ele>2.54</ele>
        <time>2017-10-12T07:54:08Z</time>
      </trkpt>
      <trkpt lat="41.55655" lon="9.3322">
        <ele>2.54</ele>
        <time>2017-10-12T07:54:27Z</time>
      </trkpt>
      <trkpt lat="41.55678" lon="9.33236">
        <ele>1.58</ele>
        <time>2017-10-12T07:54:43Z</time>
      </trkpt>
      <trkpt lat="41.55688" lon="9.3324">
        <ele>2.06</ele>
        <time>2017-10-12T07:54:49Z</time>
      </trkpt>
      <trkpt lat="41.55713" lon="9.33252">
        <ele>1.58</ele>
        <time>2017-10-12T07:55:05Z</time>
      </trkpt>
      <trkpt lat="41.55741" lon="9.3326">
        <ele>4.46</ele>
        <time>2017-10-12T07:55:24Z</time>
      </trkpt>
      <trkpt lat="41.55763" lon="9.33262">
        <ele>3.5</ele>
        <time>2017-10-12T07:55:42Z</time>
      </trkpt>
      <trkpt lat="41.55781" lon="9.33265">
        <ele>2.06</ele>
        <time>2017-10-12T07:55:57Z</time>
      </trkpt>
      <trkpt lat="41.5579" lon="9.33267">
        <ele>2.54</ele>
        <time>2017-10-12T07:56:03Z</time>
      </trkpt>
      <trkpt lat="41.55806" lon="9.33265">
        <ele>0.62</ele>
        <time>2017-10-12T07:56:15Z</time>
      </trkpt>
      <trkpt lat="41.55817" lon="9.33255">
        <ele>1.1</ele>
        <time>2017-10-12T07:56:28Z</time>
      </trkpt>
      <trkpt lat="41.55828" lon="9.33243">
        <ele>2.54</ele>
        <time>2017-10-12T07:56:45Z</time>
      </trkpt>
      <trkpt lat="41.55833" lon="9.33241">
        <ele>2.06</ele>
        <time>2017-10-12T07:56:58Z</time>
      </trkpt>
      <trkpt lat="41.55841" lon="9.33239">
        <ele>2.06</ele>
        <time>2017-10-12T07:57:13Z</time>
      </trkpt>
      <trkpt lat="41.55844" lon="9.33239">
        <ele>1.58</ele>
        <time>2017-10-12T07:57:16Z</time>
      </trkpt>
      <trkpt lat="41.55848" lon="9.33235">
        <ele>1.58</ele>
        <time>2017-10-12T07:57:21Z</time>
      </trkpt>
      <trkpt lat="41.55856" lon="9.33226">
        <ele>4.94</ele>
        <time>2017-10-12T07:57:35Z</time>
      </trkpt>
      <trkpt lat="41.55857" lon="9.33226">
        <ele>4.94</ele>
        <time>2017-10-12T07:57:36Z</time>
      </trkpt>
      <trkpt lat="41.55864" lon="9.33221">
        <ele>3.02</ele>
        <time>2017-10-12T07:57:47Z</time>
      </trkpt>
      <trkpt lat="41.55865" lon="9.33219">
        <ele>2.54</ele>
        <time>2017-10-12T07:57:50Z</time>
      </trkpt>
      <trkpt lat="41.55875" lon="9.33207">
        <ele>2.06</ele>
        <time>2017-10-12T07:58:06Z</time>
      </trkpt>
      <trkpt lat="41.5589" lon="9.33187">
        <ele>3.02</ele>
        <time>2017-10-12T07:58:28Z</time>
      </trkpt>
      <trkpt lat="41.55898" lon="9.33178">
        <ele>4.46</ele>
        <time>2017-10-12T07:58:43Z</time>
      </trkpt>
      <trkpt lat="41.55898" lon="9.33177">
        <ele>2.06</ele>
        <time>2017-10-12T07:58:55Z</time>
      </trkpt>
      <trkpt lat="41.55896" lon="9.33179">
        <ele>-0.34</ele>
        <time>2017-10-12T07:59:04Z</time>
      </trkpt>
      <trkpt lat="41.55893" lon="9.33183">
        <ele>0.14</ele>
        <time>2017-10-12T07:59:17Z</time>
      </trkpt>
      <trkpt lat="41.55893" lon="9.33184">
        <ele>1.1</ele>
        <time>2017-10-12T07:59:26Z</time>
      </trkpt>
      <trkpt lat="41.55887" lon="9.33189">
        <ele>2.54</ele>
        <time>2017-10-12T07:59:45Z</time>
      </trkpt>
      <trkpt lat="41.55882" lon="9.33189">
        <ele>1.1</ele>
        <time>2017-10-12T07:59:55Z</time>
      </trkpt>
      <trkpt lat="41.5588" lon="9.33188">
        <ele>1.1</ele>
        <time>2017-10-12T08:00:01Z</time>
      </trkpt>
      <trkpt lat="41.55884" lon="9.33201">
        <ele>-1.3</ele>
        <time>2017-10-12T08:00:13Z</time>
      </trkpt>
      <trkpt lat="41.55884" lon="9.33207">
        <ele>-1.3</ele>
        <time>2017-10-12T08:00:25Z</time>
      </trkpt>
      <trkpt lat="41.55884" lon="9.33211">
        <ele>-1.3</ele>
        <time>2017-10-12T08:00:29Z</time>
      </trkpt>
      <trkpt lat="41.55884" lon="9.33216">
        <ele>0.14</ele>
        <time>2017-10-12T08:00:41Z</time>
      </trkpt>
      <trkpt lat="41.55885" lon="9.33218">
        <ele>0.14</ele>
        <time>2017-10-12T08:00:51Z</time>
      </trkpt>
      <trkpt lat="41.55884" lon="9.3322">
        <ele>-1.3</ele>
        <time>2017-10-12T08:01:06Z</time>
      </trkpt>
      <trkpt lat="41.55884" lon="9.33219">
        <ele>-0.82</ele>
        <time>2017-10-12T08:01:17Z</time>
      </trkpt>
      <trkpt lat="41.55887" lon="9.33216">
        <ele>-0.34</ele>
        <time>2017-10-12T08:01:30Z</time>
      </trkpt>
      <trkpt lat="41.55888" lon="9.33211">
        <ele>0.62</ele>
        <time>2017-10-12T08:01:39Z</time>
      </trkpt>
      <trkpt lat="41.55887" lon="9.33203">
        <ele>1.1</ele>
        <time>2017-10-12T08:01:47Z</time>
      </trkpt>
      <trkpt lat="41.55886" lon="9.33196">
        <ele>1.1</ele>
        <time>2017-10-12T08:01:53Z</time>
      </trkpt>
      <trkpt lat="41.55886" lon="9.33191">
        <ele>1.1</ele>
        <time>2017-10-12T08:02:06Z</time>
      </trkpt>
      <trkpt lat="41.55887" lon="9.33191">
        <ele>0.62</ele>
        <time>2017-10-12T08:02:07Z</time>
      </trkpt>
      <trkpt lat="41.55888" lon="9.3318">
        <ele>1.58</ele>
        <time>2017-10-12T08:02:18Z</time>
      </trkpt>
      <trkpt lat="41.5589" lon="9.33175">
        <ele>4.46</ele>
        <time>2017-10-12T08:02:30Z</time>
      </trkpt>
      <trkpt lat="41.55891" lon="9.3317">
        <ele>4.46</ele>
        <time>2017-10-12T08:02:45Z</time>
      </trkpt>
      <trkpt lat="41.5589" lon="9.33173">
        <ele>2.06</ele>
        <time>2017-10-12T08:02:57Z</time>
      </trkpt>
      <trkpt lat="41.5589" lon="9.33175">
        <ele>1.58</ele>
        <time>2017-10-12T08:03:10Z</time>
      </trkpt>
      <trkpt lat="41.55889" lon="9.33178">
        <ele>2.06</ele>
        <time>2017-10-12T08:03:30Z</time>
      </trkpt>
      <trkpt lat="41.55889" lon="9.33179">
        <ele>1.58</ele>
        <time>2017-10-12T08:03:46Z</time>
      </trkpt>
      <trkpt lat="41.5589" lon="9.33175">
        <ele>2.06</ele>
        <time>2017-10-12T08:04:06Z</time>
      </trkpt>
      <trkpt lat="41.55888" lon="9.33161">
        <ele>2.54</ele>
        <time>2017-10-12T08:04:32Z</time>
      </trkpt>
      <trkpt lat="41.55884" lon="9.33159">
        <ele>3.02</ele>
        <time>2017-10-12T08:04:59Z</time>
      </trkpt>
      <trkpt lat="41.55886" lon="9.33162">
        <ele>3.5</ele>
        <time>2017-10-12T08:05:23Z</time>
      </trkpt>
      <trkpt lat="41.55887" lon="9.33164">
        <ele>3.02</ele>
        <time>2017-10-12T08:05:43Z</time>
      </trkpt>
      <trkpt lat="41.55887" lon="9.33163">
        <ele>3.98</ele>
        <time>2017-10-12T08:05:59Z</time>
      </trkpt>
      <trkpt lat="41.55889" lon="9.33159">
        <ele>3.02</ele>
        <time>2017-10-12T08:06:16Z</time>
      </trkpt>
      <trkpt lat="41.55888" lon="9.3315">
        <ele>1.1</ele>
        <time>2017-10-12T08:06:36Z</time>
      </trkpt>
      <trkpt lat="41.55889" lon="9.33135">
        <ele>2.54</ele>
        <time>2017-10-12T08:06:56Z</time>
      </trkpt>
      <trkpt lat="41.55891" lon="9.3312">
        <ele>3.02</ele>
        <time>2017-10-12T08:07:20Z</time>
      </trkpt>
      <trkpt lat="41.55891" lon="9.33115">
        <ele>3.5</ele>
        <time>2017-10-12T08:07:40Z</time>
      </trkpt>
      <trkpt lat="41.55906" lon="9.33137">
        <ele>0.62</ele>
        <time>2017-10-12T09:10:31Z</time>
      </trkpt>
      <trkpt lat="41.55899" lon="9.33141">
        <ele>4.46</ele>
        <time>2017-10-12T09:10:46Z</time>
      </trkpt>
      <trkpt lat="41.5589" lon="9.33144">
        <ele>2.54</ele>
        <time>2017-10-12T09:11:07Z</time>
      </trkpt>
      <trkpt lat="41.55883" lon="9.33149">
        <ele>3.02</ele>
        <time>2017-10-12T09:11:35Z</time>
      </trkpt>
      <trkpt lat="41.55883" lon="9.33151">
        <ele>3.5</ele>
        <time>2017-10-12T09:11:58Z</time>
      </trkpt>
      <trkpt lat="41.55884" lon="9.33152">
        <ele>2.54</ele>
        <time>2017-10-12T09:12:22Z</time>
      </trkpt>
      <trkpt lat="41.55883" lon="9.33154">
        <ele>2.54</ele>
        <time>2017-10-12T09:12:42Z</time>
      </trkpt>
      <trkpt lat="41.55881" lon="9.3316">
        <ele>4.46</ele>
        <time>2017-10-12T09:13:11Z</time>
      </trkpt>
      <trkpt lat="41.55871" lon="9.33172">
        <ele>5.42</ele>
        <time>2017-10-12T09:13:38Z</time>
      </trkpt>
      <trkpt lat="41.55845" lon="9.3318">
        <ele>1.58</ele>
        <time>2017-10-12T09:13:59Z</time>
      </trkpt>
      <trkpt lat="41.55837" lon="9.33177">
        <ele>1.58</ele>
        <time>2017-10-12T09:14:08Z</time>
      </trkpt>
      <trkpt lat="41.558" lon="9.33171">
        <ele>1.1</ele>
        <time>2017-10-12T09:14:33Z</time>
      </trkpt>
      <trkpt lat="41.55751" lon="9.33169">
        <ele>2.54</ele>
        <time>2017-10-12T09:15:05Z</time>
      </trkpt>
      <trkpt lat="41.55704" lon="9.33168">
        <ele>3.02</ele>
        <time>2017-10-12T09:15:36Z</time>
      </trkpt>
      <trkpt lat="41.55668" lon="9.3317">
        <ele>2.54</ele>
        <time>2017-10-12T09:16:01Z</time>
      </trkpt>
      <trkpt lat="41.55625" lon="9.33169">
        <ele>2.54</ele>
        <time>2017-10-12T09:16:30Z</time>
      </trkpt>
      <trkpt lat="41.55585" lon="9.33167">
        <ele>2.54</ele>
        <time>2017-10-12T09:16:57Z</time>
      </trkpt>
      <trkpt lat="41.55541" lon="9.33168">
        <ele>3.02</ele>
        <time>2017-10-12T09:17:27Z</time>
      </trkpt>
      <trkpt lat="41.55512" lon="9.33166">
        <ele>3.02</ele>
        <time>2017-10-12T09:17:47Z</time>
      </trkpt>
      <trkpt lat="41.55468" lon="9.33167">
        <ele>3.5</ele>
        <time>2017-10-12T09:18:17Z</time>
      </trkpt>
      <trkpt lat="41.55436" lon="9.33167">
        <ele>3.5</ele>
        <time>2017-10-12T09:18:39Z</time>
      </trkpt>
      <trkpt lat="41.55389" lon="9.33167">
        <ele>3.02</ele>
        <time>2017-10-12T09:19:07Z</time>
      </trkpt>
      <trkpt lat="41.55329" lon="9.33167">
        <ele>3.02</ele>
        <time>2017-10-12T09:19:37Z</time>
      </trkpt>
      <trkpt lat="41.55274" lon="9.33167">
        <ele>2.54</ele>
        <time>2017-10-12T09:20:03Z</time>
      </trkpt>
      <trkpt lat="41.55228" lon="9.33166">
        <ele>2.54</ele>
        <time>2017-10-12T09:20:25Z</time>
      </trkpt>
      <trkpt lat="41.55182" lon="9.33168">
        <ele>2.54</ele>
        <time>2017-10-12T09:20:47Z</time>
      </trkpt>
      <trkpt lat="41.55128" lon="9.3317">
        <ele>3.02</ele>
        <time>2017-10-12T09:21:13Z</time>
      </trkpt>
      <trkpt lat="41.55081" lon="9.33173">
        <ele>3.98</ele>
        <time>2017-10-12T09:21:35Z</time>
      </trkpt>
      <trkpt lat="41.55043" lon="9.33176">
        <ele>5.42</ele>
        <time>2017-10-12T09:21:53Z</time>
      </trkpt>
      <trkpt lat="41.55002" lon="9.33176">
        <ele>5.42</ele>
        <time>2017-10-12T09:22:13Z</time>
      </trkpt>
      <trkpt lat="41.54958" lon="9.33177">
        <ele>4.46</ele>
        <time>2017-10-12T09:22:34Z</time>
      </trkpt>
      <trkpt lat="41.54915" lon="9.33179">
        <ele>3.5</ele>
        <time>2017-10-12T09:22:54Z</time>
      </trkpt>
      <trkpt lat="41.54865" lon="9.33179">
        <ele>3.02</ele>
        <time>2017-10-12T09:23:18Z</time>
      </trkpt>
      <trkpt lat="41.54803" lon="9.33182">
        <ele>3.02</ele>
        <time>2017-10-12T09:23:48Z</time>
      </trkpt>
      <trkpt lat="41.54757" lon="9.33183">
        <ele>4.94</ele>
        <time>2017-10-12T09:24:10Z</time>
      </trkpt>
      <trkpt lat="41.54714" lon="9.33184">
        <ele>4.46</ele>
        <time>2017-10-12T09:24:31Z</time>
      </trkpt>
      <trkpt lat="41.54672" lon="9.33187">
        <ele>4.46</ele>
        <time>2017-10-12T09:24:51Z</time>
      </trkpt>
      <trkpt lat="41.54632" lon="9.3319">
        <ele>3.5</ele>
        <time>2017-10-12T09:25:11Z</time>
      </trkpt>
      <trkpt lat="41.54586" lon="9.33192">
        <ele>3.02</ele>
        <time>2017-10-12T09:25:33Z</time>
      </trkpt>
      <trkpt lat="41.54539" lon="9.33193">
        <ele>2.54</ele>
        <time>2017-10-12T09:25:56Z</time>
      </trkpt>
      <trkpt lat="41.54488" lon="9.33195">
        <ele>2.54</ele>
        <time>2017-10-12T09:26:21Z</time>
      </trkpt>
      <trkpt lat="41.54428" lon="9.33197">
        <ele>3.5</ele>
        <time>2017-10-12T09:26:50Z</time>
      </trkpt>
      <trkpt lat="41.54387" lon="9.33199">
        <ele>3.02</ele>
        <time>2017-10-12T09:27:10Z</time>
      </trkpt>
      <trkpt lat="41.54342" lon="9.33199">
        <ele>3.5</ele>
        <time>2017-10-12T09:27:32Z</time>
      </trkpt>
      <trkpt lat="41.54296" lon="9.33201">
        <ele>3.02</ele>
        <time>2017-10-12T09:27:55Z</time>
      </trkpt>
      <trkpt lat="41.54248" lon="9.33202">
        <ele>2.54</ele>
        <time>2017-10-12T09:28:18Z</time>
      </trkpt>
      <trkpt lat="41.54203" lon="9.33204">
        <ele>2.54</ele>
        <time>2017-10-12T09:28:40Z</time>
      </trkpt>
      <trkpt lat="41.54142" lon="9.33204">
        <ele>2.54</ele>
        <time>2017-10-12T09:29:10Z</time>
      </trkpt>
      <trkpt lat="41.54077" lon="9.33206">
        <ele>3.02</ele>
        <time>2017-10-12T09:29:42Z</time>
      </trkpt>
      <trkpt lat="41.5402" lon="9.33214">
        <ele>2.54</ele>
        <time>2017-10-12T09:30:10Z</time>
      </trkpt>
      <trkpt lat="41.53976" lon="9.33246">
        <ele>2.06</ele>
        <time>2017-10-12T09:30:34Z</time>
      </trkpt>
      <trkpt lat="41.53931" lon="9.33284">
        <ele>1.58</ele>
        <time>2017-10-12T09:31:00Z</time>
      </trkpt>
      <trkpt lat="41.53886" lon="9.33321">
        <ele>1.1</ele>
        <time>2017-10-12T09:31:26Z</time>
      </trkpt>
      <trkpt lat="41.53847" lon="9.33355">
        <ele>1.58</ele>
        <time>2017-10-12T09:31:48Z</time>
      </trkpt>
      <trkpt lat="41.53812" lon="9.33383">
        <ele>1.58</ele>
        <time>2017-10-12T09:32:08Z</time>
      </trkpt>
      <trkpt lat="41.53753" lon="9.33393">
        <ele>3.5</ele>
        <time>2017-10-12T09:32:35Z</time>
      </trkpt>
      <trkpt lat="41.53704" lon="9.33392">
        <ele>4.46</ele>
        <time>2017-10-12T09:32:59Z</time>
      </trkpt>
      <trkpt lat="41.53665" lon="9.33393">
        <ele>3.98</ele>
        <time>2017-10-12T09:33:27Z</time>
      </trkpt>
      <trkpt lat="41.53643" lon="9.33392">
        <ele>3.5</ele>
        <time>2017-10-12T09:33:51Z</time>
      </trkpt>
      <trkpt lat="41.53627" lon="9.33391">
        <ele>3.02</ele>
        <time>2017-10-12T09:34:15Z</time>
      </trkpt>
      <trkpt lat="41.53609" lon="9.33388">
        <ele>2.06</ele>
        <time>2017-10-12T09:34:44Z</time>
      </trkpt>
      <trkpt lat="41.53594" lon="9.33384">
        <ele>2.54</ele>
        <time>2017-10-12T09:35:11Z</time>
      </trkpt>
      <trkpt lat="41.53574" lon="9.33379">
        <ele>3.02</ele>
        <time>2017-10-12T09:35:37Z</time>
      </trkpt>
      <trkpt lat="41.53552" lon="9.33376">
        <ele>2.54</ele>
        <time>2017-10-12T09:35:56Z</time>
      </trkpt>
      <trkpt lat="41.53514" lon="9.33375">
        <ele>2.06</ele>
        <time>2017-10-12T09:36:21Z</time>
      </trkpt>
      <trkpt lat="41.53462" lon="9.33375">
        <ele>2.54</ele>
        <time>2017-10-12T09:36:51Z</time>
      </trkpt>
      <trkpt lat="41.53414" lon="9.33373">
        <ele>2.06</ele>
        <time>2017-10-12T09:37:17Z</time>
      </trkpt>
      <trkpt lat="41.53352" lon="9.33372">
        <ele>1.58</ele>
        <time>2017-10-12T09:37:50Z</time>
      </trkpt>
      <trkpt lat="41.53297" lon="9.33367">
        <ele>1.58</ele>
        <time>2017-10-12T09:38:19Z</time>
      </trkpt>
      <trkpt lat="41.53239" lon="9.33364">
        <ele>2.54</ele>
        <time>2017-10-12T09:38:48Z</time>
      </trkpt>
      <trkpt lat="41.53175" lon="9.33362">
        <ele>2.54</ele>
        <time>2017-10-12T09:39:19Z</time>
      </trkpt>
      <trkpt lat="41.53116" lon="9.3336">
        <ele>3.02</ele>
        <time>2017-10-12T09:39:48Z</time>
      </trkpt>
      <trkpt lat="41.53052" lon="9.33357">
        <ele>3.02</ele>
        <time>2017-10-12T09:40:21Z</time>
      </trkpt>
      <trkpt lat="41.52999" lon="9.33353">
        <ele>3.02</ele>
        <time>2017-10-12T09:40:50Z</time>
      </trkpt>
      <trkpt lat="41.52944" lon="9.3335">
        <ele>2.54</ele>
        <time>2017-10-12T09:41:19Z</time>
      </trkpt>
      <trkpt lat="41.52893" lon="9.33348">
        <ele>2.54</ele>
        <time>2017-10-12T09:41:45Z</time>
      </trkpt>
      <trkpt lat="41.52827" lon="9.33344">
        <ele>2.54</ele>
        <time>2017-10-12T09:42:19Z</time>
      </trkpt>
      <trkpt lat="41.52776" lon="9.33342">
        <ele>3.02</ele>
        <time>2017-10-12T09:42:44Z</time>
      </trkpt>
      <trkpt lat="41.52713" lon="9.33338">
        <ele>3.02</ele>
        <time>2017-10-12T09:43:13Z</time>
      </trkpt>
      <trkpt lat="41.52658" lon="9.33336">
        <ele>3.02</ele>
        <time>2017-10-12T09:43:39Z</time>
      </trkpt>
      <trkpt lat="41.52598" lon="9.33332">
        <ele>3.02</ele>
        <time>2017-10-12T09:44:08Z</time>
      </trkpt>
      <trkpt lat="41.52535" lon="9.3333">
        <ele>2.54</ele>
        <time>2017-10-12T09:44:39Z</time>
      </trkpt>
      <trkpt lat="41.52472" lon="9.33326">
        <ele>2.54</ele>
        <time>2017-10-12T09:45:09Z</time>
      </trkpt>
      <trkpt lat="41.52405" lon="9.33322">
        <ele>2.06</ele>
        <time>2017-10-12T09:45:40Z</time>
      </trkpt>
      <trkpt lat="41.52339" lon="9.3332">
        <ele>1.58</ele>
        <time>2017-10-12T09:46:10Z</time>
      </trkpt>
      <trkpt lat="41.52276" lon="9.33316">
        <ele>2.06</ele>
        <time>2017-10-12T09:46:39Z</time>
      </trkpt>
      <trkpt lat="41.52218" lon="9.33315">
        <ele>2.54</ele>
        <time>2017-10-12T09:47:06Z</time>
      </trkpt>
      <trkpt lat="41.52161" lon="9.3331">
        <ele>1.58</ele>
        <time>2017-10-12T09:47:32Z</time>
      </trkpt>
      <trkpt lat="41.52104" lon="9.33308">
        <ele>3.02</ele>
        <time>2017-10-12T09:47:58Z</time>
      </trkpt>
      <trkpt lat="41.52039" lon="9.33304">
        <ele>2.54</ele>
        <time>2017-10-12T09:48:28Z</time>
      </trkpt>
      <trkpt lat="41.51981" lon="9.33301">
        <ele>3.5</ele>
        <time>2017-10-12T09:48:55Z</time>
      </trkpt>
      <trkpt lat="41.51925" lon="9.33299">
        <ele>3.02</ele>
        <time>2017-10-12T09:49:21Z</time>
      </trkpt>
      <trkpt lat="41.51867" lon="9.33293">
        <ele>2.06</ele>
        <time>2017-10-12T09:49:48Z</time>
      </trkpt>
      <trkpt lat="41.51818" lon="9.33288">
        <ele>2.06</ele>
        <time>2017-10-12T09:50:11Z</time>
      </trkpt>
      <trkpt lat="41.51765" lon="9.33286">
        <ele>2.06</ele>
        <time>2017-10-12T09:50:36Z</time>
      </trkpt>
      <trkpt lat="41.51716" lon="9.33283">
        <ele>2.06</ele>
        <time>2017-10-12T09:50:59Z</time>
      </trkpt>
      <trkpt lat="41.51656" lon="9.33279">
        <ele>1.58</ele>
        <time>2017-10-12T09:51:27Z</time>
      </trkpt>
      <trkpt lat="41.51602" lon="9.33274">
        <ele>1.58</ele>
        <time>2017-10-12T09:51:53Z</time>
      </trkpt>
      <trkpt lat="41.51538" lon="9.33271">
        <ele>1.58</ele>
        <time>2017-10-12T09:52:23Z</time>
      </trkpt>
      <trkpt lat="41.51481" lon="9.33268">
        <ele>1.58</ele>
        <time>2017-10-12T09:52:49Z</time>
      </trkpt>
      <trkpt lat="41.51427" lon="9.33264">
        <ele>1.1</ele>
        <time>2017-10-12T09:53:14Z</time>
      </trkpt>
      <trkpt lat="41.51365" lon="9.33259">
        <ele>1.58</ele>
        <time>2017-10-12T09:53:42Z</time>
      </trkpt>
      <trkpt lat="41.51302" lon="9.33255">
        <ele>1.58</ele>
        <time>2017-10-12T09:54:11Z</time>
      </trkpt>
      <trkpt lat="41.51242" lon="9.33252">
        <ele>1.58</ele>
        <time>2017-10-12T09:54:39Z</time>
      </trkpt>
      <trkpt lat="41.51182" lon="9.33249">
        <ele>1.58</ele>
        <time>2017-10-12T09:55:07Z</time>
      </trkpt>
      <trkpt lat="41.51121" lon="9.33245">
        <ele>2.06</ele>
        <time>2017-10-12T09:55:38Z</time>
      </trkpt>
      <trkpt lat="41.51065" lon="9.33236">
        <ele>1.58</ele>
        <time>2017-10-12T09:56:07Z</time>
      </trkpt>
      <trkpt lat="41.51029" lon="9.33203">
        <ele>1.1</ele>
        <time>2017-10-12T09:56:29Z</time>
      </trkpt>
      <trkpt lat="41.50994" lon="9.33167">
        <ele>2.06</ele>
        <time>2017-10-12T09:56:55Z</time>
      </trkpt>
      <trkpt lat="41.50955" lon="9.33141">
        <ele>1.58</ele>
        <time>2017-10-12T09:57:21Z</time>
      </trkpt>
      <trkpt lat="41.50915" lon="9.33131">
        <ele>2.06</ele>
        <time>2017-10-12T09:57:44Z</time>
      </trkpt>
      <trkpt lat="41.50874" lon="9.33133">
        <ele>1.58</ele>
        <time>2017-10-12T09:58:09Z</time>
      </trkpt>
      <trkpt lat="41.50837" lon="9.33134">
        <ele>1.58</ele>
        <time>2017-10-12T09:58:30Z</time>
      </trkpt>
      <trkpt lat="41.50793" lon="9.33137">
        <ele>1.1</ele>
        <time>2017-10-12T09:58:56Z</time>
      </trkpt>
      <trkpt lat="41.50752" lon="9.3314">
        <ele>1.58</ele>
        <time>2017-10-12T09:59:22Z</time>
      </trkpt>
      <trkpt lat="41.50709" lon="9.33146">
        <ele>2.06</ele>
        <time>2017-10-12T09:59:47Z</time>
      </trkpt>
      <trkpt lat="41.50671" lon="9.33152">
        <ele>0.62</ele>
        <time>2017-10-12T10:00:08Z</time>
      </trkpt>
      <trkpt lat="41.50627" lon="9.33158">
        <ele>1.1</ele>
        <time>2017-10-12T10:00:32Z</time>
      </trkpt>
      <trkpt lat="41.5058" lon="9.33164">
        <ele>0.62</ele>
        <time>2017-10-12T10:00:57Z</time>
      </trkpt>
      <trkpt lat="41.50537" lon="9.33169">
        <ele>0.62</ele>
        <time>2017-10-12T10:01:19Z</time>
      </trkpt>
      <trkpt lat="41.50494" lon="9.33174">
        <ele>1.1</ele>
        <time>2017-10-12T10:01:41Z</time>
      </trkpt>
      <trkpt lat="41.50434" lon="9.33183">
        <ele>1.58</ele>
        <time>2017-10-12T10:02:11Z</time>
      </trkpt>
      <trkpt lat="41.50382" lon="9.33192">
        <ele>2.06</ele>
        <time>2017-10-12T10:02:37Z</time>
      </trkpt>
      <trkpt lat="41.50328" lon="9.33201">
        <ele>2.06</ele>
        <time>2017-10-12T10:03:04Z</time>
      </trkpt>
      <trkpt lat="41.50268" lon="9.3321">
        <ele>3.02</ele>
        <time>2017-10-12T10:03:33Z</time>
      </trkpt>
      <trkpt lat="41.50219" lon="9.3322">
        <ele>1.1</ele>
        <time>2017-10-12T10:03:57Z</time>
      </trkpt>
      <trkpt lat="41.5017" lon="9.33229">
        <ele>0.62</ele>
        <time>2017-10-12T10:04:20Z</time>
      </trkpt>
      <trkpt lat="41.50129" lon="9.33235">
        <ele>1.1</ele>
        <time>2017-10-12T10:04:40Z</time>
      </trkpt>
      <trkpt lat="41.50082" lon="9.33244">
        <ele>3.02</ele>
        <time>2017-10-12T10:05:03Z</time>
      </trkpt>
      <trkpt lat="41.50044" lon="9.3325">
        <ele>2.54</ele>
        <time>2017-10-12T10:05:27Z</time>
      </trkpt>
      <trkpt lat="41.50008" lon="9.33257">
        <ele>2.06</ele>
        <time>2017-10-12T10:05:55Z</time>
      </trkpt>
      <trkpt lat="41.4998" lon="9.33261">
        <ele>0.62</ele>
        <time>2017-10-12T10:06:22Z</time>
      </trkpt>
      <trkpt lat="41.49951" lon="9.33267">
        <ele>0.62</ele>
        <time>2017-10-12T10:06:52Z</time>
      </trkpt>
      <trkpt lat="41.49931" lon="9.33271">
        <ele>1.1</ele>
        <time>2017-10-12T10:07:14Z</time>
      </trkpt>
      <trkpt lat="41.49913" lon="9.33275">
        <ele>0.14</ele>
        <time>2017-10-12T10:07:33Z</time>
      </trkpt>
      <trkpt lat="41.4989" lon="9.3328">
        <ele>0.62</ele>
        <time>2017-10-12T10:07:56Z</time>
      </trkpt>
      <trkpt lat="41.49865" lon="9.33284">
        <ele>0.62</ele>
        <time>2017-10-12T10:08:21Z</time>
      </trkpt>
      <trkpt lat="41.49839" lon="9.33291">
        <ele>0.14</ele>
        <time>2017-10-12T10:08:43Z</time>
      </trkpt>
      <trkpt lat="41.4981" lon="9.33302">
        <ele>0.62</ele>
        <time>2017-10-12T10:09:06Z</time>
      </trkpt>
      <trkpt lat="41.49777" lon="9.33317">
        <ele>1.1</ele>
        <time>2017-10-12T10:09:31Z</time>
      </trkpt>
      <trkpt lat="41.49746" lon="9.33325">
        <ele>1.58</ele>
        <time>2017-10-12T10:09:56Z</time>
      </trkpt>
      <trkpt lat="41.49719" lon="9.33335">
        <ele>0.62</ele>
        <time>2017-10-12T10:10:20Z</time>
      </trkpt>
      <trkpt lat="41.49694" lon="9.33345">
        <ele>1.58</ele>
        <time>2017-10-12T10:10:46Z</time>
      </trkpt>
      <trkpt lat="41.49679" lon="9.33352">
        <ele>2.06</ele>
        <time>2017-10-12T10:11:10Z</time>
      </trkpt>
      <trkpt lat="41.49665" lon="9.33356">
        <ele>2.54</ele>
        <time>2017-10-12T10:11:38Z</time>
      </trkpt>
      <trkpt lat="41.49653" lon="9.33361">
        <ele>2.06</ele>
        <time>2017-10-12T10:12:07Z</time>
      </trkpt>
      <trkpt lat="41.49645" lon="9.33363">
        <ele>1.58</ele>
        <time>2017-10-12T10:12:32Z</time>
      </trkpt>
      <trkpt lat="41.49638" lon="9.33366">
        <ele>1.58</ele>
        <time>2017-10-12T10:12:53Z</time>
      </trkpt>
      <trkpt lat="41.49629" lon="9.33369">
        <ele>1.1</ele>
        <time>2017-10-12T10:13:19Z</time>
      </trkpt>
      <trkpt lat="41.4961" lon="9.33379">
        <ele>1.1</ele>
        <time>2017-10-12T10:13:40Z</time>
      </trkpt>
      <trkpt lat="41.4957" lon="9.33392">
        <ele>0.14</ele>
        <time>2017-10-12T10:14:08Z</time>
      </trkpt>
      <trkpt lat="41.4953" lon="9.33406">
        <ele>1.58</ele>
        <time>2017-10-12T10:14:34Z</time>
      </trkpt>
      <trkpt lat="41.49495" lon="9.33418">
        <ele>1.1</ele>
        <time>2017-10-12T10:14:54Z</time>
      </trkpt>
      <trkpt lat="41.49446" lon="9.33434">
        <ele>0.62</ele>
        <time>2017-10-12T10:15:18Z</time>
      </trkpt>
      <trkpt lat="41.49386" lon="9.33454">
        <ele>1.58</ele>
        <time>2017-10-12T10:15:46Z</time>
      </trkpt>
      <trkpt lat="41.49343" lon="9.33468">
        <ele>1.1</ele>
        <time>2017-10-12T10:16:08Z</time>
      </trkpt>
      <trkpt lat="41.49317" lon="9.33481">
        <ele>0.62</ele>
        <time>2017-10-12T10:16:27Z</time>
      </trkpt>
      <trkpt lat="41.49289" lon="9.33501">
        <ele>1.1</ele>
        <time>2017-10-12T10:16:48Z</time>
      </trkpt>
      <trkpt lat="41.49259" lon="9.33518">
        <ele>0.62</ele>
        <time>2017-10-12T10:17:09Z</time>
      </trkpt>
      <trkpt lat="41.49239" lon="9.33528">
        <ele>0.14</ele>
        <time>2017-10-12T10:17:24Z</time>
      </trkpt>
      <trkpt lat="41.49208" lon="9.33545">
        <ele>1.1</ele>
        <time>2017-10-12T10:17:43Z</time>
      </trkpt>
      <trkpt lat="41.49173" lon="9.33558">
        <ele>1.1</ele>
        <time>2017-10-12T10:18:03Z</time>
      </trkpt>
      <trkpt lat="41.49128" lon="9.33576">
        <ele>0.62</ele>
        <time>2017-10-12T10:18:26Z</time>
      </trkpt>
      <trkpt lat="41.49097" lon="9.33592">
        <ele>1.1</ele>
        <time>2017-10-12T10:18:45Z</time>
      </trkpt>
      <trkpt lat="41.4906" lon="9.33613">
        <ele>0.62</ele>
        <time>2017-10-12T10:19:04Z</time>
      </trkpt>
      <trkpt lat="41.49016" lon="9.33631">
        <ele>1.1</ele>
        <time>2017-10-12T10:19:23Z</time>
      </trkpt>
      <trkpt lat="41.48968" lon="9.33649">
        <ele>2.06</ele>
        <time>2017-10-12T10:19:40Z</time>
      </trkpt>
      <trkpt lat="41.48906" lon="9.33673">
        <ele>2.06</ele>
        <time>2017-10-12T10:20:01Z</time>
      </trkpt>
      <trkpt lat="41.48864" lon="9.33694">
        <ele>1.58</ele>
        <time>2017-10-12T10:20:19Z</time>
      </trkpt>
      <trkpt lat="41.48833" lon="9.3371">
        <ele>1.58</ele>
        <time>2017-10-12T10:20:34Z</time>
      </trkpt>
      <trkpt lat="41.48797" lon="9.33726">
        <ele>1.1</ele>
        <time>2017-10-12T10:20:50Z</time>
      </trkpt>
      <trkpt lat="41.48761" lon="9.33741">
        <ele>1.1</ele>
        <time>2017-10-12T10:21:04Z</time>
      </trkpt>
      <trkpt lat="41.48711" lon="9.33763">
        <ele>1.1</ele>
        <time>2017-10-12T10:21:21Z</time>
      </trkpt>
      <trkpt lat="41.48658" lon="9.33784">
        <ele>1.1</ele>
        <time>2017-10-12T10:21:38Z</time>
      </trkpt>
      <trkpt lat="41.48611" lon="9.33805">
        <ele>0.14</ele>
        <time>2017-10-12T10:21:53Z</time>
      </trkpt>
      <trkpt lat="41.48562" lon="9.3383">
        <ele>0.62</ele>
        <time>2017-10-12T10:22:09Z</time>
      </trkpt>
      <trkpt lat="41.4851" lon="9.33853">
        <ele>0.62</ele>
        <time>2017-10-12T10:22:26Z</time>
      </trkpt>
      <trkpt lat="41.48462" lon="9.33875">
        <ele>0.62</ele>
        <time>2017-10-12T10:22:42Z</time>
      </trkpt>
      <trkpt lat="41.48414" lon="9.33896">
        <ele>0.62</ele>
        <time>2017-10-12T10:22:58Z</time>
      </trkpt>
      <trkpt lat="41.48361" lon="9.33918">
        <ele>2.06</ele>
        <time>2017-10-12T10:23:16Z</time>
      </trkpt>
      <trkpt lat="41.48303" lon="9.33941">
        <ele>2.06</ele>
        <time>2017-10-12T10:23:35Z</time>
      </trkpt>
      <trkpt lat="41.48241" lon="9.33966">
        <ele>0.62</ele>
        <time>2017-10-12T10:23:55Z</time>
      </trkpt>
      <trkpt lat="41.48185" lon="9.33985">
        <ele>0.14</ele>
        <time>2017-10-12T10:24:12Z</time>
      </trkpt>
      <trkpt lat="41.48141" lon="9.34005">
        <ele>1.1</ele>
        <time>2017-10-12T10:24:26Z</time>
      </trkpt>
      <trkpt lat="41.48095" lon="9.34026">
        <ele>1.58</ele>
        <time>2017-10-12T10:24:41Z</time>
      </trkpt>
      <trkpt lat="41.48049" lon="9.34045">
        <ele>0.62</ele>
        <time>2017-10-12T10:24:56Z</time>
      </trkpt>
      <trkpt lat="41.4799" lon="9.34067">
        <ele>0.62</ele>
        <time>2017-10-12T10:25:14Z</time>
      </trkpt>
      <trkpt lat="41.47927" lon="9.34089">
        <ele>1.58</ele>
        <time>2017-10-12T10:25:33Z</time>
      </trkpt>
      <trkpt lat="41.47876" lon="9.34108">
        <ele>1.1</ele>
        <time>2017-10-12T10:25:49Z</time>
      </trkpt>
      <trkpt lat="41.47823" lon="9.34127">
        <ele>1.1</ele>
        <time>2017-10-12T10:26:06Z</time>
      </trkpt>
      <trkpt lat="41.47781" lon="9.34138">
        <ele>1.58</ele>
        <time>2017-10-12T10:26:19Z</time>
      </trkpt>
      <trkpt lat="41.47725" lon="9.34149">
        <ele>1.58</ele>
        <time>2017-10-12T10:26:37Z</time>
      </trkpt>
      <trkpt lat="41.47672" lon="9.34157">
        <ele>2.06</ele>
        <time>2017-10-12T10:26:54Z</time>
      </trkpt>
      <trkpt lat="41.47633" lon="9.34165">
        <ele>1.1</ele>
        <time>2017-10-12T10:27:07Z</time>
      </trkpt>
      <trkpt lat="41.4759" lon="9.34171">
        <ele>1.58</ele>
        <time>2017-10-12T10:27:22Z</time>
      </trkpt>
      <trkpt lat="41.4754" lon="9.34176">
        <ele>1.58</ele>
        <time>2017-10-12T10:27:39Z</time>
      </trkpt>
      <trkpt lat="41.4749" lon="9.34182">
        <ele>1.58</ele>
        <time>2017-10-12T10:27:56Z</time>
      </trkpt>
      <trkpt lat="41.47444" lon="9.34189">
        <ele>2.06</ele>
        <time>2017-10-12T10:28:12Z</time>
      </trkpt>
      <trkpt lat="41.47395" lon="9.34191">
        <ele>1.58</ele>
        <time>2017-10-12T10:28:28Z</time>
      </trkpt>
      <trkpt lat="41.47341" lon="9.34195">
        <ele>1.58</ele>
        <time>2017-10-12T10:28:46Z</time>
      </trkpt>
      <trkpt lat="41.47292" lon="9.34198">
        <ele>2.54</ele>
        <time>2017-10-12T10:29:03Z</time>
      </trkpt>
      <trkpt lat="41.47245" lon="9.34203">
        <ele>2.06</ele>
        <time>2017-10-12T10:29:19Z</time>
      </trkpt>
      <trkpt lat="41.47198" lon="9.34207">
        <ele>3.02</ele>
        <time>2017-10-12T10:29:35Z</time>
      </trkpt>
      <trkpt lat="41.47153" lon="9.34209">
        <ele>2.54</ele>
        <time>2017-10-12T10:29:50Z</time>
      </trkpt>
      <trkpt lat="41.47107" lon="9.34212">
        <ele>1.1</ele>
        <time>2017-10-12T10:30:05Z</time>
      </trkpt>
      <trkpt lat="41.4706" lon="9.34226">
        <ele>0.62</ele>
        <time>2017-10-12T10:30:20Z</time>
      </trkpt>
      <trkpt lat="41.47011" lon="9.34249">
        <ele>1.1</ele>
        <time>2017-10-12T10:30:36Z</time>
      </trkpt>
      <trkpt lat="41.46974" lon="9.34269">
        <ele>1.1</ele>
        <time>2017-10-12T10:30:48Z</time>
      </trkpt>
      <trkpt lat="41.46924" lon="9.34295">
        <ele>1.1</ele>
        <time>2017-10-12T10:31:04Z</time>
      </trkpt>
      <trkpt lat="41.46879" lon="9.34319">
        <ele>1.58</ele>
        <time>2017-10-12T10:31:19Z</time>
      </trkpt>
      <trkpt lat="41.46826" lon="9.3434">
        <ele>2.06</ele>
        <time>2017-10-12T10:31:35Z</time>
      </trkpt>
      <trkpt lat="41.46777" lon="9.3436">
        <ele>2.06</ele>
        <time>2017-10-12T10:31:50Z</time>
      </trkpt>
      <trkpt lat="41.46737" lon="9.34383">
        <ele>1.1</ele>
        <time>2017-10-12T10:32:03Z</time>
      </trkpt>
      <trkpt lat="41.46688" lon="9.34414">
        <ele>0.62</ele>
        <time>2017-10-12T10:32:19Z</time>
      </trkpt>
      <trkpt lat="41.46645" lon="9.34445">
        <ele>0.62</ele>
        <time>2017-10-12T10:32:34Z</time>
      </trkpt>
      <trkpt lat="41.46603" lon="9.34477">
        <ele>1.1</ele>
        <time>2017-10-12T10:32:49Z</time>
      </trkpt>
      <trkpt lat="41.46564" lon="9.34505">
        <ele>0.62</ele>
        <time>2017-10-12T10:33:03Z</time>
      </trkpt>
      <trkpt lat="41.4653" lon="9.34533">
        <ele>1.1</ele>
        <time>2017-10-12T10:33:16Z</time>
      </trkpt>
      <trkpt lat="41.46487" lon="9.34567">
        <ele>0.62</ele>
        <time>2017-10-12T10:33:32Z</time>
      </trkpt>
      <trkpt lat="41.46443" lon="9.34601">
        <ele>0.62</ele>
        <time>2017-10-12T10:33:48Z</time>
      </trkpt>
      <trkpt lat="41.46395" lon="9.34627">
        <ele>0.62</ele>
        <time>2017-10-12T10:34:04Z</time>
      </trkpt>
      <trkpt lat="41.46354" lon="9.34648">
        <ele>0.62</ele>
        <time>2017-10-12T10:34:18Z</time>
      </trkpt>
      <trkpt lat="41.46308" lon="9.34662">
        <ele>-0.34</ele>
        <time>2017-10-12T10:34:33Z</time>
      </trkpt>
      <trkpt lat="41.4627" lon="9.34653">
        <ele>-0.34</ele>
        <time>2017-10-12T10:34:46Z</time>
      </trkpt>
      <trkpt lat="41.46236" lon="9.34626">
        <ele>0.14</ele>
        <time>2017-10-12T10:35:02Z</time>
      </trkpt>
      <trkpt lat="41.46218" lon="9.34609">
        <ele>1.1</ele>
        <time>2017-10-12T10:35:18Z</time>
      </trkpt>
      <trkpt lat="41.46203" lon="9.34605">
        <ele>0.14</ele>
        <time>2017-10-12T10:35:34Z</time>
      </trkpt>
      <trkpt lat="41.46183" lon="9.34606">
        <ele>0.14</ele>
        <time>2017-10-12T10:35:47Z</time>
      </trkpt>
      <trkpt lat="41.46155" lon="9.34596">
        <ele>0.14</ele>
        <time>2017-10-12T10:36:05Z</time>
      </trkpt>
      <trkpt lat="41.46133" lon="9.34584">
        <ele>2.06</ele>
        <time>2017-10-12T10:36:22Z</time>
      </trkpt>
      <trkpt lat="41.46104" lon="9.34579">
        <ele>3.02</ele>
        <time>2017-10-12T10:36:36Z</time>
      </trkpt>
      <trkpt lat="41.46071" lon="9.34572">
        <ele>2.54</ele>
        <time>2017-10-12T10:36:49Z</time>
      </trkpt>
      <trkpt lat="41.46041" lon="9.34569">
        <ele>2.06</ele>
        <time>2017-10-12T10:37:00Z</time>
      </trkpt>
      <trkpt lat="41.46004" lon="9.34563">
        <ele>1.58</ele>
        <time>2017-10-12T10:37:13Z</time>
      </trkpt>
      <trkpt lat="41.45952" lon="9.34557">
        <ele>0.62</ele>
        <time>2017-10-12T10:37:30Z</time>
      </trkpt>
      <trkpt lat="41.45916" lon="9.34554">
        <ele>1.1</ele>
        <time>2017-10-12T10:37:41Z</time>
      </trkpt>
      <trkpt lat="41.45867" lon="9.34555">
        <ele>1.1</ele>
        <time>2017-10-12T10:37:56Z</time>
      </trkpt>
      <trkpt lat="41.45814" lon="9.34562">
        <ele>0.62</ele>
        <time>2017-10-12T10:38:12Z</time>
      </trkpt>
      <trkpt lat="41.45764" lon="9.3457">
        <ele>1.1</ele>
        <time>2017-10-12T10:38:28Z</time>
      </trkpt>
      <trkpt lat="41.4572" lon="9.34575">
        <ele>1.1</ele>
        <time>2017-10-12T10:38:42Z</time>
      </trkpt>
      <trkpt lat="41.4567" lon="9.34585">
        <ele>0.62</ele>
        <time>2017-10-12T10:38:59Z</time>
      </trkpt>
      <trkpt lat="41.45622" lon="9.34588">
        <ele>1.1</ele>
        <time>2017-10-12T10:39:14Z</time>
      </trkpt>
      <trkpt lat="41.45575" lon="9.34586">
        <ele>1.58</ele>
        <time>2017-10-12T10:39:29Z</time>
      </trkpt>
      <trkpt lat="41.4553" lon="9.3459">
        <ele>1.58</ele>
        <time>2017-10-12T10:39:44Z</time>
      </trkpt>
      <trkpt lat="41.45494" lon="9.34597">
        <ele>1.1</ele>
        <time>2017-10-12T10:39:56Z</time>
      </trkpt>
      <trkpt lat="41.45451" lon="9.34601">
        <ele>2.06</ele>
        <time>2017-10-12T10:40:10Z</time>
      </trkpt>
      <trkpt lat="41.45408" lon="9.34606">
        <ele>1.58</ele>
        <time>2017-10-12T10:40:24Z</time>
      </trkpt>
      <trkpt lat="41.45368" lon="9.34616">
        <ele>0.62</ele>
        <time>2017-10-12T10:40:37Z</time>
      </trkpt>
      <trkpt lat="41.45333" lon="9.34625">
        <ele>1.58</ele>
        <time>2017-10-12T10:40:49Z</time>
      </trkpt>
      <trkpt lat="41.45284" lon="9.34631">
        <ele>1.1</ele>
        <time>2017-10-12T10:41:05Z</time>
      </trkpt>
      <trkpt lat="41.45235" lon="9.34637">
        <ele>1.1</ele>
        <time>2017-10-12T10:41:21Z</time>
      </trkpt>
      <trkpt lat="41.45188" lon="9.3464">
        <ele>1.58</ele>
        <time>2017-10-12T10:41:36Z</time>
      </trkpt>
      <trkpt lat="41.45142" lon="9.34641">
        <ele>2.54</ele>
        <time>2017-10-12T10:41:51Z</time>
      </trkpt>
      <trkpt lat="41.45105" lon="9.34641">
        <ele>2.06</ele>
        <time>2017-10-12T10:42:03Z</time>
      </trkpt>
      <trkpt lat="41.45058" lon="9.34637">
        <ele>2.06</ele>
        <time>2017-10-12T10:42:18Z</time>
      </trkpt>
      <trkpt lat="41.45016" lon="9.34629">
        <ele>2.54</ele>
        <time>2017-10-12T10:42:31Z</time>
      </trkpt>
      <trkpt lat="41.44968" lon="9.34621">
        <ele>2.54</ele>
        <time>2017-10-12T10:42:46Z</time>
      </trkpt>
      <trkpt lat="41.44922" lon="9.34615">
        <ele>2.54</ele>
        <time>2017-10-12T10:43:01Z</time>
      </trkpt>
      <trkpt lat="41.44873" lon="9.34609">
        <ele>2.06</ele>
        <time>2017-10-12T10:43:17Z</time>
      </trkpt>
      <trkpt lat="41.44833" lon="9.34606">
        <ele>2.06</ele>
        <time>2017-10-12T10:43:30Z</time>
      </trkpt>
      <trkpt lat="41.44786" lon="9.34603">
        <ele>3.02</ele>
        <time>2017-10-12T10:43:45Z</time>
      </trkpt>
      <trkpt lat="41.44735" lon="9.34598">
        <ele>1.58</ele>
        <time>2017-10-12T10:44:01Z</time>
      </trkpt>
      <trkpt lat="41.44689" lon="9.34591">
        <ele>1.1</ele>
        <time>2017-10-12T10:44:15Z</time>
      </trkpt>
      <trkpt lat="41.44645" lon="9.34584">
        <ele>1.58</ele>
        <time>2017-10-12T10:44:29Z</time>
      </trkpt>
      <trkpt lat="41.44598" lon="9.34582">
        <ele>2.54</ele>
        <time>2017-10-12T10:44:44Z</time>
      </trkpt>
      <trkpt lat="41.44558" lon="9.34576">
        <ele>2.54</ele>
        <time>2017-10-12T10:44:57Z</time>
      </trkpt>
      <trkpt lat="41.44519" lon="9.34573">
        <ele>2.06</ele>
        <time>2017-10-12T10:45:10Z</time>
      </trkpt>
      <trkpt lat="41.4448" lon="9.34565">
        <ele>2.54</ele>
        <time>2017-10-12T10:45:23Z</time>
      </trkpt>
      <trkpt lat="41.44438" lon="9.34559">
        <ele>2.54</ele>
        <time>2017-10-12T10:45:37Z</time>
      </trkpt>
      <trkpt lat="41.44386" lon="9.34549">
        <ele>2.06</ele>
        <time>2017-10-12T10:45:54Z</time>
      </trkpt>
      <trkpt lat="41.44349" lon="9.34543">
        <ele>1.58</ele>
        <time>2017-10-12T10:46:06Z</time>
      </trkpt>
      <trkpt lat="41.44299" lon="9.34536">
        <ele>1.1</ele>
        <time>2017-10-12T10:46:22Z</time>
      </trkpt>
      <trkpt lat="41.44256" lon="9.34529">
        <ele>1.1</ele>
        <time>2017-10-12T10:46:36Z</time>
      </trkpt>
      <trkpt lat="41.442" lon="9.34521">
        <ele>2.06</ele>
        <time>2017-10-12T10:46:54Z</time>
      </trkpt>
      <trkpt lat="41.44163" lon="9.34519">
        <ele>2.54</ele>
        <time>2017-10-12T10:47:06Z</time>
      </trkpt>
      <trkpt lat="41.44119" lon="9.34516">
        <ele>3.02</ele>
        <time>2017-10-12T10:47:21Z</time>
      </trkpt>
      <trkpt lat="41.44069" lon="9.34509">
        <ele>2.06</ele>
        <time>2017-10-12T10:47:38Z</time>
      </trkpt>
      <trkpt lat="41.44029" lon="9.34503">
        <ele>2.06</ele>
        <time>2017-10-12T10:47:51Z</time>
      </trkpt>
      <trkpt lat="41.43989" lon="9.34498">
        <ele>2.54</ele>
        <time>2017-10-12T10:48:04Z</time>
      </trkpt>
      <trkpt lat="41.4395" lon="9.34493">
        <ele>2.06</ele>
        <time>2017-10-12T10:48:17Z</time>
      </trkpt>
      <trkpt lat="41.43899" lon="9.34485">
        <ele>1.58</ele>
        <time>2017-10-12T10:48:34Z</time>
      </trkpt>
      <trkpt lat="41.43853" lon="9.34475">
        <ele>3.02</ele>
        <time>2017-10-12T10:48:49Z</time>
      </trkpt>
      <trkpt lat="41.43811" lon="9.34466">
        <ele>3.5</ele>
        <time>2017-10-12T10:49:03Z</time>
      </trkpt>
      <trkpt lat="41.43762" lon="9.34458">
        <ele>4.46</ele>
        <time>2017-10-12T10:49:19Z</time>
      </trkpt>
      <trkpt lat="41.43723" lon="9.34456">
        <ele>3.98</ele>
        <time>2017-10-12T10:49:32Z</time>
      </trkpt>
      <trkpt lat="41.43675" lon="9.34448">
        <ele>3.5</ele>
        <time>2017-10-12T10:49:48Z</time>
      </trkpt>
      <trkpt lat="41.43633" lon="9.34446">
        <ele>4.94</ele>
        <time>2017-10-12T10:50:02Z</time>
      </trkpt>
      <trkpt lat="41.436" lon="9.34445">
        <ele>4.46</ele>
        <time>2017-10-12T10:50:14Z</time>
      </trkpt>
      <trkpt lat="41.43557" lon="9.34439">
        <ele>3.98</ele>
        <time>2017-10-12T10:50:29Z</time>
      </trkpt>
      <trkpt lat="41.43506" lon="9.34428">
        <ele>3.5</ele>
        <time>2017-10-12T10:50:47Z</time>
      </trkpt>
      <trkpt lat="41.43466" lon="9.34417">
        <ele>3.02</ele>
        <time>2017-10-12T10:51:01Z</time>
      </trkpt>
      <trkpt lat="41.43424" lon="9.34406">
        <ele>3.5</ele>
        <time>2017-10-12T10:51:16Z</time>
      </trkpt>
      <trkpt lat="41.43383" lon="9.34395">
        <ele>2.06</ele>
        <time>2017-10-12T10:51:31Z</time>
      </trkpt>
      <trkpt lat="41.43343" lon="9.34386">
        <ele>2.06</ele>
        <time>2017-10-12T10:51:46Z</time>
      </trkpt>
      <trkpt lat="41.43307" lon="9.34376">
        <ele>2.54</ele>
        <time>2017-10-12T10:52:00Z</time>
      </trkpt>
      <trkpt lat="41.43261" lon="9.34363">
        <ele>2.54</ele>
        <time>2017-10-12T10:52:17Z</time>
      </trkpt>
      <trkpt lat="41.43218" lon="9.34349">
        <ele>3.02</ele>
        <time>2017-10-12T10:52:34Z</time>
      </trkpt>
      <trkpt lat="41.43179" lon="9.34338">
        <ele>3.02</ele>
        <time>2017-10-12T10:52:49Z</time>
      </trkpt>
      <trkpt lat="41.43138" lon="9.34328">
        <ele>3.02</ele>
        <time>2017-10-12T10:53:04Z</time>
      </trkpt>
      <trkpt lat="41.43091" lon="9.34312">
        <ele>3.5</ele>
        <time>2017-10-12T10:53:21Z</time>
      </trkpt>
      <trkpt lat="41.43053" lon="9.34302">
        <ele>3.02</ele>
        <time>2017-10-12T10:53:35Z</time>
      </trkpt>
      <trkpt lat="41.43015" lon="9.34293">
        <ele>2.54</ele>
        <time>2017-10-12T10:53:49Z</time>
      </trkpt>
      <trkpt lat="41.42975" lon="9.34283">
        <ele>2.54</ele>
        <time>2017-10-12T10:54:03Z</time>
      </trkpt>
      <trkpt lat="41.42941" lon="9.34278">
        <ele>2.54</ele>
        <time>2017-10-12T10:54:15Z</time>
      </trkpt>
      <trkpt lat="41.42906" lon="9.3427">
        <ele>3.02</ele>
        <time>2017-10-12T10:54:27Z</time>
      </trkpt>
      <trkpt lat="41.42863" lon="9.34261">
        <ele>3.02</ele>
        <time>2017-10-12T10:54:42Z</time>
      </trkpt>
      <trkpt lat="41.42822" lon="9.3425">
        <ele>2.06</ele>
        <time>2017-10-12T10:54:57Z</time>
      </trkpt>
      <trkpt lat="41.42788" lon="9.34242">
        <ele>1.58</ele>
        <time>2017-10-12T10:55:09Z</time>
      </trkpt>
      <trkpt lat="41.42746" lon="9.34232">
        <ele>2.06</ele>
        <time>2017-10-12T10:55:23Z</time>
      </trkpt>
      <trkpt lat="41.427" lon="9.34223">
        <ele>1.1</ele>
        <time>2017-10-12T10:55:38Z</time>
      </trkpt>
      <trkpt lat="41.42654" lon="9.3421">
        <ele>1.58</ele>
        <time>2017-10-12T10:55:53Z</time>
      </trkpt>
      <trkpt lat="41.4262" lon="9.34201">
        <ele>1.1</ele>
        <time>2017-10-12T10:56:05Z</time>
      </trkpt>
      <trkpt lat="41.42581" lon="9.34191">
        <ele>1.58</ele>
        <time>2017-10-12T10:56:18Z</time>
      </trkpt>
      <trkpt lat="41.42545" lon="9.34183">
        <ele>2.54</ele>
        <time>2017-10-12T10:56:30Z</time>
      </trkpt>
      <trkpt lat="41.42495" lon="9.3417">
        <ele>2.06</ele>
        <time>2017-10-12T10:56:47Z</time>
      </trkpt>
      <trkpt lat="41.42455" lon="9.34159">
        <ele>2.06</ele>
        <time>2017-10-12T10:57:01Z</time>
      </trkpt>
      <trkpt lat="41.42418" lon="9.34149">
        <ele>2.54</ele>
        <time>2017-10-12T10:57:14Z</time>
      </trkpt>
      <trkpt lat="41.42381" lon="9.34139">
        <ele>3.02</ele>
        <time>2017-10-12T10:57:28Z</time>
      </trkpt>
      <trkpt lat="41.42339" lon="9.34129">
        <ele>3.5</ele>
        <time>2017-10-12T10:57:43Z</time>
      </trkpt>
      <trkpt lat="41.42297" lon="9.34117">
        <ele>3.02</ele>
        <time>2017-10-12T10:57:58Z</time>
      </trkpt>
      <trkpt lat="41.4225" lon="9.34106">
        <ele>3.02</ele>
        <time>2017-10-12T10:58:14Z</time>
      </trkpt>
      <trkpt lat="41.42217" lon="9.34096">
        <ele>2.54</ele>
        <time>2017-10-12T10:58:26Z</time>
      </trkpt>
      <trkpt lat="41.42182" lon="9.34086">
        <ele>3.98</ele>
        <time>2017-10-12T10:58:39Z</time>
      </trkpt>
      <trkpt lat="41.42147" lon="9.34075">
        <ele>3.98</ele>
        <time>2017-10-12T10:58:52Z</time>
      </trkpt>
      <trkpt lat="41.42104" lon="9.34067">
        <ele>3.5</ele>
        <time>2017-10-12T10:59:07Z</time>
      </trkpt>
      <trkpt lat="41.42065" lon="9.34057">
        <ele>3.02</ele>
        <time>2017-10-12T10:59:20Z</time>
      </trkpt>
      <trkpt lat="41.42027" lon="9.34046">
        <ele>3.02</ele>
        <time>2017-10-12T10:59:33Z</time>
      </trkpt>
      <trkpt lat="41.41986" lon="9.34032">
        <ele>3.02</ele>
        <time>2017-10-12T10:59:47Z</time>
      </trkpt>
      <trkpt lat="41.41942" lon="9.34018">
        <ele>3.5</ele>
        <time>2017-10-12T11:00:02Z</time>
      </trkpt>
      <trkpt lat="41.41905" lon="9.34008">
        <ele>3.5</ele>
        <time>2017-10-12T11:00:14Z</time>
      </trkpt>
      <trkpt lat="41.41853" lon="9.33995">
        <ele>3.98</ele>
        <time>2017-10-12T11:00:31Z</time>
      </trkpt>
      <trkpt lat="41.41806" lon="9.33979">
        <ele>3.98</ele>
        <time>2017-10-12T11:00:46Z</time>
      </trkpt>
      <trkpt lat="41.41772" lon="9.33972">
        <ele>3.5</ele>
        <time>2017-10-12T11:00:58Z</time>
      </trkpt>
      <trkpt lat="41.41736" lon="9.33959">
        <ele>3.02</ele>
        <time>2017-10-12T11:01:11Z</time>
      </trkpt>
      <trkpt lat="41.41708" lon="9.33952">
        <ele>3.5</ele>
        <time>2017-10-12T11:01:22Z</time>
      </trkpt>
      <trkpt lat="41.41668" lon="9.3394">
        <ele>3.5</ele>
        <time>2017-10-12T11:01:37Z</time>
      </trkpt>
      <trkpt lat="41.41631" lon="9.33927">
        <ele>3.98</ele>
        <time>2017-10-12T11:01:51Z</time>
      </trkpt>
      <trkpt lat="41.41603" lon="9.3392">
        <ele>3.5</ele>
        <time>2017-10-12T11:02:01Z</time>
      </trkpt>
      <trkpt lat="41.4156" lon="9.33908">
        <ele>3.02</ele>
        <time>2017-10-12T11:02:16Z</time>
      </trkpt>
      <trkpt lat="41.41522" lon="9.33896">
        <ele>2.06</ele>
        <time>2017-10-12T11:02:30Z</time>
      </trkpt>
      <trkpt lat="41.4149" lon="9.33884">
        <ele>2.54</ele>
        <time>2017-10-12T11:02:42Z</time>
      </trkpt>
      <trkpt lat="41.41455" lon="9.33871">
        <ele>3.02</ele>
        <time>2017-10-12T11:02:56Z</time>
      </trkpt>
      <trkpt lat="41.41417" lon="9.3386">
        <ele>3.98</ele>
        <time>2017-10-12T11:03:10Z</time>
      </trkpt>
      <trkpt lat="41.41374" lon="9.33847">
        <ele>3.5</ele>
        <time>2017-10-12T11:03:25Z</time>
      </trkpt>
      <trkpt lat="41.41338" lon="9.33835">
        <ele>3.98</ele>
        <time>2017-10-12T11:03:38Z</time>
      </trkpt>
      <trkpt lat="41.41303" lon="9.33823">
        <ele>4.46</ele>
        <time>2017-10-12T11:03:51Z</time>
      </trkpt>
      <trkpt lat="41.41267" lon="9.33811">
        <ele>4.46</ele>
        <time>2017-10-12T11:04:04Z</time>
      </trkpt>
      <trkpt lat="41.41256" lon="9.33808">
        <ele>3.98</ele>
        <time>2017-10-12T11:04:08Z</time>
      </trkpt>
      <trkpt lat="41.41218" lon="9.33795">
        <ele>3.98</ele>
        <time>2017-10-12T11:04:22Z</time>
      </trkpt>
      <trkpt lat="41.41178" lon="9.33782">
        <ele>3.98</ele>
        <time>2017-10-12T11:04:36Z</time>
      </trkpt>
      <trkpt lat="41.41135" lon="9.33765">
        <ele>3.98</ele>
        <time>2017-10-12T11:04:51Z</time>
      </trkpt>
      <trkpt lat="41.41091" lon="9.3375">
        <ele>3.98</ele>
        <time>2017-10-12T11:05:05Z</time>
      </trkpt>
      <trkpt lat="41.41054" lon="9.33737">
        <ele>4.46</ele>
        <time>2017-10-12T11:05:17Z</time>
      </trkpt>
      <trkpt lat="41.4102" lon="9.33725">
        <ele>4.46</ele>
        <time>2017-10-12T11:05:29Z</time>
      </trkpt>
      <trkpt lat="41.4099" lon="9.33712">
        <ele>3.98</ele>
        <time>2017-10-12T11:05:40Z</time>
      </trkpt>
      <trkpt lat="41.40955" lon="9.33701">
        <ele>3.02</ele>
        <time>2017-10-12T11:05:52Z</time>
      </trkpt>
      <trkpt lat="41.40923" lon="9.33686">
        <ele>3.5</ele>
        <time>2017-10-12T11:06:03Z</time>
      </trkpt>
      <trkpt lat="41.40886" lon="9.33672">
        <ele>3.02</ele>
        <time>2017-10-12T11:06:15Z</time>
      </trkpt>
      <trkpt lat="41.40847" lon="9.33658">
        <ele>2.06</ele>
        <time>2017-10-12T11:06:28Z</time>
      </trkpt>
      <trkpt lat="41.40807" lon="9.33641">
        <ele>2.06</ele>
        <time>2017-10-12T11:06:42Z</time>
      </trkpt>
      <trkpt lat="41.40774" lon="9.33628">
        <ele>1.58</ele>
        <time>2017-10-12T11:06:54Z</time>
      </trkpt>
      <trkpt lat="41.40748" lon="9.33619">
        <ele>3.02</ele>
        <time>2017-10-12T11:07:03Z</time>
      </trkpt>
      <trkpt lat="41.40712" lon="9.33603">
        <ele>1.58</ele>
        <time>2017-10-12T11:07:16Z</time>
      </trkpt>
      <trkpt lat="41.40673" lon="9.33588">
        <ele>2.06</ele>
        <time>2017-10-12T11:07:30Z</time>
      </trkpt>
      <trkpt lat="41.40629" lon="9.33575">
        <ele>1.58</ele>
        <time>2017-10-12T11:07:44Z</time>
      </trkpt>
      <trkpt lat="41.40582" lon="9.33556">
        <ele>0.62</ele>
        <time>2017-10-12T11:07:59Z</time>
      </trkpt>
      <trkpt lat="41.40544" lon="9.33541">
        <ele>1.1</ele>
        <time>2017-10-12T11:08:11Z</time>
      </trkpt>
      <trkpt lat="41.40501" lon="9.33522">
        <ele>2.06</ele>
        <time>2017-10-12T11:08:25Z</time>
      </trkpt>
      <trkpt lat="41.40465" lon="9.33506">
        <ele>2.06</ele>
        <time>2017-10-12T11:08:37Z</time>
      </trkpt>
      <trkpt lat="41.40424" lon="9.33492">
        <ele>1.1</ele>
        <time>2017-10-12T11:08:50Z</time>
      </trkpt>
      <trkpt lat="41.40384" lon="9.33477">
        <ele>1.1</ele>
        <time>2017-10-12T11:09:03Z</time>
      </trkpt>
      <trkpt lat="41.40358" lon="9.33465">
        <ele>1.58</ele>
        <time>2017-10-12T11:09:12Z</time>
      </trkpt>
      <trkpt lat="41.40317" lon="9.33448">
        <ele>0.62</ele>
        <time>2017-10-12T11:09:25Z</time>
      </trkpt>
      <trkpt lat="41.40283" lon="9.33434">
        <ele>-0.82</ele>
        <time>2017-10-12T11:09:36Z</time>
      </trkpt>
      <trkpt lat="41.40237" lon="9.33415">
        <ele>-1.3</ele>
        <time>2017-10-12T11:09:51Z</time>
      </trkpt>
      <trkpt lat="41.4019" lon="9.33396">
        <ele>-1.79</ele>
        <time>2017-10-12T11:10:06Z</time>
      </trkpt>
      <trkpt lat="41.40149" lon="9.33379">
        <ele>-1.79</ele>
        <time>2017-10-12T11:10:19Z</time>
      </trkpt>
      <trkpt lat="41.40104" lon="9.33362">
        <ele>-1.3</ele>
        <time>2017-10-12T11:10:33Z</time>
      </trkpt>
      <trkpt lat="41.4006" lon="9.33343">
        <ele>-1.3</ele>
        <time>2017-10-12T11:10:47Z</time>
      </trkpt>
      <trkpt lat="41.40018" lon="9.33324">
        <ele>-1.79</ele>
        <time>2017-10-12T11:11:01Z</time>
      </trkpt>
      <trkpt lat="41.39976" lon="9.33307">
        <ele>-0.82</ele>
        <time>2017-10-12T11:11:15Z</time>
      </trkpt>
      <trkpt lat="41.39932" lon="9.33291">
        <ele>-0.34</ele>
        <time>2017-10-12T11:11:29Z</time>
      </trkpt>
      <trkpt lat="41.39884" lon="9.33275">
        <ele>0.14</ele>
        <time>2017-10-12T11:11:45Z</time>
      </trkpt>
      <trkpt lat="41.39844" lon="9.33259">
        <ele>-0.34</ele>
        <time>2017-10-12T11:11:59Z</time>
      </trkpt>
      <trkpt lat="41.39802" lon="9.33243">
        <ele>-0.34</ele>
        <time>2017-10-12T11:12:14Z</time>
      </trkpt>
      <trkpt lat="41.39764" lon="9.33229">
        <ele>-0.82</ele>
        <time>2017-10-12T11:12:27Z</time>
      </trkpt>
      <trkpt lat="41.39724" lon="9.33215">
        <ele>-0.82</ele>
        <time>2017-10-12T11:12:40Z</time>
      </trkpt>
      <trkpt lat="41.39683" lon="9.332">
        <ele>-1.3</ele>
        <time>2017-10-12T11:12:53Z</time>
      </trkpt>
      <trkpt lat="41.39643" lon="9.33182">
        <ele>-1.3</ele>
        <time>2017-10-12T11:13:06Z</time>
      </trkpt>
      <trkpt lat="41.39595" lon="9.33166">
        <ele>-0.82</ele>
        <time>2017-10-12T11:13:21Z</time>
      </trkpt>
      <trkpt lat="41.39558" lon="9.33155">
        <ele>0.14</ele>
        <time>2017-10-12T11:13:33Z</time>
      </trkpt>
      <trkpt lat="41.39519" lon="9.3314">
        <ele>0.62</ele>
        <time>2017-10-12T11:13:46Z</time>
      </trkpt>
      <trkpt lat="41.39471" lon="9.33121">
        <ele>0.14</ele>
        <time>2017-10-12T11:14:01Z</time>
      </trkpt>
      <trkpt lat="41.39428" lon="9.33106">
        <ele>0.14</ele>
        <time>2017-10-12T11:14:15Z</time>
      </trkpt>
      <trkpt lat="41.39392" lon="9.33092">
        <ele>0.62</ele>
        <time>2017-10-12T11:14:27Z</time>
      </trkpt>
      <trkpt lat="41.39356" lon="9.33077">
        <ele>0.14</ele>
        <time>2017-10-12T11:14:39Z</time>
      </trkpt>
      <trkpt lat="41.39312" lon="9.33061">
        <ele>-0.34</ele>
        <time>2017-10-12T11:14:53Z</time>
      </trkpt>
      <trkpt lat="41.39266" lon="9.33046">
        <ele>-1.3</ele>
        <time>2017-10-12T11:15:08Z</time>
      </trkpt>
      <trkpt lat="41.39232" lon="9.33038">
        <ele>0.14</ele>
        <time>2017-10-12T11:15:19Z</time>
      </trkpt>
      <trkpt lat="41.39188" lon="9.3302">
        <ele>0.62</ele>
        <time>2017-10-12T11:15:33Z</time>
      </trkpt>
      <trkpt lat="41.39146" lon="9.33005">
        <ele>-0.34</ele>
        <time>2017-10-12T11:15:46Z</time>
      </trkpt>
      <trkpt lat="41.39101" lon="9.32989">
        <ele>-0.34</ele>
        <time>2017-10-12T11:16:00Z</time>
      </trkpt>
      <trkpt lat="41.39059" lon="9.32976">
        <ele>-0.34</ele>
        <time>2017-10-12T11:16:13Z</time>
      </trkpt>
      <trkpt lat="41.39022" lon="9.3296">
        <ele>-0.34</ele>
        <time>2017-10-12T11:16:25Z</time>
      </trkpt>
      <trkpt lat="41.38991" lon="9.32947">
        <ele>0.14</ele>
        <time>2017-10-12T11:16:35Z</time>
      </trkpt>
      <trkpt lat="41.38954" lon="9.32932">
        <ele>0.14</ele>
        <time>2017-10-12T11:16:47Z</time>
      </trkpt>
      <trkpt lat="41.38921" lon="9.32916">
        <ele>-0.34</ele>
        <time>2017-10-12T11:16:58Z</time>
      </trkpt>
      <trkpt lat="41.38884" lon="9.32899">
        <ele>-0.82</ele>
        <time>2017-10-12T11:17:10Z</time>
      </trkpt>
      <trkpt lat="41.38844" lon="9.32885">
        <ele>-1.3</ele>
        <time>2017-10-12T11:17:23Z</time>
      </trkpt>
      <trkpt lat="41.38805" lon="9.32868">
        <ele>-1.3</ele>
        <time>2017-10-12T11:17:36Z</time>
      </trkpt>
      <trkpt lat="41.38765" lon="9.32851">
        <ele>-1.3</ele>
        <time>2017-10-12T11:17:50Z</time>
      </trkpt>
      <trkpt lat="41.38731" lon="9.32839">
        <ele>0.14</ele>
        <time>2017-10-12T11:18:02Z</time>
      </trkpt>
      <trkpt lat="41.38696" lon="9.32822">
        <ele>0.62</ele>
        <time>2017-10-12T11:18:14Z</time>
      </trkpt>
      <trkpt lat="41.38652" lon="9.32807">
        <ele>0.14</ele>
        <time>2017-10-12T11:18:28Z</time>
      </trkpt>
      <trkpt lat="41.38612" lon="9.32792">
        <ele>0.14</ele>
        <time>2017-10-12T11:18:41Z</time>
      </trkpt>
      <trkpt lat="41.38576" lon="9.32778">
        <ele>0.62</ele>
        <time>2017-10-12T11:18:53Z</time>
      </trkpt>
      <trkpt lat="41.38538" lon="9.32764">
        <ele>0.14</ele>
        <time>2017-10-12T11:19:05Z</time>
      </trkpt>
      <trkpt lat="41.38492" lon="9.32743">
        <ele>-0.82</ele>
        <time>2017-10-12T11:19:20Z</time>
      </trkpt>
      <trkpt lat="41.3846" lon="9.32731">
        <ele>-0.82</ele>
        <time>2017-10-12T11:19:30Z</time>
      </trkpt>
      <trkpt lat="41.38423" lon="9.32716">
        <ele>-0.82</ele>
        <time>2017-10-12T11:19:42Z</time>
      </trkpt>
      <trkpt lat="41.38385" lon="9.32701">
        <ele>0.62</ele>
        <time>2017-10-12T11:19:54Z</time>
      </trkpt>
      <trkpt lat="41.38337" lon="9.32683">
        <ele>-0.34</ele>
        <time>2017-10-12T11:20:09Z</time>
      </trkpt>
      <trkpt lat="41.38298" lon="9.32667">
        <ele>-0.82</ele>
        <time>2017-10-12T11:20:21Z</time>
      </trkpt>
      <trkpt lat="41.3826" lon="9.32656">
        <ele>0.14</ele>
        <time>2017-10-12T11:20:33Z</time>
      </trkpt>
      <trkpt lat="41.38218" lon="9.32644">
        <ele>0.62</ele>
        <time>2017-10-12T11:20:46Z</time>
      </trkpt>
      <trkpt lat="41.38175" lon="9.32635">
        <ele>0.14</ele>
        <time>2017-10-12T11:20:59Z</time>
      </trkpt>
      <trkpt lat="41.38134" lon="9.32626">
        <ele>0.14</ele>
        <time>2017-10-12T11:21:11Z</time>
      </trkpt>
      <trkpt lat="41.38095" lon="9.32616">
        <ele>0.62</ele>
        <time>2017-10-12T11:21:23Z</time>
      </trkpt>
      <trkpt lat="41.38052" lon="9.32603">
        <ele>0.14</ele>
        <time>2017-10-12T11:21:36Z</time>
      </trkpt>
      <trkpt lat="41.38012" lon="9.32594">
        <ele>-1.3</ele>
        <time>2017-10-12T11:21:48Z</time>
      </trkpt>
      <trkpt lat="41.37976" lon="9.32585">
        <ele>-0.82</ele>
        <time>2017-10-12T11:21:59Z</time>
      </trkpt>
      <trkpt lat="41.37933" lon="9.32577">
        <ele>-0.34</ele>
        <time>2017-10-12T11:22:12Z</time>
      </trkpt>
      <trkpt lat="41.37897" lon="9.3257">
        <ele>0.14</ele>
        <time>2017-10-12T11:22:23Z</time>
      </trkpt>
      <trkpt lat="41.37863" lon="9.3256">
        <ele>0.14</ele>
        <time>2017-10-12T11:22:33Z</time>
      </trkpt>
      <trkpt lat="41.37818" lon="9.32555">
        <ele>0.14</ele>
        <time>2017-10-12T11:22:46Z</time>
      </trkpt>
      <trkpt lat="41.37775" lon="9.3254">
        <ele>0.14</ele>
        <time>2017-10-12T11:22:59Z</time>
      </trkpt>
      <trkpt lat="41.3773" lon="9.32526">
        <ele>0.14</ele>
        <time>2017-10-12T11:23:12Z</time>
      </trkpt>
      <trkpt lat="41.37686" lon="9.32509">
        <ele>-0.34</ele>
        <time>2017-10-12T11:23:25Z</time>
      </trkpt>
      <trkpt lat="41.37642" lon="9.32496">
        <ele>-0.82</ele>
        <time>2017-10-12T11:23:38Z</time>
      </trkpt>
      <trkpt lat="41.37608" lon="9.32479">
        <ele>-0.34</ele>
        <time>2017-10-12T11:23:49Z</time>
      </trkpt>
      <trkpt lat="41.37571" lon="9.32461">
        <ele>-0.82</ele>
        <time>2017-10-12T11:24:01Z</time>
      </trkpt>
      <trkpt lat="41.37539" lon="9.32443">
        <ele>-1.3</ele>
        <time>2017-10-12T11:24:12Z</time>
      </trkpt>
      <trkpt lat="41.375" lon="9.32422">
        <ele>-0.82</ele>
        <time>2017-10-12T11:24:25Z</time>
      </trkpt>
      <trkpt lat="41.37461" lon="9.32402">
        <ele>-0.34</ele>
        <time>2017-10-12T11:24:38Z</time>
      </trkpt>
      <trkpt lat="41.37413" lon="9.32378">
        <ele>-1.3</ele>
        <time>2017-10-12T11:24:54Z</time>
      </trkpt>
      <trkpt lat="41.37372" lon="9.32355">
        <ele>-0.82</ele>
        <time>2017-10-12T11:25:08Z</time>
      </trkpt>
      <trkpt lat="41.37332" lon="9.32335">
        <ele>-0.82</ele>
        <time>2017-10-12T11:25:21Z</time>
      </trkpt>
      <trkpt lat="41.37295" lon="9.32318">
        <ele>-0.82</ele>
        <time>2017-10-12T11:25:33Z</time>
      </trkpt>
      <trkpt lat="41.3726" lon="9.323">
        <ele>-1.79</ele>
        <time>2017-10-12T11:25:45Z</time>
      </trkpt>
      <trkpt lat="41.37221" lon="9.32277">
        <ele>-1.79</ele>
        <time>2017-10-12T11:25:59Z</time>
      </trkpt>
      <trkpt lat="41.3719" lon="9.32259">
        <ele>-0.82</ele>
        <time>2017-10-12T11:26:10Z</time>
      </trkpt>
      <trkpt lat="41.37147" lon="9.32236">
        <ele>-0.82</ele>
        <time>2017-10-12T11:26:24Z</time>
      </trkpt>
      <trkpt lat="41.37104" lon="9.32214">
        <ele>-0.82</ele>
        <time>2017-10-12T11:26:38Z</time>
      </trkpt>
      <trkpt lat="41.37061" lon="9.32196">
        <ele>-1.79</ele>
        <time>2017-10-12T11:26:51Z</time>
      </trkpt>
      <trkpt lat="41.37025" lon="9.32181">
        <ele>-2.27</ele>
        <time>2017-10-12T11:27:02Z</time>
      </trkpt>
      <trkpt lat="41.36986" lon="9.32163">
        <ele>-1.79</ele>
        <time>2017-10-12T11:27:14Z</time>
      </trkpt>
      <trkpt lat="41.36946" lon="9.32149">
        <ele>-1.3</ele>
        <time>2017-10-12T11:27:26Z</time>
      </trkpt>
      <trkpt lat="41.36912" lon="9.32133">
        <ele>-2.27</ele>
        <time>2017-10-12T11:27:37Z</time>
      </trkpt>
      <trkpt lat="41.36875" lon="9.32113">
        <ele>-2.27</ele>
        <time>2017-10-12T11:27:49Z</time>
      </trkpt>
      <trkpt lat="41.36844" lon="9.321">
        <ele>-2.27</ele>
        <time>2017-10-12T11:27:59Z</time>
      </trkpt>
      <trkpt lat="41.36804" lon="9.32089">
        <ele>-2.75</ele>
        <time>2017-10-12T11:28:11Z</time>
      </trkpt>
      <trkpt lat="41.36768" lon="9.32074">
        <ele>-3.23</ele>
        <time>2017-10-12T11:28:22Z</time>
      </trkpt>
      <trkpt lat="41.36726" lon="9.32054">
        <ele>-2.75</ele>
        <time>2017-10-12T11:28:35Z</time>
      </trkpt>
      <trkpt lat="41.36686" lon="9.32036">
        <ele>-2.27</ele>
        <time>2017-10-12T11:28:47Z</time>
      </trkpt>
      <trkpt lat="41.36638" lon="9.32012">
        <ele>-2.27</ele>
        <time>2017-10-12T11:29:02Z</time>
      </trkpt>
      <trkpt lat="41.36585" lon="9.31985">
        <ele>-1.79</ele>
        <time>2017-10-12T11:29:19Z</time>
      </trkpt>
      <trkpt lat="41.36546" lon="9.31969">
        <ele>-1.79</ele>
        <time>2017-10-12T11:29:31Z</time>
      </trkpt>
      <trkpt lat="41.36513" lon="9.31954">
        <ele>-2.27</ele>
        <time>2017-10-12T11:29:42Z</time>
      </trkpt>
      <trkpt lat="41.36475" lon="9.31938">
        <ele>-1.79</ele>
        <time>2017-10-12T11:29:54Z</time>
      </trkpt>
      <trkpt lat="41.36438" lon="9.31926">
        <ele>-1.79</ele>
        <time>2017-10-12T11:30:05Z</time>
      </trkpt>
      <trkpt lat="41.36395" lon="9.31909">
        <ele>-2.75</ele>
        <time>2017-10-12T11:30:18Z</time>
      </trkpt>
      <trkpt lat="41.36354" lon="9.31893">
        <ele>-1.79</ele>
        <time>2017-10-12T11:30:31Z</time>
      </trkpt>
      <trkpt lat="41.36313" lon="9.31876">
        <ele>-1.79</ele>
        <time>2017-10-12T11:30:44Z</time>
      </trkpt>
      <trkpt lat="41.36271" lon="9.31859">
        <ele>-1.79</ele>
        <time>2017-10-12T11:30:57Z</time>
      </trkpt>
      <trkpt lat="41.36234" lon="9.31849">
        <ele>-1.79</ele>
        <time>2017-10-12T11:31:08Z</time>
      </trkpt>
      <trkpt lat="41.36186" lon="9.31839">
        <ele>-2.27</ele>
        <time>2017-10-12T11:31:22Z</time>
      </trkpt>
      <trkpt lat="41.3614" lon="9.31824">
        <ele>-1.79</ele>
        <time>2017-10-12T11:31:36Z</time>
      </trkpt>
      <trkpt lat="41.36107" lon="9.31818">
        <ele>-2.27</ele>
        <time>2017-10-12T11:31:46Z</time>
      </trkpt>
      <trkpt lat="41.36068" lon="9.31807">
        <ele>-2.27</ele>
        <time>2017-10-12T11:31:58Z</time>
      </trkpt>
      <trkpt lat="41.36032" lon="9.31791">
        <ele>-2.75</ele>
        <time>2017-10-12T11:32:10Z</time>
      </trkpt>
      <trkpt lat="41.35996" lon="9.31781">
        <ele>-2.75</ele>
        <time>2017-10-12T11:32:21Z</time>
      </trkpt>
      <trkpt lat="41.35954" lon="9.31763">
        <ele>-2.27</ele>
        <time>2017-10-12T11:32:34Z</time>
      </trkpt>
      <trkpt lat="41.35915" lon="9.31749">
        <ele>-2.75</ele>
        <time>2017-10-12T11:32:46Z</time>
      </trkpt>
      <trkpt lat="41.35866" lon="9.31732">
        <ele>-1.79</ele>
        <time>2017-10-12T11:33:01Z</time>
      </trkpt>
      <trkpt lat="41.35826" lon="9.31722">
        <ele>-2.27</ele>
        <time>2017-10-12T11:33:13Z</time>
      </trkpt>
      <trkpt lat="41.35791" lon="9.31707">
        <ele>-2.27</ele>
        <time>2017-10-12T11:33:24Z</time>
      </trkpt>
      <trkpt lat="41.35759" lon="9.31695">
        <ele>-2.75</ele>
        <time>2017-10-12T11:33:34Z</time>
      </trkpt>
      <trkpt lat="41.35725" lon="9.31685">
        <ele>-2.75</ele>
        <time>2017-10-12T11:33:45Z</time>
      </trkpt>
      <trkpt lat="41.35684" lon="9.31671">
        <ele>-2.27</ele>
        <time>2017-10-12T11:33:58Z</time>
      </trkpt>
      <trkpt lat="41.35644" lon="9.31656">
        <ele>-2.27</ele>
        <time>2017-10-12T11:34:11Z</time>
      </trkpt>
      <trkpt lat="41.35616" lon="9.31675">
        <ele>-2.27</ele>
        <time>2017-10-12T11:34:20Z</time>
      </trkpt>
      <trkpt lat="41.35583" lon="9.31713">
        <ele>-2.75</ele>
        <time>2017-10-12T11:34:34Z</time>
      </trkpt>
      <trkpt lat="41.35549" lon="9.31742">
        <ele>-2.75</ele>
        <time>2017-10-12T11:34:48Z</time>
      </trkpt>
      <trkpt lat="41.35526" lon="9.31758">
        <ele>-2.75</ele>
        <time>2017-10-12T11:34:58Z</time>
      </trkpt>
      <trkpt lat="41.35495" lon="9.31767">
        <ele>-2.75</ele>
        <time>2017-10-12T11:35:10Z</time>
      </trkpt>
      <trkpt lat="41.35456" lon="9.31781">
        <ele>-3.23</ele>
        <time>2017-10-12T11:35:24Z</time>
      </trkpt>
      <trkpt lat="41.35419" lon="9.3179">
        <ele>-3.71</ele>
        <time>2017-10-12T11:35:37Z</time>
      </trkpt>
      <trkpt lat="41.35383" lon="9.31789">
        <ele>-2.75</ele>
        <time>2017-10-12T11:35:49Z</time>
      </trkpt>
      <trkpt lat="41.35343" lon="9.31784">
        <ele>-2.75</ele>
        <time>2017-10-12T11:36:02Z</time>
      </trkpt>
      <trkpt lat="41.35312" lon="9.3178">
        <ele>-2.75</ele>
        <time>2017-10-12T11:36:13Z</time>
      </trkpt>
      <trkpt lat="41.35277" lon="9.31774">
        <ele>-3.23</ele>
        <time>2017-10-12T11:36:25Z</time>
      </trkpt>
      <trkpt lat="41.35235" lon="9.3176">
        <ele>-2.27</ele>
        <time>2017-10-12T11:36:39Z</time>
      </trkpt>
      <trkpt lat="41.35184" lon="9.31749">
        <ele>-2.75</ele>
        <time>2017-10-12T11:36:54Z</time>
      </trkpt>
      <trkpt lat="41.35133" lon="9.31736">
        <ele>-3.71</ele>
        <time>2017-10-12T11:37:10Z</time>
      </trkpt>
      <trkpt lat="41.35098" lon="9.31726">
        <ele>-1.79</ele>
        <time>2017-10-12T11:37:21Z</time>
      </trkpt>
      <trkpt lat="41.35049" lon="9.31711">
        <ele>-1.3</ele>
        <time>2017-10-12T11:37:36Z</time>
      </trkpt>
      <trkpt lat="41.35008" lon="9.31697">
        <ele>-1.3</ele>
        <time>2017-10-12T11:37:49Z</time>
      </trkpt>
      <trkpt lat="41.34967" lon="9.31679">
        <ele>-1.3</ele>
        <time>2017-10-12T11:38:02Z</time>
      </trkpt>
      <trkpt lat="41.34925" lon="9.31659">
        <ele>-0.82</ele>
        <time>2017-10-12T11:38:16Z</time>
      </trkpt>
      <trkpt lat="41.34883" lon="9.31647">
        <ele>-1.3</ele>
        <time>2017-10-12T11:38:29Z</time>
      </trkpt>
      <trkpt lat="41.34838" lon="9.31636">
        <ele>-1.79</ele>
        <time>2017-10-12T11:38:43Z</time>
      </trkpt>
      <trkpt lat="41.34793" lon="9.31617">
        <ele>-1.79</ele>
        <time>2017-10-12T11:38:58Z</time>
      </trkpt>
      <trkpt lat="41.34748" lon="9.31601">
        <ele>-3.23</ele>
        <time>2017-10-12T11:39:12Z</time>
      </trkpt>
      <trkpt lat="41.34715" lon="9.31591">
        <ele>-3.23</ele>
        <time>2017-10-12T11:39:23Z</time>
      </trkpt>
      <trkpt lat="41.34673" lon="9.31579">
        <ele>-3.23</ele>
        <time>2017-10-12T11:39:37Z</time>
      </trkpt>
      <trkpt lat="41.34632" lon="9.31566">
        <ele>-3.23</ele>
        <time>2017-10-12T11:39:50Z</time>
      </trkpt>
      <trkpt lat="41.34585" lon="9.31545">
        <ele>-2.27</ele>
        <time>2017-10-12T11:40:05Z</time>
      </trkpt>
      <trkpt lat="41.34555" lon="9.31533">
        <ele>-3.23</ele>
        <time>2017-10-12T11:40:15Z</time>
      </trkpt>
      <trkpt lat="41.34514" lon="9.31525">
        <ele>-3.23</ele>
        <time>2017-10-12T11:40:28Z</time>
      </trkpt>
      <trkpt lat="41.34469" lon="9.31511">
        <ele>-4.19</ele>
        <time>2017-10-12T11:40:42Z</time>
      </trkpt>
      <trkpt lat="41.34434" lon="9.315">
        <ele>-4.19</ele>
        <time>2017-10-12T11:40:53Z</time>
      </trkpt>
      <trkpt lat="41.34391" lon="9.31489">
        <ele>-3.71</ele>
        <time>2017-10-12T11:41:06Z</time>
      </trkpt>
      <trkpt lat="41.34347" lon="9.31478">
        <ele>-4.19</ele>
        <time>2017-10-12T11:41:20Z</time>
      </trkpt>
      <trkpt lat="41.34303" lon="9.31468">
        <ele>-5.15</ele>
        <time>2017-10-12T11:41:34Z</time>
      </trkpt>
      <trkpt lat="41.34267" lon="9.31461">
        <ele>-5.63</ele>
        <time>2017-10-12T11:41:45Z</time>
      </trkpt>
      <trkpt lat="41.34229" lon="9.31454">
        <ele>-6.11</ele>
        <time>2017-10-12T11:41:56Z</time>
      </trkpt>
      <trkpt lat="41.34179" lon="9.31444">
        <ele>-5.15</ele>
        <time>2017-10-12T11:42:11Z</time>
      </trkpt>
      <trkpt lat="41.34145" lon="9.31437">
        <ele>-4.19</ele>
        <time>2017-10-12T11:42:21Z</time>
      </trkpt>
      <trkpt lat="41.34105" lon="9.31429">
        <ele>-4.19</ele>
        <time>2017-10-12T11:42:33Z</time>
      </trkpt>
      <trkpt lat="41.34059" lon="9.31419">
        <ele>-4.67</ele>
        <time>2017-10-12T11:42:47Z</time>
      </trkpt>
      <trkpt lat="41.34015" lon="9.31413">
        <ele>-3.71</ele>
        <time>2017-10-12T11:43:00Z</time>
      </trkpt>
      <trkpt lat="41.33975" lon="9.31408">
        <ele>-3.23</ele>
        <time>2017-10-12T11:43:12Z</time>
      </trkpt>
      <trkpt lat="41.33944" lon="9.31402">
        <ele>-2.75</ele>
        <time>2017-10-12T11:43:21Z</time>
      </trkpt>
      <trkpt lat="41.33909" lon="9.31396">
        <ele>-2.75</ele>
        <time>2017-10-12T11:43:31Z</time>
      </trkpt>
      <trkpt lat="41.33881" lon="9.31385">
        <ele>-2.75</ele>
        <time>2017-10-12T11:43:40Z</time>
      </trkpt>
      <trkpt lat="41.33845" lon="9.31377">
        <ele>-2.75</ele>
        <time>2017-10-12T11:43:51Z</time>
      </trkpt>
      <trkpt lat="41.33801" lon="9.31369">
        <ele>-3.23</ele>
        <time>2017-10-12T11:44:04Z</time>
      </trkpt>
      <trkpt lat="41.33759" lon="9.31364">
        <ele>-3.23</ele>
        <time>2017-10-12T11:44:16Z</time>
      </trkpt>
      <trkpt lat="41.33713" lon="9.31358">
        <ele>-4.19</ele>
        <time>2017-10-12T11:44:29Z</time>
      </trkpt>
      <trkpt lat="41.33672" lon="9.31352">
        <ele>-3.23</ele>
        <time>2017-10-12T11:44:41Z</time>
      </trkpt>
      <trkpt lat="41.33628" lon="9.31345">
        <ele>-3.71</ele>
        <time>2017-10-12T11:44:54Z</time>
      </trkpt>
      <trkpt lat="41.33589" lon="9.31338">
        <ele>-2.75</ele>
        <time>2017-10-12T11:45:06Z</time>
      </trkpt>
      <trkpt lat="41.33553" lon="9.31332">
        <ele>-2.75</ele>
        <time>2017-10-12T11:45:17Z</time>
      </trkpt>
      <trkpt lat="41.33502" lon="9.31321">
        <ele>-3.23</ele>
        <time>2017-10-12T11:45:32Z</time>
      </trkpt>
      <trkpt lat="41.33449" lon="9.31308">
        <ele>-3.71</ele>
        <time>2017-10-12T11:45:48Z</time>
      </trkpt>
      <trkpt lat="41.33408" lon="9.313">
        <ele>-4.19</ele>
        <time>2017-10-12T11:46:00Z</time>
      </trkpt>
      <trkpt lat="41.33364" lon="9.31294">
        <ele>-3.23</ele>
        <time>2017-10-12T11:46:13Z</time>
      </trkpt>
      <trkpt lat="41.33326" lon="9.31289">
        <ele>-2.75</ele>
        <time>2017-10-12T11:46:24Z</time>
      </trkpt>
      <trkpt lat="41.33288" lon="9.31285">
        <ele>-2.27</ele>
        <time>2017-10-12T11:46:35Z</time>
      </trkpt>
      <trkpt lat="41.3326" lon="9.31282">
        <ele>-1.79</ele>
        <time>2017-10-12T11:46:43Z</time>
      </trkpt>
      <trkpt lat="41.33251" lon="9.3128">
        <ele>-1.3</ele>
        <time>2017-10-12T11:46:46Z</time>
      </trkpt>
      <trkpt lat="41.33217" lon="9.31272">
        <ele>-2.27</ele>
        <time>2017-10-12T11:46:56Z</time>
      </trkpt>
      <trkpt lat="41.33177" lon="9.31266">
        <ele>-2.27</ele>
        <time>2017-10-12T11:47:08Z</time>
      </trkpt>
      <trkpt lat="41.33136" lon="9.31258">
        <ele>-1.79</ele>
        <time>2017-10-12T11:47:20Z</time>
      </trkpt>
      <trkpt lat="41.33093" lon="9.31248">
        <ele>-2.75</ele>
        <time>2017-10-12T11:47:33Z</time>
      </trkpt>
      <trkpt lat="41.33044" lon="9.3124">
        <ele>-3.71</ele>
        <time>2017-10-12T11:47:47Z</time>
      </trkpt>
      <trkpt lat="41.33" lon="9.31232">
        <ele>-3.71</ele>
        <time>2017-10-12T11:48:00Z</time>
      </trkpt>
      <trkpt lat="41.32953" lon="9.3122">
        <ele>-4.67</ele>
        <time>2017-10-12T11:48:14Z</time>
      </trkpt>
      <trkpt lat="41.32908" lon="9.31216">
        <ele>-3.71</ele>
        <time>2017-10-12T11:48:27Z</time>
      </trkpt>
      <trkpt lat="41.32869" lon="9.31218">
        <ele>-3.23</ele>
        <time>2017-10-12T11:48:38Z</time>
      </trkpt>
      <trkpt lat="41.32829" lon="9.31214">
        <ele>-3.23</ele>
        <time>2017-10-12T11:48:50Z</time>
      </trkpt>
      <trkpt lat="41.32794" lon="9.31211">
        <ele>-2.27</ele>
        <time>2017-10-12T11:49:00Z</time>
      </trkpt>
      <trkpt lat="41.32753" lon="9.31206">
        <ele>-1.79</ele>
        <time>2017-10-12T11:49:12Z</time>
      </trkpt>
      <trkpt lat="41.32705" lon="9.31198">
        <ele>-1.79</ele>
        <time>2017-10-12T11:49:26Z</time>
      </trkpt>
      <trkpt lat="41.3266" lon="9.31193">
        <ele>-3.23</ele>
        <time>2017-10-12T11:49:39Z</time>
      </trkpt>
      <trkpt lat="41.32622" lon="9.31186">
        <ele>-4.19</ele>
        <time>2017-10-12T11:49:50Z</time>
      </trkpt>
      <trkpt lat="41.32583" lon="9.31174">
        <ele>-3.71</ele>
        <time>2017-10-12T11:50:02Z</time>
      </trkpt>
      <trkpt lat="41.32549" lon="9.3117">
        <ele>-3.23</ele>
        <time>2017-10-12T11:50:12Z</time>
      </trkpt>
      <trkpt lat="41.32501" lon="9.31168">
        <ele>-3.71</ele>
        <time>2017-10-12T11:50:26Z</time>
      </trkpt>
      <trkpt lat="41.32464" lon="9.31163">
        <ele>-2.27</ele>
        <time>2017-10-12T11:50:37Z</time>
      </trkpt>
      <trkpt lat="41.3242" lon="9.31161">
        <ele>-1.3</ele>
        <time>2017-10-12T11:50:50Z</time>
      </trkpt>
      <trkpt lat="41.32378" lon="9.31157">
        <ele>-1.3</ele>
        <time>2017-10-12T11:51:02Z</time>
      </trkpt>
      <trkpt lat="41.32337" lon="9.31152">
        <ele>-0.34</ele>
        <time>2017-10-12T11:51:14Z</time>
      </trkpt>
      <trkpt lat="41.32303" lon="9.31151">
        <ele>0.14</ele>
        <time>2017-10-12T11:51:24Z</time>
      </trkpt>
      <trkpt lat="41.3226" lon="9.31147">
        <ele>-0.34</ele>
        <time>2017-10-12T11:51:37Z</time>
      </trkpt>
      <trkpt lat="41.32215" lon="9.31147">
        <ele>-1.3</ele>
        <time>2017-10-12T11:51:50Z</time>
      </trkpt>
      <trkpt lat="41.32182" lon="9.31143">
        <ele>-1.79</ele>
        <time>2017-10-12T11:52:00Z</time>
      </trkpt>
      <trkpt lat="41.32144" lon="9.31137">
        <ele>-1.79</ele>
        <time>2017-10-12T11:52:11Z</time>
      </trkpt>
      <trkpt lat="41.3211" lon="9.31139">
        <ele>-1.3</ele>
        <time>2017-10-12T11:52:21Z</time>
      </trkpt>
      <trkpt lat="41.32068" lon="9.31142">
        <ele>-1.3</ele>
        <time>2017-10-12T11:52:33Z</time>
      </trkpt>
      <trkpt lat="41.32025" lon="9.31145">
        <ele>-1.3</ele>
        <time>2017-10-12T11:52:46Z</time>
      </trkpt>
      <trkpt lat="41.3198" lon="9.31147">
        <ele>-1.79</ele>
        <time>2017-10-12T11:52:59Z</time>
      </trkpt>
      <trkpt lat="41.31946" lon="9.31142">
        <ele>-1.3</ele>
        <time>2017-10-12T11:53:09Z</time>
      </trkpt>
      <trkpt lat="41.31914" lon="9.31138">
        <ele>-2.27</ele>
        <time>2017-10-12T11:53:18Z</time>
      </trkpt>
      <trkpt lat="41.31878" lon="9.31141">
        <ele>-2.27</ele>
        <time>2017-10-12T11:53:28Z</time>
      </trkpt>
      <trkpt lat="41.3184" lon="9.31139">
        <ele>-1.79</ele>
        <time>2017-10-12T11:53:39Z</time>
      </trkpt>
      <trkpt lat="41.31809" lon="9.31139">
        <ele>-2.27</ele>
        <time>2017-10-12T11:53:48Z</time>
      </trkpt>
      <trkpt lat="41.31794" lon="9.3114">
        <ele>-2.75</ele>
        <time>2017-10-12T11:53:52Z</time>
      </trkpt>
      <trkpt lat="41.31749" lon="9.31155">
        <ele>-2.75</ele>
        <time>2017-10-12T11:54:05Z</time>
      </trkpt>
      <trkpt lat="41.3173" lon="9.31164">
        <ele>-2.27</ele>
        <time>2017-10-12T11:54:11Z</time>
      </trkpt>
      <trkpt lat="41.31696" lon="9.31178">
        <ele>-2.27</ele>
        <time>2017-10-12T11:54:22Z</time>
      </trkpt>
      <trkpt lat="41.31651" lon="9.31202">
        <ele>-1.3</ele>
        <time>2017-10-12T11:54:37Z</time>
      </trkpt>
      <trkpt lat="41.31621" lon="9.31216">
        <ele>-0.82</ele>
        <time>2017-10-12T11:54:47Z</time>
      </trkpt>
      <trkpt lat="41.31592" lon="9.31234">
        <ele>-0.82</ele>
        <time>2017-10-12T11:54:57Z</time>
      </trkpt>
      <trkpt lat="41.31556" lon="9.31255">
        <ele>-0.34</ele>
        <time>2017-10-12T11:55:09Z</time>
      </trkpt>
      <trkpt lat="41.31512" lon="9.31274">
        <ele>-0.34</ele>
        <time>2017-10-12T11:55:23Z</time>
      </trkpt>
      <trkpt lat="41.31471" lon="9.31291">
        <ele>-0.34</ele>
        <time>2017-10-12T11:55:36Z</time>
      </trkpt>
      <trkpt lat="41.31429" lon="9.31313">
        <ele>0.14</ele>
        <time>2017-10-12T11:55:50Z</time>
      </trkpt>
      <trkpt lat="41.3139" lon="9.31328">
        <ele>0.14</ele>
        <time>2017-10-12T11:56:02Z</time>
      </trkpt>
      <trkpt lat="41.31349" lon="9.31351">
        <ele>0.14</ele>
        <time>2017-10-12T11:56:15Z</time>
      </trkpt>
      <trkpt lat="41.31321" lon="9.31364">
        <ele>0.62</ele>
        <time>2017-10-12T11:56:24Z</time>
      </trkpt>
      <trkpt lat="41.31287" lon="9.31378">
        <ele>-0.82</ele>
        <time>2017-10-12T11:56:35Z</time>
      </trkpt>
      <trkpt lat="41.31248" lon="9.31394">
        <ele>-1.3</ele>
        <time>2017-10-12T11:56:47Z</time>
      </trkpt>
      <trkpt lat="41.31219" lon="9.31404">
        <ele>-0.82</ele>
        <time>2017-10-12T11:56:56Z</time>
      </trkpt>
      <trkpt lat="41.31191" lon="9.3142">
        <ele>-0.34</ele>
        <time>2017-10-12T11:57:05Z</time>
      </trkpt>
      <trkpt lat="41.31154" lon="9.31438">
        <ele>-0.82</ele>
        <time>2017-10-12T11:57:17Z</time>
      </trkpt>
      <trkpt lat="41.31133" lon="9.31448">
        <ele>-0.34</ele>
        <time>2017-10-12T11:57:24Z</time>
      </trkpt>
      <trkpt lat="41.31117" lon="9.31455">
        <ele>0.14</ele>
        <time>2017-10-12T11:57:29Z</time>
      </trkpt>
      <trkpt lat="41.31079" lon="9.3147">
        <ele>1.1</ele>
        <time>2017-10-12T11:57:41Z</time>
      </trkpt>
      <trkpt lat="41.31038" lon="9.31484">
        <ele>1.1</ele>
        <time>2017-10-12T11:57:54Z</time>
      </trkpt>
      <trkpt lat="41.31005" lon="9.31493">
        <ele>0.62</ele>
        <time>2017-10-12T11:58:04Z</time>
      </trkpt>
      <trkpt lat="41.30969" lon="9.31507">
        <ele>0.14</ele>
        <time>2017-10-12T11:58:15Z</time>
      </trkpt>
      <trkpt lat="41.30936" lon="9.31522">
        <ele>0.14</ele>
        <time>2017-10-12T11:58:25Z</time>
      </trkpt>
      <trkpt lat="41.30916" lon="9.31534">
        <ele>0.14</ele>
        <time>2017-10-12T11:58:32Z</time>
      </trkpt>
      <trkpt lat="41.30908" lon="9.31542">
        <ele>0.62</ele>
        <time>2017-10-12T11:58:35Z</time>
      </trkpt>
      <trkpt lat="41.30895" lon="9.31544">
        <ele>1.1</ele>
        <time>2017-10-12T11:58:39Z</time>
      </trkpt>
      <trkpt lat="41.30854" lon="9.31564">
        <ele>0.14</ele>
        <time>2017-10-12T11:58:53Z</time>
      </trkpt>
      <trkpt lat="41.30828" lon="9.31577">
        <ele>0.14</ele>
        <time>2017-10-12T11:59:02Z</time>
      </trkpt>
      <trkpt lat="41.3079" lon="9.3159">
        <ele>-1.3</ele>
        <time>2017-10-12T11:59:14Z</time>
      </trkpt>
      <trkpt lat="41.30765" lon="9.316">
        <ele>-0.34</ele>
        <time>2017-10-12T11:59:22Z</time>
      </trkpt>
      <trkpt lat="41.30739" lon="9.31605">
        <ele>-0.34</ele>
        <time>2017-10-12T11:59:30Z</time>
      </trkpt>
      <trkpt lat="41.30727" lon="9.3161">
        <ele>-0.34</ele>
        <time>2017-10-12T11:59:34Z</time>
      </trkpt>
      <trkpt lat="41.30693" lon="9.31625">
        <ele>-0.34</ele>
        <time>2017-10-12T11:59:45Z</time>
      </trkpt>
      <trkpt lat="41.30663" lon="9.31638">
        <ele>-0.34</ele>
        <time>2017-10-12T11:59:55Z</time>
      </trkpt>
      <trkpt lat="41.30635" lon="9.31647">
        <ele>0.14</ele>
        <time>2017-10-12T12:00:04Z</time>
      </trkpt>
      <trkpt lat="41.30632" lon="9.31648">
        <ele>0.14</ele>
        <time>2017-10-12T12:00:05Z</time>
      </trkpt>
      <trkpt lat="41.30605" lon="9.31654">
        <ele>0.62</ele>
        <time>2017-10-12T12:00:13Z</time>
      </trkpt>
      <trkpt lat="41.30567" lon="9.31658">
        <ele>-0.34</ele>
        <time>2017-10-12T12:00:25Z</time>
      </trkpt>
      <trkpt lat="41.30534" lon="9.31673">
        <ele>-0.34</ele>
        <time>2017-10-12T12:00:36Z</time>
      </trkpt>
      <trkpt lat="41.30511" lon="9.31684">
        <ele>0.62</ele>
        <time>2017-10-12T12:00:44Z</time>
      </trkpt>
      <trkpt lat="41.30475" lon="9.31692">
        <ele>0.62</ele>
        <time>2017-10-12T12:00:55Z</time>
      </trkpt>
      <trkpt lat="41.30442" lon="9.31702">
        <ele>-0.34</ele>
        <time>2017-10-12T12:01:05Z</time>
      </trkpt>
      <trkpt lat="41.30408" lon="9.31715">
        <ele>-1.3</ele>
        <time>2017-10-12T12:01:16Z</time>
      </trkpt>
      <trkpt lat="41.30393" lon="9.31724">
        <ele>-1.3</ele>
        <time>2017-10-12T12:01:21Z</time>
      </trkpt>
      <trkpt lat="41.30351" lon="9.31741">
        <ele>-0.82</ele>
        <time>2017-10-12T12:01:34Z</time>
      </trkpt>
      <trkpt lat="41.30323" lon="9.31753">
        <ele>-0.82</ele>
        <time>2017-10-12T12:01:43Z</time>
      </trkpt>
      <trkpt lat="41.3032" lon="9.31754">
        <ele>-0.82</ele>
        <time>2017-10-12T12:01:44Z</time>
      </trkpt>
      <trkpt lat="41.30288" lon="9.31766">
        <ele>-1.79</ele>
        <time>2017-10-12T12:01:54Z</time>
      </trkpt>
      <trkpt lat="41.30259" lon="9.31781">
        <ele>-1.79</ele>
        <time>2017-10-12T12:02:04Z</time>
      </trkpt>
      <trkpt lat="41.30257" lon="9.31784">
        <ele>-1.79</ele>
        <time>2017-10-12T12:02:05Z</time>
      </trkpt>
      <trkpt lat="41.3025" lon="9.31786">
        <ele>-2.75</ele>
        <time>2017-10-12T12:02:07Z</time>
      </trkpt>
      <trkpt lat="41.30238" lon="9.31789">
        <ele>-4.19</ele>
        <time>2017-10-12T12:02:11Z</time>
      </trkpt>
      <trkpt lat="41.30225" lon="9.31794">
        <ele>-4.67</ele>
        <time>2017-10-12T12:02:15Z</time>
      </trkpt>
      <trkpt lat="41.30194" lon="9.31804">
        <ele>-3.23</ele>
        <time>2017-10-12T12:02:25Z</time>
      </trkpt>
      <trkpt lat="41.30159" lon="9.31816">
        <ele>-3.23</ele>
        <time>2017-10-12T12:02:36Z</time>
      </trkpt>
      <trkpt lat="41.30119" lon="9.31834">
        <ele>-1.79</ele>
        <time>2017-10-12T12:02:49Z</time>
      </trkpt>
      <trkpt lat="41.3011" lon="9.31839">
        <ele>-1.79</ele>
        <time>2017-10-12T12:02:52Z</time>
      </trkpt>
      <trkpt lat="41.30092" lon="9.31844">
        <ele>-1.79</ele>
        <time>2017-10-12T12:02:58Z</time>
      </trkpt>
      <trkpt lat="41.30086" lon="9.31845">
        <ele>-1.79</ele>
        <time>2017-10-12T12:03:00Z</time>
      </trkpt>
      <trkpt lat="41.30061" lon="9.31854">
        <ele>-1.3</ele>
        <time>2017-10-12T12:03:08Z</time>
      </trkpt>
      <trkpt lat="41.3004" lon="9.31863">
        <ele>-0.82</ele>
        <time>2017-10-12T12:03:15Z</time>
      </trkpt>
      <trkpt lat="41.30024" lon="9.31869">
        <ele>-0.82</ele>
        <time>2017-10-12T12:03:20Z</time>
      </trkpt>
      <trkpt lat="41.29989" lon="9.31877">
        <ele>-0.34</ele>
        <time>2017-10-12T12:03:31Z</time>
      </trkpt>
      <trkpt lat="41.29951" lon="9.31893">
        <ele>-0.34</ele>
        <time>2017-10-12T12:03:44Z</time>
      </trkpt>
      <trkpt lat="41.2992" lon="9.31901">
        <ele>-0.34</ele>
        <time>2017-10-12T12:03:54Z</time>
      </trkpt>
      <trkpt lat="41.29886" lon="9.31907">
        <ele>-0.34</ele>
        <time>2017-10-12T12:04:04Z</time>
      </trkpt>
      <trkpt lat="41.29855" lon="9.31915">
        <ele>-1.3</ele>
        <time>2017-10-12T12:04:14Z</time>
      </trkpt>
      <trkpt lat="41.29819" lon="9.31926">
        <ele>-0.82</ele>
        <time>2017-10-12T12:04:25Z</time>
      </trkpt>
      <trkpt lat="41.29779" lon="9.31938">
        <ele>-0.82</ele>
        <time>2017-10-12T12:04:37Z</time>
      </trkpt>
      <trkpt lat="41.29745" lon="9.3195">
        <ele>-1.3</ele>
        <time>2017-10-12T12:04:48Z</time>
      </trkpt>
      <trkpt lat="41.2971" lon="9.31959">
        <ele>-1.3</ele>
        <time>2017-10-12T12:04:59Z</time>
      </trkpt>
      <trkpt lat="41.29675" lon="9.31968">
        <ele>-1.3</ele>
        <time>2017-10-12T12:05:10Z</time>
      </trkpt>
      <trkpt lat="41.29648" lon="9.31975">
        <ele>-0.82</ele>
        <time>2017-10-12T12:05:18Z</time>
      </trkpt>
      <trkpt lat="41.29621" lon="9.3198">
        <ele>-1.79</ele>
        <time>2017-10-12T12:05:26Z</time>
      </trkpt>
      <trkpt lat="41.29592" lon="9.31991">
        <ele>-1.79</ele>
        <time>2017-10-12T12:05:35Z</time>
      </trkpt>
      <trkpt lat="41.29555" lon="9.31997">
        <ele>-1.79</ele>
        <time>2017-10-12T12:05:46Z</time>
      </trkpt>
      <trkpt lat="41.29514" lon="9.32015">
        <ele>-1.79</ele>
        <time>2017-10-12T12:05:59Z</time>
      </trkpt>
      <trkpt lat="41.29479" lon="9.3203">
        <ele>-0.82</ele>
        <time>2017-10-12T12:06:10Z</time>
      </trkpt>
      <trkpt lat="41.29445" lon="9.32055">
        <ele>-0.34</ele>
        <time>2017-10-12T12:06:22Z</time>
      </trkpt>
      <trkpt lat="41.29412" lon="9.32077">
        <ele>-1.3</ele>
        <time>2017-10-12T12:06:33Z</time>
      </trkpt>
      <trkpt lat="41.29395" lon="9.32091">
        <ele>-1.3</ele>
        <time>2017-10-12T12:06:39Z</time>
      </trkpt>
      <trkpt lat="41.29366" lon="9.32117">
        <ele>0.14</ele>
        <time>2017-10-12T12:06:49Z</time>
      </trkpt>
      <trkpt lat="41.29355" lon="9.32128">
        <ele>0.14</ele>
        <time>2017-10-12T12:06:53Z</time>
      </trkpt>
      <trkpt lat="41.29338" lon="9.3214">
        <ele>0.62</ele>
        <time>2017-10-12T12:06:59Z</time>
      </trkpt>
      <trkpt lat="41.29304" lon="9.32164">
        <ele>-0.34</ele>
        <time>2017-10-12T12:07:11Z</time>
      </trkpt>
      <trkpt lat="41.29274" lon="9.32185">
        <ele>-0.82</ele>
        <time>2017-10-12T12:07:21Z</time>
      </trkpt>
      <trkpt lat="41.29237" lon="9.32208">
        <ele>-0.34</ele>
        <time>2017-10-12T12:07:33Z</time>
      </trkpt>
      <trkpt lat="41.29198" lon="9.32234">
        <ele>-0.82</ele>
        <time>2017-10-12T12:07:46Z</time>
      </trkpt>
      <trkpt lat="41.29161" lon="9.32264">
        <ele>-0.82</ele>
        <time>2017-10-12T12:08:00Z</time>
      </trkpt>
      <trkpt lat="41.29124" lon="9.3229">
        <ele>-0.82</ele>
        <time>2017-10-12T12:08:13Z</time>
      </trkpt>
      <trkpt lat="41.29088" lon="9.32316">
        <ele>-1.3</ele>
        <time>2017-10-12T12:08:26Z</time>
      </trkpt>
      <trkpt lat="41.29049" lon="9.32348">
        <ele>-0.82</ele>
        <time>2017-10-12T12:08:41Z</time>
      </trkpt>
      <trkpt lat="41.29013" lon="9.32378">
        <ele>-0.34</ele>
        <time>2017-10-12T12:08:55Z</time>
      </trkpt>
      <trkpt lat="41.28973" lon="9.32406">
        <ele>-0.82</ele>
        <time>2017-10-12T12:09:09Z</time>
      </trkpt>
      <trkpt lat="41.28944" lon="9.32426">
        <ele>-1.3</ele>
        <time>2017-10-12T12:09:19Z</time>
      </trkpt>
      <trkpt lat="41.28916" lon="9.32441">
        <ele>0.14</ele>
        <time>2017-10-12T12:09:30Z</time>
      </trkpt>
      <trkpt lat="41.28886" lon="9.32458">
        <ele>-0.34</ele>
        <time>2017-10-12T12:09:40Z</time>
      </trkpt>
      <trkpt lat="41.28882" lon="9.32458">
        <ele>-0.34</ele>
        <time>2017-10-12T12:09:41Z</time>
      </trkpt>
      <trkpt lat="41.28853" lon="9.32471">
        <ele>-0.34</ele>
        <time>2017-10-12T12:09:50Z</time>
      </trkpt>
      <trkpt lat="41.28815" lon="9.32496">
        <ele>-1.3</ele>
        <time>2017-10-12T12:10:03Z</time>
      </trkpt>
      <trkpt lat="41.2879" lon="9.32517">
        <ele>-0.34</ele>
        <time>2017-10-12T12:10:12Z</time>
      </trkpt>
      <trkpt lat="41.28744" lon="9.32534">
        <ele>-0.82</ele>
        <time>2017-10-12T12:10:26Z</time>
      </trkpt>
      <trkpt lat="41.28708" lon="9.32554">
        <ele>-1.3</ele>
        <time>2017-10-12T12:10:38Z</time>
      </trkpt>
      <trkpt lat="41.28673" lon="9.32577">
        <ele>-1.3</ele>
        <time>2017-10-12T12:10:50Z</time>
      </trkpt>
      <trkpt lat="41.28641" lon="9.32598">
        <ele>-1.3</ele>
        <time>2017-10-12T12:11:01Z</time>
      </trkpt>
      <trkpt lat="41.28609" lon="9.32619">
        <ele>-1.3</ele>
        <time>2017-10-12T12:11:12Z</time>
      </trkpt>
      <trkpt lat="41.28581" lon="9.3264">
        <ele>-1.3</ele>
        <time>2017-10-12T12:11:22Z</time>
      </trkpt>
      <trkpt lat="41.28543" lon="9.32673">
        <ele>-0.82</ele>
        <time>2017-10-12T12:11:36Z</time>
      </trkpt>
      <trkpt lat="41.28505" lon="9.32702">
        <ele>-0.34</ele>
        <time>2017-10-12T12:11:50Z</time>
      </trkpt>
      <trkpt lat="41.28476" lon="9.32729">
        <ele>-0.82</ele>
        <time>2017-10-12T12:12:02Z</time>
      </trkpt>
      <trkpt lat="41.28453" lon="9.32747">
        <ele>-2.27</ele>
        <time>2017-10-12T12:12:11Z</time>
      </trkpt>
      <trkpt lat="41.28428" lon="9.32769">
        <ele>-2.75</ele>
        <time>2017-10-12T12:12:22Z</time>
      </trkpt>
      <trkpt lat="41.28397" lon="9.32788">
        <ele>-2.75</ele>
        <time>2017-10-12T12:12:34Z</time>
      </trkpt>
      <trkpt lat="41.2837" lon="9.32803">
        <ele>-2.75</ele>
        <time>2017-10-12T12:12:44Z</time>
      </trkpt>
      <trkpt lat="41.28345" lon="9.32818">
        <ele>-2.75</ele>
        <time>2017-10-12T12:12:53Z</time>
      </trkpt>
      <trkpt lat="41.28318" lon="9.32836">
        <ele>-2.27</ele>
        <time>2017-10-12T12:13:03Z</time>
      </trkpt>
      <trkpt lat="41.28287" lon="9.32854">
        <ele>-1.79</ele>
        <time>2017-10-12T12:13:14Z</time>
      </trkpt>
      <trkpt lat="41.28251" lon="9.3288">
        <ele>-1.3</ele>
        <time>2017-10-12T12:13:27Z</time>
      </trkpt>
      <trkpt lat="41.28219" lon="9.32907">
        <ele>-1.3</ele>
        <time>2017-10-12T12:13:40Z</time>
      </trkpt>
      <trkpt lat="41.28193" lon="9.32923">
        <ele>-2.27</ele>
        <time>2017-10-12T12:13:50Z</time>
      </trkpt>
      <trkpt lat="41.28165" lon="9.32949">
        <ele>-1.79</ele>
        <time>2017-10-12T12:14:01Z</time>
      </trkpt>
      <trkpt lat="41.28137" lon="9.32978">
        <ele>-1.79</ele>
        <time>2017-10-12T12:14:12Z</time>
      </trkpt>
      <trkpt lat="41.28113" lon="9.33009">
        <ele>-1.79</ele>
        <time>2017-10-12T12:14:23Z</time>
      </trkpt>
      <trkpt lat="41.2809" lon="9.33037">
        <ele>-0.82</ele>
        <time>2017-10-12T12:14:33Z</time>
      </trkpt>
      <trkpt lat="41.28063" lon="9.3306">
        <ele>-1.79</ele>
        <time>2017-10-12T12:14:43Z</time>
      </trkpt>
      <trkpt lat="41.28039" lon="9.33083">
        <ele>-2.27</ele>
        <time>2017-10-12T12:14:53Z</time>
      </trkpt>
      <trkpt lat="41.28009" lon="9.33112">
        <ele>-1.79</ele>
        <time>2017-10-12T12:15:06Z</time>
      </trkpt>
      <trkpt lat="41.27982" lon="9.3314">
        <ele>-1.79</ele>
        <time>2017-10-12T12:15:17Z</time>
      </trkpt>
      <trkpt lat="41.27959" lon="9.33174">
        <ele>-1.79</ele>
        <time>2017-10-12T12:15:29Z</time>
      </trkpt>
      <trkpt lat="41.27935" lon="9.33203">
        <ele>-1.79</ele>
        <time>2017-10-12T12:15:40Z</time>
      </trkpt>
      <trkpt lat="41.27916" lon="9.33239">
        <ele>-1.3</ele>
        <time>2017-10-12T12:15:52Z</time>
      </trkpt>
      <trkpt lat="41.27898" lon="9.33276">
        <ele>-1.3</ele>
        <time>2017-10-12T12:16:04Z</time>
      </trkpt>
      <trkpt lat="41.27872" lon="9.33307">
        <ele>-1.79</ele>
        <time>2017-10-12T12:16:16Z</time>
      </trkpt>
      <trkpt lat="41.27849" lon="9.33343">
        <ele>-1.79</ele>
        <time>2017-10-12T12:16:28Z</time>
      </trkpt>
      <trkpt lat="41.27825" lon="9.33383">
        <ele>-1.3</ele>
        <time>2017-10-12T12:16:42Z</time>
      </trkpt>
      <trkpt lat="41.27807" lon="9.33424">
        <ele>-1.79</ele>
        <time>2017-10-12T12:16:56Z</time>
      </trkpt>
      <trkpt lat="41.27791" lon="9.33454">
        <ele>-2.27</ele>
        <time>2017-10-12T12:17:07Z</time>
      </trkpt>
      <trkpt lat="41.27773" lon="9.33495">
        <ele>-2.75</ele>
        <time>2017-10-12T12:17:21Z</time>
      </trkpt>
      <trkpt lat="41.27753" lon="9.33538">
        <ele>-2.75</ele>
        <time>2017-10-12T12:17:36Z</time>
      </trkpt>
      <trkpt lat="41.27733" lon="9.33576">
        <ele>-2.75</ele>
        <time>2017-10-12T12:17:49Z</time>
      </trkpt>
      <trkpt lat="41.27718" lon="9.33608">
        <ele>-2.75</ele>
        <time>2017-10-12T12:18:00Z</time>
      </trkpt>
      <trkpt lat="41.27696" lon="9.33641">
        <ele>-2.75</ele>
        <time>2017-10-12T12:18:11Z</time>
      </trkpt>
      <trkpt lat="41.27675" lon="9.3368">
        <ele>-2.75</ele>
        <time>2017-10-12T12:18:24Z</time>
      </trkpt>
      <trkpt lat="41.27652" lon="9.33725">
        <ele>-2.75</ele>
        <time>2017-10-12T12:18:38Z</time>
      </trkpt>
      <trkpt lat="41.27632" lon="9.33765">
        <ele>-2.27</ele>
        <time>2017-10-12T12:18:51Z</time>
      </trkpt>
      <trkpt lat="41.27609" lon="9.33807">
        <ele>-1.79</ele>
        <time>2017-10-12T12:19:05Z</time>
      </trkpt>
      <trkpt lat="41.27587" lon="9.33845">
        <ele>-1.3</ele>
        <time>2017-10-12T12:19:18Z</time>
      </trkpt>
      <trkpt lat="41.27562" lon="9.33886">
        <ele>-1.3</ele>
        <time>2017-10-12T12:19:32Z</time>
      </trkpt>
      <trkpt lat="41.27536" lon="9.33931">
        <ele>-1.3</ele>
        <time>2017-10-12T12:19:47Z</time>
      </trkpt>
      <trkpt lat="41.27514" lon="9.33977">
        <ele>-0.82</ele>
        <time>2017-10-12T12:20:02Z</time>
      </trkpt>
      <trkpt lat="41.27493" lon="9.34017">
        <ele>-1.3</ele>
        <time>2017-10-12T12:20:16Z</time>
      </trkpt>
      <trkpt lat="41.27472" lon="9.34059">
        <ele>-1.79</ele>
        <time>2017-10-12T12:20:30Z</time>
      </trkpt>
      <trkpt lat="41.2745" lon="9.34121">
        <ele>-1.3</ele>
        <time>2017-10-12T12:20:48Z</time>
      </trkpt>
      <trkpt lat="41.27433" lon="9.34182">
        <ele>-2.27</ele>
        <time>2017-10-12T12:21:06Z</time>
      </trkpt>
      <trkpt lat="41.27416" lon="9.34234">
        <ele>-2.75</ele>
        <time>2017-10-12T12:21:22Z</time>
      </trkpt>
      <trkpt lat="41.27398" lon="9.34282">
        <ele>-1.79</ele>
        <time>2017-10-12T12:21:37Z</time>
      </trkpt>
      <trkpt lat="41.27382" lon="9.34325">
        <ele>-1.79</ele>
        <time>2017-10-12T12:21:50Z</time>
      </trkpt>
      <trkpt lat="41.27366" lon="9.3438">
        <ele>-2.75</ele>
        <time>2017-10-12T12:22:06Z</time>
      </trkpt>
      <trkpt lat="41.2735" lon="9.34423">
        <ele>-2.75</ele>
        <time>2017-10-12T12:22:19Z</time>
      </trkpt>
      <trkpt lat="41.2733" lon="9.34462">
        <ele>-2.27</ele>
        <time>2017-10-12T12:22:32Z</time>
      </trkpt>
      <trkpt lat="41.27312" lon="9.3451">
        <ele>-2.27</ele>
        <time>2017-10-12T12:22:46Z</time>
      </trkpt>
      <trkpt lat="41.27296" lon="9.34552">
        <ele>-0.82</ele>
        <time>2017-10-12T12:22:58Z</time>
      </trkpt>
      <trkpt lat="41.27285" lon="9.34601">
        <ele>-1.79</ele>
        <time>2017-10-12T12:23:12Z</time>
      </trkpt>
      <trkpt lat="41.27269" lon="9.34662">
        <ele>-2.27</ele>
        <time>2017-10-12T12:23:31Z</time>
      </trkpt>
      <trkpt lat="41.27256" lon="9.34709">
        <ele>-2.75</ele>
        <time>2017-10-12T12:23:46Z</time>
      </trkpt>
      <trkpt lat="41.27241" lon="9.34752">
        <ele>-2.27</ele>
        <time>2017-10-12T12:24:00Z</time>
      </trkpt>
      <trkpt lat="41.2723" lon="9.34785">
        <ele>-2.27</ele>
        <time>2017-10-12T12:24:11Z</time>
      </trkpt>
      <trkpt lat="41.27216" lon="9.34832">
        <ele>-2.27</ele>
        <time>2017-10-12T12:24:26Z</time>
      </trkpt>
      <trkpt lat="41.27203" lon="9.3487">
        <ele>-1.79</ele>
        <time>2017-10-12T12:24:39Z</time>
      </trkpt>
      <trkpt lat="41.2719" lon="9.34917">
        <ele>-2.27</ele>
        <time>2017-10-12T12:24:54Z</time>
      </trkpt>
      <trkpt lat="41.27177" lon="9.34958">
        <ele>-1.79</ele>
        <time>2017-10-12T12:25:07Z</time>
      </trkpt>
      <trkpt lat="41.27168" lon="9.34987">
        <ele>-1.79</ele>
        <time>2017-10-12T12:25:17Z</time>
      </trkpt>
      <trkpt lat="41.27159" lon="9.35024">
        <ele>-1.3</ele>
        <time>2017-10-12T12:25:30Z</time>
      </trkpt>
      <trkpt lat="41.27152" lon="9.35064">
        <ele>-1.3</ele>
        <time>2017-10-12T12:25:44Z</time>
      </trkpt>
      <trkpt lat="41.27137" lon="9.35111">
        <ele>-2.27</ele>
        <time>2017-10-12T12:26:00Z</time>
      </trkpt>
      <trkpt lat="41.27118" lon="9.35162">
        <ele>-2.75</ele>
        <time>2017-10-12T12:26:17Z</time>
      </trkpt>
      <trkpt lat="41.27101" lon="9.35198">
        <ele>-2.75</ele>
        <time>2017-10-12T12:26:29Z</time>
      </trkpt>
      <trkpt lat="41.2709" lon="9.35237">
        <ele>-2.75</ele>
        <time>2017-10-12T12:26:42Z</time>
      </trkpt>
      <trkpt lat="41.27061" lon="9.35243">
        <ele>-2.27</ele>
        <time>2017-10-12T12:26:56Z</time>
      </trkpt>
      <trkpt lat="41.27054" lon="9.35243">
        <ele>-2.27</ele>
        <time>2017-10-12T12:27:00Z</time>
      </trkpt>
      <trkpt lat="41.27045" lon="9.35238">
        <ele>-2.27</ele>
        <time>2017-10-12T12:27:14Z</time>
      </trkpt>
      <trkpt lat="41.27043" lon="9.3524">
        <ele>-1.3</ele>
        <time>2017-10-12T12:27:25Z</time>
      </trkpt>
      <trkpt lat="41.27038" lon="9.35245">
        <ele>-1.3</ele>
        <time>2017-10-12T12:27:35Z</time>
      </trkpt>
      <trkpt lat="41.27036" lon="9.35246">
        <ele>-1.3</ele>
        <time>2017-10-12T12:27:38Z</time>
      </trkpt>
      <trkpt lat="41.2703" lon="9.35249">
        <ele>-0.82</ele>
        <time>2017-10-12T12:27:46Z</time>
      </trkpt>
      <trkpt lat="41.27025" lon="9.35249">
        <ele>-1.3</ele>
        <time>2017-10-12T12:27:51Z</time>
      </trkpt>
      <trkpt lat="41.27017" lon="9.35247">
        <ele>-1.3</ele>
        <time>2017-10-12T12:27:58Z</time>
      </trkpt>
      <trkpt lat="41.27007" lon="9.35252">
        <ele>-0.82</ele>
        <time>2017-10-12T12:28:05Z</time>
      </trkpt>
      <trkpt lat="41.26998" lon="9.35291">
        <ele>-1.3</ele>
        <time>2017-10-12T12:28:21Z</time>
      </trkpt>
      <trkpt lat="41.27009" lon="9.35314">
        <ele>-1.3</ele>
        <time>2017-10-12T12:28:31Z</time>
      </trkpt>
      <trkpt lat="41.27029" lon="9.35349">
        <ele>-1.3</ele>
        <time>2017-10-12T12:28:46Z</time>
      </trkpt>
      <trkpt lat="41.27044" lon="9.35372">
        <ele>-1.79</ele>
        <time>2017-10-12T12:28:56Z</time>
      </trkpt>
      <trkpt lat="41.27061" lon="9.35405">
        <ele>-1.79</ele>
        <time>2017-10-12T12:29:09Z</time>
      </trkpt>
      <trkpt lat="41.2708" lon="9.35439">
        <ele>-1.3</ele>
        <time>2017-10-12T12:29:22Z</time>
      </trkpt>
      <trkpt lat="41.27102" lon="9.3547">
        <ele>-1.79</ele>
        <time>2017-10-12T12:29:34Z</time>
      </trkpt>
      <trkpt lat="41.2713" lon="9.35505">
        <ele>-1.3</ele>
        <time>2017-10-12T12:29:48Z</time>
      </trkpt>
      <trkpt lat="41.27156" lon="9.35539">
        <ele>-0.82</ele>
        <time>2017-10-12T12:30:02Z</time>
      </trkpt>
      <trkpt lat="41.27175" lon="9.35567">
        <ele>-1.3</ele>
        <time>2017-10-12T12:30:15Z</time>
      </trkpt>
      <trkpt lat="41.27194" lon="9.35595">
        <ele>-0.82</ele>
        <time>2017-10-12T12:30:28Z</time>
      </trkpt>
      <trkpt lat="41.27211" lon="9.35624">
        <ele>-1.3</ele>
        <time>2017-10-12T12:30:41Z</time>
      </trkpt>
      <trkpt lat="41.27228" lon="9.35667">
        <ele>-1.79</ele>
        <time>2017-10-12T12:30:58Z</time>
      </trkpt>
      <trkpt lat="41.27247" lon="9.35699">
        <ele>-1.79</ele>
        <time>2017-10-12T12:31:12Z</time>
      </trkpt>
      <trkpt lat="41.27264" lon="9.35724">
        <ele>-1.79</ele>
        <time>2017-10-12T12:31:24Z</time>
      </trkpt>
      <trkpt lat="41.27277" lon="9.35743">
        <ele>-1.79</ele>
        <time>2017-10-12T12:31:33Z</time>
      </trkpt>
      <trkpt lat="41.27295" lon="9.35777">
        <ele>-1.79</ele>
        <time>2017-10-12T12:31:49Z</time>
      </trkpt>
      <trkpt lat="41.27314" lon="9.35804">
        <ele>-1.79</ele>
        <time>2017-10-12T12:32:04Z</time>
      </trkpt>
      <trkpt lat="41.27324" lon="9.35815">
        <ele>-1.79</ele>
        <time>2017-10-12T12:32:12Z</time>
      </trkpt>
      <trkpt lat="41.27331" lon="9.35822">
        <ele>-1.79</ele>
        <time>2017-10-12T12:32:17Z</time>
      </trkpt>
      <trkpt lat="41.27349" lon="9.35839">
        <ele>-1.3</ele>
        <time>2017-10-12T12:32:29Z</time>
      </trkpt>
      <trkpt lat="41.2737" lon="9.35864">
        <ele>-1.3</ele>
        <time>2017-10-12T12:32:45Z</time>
      </trkpt>
      <trkpt lat="41.27379" lon="9.35872">
        <ele>-1.3</ele>
        <time>2017-10-12T12:32:51Z</time>
      </trkpt>
      <trkpt lat="41.27399" lon="9.35889">
        <ele>-1.3</ele>
        <time>2017-10-12T12:33:05Z</time>
      </trkpt>
      <trkpt lat="41.27417" lon="9.35906">
        <ele>-1.3</ele>
        <time>2017-10-12T12:33:19Z</time>
      </trkpt>
      <trkpt lat="41.27439" lon="9.3593">
        <ele>-1.3</ele>
        <time>2017-10-12T12:33:36Z</time>
      </trkpt>
      <trkpt lat="41.27457" lon="9.35956">
        <ele>-1.79</ele>
        <time>2017-10-12T12:33:51Z</time>
      </trkpt>
      <trkpt lat="41.27481" lon="9.35974">
        <ele>-1.3</ele>
        <time>2017-10-12T12:34:09Z</time>
      </trkpt>
      <trkpt lat="41.27501" lon="9.35985">
        <ele>-1.3</ele>
        <time>2017-10-12T12:34:23Z</time>
      </trkpt>
      <trkpt lat="41.27521" lon="9.35999">
        <ele>-0.82</ele>
        <time>2017-10-12T12:34:39Z</time>
      </trkpt>
      <trkpt lat="41.2754" lon="9.36013">
        <ele>-1.3</ele>
        <time>2017-10-12T12:34:54Z</time>
      </trkpt>
      <trkpt lat="41.27568" lon="9.36033">
        <ele>-1.3</ele>
        <time>2017-10-12T12:35:15Z</time>
      </trkpt>
      <trkpt lat="41.27583" lon="9.36046">
        <ele>-0.82</ele>
        <time>2017-10-12T12:35:27Z</time>
      </trkpt>
      <trkpt lat="41.27603" lon="9.36061">
        <ele>-0.82</ele>
        <time>2017-10-12T12:35:42Z</time>
      </trkpt>
      <trkpt lat="41.27624" lon="9.36073">
        <ele>-0.34</ele>
        <time>2017-10-12T12:35:58Z</time>
      </trkpt>
      <trkpt lat="41.27645" lon="9.36079">
        <ele>-0.82</ele>
        <time>2017-10-12T12:36:14Z</time>
      </trkpt>
      <trkpt lat="41.27655" lon="9.36081">
        <ele>-0.34</ele>
        <time>2017-10-12T12:36:22Z</time>
      </trkpt>
      <trkpt lat="41.27675" lon="9.36086">
        <ele>-0.34</ele>
        <time>2017-10-12T12:36:38Z</time>
      </trkpt>
      <trkpt lat="41.27694" lon="9.36092">
        <ele>0.14</ele>
        <time>2017-10-12T12:36:54Z</time>
      </trkpt>
      <trkpt lat="41.27715" lon="9.36098">
        <ele>0.14</ele>
        <time>2017-10-12T12:37:11Z</time>
      </trkpt>
      <trkpt lat="41.27718" lon="9.36099">
        <ele>0.14</ele>
        <time>2017-10-12T12:37:13Z</time>
      </trkpt>
      <trkpt lat="41.27741" lon="9.36107">
        <ele>0.14</ele>
        <time>2017-10-12T12:37:32Z</time>
      </trkpt>
      <trkpt lat="41.27764" lon="9.36114">
        <ele>0.62</ele>
        <time>2017-10-12T12:37:51Z</time>
      </trkpt>
      <trkpt lat="41.27788" lon="9.36121">
        <ele>0.14</ele>
        <time>2017-10-12T12:38:11Z</time>
      </trkpt>
      <trkpt lat="41.27808" lon="9.36125">
        <ele>-0.34</ele>
        <time>2017-10-12T12:38:28Z</time>
      </trkpt>
      <trkpt lat="41.27832" lon="9.36127">
        <ele>-0.34</ele>
        <time>2017-10-12T12:38:49Z</time>
      </trkpt>
      <trkpt lat="41.27856" lon="9.36126">
        <ele>-0.82</ele>
        <time>2017-10-12T12:39:09Z</time>
      </trkpt>
      <trkpt lat="41.27885" lon="9.36127">
        <ele>-0.82</ele>
        <time>2017-10-12T12:39:31Z</time>
      </trkpt>
      <trkpt lat="41.27916" lon="9.3613">
        <ele>-0.34</ele>
        <time>2017-10-12T12:39:50Z</time>
      </trkpt>
      <trkpt lat="41.27941" lon="9.36136">
        <ele>-0.82</ele>
        <time>2017-10-12T12:40:08Z</time>
      </trkpt>
      <trkpt lat="41.2796" lon="9.36141">
        <ele>-0.82</ele>
        <time>2017-10-12T12:40:25Z</time>
      </trkpt>
      <trkpt lat="41.2799" lon="9.36146">
        <ele>-1.3</ele>
        <time>2017-10-12T12:40:52Z</time>
      </trkpt>
      <trkpt lat="41.28012" lon="9.36147">
        <ele>-1.3</ele>
        <time>2017-10-12T12:41:14Z</time>
      </trkpt>
      <trkpt lat="41.28043" lon="9.3615">
        <ele>-0.82</ele>
        <time>2017-10-12T12:41:36Z</time>
      </trkpt>
      <trkpt lat="41.28081" lon="9.36144">
        <ele>-1.3</ele>
        <time>2017-10-12T12:42:00Z</time>
      </trkpt>
      <trkpt lat="41.28123" lon="9.36132">
        <ele>-1.3</ele>
        <time>2017-10-12T12:42:26Z</time>
      </trkpt>
      <trkpt lat="41.28168" lon="9.36114">
        <ele>-1.79</ele>
        <time>2017-10-12T12:42:56Z</time>
      </trkpt>
      <trkpt lat="41.28205" lon="9.36098">
        <ele>-1.79</ele>
        <time>2017-10-12T12:43:22Z</time>
      </trkpt>
      <trkpt lat="41.28235" lon="9.36082">
        <ele>-0.82</ele>
        <time>2017-10-12T12:43:44Z</time>
      </trkpt>
      <trkpt lat="41.28271" lon="9.36065">
        <ele>-0.82</ele>
        <time>2017-10-12T12:44:10Z</time>
      </trkpt>
      <trkpt lat="41.28303" lon="9.36078">
        <ele>-1.79</ele>
        <time>2017-10-12T12:44:33Z</time>
      </trkpt>
      <trkpt lat="41.28331" lon="9.36085">
        <ele>-0.34</ele>
        <time>2017-10-12T12:44:50Z</time>
      </trkpt>
      <trkpt lat="41.28366" lon="9.36077">
        <ele>-0.82</ele>
        <time>2017-10-12T12:45:18Z</time>
      </trkpt>
      <trkpt lat="41.28393" lon="9.36068">
        <ele>-0.34</ele>
        <time>2017-10-12T12:45:44Z</time>
      </trkpt>
      <trkpt lat="41.28418" lon="9.36059">
        <ele>-1.3</ele>
        <time>2017-10-12T12:46:14Z</time>
      </trkpt>
      <trkpt lat="41.28423" lon="9.36059">
        <ele>-1.3</ele>
        <time>2017-10-12T12:46:35Z</time>
      </trkpt>
      <trkpt lat="41.28422" lon="9.36067">
        <ele>-1.3</ele>
        <time>2017-10-12T12:47:03Z</time>
      </trkpt>
      <trkpt lat="41.28429" lon="9.36083">
        <ele>-1.3</ele>
        <time>2017-10-12T12:47:33Z</time>
      </trkpt>
      <trkpt lat="41.28437" lon="9.36091">
        <ele>-0.82</ele>
        <time>2017-10-12T12:47:56Z</time>
      </trkpt>
      <trkpt lat="41.28438" lon="9.36096">
        <ele>-0.34</ele>
        <time>2017-10-12T12:48:18Z</time>
      </trkpt>
      <trkpt lat="41.28433" lon="9.36101">
        <ele>-1.3</ele>
        <time>2017-10-12T12:48:43Z</time>
      </trkpt>
      <trkpt lat="41.2843" lon="9.36099">
        <ele>-0.82</ele>
        <time>2017-10-12T12:48:48Z</time>
      </trkpt>
      <trkpt lat="41.28421" lon="9.3608">
        <ele>-0.82</ele>
        <time>2017-10-12T12:49:09Z</time>
      </trkpt>
      <trkpt lat="41.28416" lon="9.36059">
        <ele>-1.79</ele>
        <time>2017-10-12T12:49:30Z</time>
      </trkpt>
      <trkpt lat="41.28414" lon="9.36054">
        <ele>-1.79</ele>
        <time>2017-10-12T12:49:57Z</time>
      </trkpt>
      <trkpt lat="41.28414" lon="9.36054">
        <ele>-1.3</ele>
        <time>2017-10-12T12:50:22Z</time>
      </trkpt>
      <trkpt lat="41.28416" lon="9.36051">
        <ele>-1.3</ele>
        <time>2017-10-12T12:50:47Z</time>
      </trkpt>
      <trkpt lat="41.28419" lon="9.3606">
        <ele>-0.82</ele>
        <time>2017-10-12T12:51:14Z</time>
      </trkpt>
      <trkpt lat="41.28417" lon="9.36071">
        <ele>-0.34</ele>
        <time>2017-10-12T12:51:39Z</time>
      </trkpt>
      <trkpt lat="41.28419" lon="9.3607">
        <ele>-0.34</ele>
        <time>2017-10-12T12:52:03Z</time>
      </trkpt>
      <trkpt lat="41.28425" lon="9.36068">
        <ele>-0.34</ele>
        <time>2017-10-12T12:52:25Z</time>
      </trkpt>
      <trkpt lat="41.28432" lon="9.36062">
        <ele>0.62</ele>
        <time>2017-10-12T12:52:52Z</time>
      </trkpt>
      <trkpt lat="41.28431" lon="9.36062">
        <ele>0.14</ele>
        <time>2017-10-12T12:53:23Z</time>
      </trkpt>
      <trkpt lat="41.28432" lon="9.36061">
        <ele>0.14</ele>
        <time>2017-10-12T12:53:48Z</time>
      </trkpt>
      <trkpt lat="41.28433" lon="9.36062">
        <ele>-0.34</ele>
        <time>2017-10-12T12:54:15Z</time>
      </trkpt>
      <trkpt lat="41.28432" lon="9.36067">
        <ele>-0.82</ele>
        <time>2017-10-12T12:54:38Z</time>
      </trkpt>
      <trkpt lat="41.28426" lon="9.36076">
        <ele>-0.34</ele>
        <time>2017-10-12T12:55:03Z</time>
      </trkpt>
      <trkpt lat="41.2842" lon="9.3608">
        <ele>2.06</ele>
        <time>2017-10-12T12:55:27Z</time>
      </trkpt>
      <trkpt lat="41.28417" lon="9.36077">
        <ele>3.02</ele>
        <time>2017-10-12T12:55:47Z</time>
      </trkpt>
      <trkpt lat="41.28418" lon="9.36059">
        <ele>1.58</ele>
        <time>2017-10-12T12:56:06Z</time>
      </trkpt>
      <trkpt lat="41.28419" lon="9.3605">
        <ele>0.62</ele>
        <time>2017-10-12T12:56:29Z</time>
      </trkpt>
      <trkpt lat="41.2842" lon="9.36056">
        <ele>0.14</ele>
        <time>2017-10-12T12:56:49Z</time>
      </trkpt>
      <trkpt lat="41.28422" lon="9.36057">
        <ele>-0.34</ele>
        <time>2017-10-12T12:57:12Z</time>
      </trkpt>
      <trkpt lat="41.28424" lon="9.36056">
        <ele>-0.82</ele>
        <time>2017-10-12T12:57:33Z</time>
      </trkpt>
      <trkpt lat="41.28425" lon="9.36053">
        <ele>-1.3</ele>
        <time>2017-10-12T12:57:57Z</time>
      </trkpt>
      <trkpt lat="41.28422" lon="9.36051">
        <ele>-0.82</ele>
        <time>2017-10-12T12:58:21Z</time>
      </trkpt>
      <trkpt lat="41.28418" lon="9.36064">
        <ele>-0.34</ele>
        <time>2017-10-12T12:58:52Z</time>
      </trkpt>
      <trkpt lat="41.28416" lon="9.3607">
        <ele>-1.3</ele>
        <time>2017-10-12T12:59:21Z</time>
      </trkpt>
      <trkpt lat="41.28427" lon="9.36066">
        <ele>-0.82</ele>
        <time>2017-10-12T12:59:49Z</time>
      </trkpt>
      <trkpt lat="41.28428" lon="9.36063">
        <ele>-0.34</ele>
        <time>2017-10-12T13:00:13Z</time>
      </trkpt>
      <trkpt lat="41.28429" lon="9.36057">
        <ele>-0.82</ele>
        <time>2017-10-12T13:00:43Z</time>
      </trkpt>
      <trkpt lat="41.2843" lon="9.36057">
        <ele>-0.82</ele>
        <time>2017-10-12T13:00:47Z</time>
      </trkpt>
      <trkpt lat="41.2842" lon="9.36063">
        <ele>-0.34</ele>
        <time>2017-10-12T14:55:09Z</time>
      </trkpt>
      <trkpt lat="41.28418" lon="9.36067">
        <ele>-0.34</ele>
        <time>2017-10-12T14:55:32Z</time>
      </trkpt>
      <trkpt lat="41.28421" lon="9.36065">
        <ele>0.14</ele>
        <time>2017-10-12T14:55:57Z</time>
      </trkpt>
      <trkpt lat="41.28424" lon="9.36062">
        <ele>-0.34</ele>
        <time>2017-10-12T14:56:19Z</time>
      </trkpt>
      <trkpt lat="41.28422" lon="9.36066">
        <ele>-0.34</ele>
        <time>2017-10-12T14:56:45Z</time>
      </trkpt>
      <trkpt lat="41.28421" lon="9.36063">
        <ele>-0.82</ele>
        <time>2017-10-12T14:57:08Z</time>
      </trkpt>
      <trkpt lat="41.28414" lon="9.36058">
        <ele>-0.34</ele>
        <time>2017-10-12T14:57:21Z</time>
      </trkpt>
      <trkpt lat="41.2838" lon="9.36072">
        <ele>1.1</ele>
        <time>2017-10-12T14:57:45Z</time>
      </trkpt>
      <trkpt lat="41.28338" lon="9.36097">
        <ele>1.58</ele>
        <time>2017-10-12T14:58:08Z</time>
      </trkpt>
      <trkpt lat="41.28298" lon="9.36113">
        <ele>0.62</ele>
        <time>2017-10-12T14:58:28Z</time>
      </trkpt>
      <trkpt lat="41.28259" lon="9.36122">
        <ele>1.1</ele>
        <time>2017-10-12T14:58:47Z</time>
      </trkpt>
      <trkpt lat="41.28211" lon="9.3613">
        <ele>1.1</ele>
        <time>2017-10-12T14:59:10Z</time>
      </trkpt>
      <trkpt lat="41.28158" lon="9.36136">
        <ele>0.62</ele>
        <time>2017-10-12T14:59:35Z</time>
      </trkpt>
      <trkpt lat="41.28111" lon="9.36142">
        <ele>0.62</ele>
        <time>2017-10-12T14:59:58Z</time>
      </trkpt>
      <trkpt lat="41.28079" lon="9.36138">
        <ele>-0.34</ele>
        <time>2017-10-12T15:00:14Z</time>
      </trkpt>
      <trkpt lat="41.28061" lon="9.3611">
        <ele>-0.82</ele>
        <time>2017-10-12T15:00:35Z</time>
      </trkpt>
      <trkpt lat="41.28057" lon="9.36097">
        <ele>-0.82</ele>
        <time>2017-10-12T15:00:46Z</time>
      </trkpt>
      <trkpt lat="41.28047" lon="9.36075">
        <ele>0.62</ele>
        <time>2017-10-12T15:01:08Z</time>
      </trkpt>
      <trkpt lat="41.28044" lon="9.36072">
        <ele>0.14</ele>
        <time>2017-10-12T15:01:13Z</time>
      </trkpt>
      <trkpt lat="41.28034" lon="9.36075">
        <ele>0.14</ele>
        <time>2017-10-12T15:01:22Z</time>
      </trkpt>
      <trkpt lat="41.27996" lon="9.36087">
        <ele>1.1</ele>
        <time>2017-10-12T15:01:49Z</time>
      </trkpt>
      <trkpt lat="41.27957" lon="9.36094">
        <ele>0.62</ele>
        <time>2017-10-12T15:02:16Z</time>
      </trkpt>
      <trkpt lat="41.27908" lon="9.36103">
        <ele>-0.34</ele>
        <time>2017-10-12T15:02:42Z</time>
      </trkpt>
      <trkpt lat="41.27852" lon="9.36108">
        <ele>0.62</ele>
        <time>2017-10-12T15:03:02Z</time>
      </trkpt>
      <trkpt lat="41.27795" lon="9.36112">
        <ele>0.14</ele>
        <time>2017-10-12T15:03:19Z</time>
      </trkpt>
      <trkpt lat="41.27734" lon="9.36124">
        <ele>0.62</ele>
        <time>2017-10-12T15:03:36Z</time>
      </trkpt>
      <trkpt lat="41.27686" lon="9.36141">
        <ele>0.14</ele>
        <time>2017-10-12T15:03:50Z</time>
      </trkpt>
      <trkpt lat="41.27636" lon="9.36167">
        <ele>0.14</ele>
        <time>2017-10-12T15:04:05Z</time>
      </trkpt>
      <trkpt lat="41.27585" lon="9.36179">
        <ele>1.1</ele>
        <time>2017-10-12T15:04:19Z</time>
      </trkpt>
      <trkpt lat="41.27536" lon="9.36207">
        <ele>0.14</ele>
        <time>2017-10-12T15:04:34Z</time>
      </trkpt>
      <trkpt lat="41.27497" lon="9.36228">
        <ele>0.62</ele>
        <time>2017-10-12T15:04:46Z</time>
      </trkpt>
      <trkpt lat="41.27461" lon="9.36246">
        <ele>0.62</ele>
        <time>2017-10-12T15:04:57Z</time>
      </trkpt>
      <trkpt lat="41.27405" lon="9.36268">
        <ele>0.62</ele>
        <time>2017-10-12T15:05:14Z</time>
      </trkpt>
      <trkpt lat="41.27353" lon="9.36287">
        <ele>0.62</ele>
        <time>2017-10-12T15:05:29Z</time>
      </trkpt>
      <trkpt lat="41.2731" lon="9.36303">
        <ele>0.62</ele>
        <time>2017-10-12T15:05:42Z</time>
      </trkpt>
      <trkpt lat="41.27261" lon="9.36317">
        <ele>0.62</ele>
        <time>2017-10-12T15:05:56Z</time>
      </trkpt>
      <trkpt lat="41.27223" lon="9.36328">
        <ele>1.1</ele>
        <time>2017-10-12T15:06:07Z</time>
      </trkpt>
      <trkpt lat="41.2718" lon="9.36335">
        <ele>0.62</ele>
        <time>2017-10-12T15:06:19Z</time>
      </trkpt>
      <trkpt lat="41.27132" lon="9.3636">
        <ele>0.62</ele>
        <time>2017-10-12T15:06:33Z</time>
      </trkpt>
      <trkpt lat="41.27071" lon="9.36389">
        <ele>1.58</ele>
        <time>2017-10-12T15:06:51Z</time>
      </trkpt>
      <trkpt lat="41.27026" lon="9.36406">
        <ele>1.58</ele>
        <time>2017-10-12T15:07:04Z</time>
      </trkpt>
      <trkpt lat="41.26977" lon="9.36425">
        <ele>1.58</ele>
        <time>2017-10-12T15:07:18Z</time>
      </trkpt>
      <trkpt lat="41.26937" lon="9.36443">
        <ele>1.1</ele>
        <time>2017-10-12T15:07:30Z</time>
      </trkpt>
      <trkpt lat="41.269" lon="9.36456">
        <ele>0.62</ele>
        <time>2017-10-12T15:07:41Z</time>
      </trkpt>
      <trkpt lat="41.26859" lon="9.36471">
        <ele>1.58</ele>
        <time>2017-10-12T15:07:53Z</time>
      </trkpt>
      <trkpt lat="41.26826" lon="9.36481">
        <ele>1.58</ele>
        <time>2017-10-12T15:08:03Z</time>
      </trkpt>
      <trkpt lat="41.26784" lon="9.36492">
        <ele>2.06</ele>
        <time>2017-10-12T15:08:15Z</time>
      </trkpt>
      <trkpt lat="41.26737" lon="9.36509">
        <ele>1.58</ele>
        <time>2017-10-12T15:08:29Z</time>
      </trkpt>
      <trkpt lat="41.267" lon="9.36518">
        <ele>1.1</ele>
        <time>2017-10-12T15:08:40Z</time>
      </trkpt>
      <trkpt lat="41.26658" lon="9.36526">
        <ele>0.62</ele>
        <time>2017-10-12T15:08:52Z</time>
      </trkpt>
      <trkpt lat="41.26616" lon="9.36538">
        <ele>0.62</ele>
        <time>2017-10-12T15:09:04Z</time>
      </trkpt>
      <trkpt lat="41.2657" lon="9.36551">
        <ele>0.62</ele>
        <time>2017-10-12T15:09:17Z</time>
      </trkpt>
      <trkpt lat="41.26523" lon="9.36566">
        <ele>0.14</ele>
        <time>2017-10-12T15:09:31Z</time>
      </trkpt>
      <trkpt lat="41.26484" lon="9.36577">
        <ele>-0.34</ele>
        <time>2017-10-12T15:09:43Z</time>
      </trkpt>
      <trkpt lat="41.26455" lon="9.36586">
        <ele>0.62</ele>
        <time>2017-10-12T15:09:52Z</time>
      </trkpt>
      <trkpt lat="41.26431" lon="9.36587">
        <ele>0.14</ele>
        <time>2017-10-12T15:09:59Z</time>
      </trkpt>
      <trkpt lat="41.26383" lon="9.36595">
        <ele>0.14</ele>
        <time>2017-10-12T15:10:13Z</time>
      </trkpt>
      <trkpt lat="41.26344" lon="9.36599">
        <ele>0.62</ele>
        <time>2017-10-12T15:10:24Z</time>
      </trkpt>
      <trkpt lat="41.26297" lon="9.36612">
        <ele>1.1</ele>
        <time>2017-10-12T15:10:38Z</time>
      </trkpt>
      <trkpt lat="41.26264" lon="9.36619">
        <ele>0.62</ele>
        <time>2017-10-12T15:10:48Z</time>
      </trkpt>
      <trkpt lat="41.26219" lon="9.36624">
        <ele>1.1</ele>
        <time>2017-10-12T15:11:01Z</time>
      </trkpt>
      <trkpt lat="41.26177" lon="9.36628">
        <ele>1.1</ele>
        <time>2017-10-12T15:11:13Z</time>
      </trkpt>
      <trkpt lat="41.26133" lon="9.3664">
        <ele>1.1</ele>
        <time>2017-10-12T15:11:26Z</time>
      </trkpt>
      <trkpt lat="41.26097" lon="9.3666">
        <ele>0.14</ele>
        <time>2017-10-12T15:11:38Z</time>
      </trkpt>
      <trkpt lat="41.26059" lon="9.36676">
        <ele>0.62</ele>
        <time>2017-10-12T15:11:50Z</time>
      </trkpt>
      <trkpt lat="41.2602" lon="9.3669">
        <ele>1.1</ele>
        <time>2017-10-12T15:12:02Z</time>
      </trkpt>
      <trkpt lat="41.25982" lon="9.367">
        <ele>1.58</ele>
        <time>2017-10-12T15:12:13Z</time>
      </trkpt>
      <trkpt lat="41.25937" lon="9.3671">
        <ele>0.62</ele>
        <time>2017-10-12T15:12:26Z</time>
      </trkpt>
      <trkpt lat="41.25891" lon="9.3672">
        <ele>2.06</ele>
        <time>2017-10-12T15:12:40Z</time>
      </trkpt>
      <trkpt lat="41.25857" lon="9.36721">
        <ele>2.54</ele>
        <time>2017-10-12T15:12:50Z</time>
      </trkpt>
      <trkpt lat="41.25816" lon="9.36727">
        <ele>1.58</ele>
        <time>2017-10-12T15:13:02Z</time>
      </trkpt>
      <trkpt lat="41.25774" lon="9.36731">
        <ele>0.62</ele>
        <time>2017-10-12T15:13:14Z</time>
      </trkpt>
      <trkpt lat="41.25745" lon="9.36735">
        <ele>0.62</ele>
        <time>2017-10-12T15:13:23Z</time>
      </trkpt>
      <trkpt lat="41.25709" lon="9.3674">
        <ele>0.62</ele>
        <time>2017-10-12T15:13:34Z</time>
      </trkpt>
      <trkpt lat="41.25671" lon="9.36742">
        <ele>1.58</ele>
        <time>2017-10-12T15:13:45Z</time>
      </trkpt>
      <trkpt lat="41.2564" lon="9.36747">
        <ele>1.58</ele>
        <time>2017-10-12T15:13:54Z</time>
      </trkpt>
      <trkpt lat="41.25603" lon="9.36755">
        <ele>1.1</ele>
        <time>2017-10-12T15:14:05Z</time>
      </trkpt>
      <trkpt lat="41.25559" lon="9.36763">
        <ele>1.58</ele>
        <time>2017-10-12T15:14:18Z</time>
      </trkpt>
      <trkpt lat="41.25511" lon="9.36771">
        <ele>2.06</ele>
        <time>2017-10-12T15:14:33Z</time>
      </trkpt>
      <trkpt lat="41.25478" lon="9.36769">
        <ele>1.58</ele>
        <time>2017-10-12T15:14:44Z</time>
      </trkpt>
      <trkpt lat="41.25442" lon="9.36756">
        <ele>0.14</ele>
        <time>2017-10-12T15:14:57Z</time>
      </trkpt>
      <trkpt lat="41.25406" lon="9.36742">
        <ele>0.14</ele>
        <time>2017-10-12T15:15:10Z</time>
      </trkpt>
      <trkpt lat="41.25365" lon="9.3673">
        <ele>0.62</ele>
        <time>2017-10-12T15:15:24Z</time>
      </trkpt>
      <trkpt lat="41.25331" lon="9.36718">
        <ele>0.62</ele>
        <time>2017-10-12T15:15:35Z</time>
      </trkpt>
      <trkpt lat="41.25293" lon="9.36709">
        <ele>1.1</ele>
        <time>2017-10-12T15:15:47Z</time>
      </trkpt>
      <trkpt lat="41.25253" lon="9.36699">
        <ele>0.62</ele>
        <time>2017-10-12T15:16:00Z</time>
      </trkpt>
      <trkpt lat="41.25204" lon="9.36692">
        <ele>0.14</ele>
        <time>2017-10-12T15:16:16Z</time>
      </trkpt>
      <trkpt lat="41.25171" lon="9.36689">
        <ele>0.62</ele>
        <time>2017-10-12T15:16:27Z</time>
      </trkpt>
      <trkpt lat="41.25124" lon="9.36679">
        <ele>0.62</ele>
        <time>2017-10-12T15:16:42Z</time>
      </trkpt>
      <trkpt lat="41.25083" lon="9.36673">
        <ele>-0.34</ele>
        <time>2017-10-12T15:16:55Z</time>
      </trkpt>
      <trkpt lat="41.2503" lon="9.36664">
        <ele>0.14</ele>
        <time>2017-10-12T15:17:12Z</time>
      </trkpt>
      <trkpt lat="41.24979" lon="9.36647">
        <ele>0.14</ele>
        <time>2017-10-12T15:17:28Z</time>
      </trkpt>
      <trkpt lat="41.24945" lon="9.36638">
        <ele>0.62</ele>
        <time>2017-10-12T15:17:39Z</time>
      </trkpt>
      <trkpt lat="41.24906" lon="9.3663">
        <ele>0.62</ele>
        <time>2017-10-12T15:17:51Z</time>
      </trkpt>
      <trkpt lat="41.24865" lon="9.36627">
        <ele>0.62</ele>
        <time>2017-10-12T15:18:04Z</time>
      </trkpt>
      <trkpt lat="41.24831" lon="9.36625">
        <ele>0.62</ele>
        <time>2017-10-12T15:18:15Z</time>
      </trkpt>
      <trkpt lat="41.24791" lon="9.36623">
        <ele>1.1</ele>
        <time>2017-10-12T15:18:28Z</time>
      </trkpt>
      <trkpt lat="41.24745" lon="9.36615">
        <ele>0.62</ele>
        <time>2017-10-12T15:18:43Z</time>
      </trkpt>
      <trkpt lat="41.24707" lon="9.36612">
        <ele>1.1</ele>
        <time>2017-10-12T15:18:56Z</time>
      </trkpt>
      <trkpt lat="41.24668" lon="9.36616">
        <ele>1.1</ele>
        <time>2017-10-12T15:19:09Z</time>
      </trkpt>
      <trkpt lat="41.24614" lon="9.36626">
        <ele>1.1</ele>
        <time>2017-10-12T15:19:26Z</time>
      </trkpt>
      <trkpt lat="41.2457" lon="9.36635">
        <ele>1.1</ele>
        <time>2017-10-12T15:19:41Z</time>
      </trkpt>
      <trkpt lat="41.24515" lon="9.3665">
        <ele>1.1</ele>
        <time>2017-10-12T15:20:00Z</time>
      </trkpt>
      <trkpt lat="41.24468" lon="9.36665">
        <ele>0.14</ele>
        <time>2017-10-12T15:20:17Z</time>
      </trkpt>
      <trkpt lat="41.24427" lon="9.36674">
        <ele>0.14</ele>
        <time>2017-10-12T15:20:30Z</time>
      </trkpt>
      <trkpt lat="41.24392" lon="9.36678">
        <ele>0.62</ele>
        <time>2017-10-12T15:20:42Z</time>
      </trkpt>
      <trkpt lat="41.24345" lon="9.36685">
        <ele>0.62</ele>
        <time>2017-10-12T15:20:58Z</time>
      </trkpt>
      <trkpt lat="41.24295" lon="9.36703">
        <ele>0.14</ele>
        <time>2017-10-12T15:21:18Z</time>
      </trkpt>
      <trkpt lat="41.24243" lon="9.36718">
        <ele>0.62</ele>
        <time>2017-10-12T15:21:37Z</time>
      </trkpt>
      <trkpt lat="41.24194" lon="9.36733">
        <ele>1.1</ele>
        <time>2017-10-12T15:21:56Z</time>
      </trkpt>
      <trkpt lat="41.24134" lon="9.36751">
        <ele>0.14</ele>
        <time>2017-10-12T15:22:17Z</time>
      </trkpt>
      <trkpt lat="41.24068" lon="9.36767">
        <ele>-0.34</ele>
        <time>2017-10-12T15:22:38Z</time>
      </trkpt>
      <trkpt lat="41.24017" lon="9.36784">
        <ele>0.14</ele>
        <time>2017-10-12T15:22:56Z</time>
      </trkpt>
      <trkpt lat="41.23958" lon="9.368">
        <ele>1.1</ele>
        <time>2017-10-12T15:23:17Z</time>
      </trkpt>
      <trkpt lat="41.23893" lon="9.36818">
        <ele>0.14</ele>
        <time>2017-10-12T15:23:39Z</time>
      </trkpt>
      <trkpt lat="41.23834" lon="9.36835">
        <ele>0.14</ele>
        <time>2017-10-12T15:23:58Z</time>
      </trkpt>
      <trkpt lat="41.23779" lon="9.36856">
        <ele>0.62</ele>
        <time>2017-10-12T15:24:19Z</time>
      </trkpt>
      <trkpt lat="41.23731" lon="9.36871">
        <ele>1.1</ele>
        <time>2017-10-12T15:24:37Z</time>
      </trkpt>
      <trkpt lat="41.23663" lon="9.36889">
        <ele>1.1</ele>
        <time>2017-10-12T15:24:59Z</time>
      </trkpt>
      <trkpt lat="41.23591" lon="9.36904">
        <ele>1.1</ele>
        <time>2017-10-12T15:25:21Z</time>
      </trkpt>
      <trkpt lat="41.23528" lon="9.3692">
        <ele>0.14</ele>
        <time>2017-10-12T15:25:43Z</time>
      </trkpt>
      <trkpt lat="41.2347" lon="9.36933">
        <ele>0.62</ele>
        <time>2017-10-12T15:26:05Z</time>
      </trkpt>
      <trkpt lat="41.23415" lon="9.36942">
        <ele>1.58</ele>
        <time>2017-10-12T15:26:24Z</time>
      </trkpt>
      <trkpt lat="41.23352" lon="9.36953">
        <ele>0.14</ele>
        <time>2017-10-12T15:26:44Z</time>
      </trkpt>
      <trkpt lat="41.23291" lon="9.36961">
        <ele>0.14</ele>
        <time>2017-10-12T15:27:04Z</time>
      </trkpt>
      <trkpt lat="41.23222" lon="9.36969">
        <ele>1.1</ele>
        <time>2017-10-12T15:27:25Z</time>
      </trkpt>
      <trkpt lat="41.23152" lon="9.36973">
        <ele>1.58</ele>
        <time>2017-10-12T15:27:48Z</time>
      </trkpt>
      <trkpt lat="41.23086" lon="9.36982">
        <ele>1.58</ele>
        <time>2017-10-12T15:28:09Z</time>
      </trkpt>
      <trkpt lat="41.2302" lon="9.36992">
        <ele>2.06</ele>
        <time>2017-10-12T15:28:30Z</time>
      </trkpt>
      <trkpt lat="41.22958" lon="9.37004">
        <ele>3.02</ele>
        <time>2017-10-12T15:28:51Z</time>
      </trkpt>
      <trkpt lat="41.22906" lon="9.37016">
        <ele>3.5</ele>
        <time>2017-10-12T15:29:09Z</time>
      </trkpt>
      <trkpt lat="41.22865" lon="9.37019">
        <ele>3.5</ele>
        <time>2017-10-12T15:29:24Z</time>
      </trkpt>
      <trkpt lat="41.22805" lon="9.37027">
        <ele>3.02</ele>
        <time>2017-10-12T15:29:45Z</time>
      </trkpt>
      <trkpt lat="41.22747" lon="9.37037">
        <ele>2.54</ele>
        <time>2017-10-12T15:30:05Z</time>
      </trkpt>
      <trkpt lat="41.22682" lon="9.37048">
        <ele>2.54</ele>
        <time>2017-10-12T15:30:28Z</time>
      </trkpt>
      <trkpt lat="41.22629" lon="9.37054">
        <ele>2.06</ele>
        <time>2017-10-12T15:30:47Z</time>
      </trkpt>
      <trkpt lat="41.22573" lon="9.37061">
        <ele>2.54</ele>
        <time>2017-10-12T15:31:07Z</time>
      </trkpt>
      <trkpt lat="41.22518" lon="9.37068">
        <ele>2.54</ele>
        <time>2017-10-12T15:31:26Z</time>
      </trkpt>
      <trkpt lat="41.22468" lon="9.37073">
        <ele>3.02</ele>
        <time>2017-10-12T15:31:42Z</time>
      </trkpt>
      <trkpt lat="41.22408" lon="9.37078">
        <ele>2.06</ele>
        <time>2017-10-12T15:32:01Z</time>
      </trkpt>
      <trkpt lat="41.2236" lon="9.37088">
        <ele>1.58</ele>
        <time>2017-10-12T15:32:17Z</time>
      </trkpt>
      <trkpt lat="41.22304" lon="9.37093">
        <ele>1.58</ele>
        <time>2017-10-12T15:32:35Z</time>
      </trkpt>
      <trkpt lat="41.22257" lon="9.37109">
        <ele>1.58</ele>
        <time>2017-10-12T15:32:51Z</time>
      </trkpt>
      <trkpt lat="41.22215" lon="9.37133">
        <ele>0.14</ele>
        <time>2017-10-12T15:33:07Z</time>
      </trkpt>
      <trkpt lat="41.22176" lon="9.37152">
        <ele>-0.34</ele>
        <time>2017-10-12T15:33:21Z</time>
      </trkpt>
      <trkpt lat="41.22129" lon="9.37174">
        <ele>0.14</ele>
        <time>2017-10-12T15:33:38Z</time>
      </trkpt>
      <trkpt lat="41.22084" lon="9.37196">
        <ele>0.14</ele>
        <time>2017-10-12T15:33:55Z</time>
      </trkpt>
      <trkpt lat="41.22045" lon="9.37217">
        <ele>-0.34</ele>
        <time>2017-10-12T15:34:11Z</time>
      </trkpt>
      <trkpt lat="41.22004" lon="9.37237">
        <ele>-0.34</ele>
        <time>2017-10-12T15:34:28Z</time>
      </trkpt>
      <trkpt lat="41.21963" lon="9.37259">
        <ele>0.14</ele>
        <time>2017-10-12T15:34:45Z</time>
      </trkpt>
      <trkpt lat="41.21917" lon="9.37282">
        <ele>0.62</ele>
        <time>2017-10-12T15:35:04Z</time>
      </trkpt>
      <trkpt lat="41.21874" lon="9.37305">
        <ele>1.1</ele>
        <time>2017-10-12T15:35:22Z</time>
      </trkpt>
      <trkpt lat="41.21833" lon="9.37327">
        <ele>1.1</ele>
        <time>2017-10-12T15:35:39Z</time>
      </trkpt>
      <trkpt lat="41.21794" lon="9.37347">
        <ele>1.58</ele>
        <time>2017-10-12T15:35:55Z</time>
      </trkpt>
      <trkpt lat="41.21747" lon="9.37367">
        <ele>0.62</ele>
        <time>2017-10-12T15:36:12Z</time>
      </trkpt>
      <trkpt lat="41.21701" lon="9.37387">
        <ele>1.1</ele>
        <time>2017-10-12T15:36:28Z</time>
      </trkpt>
      <trkpt lat="41.21648" lon="9.3741">
        <ele>1.1</ele>
        <time>2017-10-12T15:36:46Z</time>
      </trkpt>
      <trkpt lat="41.21606" lon="9.3743">
        <ele>1.1</ele>
        <time>2017-10-12T15:37:01Z</time>
      </trkpt>
      <trkpt lat="41.21566" lon="9.37451">
        <ele>2.06</ele>
        <time>2017-10-12T15:37:16Z</time>
      </trkpt>
      <trkpt lat="41.21525" lon="9.37473">
        <ele>1.58</ele>
        <time>2017-10-12T15:37:31Z</time>
      </trkpt>
      <trkpt lat="41.21477" lon="9.375">
        <ele>2.06</ele>
        <time>2017-10-12T15:37:49Z</time>
      </trkpt>
      <trkpt lat="41.21432" lon="9.37519">
        <ele>2.06</ele>
        <time>2017-10-12T15:38:06Z</time>
      </trkpt>
      <trkpt lat="41.21391" lon="9.37544">
        <ele>1.58</ele>
        <time>2017-10-12T15:38:22Z</time>
      </trkpt>
      <trkpt lat="41.21345" lon="9.37572">
        <ele>0.62</ele>
        <time>2017-10-12T15:38:40Z</time>
      </trkpt>
      <trkpt lat="41.21315" lon="9.3759">
        <ele>0.62</ele>
        <time>2017-10-12T15:38:52Z</time>
      </trkpt>
      <trkpt lat="41.21277" lon="9.3761">
        <ele>1.1</ele>
        <time>2017-10-12T15:39:06Z</time>
      </trkpt>
      <trkpt lat="41.21237" lon="9.3763">
        <ele>1.1</ele>
        <time>2017-10-12T15:39:20Z</time>
      </trkpt>
      <trkpt lat="41.2119" lon="9.3766">
        <ele>1.58</ele>
        <time>2017-10-12T15:39:38Z</time>
      </trkpt>
      <trkpt lat="41.21151" lon="9.37683">
        <ele>2.54</ele>
        <time>2017-10-12T15:39:53Z</time>
      </trkpt>
      <trkpt lat="41.21104" lon="9.37709">
        <ele>1.58</ele>
        <time>2017-10-12T15:40:10Z</time>
      </trkpt>
      <trkpt lat="41.2107" lon="9.37729">
        <ele>1.1</ele>
        <time>2017-10-12T15:40:23Z</time>
      </trkpt>
      <trkpt lat="41.21026" lon="9.37756">
        <ele>0.62</ele>
        <time>2017-10-12T15:40:40Z</time>
      </trkpt>
      <trkpt lat="41.20977" lon="9.37788">
        <ele>1.1</ele>
        <time>2017-10-12T15:40:59Z</time>
      </trkpt>
      <trkpt lat="41.20937" lon="9.37815">
        <ele>1.58</ele>
        <time>2017-10-12T15:41:15Z</time>
      </trkpt>
      <trkpt lat="41.20887" lon="9.37847">
        <ele>1.1</ele>
        <time>2017-10-12T15:41:35Z</time>
      </trkpt>
      <trkpt lat="41.20851" lon="9.37872">
        <ele>1.58</ele>
        <time>2017-10-12T15:41:51Z</time>
      </trkpt>
      <trkpt lat="41.20805" lon="9.37902">
        <ele>2.54</ele>
        <time>2017-10-12T15:42:11Z</time>
      </trkpt>
      <trkpt lat="41.2077" lon="9.37927">
        <ele>3.02</ele>
        <time>2017-10-12T15:42:28Z</time>
      </trkpt>
      <trkpt lat="41.20737" lon="9.37952">
        <ele>2.06</ele>
        <time>2017-10-12T15:42:44Z</time>
      </trkpt>
      <trkpt lat="41.20711" lon="9.37982">
        <ele>2.06</ele>
        <time>2017-10-12T15:42:59Z</time>
      </trkpt>
      <trkpt lat="41.20685" lon="9.38027">
        <ele>1.58</ele>
        <time>2017-10-12T15:43:19Z</time>
      </trkpt>
      <trkpt lat="41.20652" lon="9.38093">
        <ele>-0.34</ele>
        <time>2017-10-12T15:43:47Z</time>
      </trkpt>
      <trkpt lat="41.20625" lon="9.38151">
        <ele>-0.34</ele>
        <time>2017-10-12T15:44:11Z</time>
      </trkpt>
      <trkpt lat="41.20602" lon="9.38202">
        <ele>-0.34</ele>
        <time>2017-10-12T15:44:33Z</time>
      </trkpt>
      <trkpt lat="41.20585" lon="9.38256">
        <ele>-0.82</ele>
        <time>2017-10-12T15:44:57Z</time>
      </trkpt>
      <trkpt lat="41.20576" lon="9.38298">
        <ele>-0.82</ele>
        <time>2017-10-12T15:45:16Z</time>
      </trkpt>
      <trkpt lat="41.20569" lon="9.38342">
        <ele>-1.79</ele>
        <time>2017-10-12T15:45:35Z</time>
      </trkpt>
      <trkpt lat="41.20563" lon="9.38389">
        <ele>-1.79</ele>
        <time>2017-10-12T15:45:56Z</time>
      </trkpt>
      <trkpt lat="41.2056" lon="9.38428">
        <ele>-0.82</ele>
        <time>2017-10-12T15:46:15Z</time>
      </trkpt>
      <trkpt lat="41.20558" lon="9.38464">
        <ele>-0.82</ele>
        <time>2017-10-12T15:46:31Z</time>
      </trkpt>
      <trkpt lat="41.20555" lon="9.3851">
        <ele>-0.34</ele>
        <time>2017-10-12T15:46:51Z</time>
      </trkpt>
      <trkpt lat="41.20553" lon="9.3855">
        <ele>-0.82</ele>
        <time>2017-10-12T15:47:08Z</time>
      </trkpt>
      <trkpt lat="41.20552" lon="9.38592">
        <ele>-0.82</ele>
        <time>2017-10-12T15:47:25Z</time>
      </trkpt>
      <trkpt lat="41.20552" lon="9.38642">
        <ele>-0.82</ele>
        <time>2017-10-12T15:47:46Z</time>
      </trkpt>
      <trkpt lat="41.20556" lon="9.38693">
        <ele>-0.34</ele>
        <time>2017-10-12T15:48:08Z</time>
      </trkpt>
      <trkpt lat="41.20558" lon="9.38737">
        <ele>-0.82</ele>
        <time>2017-10-12T15:48:26Z</time>
      </trkpt>
      <trkpt lat="41.20563" lon="9.38777">
        <ele>-0.82</ele>
        <time>2017-10-12T15:48:44Z</time>
      </trkpt>
      <trkpt lat="41.20568" lon="9.38823">
        <ele>-0.82</ele>
        <time>2017-10-12T15:49:06Z</time>
      </trkpt>
      <trkpt lat="41.20571" lon="9.38872">
        <ele>-0.34</ele>
        <time>2017-10-12T15:49:29Z</time>
      </trkpt>
      <trkpt lat="41.20576" lon="9.38926">
        <ele>-0.82</ele>
        <time>2017-10-12T15:49:53Z</time>
      </trkpt>
      <trkpt lat="41.20581" lon="9.38975">
        <ele>-0.82</ele>
        <time>2017-10-12T15:50:13Z</time>
      </trkpt>
      <trkpt lat="41.20582" lon="9.39017">
        <ele>-0.34</ele>
        <time>2017-10-12T15:50:30Z</time>
      </trkpt>
      <trkpt lat="41.20581" lon="9.39082">
        <ele>0.14</ele>
        <time>2017-10-12T15:50:57Z</time>
      </trkpt>
      <trkpt lat="41.20581" lon="9.39136">
        <ele>1.1</ele>
        <time>2017-10-12T15:51:20Z</time>
      </trkpt>
      <trkpt lat="41.20578" lon="9.39201">
        <ele>1.58</ele>
        <time>2017-10-12T15:51:48Z</time>
      </trkpt>
      <trkpt lat="41.2058" lon="9.39268">
        <ele>1.58</ele>
        <time>2017-10-12T15:52:15Z</time>
      </trkpt>
      <trkpt lat="41.20583" lon="9.39339">
        <ele>1.1</ele>
        <time>2017-10-12T15:52:43Z</time>
      </trkpt>
      <trkpt lat="41.20591" lon="9.39401">
        <ele>0.62</ele>
        <time>2017-10-12T15:53:08Z</time>
      </trkpt>
      <trkpt lat="41.20601" lon="9.3947">
        <ele>0.62</ele>
        <time>2017-10-12T15:53:37Z</time>
      </trkpt>
      <trkpt lat="41.20613" lon="9.39542">
        <ele>1.58</ele>
        <time>2017-10-12T15:54:08Z</time>
      </trkpt>
      <trkpt lat="41.20631" lon="9.39618">
        <ele>1.58</ele>
        <time>2017-10-12T15:54:32Z</time>
      </trkpt>
      <trkpt lat="41.20641" lon="9.39709">
        <ele>1.58</ele>
        <time>2017-10-12T15:54:56Z</time>
      </trkpt>
      <trkpt lat="41.20671" lon="9.39823">
        <ele>1.58</ele>
        <time>2017-10-12T15:55:27Z</time>
      </trkpt>
      <trkpt lat="41.20697" lon="9.39909">
        <ele>1.58</ele>
        <time>2017-10-12T15:55:51Z</time>
      </trkpt>
      <trkpt lat="41.20723" lon="9.39995">
        <ele>1.58</ele>
        <time>2017-10-12T15:56:15Z</time>
      </trkpt>
      <trkpt lat="41.20751" lon="9.40086">
        <ele>1.1</ele>
        <time>2017-10-12T15:56:40Z</time>
      </trkpt>
      <trkpt lat="41.20787" lon="9.40191">
        <ele>2.06</ele>
        <time>2017-10-12T15:57:10Z</time>
      </trkpt>
      <trkpt lat="41.2082" lon="9.40282">
        <ele>1.1</ele>
        <time>2017-10-12T15:57:36Z</time>
      </trkpt>
      <trkpt lat="41.20853" lon="9.40367">
        <ele>1.58</ele>
        <time>2017-10-12T15:58:01Z</time>
      </trkpt>
      <trkpt lat="41.20885" lon="9.40414">
        <ele>2.06</ele>
        <time>2017-10-12T15:58:23Z</time>
      </trkpt>
      <trkpt lat="41.20912" lon="9.40448">
        <ele>1.58</ele>
        <time>2017-10-12T15:58:43Z</time>
      </trkpt>
      <trkpt lat="41.20947" lon="9.40488">
        <ele>1.58</ele>
        <time>2017-10-12T15:59:12Z</time>
      </trkpt>
      <trkpt lat="41.20982" lon="9.40515">
        <ele>1.1</ele>
        <time>2017-10-12T15:59:37Z</time>
      </trkpt>
      <trkpt lat="41.21022" lon="9.40528">
        <ele>2.06</ele>
        <time>2017-10-12T16:00:04Z</time>
      </trkpt>
      <trkpt lat="41.21058" lon="9.40522">
        <ele>2.54</ele>
        <time>2017-10-12T16:00:34Z</time>
      </trkpt>
      <trkpt lat="41.21089" lon="9.40505">
        <ele>1.58</ele>
        <time>2017-10-12T16:01:03Z</time>
      </trkpt>
      <trkpt lat="41.21133" lon="9.40481">
        <ele>1.1</ele>
        <time>2017-10-12T16:01:31Z</time>
      </trkpt>
      <trkpt lat="41.21173" lon="9.40467">
        <ele>3.02</ele>
        <time>2017-10-12T16:01:57Z</time>
      </trkpt>
      <trkpt lat="41.212" lon="9.40442">
        <ele>3.02</ele>
        <time>2017-10-12T16:02:21Z</time>
      </trkpt>
      <trkpt lat="41.21207" lon="9.40422">
        <ele>3.02</ele>
        <time>2017-10-12T16:02:42Z</time>
      </trkpt>
      <trkpt lat="41.21208" lon="9.40427">
        <ele>3.5</ele>
        <time>2017-10-12T16:02:52Z</time>
      </trkpt>
      <trkpt lat="41.21204" lon="9.40462">
        <ele>3.5</ele>
        <time>2017-10-12T16:03:16Z</time>
      </trkpt>
      <trkpt lat="41.21204" lon="9.40478">
        <ele>4.94</ele>
        <time>2017-10-12T16:03:37Z</time>
      </trkpt>
      <trkpt lat="41.21203" lon="9.40479">
        <ele>4.46</ele>
        <time>2017-10-12T16:04:03Z</time>
      </trkpt>
      <trkpt lat="41.21204" lon="9.4048">
        <ele>4.46</ele>
        <time>2017-10-12T16:04:26Z</time>
      </trkpt>
      <trkpt lat="41.21203" lon="9.4048">
        <ele>4.46</ele>
        <time>2017-10-12T16:04:48Z</time>
      </trkpt>
      <trkpt lat="41.21201" lon="9.40482">
        <ele>4.46</ele>
        <time>2017-10-12T16:05:19Z</time>
      </trkpt>
      <trkpt lat="41.212" lon="9.40484">
        <ele>3.98</ele>
        <time>2017-10-12T16:05:44Z</time>
      </trkpt>
      <trkpt lat="41.21199" lon="9.40486">
        <ele>3.98</ele>
        <time>2017-10-12T16:06:15Z</time>
      </trkpt>
      <trkpt lat="41.21199" lon="9.40486">
        <ele>4.46</ele>
        <time>2017-10-12T16:06:40Z</time>
      </trkpt>
      <trkpt lat="41.21199" lon="9.40487">
        <ele>4.94</ele>
        <time>2017-10-12T16:07:14Z</time>
      </trkpt>
      <trkpt lat="41.212" lon="9.40487">
        <ele>4.94</ele>
        <time>2017-10-12T16:07:26Z</time>
      </trkpt>
    </trkseg>
  </trk>
  <trk>
    <name><![CDATA[Tracé actuel: 13 OCT 2017 10:10]]></name>
    <trkseg>
      <trkpt lat="41.21206" lon="9.40476">
        <ele>-0.34</ele>
        <time>2017-10-13T09:10:19Z</time>
      </trkpt>
      <trkpt lat="41.21198" lon="9.40481">
        <ele>12.63</ele>
        <time>2017-10-13T09:10:43Z</time>
      </trkpt>
      <trkpt lat="41.21197" lon="9.40487">
        <ele>14.08</ele>
        <time>2017-10-13T09:11:05Z</time>
      </trkpt>
      <trkpt lat="41.21199" lon="9.40487">
        <ele>10.23</ele>
        <time>2017-10-13T09:11:32Z</time>
      </trkpt>
      <trkpt lat="41.21197" lon="9.4048">
        <ele>12.63</ele>
        <time>2017-10-13T09:11:46Z</time>
      </trkpt>
      <trkpt lat="41.21195" lon="9.40474">
        <ele>12.63</ele>
        <time>2017-10-13T09:12:02Z</time>
      </trkpt>
      <trkpt lat="41.21198" lon="9.40483">
        <ele>12.63</ele>
        <time>2017-10-13T09:12:16Z</time>
      </trkpt>
      <trkpt lat="41.21198" lon="9.40484">
        <ele>14.08</ele>
        <time>2017-10-13T09:12:43Z</time>
      </trkpt>
      <trkpt lat="41.21199" lon="9.40486">
        <ele>12.63</ele>
        <time>2017-10-13T09:13:20Z</time>
      </trkpt>
      <trkpt lat="41.21199" lon="9.40485">
        <ele>13.12</ele>
        <time>2017-10-13T09:13:50Z</time>
      </trkpt>
      <trkpt lat="41.21199" lon="9.40486">
        <ele>10.71</ele>
        <time>2017-10-13T09:14:19Z</time>
      </trkpt>
      <trkpt lat="41.21199" lon="9.40484">
        <ele>9.75</ele>
        <time>2017-10-13T09:14:44Z</time>
      </trkpt>
      <trkpt lat="41.21198" lon="9.40477">
        <ele>10.23</ele>
        <time>2017-10-13T09:15:08Z</time>
      </trkpt>
      <trkpt lat="41.21196" lon="9.40471">
        <ele>10.23</ele>
        <time>2017-10-13T09:15:35Z</time>
      </trkpt>
      <trkpt lat="41.21195" lon="9.40467">
        <ele>9.27</ele>
        <time>2017-10-13T09:15:57Z</time>
      </trkpt>
      <trkpt lat="41.21182" lon="9.40453">
        <ele>6.87</ele>
        <time>2017-10-13T09:16:20Z</time>
      </trkpt>
      <trkpt lat="41.21177" lon="9.40451">
        <ele>6.39</ele>
        <time>2017-10-13T09:16:27Z</time>
      </trkpt>
      <trkpt lat="41.21157" lon="9.40457">
        <ele>4.94</ele>
        <time>2017-10-13T09:16:51Z</time>
      </trkpt>
      <trkpt lat="41.21129" lon="9.40469">
        <ele>4.94</ele>
        <time>2017-10-13T09:17:20Z</time>
      </trkpt>
      <trkpt lat="41.21106" lon="9.4048">
        <ele>4.46</ele>
        <time>2017-10-13T09:17:44Z</time>
      </trkpt>
      <trkpt lat="41.21088" lon="9.40493">
        <ele>4.94</ele>
        <time>2017-10-13T09:18:06Z</time>
      </trkpt>
      <trkpt lat="41.2108" lon="9.4048">
        <ele>5.91</ele>
        <time>2017-10-13T09:18:27Z</time>
      </trkpt>
      <trkpt lat="41.21078" lon="9.40475">
        <ele>4.94</ele>
        <time>2017-10-13T09:18:48Z</time>
      </trkpt>
      <trkpt lat="41.21071" lon="9.40461">
        <ele>4.94</ele>
        <time>2017-10-13T09:19:13Z</time>
      </trkpt>
      <trkpt lat="41.2107" lon="9.40457">
        <ele>4.94</ele>
        <time>2017-10-13T09:19:35Z</time>
      </trkpt>
      <trkpt lat="41.2107" lon="9.40458">
        <ele>4.94</ele>
        <time>2017-10-13T09:19:52Z</time>
      </trkpt>
      <trkpt lat="41.21069" lon="9.40461">
        <ele>4.94</ele>
        <time>2017-10-13T09:20:20Z</time>
      </trkpt>
      <trkpt lat="41.21069" lon="9.40461">
        <ele>4.94</ele>
        <time>2017-10-13T09:20:41Z</time>
      </trkpt>
      <trkpt lat="41.21069" lon="9.4046">
        <ele>4.94</ele>
        <time>2017-10-13T09:21:00Z</time>
      </trkpt>
      <trkpt lat="41.21068" lon="9.40459">
        <ele>4.94</ele>
        <time>2017-10-13T09:21:17Z</time>
      </trkpt>
      <trkpt lat="41.21064" lon="9.40458">
        <ele>3.02</ele>
        <time>2017-10-13T09:21:57Z</time>
      </trkpt>
      <trkpt lat="41.21064" lon="9.40459">
        <ele>3.5</ele>
        <time>2017-10-13T09:22:38Z</time>
      </trkpt>
      <trkpt lat="41.21064" lon="9.40459">
        <ele>3.5</ele>
        <time>2017-10-13T09:23:11Z</time>
      </trkpt>
      <trkpt lat="41.21063" lon="9.40458">
        <ele>3.98</ele>
        <time>2017-10-13T09:23:52Z</time>
      </trkpt>
      <trkpt lat="41.21063" lon="9.40459">
        <ele>3.98</ele>
        <time>2017-10-13T09:24:34Z</time>
      </trkpt>
      <trkpt lat="41.21063" lon="9.40458">
        <ele>2.54</ele>
        <time>2017-10-13T09:25:14Z</time>
      </trkpt>
      <trkpt lat="41.21064" lon="9.40458">
        <ele>2.06</ele>
        <time>2017-10-13T09:25:52Z</time>
      </trkpt>
      <trkpt lat="41.21064" lon="9.40458">
        <ele>1.58</ele>
        <time>2017-10-13T09:26:29Z</time>
      </trkpt>
      <trkpt lat="41.21064" lon="9.40458">
        <ele>1.58</ele>
        <time>2017-10-13T09:27:12Z</time>
      </trkpt>
      <trkpt lat="41.21064" lon="9.40457">
        <ele>1.58</ele>
        <time>2017-10-13T09:27:40Z</time>
      </trkpt>
      <trkpt lat="41.21064" lon="9.40458">
        <ele>1.58</ele>
        <time>2017-10-13T09:28:10Z</time>
      </trkpt>
      <trkpt lat="41.21065" lon="9.40469">
        <ele>2.06</ele>
        <time>2017-10-13T09:28:36Z</time>
      </trkpt>
      <trkpt lat="41.21062" lon="9.40479">
        <ele>2.54</ele>
        <time>2017-10-13T09:28:44Z</time>
      </trkpt>
      <trkpt lat="41.2106" lon="9.40511">
        <ele>2.06</ele>
        <time>2017-10-13T09:29:13Z</time>
      </trkpt>
      <trkpt lat="41.2106" lon="9.40506">
        <ele>3.02</ele>
        <time>2017-10-13T09:29:39Z</time>
      </trkpt>
      <trkpt lat="41.21067" lon="9.40502">
        <ele>4.46</ele>
        <time>2017-10-13T09:30:08Z</time>
      </trkpt>
      <trkpt lat="41.21046" lon="9.40524">
        <ele>3.98</ele>
        <time>2017-10-13T09:30:30Z</time>
      </trkpt>
      <trkpt lat="41.20999" lon="9.40528">
        <ele>3.02</ele>
        <time>2017-10-13T09:30:55Z</time>
      </trkpt>
      <trkpt lat="41.20969" lon="9.40507">
        <ele>2.54</ele>
        <time>2017-10-13T09:31:17Z</time>
      </trkpt>
      <trkpt lat="41.20946" lon="9.40475">
        <ele>3.02</ele>
        <time>2017-10-13T09:31:45Z</time>
      </trkpt>
      <trkpt lat="41.20931" lon="9.40447">
        <ele>3.02</ele>
        <time>2017-10-13T09:32:11Z</time>
      </trkpt>
      <trkpt lat="41.20919" lon="9.40423">
        <ele>2.54</ele>
        <time>2017-10-13T09:32:35Z</time>
      </trkpt>
      <trkpt lat="41.20904" lon="9.404">
        <ele>2.54</ele>
        <time>2017-10-13T09:33:00Z</time>
      </trkpt>
      <trkpt lat="41.20884" lon="9.40398">
        <ele>3.02</ele>
        <time>2017-10-13T09:33:20Z</time>
      </trkpt>
      <trkpt lat="41.20881" lon="9.40439">
        <ele>3.98</ele>
        <time>2017-10-13T09:33:43Z</time>
      </trkpt>
      <trkpt lat="41.20896" lon="9.40489">
        <ele>3.98</ele>
        <time>2017-10-13T09:34:09Z</time>
      </trkpt>
      <trkpt lat="41.20923" lon="9.40531">
        <ele>3.5</ele>
        <time>2017-10-13T09:34:35Z</time>
      </trkpt>
      <trkpt lat="41.20949" lon="9.40576">
        <ele>3.5</ele>
        <time>2017-10-13T09:35:02Z</time>
      </trkpt>
      <trkpt lat="41.20969" lon="9.40621">
        <ele>3.98</ele>
        <time>2017-10-13T09:35:26Z</time>
      </trkpt>
      <trkpt lat="41.20991" lon="9.40668">
        <ele>3.5</ele>
        <time>2017-10-13T09:35:52Z</time>
      </trkpt>
      <trkpt lat="41.21005" lon="9.40707">
        <ele>3.98</ele>
        <time>2017-10-13T09:36:13Z</time>
      </trkpt>
      <trkpt lat="41.21018" lon="9.40754">
        <ele>3.5</ele>
        <time>2017-10-13T09:36:36Z</time>
      </trkpt>
      <trkpt lat="41.21029" lon="9.408">
        <ele>3.98</ele>
        <time>2017-10-13T09:36:57Z</time>
      </trkpt>
      <trkpt lat="41.21042" lon="9.40866">
        <ele>4.46</ele>
        <time>2017-10-13T09:37:26Z</time>
      </trkpt>
      <trkpt lat="41.21052" lon="9.4092">
        <ele>3.98</ele>
        <time>2017-10-13T09:37:47Z</time>
      </trkpt>
      <trkpt lat="41.21067" lon="9.40984">
        <ele>3.5</ele>
        <time>2017-10-13T09:38:10Z</time>
      </trkpt>
      <trkpt lat="41.21076" lon="9.41076">
        <ele>5.42</ele>
        <time>2017-10-13T09:38:40Z</time>
      </trkpt>
      <trkpt lat="41.21082" lon="9.41158">
        <ele>5.91</ele>
        <time>2017-10-13T09:39:07Z</time>
      </trkpt>
      <trkpt lat="41.21075" lon="9.41246">
        <ele>2.54</ele>
        <time>2017-10-13T09:39:36Z</time>
      </trkpt>
      <trkpt lat="41.21047" lon="9.41349">
        <ele>3.98</ele>
        <time>2017-10-13T09:40:11Z</time>
      </trkpt>
      <trkpt lat="41.2102" lon="9.41442">
        <ele>3.5</ele>
        <time>2017-10-13T09:40:43Z</time>
      </trkpt>
      <trkpt lat="41.20988" lon="9.41527">
        <ele>4.46</ele>
        <time>2017-10-13T09:41:13Z</time>
      </trkpt>
      <trkpt lat="41.20963" lon="9.41601">
        <ele>3.98</ele>
        <time>2017-10-13T09:41:39Z</time>
      </trkpt>
      <trkpt lat="41.20936" lon="9.41702">
        <ele>3.02</ele>
        <time>2017-10-13T09:42:12Z</time>
      </trkpt>
      <trkpt lat="41.20915" lon="9.41789">
        <ele>3.5</ele>
        <time>2017-10-13T09:42:41Z</time>
      </trkpt>
      <trkpt lat="41.20881" lon="9.41899">
        <ele>4.46</ele>
        <time>2017-10-13T09:43:18Z</time>
      </trkpt>
      <trkpt lat="41.20851" lon="9.41973">
        <ele>3.5</ele>
        <time>2017-10-13T09:43:44Z</time>
      </trkpt>
      <trkpt lat="41.20812" lon="9.42062">
        <ele>3.02</ele>
        <time>2017-10-13T09:44:16Z</time>
      </trkpt>
      <trkpt lat="41.20802" lon="9.42102">
        <ele>3.98</ele>
        <time>2017-10-13T09:44:32Z</time>
      </trkpt>
      <trkpt lat="41.20829" lon="9.42134">
        <ele>4.46</ele>
        <time>2017-10-13T09:44:57Z</time>
      </trkpt>
      <trkpt lat="41.2086" lon="9.4215">
        <ele>3.98</ele>
        <time>2017-10-13T09:45:25Z</time>
      </trkpt>
      <trkpt lat="41.209" lon="9.42163">
        <ele>3.98</ele>
        <time>2017-10-13T09:46:02Z</time>
      </trkpt>
      <trkpt lat="41.20902" lon="9.42141">
        <ele>3.98</ele>
        <time>2017-10-13T09:46:20Z</time>
      </trkpt>
      <trkpt lat="41.20874" lon="9.42139">
        <ele>4.46</ele>
        <time>2017-10-13T09:46:42Z</time>
      </trkpt>
      <trkpt lat="41.20827" lon="9.42156">
        <ele>3.98</ele>
        <time>2017-10-13T09:47:19Z</time>
      </trkpt>
      <trkpt lat="41.20786" lon="9.42178">
        <ele>4.46</ele>
        <time>2017-10-13T09:48:01Z</time>
      </trkpt>
      <trkpt lat="41.20749" lon="9.42201">
        <ele>3.98</ele>
        <time>2017-10-13T09:48:38Z</time>
      </trkpt>
      <trkpt lat="41.20719" lon="9.42221">
        <ele>3.98</ele>
        <time>2017-10-13T09:49:12Z</time>
      </trkpt>
      <trkpt lat="41.20687" lon="9.4224">
        <ele>3.5</ele>
        <time>2017-10-13T09:49:47Z</time>
      </trkpt>
      <trkpt lat="41.20654" lon="9.42254">
        <ele>3.5</ele>
        <time>2017-10-13T09:50:26Z</time>
      </trkpt>
      <trkpt lat="41.2062" lon="9.42268">
        <ele>4.46</ele>
        <time>2017-10-13T09:51:04Z</time>
      </trkpt>
      <trkpt lat="41.20595" lon="9.42281">
        <ele>4.46</ele>
        <time>2017-10-13T09:51:30Z</time>
      </trkpt>
      <trkpt lat="41.20566" lon="9.42298">
        <ele>3.98</ele>
        <time>2017-10-13T09:52:02Z</time>
      </trkpt>
      <trkpt lat="41.20537" lon="9.42318">
        <ele>3.5</ele>
        <time>2017-10-13T09:52:40Z</time>
      </trkpt>
      <trkpt lat="41.20504" lon="9.42339">
        <ele>3.5</ele>
        <time>2017-10-13T09:53:15Z</time>
      </trkpt>
      <trkpt lat="41.20474" lon="9.4236">
        <ele>3.98</ele>
        <time>2017-10-13T09:53:48Z</time>
      </trkpt>
      <trkpt lat="41.2045" lon="9.42381">
        <ele>3.98</ele>
        <time>2017-10-13T09:54:19Z</time>
      </trkpt>
      <trkpt lat="41.2042" lon="9.42398">
        <ele>3.5</ele>
        <time>2017-10-13T09:54:59Z</time>
      </trkpt>
      <trkpt lat="41.20396" lon="9.42414">
        <ele>2.54</ele>
        <time>2017-10-13T09:55:36Z</time>
      </trkpt>
      <trkpt lat="41.20374" lon="9.42429">
        <ele>2.54</ele>
        <time>2017-10-13T09:56:13Z</time>
      </trkpt>
      <trkpt lat="41.20349" lon="9.42447">
        <ele>3.02</ele>
        <time>2017-10-13T09:56:51Z</time>
      </trkpt>
      <trkpt lat="41.20325" lon="9.42462">
        <ele>3.02</ele>
        <time>2017-10-13T09:57:25Z</time>
      </trkpt>
      <trkpt lat="41.20295" lon="9.42485">
        <ele>2.06</ele>
        <time>2017-10-13T09:58:06Z</time>
      </trkpt>
      <trkpt lat="41.2026" lon="9.42509">
        <ele>1.1</ele>
        <time>2017-10-13T09:58:48Z</time>
      </trkpt>
      <trkpt lat="41.20217" lon="9.42551">
        <ele>0.62</ele>
        <time>2017-10-13T09:59:27Z</time>
      </trkpt>
      <trkpt lat="41.20186" lon="9.42564">
        <ele>2.54</ele>
        <time>2017-10-13T09:59:50Z</time>
      </trkpt>
      <trkpt lat="41.20151" lon="9.42594">
        <ele>2.54</ele>
        <time>2017-10-13T10:00:22Z</time>
      </trkpt>
      <trkpt lat="41.20113" lon="9.42628">
        <ele>1.58</ele>
        <time>2017-10-13T10:00:54Z</time>
      </trkpt>
      <trkpt lat="41.20066" lon="9.42671">
        <ele>2.06</ele>
        <time>2017-10-13T10:01:34Z</time>
      </trkpt>
      <trkpt lat="41.20035" lon="9.42708">
        <ele>2.54</ele>
        <time>2017-10-13T10:02:05Z</time>
      </trkpt>
      <trkpt lat="41.19997" lon="9.42748">
        <ele>3.02</ele>
        <time>2017-10-13T10:02:44Z</time>
      </trkpt>
      <trkpt lat="41.19974" lon="9.42781">
        <ele>2.54</ele>
        <time>2017-10-13T10:03:14Z</time>
      </trkpt>
      <trkpt lat="41.19944" lon="9.42823">
        <ele>3.5</ele>
        <time>2017-10-13T10:03:45Z</time>
      </trkpt>
      <trkpt lat="41.19915" lon="9.42852">
        <ele>3.02</ele>
        <time>2017-10-13T10:04:12Z</time>
      </trkpt>
      <trkpt lat="41.19894" lon="9.42878">
        <ele>3.02</ele>
        <time>2017-10-13T10:04:38Z</time>
      </trkpt>
      <trkpt lat="41.19879" lon="9.429">
        <ele>3.5</ele>
        <time>2017-10-13T10:05:00Z</time>
      </trkpt>
      <trkpt lat="41.19856" lon="9.42916">
        <ele>3.98</ele>
        <time>2017-10-13T10:05:26Z</time>
      </trkpt>
      <trkpt lat="41.19828" lon="9.42928">
        <ele>4.94</ele>
        <time>2017-10-13T10:05:55Z</time>
      </trkpt>
      <trkpt lat="41.19793" lon="9.42937">
        <ele>4.46</ele>
        <time>2017-10-13T10:06:25Z</time>
      </trkpt>
      <trkpt lat="41.19748" lon="9.42947">
        <ele>3.98</ele>
        <time>2017-10-13T10:07:00Z</time>
      </trkpt>
      <trkpt lat="41.19708" lon="9.42953">
        <ele>3.5</ele>
        <time>2017-10-13T10:07:31Z</time>
      </trkpt>
      <trkpt lat="41.19657" lon="9.42961">
        <ele>3.98</ele>
        <time>2017-10-13T10:08:13Z</time>
      </trkpt>
      <trkpt lat="41.19616" lon="9.42966">
        <ele>3.98</ele>
        <time>2017-10-13T10:08:47Z</time>
      </trkpt>
      <trkpt lat="41.19576" lon="9.42974">
        <ele>4.46</ele>
        <time>2017-10-13T10:09:21Z</time>
      </trkpt>
      <trkpt lat="41.19538" lon="9.42978">
        <ele>3.02</ele>
        <time>2017-10-13T10:09:53Z</time>
      </trkpt>
      <trkpt lat="41.19507" lon="9.42985">
        <ele>3.5</ele>
        <time>2017-10-13T10:10:22Z</time>
      </trkpt>
      <trkpt lat="41.19472" lon="9.42988">
        <ele>3.98</ele>
        <time>2017-10-13T10:10:56Z</time>
      </trkpt>
      <trkpt lat="41.19439" lon="9.42993">
        <ele>3.5</ele>
        <time>2017-10-13T10:11:27Z</time>
      </trkpt>
      <trkpt lat="41.19412" lon="9.42997">
        <ele>3.5</ele>
        <time>2017-10-13T10:11:53Z</time>
      </trkpt>
      <trkpt lat="41.1938" lon="9.43002">
        <ele>3.02</ele>
        <time>2017-10-13T10:12:25Z</time>
      </trkpt>
      <trkpt lat="41.19354" lon="9.43006">
        <ele>3.5</ele>
        <time>2017-10-13T10:12:54Z</time>
      </trkpt>
      <trkpt lat="41.19328" lon="9.43011">
        <ele>4.46</ele>
        <time>2017-10-13T10:13:23Z</time>
      </trkpt>
      <trkpt lat="41.19278" lon="9.43017">
        <ele>3.98</ele>
        <time>2017-10-13T10:13:50Z</time>
      </trkpt>
      <trkpt lat="41.19205" lon="9.43028">
        <ele>3.02</ele>
        <time>2017-10-13T10:14:23Z</time>
      </trkpt>
      <trkpt lat="41.19137" lon="9.43037">
        <ele>3.02</ele>
        <time>2017-10-13T10:14:53Z</time>
      </trkpt>
      <trkpt lat="41.19062" lon="9.43048">
        <ele>2.06</ele>
        <time>2017-10-13T10:15:26Z</time>
      </trkpt>
      <trkpt lat="41.1899" lon="9.43057">
        <ele>3.02</ele>
        <time>2017-10-13T10:15:57Z</time>
      </trkpt>
      <trkpt lat="41.18915" lon="9.43067">
        <ele>3.5</ele>
        <time>2017-10-13T10:16:28Z</time>
      </trkpt>
      <trkpt lat="41.18805" lon="9.43081">
        <ele>4.46</ele>
        <time>2017-10-13T10:17:05Z</time>
      </trkpt>
      <trkpt lat="41.18698" lon="9.43095">
        <ele>3.5</ele>
        <time>2017-10-13T10:17:41Z</time>
      </trkpt>
      <trkpt lat="41.18589" lon="9.43109">
        <ele>3.5</ele>
        <time>2017-10-13T10:18:17Z</time>
      </trkpt>
      <trkpt lat="41.18493" lon="9.43122">
        <ele>3.98</ele>
        <time>2017-10-13T10:18:49Z</time>
      </trkpt>
      <trkpt lat="41.18414" lon="9.43134">
        <ele>4.94</ele>
        <time>2017-10-13T10:19:15Z</time>
      </trkpt>
      <trkpt lat="41.18313" lon="9.43145">
        <ele>3.98</ele>
        <time>2017-10-13T10:19:48Z</time>
      </trkpt>
      <trkpt lat="41.18202" lon="9.4316">
        <ele>3.98</ele>
        <time>2017-10-13T10:20:25Z</time>
      </trkpt>
      <trkpt lat="41.18101" lon="9.43173">
        <ele>3.98</ele>
        <time>2017-10-13T10:20:59Z</time>
      </trkpt>
      <trkpt lat="41.18029" lon="9.43195">
        <ele>3.5</ele>
        <time>2017-10-13T10:21:24Z</time>
      </trkpt>
      <trkpt lat="41.17962" lon="9.43235">
        <ele>4.46</ele>
        <time>2017-10-13T10:21:49Z</time>
      </trkpt>
      <trkpt lat="41.17897" lon="9.43293">
        <ele>4.94</ele>
        <time>2017-10-13T10:22:16Z</time>
      </trkpt>
      <trkpt lat="41.17834" lon="9.43349">
        <ele>3.98</ele>
        <time>2017-10-13T10:22:42Z</time>
      </trkpt>
      <trkpt lat="41.17787" lon="9.43396">
        <ele>3.98</ele>
        <time>2017-10-13T10:23:02Z</time>
      </trkpt>
      <trkpt lat="41.17726" lon="9.43453">
        <ele>3.02</ele>
        <time>2017-10-13T10:23:28Z</time>
      </trkpt>
      <trkpt lat="41.17661" lon="9.43515">
        <ele>2.54</ele>
        <time>2017-10-13T10:23:55Z</time>
      </trkpt>
      <trkpt lat="41.1761" lon="9.43564">
        <ele>3.5</ele>
        <time>2017-10-13T10:24:17Z</time>
      </trkpt>
      <trkpt lat="41.1756" lon="9.43614">
        <ele>3.02</ele>
        <time>2017-10-13T10:24:38Z</time>
      </trkpt>
      <trkpt lat="41.17517" lon="9.43672">
        <ele>4.46</ele>
        <time>2017-10-13T10:24:59Z</time>
      </trkpt>
      <trkpt lat="41.17464" lon="9.43744">
        <ele>4.46</ele>
        <time>2017-10-13T10:25:25Z</time>
      </trkpt>
      <trkpt lat="41.1742" lon="9.43826">
        <ele>4.46</ele>
        <time>2017-10-13T10:25:51Z</time>
      </trkpt>
      <trkpt lat="41.17387" lon="9.43887">
        <ele>4.46</ele>
        <time>2017-10-13T10:26:10Z</time>
      </trkpt>
      <trkpt lat="41.17355" lon="9.43948">
        <ele>4.94</ele>
        <time>2017-10-13T10:26:29Z</time>
      </trkpt>
      <trkpt lat="41.17325" lon="9.44005">
        <ele>4.94</ele>
        <time>2017-10-13T10:26:47Z</time>
      </trkpt>
      <trkpt lat="41.17295" lon="9.44063">
        <ele>4.94</ele>
        <time>2017-10-13T10:27:05Z</time>
      </trkpt>
      <trkpt lat="41.17265" lon="9.44121">
        <ele>4.94</ele>
        <time>2017-10-13T10:27:23Z</time>
      </trkpt>
      <trkpt lat="41.17233" lon="9.44181">
        <ele>4.46</ele>
        <time>2017-10-13T10:27:42Z</time>
      </trkpt>
      <trkpt lat="41.17198" lon="9.44248">
        <ele>3.5</ele>
        <time>2017-10-13T10:28:03Z</time>
      </trkpt>
      <trkpt lat="41.17148" lon="9.4434">
        <ele>3.5</ele>
        <time>2017-10-13T10:28:32Z</time>
      </trkpt>
      <trkpt lat="41.17098" lon="9.44435">
        <ele>3.5</ele>
        <time>2017-10-13T10:29:02Z</time>
      </trkpt>
      <trkpt lat="41.17037" lon="9.4455">
        <ele>3.02</ele>
        <time>2017-10-13T10:29:38Z</time>
      </trkpt>
      <trkpt lat="41.16986" lon="9.44644">
        <ele>3.5</ele>
        <time>2017-10-13T10:30:08Z</time>
      </trkpt>
      <trkpt lat="41.16927" lon="9.44755">
        <ele>2.54</ele>
        <time>2017-10-13T10:30:43Z</time>
      </trkpt>
      <trkpt lat="41.16888" lon="9.4485">
        <ele>3.5</ele>
        <time>2017-10-13T10:31:11Z</time>
      </trkpt>
      <trkpt lat="41.16847" lon="9.44972">
        <ele>3.98</ele>
        <time>2017-10-13T10:31:46Z</time>
      </trkpt>
      <trkpt lat="41.16798" lon="9.45103">
        <ele>3.98</ele>
        <time>2017-10-13T10:32:24Z</time>
      </trkpt>
      <trkpt lat="41.16742" lon="9.45258">
        <ele>1.58</ele>
        <time>2017-10-13T10:33:09Z</time>
      </trkpt>
      <trkpt lat="41.16699" lon="9.45384">
        <ele>2.06</ele>
        <time>2017-10-13T10:33:45Z</time>
      </trkpt>
      <trkpt lat="41.16656" lon="9.45506">
        <ele>1.58</ele>
        <time>2017-10-13T10:34:20Z</time>
      </trkpt>
      <trkpt lat="41.16612" lon="9.45632">
        <ele>3.02</ele>
        <time>2017-10-13T10:34:56Z</time>
      </trkpt>
      <trkpt lat="41.16585" lon="9.45764">
        <ele>4.94</ele>
        <time>2017-10-13T10:35:32Z</time>
      </trkpt>
      <trkpt lat="41.1656" lon="9.45894">
        <ele>4.46</ele>
        <time>2017-10-13T10:36:07Z</time>
      </trkpt>
      <trkpt lat="41.16543" lon="9.46006">
        <ele>4.94</ele>
        <time>2017-10-13T10:36:37Z</time>
      </trkpt>
      <trkpt lat="41.16523" lon="9.46127">
        <ele>5.42</ele>
        <time>2017-10-13T10:37:09Z</time>
      </trkpt>
      <trkpt lat="41.16501" lon="9.46256">
        <ele>4.46</ele>
        <time>2017-10-13T10:37:43Z</time>
      </trkpt>
      <trkpt lat="41.16475" lon="9.46407">
        <ele>3.5</ele>
        <time>2017-10-13T10:38:23Z</time>
      </trkpt>
      <trkpt lat="41.16454" lon="9.46545">
        <ele>3.02</ele>
        <time>2017-10-13T10:38:59Z</time>
      </trkpt>
      <trkpt lat="41.16434" lon="9.46672">
        <ele>3.5</ele>
        <time>2017-10-13T10:39:32Z</time>
      </trkpt>
      <trkpt lat="41.16417" lon="9.46776">
        <ele>3.5</ele>
        <time>2017-10-13T10:39:59Z</time>
      </trkpt>
      <trkpt lat="41.16397" lon="9.4691">
        <ele>3.02</ele>
        <time>2017-10-13T10:40:34Z</time>
      </trkpt>
      <trkpt lat="41.16374" lon="9.47049">
        <ele>2.54</ele>
        <time>2017-10-13T10:41:10Z</time>
      </trkpt>
      <trkpt lat="41.16357" lon="9.4718">
        <ele>3.02</ele>
        <time>2017-10-13T10:41:44Z</time>
      </trkpt>
      <trkpt lat="41.1634" lon="9.47301">
        <ele>3.98</ele>
        <time>2017-10-13T10:42:15Z</time>
      </trkpt>
      <trkpt lat="41.16323" lon="9.47413">
        <ele>4.94</ele>
        <time>2017-10-13T10:42:44Z</time>
      </trkpt>
      <trkpt lat="41.16304" lon="9.47536">
        <ele>5.42</ele>
        <time>2017-10-13T10:43:16Z</time>
      </trkpt>
      <trkpt lat="41.1629" lon="9.47629">
        <ele>4.46</ele>
        <time>2017-10-13T10:43:40Z</time>
      </trkpt>
      <trkpt lat="41.16269" lon="9.47765">
        <ele>4.94</ele>
        <time>2017-10-13T10:44:15Z</time>
      </trkpt>
      <trkpt lat="41.16249" lon="9.47889">
        <ele>3.98</ele>
        <time>2017-10-13T10:44:47Z</time>
      </trkpt>
      <trkpt lat="41.16228" lon="9.48025">
        <ele>3.02</ele>
        <time>2017-10-13T10:45:22Z</time>
      </trkpt>
      <trkpt lat="41.16208" lon="9.48158">
        <ele>3.98</ele>
        <time>2017-10-13T10:45:56Z</time>
      </trkpt>
      <trkpt lat="41.16188" lon="9.4829">
        <ele>4.46</ele>
        <time>2017-10-13T10:46:30Z</time>
      </trkpt>
      <trkpt lat="41.16176" lon="9.48397">
        <ele>4.46</ele>
        <time>2017-10-13T10:46:57Z</time>
      </trkpt>
      <trkpt lat="41.16167" lon="9.48512">
        <ele>4.46</ele>
        <time>2017-10-13T10:47:26Z</time>
      </trkpt>
      <trkpt lat="41.16156" lon="9.48617">
        <ele>3.98</ele>
        <time>2017-10-13T10:47:53Z</time>
      </trkpt>
      <trkpt lat="41.16144" lon="9.48736">
        <ele>4.46</ele>
        <time>2017-10-13T10:48:23Z</time>
      </trkpt>
      <trkpt lat="41.16132" lon="9.48851">
        <ele>2.54</ele>
        <time>2017-10-13T10:48:52Z</time>
      </trkpt>
      <trkpt lat="41.16133" lon="9.48928">
        <ele>2.54</ele>
        <time>2017-10-13T10:49:11Z</time>
      </trkpt>
      <trkpt lat="41.16136" lon="9.49035">
        <ele>3.02</ele>
        <time>2017-10-13T10:49:38Z</time>
      </trkpt>
      <trkpt lat="41.16135" lon="9.49145">
        <ele>3.02</ele>
        <time>2017-10-13T10:50:06Z</time>
      </trkpt>
      <trkpt lat="41.16116" lon="9.49253">
        <ele>2.06</ele>
        <time>2017-10-13T10:50:34Z</time>
      </trkpt>
      <trkpt lat="41.16105" lon="9.49349">
        <ele>3.02</ele>
        <time>2017-10-13T10:51:01Z</time>
      </trkpt>
      <trkpt lat="41.16094" lon="9.49407">
        <ele>3.02</ele>
        <time>2017-10-13T10:51:28Z</time>
      </trkpt>
      <trkpt lat="41.16085" lon="9.49447">
        <ele>3.02</ele>
        <time>2017-10-13T10:51:55Z</time>
      </trkpt>
      <trkpt lat="41.16076" lon="9.49479">
        <ele>2.54</ele>
        <time>2017-10-13T10:52:22Z</time>
      </trkpt>
      <trkpt lat="41.16067" lon="9.49509">
        <ele>2.54</ele>
        <time>2017-10-13T10:52:51Z</time>
      </trkpt>
      <trkpt lat="41.16059" lon="9.49532">
        <ele>3.02</ele>
        <time>2017-10-13T10:53:17Z</time>
      </trkpt>
      <trkpt lat="41.16052" lon="9.49552">
        <ele>3.5</ele>
        <time>2017-10-13T10:53:41Z</time>
      </trkpt>
      <trkpt lat="41.16041" lon="9.49576">
        <ele>3.02</ele>
        <time>2017-10-13T10:54:08Z</time>
      </trkpt>
      <trkpt lat="41.16032" lon="9.49613">
        <ele>4.46</ele>
        <time>2017-10-13T10:54:45Z</time>
      </trkpt>
      <trkpt lat="41.16024" lon="9.49637">
        <ele>4.94</ele>
        <time>2017-10-13T10:55:11Z</time>
      </trkpt>
      <trkpt lat="41.16014" lon="9.49664">
        <ele>3.98</ele>
        <time>2017-10-13T10:55:37Z</time>
      </trkpt>
      <trkpt lat="41.16004" lon="9.4971">
        <ele>2.06</ele>
        <time>2017-10-13T10:56:03Z</time>
      </trkpt>
      <trkpt lat="41.15996" lon="9.49769">
        <ele>2.06</ele>
        <time>2017-10-13T10:56:29Z</time>
      </trkpt>
      <trkpt lat="41.1599" lon="9.49834">
        <ele>1.58</ele>
        <time>2017-10-13T10:56:55Z</time>
      </trkpt>
      <trkpt lat="41.15979" lon="9.49927">
        <ele>2.06</ele>
        <time>2017-10-13T10:57:28Z</time>
      </trkpt>
      <trkpt lat="41.1597" lon="9.50004">
        <ele>2.54</ele>
        <time>2017-10-13T10:57:55Z</time>
      </trkpt>
      <trkpt lat="41.15962" lon="9.50088">
        <ele>2.54</ele>
        <time>2017-10-13T10:58:23Z</time>
      </trkpt>
      <trkpt lat="41.15955" lon="9.5017">
        <ele>2.54</ele>
        <time>2017-10-13T10:58:48Z</time>
      </trkpt>
      <trkpt lat="41.15948" lon="9.50236">
        <ele>1.58</ele>
        <time>2017-10-13T10:59:08Z</time>
      </trkpt>
      <trkpt lat="41.15941" lon="9.50311">
        <ele>3.02</ele>
        <time>2017-10-13T10:59:30Z</time>
      </trkpt>
      <trkpt lat="41.15932" lon="9.50402">
        <ele>3.98</ele>
        <time>2017-10-13T10:59:57Z</time>
      </trkpt>
      <trkpt lat="41.15924" lon="9.50489">
        <ele>4.94</ele>
        <time>2017-10-13T11:00:23Z</time>
      </trkpt>
      <trkpt lat="41.15918" lon="9.5056">
        <ele>3.98</ele>
        <time>2017-10-13T11:00:44Z</time>
      </trkpt>
      <trkpt lat="41.15914" lon="9.50633">
        <ele>3.02</ele>
        <time>2017-10-13T11:01:05Z</time>
      </trkpt>
      <trkpt lat="41.15909" lon="9.50729">
        <ele>1.58</ele>
        <time>2017-10-13T11:01:33Z</time>
      </trkpt>
      <trkpt lat="41.15904" lon="9.5082">
        <ele>2.06</ele>
        <time>2017-10-13T11:01:59Z</time>
      </trkpt>
      <trkpt lat="41.15901" lon="9.50902">
        <ele>2.54</ele>
        <time>2017-10-13T11:02:21Z</time>
      </trkpt>
      <trkpt lat="41.15893" lon="9.50999">
        <ele>3.02</ele>
        <time>2017-10-13T11:02:47Z</time>
      </trkpt>
      <trkpt lat="41.15882" lon="9.51099">
        <ele>2.54</ele>
        <time>2017-10-13T11:03:14Z</time>
      </trkpt>
      <trkpt lat="41.15872" lon="9.51194">
        <ele>3.02</ele>
        <time>2017-10-13T11:03:39Z</time>
      </trkpt>
      <trkpt lat="41.15863" lon="9.51297">
        <ele>3.02</ele>
        <time>2017-10-13T11:04:06Z</time>
      </trkpt>
      <trkpt lat="41.1586" lon="9.51378">
        <ele>2.06</ele>
        <time>2017-10-13T11:04:28Z</time>
      </trkpt>
      <trkpt lat="41.15851" lon="9.51456">
        <ele>1.58</ele>
        <time>2017-10-13T11:04:49Z</time>
      </trkpt>
      <trkpt lat="41.15843" lon="9.51561">
        <ele>1.1</ele>
        <time>2017-10-13T11:05:16Z</time>
      </trkpt>
      <trkpt lat="41.15841" lon="9.51647">
        <ele>1.1</ele>
        <time>2017-10-13T11:05:38Z</time>
      </trkpt>
      <trkpt lat="41.15834" lon="9.51747">
        <ele>-0.34</ele>
        <time>2017-10-13T11:06:04Z</time>
      </trkpt>
      <trkpt lat="41.15831" lon="9.51821">
        <ele>-0.34</ele>
        <time>2017-10-13T11:06:24Z</time>
      </trkpt>
      <trkpt lat="41.15824" lon="9.51873">
        <ele>1.1</ele>
        <time>2017-10-13T11:06:38Z</time>
      </trkpt>
      <trkpt lat="41.15819" lon="9.51962">
        <ele>1.1</ele>
        <time>2017-10-13T11:07:02Z</time>
      </trkpt>
      <trkpt lat="41.15821" lon="9.52037">
        <ele>1.1</ele>
        <time>2017-10-13T11:07:23Z</time>
      </trkpt>
      <trkpt lat="41.15822" lon="9.52116">
        <ele>0.62</ele>
        <time>2017-10-13T11:07:45Z</time>
      </trkpt>
      <trkpt lat="41.15825" lon="9.52224">
        <ele>1.58</ele>
        <time>2017-10-13T11:08:14Z</time>
      </trkpt>
      <trkpt lat="41.15821" lon="9.52333">
        <ele>-0.82</ele>
        <time>2017-10-13T11:08:43Z</time>
      </trkpt>
      <trkpt lat="41.15816" lon="9.52437">
        <ele>0.14</ele>
        <time>2017-10-13T11:09:11Z</time>
      </trkpt>
      <trkpt lat="41.15808" lon="9.52541">
        <ele>0.62</ele>
        <time>2017-10-13T11:09:40Z</time>
      </trkpt>
      <trkpt lat="41.15801" lon="9.52638">
        <ele>0.14</ele>
        <time>2017-10-13T11:10:05Z</time>
      </trkpt>
      <trkpt lat="41.15796" lon="9.52724">
        <ele>-0.82</ele>
        <time>2017-10-13T11:10:27Z</time>
      </trkpt>
      <trkpt lat="41.15789" lon="9.52837">
        <ele>-0.82</ele>
        <time>2017-10-13T11:10:56Z</time>
      </trkpt>
      <trkpt lat="41.15786" lon="9.52928">
        <ele>0.14</ele>
        <time>2017-10-13T11:11:20Z</time>
      </trkpt>
      <trkpt lat="41.1578" lon="9.53027">
        <ele>-0.82</ele>
        <time>2017-10-13T11:11:45Z</time>
      </trkpt>
      <trkpt lat="41.15776" lon="9.53095">
        <ele>-1.79</ele>
        <time>2017-10-13T11:12:03Z</time>
      </trkpt>
      <trkpt lat="41.15771" lon="9.53179">
        <ele>-1.3</ele>
        <time>2017-10-13T11:12:25Z</time>
      </trkpt>
      <trkpt lat="41.15767" lon="9.53258">
        <ele>-2.75</ele>
        <time>2017-10-13T11:12:46Z</time>
      </trkpt>
      <trkpt lat="41.15764" lon="9.53339">
        <ele>-1.79</ele>
        <time>2017-10-13T11:13:07Z</time>
      </trkpt>
      <trkpt lat="41.1576" lon="9.5342">
        <ele>-2.27</ele>
        <time>2017-10-13T11:13:28Z</time>
      </trkpt>
      <trkpt lat="41.15756" lon="9.53503">
        <ele>-3.23</ele>
        <time>2017-10-13T11:13:50Z</time>
      </trkpt>
      <trkpt lat="41.15752" lon="9.53589">
        <ele>-3.71</ele>
        <time>2017-10-13T11:14:12Z</time>
      </trkpt>
      <trkpt lat="41.15747" lon="9.53673">
        <ele>-3.23</ele>
        <time>2017-10-13T11:14:34Z</time>
      </trkpt>
      <trkpt lat="41.15742" lon="9.53764">
        <ele>-4.19</ele>
        <time>2017-10-13T11:14:58Z</time>
      </trkpt>
      <trkpt lat="41.15737" lon="9.53859">
        <ele>-4.19</ele>
        <time>2017-10-13T11:15:23Z</time>
      </trkpt>
      <trkpt lat="41.15732" lon="9.53937">
        <ele>-2.27</ele>
        <time>2017-10-13T11:15:44Z</time>
      </trkpt>
      <trkpt lat="41.15726" lon="9.54028">
        <ele>-2.27</ele>
        <time>2017-10-13T11:16:08Z</time>
      </trkpt>
      <trkpt lat="41.1572" lon="9.54126">
        <ele>-2.27</ele>
        <time>2017-10-13T11:16:34Z</time>
      </trkpt>
      <trkpt lat="41.15715" lon="9.54216">
        <ele>-2.27</ele>
        <time>2017-10-13T11:16:58Z</time>
      </trkpt>
      <trkpt lat="41.1571" lon="9.54286">
        <ele>-1.79</ele>
        <time>2017-10-13T11:17:17Z</time>
      </trkpt>
      <trkpt lat="41.15703" lon="9.54377">
        <ele>-2.75</ele>
        <time>2017-10-13T11:17:41Z</time>
      </trkpt>
      <trkpt lat="41.15697" lon="9.54468">
        <ele>-2.75</ele>
        <time>2017-10-13T11:18:05Z</time>
      </trkpt>
      <trkpt lat="41.15687" lon="9.54546">
        <ele>-4.67</ele>
        <time>2017-10-13T11:18:26Z</time>
      </trkpt>
      <trkpt lat="41.15667" lon="9.54621">
        <ele>-3.71</ele>
        <time>2017-10-13T11:18:47Z</time>
      </trkpt>
      <trkpt lat="41.15641" lon="9.54706">
        <ele>-3.71</ele>
        <time>2017-10-13T11:19:12Z</time>
      </trkpt>
      <trkpt lat="41.1562" lon="9.54775">
        <ele>-2.75</ele>
        <time>2017-10-13T11:19:34Z</time>
      </trkpt>
      <trkpt lat="41.156" lon="9.54835">
        <ele>-2.75</ele>
        <time>2017-10-13T11:19:54Z</time>
      </trkpt>
      <trkpt lat="41.15579" lon="9.54903">
        <ele>-2.27</ele>
        <time>2017-10-13T11:20:17Z</time>
      </trkpt>
      <trkpt lat="41.15562" lon="9.54952">
        <ele>-1.79</ele>
        <time>2017-10-13T11:20:38Z</time>
      </trkpt>
      <trkpt lat="41.15548" lon="9.54998">
        <ele>-1.3</ele>
        <time>2017-10-13T11:21:00Z</time>
      </trkpt>
      <trkpt lat="41.15531" lon="9.55041">
        <ele>-2.27</ele>
        <time>2017-10-13T11:21:24Z</time>
      </trkpt>
      <trkpt lat="41.15511" lon="9.55082">
        <ele>-2.75</ele>
        <time>2017-10-13T11:21:48Z</time>
      </trkpt>
      <trkpt lat="41.15488" lon="9.55126">
        <ele>-2.75</ele>
        <time>2017-10-13T11:22:14Z</time>
      </trkpt>
      <trkpt lat="41.15468" lon="9.55164">
        <ele>-2.75</ele>
        <time>2017-10-13T11:22:36Z</time>
      </trkpt>
      <trkpt lat="41.15456" lon="9.55185">
        <ele>-1.3</ele>
        <time>2017-10-13T11:22:48Z</time>
      </trkpt>
      <trkpt lat="41.15433" lon="9.55227">
        <ele>-2.27</ele>
        <time>2017-10-13T11:23:13Z</time>
      </trkpt>
      <trkpt lat="41.1541" lon="9.55273">
        <ele>-2.75</ele>
        <time>2017-10-13T11:23:38Z</time>
      </trkpt>
      <trkpt lat="41.15386" lon="9.5532">
        <ele>-2.27</ele>
        <time>2017-10-13T11:24:05Z</time>
      </trkpt>
      <trkpt lat="41.15365" lon="9.5536">
        <ele>-2.75</ele>
        <time>2017-10-13T11:24:28Z</time>
      </trkpt>
      <trkpt lat="41.15342" lon="9.55405">
        <ele>-1.79</ele>
        <time>2017-10-13T11:24:54Z</time>
      </trkpt>
      <trkpt lat="41.15323" lon="9.55446">
        <ele>-1.79</ele>
        <time>2017-10-13T11:25:17Z</time>
      </trkpt>
      <trkpt lat="41.153" lon="9.55487">
        <ele>-2.75</ele>
        <time>2017-10-13T11:25:40Z</time>
      </trkpt>
      <trkpt lat="41.15271" lon="9.55515">
        <ele>-3.23</ele>
        <time>2017-10-13T11:26:00Z</time>
      </trkpt>
      <trkpt lat="41.15231" lon="9.55559">
        <ele>-4.19</ele>
        <time>2017-10-13T11:26:21Z</time>
      </trkpt>
      <trkpt lat="41.15171" lon="9.55605">
        <ele>-3.23</ele>
        <time>2017-10-13T11:26:48Z</time>
      </trkpt>
      <trkpt lat="41.15119" lon="9.55653">
        <ele>-3.23</ele>
        <time>2017-10-13T11:27:13Z</time>
      </trkpt>
      <trkpt lat="41.15067" lon="9.55711">
        <ele>-3.71</ele>
        <time>2017-10-13T11:27:38Z</time>
      </trkpt>
      <trkpt lat="41.15008" lon="9.55772">
        <ele>-3.23</ele>
        <time>2017-10-13T11:28:04Z</time>
      </trkpt>
      <trkpt lat="41.1496" lon="9.55838">
        <ele>-2.27</ele>
        <time>2017-10-13T11:28:27Z</time>
      </trkpt>
      <trkpt lat="41.14904" lon="9.55925">
        <ele>-2.75</ele>
        <time>2017-10-13T11:28:53Z</time>
      </trkpt>
      <trkpt lat="41.14846" lon="9.5602">
        <ele>-3.23</ele>
        <time>2017-10-13T11:29:21Z</time>
      </trkpt>
      <trkpt lat="41.14797" lon="9.56091">
        <ele>-3.23</ele>
        <time>2017-10-13T11:29:43Z</time>
      </trkpt>
      <trkpt lat="41.14753" lon="9.56175">
        <ele>-2.75</ele>
        <time>2017-10-13T11:30:06Z</time>
      </trkpt>
      <trkpt lat="41.14711" lon="9.56233">
        <ele>-2.75</ele>
        <time>2017-10-13T11:30:24Z</time>
      </trkpt>
      <trkpt lat="41.14656" lon="9.56308">
        <ele>-2.75</ele>
        <time>2017-10-13T11:30:48Z</time>
      </trkpt>
      <trkpt lat="41.14597" lon="9.56385">
        <ele>-2.27</ele>
        <time>2017-10-13T11:31:12Z</time>
      </trkpt>
      <trkpt lat="41.14529" lon="9.56475">
        <ele>-2.27</ele>
        <time>2017-10-13T11:31:41Z</time>
      </trkpt>
      <trkpt lat="41.1447" lon="9.56561">
        <ele>-3.23</ele>
        <time>2017-10-13T11:32:07Z</time>
      </trkpt>
      <trkpt lat="41.14415" lon="9.56636">
        <ele>-3.71</ele>
        <time>2017-10-13T11:32:31Z</time>
      </trkpt>
      <trkpt lat="41.14363" lon="9.56708">
        <ele>-3.71</ele>
        <time>2017-10-13T11:32:54Z</time>
      </trkpt>
      <trkpt lat="41.14303" lon="9.56776">
        <ele>-3.23</ele>
        <time>2017-10-13T11:33:18Z</time>
      </trkpt>
      <trkpt lat="41.14238" lon="9.56847">
        <ele>-2.75</ele>
        <time>2017-10-13T11:33:44Z</time>
      </trkpt>
      <trkpt lat="41.14176" lon="9.5693">
        <ele>-3.23</ele>
        <time>2017-10-13T11:34:11Z</time>
      </trkpt>
      <trkpt lat="41.14122" lon="9.56997">
        <ele>-3.23</ele>
        <time>2017-10-13T11:34:33Z</time>
      </trkpt>
      <trkpt lat="41.14079" lon="9.57042">
        <ele>-2.75</ele>
        <time>2017-10-13T11:34:50Z</time>
      </trkpt>
      <trkpt lat="41.14006" lon="9.5712">
        <ele>-2.75</ele>
        <time>2017-10-13T11:35:20Z</time>
      </trkpt>
      <trkpt lat="41.13936" lon="9.57192">
        <ele>-2.75</ele>
        <time>2017-10-13T11:35:48Z</time>
      </trkpt>
      <trkpt lat="41.13868" lon="9.57262">
        <ele>-2.75</ele>
        <time>2017-10-13T11:36:15Z</time>
      </trkpt>
      <trkpt lat="41.13801" lon="9.57337">
        <ele>-3.23</ele>
        <time>2017-10-13T11:36:43Z</time>
      </trkpt>
      <trkpt lat="41.13742" lon="9.57415">
        <ele>-3.23</ele>
        <time>2017-10-13T11:37:08Z</time>
      </trkpt>
      <trkpt lat="41.13692" lon="9.57494">
        <ele>-3.23</ele>
        <time>2017-10-13T11:37:31Z</time>
      </trkpt>
      <trkpt lat="41.13662" lon="9.57548">
        <ele>-2.27</ele>
        <time>2017-10-13T11:37:46Z</time>
      </trkpt>
      <trkpt lat="41.13595" lon="9.57631">
        <ele>-2.75</ele>
        <time>2017-10-13T11:38:14Z</time>
      </trkpt>
      <trkpt lat="41.13531" lon="9.57689">
        <ele>-2.75</ele>
        <time>2017-10-13T11:38:39Z</time>
      </trkpt>
      <trkpt lat="41.13471" lon="9.57754">
        <ele>-2.75</ele>
        <time>2017-10-13T11:39:06Z</time>
      </trkpt>
      <trkpt lat="41.13427" lon="9.5782">
        <ele>-2.27</ele>
        <time>2017-10-13T11:39:29Z</time>
      </trkpt>
      <trkpt lat="41.13389" lon="9.57855">
        <ele>-2.27</ele>
        <time>2017-10-13T11:39:50Z</time>
      </trkpt>
      <trkpt lat="41.13356" lon="9.57903">
        <ele>-3.23</ele>
        <time>2017-10-13T11:40:17Z</time>
      </trkpt>
      <trkpt lat="41.13325" lon="9.5793">
        <ele>-3.23</ele>
        <time>2017-10-13T11:40:36Z</time>
      </trkpt>
      <trkpt lat="41.13282" lon="9.57979">
        <ele>-2.75</ele>
        <time>2017-10-13T11:40:58Z</time>
      </trkpt>
      <trkpt lat="41.13228" lon="9.58039">
        <ele>-2.75</ele>
        <time>2017-10-13T11:41:23Z</time>
      </trkpt>
      <trkpt lat="41.13173" lon="9.58089">
        <ele>-3.23</ele>
        <time>2017-10-13T11:41:47Z</time>
      </trkpt>
      <trkpt lat="41.13121" lon="9.58136">
        <ele>-3.23</ele>
        <time>2017-10-13T11:42:10Z</time>
      </trkpt>
      <trkpt lat="41.13069" lon="9.58181">
        <ele>-3.23</ele>
        <time>2017-10-13T11:42:31Z</time>
      </trkpt>
      <trkpt lat="41.13009" lon="9.5822">
        <ele>-3.71</ele>
        <time>2017-10-13T11:42:54Z</time>
      </trkpt>
      <trkpt lat="41.12936" lon="9.5827">
        <ele>-4.19</ele>
        <time>2017-10-13T11:43:24Z</time>
      </trkpt>
      <trkpt lat="41.12883" lon="9.5831">
        <ele>-2.75</ele>
        <time>2017-10-13T11:43:45Z</time>
      </trkpt>
      <trkpt lat="41.12821" lon="9.58346">
        <ele>-2.75</ele>
        <time>2017-10-13T11:44:08Z</time>
      </trkpt>
      <trkpt lat="41.12752" lon="9.5839">
        <ele>-2.27</ele>
        <time>2017-10-13T11:44:36Z</time>
      </trkpt>
      <trkpt lat="41.12693" lon="9.58418">
        <ele>-1.79</ele>
        <time>2017-10-13T11:45:02Z</time>
      </trkpt>
      <trkpt lat="41.1263" lon="9.58448">
        <ele>-2.27</ele>
        <time>2017-10-13T11:45:31Z</time>
      </trkpt>
      <trkpt lat="41.12563" lon="9.58485">
        <ele>-2.27</ele>
        <time>2017-10-13T11:46:01Z</time>
      </trkpt>
      <trkpt lat="41.12518" lon="9.58514">
        <ele>-1.79</ele>
        <time>2017-10-13T11:46:22Z</time>
      </trkpt>
      <trkpt lat="41.1246" lon="9.58555">
        <ele>-1.3</ele>
        <time>2017-10-13T11:46:46Z</time>
      </trkpt>
      <trkpt lat="41.12399" lon="9.58593">
        <ele>-1.3</ele>
        <time>2017-10-13T11:47:12Z</time>
      </trkpt>
      <trkpt lat="41.12332" lon="9.58637">
        <ele>-1.3</ele>
        <time>2017-10-13T11:47:41Z</time>
      </trkpt>
      <trkpt lat="41.12268" lon="9.58677">
        <ele>-0.34</ele>
        <time>2017-10-13T11:48:08Z</time>
      </trkpt>
      <trkpt lat="41.12197" lon="9.58718">
        <ele>-1.3</ele>
        <time>2017-10-13T11:48:40Z</time>
      </trkpt>
      <trkpt lat="41.12136" lon="9.58755">
        <ele>-0.82</ele>
        <time>2017-10-13T11:49:09Z</time>
      </trkpt>
      <trkpt lat="41.12076" lon="9.58791">
        <ele>-1.3</ele>
        <time>2017-10-13T11:49:38Z</time>
      </trkpt>
      <trkpt lat="41.12028" lon="9.5882">
        <ele>-0.82</ele>
        <time>2017-10-13T11:50:01Z</time>
      </trkpt>
      <trkpt lat="41.11974" lon="9.58855">
        <ele>-0.82</ele>
        <time>2017-10-13T11:50:26Z</time>
      </trkpt>
      <trkpt lat="41.11912" lon="9.58894">
        <ele>-0.82</ele>
        <time>2017-10-13T11:50:53Z</time>
      </trkpt>
      <trkpt lat="41.11851" lon="9.58933">
        <ele>-0.82</ele>
        <time>2017-10-13T11:51:20Z</time>
      </trkpt>
      <trkpt lat="41.11792" lon="9.58969">
        <ele>-1.3</ele>
        <time>2017-10-13T11:51:46Z</time>
      </trkpt>
      <trkpt lat="41.11734" lon="9.59005">
        <ele>-1.3</ele>
        <time>2017-10-13T11:52:11Z</time>
      </trkpt>
      <trkpt lat="41.11678" lon="9.5904">
        <ele>-0.34</ele>
        <time>2017-10-13T11:52:36Z</time>
      </trkpt>
      <trkpt lat="41.11623" lon="9.59077">
        <ele>-0.34</ele>
        <time>2017-10-13T11:53:01Z</time>
      </trkpt>
      <trkpt lat="41.11551" lon="9.59122">
        <ele>-0.82</ele>
        <time>2017-10-13T11:53:32Z</time>
      </trkpt>
      <trkpt lat="41.11489" lon="9.59163">
        <ele>-0.34</ele>
        <time>2017-10-13T11:53:59Z</time>
      </trkpt>
      <trkpt lat="41.1144" lon="9.59194">
        <ele>-0.34</ele>
        <time>2017-10-13T11:54:22Z</time>
      </trkpt>
      <trkpt lat="41.11375" lon="9.59238">
        <ele>0.14</ele>
        <time>2017-10-13T11:54:54Z</time>
      </trkpt>
      <trkpt lat="41.11317" lon="9.59278">
        <ele>-0.82</ele>
        <time>2017-10-13T11:55:21Z</time>
      </trkpt>
      <trkpt lat="41.11252" lon="9.5932">
        <ele>-0.34</ele>
        <time>2017-10-13T11:55:49Z</time>
      </trkpt>
      <trkpt lat="41.11193" lon="9.59357">
        <ele>0.14</ele>
        <time>2017-10-13T11:56:15Z</time>
      </trkpt>
      <trkpt lat="41.11133" lon="9.59396">
        <ele>0.14</ele>
        <time>2017-10-13T11:56:43Z</time>
      </trkpt>
      <trkpt lat="41.11077" lon="9.5943">
        <ele>-0.34</ele>
        <time>2017-10-13T11:57:10Z</time>
      </trkpt>
      <trkpt lat="41.11016" lon="9.59465">
        <ele>-1.3</ele>
        <time>2017-10-13T11:57:39Z</time>
      </trkpt>
      <trkpt lat="41.10962" lon="9.59496">
        <ele>-1.79</ele>
        <time>2017-10-13T11:58:04Z</time>
      </trkpt>
      <trkpt lat="41.10902" lon="9.59532">
        <ele>-1.3</ele>
        <time>2017-10-13T11:58:31Z</time>
      </trkpt>
      <trkpt lat="41.1084" lon="9.59567">
        <ele>-1.3</ele>
        <time>2017-10-13T11:58:58Z</time>
      </trkpt>
      <trkpt lat="41.1078" lon="9.59604">
        <ele>-1.3</ele>
        <time>2017-10-13T11:59:24Z</time>
      </trkpt>
      <trkpt lat="41.10714" lon="9.59644">
        <ele>-0.34</ele>
        <time>2017-10-13T11:59:52Z</time>
      </trkpt>
      <trkpt lat="41.10645" lon="9.59685">
        <ele>-0.34</ele>
        <time>2017-10-13T12:00:21Z</time>
      </trkpt>
      <trkpt lat="41.10588" lon="9.5972">
        <ele>-0.34</ele>
        <time>2017-10-13T12:00:47Z</time>
      </trkpt>
      <trkpt lat="41.10525" lon="9.59759">
        <ele>0.14</ele>
        <time>2017-10-13T12:01:16Z</time>
      </trkpt>
      <trkpt lat="41.10469" lon="9.59794">
        <ele>0.14</ele>
        <time>2017-10-13T12:01:41Z</time>
      </trkpt>
      <trkpt lat="41.10413" lon="9.59829">
        <ele>0.62</ele>
        <time>2017-10-13T12:02:06Z</time>
      </trkpt>
      <trkpt lat="41.10363" lon="9.5986">
        <ele>0.14</ele>
        <time>2017-10-13T12:02:28Z</time>
      </trkpt>
      <trkpt lat="41.10307" lon="9.59894">
        <ele>0.62</ele>
        <time>2017-10-13T12:02:52Z</time>
      </trkpt>
      <trkpt lat="41.10254" lon="9.59927">
        <ele>0.62</ele>
        <time>2017-10-13T12:03:15Z</time>
      </trkpt>
      <trkpt lat="41.10214" lon="9.59951">
        <ele>0.62</ele>
        <time>2017-10-13T12:03:33Z</time>
      </trkpt>
      <trkpt lat="41.10163" lon="9.59983">
        <ele>0.14</ele>
        <time>2017-10-13T12:03:56Z</time>
      </trkpt>
      <trkpt lat="41.10101" lon="9.60023">
        <ele>0.14</ele>
        <time>2017-10-13T12:04:21Z</time>
      </trkpt>
      <trkpt lat="41.10046" lon="9.6006">
        <ele>0.14</ele>
        <time>2017-10-13T12:04:42Z</time>
      </trkpt>
      <trkpt lat="41.09983" lon="9.60101">
        <ele>0.14</ele>
        <time>2017-10-13T12:05:06Z</time>
      </trkpt>
      <trkpt lat="41.09931" lon="9.60135">
        <ele>-0.34</ele>
        <time>2017-10-13T12:05:27Z</time>
      </trkpt>
      <trkpt lat="41.09877" lon="9.60172">
        <ele>0.14</ele>
        <time>2017-10-13T12:05:48Z</time>
      </trkpt>
      <trkpt lat="41.09824" lon="9.60206">
        <ele>-0.34</ele>
        <time>2017-10-13T12:06:10Z</time>
      </trkpt>
      <trkpt lat="41.09772" lon="9.6024">
        <ele>-0.34</ele>
        <time>2017-10-13T12:06:33Z</time>
      </trkpt>
      <trkpt lat="41.09717" lon="9.60276">
        <ele>-0.34</ele>
        <time>2017-10-13T12:06:56Z</time>
      </trkpt>
      <trkpt lat="41.09665" lon="9.60311">
        <ele>-0.82</ele>
        <time>2017-10-13T12:07:19Z</time>
      </trkpt>
      <trkpt lat="41.09615" lon="9.60344">
        <ele>-1.3</ele>
        <time>2017-10-13T12:07:40Z</time>
      </trkpt>
      <trkpt lat="41.09567" lon="9.60377">
        <ele>-0.34</ele>
        <time>2017-10-13T12:08:01Z</time>
      </trkpt>
      <trkpt lat="41.09511" lon="9.60415">
        <ele>-0.82</ele>
        <time>2017-10-13T12:08:25Z</time>
      </trkpt>
      <trkpt lat="41.09462" lon="9.60447">
        <ele>-0.82</ele>
        <time>2017-10-13T12:08:47Z</time>
      </trkpt>
      <trkpt lat="41.09411" lon="9.60483">
        <ele>-0.34</ele>
        <time>2017-10-13T12:09:09Z</time>
      </trkpt>
      <trkpt lat="41.09355" lon="9.60519">
        <ele>-0.82</ele>
        <time>2017-10-13T12:09:31Z</time>
      </trkpt>
      <trkpt lat="41.093" lon="9.60558">
        <ele>0.14</ele>
        <time>2017-10-13T12:09:53Z</time>
      </trkpt>
      <trkpt lat="41.0924" lon="9.60598">
        <ele>-0.34</ele>
        <time>2017-10-13T12:10:18Z</time>
      </trkpt>
      <trkpt lat="41.09185" lon="9.60636">
        <ele>-0.82</ele>
        <time>2017-10-13T12:10:41Z</time>
      </trkpt>
      <trkpt lat="41.09136" lon="9.6067">
        <ele>-0.34</ele>
        <time>2017-10-13T12:11:01Z</time>
      </trkpt>
      <trkpt lat="41.0908" lon="9.60708">
        <ele>0.14</ele>
        <time>2017-10-13T12:11:24Z</time>
      </trkpt>
      <trkpt lat="41.09025" lon="9.60746">
        <ele>0.14</ele>
        <time>2017-10-13T12:11:47Z</time>
      </trkpt>
      <trkpt lat="41.08971" lon="9.60784">
        <ele>-0.34</ele>
        <time>2017-10-13T12:12:09Z</time>
      </trkpt>
      <trkpt lat="41.08916" lon="9.60822">
        <ele>-0.34</ele>
        <time>2017-10-13T12:12:30Z</time>
      </trkpt>
      <trkpt lat="41.0887" lon="9.60854">
        <ele>-0.34</ele>
        <time>2017-10-13T12:12:49Z</time>
      </trkpt>
      <trkpt lat="41.08808" lon="9.60898">
        <ele>-0.82</ele>
        <time>2017-10-13T12:13:15Z</time>
      </trkpt>
      <trkpt lat="41.08753" lon="9.60936">
        <ele>-0.34</ele>
        <time>2017-10-13T12:13:37Z</time>
      </trkpt>
      <trkpt lat="41.08692" lon="9.60977">
        <ele>-0.34</ele>
        <time>2017-10-13T12:14:01Z</time>
      </trkpt>
      <trkpt lat="41.08638" lon="9.61014">
        <ele>0.14</ele>
        <time>2017-10-13T12:14:22Z</time>
      </trkpt>
      <trkpt lat="41.08586" lon="9.61051">
        <ele>-0.34</ele>
        <time>2017-10-13T12:14:42Z</time>
      </trkpt>
      <trkpt lat="41.08528" lon="9.61092">
        <ele>0.14</ele>
        <time>2017-10-13T12:15:05Z</time>
      </trkpt>
      <trkpt lat="41.08472" lon="9.6113">
        <ele>0.62</ele>
        <time>2017-10-13T12:15:26Z</time>
      </trkpt>
      <trkpt lat="41.08411" lon="9.61164">
        <ele>0.62</ele>
        <time>2017-10-13T12:15:49Z</time>
      </trkpt>
      <trkpt lat="41.0835" lon="9.61188">
        <ele>-0.34</ele>
        <time>2017-10-13T12:16:13Z</time>
      </trkpt>
      <trkpt lat="41.08302" lon="9.61201">
        <ele>-1.3</ele>
        <time>2017-10-13T12:16:33Z</time>
      </trkpt>
      <trkpt lat="41.08248" lon="9.61221">
        <ele>-1.3</ele>
        <time>2017-10-13T12:16:55Z</time>
      </trkpt>
      <trkpt lat="41.08195" lon="9.61236">
        <ele>-1.79</ele>
        <time>2017-10-13T12:17:18Z</time>
      </trkpt>
      <trkpt lat="41.08143" lon="9.61252">
        <ele>-0.34</ele>
        <time>2017-10-13T12:17:41Z</time>
      </trkpt>
      <trkpt lat="41.08102" lon="9.61265">
        <ele>-1.3</ele>
        <time>2017-10-13T12:17:58Z</time>
      </trkpt>
      <trkpt lat="41.08058" lon="9.61269">
        <ele>-0.82</ele>
        <time>2017-10-13T12:18:19Z</time>
      </trkpt>
      <trkpt lat="41.0802" lon="9.61271">
        <ele>-0.34</ele>
        <time>2017-10-13T12:18:40Z</time>
      </trkpt>
      <trkpt lat="41.07982" lon="9.61284">
        <ele>0.14</ele>
        <time>2017-10-13T12:19:01Z</time>
      </trkpt>
      <trkpt lat="41.07937" lon="9.61307">
        <ele>0.62</ele>
        <time>2017-10-13T12:19:22Z</time>
      </trkpt>
      <trkpt lat="41.07895" lon="9.61324">
        <ele>0.14</ele>
        <time>2017-10-13T12:19:42Z</time>
      </trkpt>
      <trkpt lat="41.07853" lon="9.61343">
        <ele>0.14</ele>
        <time>2017-10-13T12:20:03Z</time>
      </trkpt>
      <trkpt lat="41.07807" lon="9.61372">
        <ele>0.62</ele>
        <time>2017-10-13T12:20:24Z</time>
      </trkpt>
      <trkpt lat="41.07771" lon="9.61383">
        <ele>0.62</ele>
        <time>2017-10-13T12:20:42Z</time>
      </trkpt>
      <trkpt lat="41.07729" lon="9.61393">
        <ele>1.1</ele>
        <time>2017-10-13T12:21:06Z</time>
      </trkpt>
      <trkpt lat="41.07689" lon="9.61405">
        <ele>0.62</ele>
        <time>2017-10-13T12:21:31Z</time>
      </trkpt>
      <trkpt lat="41.07655" lon="9.61413">
        <ele>0.62</ele>
        <time>2017-10-13T12:21:52Z</time>
      </trkpt>
      <trkpt lat="41.07613" lon="9.61418">
        <ele>-0.82</ele>
        <time>2017-10-13T12:22:18Z</time>
      </trkpt>
      <trkpt lat="41.07568" lon="9.61418">
        <ele>-0.34</ele>
        <time>2017-10-13T12:22:46Z</time>
      </trkpt>
      <trkpt lat="41.07537" lon="9.61409">
        <ele>-0.82</ele>
        <time>2017-10-13T12:23:07Z</time>
      </trkpt>
      <trkpt lat="41.07494" lon="9.614">
        <ele>-1.3</ele>
        <time>2017-10-13T12:23:35Z</time>
      </trkpt>
      <trkpt lat="41.07462" lon="9.61388">
        <ele>-1.3</ele>
        <time>2017-10-13T12:23:56Z</time>
      </trkpt>
      <trkpt lat="41.07427" lon="9.61375">
        <ele>-1.3</ele>
        <time>2017-10-13T12:24:21Z</time>
      </trkpt>
      <trkpt lat="41.07392" lon="9.61363">
        <ele>-0.82</ele>
        <time>2017-10-13T12:24:45Z</time>
      </trkpt>
      <trkpt lat="41.07349" lon="9.6135">
        <ele>-0.34</ele>
        <time>2017-10-13T12:25:13Z</time>
      </trkpt>
      <trkpt lat="41.07307" lon="9.61333">
        <ele>-0.82</ele>
        <time>2017-10-13T12:25:41Z</time>
      </trkpt>
      <trkpt lat="41.07271" lon="9.61317">
        <ele>-0.34</ele>
        <time>2017-10-13T12:26:06Z</time>
      </trkpt>
      <trkpt lat="41.07228" lon="9.61301">
        <ele>-0.34</ele>
        <time>2017-10-13T12:26:34Z</time>
      </trkpt>
      <trkpt lat="41.0719" lon="9.61284">
        <ele>0.14</ele>
        <time>2017-10-13T12:26:58Z</time>
      </trkpt>
      <trkpt lat="41.07166" lon="9.61253">
        <ele>-0.34</ele>
        <time>2017-10-13T12:27:18Z</time>
      </trkpt>
      <trkpt lat="41.07147" lon="9.61213">
        <ele>-0.34</ele>
        <time>2017-10-13T12:27:39Z</time>
      </trkpt>
      <trkpt lat="41.07124" lon="9.61169">
        <ele>-0.34</ele>
        <time>2017-10-13T12:28:02Z</time>
      </trkpt>
      <trkpt lat="41.07101" lon="9.61124">
        <ele>-0.34</ele>
        <time>2017-10-13T12:28:26Z</time>
      </trkpt>
      <trkpt lat="41.07078" lon="9.61074">
        <ele>-0.34</ele>
        <time>2017-10-13T12:28:48Z</time>
      </trkpt>
      <trkpt lat="41.07067" lon="9.6103">
        <ele>-0.82</ele>
        <time>2017-10-13T12:29:03Z</time>
      </trkpt>
      <trkpt lat="41.07046" lon="9.60968">
        <ele>0.62</ele>
        <time>2017-10-13T12:29:23Z</time>
      </trkpt>
      <trkpt lat="41.07028" lon="9.60911">
        <ele>0.62</ele>
        <time>2017-10-13T12:29:41Z</time>
      </trkpt>
      <trkpt lat="41.07017" lon="9.6085">
        <ele>-0.82</ele>
        <time>2017-10-13T12:29:59Z</time>
      </trkpt>
      <trkpt lat="41.07008" lon="9.60755">
        <ele>-0.34</ele>
        <time>2017-10-13T12:30:26Z</time>
      </trkpt>
      <trkpt lat="41.07002" lon="9.60685">
        <ele>-0.34</ele>
        <time>2017-10-13T12:30:45Z</time>
      </trkpt>
      <trkpt lat="41.0699" lon="9.60601">
        <ele>-0.82</ele>
        <time>2017-10-13T12:31:10Z</time>
      </trkpt>
      <trkpt lat="41.06977" lon="9.60526">
        <ele>-0.34</ele>
        <time>2017-10-13T12:31:37Z</time>
      </trkpt>
      <trkpt lat="41.06969" lon="9.60456">
        <ele>-0.34</ele>
        <time>2017-10-13T12:32:03Z</time>
      </trkpt>
      <trkpt lat="41.06969" lon="9.60376">
        <ele>-0.82</ele>
        <time>2017-10-13T12:32:30Z</time>
      </trkpt>
      <trkpt lat="41.06973" lon="9.60297">
        <ele>-0.82</ele>
        <time>2017-10-13T12:32:58Z</time>
      </trkpt>
      <trkpt lat="41.0698" lon="9.60242">
        <ele>0.14</ele>
        <time>2017-10-13T12:33:20Z</time>
      </trkpt>
      <trkpt lat="41.06992" lon="9.60176">
        <ele>0.14</ele>
        <time>2017-10-13T12:33:50Z</time>
      </trkpt>
      <trkpt lat="41.07011" lon="9.60117">
        <ele>0.14</ele>
        <time>2017-10-13T12:34:21Z</time>
      </trkpt>
      <trkpt lat="41.07036" lon="9.60065">
        <ele>1.58</ele>
        <time>2017-10-13T12:34:51Z</time>
      </trkpt>
      <trkpt lat="41.07064" lon="9.60046">
        <ele>0.62</ele>
        <time>2017-10-13T12:35:21Z</time>
      </trkpt>
      <trkpt lat="41.07087" lon="9.60034">
        <ele>0.62</ele>
        <time>2017-10-13T12:35:49Z</time>
      </trkpt>
      <trkpt lat="41.07109" lon="9.60025">
        <ele>0.62</ele>
        <time>2017-10-13T12:36:18Z</time>
      </trkpt>
      <trkpt lat="41.07141" lon="9.60015">
        <ele>0.62</ele>
        <time>2017-10-13T12:36:51Z</time>
      </trkpt>
      <trkpt lat="41.07173" lon="9.60018">
        <ele>-0.34</ele>
        <time>2017-10-13T12:37:18Z</time>
      </trkpt>
      <trkpt lat="41.07208" lon="9.60031">
        <ele>0.14</ele>
        <time>2017-10-13T12:37:48Z</time>
      </trkpt>
      <trkpt lat="41.07233" lon="9.60041">
        <ele>0.62</ele>
        <time>2017-10-13T12:38:12Z</time>
      </trkpt>
      <trkpt lat="41.07257" lon="9.6005">
        <ele>0.62</ele>
        <time>2017-10-13T12:38:45Z</time>
      </trkpt>
      <trkpt lat="41.07273" lon="9.60059">
        <ele>1.1</ele>
        <time>2017-10-13T12:39:17Z</time>
      </trkpt>
      <trkpt lat="41.0729" lon="9.60077">
        <ele>1.1</ele>
        <time>2017-10-13T12:39:57Z</time>
      </trkpt>
      <trkpt lat="41.0729" lon="9.60078">
        <ele>1.1</ele>
        <time>2017-10-13T12:40:24Z</time>
      </trkpt>
      <trkpt lat="41.07286" lon="9.60069">
        <ele>1.58</ele>
        <time>2017-10-13T12:40:52Z</time>
      </trkpt>
      <trkpt lat="41.07282" lon="9.60065">
        <ele>1.1</ele>
        <time>2017-10-13T12:41:25Z</time>
      </trkpt>
      <trkpt lat="41.0728" lon="9.60067">
        <ele>1.1</ele>
        <time>2017-10-13T12:41:50Z</time>
      </trkpt>
      <trkpt lat="41.07278" lon="9.60071">
        <ele>1.1</ele>
        <time>2017-10-13T12:42:13Z</time>
      </trkpt>
      <trkpt lat="41.06928" lon="9.59528">
        <ele>-19.09</ele>
        <time>2017-10-13T15:25:19Z</time>
      </trkpt>
      <trkpt lat="41.06891" lon="9.59473">
        <ele>-1.79</ele>
        <time>2017-10-13T15:25:34Z</time>
      </trkpt>
      <trkpt lat="41.06863" lon="9.59422">
        <ele>-1.3</ele>
        <time>2017-10-13T15:25:48Z</time>
      </trkpt>
      <trkpt lat="41.06824" lon="9.59366">
        <ele>2.06</ele>
        <time>2017-10-13T15:26:06Z</time>
      </trkpt>
      <trkpt lat="41.06793" lon="9.59316">
        <ele>2.06</ele>
        <time>2017-10-13T15:26:25Z</time>
      </trkpt>
      <trkpt lat="41.06771" lon="9.59275">
        <ele>2.54</ele>
        <time>2017-10-13T15:26:44Z</time>
      </trkpt>
      <trkpt lat="41.06745" lon="9.59227">
        <ele>2.54</ele>
        <time>2017-10-13T15:27:06Z</time>
      </trkpt>
      <trkpt lat="41.06723" lon="9.59188">
        <ele>3.5</ele>
        <time>2017-10-13T15:27:22Z</time>
      </trkpt>
      <trkpt lat="41.06699" lon="9.59141">
        <ele>3.5</ele>
        <time>2017-10-13T15:27:39Z</time>
      </trkpt>
      <trkpt lat="41.06674" lon="9.59091">
        <ele>3.02</ele>
        <time>2017-10-13T15:27:57Z</time>
      </trkpt>
      <trkpt lat="41.06641" lon="9.59026">
        <ele>3.02</ele>
        <time>2017-10-13T15:28:21Z</time>
      </trkpt>
      <trkpt lat="41.06612" lon="9.58973">
        <ele>3.02</ele>
        <time>2017-10-13T15:28:42Z</time>
      </trkpt>
      <trkpt lat="41.06578" lon="9.58916">
        <ele>3.02</ele>
        <time>2017-10-13T15:29:05Z</time>
      </trkpt>
      <trkpt lat="41.06551" lon="9.5886">
        <ele>1.1</ele>
        <time>2017-10-13T15:29:25Z</time>
      </trkpt>
      <trkpt lat="41.0651" lon="9.58786">
        <ele>2.06</ele>
        <time>2017-10-13T15:29:51Z</time>
      </trkpt>
      <trkpt lat="41.06471" lon="9.5872">
        <ele>3.02</ele>
        <time>2017-10-13T15:30:18Z</time>
      </trkpt>
      <trkpt lat="41.06428" lon="9.5865">
        <ele>3.5</ele>
        <time>2017-10-13T15:30:48Z</time>
      </trkpt>
      <trkpt lat="41.06391" lon="9.58586">
        <ele>3.5</ele>
        <time>2017-10-13T15:31:15Z</time>
      </trkpt>
      <trkpt lat="41.06347" lon="9.58512">
        <ele>3.5</ele>
        <time>2017-10-13T15:31:46Z</time>
      </trkpt>
      <trkpt lat="41.06301" lon="9.58437">
        <ele>3.5</ele>
        <time>2017-10-13T15:32:18Z</time>
      </trkpt>
      <trkpt lat="41.06257" lon="9.5836">
        <ele>3.5</ele>
        <time>2017-10-13T15:32:49Z</time>
      </trkpt>
      <trkpt lat="41.06219" lon="9.5829">
        <ele>3.5</ele>
        <time>2017-10-13T15:33:20Z</time>
      </trkpt>
      <trkpt lat="41.0618" lon="9.58225">
        <ele>3.02</ele>
        <time>2017-10-13T15:33:49Z</time>
      </trkpt>
      <trkpt lat="41.06136" lon="9.5815">
        <ele>3.02</ele>
        <time>2017-10-13T15:34:23Z</time>
      </trkpt>
      <trkpt lat="41.06103" lon="9.58091">
        <ele>2.54</ele>
        <time>2017-10-13T15:34:53Z</time>
      </trkpt>
      <trkpt lat="41.06066" lon="9.58024">
        <ele>3.02</ele>
        <time>2017-10-13T15:35:26Z</time>
      </trkpt>
      <trkpt lat="41.06024" lon="9.57949">
        <ele>2.06</ele>
        <time>2017-10-13T15:35:58Z</time>
      </trkpt>
      <trkpt lat="41.05985" lon="9.57876">
        <ele>1.58</ele>
        <time>2017-10-13T15:36:27Z</time>
      </trkpt>
      <trkpt lat="41.05948" lon="9.57799">
        <ele>1.58</ele>
        <time>2017-10-13T15:36:56Z</time>
      </trkpt>
      <trkpt lat="41.05914" lon="9.57734">
        <ele>2.06</ele>
        <time>2017-10-13T15:37:25Z</time>
      </trkpt>
      <trkpt lat="41.05874" lon="9.57662">
        <ele>1.1</ele>
        <time>2017-10-13T15:37:54Z</time>
      </trkpt>
      <trkpt lat="41.0584" lon="9.57597">
        <ele>1.58</ele>
        <time>2017-10-13T15:38:18Z</time>
      </trkpt>
      <trkpt lat="41.058" lon="9.57523">
        <ele>2.54</ele>
        <time>2017-10-13T15:38:46Z</time>
      </trkpt>
      <trkpt lat="41.05765" lon="9.5746">
        <ele>2.54</ele>
        <time>2017-10-13T15:39:09Z</time>
      </trkpt>
      <trkpt lat="41.0572" lon="9.57375">
        <ele>3.02</ele>
        <time>2017-10-13T15:39:39Z</time>
      </trkpt>
      <trkpt lat="41.05679" lon="9.57301">
        <ele>3.5</ele>
        <time>2017-10-13T15:40:06Z</time>
      </trkpt>
      <trkpt lat="41.05641" lon="9.57233">
        <ele>3.5</ele>
        <time>2017-10-13T15:40:31Z</time>
      </trkpt>
      <trkpt lat="41.056" lon="9.57155">
        <ele>3.02</ele>
        <time>2017-10-13T15:40:57Z</time>
      </trkpt>
      <trkpt lat="41.0556" lon="9.5708">
        <ele>3.5</ele>
        <time>2017-10-13T15:41:21Z</time>
      </trkpt>
      <trkpt lat="41.05517" lon="9.56992">
        <ele>2.54</ele>
        <time>2017-10-13T15:41:48Z</time>
      </trkpt>
      <trkpt lat="41.05472" lon="9.56911">
        <ele>3.5</ele>
        <time>2017-10-13T15:42:13Z</time>
      </trkpt>
      <trkpt lat="41.05435" lon="9.56846">
        <ele>3.5</ele>
        <time>2017-10-13T15:42:34Z</time>
      </trkpt>
      <trkpt lat="41.05397" lon="9.56781">
        <ele>3.5</ele>
        <time>2017-10-13T15:42:57Z</time>
      </trkpt>
      <trkpt lat="41.05359" lon="9.56705">
        <ele>3.98</ele>
        <time>2017-10-13T15:43:21Z</time>
      </trkpt>
      <trkpt lat="41.05317" lon="9.5662">
        <ele>3.02</ele>
        <time>2017-10-13T15:43:47Z</time>
      </trkpt>
      <trkpt lat="41.05278" lon="9.56543">
        <ele>3.02</ele>
        <time>2017-10-13T15:44:11Z</time>
      </trkpt>
      <trkpt lat="41.05239" lon="9.56468">
        <ele>2.54</ele>
        <time>2017-10-13T15:44:34Z</time>
      </trkpt>
      <trkpt lat="41.05203" lon="9.56397">
        <ele>3.02</ele>
        <time>2017-10-13T15:44:55Z</time>
      </trkpt>
      <trkpt lat="41.05164" lon="9.56323">
        <ele>3.02</ele>
        <time>2017-10-13T15:45:18Z</time>
      </trkpt>
      <trkpt lat="41.05126" lon="9.56244">
        <ele>3.5</ele>
        <time>2017-10-13T15:45:42Z</time>
      </trkpt>
      <trkpt lat="41.05084" lon="9.56162">
        <ele>3.98</ele>
        <time>2017-10-13T15:46:08Z</time>
      </trkpt>
      <trkpt lat="41.05048" lon="9.56093">
        <ele>3.5</ele>
        <time>2017-10-13T15:46:32Z</time>
      </trkpt>
      <trkpt lat="41.05011" lon="9.56019">
        <ele>3.5</ele>
        <time>2017-10-13T15:46:57Z</time>
      </trkpt>
      <trkpt lat="41.04971" lon="9.55936">
        <ele>3.98</ele>
        <time>2017-10-13T15:47:24Z</time>
      </trkpt>
      <trkpt lat="41.04935" lon="9.55863">
        <ele>4.94</ele>
        <time>2017-10-13T15:47:46Z</time>
      </trkpt>
      <trkpt lat="41.04898" lon="9.5579">
        <ele>4.94</ele>
        <time>2017-10-13T15:48:10Z</time>
      </trkpt>
      <trkpt lat="41.04867" lon="9.55722">
        <ele>4.94</ele>
        <time>2017-10-13T15:48:32Z</time>
      </trkpt>
      <trkpt lat="41.04828" lon="9.55648">
        <ele>3.5</ele>
        <time>2017-10-13T15:48:58Z</time>
      </trkpt>
      <trkpt lat="41.04798" lon="9.55585">
        <ele>2.54</ele>
        <time>2017-10-13T15:49:17Z</time>
      </trkpt>
      <trkpt lat="41.04769" lon="9.55523">
        <ele>3.5</ele>
        <time>2017-10-13T15:49:35Z</time>
      </trkpt>
      <trkpt lat="41.04738" lon="9.55455">
        <ele>3.98</ele>
        <time>2017-10-13T15:49:54Z</time>
      </trkpt>
      <trkpt lat="41.04706" lon="9.55388">
        <ele>3.5</ele>
        <time>2017-10-13T15:50:13Z</time>
      </trkpt>
      <trkpt lat="41.04673" lon="9.5532">
        <ele>3.02</ele>
        <time>2017-10-13T15:50:33Z</time>
      </trkpt>
      <trkpt lat="41.04644" lon="9.55251">
        <ele>3.5</ele>
        <time>2017-10-13T15:50:52Z</time>
      </trkpt>
      <trkpt lat="41.04609" lon="9.55175">
        <ele>2.54</ele>
        <time>2017-10-13T15:51:13Z</time>
      </trkpt>
      <trkpt lat="41.04571" lon="9.55098">
        <ele>2.54</ele>
        <time>2017-10-13T15:51:34Z</time>
      </trkpt>
      <trkpt lat="41.0453" lon="9.5502">
        <ele>2.54</ele>
        <time>2017-10-13T15:51:57Z</time>
      </trkpt>
      <trkpt lat="41.04491" lon="9.54943">
        <ele>2.54</ele>
        <time>2017-10-13T15:52:20Z</time>
      </trkpt>
      <trkpt lat="41.0445" lon="9.54857">
        <ele>2.54</ele>
        <time>2017-10-13T15:52:46Z</time>
      </trkpt>
      <trkpt lat="41.04412" lon="9.54777">
        <ele>2.54</ele>
        <time>2017-10-13T15:53:09Z</time>
      </trkpt>
      <trkpt lat="41.0437" lon="9.54684">
        <ele>2.06</ele>
        <time>2017-10-13T15:53:36Z</time>
      </trkpt>
      <trkpt lat="41.04329" lon="9.54592">
        <ele>2.54</ele>
        <time>2017-10-13T15:54:02Z</time>
      </trkpt>
      <trkpt lat="41.04289" lon="9.54503">
        <ele>3.5</ele>
        <time>2017-10-13T15:54:26Z</time>
      </trkpt>
      <trkpt lat="41.04263" lon="9.54441">
        <ele>3.5</ele>
        <time>2017-10-13T15:54:44Z</time>
      </trkpt>
      <trkpt lat="41.04223" lon="9.5437">
        <ele>3.98</ele>
        <time>2017-10-13T15:55:06Z</time>
      </trkpt>
      <trkpt lat="41.04185" lon="9.54306">
        <ele>3.02</ele>
        <time>2017-10-13T15:55:26Z</time>
      </trkpt>
      <trkpt lat="41.04152" lon="9.54238">
        <ele>4.46</ele>
        <time>2017-10-13T15:55:44Z</time>
      </trkpt>
      <trkpt lat="41.04111" lon="9.54167">
        <ele>4.94</ele>
        <time>2017-10-13T15:56:04Z</time>
      </trkpt>
      <trkpt lat="41.04064" lon="9.54084">
        <ele>4.94</ele>
        <time>2017-10-13T15:56:28Z</time>
      </trkpt>
      <trkpt lat="41.04023" lon="9.54014">
        <ele>5.42</ele>
        <time>2017-10-13T15:56:48Z</time>
      </trkpt>
      <trkpt lat="41.03978" lon="9.53941">
        <ele>4.94</ele>
        <time>2017-10-13T15:57:09Z</time>
      </trkpt>
      <trkpt lat="41.03923" lon="9.53853">
        <ele>5.42</ele>
        <time>2017-10-13T15:57:36Z</time>
      </trkpt>
      <trkpt lat="41.03879" lon="9.53777">
        <ele>4.46</ele>
        <time>2017-10-13T15:57:58Z</time>
      </trkpt>
      <trkpt lat="41.03843" lon="9.53709">
        <ele>4.46</ele>
        <time>2017-10-13T15:58:17Z</time>
      </trkpt>
      <trkpt lat="41.03786" lon="9.53603">
        <ele>4.94</ele>
        <time>2017-10-13T15:58:46Z</time>
      </trkpt>
      <trkpt lat="41.03741" lon="9.53521">
        <ele>4.94</ele>
        <time>2017-10-13T15:59:08Z</time>
      </trkpt>
      <trkpt lat="41.03693" lon="9.53438">
        <ele>4.46</ele>
        <time>2017-10-13T15:59:31Z</time>
      </trkpt>
      <trkpt lat="41.03647" lon="9.53358">
        <ele>4.46</ele>
        <time>2017-10-13T15:59:53Z</time>
      </trkpt>
      <trkpt lat="41.03597" lon="9.53277">
        <ele>4.94</ele>
        <time>2017-10-13T16:00:17Z</time>
      </trkpt>
      <trkpt lat="41.03539" lon="9.53202">
        <ele>3.02</ele>
        <time>2017-10-13T16:00:42Z</time>
      </trkpt>
      <trkpt lat="41.03502" lon="9.53158">
        <ele>2.54</ele>
        <time>2017-10-13T16:00:59Z</time>
      </trkpt>
      <trkpt lat="41.03498" lon="9.53115">
        <ele>2.54</ele>
        <time>2017-10-13T16:01:14Z</time>
      </trkpt>
      <trkpt lat="41.03482" lon="9.53074">
        <ele>3.02</ele>
        <time>2017-10-13T16:01:33Z</time>
      </trkpt>
      <trkpt lat="41.03447" lon="9.53026">
        <ele>2.06</ele>
        <time>2017-10-13T16:01:57Z</time>
      </trkpt>
      <trkpt lat="41.03399" lon="9.52968">
        <ele>2.54</ele>
        <time>2017-10-13T16:02:22Z</time>
      </trkpt>
      <trkpt lat="41.0335" lon="9.52914">
        <ele>3.02</ele>
        <time>2017-10-13T16:02:46Z</time>
      </trkpt>
      <trkpt lat="41.0329" lon="9.52849">
        <ele>3.02</ele>
        <time>2017-10-13T16:03:15Z</time>
      </trkpt>
      <trkpt lat="41.03246" lon="9.52787">
        <ele>2.54</ele>
        <time>2017-10-13T16:03:39Z</time>
      </trkpt>
      <trkpt lat="41.03219" lon="9.52725">
        <ele>2.54</ele>
        <time>2017-10-13T16:04:02Z</time>
      </trkpt>
      <trkpt lat="41.03219" lon="9.52678">
        <ele>2.06</ele>
        <time>2017-10-13T16:04:23Z</time>
      </trkpt>
      <trkpt lat="41.03234" lon="9.52633">
        <ele>2.06</ele>
        <time>2017-10-13T16:04:50Z</time>
      </trkpt>
      <trkpt lat="41.03258" lon="9.52609">
        <ele>2.54</ele>
        <time>2017-10-13T16:05:11Z</time>
      </trkpt>
      <trkpt lat="41.03292" lon="9.52579">
        <ele>1.58</ele>
        <time>2017-10-13T16:05:39Z</time>
      </trkpt>
      <trkpt lat="41.03339" lon="9.52541">
        <ele>1.58</ele>
        <time>2017-10-13T16:06:15Z</time>
      </trkpt>
      <trkpt lat="41.03373" lon="9.52506">
        <ele>2.06</ele>
        <time>2017-10-13T16:06:46Z</time>
      </trkpt>
      <trkpt lat="41.03366" lon="9.52472">
        <ele>4.46</ele>
        <time>2017-10-13T16:07:11Z</time>
      </trkpt>
      <trkpt lat="41.03342" lon="9.52456">
        <ele>4.46</ele>
        <time>2017-10-13T16:07:35Z</time>
      </trkpt>
      <trkpt lat="41.03306" lon="9.52449">
        <ele>4.46</ele>
        <time>2017-10-13T16:08:08Z</time>
      </trkpt>
      <trkpt lat="41.03272" lon="9.52448">
        <ele>4.94</ele>
        <time>2017-10-13T16:08:39Z</time>
      </trkpt>
      <trkpt lat="41.03243" lon="9.52454">
        <ele>6.39</ele>
        <time>2017-10-13T16:09:05Z</time>
      </trkpt>
      <trkpt lat="41.03221" lon="9.52456">
        <ele>6.39</ele>
        <time>2017-10-13T16:09:29Z</time>
      </trkpt>
      <trkpt lat="41.03223" lon="9.52455">
        <ele>5.91</ele>
        <time>2017-10-13T16:09:33Z</time>
      </trkpt>
      <trkpt lat="41.0324" lon="9.52434">
        <ele>3.98</ele>
        <time>2017-10-13T16:09:57Z</time>
      </trkpt>
      <trkpt lat="41.03239" lon="9.52408">
        <ele>5.42</ele>
        <time>2017-10-13T16:10:19Z</time>
      </trkpt>
      <trkpt lat="41.03239" lon="9.52407">
        <ele>5.42</ele>
        <time>2017-10-13T16:10:20Z</time>
      </trkpt>
      <trkpt lat="41.03253" lon="9.52392">
        <ele>6.87</ele>
        <time>2017-10-13T16:10:44Z</time>
      </trkpt>
      <trkpt lat="41.03255" lon="9.52392">
        <ele>5.91</ele>
        <time>2017-10-13T16:11:10Z</time>
      </trkpt>
      <trkpt lat="41.03256" lon="9.52391">
        <ele>5.91</ele>
        <time>2017-10-13T16:11:41Z</time>
      </trkpt>
      <trkpt lat="41.03257" lon="9.52392">
        <ele>5.91</ele>
        <time>2017-10-13T16:12:07Z</time>
      </trkpt>
      <trkpt lat="41.03257" lon="9.52391">
        <ele>5.42</ele>
        <time>2017-10-13T16:12:30Z</time>
      </trkpt>
      <trkpt lat="41.03257" lon="9.52391">
        <ele>5.42</ele>
        <time>2017-10-13T16:12:57Z</time>
      </trkpt>
      <trkpt lat="41.03258" lon="9.5239">
        <ele>5.42</ele>
        <time>2017-10-13T16:13:32Z</time>
      </trkpt>
      <trkpt lat="41.03258" lon="9.52389">
        <ele>4.46</ele>
        <time>2017-10-13T16:14:02Z</time>
      </trkpt>
      <trkpt lat="41.03258" lon="9.52389">
        <ele>4.46</ele>
        <time>2017-10-13T16:14:30Z</time>
      </trkpt>
      <trkpt lat="41.0326" lon="9.52389">
        <ele>3.5</ele>
        <time>2017-10-13T16:14:57Z</time>
      </trkpt>
      <trkpt lat="41.0326" lon="9.52389">
        <ele>3.02</ele>
        <time>2017-10-13T16:15:23Z</time>
      </trkpt>
      <trkpt lat="41.0326" lon="9.52389">
        <ele>3.5</ele>
        <time>2017-10-13T16:15:48Z</time>
      </trkpt>
      <trkpt lat="41.0326" lon="9.52389">
        <ele>3.5</ele>
        <time>2017-10-13T16:16:16Z</time>
      </trkpt>
      <trkpt lat="41.03259" lon="9.5239">
        <ele>3.02</ele>
        <time>2017-10-13T16:16:43Z</time>
      </trkpt>
      <trkpt lat="41.03259" lon="9.5239">
        <ele>3.5</ele>
        <time>2017-10-13T16:17:00Z</time>
      </trkpt>
    </trkseg>
  </trk>
</gpx>